<?xml version="1.0" encoding="UTF-8" standalone="no" ?>
<gpx xmlns="http://www.topografix.com/GPX/1/1" xmlns:xsi="http://www.w3.org/2001/XMLSchema-instance" xsi:schemaLocation="http://www.topografix.com/GPX/1/1 http://www.topografix.com/GPX/1/1/gpx.xsd" version="1.1" creator="VisuGPX - https://www.visugpx.com">
  <metadata>
    <name>ASPREMONT RECO XMB + Speciales Mt CHAUVE</name>
    <desc><![CDATA[Superbe rando à proximité de Nice qui alterne les montées de ouf avec des superbes descentes.
Départ du Crématorium de Nice sur la plaine du var, on prend un petit bout de la 202 pour vite monter sur Aspremont par une petite route puis une coupe par un escalier qui permet de rejoindre la route "normale" et d'arriver rapidement au village. ensuite on suit le balisage de l'XMB avec ses nombreuses boucles puis on reviens pour le casse-croûté au village. la 2eme partie, on remonte au col d'Aspremont (ravito de la TV)on monte à gauche et on enchaine les spéciales du Mont chauve avec un retour par la piste au dessus de Tourette Levens qui ramene encore une fois au col d'Aspremont puis le village et le final par le sentier du cimetière.Attention lorsqu'on arrive au canal il faut prendre à gauche puis au bout de 500m le sentier qui part à droite.
Un peu plus loin prendre à gauche l'escalier cimenté puis en haut à droite.
]]></desc>
  </metadata>
  <trk>
    <name><![CDATA[Colomars Cyclisme]]></name>
    <trkseg>
      <trkpt lat="43.77146" lon="7.21441">
        <ele>78</ele>
        <time>2020-02-22T07:50:54.000Z</time>
      </trkpt>
      <trkpt lat="43.77145" lon="7.21441">
        <ele>78</ele>
        <time>2020-02-22T07:50:58.000Z</time>
      </trkpt>
      <trkpt lat="43.77145" lon="7.21441">
        <ele>77.800003051758</ele>
        <time>2020-02-22T07:51:13.000Z</time>
      </trkpt>
      <trkpt lat="43.77145" lon="7.21439">
        <ele>77.800003051758</ele>
        <time>2020-02-22T07:51:15.000Z</time>
      </trkpt>
      <trkpt lat="43.77148" lon="7.21437">
        <ele>77.800003051758</ele>
        <time>2020-02-22T07:51:18.000Z</time>
      </trkpt>
      <trkpt lat="43.77151" lon="7.21433">
        <ele>77.599998474121</ele>
        <time>2020-02-22T07:51:20.000Z</time>
      </trkpt>
      <trkpt lat="43.77157" lon="7.21424">
        <ele>77.400001525879</ele>
        <time>2020-02-22T07:51:24.000Z</time>
      </trkpt>
      <trkpt lat="43.77163" lon="7.21409">
        <ele>77.199996948242</ele>
        <time>2020-02-22T07:51:29.000Z</time>
      </trkpt>
      <trkpt lat="43.77172" lon="7.21388">
        <ele>77</ele>
        <time>2020-02-22T07:51:35.000Z</time>
      </trkpt>
      <trkpt lat="43.77191" lon="7.21382">
        <ele>77</ele>
        <time>2020-02-22T07:51:41.000Z</time>
      </trkpt>
      <trkpt lat="43.77213" lon="7.21395">
        <ele>77.199996948242</ele>
        <time>2020-02-22T07:51:47.000Z</time>
      </trkpt>
      <trkpt lat="43.77243" lon="7.21423">
        <ele>77.800003051758</ele>
        <time>2020-02-22T07:51:56.000Z</time>
      </trkpt>
      <trkpt lat="43.77282" lon="7.21457">
        <ele>77.599998474121</ele>
        <time>2020-02-22T07:52:07.000Z</time>
      </trkpt>
      <trkpt lat="43.77324" lon="7.21491">
        <ele>78</ele>
        <time>2020-02-22T07:52:18.000Z</time>
      </trkpt>
      <trkpt lat="43.77363" lon="7.21521">
        <ele>78.199996948242</ele>
        <time>2020-02-22T07:52:28.000Z</time>
      </trkpt>
      <trkpt lat="43.7741" lon="7.21554">
        <ele>78.599998474121</ele>
        <time>2020-02-22T07:52:40.000Z</time>
      </trkpt>
      <trkpt lat="43.77448" lon="7.21581">
        <ele>78.400001525879</ele>
        <time>2020-02-22T07:52:50.000Z</time>
      </trkpt>
      <trkpt lat="43.77483" lon="7.21602">
        <ele>78.199996948242</ele>
        <time>2020-02-22T07:52:59.000Z</time>
      </trkpt>
      <trkpt lat="43.77522" lon="7.21625">
        <ele>78.800003051758</ele>
        <time>2020-02-22T07:53:09.000Z</time>
      </trkpt>
      <trkpt lat="43.77538" lon="7.21634">
        <ele>79</ele>
        <time>2020-02-22T07:53:13.000Z</time>
      </trkpt>
      <trkpt lat="43.77566" lon="7.21649">
        <ele>79.199996948242</ele>
        <time>2020-02-22T07:53:20.000Z</time>
      </trkpt>
      <trkpt lat="43.776" lon="7.21666">
        <ele>79.400001525879</ele>
        <time>2020-02-22T07:53:29.000Z</time>
      </trkpt>
      <trkpt lat="43.77633" lon="7.21682">
        <ele>80</ele>
        <time>2020-02-22T07:53:37.000Z</time>
      </trkpt>
      <trkpt lat="43.77679" lon="7.21702">
        <ele>79.800003051758</ele>
        <time>2020-02-22T07:53:49.000Z</time>
      </trkpt>
      <trkpt lat="43.77725" lon="7.21721">
        <ele>79.800003051758</ele>
        <time>2020-02-22T07:54:00.000Z</time>
      </trkpt>
      <trkpt lat="43.77766" lon="7.21736">
        <ele>80.800003051758</ele>
        <time>2020-02-22T07:54:10.000Z</time>
      </trkpt>
      <trkpt lat="43.77817" lon="7.21752">
        <ele>81</ele>
        <time>2020-02-22T07:54:22.000Z</time>
      </trkpt>
      <trkpt lat="43.7783" lon="7.21756">
        <ele>81.199996948242</ele>
        <time>2020-02-22T07:54:25.000Z</time>
      </trkpt>
      <trkpt lat="43.77856" lon="7.21763">
        <ele>81.199996948242</ele>
        <time>2020-02-22T07:54:31.000Z</time>
      </trkpt>
      <trkpt lat="43.779" lon="7.21774">
        <ele>81</ele>
        <time>2020-02-22T07:54:41.000Z</time>
      </trkpt>
      <trkpt lat="43.77947" lon="7.21782">
        <ele>81</ele>
        <time>2020-02-22T07:54:52.000Z</time>
      </trkpt>
      <trkpt lat="43.77959" lon="7.21787">
        <ele>81.400001525879</ele>
        <time>2020-02-22T07:54:55.000Z</time>
      </trkpt>
      <trkpt lat="43.77961" lon="7.21792">
        <ele>81.599998474121</ele>
        <time>2020-02-22T07:54:56.000Z</time>
      </trkpt>
      <trkpt lat="43.77957" lon="7.21799">
        <ele>82</ele>
        <time>2020-02-22T07:54:58.000Z</time>
      </trkpt>
      <trkpt lat="43.77951" lon="7.21807">
        <ele>82.199996948242</ele>
        <time>2020-02-22T07:55:01.000Z</time>
      </trkpt>
      <trkpt lat="43.77948" lon="7.21809">
        <ele>82.199996948242</ele>
        <time>2020-02-22T07:55:02.000Z</time>
      </trkpt>
      <trkpt lat="43.77946" lon="7.21811">
        <ele>82.400001525879</ele>
        <time>2020-02-22T07:55:03.000Z</time>
      </trkpt>
      <trkpt lat="43.77939" lon="7.21815">
        <ele>83.199996948242</ele>
        <time>2020-02-22T07:55:06.000Z</time>
      </trkpt>
      <trkpt lat="43.77932" lon="7.21818">
        <ele>83.800003051758</ele>
        <time>2020-02-22T07:55:09.000Z</time>
      </trkpt>
      <trkpt lat="43.77921" lon="7.2183">
        <ele>84.400001525879</ele>
        <time>2020-02-22T07:55:15.000Z</time>
      </trkpt>
      <trkpt lat="43.77912" lon="7.21845">
        <ele>85.400001525879</ele>
        <time>2020-02-22T07:55:21.000Z</time>
      </trkpt>
      <trkpt lat="43.77906" lon="7.21858">
        <ele>86.599998474121</ele>
        <time>2020-02-22T07:55:26.000Z</time>
      </trkpt>
      <trkpt lat="43.77904" lon="7.21861">
        <ele>86.599998474121</ele>
        <time>2020-02-22T07:55:27.000Z</time>
      </trkpt>
      <trkpt lat="43.77898" lon="7.21873">
        <ele>87.599998474121</ele>
        <time>2020-02-22T07:55:32.000Z</time>
      </trkpt>
      <trkpt lat="43.77894" lon="7.21881">
        <ele>88.199996948242</ele>
        <time>2020-02-22T07:55:35.000Z</time>
      </trkpt>
      <trkpt lat="43.77889" lon="7.21888">
        <ele>88.800003051758</ele>
        <time>2020-02-22T07:55:38.000Z</time>
      </trkpt>
      <trkpt lat="43.77882" lon="7.219">
        <ele>89.800003051758</ele>
        <time>2020-02-22T07:55:43.000Z</time>
      </trkpt>
      <trkpt lat="43.7788" lon="7.21906">
        <ele>90.199996948242</ele>
        <time>2020-02-22T07:55:45.000Z</time>
      </trkpt>
      <trkpt lat="43.77877" lon="7.21919">
        <ele>91</ele>
        <time>2020-02-22T07:55:49.000Z</time>
      </trkpt>
      <trkpt lat="43.77876" lon="7.21929">
        <ele>91.599998474121</ele>
        <time>2020-02-22T07:55:52.000Z</time>
      </trkpt>
      <trkpt lat="43.77874" lon="7.21939">
        <ele>92.199996948242</ele>
        <time>2020-02-22T07:55:55.000Z</time>
      </trkpt>
      <trkpt lat="43.77872" lon="7.21954">
        <ele>93</ele>
        <time>2020-02-22T07:56:00.000Z</time>
      </trkpt>
      <trkpt lat="43.77872" lon="7.21958">
        <ele>93.400001525879</ele>
        <time>2020-02-22T07:56:01.000Z</time>
      </trkpt>
      <trkpt lat="43.77872" lon="7.2197">
        <ele>94.400001525879</ele>
        <time>2020-02-22T07:56:05.000Z</time>
      </trkpt>
      <trkpt lat="43.77872" lon="7.2198">
        <ele>95.199996948242</ele>
        <time>2020-02-22T07:56:08.000Z</time>
      </trkpt>
      <trkpt lat="43.77874" lon="7.21986">
        <ele>95.599998474121</ele>
        <time>2020-02-22T07:56:10.000Z</time>
      </trkpt>
      <trkpt lat="43.77878" lon="7.21998">
        <ele>96.400001525879</ele>
        <time>2020-02-22T07:56:14.000Z</time>
      </trkpt>
      <trkpt lat="43.77879" lon="7.22002">
        <ele>96.599998474121</ele>
        <time>2020-02-22T07:56:15.000Z</time>
      </trkpt>
      <trkpt lat="43.77882" lon="7.22022">
        <ele>97.599998474121</ele>
        <time>2020-02-22T07:56:21.000Z</time>
      </trkpt>
      <trkpt lat="43.77882" lon="7.22039">
        <ele>98.800003051758</ele>
        <time>2020-02-22T07:56:26.000Z</time>
      </trkpt>
      <trkpt lat="43.77881" lon="7.22043">
        <ele>99</ele>
        <time>2020-02-22T07:56:27.000Z</time>
      </trkpt>
      <trkpt lat="43.77878" lon="7.22046">
        <ele>99.599998474121</ele>
        <time>2020-02-22T07:56:29.000Z</time>
      </trkpt>
      <trkpt lat="43.77876" lon="7.22047">
        <ele>99.800003051758</ele>
        <time>2020-02-22T07:56:30.000Z</time>
      </trkpt>
      <trkpt lat="43.77873" lon="7.22046">
        <ele>100.19999694824</ele>
        <time>2020-02-22T07:56:31.000Z</time>
      </trkpt>
      <trkpt lat="43.77868" lon="7.22041">
        <ele>101.19999694824</ele>
        <time>2020-02-22T07:56:34.000Z</time>
      </trkpt>
      <trkpt lat="43.77864" lon="7.22037">
        <ele>101.80000305176</ele>
        <time>2020-02-22T07:56:36.000Z</time>
      </trkpt>
      <trkpt lat="43.77863" lon="7.22035">
        <ele>102</ele>
        <time>2020-02-22T07:56:37.000Z</time>
      </trkpt>
      <trkpt lat="43.77861" lon="7.22033">
        <ele>102.19999694824</ele>
        <time>2020-02-22T07:56:38.000Z</time>
      </trkpt>
      <trkpt lat="43.77852" lon="7.22034">
        <ele>103</ele>
        <time>2020-02-22T07:56:42.000Z</time>
      </trkpt>
      <trkpt lat="43.77838" lon="7.2205">
        <ele>103.40000152588</ele>
        <time>2020-02-22T07:56:49.000Z</time>
      </trkpt>
      <trkpt lat="43.77821" lon="7.22073">
        <ele>104.19999694824</ele>
        <time>2020-02-22T07:56:57.000Z</time>
      </trkpt>
      <trkpt lat="43.77819" lon="7.22075">
        <ele>104.40000152588</ele>
        <time>2020-02-22T07:56:58.000Z</time>
      </trkpt>
      <trkpt lat="43.77807" lon="7.22083">
        <ele>105.59999847412</ele>
        <time>2020-02-22T07:57:03.000Z</time>
      </trkpt>
      <trkpt lat="43.77796" lon="7.22091">
        <ele>106.80000305176</ele>
        <time>2020-02-22T07:57:08.000Z</time>
      </trkpt>
      <trkpt lat="43.77789" lon="7.22098">
        <ele>107</ele>
        <time>2020-02-22T07:57:11.000Z</time>
      </trkpt>
      <trkpt lat="43.77775" lon="7.22116">
        <ele>107.59999847412</ele>
        <time>2020-02-22T07:57:17.000Z</time>
      </trkpt>
      <trkpt lat="43.77764" lon="7.22116">
        <ele>107.59999847412</ele>
        <time>2020-02-22T07:57:20.000Z</time>
      </trkpt>
      <trkpt lat="43.77756" lon="7.22103">
        <ele>107.80000305176</ele>
        <time>2020-02-22T07:57:24.000Z</time>
      </trkpt>
      <trkpt lat="43.77754" lon="7.22087">
        <ele>108.80000305176</ele>
        <time>2020-02-22T07:57:28.000Z</time>
      </trkpt>
      <trkpt lat="43.77754" lon="7.22083">
        <ele>109.19999694824</ele>
        <time>2020-02-22T07:57:29.000Z</time>
      </trkpt>
      <trkpt lat="43.77755" lon="7.22071">
        <ele>110</ele>
        <time>2020-02-22T07:57:32.000Z</time>
      </trkpt>
      <trkpt lat="43.7776" lon="7.22056">
        <ele>111</ele>
        <time>2020-02-22T07:57:36.000Z</time>
      </trkpt>
      <trkpt lat="43.77761" lon="7.22052">
        <ele>111.19999694824</ele>
        <time>2020-02-22T07:57:37.000Z</time>
      </trkpt>
      <trkpt lat="43.77764" lon="7.22042">
        <ele>112.19999694824</ele>
        <time>2020-02-22T07:57:40.000Z</time>
      </trkpt>
      <trkpt lat="43.7777" lon="7.22031">
        <ele>113.40000152588</ele>
        <time>2020-02-22T07:57:44.000Z</time>
      </trkpt>
      <trkpt lat="43.77772" lon="7.22028">
        <ele>113.80000305176</ele>
        <time>2020-02-22T07:57:45.000Z</time>
      </trkpt>
      <trkpt lat="43.77775" lon="7.22019">
        <ele>114.59999847412</ele>
        <time>2020-02-22T07:57:48.000Z</time>
      </trkpt>
      <trkpt lat="43.77777" lon="7.22006">
        <ele>115.59999847412</ele>
        <time>2020-02-22T07:57:52.000Z</time>
      </trkpt>
      <trkpt lat="43.77778" lon="7.21996">
        <ele>116.80000305176</ele>
        <time>2020-02-22T07:57:55.000Z</time>
      </trkpt>
      <trkpt lat="43.7778" lon="7.21983">
        <ele>118</ele>
        <time>2020-02-22T07:57:59.000Z</time>
      </trkpt>
      <trkpt lat="43.77781" lon="7.2198">
        <ele>118.40000152588</ele>
        <time>2020-02-22T07:58:00.000Z</time>
      </trkpt>
      <trkpt lat="43.77782" lon="7.21974">
        <ele>119.19999694824</ele>
        <time>2020-02-22T07:58:02.000Z</time>
      </trkpt>
      <trkpt lat="43.77784" lon="7.21963">
        <ele>120.59999847412</ele>
        <time>2020-02-22T07:58:06.000Z</time>
      </trkpt>
      <trkpt lat="43.77784" lon="7.21954">
        <ele>121.59999847412</ele>
        <time>2020-02-22T07:58:09.000Z</time>
      </trkpt>
      <trkpt lat="43.77782" lon="7.21942">
        <ele>122.80000305176</ele>
        <time>2020-02-22T07:58:13.000Z</time>
      </trkpt>
      <trkpt lat="43.77782" lon="7.21934">
        <ele>123.80000305176</ele>
        <time>2020-02-22T07:58:16.000Z</time>
      </trkpt>
      <trkpt lat="43.77781" lon="7.21931">
        <ele>124</ele>
        <time>2020-02-22T07:58:17.000Z</time>
      </trkpt>
      <trkpt lat="43.77775" lon="7.21926">
        <ele>125.19999694824</ele>
        <time>2020-02-22T07:58:21.000Z</time>
      </trkpt>
      <trkpt lat="43.77765" lon="7.21928">
        <ele>126.19999694824</ele>
        <time>2020-02-22T07:58:26.000Z</time>
      </trkpt>
      <trkpt lat="43.77761" lon="7.2193">
        <ele>126.59999847412</ele>
        <time>2020-02-22T07:58:28.000Z</time>
      </trkpt>
      <trkpt lat="43.77757" lon="7.21933">
        <ele>127.19999694824</ele>
        <time>2020-02-22T07:58:30.000Z</time>
      </trkpt>
      <trkpt lat="43.77749" lon="7.21943">
        <ele>128.39999389648</ele>
        <time>2020-02-22T07:58:35.000Z</time>
      </trkpt>
      <trkpt lat="43.77746" lon="7.21961">
        <ele>129.39999389648</ele>
        <time>2020-02-22T07:58:41.000Z</time>
      </trkpt>
      <trkpt lat="43.77746" lon="7.21965">
        <ele>129.60000610352</ele>
        <time>2020-02-22T07:58:42.000Z</time>
      </trkpt>
      <trkpt lat="43.77744" lon="7.21978">
        <ele>130.60000610352</ele>
        <time>2020-02-22T07:58:46.000Z</time>
      </trkpt>
      <trkpt lat="43.77742" lon="7.21991">
        <ele>131.60000610352</ele>
        <time>2020-02-22T07:58:50.000Z</time>
      </trkpt>
      <trkpt lat="43.77741" lon="7.21994">
        <ele>131.80000305176</ele>
        <time>2020-02-22T07:58:51.000Z</time>
      </trkpt>
      <trkpt lat="43.77735" lon="7.22013">
        <ele>132.80000305176</ele>
        <time>2020-02-22T07:58:57.000Z</time>
      </trkpt>
      <trkpt lat="43.77733" lon="7.22015">
        <ele>133</ele>
        <time>2020-02-22T07:58:58.000Z</time>
      </trkpt>
      <trkpt lat="43.77726" lon="7.2203">
        <ele>134</ele>
        <time>2020-02-22T07:59:03.000Z</time>
      </trkpt>
      <trkpt lat="43.77719" lon="7.22039">
        <ele>135</ele>
        <time>2020-02-22T07:59:07.000Z</time>
      </trkpt>
      <trkpt lat="43.77717" lon="7.22041">
        <ele>135.19999694824</ele>
        <time>2020-02-22T07:59:08.000Z</time>
      </trkpt>
      <trkpt lat="43.77706" lon="7.22044">
        <ele>135.60000610352</ele>
        <time>2020-02-22T07:59:12.000Z</time>
      </trkpt>
      <trkpt lat="43.77697" lon="7.22038">
        <ele>136.39999389648</ele>
        <time>2020-02-22T07:59:16.000Z</time>
      </trkpt>
      <trkpt lat="43.77695" lon="7.22036">
        <ele>136.60000610352</ele>
        <time>2020-02-22T07:59:17.000Z</time>
      </trkpt>
      <trkpt lat="43.7769" lon="7.22029">
        <ele>137.80000305176</ele>
        <time>2020-02-22T07:59:20.000Z</time>
      </trkpt>
      <trkpt lat="43.77686" lon="7.22019">
        <ele>139</ele>
        <time>2020-02-22T07:59:24.000Z</time>
      </trkpt>
      <trkpt lat="43.77685" lon="7.22017">
        <ele>139.19999694824</ele>
        <time>2020-02-22T07:59:25.000Z</time>
      </trkpt>
      <trkpt lat="43.77682" lon="7.22013">
        <ele>140</ele>
        <time>2020-02-22T07:59:27.000Z</time>
      </trkpt>
      <trkpt lat="43.77678" lon="7.22007">
        <ele>141</ele>
        <time>2020-02-22T07:59:30.000Z</time>
      </trkpt>
      <trkpt lat="43.77674" lon="7.22002">
        <ele>142</ele>
        <time>2020-02-22T07:59:33.000Z</time>
      </trkpt>
      <trkpt lat="43.77672" lon="7.22001">
        <ele>142.19999694824</ele>
        <time>2020-02-22T07:59:34.000Z</time>
      </trkpt>
      <trkpt lat="43.77665" lon="7.22">
        <ele>143.60000610352</ele>
        <time>2020-02-22T07:59:38.000Z</time>
      </trkpt>
      <trkpt lat="43.77662" lon="7.22001">
        <ele>144.19999694824</ele>
        <time>2020-02-22T07:59:40.000Z</time>
      </trkpt>
      <trkpt lat="43.7766" lon="7.22003">
        <ele>144.39999389648</ele>
        <time>2020-02-22T07:59:41.000Z</time>
      </trkpt>
      <trkpt lat="43.77659" lon="7.22005">
        <ele>144.60000610352</ele>
        <time>2020-02-22T07:59:42.000Z</time>
      </trkpt>
      <trkpt lat="43.77657" lon="7.22013">
        <ele>145.60000610352</ele>
        <time>2020-02-22T07:59:45.000Z</time>
      </trkpt>
      <trkpt lat="43.77656" lon="7.22015">
        <ele>145.80000305176</ele>
        <time>2020-02-22T07:59:46.000Z</time>
      </trkpt>
      <trkpt lat="43.77653" lon="7.22025">
        <ele>146.80000305176</ele>
        <time>2020-02-22T07:59:50.000Z</time>
      </trkpt>
      <trkpt lat="43.77652" lon="7.2203">
        <ele>147.39999389648</ele>
        <time>2020-02-22T07:59:52.000Z</time>
      </trkpt>
      <trkpt lat="43.77651" lon="7.22036">
        <ele>148</ele>
        <time>2020-02-22T07:59:54.000Z</time>
      </trkpt>
      <trkpt lat="43.77649" lon="7.22047">
        <ele>149.19999694824</ele>
        <time>2020-02-22T07:59:58.000Z</time>
      </trkpt>
      <trkpt lat="43.77647" lon="7.22052">
        <ele>149.80000305176</ele>
        <time>2020-02-22T08:00:00.000Z</time>
      </trkpt>
      <trkpt lat="43.77646" lon="7.22058">
        <ele>150.19999694824</ele>
        <time>2020-02-22T08:00:02.000Z</time>
      </trkpt>
      <trkpt lat="43.77641" lon="7.22071">
        <ele>151.39999389648</ele>
        <time>2020-02-22T08:00:07.000Z</time>
      </trkpt>
      <trkpt lat="43.7764" lon="7.22076">
        <ele>152</ele>
        <time>2020-02-22T08:00:09.000Z</time>
      </trkpt>
      <trkpt lat="43.77641" lon="7.22081">
        <ele>152.39999389648</ele>
        <time>2020-02-22T08:00:11.000Z</time>
      </trkpt>
      <trkpt lat="43.77642" lon="7.22084">
        <ele>152.60000610352</ele>
        <time>2020-02-22T08:00:12.000Z</time>
      </trkpt>
      <trkpt lat="43.77646" lon="7.22094">
        <ele>153.80000305176</ele>
        <time>2020-02-22T08:00:16.000Z</time>
      </trkpt>
      <trkpt lat="43.7765" lon="7.22104">
        <ele>155</ele>
        <time>2020-02-22T08:00:20.000Z</time>
      </trkpt>
      <trkpt lat="43.77654" lon="7.22117">
        <ele>156</ele>
        <time>2020-02-22T08:00:25.000Z</time>
      </trkpt>
      <trkpt lat="43.77655" lon="7.22122">
        <ele>156.60000610352</ele>
        <time>2020-02-22T08:00:27.000Z</time>
      </trkpt>
      <trkpt lat="43.77657" lon="7.2213">
        <ele>157.19999694824</ele>
        <time>2020-02-22T08:00:30.000Z</time>
      </trkpt>
      <trkpt lat="43.7766" lon="7.22146">
        <ele>158.39999389648</ele>
        <time>2020-02-22T08:00:36.000Z</time>
      </trkpt>
      <trkpt lat="43.77661" lon="7.2215">
        <ele>158.80000305176</ele>
        <time>2020-02-22T08:00:37.000Z</time>
      </trkpt>
      <trkpt lat="43.77661" lon="7.22155">
        <ele>159.39999389648</ele>
        <time>2020-02-22T08:00:39.000Z</time>
      </trkpt>
      <trkpt lat="43.77661" lon="7.22167">
        <ele>160.60000610352</ele>
        <time>2020-02-22T08:00:43.000Z</time>
      </trkpt>
      <trkpt lat="43.77661" lon="7.22173">
        <ele>161.19999694824</ele>
        <time>2020-02-22T08:00:45.000Z</time>
      </trkpt>
      <trkpt lat="43.77661" lon="7.22179">
        <ele>161.60000610352</ele>
        <time>2020-02-22T08:00:47.000Z</time>
      </trkpt>
      <trkpt lat="43.77661" lon="7.22193">
        <ele>162.80000305176</ele>
        <time>2020-02-22T08:00:52.000Z</time>
      </trkpt>
      <trkpt lat="43.77661" lon="7.22202">
        <ele>163.39999389648</ele>
        <time>2020-02-22T08:00:55.000Z</time>
      </trkpt>
      <trkpt lat="43.77661" lon="7.22208">
        <ele>164</ele>
        <time>2020-02-22T08:00:57.000Z</time>
      </trkpt>
      <trkpt lat="43.77661" lon="7.22219">
        <ele>165.19999694824</ele>
        <time>2020-02-22T08:01:01.000Z</time>
      </trkpt>
      <trkpt lat="43.77662" lon="7.22225">
        <ele>165.60000610352</ele>
        <time>2020-02-22T08:01:03.000Z</time>
      </trkpt>
      <trkpt lat="43.77663" lon="7.22232">
        <ele>166.39999389648</ele>
        <time>2020-02-22T08:01:06.000Z</time>
      </trkpt>
      <trkpt lat="43.77666" lon="7.22239">
        <ele>167.39999389648</ele>
        <time>2020-02-22T08:01:09.000Z</time>
      </trkpt>
      <trkpt lat="43.77667" lon="7.22241">
        <ele>167.80000305176</ele>
        <time>2020-02-22T08:01:10.000Z</time>
      </trkpt>
      <trkpt lat="43.77669" lon="7.22246">
        <ele>168.39999389648</ele>
        <time>2020-02-22T08:01:12.000Z</time>
      </trkpt>
      <trkpt lat="43.77672" lon="7.22257">
        <ele>169.80000305176</ele>
        <time>2020-02-22T08:01:16.000Z</time>
      </trkpt>
      <trkpt lat="43.77673" lon="7.22263">
        <ele>170.19999694824</ele>
        <time>2020-02-22T08:01:18.000Z</time>
      </trkpt>
      <trkpt lat="43.77672" lon="7.22269">
        <ele>170.80000305176</ele>
        <time>2020-02-22T08:01:20.000Z</time>
      </trkpt>
      <trkpt lat="43.7767" lon="7.2228">
        <ele>171.80000305176</ele>
        <time>2020-02-22T08:01:24.000Z</time>
      </trkpt>
      <trkpt lat="43.77669" lon="7.22291">
        <ele>173</ele>
        <time>2020-02-22T08:01:28.000Z</time>
      </trkpt>
      <trkpt lat="43.77669" lon="7.22297">
        <ele>173.39999389648</ele>
        <time>2020-02-22T08:01:30.000Z</time>
      </trkpt>
      <trkpt lat="43.7767" lon="7.22302">
        <ele>174</ele>
        <time>2020-02-22T08:01:32.000Z</time>
      </trkpt>
      <trkpt lat="43.77671" lon="7.22312">
        <ele>175.39999389648</ele>
        <time>2020-02-22T08:01:36.000Z</time>
      </trkpt>
      <trkpt lat="43.77672" lon="7.22314">
        <ele>175.80000305176</ele>
        <time>2020-02-22T08:01:37.000Z</time>
      </trkpt>
      <trkpt lat="43.77674" lon="7.22322">
        <ele>176.60000610352</ele>
        <time>2020-02-22T08:01:40.000Z</time>
      </trkpt>
      <trkpt lat="43.77673" lon="7.22332">
        <ele>177.80000305176</ele>
        <time>2020-02-22T08:01:44.000Z</time>
      </trkpt>
      <trkpt lat="43.7767" lon="7.22338">
        <ele>179</ele>
        <time>2020-02-22T08:01:47.000Z</time>
      </trkpt>
      <trkpt lat="43.77665" lon="7.22343">
        <ele>180</ele>
        <time>2020-02-22T08:01:50.000Z</time>
      </trkpt>
      <trkpt lat="43.77658" lon="7.22346">
        <ele>181.19999694824</ele>
        <time>2020-02-22T08:01:54.000Z</time>
      </trkpt>
      <trkpt lat="43.77654" lon="7.22346">
        <ele>182</ele>
        <time>2020-02-22T08:01:56.000Z</time>
      </trkpt>
      <trkpt lat="43.77652" lon="7.22346">
        <ele>182.19999694824</ele>
        <time>2020-02-22T08:01:57.000Z</time>
      </trkpt>
      <trkpt lat="43.77642" lon="7.22344">
        <ele>183.60000610352</ele>
        <time>2020-02-22T08:02:01.000Z</time>
      </trkpt>
      <trkpt lat="43.77637" lon="7.22341">
        <ele>184.80000305176</ele>
        <time>2020-02-22T08:02:04.000Z</time>
      </trkpt>
      <trkpt lat="43.7763" lon="7.22335">
        <ele>186</ele>
        <time>2020-02-22T08:02:08.000Z</time>
      </trkpt>
      <trkpt lat="43.77624" lon="7.22328">
        <ele>187</ele>
        <time>2020-02-22T08:02:12.000Z</time>
      </trkpt>
      <trkpt lat="43.77617" lon="7.22325">
        <ele>188</ele>
        <time>2020-02-22T08:02:16.000Z</time>
      </trkpt>
      <trkpt lat="43.77615" lon="7.22325">
        <ele>188.19999694824</ele>
        <time>2020-02-22T08:02:17.000Z</time>
      </trkpt>
      <trkpt lat="43.77613" lon="7.22326">
        <ele>188.39999389648</ele>
        <time>2020-02-22T08:02:18.000Z</time>
      </trkpt>
      <trkpt lat="43.77612" lon="7.22333">
        <ele>189</ele>
        <time>2020-02-22T08:02:21.000Z</time>
      </trkpt>
      <trkpt lat="43.77614" lon="7.22335">
        <ele>189</ele>
        <time>2020-02-22T08:02:22.000Z</time>
      </trkpt>
      <trkpt lat="43.77617" lon="7.2234">
        <ele>189.39999389648</ele>
        <time>2020-02-22T08:02:24.000Z</time>
      </trkpt>
      <trkpt lat="43.7762" lon="7.22343">
        <ele>189.80000305176</ele>
        <time>2020-02-22T08:02:26.000Z</time>
      </trkpt>
      <trkpt lat="43.77623" lon="7.22347">
        <ele>190.39999389648</ele>
        <time>2020-02-22T08:02:28.000Z</time>
      </trkpt>
      <trkpt lat="43.7763" lon="7.22352">
        <ele>191.60000610352</ele>
        <time>2020-02-22T08:02:32.000Z</time>
      </trkpt>
      <trkpt lat="43.77637" lon="7.22358">
        <ele>192.80000305176</ele>
        <time>2020-02-22T08:02:36.000Z</time>
      </trkpt>
      <trkpt lat="43.77644" lon="7.22363">
        <ele>193.80000305176</ele>
        <time>2020-02-22T08:02:40.000Z</time>
      </trkpt>
      <trkpt lat="43.77647" lon="7.22367">
        <ele>194.19999694824</ele>
        <time>2020-02-22T08:02:42.000Z</time>
      </trkpt>
      <trkpt lat="43.77653" lon="7.22371">
        <ele>194.80000305176</ele>
        <time>2020-02-22T08:02:45.000Z</time>
      </trkpt>
      <trkpt lat="43.77663" lon="7.22374">
        <ele>195.60000610352</ele>
        <time>2020-02-22T08:02:49.000Z</time>
      </trkpt>
      <trkpt lat="43.77668" lon="7.22373">
        <ele>196</ele>
        <time>2020-02-22T08:02:51.000Z</time>
      </trkpt>
      <trkpt lat="43.77681" lon="7.22369">
        <ele>197</ele>
        <time>2020-02-22T08:02:56.000Z</time>
      </trkpt>
      <trkpt lat="43.77695" lon="7.22351">
        <ele>198</ele>
        <time>2020-02-22T08:03:03.000Z</time>
      </trkpt>
      <trkpt lat="43.77701" lon="7.22331">
        <ele>199</ele>
        <time>2020-02-22T08:03:09.000Z</time>
      </trkpt>
      <trkpt lat="43.77701" lon="7.22327">
        <ele>199.19999694824</ele>
        <time>2020-02-22T08:03:10.000Z</time>
      </trkpt>
      <trkpt lat="43.77702" lon="7.22314">
        <ele>200.19999694824</ele>
        <time>2020-02-22T08:03:14.000Z</time>
      </trkpt>
      <trkpt lat="43.77705" lon="7.22308">
        <ele>200.60000610352</ele>
        <time>2020-02-22T08:03:16.000Z</time>
      </trkpt>
      <trkpt lat="43.77711" lon="7.22312">
        <ele>201.19999694824</ele>
        <time>2020-02-22T08:03:19.000Z</time>
      </trkpt>
      <trkpt lat="43.77711" lon="7.22316">
        <ele>201.39999389648</ele>
        <time>2020-02-22T08:03:20.000Z</time>
      </trkpt>
      <trkpt lat="43.77711" lon="7.22325">
        <ele>202.19999694824</ele>
        <time>2020-02-22T08:03:23.000Z</time>
      </trkpt>
      <trkpt lat="43.77711" lon="7.22328">
        <ele>202.60000610352</ele>
        <time>2020-02-22T08:03:24.000Z</time>
      </trkpt>
      <trkpt lat="43.7771" lon="7.22338">
        <ele>203.80000305176</ele>
        <time>2020-02-22T08:03:27.000Z</time>
      </trkpt>
      <trkpt lat="43.77709" lon="7.22346">
        <ele>204.80000305176</ele>
        <time>2020-02-22T08:03:30.000Z</time>
      </trkpt>
      <trkpt lat="43.77707" lon="7.22355">
        <ele>206.19999694824</ele>
        <time>2020-02-22T08:03:33.000Z</time>
      </trkpt>
      <trkpt lat="43.77703" lon="7.22366">
        <ele>207.39999389648</ele>
        <time>2020-02-22T08:03:37.000Z</time>
      </trkpt>
      <trkpt lat="43.77698" lon="7.22376">
        <ele>208.39999389648</ele>
        <time>2020-02-22T08:03:41.000Z</time>
      </trkpt>
      <trkpt lat="43.77692" lon="7.22385">
        <ele>209.39999389648</ele>
        <time>2020-02-22T08:03:45.000Z</time>
      </trkpt>
      <trkpt lat="43.77685" lon="7.22393">
        <ele>210.60000610352</ele>
        <time>2020-02-22T08:03:49.000Z</time>
      </trkpt>
      <trkpt lat="43.77681" lon="7.22396">
        <ele>211.19999694824</ele>
        <time>2020-02-22T08:03:51.000Z</time>
      </trkpt>
      <trkpt lat="43.77677" lon="7.22397">
        <ele>211.80000305176</ele>
        <time>2020-02-22T08:03:53.000Z</time>
      </trkpt>
      <trkpt lat="43.77667" lon="7.224">
        <ele>212.80000305176</ele>
        <time>2020-02-22T08:03:57.000Z</time>
      </trkpt>
      <trkpt lat="43.77663" lon="7.224">
        <ele>213.39999389648</ele>
        <time>2020-02-22T08:03:59.000Z</time>
      </trkpt>
      <trkpt lat="43.77655" lon="7.224">
        <ele>214</ele>
        <time>2020-02-22T08:04:02.000Z</time>
      </trkpt>
      <trkpt lat="43.77644" lon="7.22402">
        <ele>215.19999694824</ele>
        <time>2020-02-22T08:04:07.000Z</time>
      </trkpt>
      <trkpt lat="43.77641" lon="7.22403">
        <ele>215.39999389648</ele>
        <time>2020-02-22T08:04:08.000Z</time>
      </trkpt>
      <trkpt lat="43.77632" lon="7.22404">
        <ele>216.39999389648</ele>
        <time>2020-02-22T08:04:12.000Z</time>
      </trkpt>
      <trkpt lat="43.77625" lon="7.22404">
        <ele>217.19999694824</ele>
        <time>2020-02-22T08:04:15.000Z</time>
      </trkpt>
      <trkpt lat="43.77622" lon="7.22404">
        <ele>217.39999389648</ele>
        <time>2020-02-22T08:04:16.000Z</time>
      </trkpt>
      <trkpt lat="43.77607" lon="7.22399">
        <ele>218.60000610352</ele>
        <time>2020-02-22T08:04:22.000Z</time>
      </trkpt>
      <trkpt lat="43.77605" lon="7.22398">
        <ele>218.80000305176</ele>
        <time>2020-02-22T08:04:23.000Z</time>
      </trkpt>
      <trkpt lat="43.77595" lon="7.22391">
        <ele>219.60000610352</ele>
        <time>2020-02-22T08:04:27.000Z</time>
      </trkpt>
      <trkpt lat="43.77587" lon="7.22383">
        <ele>220.39999389648</ele>
        <time>2020-02-22T08:04:31.000Z</time>
      </trkpt>
      <trkpt lat="43.77583" lon="7.22377">
        <ele>220.80000305176</ele>
        <time>2020-02-22T08:04:33.000Z</time>
      </trkpt>
      <trkpt lat="43.77574" lon="7.2237">
        <ele>221.19999694824</ele>
        <time>2020-02-22T08:04:37.000Z</time>
      </trkpt>
      <trkpt lat="43.7757" lon="7.22377">
        <ele>221.60000610352</ele>
        <time>2020-02-22T08:04:40.000Z</time>
      </trkpt>
      <trkpt lat="43.77571" lon="7.22384">
        <ele>221.80000305176</ele>
        <time>2020-02-22T08:04:42.000Z</time>
      </trkpt>
      <trkpt lat="43.77572" lon="7.22388">
        <ele>222</ele>
        <time>2020-02-22T08:04:43.000Z</time>
      </trkpt>
      <trkpt lat="43.77574" lon="7.22401">
        <ele>222.80000305176</ele>
        <time>2020-02-22T08:04:47.000Z</time>
      </trkpt>
      <trkpt lat="43.77574" lon="7.22404">
        <ele>223</ele>
        <time>2020-02-22T08:04:48.000Z</time>
      </trkpt>
      <trkpt lat="43.77576" lon="7.22415">
        <ele>224.19999694824</ele>
        <time>2020-02-22T08:04:52.000Z</time>
      </trkpt>
      <trkpt lat="43.77577" lon="7.22423">
        <ele>225</ele>
        <time>2020-02-22T08:04:55.000Z</time>
      </trkpt>
      <trkpt lat="43.77578" lon="7.22426">
        <ele>225.19999694824</ele>
        <time>2020-02-22T08:04:56.000Z</time>
      </trkpt>
      <trkpt lat="43.77581" lon="7.22437">
        <ele>226.19999694824</ele>
        <time>2020-02-22T08:05:00.000Z</time>
      </trkpt>
      <trkpt lat="43.77582" lon="7.22439">
        <ele>226.60000610352</ele>
        <time>2020-02-22T08:05:01.000Z</time>
      </trkpt>
      <trkpt lat="43.77591" lon="7.22447">
        <ele>227.60000610352</ele>
        <time>2020-02-22T08:05:06.000Z</time>
      </trkpt>
      <trkpt lat="43.77594" lon="7.22448">
        <ele>227.80000305176</ele>
        <time>2020-02-22T08:05:07.000Z</time>
      </trkpt>
      <trkpt lat="43.77607" lon="7.2245">
        <ele>228.60000610352</ele>
        <time>2020-02-22T08:05:12.000Z</time>
      </trkpt>
      <trkpt lat="43.77613" lon="7.2245">
        <ele>228.80000305176</ele>
        <time>2020-02-22T08:05:14.000Z</time>
      </trkpt>
      <trkpt lat="43.77631" lon="7.22447">
        <ele>229.39999389648</ele>
        <time>2020-02-22T08:05:20.000Z</time>
      </trkpt>
      <trkpt lat="43.7764" lon="7.22445">
        <ele>229.80000305176</ele>
        <time>2020-02-22T08:05:23.000Z</time>
      </trkpt>
      <trkpt lat="43.77652" lon="7.22445">
        <ele>230.60000610352</ele>
        <time>2020-02-22T08:05:27.000Z</time>
      </trkpt>
      <trkpt lat="43.77657" lon="7.22446">
        <ele>231</ele>
        <time>2020-02-22T08:05:29.000Z</time>
      </trkpt>
      <trkpt lat="43.77664" lon="7.22447">
        <ele>232.19999694824</ele>
        <time>2020-02-22T08:05:32.000Z</time>
      </trkpt>
      <trkpt lat="43.77671" lon="7.22448">
        <ele>233.39999389648</ele>
        <time>2020-02-22T08:05:35.000Z</time>
      </trkpt>
      <trkpt lat="43.77676" lon="7.2245">
        <ele>234.19999694824</ele>
        <time>2020-02-22T08:05:37.000Z</time>
      </trkpt>
      <trkpt lat="43.77678" lon="7.2245">
        <ele>234.60000610352</ele>
        <time>2020-02-22T08:05:38.000Z</time>
      </trkpt>
      <trkpt lat="43.77685" lon="7.22452">
        <ele>235.80000305176</ele>
        <time>2020-02-22T08:05:41.000Z</time>
      </trkpt>
      <trkpt lat="43.77691" lon="7.22454">
        <ele>237</ele>
        <time>2020-02-22T08:05:44.000Z</time>
      </trkpt>
      <trkpt lat="43.77693" lon="7.22455">
        <ele>237.60000610352</ele>
        <time>2020-02-22T08:05:45.000Z</time>
      </trkpt>
      <trkpt lat="43.77697" lon="7.22456">
        <ele>238.19999694824</ele>
        <time>2020-02-22T08:05:47.000Z</time>
      </trkpt>
      <trkpt lat="43.77705" lon="7.22459">
        <ele>239.39999389648</ele>
        <time>2020-02-22T08:05:51.000Z</time>
      </trkpt>
      <trkpt lat="43.77707" lon="7.22461">
        <ele>239.60000610352</ele>
        <time>2020-02-22T08:05:52.000Z</time>
      </trkpt>
      <trkpt lat="43.77713" lon="7.22466">
        <ele>240.39999389648</ele>
        <time>2020-02-22T08:05:55.000Z</time>
      </trkpt>
      <trkpt lat="43.77717" lon="7.22473">
        <ele>241.19999694824</ele>
        <time>2020-02-22T08:05:58.000Z</time>
      </trkpt>
      <trkpt lat="43.77719" lon="7.22479">
        <ele>241.60000610352</ele>
        <time>2020-02-22T08:06:00.000Z</time>
      </trkpt>
      <trkpt lat="43.77723" lon="7.2249">
        <ele>242.60000610352</ele>
        <time>2020-02-22T08:06:04.000Z</time>
      </trkpt>
      <trkpt lat="43.77726" lon="7.22497">
        <ele>243.80000305176</ele>
        <time>2020-02-22T08:06:07.000Z</time>
      </trkpt>
      <trkpt lat="43.7773" lon="7.22508">
        <ele>245</ele>
        <time>2020-02-22T08:06:11.000Z</time>
      </trkpt>
      <trkpt lat="43.77732" lon="7.22524">
        <ele>246</ele>
        <time>2020-02-22T08:06:16.000Z</time>
      </trkpt>
      <trkpt lat="43.77731" lon="7.22533">
        <ele>246.80000305176</ele>
        <time>2020-02-22T08:06:19.000Z</time>
      </trkpt>
      <trkpt lat="43.77731" lon="7.22536">
        <ele>247</ele>
        <time>2020-02-22T08:06:20.000Z</time>
      </trkpt>
      <trkpt lat="43.77734" lon="7.22551">
        <ele>248.19999694824</ele>
        <time>2020-02-22T08:06:25.000Z</time>
      </trkpt>
      <trkpt lat="43.77741" lon="7.22566">
        <ele>249.39999389648</ele>
        <time>2020-02-22T08:06:31.000Z</time>
      </trkpt>
      <trkpt lat="43.77743" lon="7.22569">
        <ele>249.60000610352</ele>
        <time>2020-02-22T08:06:32.000Z</time>
      </trkpt>
      <trkpt lat="43.77753" lon="7.22574">
        <ele>250.39999389648</ele>
        <time>2020-02-22T08:06:37.000Z</time>
      </trkpt>
      <trkpt lat="43.77763" lon="7.22572">
        <ele>251.39999389648</ele>
        <time>2020-02-22T08:06:41.000Z</time>
      </trkpt>
      <trkpt lat="43.77773" lon="7.22568">
        <ele>252.60000610352</ele>
        <time>2020-02-22T08:06:45.000Z</time>
      </trkpt>
      <trkpt lat="43.77775" lon="7.22568">
        <ele>252.80000305176</ele>
        <time>2020-02-22T08:06:46.000Z</time>
      </trkpt>
      <trkpt lat="43.77785" lon="7.22567">
        <ele>253.60000610352</ele>
        <time>2020-02-22T08:06:50.000Z</time>
      </trkpt>
      <trkpt lat="43.77795" lon="7.22571">
        <ele>254.39999389648</ele>
        <time>2020-02-22T08:06:54.000Z</time>
      </trkpt>
      <trkpt lat="43.778" lon="7.22573">
        <ele>254.80000305176</ele>
        <time>2020-02-22T08:06:56.000Z</time>
      </trkpt>
      <trkpt lat="43.77812" lon="7.22582">
        <ele>256</ele>
        <time>2020-02-22T08:07:01.000Z</time>
      </trkpt>
      <trkpt lat="43.77816" lon="7.22586">
        <ele>256.39999389648</ele>
        <time>2020-02-22T08:07:03.000Z</time>
      </trkpt>
      <trkpt lat="43.77822" lon="7.22594">
        <ele>257</ele>
        <time>2020-02-22T08:07:06.000Z</time>
      </trkpt>
      <trkpt lat="43.77834" lon="7.22603">
        <ele>257.79998779297</ele>
        <time>2020-02-22T08:07:11.000Z</time>
      </trkpt>
      <trkpt lat="43.77836" lon="7.22604">
        <ele>258</ele>
        <time>2020-02-22T08:07:12.000Z</time>
      </trkpt>
      <trkpt lat="43.77849" lon="7.22613">
        <ele>259.20001220703</ele>
        <time>2020-02-22T08:07:17.000Z</time>
      </trkpt>
      <trkpt lat="43.77865" lon="7.2263">
        <ele>260.20001220703</ele>
        <time>2020-02-22T08:07:24.000Z</time>
      </trkpt>
      <trkpt lat="43.77878" lon="7.22638">
        <ele>261.20001220703</ele>
        <time>2020-02-22T08:07:29.000Z</time>
      </trkpt>
      <trkpt lat="43.77898" lon="7.2264">
        <ele>262</ele>
        <time>2020-02-22T08:07:35.000Z</time>
      </trkpt>
      <trkpt lat="43.77925" lon="7.22646">
        <ele>262.20001220703</ele>
        <time>2020-02-22T08:07:42.000Z</time>
      </trkpt>
      <trkpt lat="43.77932" lon="7.22648">
        <ele>262.60000610352</ele>
        <time>2020-02-22T08:07:44.000Z</time>
      </trkpt>
      <trkpt lat="43.77955" lon="7.22654">
        <ele>263.39999389648</ele>
        <time>2020-02-22T08:07:50.000Z</time>
      </trkpt>
      <trkpt lat="43.77959" lon="7.22655">
        <ele>263.60000610352</ele>
        <time>2020-02-22T08:07:51.000Z</time>
      </trkpt>
      <trkpt lat="43.77977" lon="7.22662">
        <ele>264.39999389648</ele>
        <time>2020-02-22T08:07:56.000Z</time>
      </trkpt>
      <trkpt lat="43.77985" lon="7.22665">
        <ele>264.60000610352</ele>
        <time>2020-02-22T08:07:58.000Z</time>
      </trkpt>
      <trkpt lat="43.78017" lon="7.22678">
        <ele>264.60000610352</ele>
        <time>2020-02-22T08:08:06.000Z</time>
      </trkpt>
      <trkpt lat="43.78034" lon="7.22685">
        <ele>265.39999389648</ele>
        <time>2020-02-22T08:08:11.000Z</time>
      </trkpt>
      <trkpt lat="43.78036" lon="7.22686">
        <ele>265.79998779297</ele>
        <time>2020-02-22T08:08:12.000Z</time>
      </trkpt>
      <trkpt lat="43.78042" lon="7.22689">
        <ele>266.79998779297</ele>
        <time>2020-02-22T08:08:14.000Z</time>
      </trkpt>
      <trkpt lat="43.78047" lon="7.22692">
        <ele>267.79998779297</ele>
        <time>2020-02-22T08:08:16.000Z</time>
      </trkpt>
      <trkpt lat="43.78054" lon="7.22697">
        <ele>269.20001220703</ele>
        <time>2020-02-22T08:08:19.000Z</time>
      </trkpt>
      <trkpt lat="43.78057" lon="7.22698">
        <ele>269.60000610352</ele>
        <time>2020-02-22T08:08:20.000Z</time>
      </trkpt>
      <trkpt lat="43.78061" lon="7.22701">
        <ele>270.60000610352</ele>
        <time>2020-02-22T08:08:22.000Z</time>
      </trkpt>
      <trkpt lat="43.78068" lon="7.22706">
        <ele>271.79998779297</ele>
        <time>2020-02-22T08:08:25.000Z</time>
      </trkpt>
      <trkpt lat="43.78071" lon="7.22708">
        <ele>272.20001220703</ele>
        <time>2020-02-22T08:08:26.000Z</time>
      </trkpt>
      <trkpt lat="43.78076" lon="7.22711">
        <ele>273</ele>
        <time>2020-02-22T08:08:28.000Z</time>
      </trkpt>
      <trkpt lat="43.7808" lon="7.22714">
        <ele>273.79998779297</ele>
        <time>2020-02-22T08:08:30.000Z</time>
      </trkpt>
      <trkpt lat="43.78082" lon="7.22717">
        <ele>274</ele>
        <time>2020-02-22T08:08:31.000Z</time>
      </trkpt>
      <trkpt lat="43.78089" lon="7.22726">
        <ele>275.20001220703</ele>
        <time>2020-02-22T08:08:35.000Z</time>
      </trkpt>
      <trkpt lat="43.78091" lon="7.22728">
        <ele>275.39999389648</ele>
        <time>2020-02-22T08:08:36.000Z</time>
      </trkpt>
      <trkpt lat="43.78095" lon="7.22736">
        <ele>276.39999389648</ele>
        <time>2020-02-22T08:08:39.000Z</time>
      </trkpt>
      <trkpt lat="43.781" lon="7.22744">
        <ele>277.39999389648</ele>
        <time>2020-02-22T08:08:42.000Z</time>
      </trkpt>
      <trkpt lat="43.78102" lon="7.22747">
        <ele>277.60000610352</ele>
        <time>2020-02-22T08:08:43.000Z</time>
      </trkpt>
      <trkpt lat="43.78108" lon="7.22761">
        <ele>279</ele>
        <time>2020-02-22T08:08:47.000Z</time>
      </trkpt>
      <trkpt lat="43.78112" lon="7.2277">
        <ele>280</ele>
        <time>2020-02-22T08:08:50.000Z</time>
      </trkpt>
      <trkpt lat="43.78117" lon="7.22779">
        <ele>281</ele>
        <time>2020-02-22T08:08:53.000Z</time>
      </trkpt>
      <trkpt lat="43.78122" lon="7.22787">
        <ele>282</ele>
        <time>2020-02-22T08:08:56.000Z</time>
      </trkpt>
      <trkpt lat="43.78124" lon="7.22789">
        <ele>282.39999389648</ele>
        <time>2020-02-22T08:08:57.000Z</time>
      </trkpt>
      <trkpt lat="43.78129" lon="7.22796">
        <ele>283.39999389648</ele>
        <time>2020-02-22T08:09:00.000Z</time>
      </trkpt>
      <trkpt lat="43.78137" lon="7.22803">
        <ele>284.60000610352</ele>
        <time>2020-02-22T08:09:04.000Z</time>
      </trkpt>
      <trkpt lat="43.78146" lon="7.22807">
        <ele>285.79998779297</ele>
        <time>2020-02-22T08:09:08.000Z</time>
      </trkpt>
      <trkpt lat="43.78156" lon="7.22811">
        <ele>286.79998779297</ele>
        <time>2020-02-22T08:09:12.000Z</time>
      </trkpt>
      <trkpt lat="43.78158" lon="7.22812">
        <ele>287.20001220703</ele>
        <time>2020-02-22T08:09:13.000Z</time>
      </trkpt>
      <trkpt lat="43.78165" lon="7.22815">
        <ele>288</ele>
        <time>2020-02-22T08:09:16.000Z</time>
      </trkpt>
      <trkpt lat="43.78177" lon="7.22821">
        <ele>289.20001220703</ele>
        <time>2020-02-22T08:09:21.000Z</time>
      </trkpt>
      <trkpt lat="43.78186" lon="7.22827">
        <ele>290.39999389648</ele>
        <time>2020-02-22T08:09:25.000Z</time>
      </trkpt>
      <trkpt lat="43.78195" lon="7.22835">
        <ele>291.39999389648</ele>
        <time>2020-02-22T08:09:29.000Z</time>
      </trkpt>
      <trkpt lat="43.78203" lon="7.22843">
        <ele>292.39999389648</ele>
        <time>2020-02-22T08:09:33.000Z</time>
      </trkpt>
      <trkpt lat="43.78208" lon="7.22848">
        <ele>293.60000610352</ele>
        <time>2020-02-22T08:09:36.000Z</time>
      </trkpt>
      <trkpt lat="43.7821" lon="7.2285">
        <ele>293.79998779297</ele>
        <time>2020-02-22T08:09:37.000Z</time>
      </trkpt>
      <trkpt lat="43.78215" lon="7.22855">
        <ele>294.79998779297</ele>
        <time>2020-02-22T08:09:40.000Z</time>
      </trkpt>
      <trkpt lat="43.78221" lon="7.2286">
        <ele>295.79998779297</ele>
        <time>2020-02-22T08:09:43.000Z</time>
      </trkpt>
      <trkpt lat="43.78227" lon="7.22864">
        <ele>297</ele>
        <time>2020-02-22T08:09:46.000Z</time>
      </trkpt>
      <trkpt lat="43.78232" lon="7.22869">
        <ele>298</ele>
        <time>2020-02-22T08:09:49.000Z</time>
      </trkpt>
      <trkpt lat="43.78241" lon="7.22875">
        <ele>299.20001220703</ele>
        <time>2020-02-22T08:09:53.000Z</time>
      </trkpt>
      <trkpt lat="43.78247" lon="7.22878">
        <ele>300.39999389648</ele>
        <time>2020-02-22T08:09:56.000Z</time>
      </trkpt>
      <trkpt lat="43.78257" lon="7.22879">
        <ele>301.60000610352</ele>
        <time>2020-02-22T08:10:00.000Z</time>
      </trkpt>
      <trkpt lat="43.78266" lon="7.22878">
        <ele>302.79998779297</ele>
        <time>2020-02-22T08:10:04.000Z</time>
      </trkpt>
      <trkpt lat="43.78276" lon="7.22879">
        <ele>304</ele>
        <time>2020-02-22T08:10:08.000Z</time>
      </trkpt>
      <trkpt lat="43.78289" lon="7.22883">
        <ele>305</ele>
        <time>2020-02-22T08:10:13.000Z</time>
      </trkpt>
      <trkpt lat="43.78304" lon="7.22896">
        <ele>306</ele>
        <time>2020-02-22T08:10:20.000Z</time>
      </trkpt>
      <trkpt lat="43.78321" lon="7.22912">
        <ele>306.60000610352</ele>
        <time>2020-02-22T08:10:27.000Z</time>
      </trkpt>
      <trkpt lat="43.78331" lon="7.22921">
        <ele>307.20001220703</ele>
        <time>2020-02-22T08:10:31.000Z</time>
      </trkpt>
      <trkpt lat="43.78338" lon="7.22928">
        <ele>307.39999389648</ele>
        <time>2020-02-22T08:10:34.000Z</time>
      </trkpt>
      <trkpt lat="43.78355" lon="7.22944">
        <ele>307.20001220703</ele>
        <time>2020-02-22T08:10:40.000Z</time>
      </trkpt>
      <trkpt lat="43.78371" lon="7.22953">
        <ele>308.20001220703</ele>
        <time>2020-02-22T08:10:46.000Z</time>
      </trkpt>
      <trkpt lat="43.78378" lon="7.22954">
        <ele>309.39999389648</ele>
        <time>2020-02-22T08:10:49.000Z</time>
      </trkpt>
      <trkpt lat="43.78385" lon="7.22955">
        <ele>310.60000610352</ele>
        <time>2020-02-22T08:10:52.000Z</time>
      </trkpt>
      <trkpt lat="43.78393" lon="7.22957">
        <ele>311.79998779297</ele>
        <time>2020-02-22T08:10:55.000Z</time>
      </trkpt>
      <trkpt lat="43.78401" lon="7.22959">
        <ele>312.79998779297</ele>
        <time>2020-02-22T08:10:59.000Z</time>
      </trkpt>
      <trkpt lat="43.7841" lon="7.22962">
        <ele>314.20001220703</ele>
        <time>2020-02-22T08:11:03.000Z</time>
      </trkpt>
      <trkpt lat="43.78416" lon="7.22965">
        <ele>315.20001220703</ele>
        <time>2020-02-22T08:11:06.000Z</time>
      </trkpt>
      <trkpt lat="43.78424" lon="7.22971">
        <ele>316.20001220703</ele>
        <time>2020-02-22T08:11:10.000Z</time>
      </trkpt>
      <trkpt lat="43.7843" lon="7.22982">
        <ele>317.39999389648</ele>
        <time>2020-02-22T08:11:14.000Z</time>
      </trkpt>
      <trkpt lat="43.78431" lon="7.22985">
        <ele>317.60000610352</ele>
        <time>2020-02-22T08:11:15.000Z</time>
      </trkpt>
      <trkpt lat="43.78435" lon="7.22999">
        <ele>318.39999389648</ele>
        <time>2020-02-22T08:11:19.000Z</time>
      </trkpt>
      <trkpt lat="43.78438" lon="7.23008">
        <ele>319</ele>
        <time>2020-02-22T08:11:22.000Z</time>
      </trkpt>
      <trkpt lat="43.78443" lon="7.23018">
        <ele>319.60000610352</ele>
        <time>2020-02-22T08:11:25.000Z</time>
      </trkpt>
      <trkpt lat="43.78451" lon="7.23032">
        <ele>320.20001220703</ele>
        <time>2020-02-22T08:11:30.000Z</time>
      </trkpt>
      <trkpt lat="43.78456" lon="7.2304">
        <ele>320.60000610352</ele>
        <time>2020-02-22T08:11:33.000Z</time>
      </trkpt>
      <trkpt lat="43.78465" lon="7.23052">
        <ele>321.60000610352</ele>
        <time>2020-02-22T08:11:38.000Z</time>
      </trkpt>
      <trkpt lat="43.78469" lon="7.23056">
        <ele>321.79998779297</ele>
        <time>2020-02-22T08:11:40.000Z</time>
      </trkpt>
      <trkpt lat="43.7848" lon="7.23067">
        <ele>323</ele>
        <time>2020-02-22T08:11:45.000Z</time>
      </trkpt>
      <trkpt lat="43.78482" lon="7.23068">
        <ele>323.20001220703</ele>
        <time>2020-02-22T08:11:46.000Z</time>
      </trkpt>
      <trkpt lat="43.78488" lon="7.23073">
        <ele>324.20001220703</ele>
        <time>2020-02-22T08:11:49.000Z</time>
      </trkpt>
      <trkpt lat="43.78493" lon="7.23076">
        <ele>325.20001220703</ele>
        <time>2020-02-22T08:11:52.000Z</time>
      </trkpt>
      <trkpt lat="43.78495" lon="7.23077">
        <ele>325.39999389648</ele>
        <time>2020-02-22T08:11:53.000Z</time>
      </trkpt>
      <trkpt lat="43.78504" lon="7.23081">
        <ele>326.60000610352</ele>
        <time>2020-02-22T08:11:57.000Z</time>
      </trkpt>
      <trkpt lat="43.7851" lon="7.23086">
        <ele>327.39999389648</ele>
        <time>2020-02-22T08:12:00.000Z</time>
      </trkpt>
      <trkpt lat="43.78512" lon="7.23087">
        <ele>327.79998779297</ele>
        <time>2020-02-22T08:12:01.000Z</time>
      </trkpt>
      <trkpt lat="43.7852" lon="7.23092">
        <ele>329</ele>
        <time>2020-02-22T08:12:05.000Z</time>
      </trkpt>
      <trkpt lat="43.78522" lon="7.23094">
        <ele>329.39999389648</ele>
        <time>2020-02-22T08:12:06.000Z</time>
      </trkpt>
      <trkpt lat="43.78527" lon="7.23098">
        <ele>330.39999389648</ele>
        <time>2020-02-22T08:12:09.000Z</time>
      </trkpt>
      <trkpt lat="43.78532" lon="7.23103">
        <ele>331.39999389648</ele>
        <time>2020-02-22T08:12:12.000Z</time>
      </trkpt>
      <trkpt lat="43.78537" lon="7.23108">
        <ele>332.39999389648</ele>
        <time>2020-02-22T08:12:15.000Z</time>
      </trkpt>
      <trkpt lat="43.78544" lon="7.23114">
        <ele>333.79998779297</ele>
        <time>2020-02-22T08:12:19.000Z</time>
      </trkpt>
      <trkpt lat="43.78548" lon="7.2312">
        <ele>334.79998779297</ele>
        <time>2020-02-22T08:12:22.000Z</time>
      </trkpt>
      <trkpt lat="43.78551" lon="7.23124">
        <ele>335.60000610352</ele>
        <time>2020-02-22T08:12:24.000Z</time>
      </trkpt>
      <trkpt lat="43.78553" lon="7.23127">
        <ele>336</ele>
        <time>2020-02-22T08:12:25.000Z</time>
      </trkpt>
      <trkpt lat="43.78556" lon="7.23134">
        <ele>337</ele>
        <time>2020-02-22T08:12:28.000Z</time>
      </trkpt>
      <trkpt lat="43.78559" lon="7.23142">
        <ele>338.39999389648</ele>
        <time>2020-02-22T08:12:31.000Z</time>
      </trkpt>
      <trkpt lat="43.78562" lon="7.23153">
        <ele>339.39999389648</ele>
        <time>2020-02-22T08:12:35.000Z</time>
      </trkpt>
      <trkpt lat="43.78565" lon="7.23161">
        <ele>340.39999389648</ele>
        <time>2020-02-22T08:12:38.000Z</time>
      </trkpt>
      <trkpt lat="43.78566" lon="7.23163">
        <ele>340.60000610352</ele>
        <time>2020-02-22T08:12:39.000Z</time>
      </trkpt>
      <trkpt lat="43.78572" lon="7.23171">
        <ele>341.79998779297</ele>
        <time>2020-02-22T08:12:43.000Z</time>
      </trkpt>
      <trkpt lat="43.78573" lon="7.23173">
        <ele>342</ele>
        <time>2020-02-22T08:12:44.000Z</time>
      </trkpt>
      <trkpt lat="43.7858" lon="7.23179">
        <ele>343</ele>
        <time>2020-02-22T08:12:48.000Z</time>
      </trkpt>
      <trkpt lat="43.78587" lon="7.23184">
        <ele>344</ele>
        <time>2020-02-22T08:12:52.000Z</time>
      </trkpt>
      <trkpt lat="43.78594" lon="7.23188">
        <ele>345.20001220703</ele>
        <time>2020-02-22T08:12:56.000Z</time>
      </trkpt>
      <trkpt lat="43.78598" lon="7.23189">
        <ele>345.60000610352</ele>
        <time>2020-02-22T08:12:58.000Z</time>
      </trkpt>
      <trkpt lat="43.78599" lon="7.2319">
        <ele>345.79998779297</ele>
        <time>2020-02-22T08:12:59.000Z</time>
      </trkpt>
      <trkpt lat="43.78602" lon="7.23192">
        <ele>346.20001220703</ele>
        <time>2020-02-22T08:13:01.000Z</time>
      </trkpt>
      <trkpt lat="43.78606" lon="7.23195">
        <ele>346.79998779297</ele>
        <time>2020-02-22T08:13:03.000Z</time>
      </trkpt>
      <trkpt lat="43.78614" lon="7.23202">
        <ele>347.60000610352</ele>
        <time>2020-02-22T08:13:06.000Z</time>
      </trkpt>
      <trkpt lat="43.78621" lon="7.23211">
        <ele>348.60000610352</ele>
        <time>2020-02-22T08:13:10.000Z</time>
      </trkpt>
      <trkpt lat="43.78629" lon="7.23223">
        <ele>349.79998779297</ele>
        <time>2020-02-22T08:13:15.000Z</time>
      </trkpt>
      <trkpt lat="43.78633" lon="7.23227">
        <ele>350.20001220703</ele>
        <time>2020-02-22T08:13:17.000Z</time>
      </trkpt>
      <trkpt lat="43.78636" lon="7.23231">
        <ele>350.79998779297</ele>
        <time>2020-02-22T08:13:19.000Z</time>
      </trkpt>
      <trkpt lat="43.78645" lon="7.23242">
        <ele>352</ele>
        <time>2020-02-22T08:13:24.000Z</time>
      </trkpt>
      <trkpt lat="43.78653" lon="7.23253">
        <ele>353</ele>
        <time>2020-02-22T08:13:29.000Z</time>
      </trkpt>
      <trkpt lat="43.78658" lon="7.23259">
        <ele>353.60000610352</ele>
        <time>2020-02-22T08:13:32.000Z</time>
      </trkpt>
      <trkpt lat="43.78662" lon="7.23263">
        <ele>354.20001220703</ele>
        <time>2020-02-22T08:13:34.000Z</time>
      </trkpt>
      <trkpt lat="43.78672" lon="7.23273">
        <ele>355.20001220703</ele>
        <time>2020-02-22T08:13:39.000Z</time>
      </trkpt>
      <trkpt lat="43.78674" lon="7.23276">
        <ele>355.60000610352</ele>
        <time>2020-02-22T08:13:40.000Z</time>
      </trkpt>
      <trkpt lat="43.78681" lon="7.23282">
        <ele>356.20001220703</ele>
        <time>2020-02-22T08:13:43.000Z</time>
      </trkpt>
      <trkpt lat="43.78692" lon="7.23292">
        <ele>357.20001220703</ele>
        <time>2020-02-22T08:13:48.000Z</time>
      </trkpt>
      <trkpt lat="43.78711" lon="7.23306">
        <ele>358.20001220703</ele>
        <time>2020-02-22T08:13:55.000Z</time>
      </trkpt>
      <trkpt lat="43.78721" lon="7.23313">
        <ele>358.20001220703</ele>
        <time>2020-02-22T08:13:58.000Z</time>
      </trkpt>
      <trkpt lat="43.78737" lon="7.23323">
        <ele>357.79998779297</ele>
        <time>2020-02-22T08:14:02.000Z</time>
      </trkpt>
      <trkpt lat="43.78753" lon="7.2334">
        <ele>357.39999389648</ele>
        <time>2020-02-22T08:14:07.000Z</time>
      </trkpt>
      <trkpt lat="43.7877" lon="7.23361">
        <ele>358.39999389648</ele>
        <time>2020-02-22T08:14:13.000Z</time>
      </trkpt>
      <trkpt lat="43.78774" lon="7.23368">
        <ele>359</ele>
        <time>2020-02-22T08:14:15.000Z</time>
      </trkpt>
      <trkpt lat="43.78776" lon="7.23371">
        <ele>359.39999389648</ele>
        <time>2020-02-22T08:14:16.000Z</time>
      </trkpt>
      <trkpt lat="43.78782" lon="7.23377">
        <ele>360.60000610352</ele>
        <time>2020-02-22T08:14:19.000Z</time>
      </trkpt>
      <trkpt lat="43.78786" lon="7.23381">
        <ele>361.39999389648</ele>
        <time>2020-02-22T08:14:21.000Z</time>
      </trkpt>
      <trkpt lat="43.78789" lon="7.23382">
        <ele>361.79998779297</ele>
        <time>2020-02-22T08:14:22.000Z</time>
      </trkpt>
      <trkpt lat="43.78797" lon="7.23386">
        <ele>363</ele>
        <time>2020-02-22T08:14:26.000Z</time>
      </trkpt>
      <trkpt lat="43.78799" lon="7.23387">
        <ele>363.20001220703</ele>
        <time>2020-02-22T08:14:27.000Z</time>
      </trkpt>
      <trkpt lat="43.78806" lon="7.23389">
        <ele>364.20001220703</ele>
        <time>2020-02-22T08:14:30.000Z</time>
      </trkpt>
      <trkpt lat="43.78813" lon="7.2339">
        <ele>365.20001220703</ele>
        <time>2020-02-22T08:14:33.000Z</time>
      </trkpt>
      <trkpt lat="43.7882" lon="7.23392">
        <ele>366.39999389648</ele>
        <time>2020-02-22T08:14:36.000Z</time>
      </trkpt>
      <trkpt lat="43.78828" lon="7.23394">
        <ele>367.39999389648</ele>
        <time>2020-02-22T08:14:39.000Z</time>
      </trkpt>
      <trkpt lat="43.78832" lon="7.23396">
        <ele>368.20001220703</ele>
        <time>2020-02-22T08:14:41.000Z</time>
      </trkpt>
      <trkpt lat="43.78834" lon="7.23397">
        <ele>368.60000610352</ele>
        <time>2020-02-22T08:14:42.000Z</time>
      </trkpt>
      <trkpt lat="43.78842" lon="7.23406">
        <ele>369.60000610352</ele>
        <time>2020-02-22T08:14:46.000Z</time>
      </trkpt>
      <trkpt lat="43.78843" lon="7.23409">
        <ele>369.79998779297</ele>
        <time>2020-02-22T08:14:47.000Z</time>
      </trkpt>
      <trkpt lat="43.78847" lon="7.23422">
        <ele>370.60000610352</ele>
        <time>2020-02-22T08:14:51.000Z</time>
      </trkpt>
      <trkpt lat="43.78852" lon="7.23433">
        <ele>371.60000610352</ele>
        <time>2020-02-22T08:14:55.000Z</time>
      </trkpt>
      <trkpt lat="43.78853" lon="7.23436">
        <ele>372</ele>
        <time>2020-02-22T08:14:56.000Z</time>
      </trkpt>
      <trkpt lat="43.78859" lon="7.23446">
        <ele>373</ele>
        <time>2020-02-22T08:15:00.000Z</time>
      </trkpt>
      <trkpt lat="43.78864" lon="7.23453">
        <ele>373.60000610352</ele>
        <time>2020-02-22T08:15:03.000Z</time>
      </trkpt>
      <trkpt lat="43.78871" lon="7.2346">
        <ele>374.20001220703</ele>
        <time>2020-02-22T08:15:06.000Z</time>
      </trkpt>
      <trkpt lat="43.78877" lon="7.23466">
        <ele>374.60000610352</ele>
        <time>2020-02-22T08:15:09.000Z</time>
      </trkpt>
      <trkpt lat="43.78885" lon="7.23476">
        <ele>375.20001220703</ele>
        <time>2020-02-22T08:15:13.000Z</time>
      </trkpt>
      <trkpt lat="43.78894" lon="7.23485">
        <ele>375.79998779297</ele>
        <time>2020-02-22T08:15:17.000Z</time>
      </trkpt>
      <trkpt lat="43.78903" lon="7.23496">
        <ele>376.20001220703</ele>
        <time>2020-02-22T08:15:21.000Z</time>
      </trkpt>
      <trkpt lat="43.78911" lon="7.23502">
        <ele>376.39999389648</ele>
        <time>2020-02-22T08:15:24.000Z</time>
      </trkpt>
      <trkpt lat="43.78932" lon="7.23507">
        <ele>377.20001220703</ele>
        <time>2020-02-22T08:15:31.000Z</time>
      </trkpt>
      <trkpt lat="43.78952" lon="7.23514">
        <ele>377.60000610352</ele>
        <time>2020-02-22T08:15:37.000Z</time>
      </trkpt>
      <trkpt lat="43.78961" lon="7.23524">
        <ele>377.60000610352</ele>
        <time>2020-02-22T08:15:40.000Z</time>
      </trkpt>
      <trkpt lat="43.78965" lon="7.23525">
        <ele>377.39999389648</ele>
        <time>2020-02-22T08:15:41.000Z</time>
      </trkpt>
      <trkpt lat="43.78972" lon="7.23518">
        <ele>376.79998779297</ele>
        <time>2020-02-22T08:15:43.000Z</time>
      </trkpt>
      <trkpt lat="43.78973" lon="7.235">
        <ele>376.20001220703</ele>
        <time>2020-02-22T08:15:46.000Z</time>
      </trkpt>
      <trkpt lat="43.78973" lon="7.23494">
        <ele>376.20001220703</ele>
        <time>2020-02-22T08:15:47.000Z</time>
      </trkpt>
      <trkpt lat="43.78979" lon="7.23469">
        <ele>377.39999389648</ele>
        <time>2020-02-22T08:15:52.000Z</time>
      </trkpt>
      <trkpt lat="43.78993" lon="7.2346">
        <ele>378.39999389648</ele>
        <time>2020-02-22T08:15:56.000Z</time>
      </trkpt>
      <trkpt lat="43.78996" lon="7.23459">
        <ele>378.60000610352</ele>
        <time>2020-02-22T08:15:57.000Z</time>
      </trkpt>
      <trkpt lat="43.79014" lon="7.23454">
        <ele>379.60000610352</ele>
        <time>2020-02-22T08:16:02.000Z</time>
      </trkpt>
      <trkpt lat="43.79023" lon="7.23454">
        <ele>380.20001220703</ele>
        <time>2020-02-22T08:16:05.000Z</time>
      </trkpt>
      <trkpt lat="43.79031" lon="7.23462">
        <ele>380.60000610352</ele>
        <time>2020-02-22T08:16:08.000Z</time>
      </trkpt>
      <trkpt lat="43.79034" lon="7.23466">
        <ele>380.79998779297</ele>
        <time>2020-02-22T08:16:09.000Z</time>
      </trkpt>
      <trkpt lat="43.7905" lon="7.23467">
        <ele>380.20001220703</ele>
        <time>2020-02-22T08:16:12.000Z</time>
      </trkpt>
      <trkpt lat="43.79055" lon="7.23462">
        <ele>379.60000610352</ele>
        <time>2020-02-22T08:16:13.000Z</time>
      </trkpt>
      <trkpt lat="43.79068" lon="7.23455">
        <ele>378.39999389648</ele>
        <time>2020-02-22T08:16:15.000Z</time>
      </trkpt>
      <trkpt lat="43.7908" lon="7.23459">
        <ele>377.60000610352</ele>
        <time>2020-02-22T08:16:17.000Z</time>
      </trkpt>
      <trkpt lat="43.79085" lon="7.23463">
        <ele>377.39999389648</ele>
        <time>2020-02-22T08:16:18.000Z</time>
      </trkpt>
      <trkpt lat="43.79091" lon="7.23466">
        <ele>377</ele>
        <time>2020-02-22T08:16:19.000Z</time>
      </trkpt>
      <trkpt lat="43.79103" lon="7.23464">
        <ele>376.79998779297</ele>
        <time>2020-02-22T08:16:21.000Z</time>
      </trkpt>
      <trkpt lat="43.79111" lon="7.23452">
        <ele>376.20001220703</ele>
        <time>2020-02-22T08:16:23.000Z</time>
      </trkpt>
      <trkpt lat="43.79112" lon="7.23446">
        <ele>376</ele>
        <time>2020-02-22T08:16:24.000Z</time>
      </trkpt>
      <trkpt lat="43.79114" lon="7.23416">
        <ele>375.79998779297</ele>
        <time>2020-02-22T08:16:28.000Z</time>
      </trkpt>
      <trkpt lat="43.79114" lon="7.23408">
        <ele>375.79998779297</ele>
        <time>2020-02-22T08:16:29.000Z</time>
      </trkpt>
      <trkpt lat="43.79113" lon="7.234">
        <ele>375.39999389648</ele>
        <time>2020-02-22T08:16:30.000Z</time>
      </trkpt>
      <trkpt lat="43.79114" lon="7.23394">
        <ele>374.60000610352</ele>
        <time>2020-02-22T08:16:31.000Z</time>
      </trkpt>
      <trkpt lat="43.79115" lon="7.23389">
        <ele>374</ele>
        <time>2020-02-22T08:16:32.000Z</time>
      </trkpt>
      <trkpt lat="43.79117" lon="7.23386">
        <ele>373.20001220703</ele>
        <time>2020-02-22T08:16:33.000Z</time>
      </trkpt>
      <trkpt lat="43.79123" lon="7.23382">
        <ele>371.60000610352</ele>
        <time>2020-02-22T08:16:35.000Z</time>
      </trkpt>
      <trkpt lat="43.79134" lon="7.23381">
        <ele>372</ele>
        <time>2020-02-22T08:16:40.000Z</time>
      </trkpt>
      <trkpt lat="43.79137" lon="7.23379">
        <ele>372.79998779297</ele>
        <time>2020-02-22T08:16:42.000Z</time>
      </trkpt>
      <trkpt lat="43.79143" lon="7.23374">
        <ele>373.60000610352</ele>
        <time>2020-02-22T08:16:46.000Z</time>
      </trkpt>
      <trkpt lat="43.79144" lon="7.23374">
        <ele>373.79998779297</ele>
        <time>2020-02-22T08:16:47.000Z</time>
      </trkpt>
      <trkpt lat="43.79148" lon="7.23371">
        <ele>374.60000610352</ele>
        <time>2020-02-22T08:16:50.000Z</time>
      </trkpt>
      <trkpt lat="43.7915" lon="7.23371">
        <ele>374.79998779297</ele>
        <time>2020-02-22T08:16:52.000Z</time>
      </trkpt>
      <trkpt lat="43.79151" lon="7.23371">
        <ele>375.39999389648</ele>
        <time>2020-02-22T08:16:55.000Z</time>
      </trkpt>
      <trkpt lat="43.79152" lon="7.23373">
        <ele>375.39999389648</ele>
        <time>2020-02-22T08:17:02.000Z</time>
      </trkpt>
      <trkpt lat="43.7915" lon="7.23375">
        <ele>375.39999389648</ele>
        <time>2020-02-22T08:17:04.000Z</time>
      </trkpt>
      <trkpt lat="43.79145" lon="7.23378">
        <ele>375.20001220703</ele>
        <time>2020-02-22T08:17:08.000Z</time>
      </trkpt>
      <trkpt lat="43.79143" lon="7.23379">
        <ele>374.79998779297</ele>
        <time>2020-02-22T08:17:09.000Z</time>
      </trkpt>
      <trkpt lat="43.79127" lon="7.23381">
        <ele>373.79998779297</ele>
        <time>2020-02-22T08:17:13.000Z</time>
      </trkpt>
      <trkpt lat="43.79123" lon="7.23383">
        <ele>373.60000610352</ele>
        <time>2020-02-22T08:17:14.000Z</time>
      </trkpt>
      <trkpt lat="43.79118" lon="7.23392">
        <ele>372.60000610352</ele>
        <time>2020-02-22T08:17:16.000Z</time>
      </trkpt>
      <trkpt lat="43.79116" lon="7.23401">
        <ele>371.39999389648</ele>
        <time>2020-02-22T08:17:18.000Z</time>
      </trkpt>
      <trkpt lat="43.79116" lon="7.23414">
        <ele>371</ele>
        <time>2020-02-22T08:17:21.000Z</time>
      </trkpt>
      <trkpt lat="43.79116" lon="7.23422">
        <ele>372.60000610352</ele>
        <time>2020-02-22T08:17:24.000Z</time>
      </trkpt>
      <trkpt lat="43.79116" lon="7.23427">
        <ele>374</ele>
        <time>2020-02-22T08:17:27.000Z</time>
      </trkpt>
      <trkpt lat="43.79116" lon="7.23427">
        <ele>375</ele>
        <time>2020-02-22T08:17:31.000Z</time>
      </trkpt>
      <trkpt lat="43.79116" lon="7.23427">
        <ele>375.20001220703</ele>
        <time>2020-02-22T08:17:32.000Z</time>
      </trkpt>
      <trkpt lat="43.79116" lon="7.2343">
        <ele>375</ele>
        <time>2020-02-22T08:17:39.000Z</time>
      </trkpt>
      <trkpt lat="43.79116" lon="7.23431">
        <ele>375.20001220703</ele>
        <time>2020-02-22T08:17:45.000Z</time>
      </trkpt>
      <trkpt lat="43.79117" lon="7.23434">
        <ele>375.39999389648</ele>
        <time>2020-02-22T08:17:52.000Z</time>
      </trkpt>
      <trkpt lat="43.79117" lon="7.23435">
        <ele>375.60000610352</ele>
        <time>2020-02-22T08:17:58.000Z</time>
      </trkpt>
      <trkpt lat="43.79118" lon="7.23434">
        <ele>375.20001220703</ele>
        <time>2020-02-22T08:18:03.000Z</time>
      </trkpt>
      <trkpt lat="43.79118" lon="7.23434">
        <ele>374.79998779297</ele>
        <time>2020-02-22T08:18:09.000Z</time>
      </trkpt>
      <trkpt lat="43.79119" lon="7.23434">
        <ele>375.20001220703</ele>
        <time>2020-02-22T08:18:19.000Z</time>
      </trkpt>
      <trkpt lat="43.7912" lon="7.23434">
        <ele>375.20001220703</ele>
        <time>2020-02-22T08:18:33.000Z</time>
      </trkpt>
      <trkpt lat="43.79119" lon="7.23434">
        <ele>374.79998779297</ele>
        <time>2020-02-22T08:18:43.000Z</time>
      </trkpt>
      <trkpt lat="43.79119" lon="7.23434">
        <ele>375.20001220703</ele>
        <time>2020-02-22T08:18:51.000Z</time>
      </trkpt>
      <trkpt lat="43.79119" lon="7.23434">
        <ele>375</ele>
        <time>2020-02-22T08:19:03.000Z</time>
      </trkpt>
      <trkpt lat="43.79119" lon="7.23434">
        <ele>374.79998779297</ele>
        <time>2020-02-22T08:19:13.000Z</time>
      </trkpt>
      <trkpt lat="43.79119" lon="7.23434">
        <ele>375</ele>
        <time>2020-02-22T08:19:19.000Z</time>
      </trkpt>
      <trkpt lat="43.79119" lon="7.23434">
        <ele>375.39999389648</ele>
        <time>2020-02-22T08:19:23.000Z</time>
      </trkpt>
      <trkpt lat="43.79119" lon="7.23434">
        <ele>375</ele>
        <time>2020-02-22T08:19:30.000Z</time>
      </trkpt>
      <trkpt lat="43.79119" lon="7.23433">
        <ele>375.39999389648</ele>
        <time>2020-02-22T08:19:37.000Z</time>
      </trkpt>
      <trkpt lat="43.7912" lon="7.23433">
        <ele>375</ele>
        <time>2020-02-22T08:19:43.000Z</time>
      </trkpt>
      <trkpt lat="43.7912" lon="7.23432">
        <ele>375.39999389648</ele>
        <time>2020-02-22T08:19:51.000Z</time>
      </trkpt>
      <trkpt lat="43.79118" lon="7.2343">
        <ele>375</ele>
        <time>2020-02-22T08:19:54.000Z</time>
      </trkpt>
      <trkpt lat="43.79117" lon="7.2343">
        <ele>374.79998779297</ele>
        <time>2020-02-22T08:19:55.000Z</time>
      </trkpt>
      <trkpt lat="43.79116" lon="7.2343">
        <ele>374.60000610352</ele>
        <time>2020-02-22T08:20:00.000Z</time>
      </trkpt>
      <trkpt lat="43.79119" lon="7.23431">
        <ele>375</ele>
        <time>2020-02-22T08:20:09.000Z</time>
      </trkpt>
      <trkpt lat="43.79121" lon="7.23434">
        <ele>375.60000610352</ele>
        <time>2020-02-22T08:20:16.000Z</time>
      </trkpt>
      <trkpt lat="43.79122" lon="7.23435">
        <ele>376</ele>
        <time>2020-02-22T08:20:18.000Z</time>
      </trkpt>
      <trkpt lat="43.79123" lon="7.23436">
        <ele>377.20001220703</ele>
        <time>2020-02-22T08:20:24.000Z</time>
      </trkpt>
      <trkpt lat="43.79122" lon="7.23437">
        <ele>377.39999389648</ele>
        <time>2020-02-22T08:20:36.000Z</time>
      </trkpt>
      <trkpt lat="43.79123" lon="7.23439">
        <ele>377.60000610352</ele>
        <time>2020-02-22T08:20:42.000Z</time>
      </trkpt>
      <trkpt lat="43.79125" lon="7.23443">
        <ele>378.20001220703</ele>
        <time>2020-02-22T08:20:47.000Z</time>
      </trkpt>
      <trkpt lat="43.79126" lon="7.23445">
        <ele>378.79998779297</ele>
        <time>2020-02-22T08:20:50.000Z</time>
      </trkpt>
      <trkpt lat="43.79127" lon="7.23447">
        <ele>379.20001220703</ele>
        <time>2020-02-22T08:20:52.000Z</time>
      </trkpt>
      <trkpt lat="43.79129" lon="7.2345">
        <ele>380.60000610352</ele>
        <time>2020-02-22T08:20:57.000Z</time>
      </trkpt>
      <trkpt lat="43.79129" lon="7.23451">
        <ele>380.79998779297</ele>
        <time>2020-02-22T08:20:58.000Z</time>
      </trkpt>
      <trkpt lat="43.79131" lon="7.23454">
        <ele>381.60000610352</ele>
        <time>2020-02-22T08:21:02.000Z</time>
      </trkpt>
      <trkpt lat="43.79131" lon="7.23454">
        <ele>381.79998779297</ele>
        <time>2020-02-22T08:21:03.000Z</time>
      </trkpt>
      <trkpt lat="43.79132" lon="7.23453">
        <ele>382.79998779297</ele>
        <time>2020-02-22T08:21:09.000Z</time>
      </trkpt>
      <trkpt lat="43.79132" lon="7.23453">
        <ele>383</ele>
        <time>2020-02-22T08:21:13.000Z</time>
      </trkpt>
      <trkpt lat="43.79136" lon="7.23456">
        <ele>383.39999389648</ele>
        <time>2020-02-22T08:21:20.000Z</time>
      </trkpt>
      <trkpt lat="43.79136" lon="7.23457">
        <ele>383.79998779297</ele>
        <time>2020-02-22T08:21:21.000Z</time>
      </trkpt>
      <trkpt lat="43.79136" lon="7.23461">
        <ele>384.79998779297</ele>
        <time>2020-02-22T08:21:25.000Z</time>
      </trkpt>
      <trkpt lat="43.79135" lon="7.23462">
        <ele>385.20001220703</ele>
        <time>2020-02-22T08:21:27.000Z</time>
      </trkpt>
      <trkpt lat="43.79135" lon="7.23465">
        <ele>386</ele>
        <time>2020-02-22T08:21:30.000Z</time>
      </trkpt>
      <trkpt lat="43.79137" lon="7.23464">
        <ele>386.60000610352</ele>
        <time>2020-02-22T08:21:33.000Z</time>
      </trkpt>
      <trkpt lat="43.79138" lon="7.23463">
        <ele>386.79998779297</ele>
        <time>2020-02-22T08:21:35.000Z</time>
      </trkpt>
      <trkpt lat="43.79139" lon="7.23465">
        <ele>387</ele>
        <time>2020-02-22T08:21:37.000Z</time>
      </trkpt>
      <trkpt lat="43.79139" lon="7.23466">
        <ele>387.20001220703</ele>
        <time>2020-02-22T08:21:38.000Z</time>
      </trkpt>
      <trkpt lat="43.79138" lon="7.23471">
        <ele>388.20001220703</ele>
        <time>2020-02-22T08:21:44.000Z</time>
      </trkpt>
      <trkpt lat="43.79138" lon="7.23472">
        <ele>388.39999389648</ele>
        <time>2020-02-22T08:21:45.000Z</time>
      </trkpt>
      <trkpt lat="43.7914" lon="7.23476">
        <ele>389.60000610352</ele>
        <time>2020-02-22T08:21:51.000Z</time>
      </trkpt>
      <trkpt lat="43.79143" lon="7.2348">
        <ele>390.60000610352</ele>
        <time>2020-02-22T08:21:56.000Z</time>
      </trkpt>
      <trkpt lat="43.79142" lon="7.23481">
        <ele>391</ele>
        <time>2020-02-22T08:21:57.000Z</time>
      </trkpt>
      <trkpt lat="43.79141" lon="7.23483">
        <ele>391.79998779297</ele>
        <time>2020-02-22T08:22:01.000Z</time>
      </trkpt>
      <trkpt lat="43.7914" lon="7.23483">
        <ele>392</ele>
        <time>2020-02-22T08:22:04.000Z</time>
      </trkpt>
      <trkpt lat="43.79139" lon="7.23483">
        <ele>392.20001220703</ele>
        <time>2020-02-22T08:22:15.000Z</time>
      </trkpt>
      <trkpt lat="43.79136" lon="7.23485">
        <ele>392.20001220703</ele>
        <time>2020-02-22T08:22:23.000Z</time>
      </trkpt>
      <trkpt lat="43.79136" lon="7.23486">
        <ele>392.39999389648</ele>
        <time>2020-02-22T08:22:24.000Z</time>
      </trkpt>
      <trkpt lat="43.79134" lon="7.23492">
        <ele>393</ele>
        <time>2020-02-22T08:22:27.000Z</time>
      </trkpt>
      <trkpt lat="43.79133" lon="7.23494">
        <ele>393.20001220703</ele>
        <time>2020-02-22T08:22:28.000Z</time>
      </trkpt>
      <trkpt lat="43.7913" lon="7.23501">
        <ele>394.20001220703</ele>
        <time>2020-02-22T08:22:31.000Z</time>
      </trkpt>
      <trkpt lat="43.79128" lon="7.23507">
        <ele>395.39999389648</ele>
        <time>2020-02-22T08:22:34.000Z</time>
      </trkpt>
      <trkpt lat="43.79127" lon="7.23514">
        <ele>396.79998779297</ele>
        <time>2020-02-22T08:22:37.000Z</time>
      </trkpt>
      <trkpt lat="43.79126" lon="7.23518">
        <ele>397.60000610352</ele>
        <time>2020-02-22T08:22:39.000Z</time>
      </trkpt>
      <trkpt lat="43.79125" lon="7.23521">
        <ele>398</ele>
        <time>2020-02-22T08:22:40.000Z</time>
      </trkpt>
      <trkpt lat="43.79123" lon="7.23527">
        <ele>399.20001220703</ele>
        <time>2020-02-22T08:22:43.000Z</time>
      </trkpt>
      <trkpt lat="43.79122" lon="7.23529">
        <ele>399.60000610352</ele>
        <time>2020-02-22T08:22:44.000Z</time>
      </trkpt>
      <trkpt lat="43.79121" lon="7.23533">
        <ele>400.39999389648</ele>
        <time>2020-02-22T08:22:46.000Z</time>
      </trkpt>
      <trkpt lat="43.79119" lon="7.23538">
        <ele>401.39999389648</ele>
        <time>2020-02-22T08:22:48.000Z</time>
      </trkpt>
      <trkpt lat="43.79119" lon="7.2354">
        <ele>401.79998779297</ele>
        <time>2020-02-22T08:22:49.000Z</time>
      </trkpt>
      <trkpt lat="43.79118" lon="7.23542">
        <ele>402.39999389648</ele>
        <time>2020-02-22T08:22:50.000Z</time>
      </trkpt>
      <trkpt lat="43.79117" lon="7.23543">
        <ele>402.79998779297</ele>
        <time>2020-02-22T08:22:51.000Z</time>
      </trkpt>
      <trkpt lat="43.79114" lon="7.2355">
        <ele>403.79998779297</ele>
        <time>2020-02-22T08:22:54.000Z</time>
      </trkpt>
      <trkpt lat="43.79112" lon="7.23554">
        <ele>404.60000610352</ele>
        <time>2020-02-22T08:22:56.000Z</time>
      </trkpt>
      <trkpt lat="43.79112" lon="7.23555">
        <ele>405</ele>
        <time>2020-02-22T08:22:57.000Z</time>
      </trkpt>
      <trkpt lat="43.79111" lon="7.23556">
        <ele>406.60000610352</ele>
        <time>2020-02-22T08:23:00.000Z</time>
      </trkpt>
      <trkpt lat="43.79111" lon="7.23556">
        <ele>407</ele>
        <time>2020-02-22T08:23:01.000Z</time>
      </trkpt>
      <trkpt lat="43.79109" lon="7.23558">
        <ele>407.60000610352</ele>
        <time>2020-02-22T08:23:06.000Z</time>
      </trkpt>
      <trkpt lat="43.79108" lon="7.23558">
        <ele>408</ele>
        <time>2020-02-22T08:23:09.000Z</time>
      </trkpt>
      <trkpt lat="43.79108" lon="7.23559">
        <ele>408.39999389648</ele>
        <time>2020-02-22T08:23:13.000Z</time>
      </trkpt>
      <trkpt lat="43.79108" lon="7.23559">
        <ele>408.60000610352</ele>
        <time>2020-02-22T08:23:16.000Z</time>
      </trkpt>
      <trkpt lat="43.79106" lon="7.2356">
        <ele>408.39999389648</ele>
        <time>2020-02-22T08:23:22.000Z</time>
      </trkpt>
      <trkpt lat="43.79099" lon="7.23564">
        <ele>409.20001220703</ele>
        <time>2020-02-22T08:23:27.000Z</time>
      </trkpt>
      <trkpt lat="43.79097" lon="7.23564">
        <ele>409.79998779297</ele>
        <time>2020-02-22T08:23:28.000Z</time>
      </trkpt>
      <trkpt lat="43.79092" lon="7.23564">
        <ele>411.20001220703</ele>
        <time>2020-02-22T08:23:31.000Z</time>
      </trkpt>
      <trkpt lat="43.7909" lon="7.23564">
        <ele>411.79998779297</ele>
        <time>2020-02-22T08:23:32.000Z</time>
      </trkpt>
      <trkpt lat="43.79089" lon="7.23565">
        <ele>412.20001220703</ele>
        <time>2020-02-22T08:23:33.000Z</time>
      </trkpt>
      <trkpt lat="43.79089" lon="7.23566">
        <ele>412.60000610352</ele>
        <time>2020-02-22T08:23:34.000Z</time>
      </trkpt>
      <trkpt lat="43.79089" lon="7.23569">
        <ele>413.20001220703</ele>
        <time>2020-02-22T08:23:36.000Z</time>
      </trkpt>
      <trkpt lat="43.79095" lon="7.23577">
        <ele>413.39999389648</ele>
        <time>2020-02-22T08:23:42.000Z</time>
      </trkpt>
      <trkpt lat="43.79096" lon="7.23579">
        <ele>413.60000610352</ele>
        <time>2020-02-22T08:23:43.000Z</time>
      </trkpt>
      <trkpt lat="43.79101" lon="7.23585">
        <ele>414.79998779297</ele>
        <time>2020-02-22T08:23:47.000Z</time>
      </trkpt>
      <trkpt lat="43.79104" lon="7.23587">
        <ele>415.39999389648</ele>
        <time>2020-02-22T08:23:49.000Z</time>
      </trkpt>
      <trkpt lat="43.79106" lon="7.23589">
        <ele>415.79998779297</ele>
        <time>2020-02-22T08:23:50.000Z</time>
      </trkpt>
      <trkpt lat="43.79112" lon="7.23592">
        <ele>417.20001220703</ele>
        <time>2020-02-22T08:23:53.000Z</time>
      </trkpt>
      <trkpt lat="43.79113" lon="7.23595">
        <ele>417.79998779297</ele>
        <time>2020-02-22T08:23:54.000Z</time>
      </trkpt>
      <trkpt lat="43.79112" lon="7.23597">
        <ele>418</ele>
        <time>2020-02-22T08:23:55.000Z</time>
      </trkpt>
      <trkpt lat="43.79111" lon="7.23599">
        <ele>418.39999389648</ele>
        <time>2020-02-22T08:23:56.000Z</time>
      </trkpt>
      <trkpt lat="43.79107" lon="7.23609">
        <ele>419.20001220703</ele>
        <time>2020-02-22T08:24:00.000Z</time>
      </trkpt>
      <trkpt lat="43.79106" lon="7.23611">
        <ele>419.20001220703</ele>
        <time>2020-02-22T08:24:01.000Z</time>
      </trkpt>
      <trkpt lat="43.79104" lon="7.23618">
        <ele>419.60000610352</ele>
        <time>2020-02-22T08:24:04.000Z</time>
      </trkpt>
      <trkpt lat="43.79105" lon="7.2362">
        <ele>419.79998779297</ele>
        <time>2020-02-22T08:24:05.000Z</time>
      </trkpt>
      <trkpt lat="43.79108" lon="7.23619">
        <ele>420.79998779297</ele>
        <time>2020-02-22T08:24:08.000Z</time>
      </trkpt>
      <trkpt lat="43.79108" lon="7.2362">
        <ele>421.39999389648</ele>
        <time>2020-02-22T08:24:10.000Z</time>
      </trkpt>
      <trkpt lat="43.79109" lon="7.2362">
        <ele>421.39999389648</ele>
        <time>2020-02-22T08:24:11.000Z</time>
      </trkpt>
      <trkpt lat="43.79111" lon="7.2362">
        <ele>422.20001220703</ele>
        <time>2020-02-22T08:24:14.000Z</time>
      </trkpt>
      <trkpt lat="43.79113" lon="7.23621">
        <ele>422.60000610352</ele>
        <time>2020-02-22T08:24:16.000Z</time>
      </trkpt>
      <trkpt lat="43.79114" lon="7.23622">
        <ele>423</ele>
        <time>2020-02-22T08:24:18.000Z</time>
      </trkpt>
      <trkpt lat="43.79114" lon="7.23621">
        <ele>423.20001220703</ele>
        <time>2020-02-22T08:24:19.000Z</time>
      </trkpt>
      <trkpt lat="43.79114" lon="7.23621">
        <ele>423.20001220703</ele>
        <time>2020-02-22T08:24:26.000Z</time>
      </trkpt>
      <trkpt lat="43.79114" lon="7.23621">
        <ele>423.39999389648</ele>
        <time>2020-02-22T08:24:34.000Z</time>
      </trkpt>
      <trkpt lat="43.79114" lon="7.23622">
        <ele>423.39999389648</ele>
        <time>2020-02-22T08:24:40.000Z</time>
      </trkpt>
      <trkpt lat="43.79112" lon="7.23624">
        <ele>423.39999389648</ele>
        <time>2020-02-22T08:24:42.000Z</time>
      </trkpt>
      <trkpt lat="43.79112" lon="7.23625">
        <ele>423.39999389648</ele>
        <time>2020-02-22T08:24:43.000Z</time>
      </trkpt>
      <trkpt lat="43.79113" lon="7.23626">
        <ele>424</ele>
        <time>2020-02-22T08:24:46.000Z</time>
      </trkpt>
      <trkpt lat="43.79113" lon="7.23627">
        <ele>424.20001220703</ele>
        <time>2020-02-22T08:24:48.000Z</time>
      </trkpt>
      <trkpt lat="43.79114" lon="7.23628">
        <ele>425</ele>
        <time>2020-02-22T08:24:55.000Z</time>
      </trkpt>
      <trkpt lat="43.79115" lon="7.23628">
        <ele>425.20001220703</ele>
        <time>2020-02-22T08:24:58.000Z</time>
      </trkpt>
      <trkpt lat="43.79116" lon="7.23629">
        <ele>425.79998779297</ele>
        <time>2020-02-22T08:25:02.000Z</time>
      </trkpt>
      <trkpt lat="43.79116" lon="7.23632">
        <ele>426.39999389648</ele>
        <time>2020-02-22T08:25:07.000Z</time>
      </trkpt>
      <trkpt lat="43.79115" lon="7.23632">
        <ele>426.39999389648</ele>
        <time>2020-02-22T08:25:08.000Z</time>
      </trkpt>
      <trkpt lat="43.79116" lon="7.23634">
        <ele>427</ele>
        <time>2020-02-22T08:25:14.000Z</time>
      </trkpt>
      <trkpt lat="43.79117" lon="7.23635">
        <ele>427.39999389648</ele>
        <time>2020-02-22T08:25:16.000Z</time>
      </trkpt>
      <trkpt lat="43.79117" lon="7.23637">
        <ele>428</ele>
        <time>2020-02-22T08:25:20.000Z</time>
      </trkpt>
      <trkpt lat="43.79117" lon="7.23638">
        <ele>428.39999389648</ele>
        <time>2020-02-22T08:25:22.000Z</time>
      </trkpt>
      <trkpt lat="43.79121" lon="7.23637">
        <ele>429.39999389648</ele>
        <time>2020-02-22T08:25:28.000Z</time>
      </trkpt>
      <trkpt lat="43.79124" lon="7.23636">
        <ele>430.39999389648</ele>
        <time>2020-02-22T08:25:34.000Z</time>
      </trkpt>
      <trkpt lat="43.79124" lon="7.23636">
        <ele>430.60000610352</ele>
        <time>2020-02-22T08:25:35.000Z</time>
      </trkpt>
      <trkpt lat="43.79124" lon="7.23635">
        <ele>431</ele>
        <time>2020-02-22T08:25:46.000Z</time>
      </trkpt>
      <trkpt lat="43.79127" lon="7.23637">
        <ele>431</ele>
        <time>2020-02-22T08:25:53.000Z</time>
      </trkpt>
      <trkpt lat="43.79133" lon="7.23642">
        <ele>431.79998779297</ele>
        <time>2020-02-22T08:25:58.000Z</time>
      </trkpt>
      <trkpt lat="43.79135" lon="7.23642">
        <ele>432</ele>
        <time>2020-02-22T08:25:59.000Z</time>
      </trkpt>
      <trkpt lat="43.79138" lon="7.23644">
        <ele>433</ele>
        <time>2020-02-22T08:26:01.000Z</time>
      </trkpt>
      <trkpt lat="43.79142" lon="7.23644">
        <ele>434</ele>
        <time>2020-02-22T08:26:03.000Z</time>
      </trkpt>
      <trkpt lat="43.79145" lon="7.23644">
        <ele>434.60000610352</ele>
        <time>2020-02-22T08:26:04.000Z</time>
      </trkpt>
      <trkpt lat="43.79154" lon="7.23642">
        <ele>435.60000610352</ele>
        <time>2020-02-22T08:26:08.000Z</time>
      </trkpt>
      <trkpt lat="43.79164" lon="7.23642">
        <ele>436.79998779297</ele>
        <time>2020-02-22T08:26:12.000Z</time>
      </trkpt>
      <trkpt lat="43.79166" lon="7.23642">
        <ele>437</ele>
        <time>2020-02-22T08:26:13.000Z</time>
      </trkpt>
      <trkpt lat="43.79174" lon="7.23641">
        <ele>438</ele>
        <time>2020-02-22T08:26:16.000Z</time>
      </trkpt>
      <trkpt lat="43.79178" lon="7.23639">
        <ele>439.20001220703</ele>
        <time>2020-02-22T08:26:18.000Z</time>
      </trkpt>
      <trkpt lat="43.79182" lon="7.2364">
        <ele>440.79998779297</ele>
        <time>2020-02-22T08:26:20.000Z</time>
      </trkpt>
      <trkpt lat="43.79183" lon="7.23643">
        <ele>441.79998779297</ele>
        <time>2020-02-22T08:26:22.000Z</time>
      </trkpt>
      <trkpt lat="43.79183" lon="7.23645">
        <ele>442.20001220703</ele>
        <time>2020-02-22T08:26:23.000Z</time>
      </trkpt>
      <trkpt lat="43.79184" lon="7.23654">
        <ele>443</ele>
        <time>2020-02-22T08:26:28.000Z</time>
      </trkpt>
      <trkpt lat="43.79184" lon="7.23656">
        <ele>443.20001220703</ele>
        <time>2020-02-22T08:26:29.000Z</time>
      </trkpt>
      <trkpt lat="43.79185" lon="7.23662">
        <ele>444.20001220703</ele>
        <time>2020-02-22T08:26:32.000Z</time>
      </trkpt>
      <trkpt lat="43.79185" lon="7.23664">
        <ele>444.60000610352</ele>
        <time>2020-02-22T08:26:33.000Z</time>
      </trkpt>
      <trkpt lat="43.79185" lon="7.23666">
        <ele>445</ele>
        <time>2020-02-22T08:26:34.000Z</time>
      </trkpt>
      <trkpt lat="43.79187" lon="7.2367">
        <ele>445.60000610352</ele>
        <time>2020-02-22T08:26:36.000Z</time>
      </trkpt>
      <trkpt lat="43.79188" lon="7.2368">
        <ele>446.79998779297</ele>
        <time>2020-02-22T08:26:40.000Z</time>
      </trkpt>
      <trkpt lat="43.79187" lon="7.23694">
        <ele>447.79998779297</ele>
        <time>2020-02-22T08:26:45.000Z</time>
      </trkpt>
      <trkpt lat="43.79185" lon="7.23702">
        <ele>448.20001220703</ele>
        <time>2020-02-22T08:26:48.000Z</time>
      </trkpt>
      <trkpt lat="43.7918" lon="7.23716">
        <ele>449</ele>
        <time>2020-02-22T08:26:53.000Z</time>
      </trkpt>
      <trkpt lat="43.79177" lon="7.2372">
        <ele>449.39999389648</ele>
        <time>2020-02-22T08:26:55.000Z</time>
      </trkpt>
      <trkpt lat="43.79171" lon="7.23727">
        <ele>450.20001220703</ele>
        <time>2020-02-22T08:26:59.000Z</time>
      </trkpt>
      <trkpt lat="43.79167" lon="7.23731">
        <ele>450.60000610352</ele>
        <time>2020-02-22T08:27:01.000Z</time>
      </trkpt>
      <trkpt lat="43.79159" lon="7.23741">
        <ele>451.20001220703</ele>
        <time>2020-02-22T08:27:06.000Z</time>
      </trkpt>
      <trkpt lat="43.79155" lon="7.23747">
        <ele>451.39999389648</ele>
        <time>2020-02-22T08:27:08.000Z</time>
      </trkpt>
      <trkpt lat="43.79148" lon="7.2377">
        <ele>451</ele>
        <time>2020-02-22T08:27:13.000Z</time>
      </trkpt>
      <trkpt lat="43.79147" lon="7.23781">
        <ele>450.79998779297</ele>
        <time>2020-02-22T08:27:15.000Z</time>
      </trkpt>
      <trkpt lat="43.79145" lon="7.23802">
        <ele>450.20001220703</ele>
        <time>2020-02-22T08:27:19.000Z</time>
      </trkpt>
      <trkpt lat="43.79144" lon="7.23831">
        <ele>451.60000610352</ele>
        <time>2020-02-22T08:27:26.000Z</time>
      </trkpt>
      <trkpt lat="43.79148" lon="7.23847">
        <ele>452.20001220703</ele>
        <time>2020-02-22T08:27:30.000Z</time>
      </trkpt>
      <trkpt lat="43.79152" lon="7.23854">
        <ele>452.79998779297</ele>
        <time>2020-02-22T08:27:32.000Z</time>
      </trkpt>
      <trkpt lat="43.79154" lon="7.23859">
        <ele>453.20001220703</ele>
        <time>2020-02-22T08:27:34.000Z</time>
      </trkpt>
      <trkpt lat="43.79159" lon="7.23869">
        <ele>454</ele>
        <time>2020-02-22T08:27:37.000Z</time>
      </trkpt>
      <trkpt lat="43.79161" lon="7.23872">
        <ele>454.39999389648</ele>
        <time>2020-02-22T08:27:38.000Z</time>
      </trkpt>
      <trkpt lat="43.79169" lon="7.23893">
        <ele>455.20001220703</ele>
        <time>2020-02-22T08:27:44.000Z</time>
      </trkpt>
      <trkpt lat="43.79175" lon="7.23906">
        <ele>455.39999389648</ele>
        <time>2020-02-22T08:27:48.000Z</time>
      </trkpt>
      <trkpt lat="43.7918" lon="7.23907">
        <ele>455.60000610352</ele>
        <time>2020-02-22T08:27:50.000Z</time>
      </trkpt>
      <trkpt lat="43.79188" lon="7.23904">
        <ele>456.60000610352</ele>
        <time>2020-02-22T08:27:54.000Z</time>
      </trkpt>
      <trkpt lat="43.79189" lon="7.23903">
        <ele>456.79998779297</ele>
        <time>2020-02-22T08:27:55.000Z</time>
      </trkpt>
      <trkpt lat="43.79192" lon="7.23901">
        <ele>457.39999389648</ele>
        <time>2020-02-22T08:27:57.000Z</time>
      </trkpt>
      <trkpt lat="43.79193" lon="7.239">
        <ele>457.60000610352</ele>
        <time>2020-02-22T08:27:58.000Z</time>
      </trkpt>
      <trkpt lat="43.79194" lon="7.23898">
        <ele>457.60000610352</ele>
        <time>2020-02-22T08:27:59.000Z</time>
      </trkpt>
      <trkpt lat="43.79195" lon="7.23896">
        <ele>457.79998779297</ele>
        <time>2020-02-22T08:28:00.000Z</time>
      </trkpt>
      <trkpt lat="43.79194" lon="7.23888">
        <ele>458.60000610352</ele>
        <time>2020-02-22T08:28:03.000Z</time>
      </trkpt>
      <trkpt lat="43.79194" lon="7.23886">
        <ele>459</ele>
        <time>2020-02-22T08:28:04.000Z</time>
      </trkpt>
      <trkpt lat="43.79195" lon="7.23882">
        <ele>460</ele>
        <time>2020-02-22T08:28:06.000Z</time>
      </trkpt>
      <trkpt lat="43.79197" lon="7.23881">
        <ele>460.39999389648</ele>
        <time>2020-02-22T08:28:07.000Z</time>
      </trkpt>
      <trkpt lat="43.792" lon="7.23882">
        <ele>461.20001220703</ele>
        <time>2020-02-22T08:28:09.000Z</time>
      </trkpt>
      <trkpt lat="43.79201" lon="7.23884">
        <ele>461.39999389648</ele>
        <time>2020-02-22T08:28:10.000Z</time>
      </trkpt>
      <trkpt lat="43.79203" lon="7.23893">
        <ele>462</ele>
        <time>2020-02-22T08:28:13.000Z</time>
      </trkpt>
      <trkpt lat="43.79202" lon="7.23896">
        <ele>462.20001220703</ele>
        <time>2020-02-22T08:28:14.000Z</time>
      </trkpt>
      <trkpt lat="43.79201" lon="7.23904">
        <ele>462.60000610352</ele>
        <time>2020-02-22T08:28:17.000Z</time>
      </trkpt>
      <trkpt lat="43.79198" lon="7.23912">
        <ele>463.39999389648</ele>
        <time>2020-02-22T08:28:20.000Z</time>
      </trkpt>
      <trkpt lat="43.79197" lon="7.23915">
        <ele>463.60000610352</ele>
        <time>2020-02-22T08:28:21.000Z</time>
      </trkpt>
      <trkpt lat="43.79189" lon="7.23928">
        <ele>464.79998779297</ele>
        <time>2020-02-22T08:28:26.000Z</time>
      </trkpt>
      <trkpt lat="43.79188" lon="7.23931">
        <ele>464.79998779297</ele>
        <time>2020-02-22T08:28:27.000Z</time>
      </trkpt>
      <trkpt lat="43.79181" lon="7.23945">
        <ele>465.79998779297</ele>
        <time>2020-02-22T08:28:32.000Z</time>
      </trkpt>
      <trkpt lat="43.79179" lon="7.23951">
        <ele>466</ele>
        <time>2020-02-22T08:28:34.000Z</time>
      </trkpt>
      <trkpt lat="43.79177" lon="7.23969">
        <ele>466.60000610352</ele>
        <time>2020-02-22T08:28:39.000Z</time>
      </trkpt>
      <trkpt lat="43.79177" lon="7.23981">
        <ele>466.79998779297</ele>
        <time>2020-02-22T08:28:42.000Z</time>
      </trkpt>
      <trkpt lat="43.79178" lon="7.23988">
        <ele>467</ele>
        <time>2020-02-22T08:28:44.000Z</time>
      </trkpt>
      <trkpt lat="43.79182" lon="7.24014">
        <ele>467.79998779297</ele>
        <time>2020-02-22T08:28:51.000Z</time>
      </trkpt>
      <trkpt lat="43.79183" lon="7.24021">
        <ele>468</ele>
        <time>2020-02-22T08:28:53.000Z</time>
      </trkpt>
      <trkpt lat="43.79186" lon="7.24048">
        <ele>468.79998779297</ele>
        <time>2020-02-22T08:29:00.000Z</time>
      </trkpt>
      <trkpt lat="43.79185" lon="7.24055">
        <ele>468.79998779297</ele>
        <time>2020-02-22T08:29:02.000Z</time>
      </trkpt>
      <trkpt lat="43.7918" lon="7.24066">
        <ele>469.20001220703</ele>
        <time>2020-02-22T08:29:05.000Z</time>
      </trkpt>
      <trkpt lat="43.79168" lon="7.24082">
        <ele>470</ele>
        <time>2020-02-22T08:29:11.000Z</time>
      </trkpt>
      <trkpt lat="43.79154" lon="7.24093">
        <ele>471</ele>
        <time>2020-02-22T08:29:17.000Z</time>
      </trkpt>
      <trkpt lat="43.79149" lon="7.24098">
        <ele>471.39999389648</ele>
        <time>2020-02-22T08:29:19.000Z</time>
      </trkpt>
      <trkpt lat="43.79139" lon="7.24108">
        <ele>472</ele>
        <time>2020-02-22T08:29:23.000Z</time>
      </trkpt>
      <trkpt lat="43.79133" lon="7.24117">
        <ele>472.60000610352</ele>
        <time>2020-02-22T08:29:26.000Z</time>
      </trkpt>
      <trkpt lat="43.79126" lon="7.24131">
        <ele>473.20001220703</ele>
        <time>2020-02-22T08:29:30.000Z</time>
      </trkpt>
      <trkpt lat="43.7912" lon="7.2415">
        <ele>474</ele>
        <time>2020-02-22T08:29:35.000Z</time>
      </trkpt>
      <trkpt lat="43.79118" lon="7.24159">
        <ele>474.20001220703</ele>
        <time>2020-02-22T08:29:37.000Z</time>
      </trkpt>
      <trkpt lat="43.79115" lon="7.24172">
        <ele>474.79998779297</ele>
        <time>2020-02-22T08:29:40.000Z</time>
      </trkpt>
      <trkpt lat="43.79111" lon="7.24195">
        <ele>475.20001220703</ele>
        <time>2020-02-22T08:29:46.000Z</time>
      </trkpt>
      <trkpt lat="43.7911" lon="7.24199">
        <ele>475.39999389648</ele>
        <time>2020-02-22T08:29:47.000Z</time>
      </trkpt>
      <trkpt lat="43.79105" lon="7.24222">
        <ele>476.39999389648</ele>
        <time>2020-02-22T08:29:53.000Z</time>
      </trkpt>
      <trkpt lat="43.79102" lon="7.24235">
        <ele>477</ele>
        <time>2020-02-22T08:29:56.000Z</time>
      </trkpt>
      <trkpt lat="43.79099" lon="7.24242">
        <ele>477.39999389648</ele>
        <time>2020-02-22T08:29:58.000Z</time>
      </trkpt>
      <trkpt lat="43.79096" lon="7.24254">
        <ele>477.60000610352</ele>
        <time>2020-02-22T08:30:01.000Z</time>
      </trkpt>
      <trkpt lat="43.79086" lon="7.24279">
        <ele>478.39999389648</ele>
        <time>2020-02-22T08:30:08.000Z</time>
      </trkpt>
      <trkpt lat="43.79081" lon="7.2429">
        <ele>479</ele>
        <time>2020-02-22T08:30:11.000Z</time>
      </trkpt>
      <trkpt lat="43.79067" lon="7.24311">
        <ele>479.60000610352</ele>
        <time>2020-02-22T08:30:18.000Z</time>
      </trkpt>
      <trkpt lat="43.79048" lon="7.24319">
        <ele>480.79998779297</ele>
        <time>2020-02-22T08:30:25.000Z</time>
      </trkpt>
      <trkpt lat="43.79031" lon="7.2433">
        <ele>481.79998779297</ele>
        <time>2020-02-22T08:30:31.000Z</time>
      </trkpt>
      <trkpt lat="43.79029" lon="7.24332">
        <ele>481.79998779297</ele>
        <time>2020-02-22T08:30:32.000Z</time>
      </trkpt>
      <trkpt lat="43.79009" lon="7.24356">
        <ele>482.39999389648</ele>
        <time>2020-02-22T08:30:40.000Z</time>
      </trkpt>
      <trkpt lat="43.79001" lon="7.24364">
        <ele>482.79998779297</ele>
        <time>2020-02-22T08:30:43.000Z</time>
      </trkpt>
      <trkpt lat="43.78992" lon="7.24368">
        <ele>483.20001220703</ele>
        <time>2020-02-22T08:30:46.000Z</time>
      </trkpt>
      <trkpt lat="43.78979" lon="7.24368">
        <ele>483.79998779297</ele>
        <time>2020-02-22T08:30:50.000Z</time>
      </trkpt>
      <trkpt lat="43.7897" lon="7.24366">
        <ele>484.39999389648</ele>
        <time>2020-02-22T08:30:53.000Z</time>
      </trkpt>
      <trkpt lat="43.78961" lon="7.24362">
        <ele>485</ele>
        <time>2020-02-22T08:30:56.000Z</time>
      </trkpt>
      <trkpt lat="43.78948" lon="7.24355">
        <ele>485.79998779297</ele>
        <time>2020-02-22T08:31:00.000Z</time>
      </trkpt>
      <trkpt lat="43.78942" lon="7.24352">
        <ele>486.20001220703</ele>
        <time>2020-02-22T08:31:02.000Z</time>
      </trkpt>
      <trkpt lat="43.78922" lon="7.24339">
        <ele>487.20001220703</ele>
        <time>2020-02-22T08:31:09.000Z</time>
      </trkpt>
      <trkpt lat="43.78919" lon="7.24337">
        <ele>487.39999389648</ele>
        <time>2020-02-22T08:31:10.000Z</time>
      </trkpt>
      <trkpt lat="43.78902" lon="7.24323">
        <ele>488.20001220703</ele>
        <time>2020-02-22T08:31:16.000Z</time>
      </trkpt>
      <trkpt lat="43.78896" lon="7.24319">
        <ele>488.39999389648</ele>
        <time>2020-02-22T08:31:18.000Z</time>
      </trkpt>
      <trkpt lat="43.78873" lon="7.24309">
        <ele>489.20001220703</ele>
        <time>2020-02-22T08:31:25.000Z</time>
      </trkpt>
      <trkpt lat="43.7887" lon="7.24308">
        <ele>489.20001220703</ele>
        <time>2020-02-22T08:31:26.000Z</time>
      </trkpt>
      <trkpt lat="43.78843" lon="7.24301">
        <ele>490.39999389648</ele>
        <time>2020-02-22T08:31:34.000Z</time>
      </trkpt>
      <trkpt lat="43.78839" lon="7.24301">
        <ele>490.39999389648</ele>
        <time>2020-02-22T08:31:35.000Z</time>
      </trkpt>
      <trkpt lat="43.78823" lon="7.24297">
        <ele>491.39999389648</ele>
        <time>2020-02-22T08:31:40.000Z</time>
      </trkpt>
      <trkpt lat="43.78816" lon="7.24296">
        <ele>491.79998779297</ele>
        <time>2020-02-22T08:31:42.000Z</time>
      </trkpt>
      <trkpt lat="43.78803" lon="7.24293">
        <ele>492.60000610352</ele>
        <time>2020-02-22T08:31:46.000Z</time>
      </trkpt>
      <trkpt lat="43.78783" lon="7.24289">
        <ele>493.60000610352</ele>
        <time>2020-02-22T08:31:52.000Z</time>
      </trkpt>
      <trkpt lat="43.7878" lon="7.24288">
        <ele>493.60000610352</ele>
        <time>2020-02-22T08:31:53.000Z</time>
      </trkpt>
      <trkpt lat="43.78761" lon="7.24284">
        <ele>494.79998779297</ele>
        <time>2020-02-22T08:31:59.000Z</time>
      </trkpt>
      <trkpt lat="43.78752" lon="7.24283">
        <ele>495.20001220703</ele>
        <time>2020-02-22T08:32:02.000Z</time>
      </trkpt>
      <trkpt lat="43.78739" lon="7.24282">
        <ele>496</ele>
        <time>2020-02-22T08:32:06.000Z</time>
      </trkpt>
      <trkpt lat="43.78724" lon="7.24281">
        <ele>496.79998779297</ele>
        <time>2020-02-22T08:32:11.000Z</time>
      </trkpt>
      <trkpt lat="43.78721" lon="7.24281">
        <ele>497</ele>
        <time>2020-02-22T08:32:12.000Z</time>
      </trkpt>
      <trkpt lat="43.78698" lon="7.24282">
        <ele>498.20001220703</ele>
        <time>2020-02-22T08:32:19.000Z</time>
      </trkpt>
      <trkpt lat="43.78689" lon="7.24284">
        <ele>498.79998779297</ele>
        <time>2020-02-22T08:32:22.000Z</time>
      </trkpt>
      <trkpt lat="43.78679" lon="7.24287">
        <ele>499.39999389648</ele>
        <time>2020-02-22T08:32:25.000Z</time>
      </trkpt>
      <trkpt lat="43.78658" lon="7.24297">
        <ele>500.39999389648</ele>
        <time>2020-02-22T08:32:32.000Z</time>
      </trkpt>
      <trkpt lat="43.78639" lon="7.24308">
        <ele>501.39999389648</ele>
        <time>2020-02-22T08:32:38.000Z</time>
      </trkpt>
      <trkpt lat="43.7863" lon="7.24313">
        <ele>502</ele>
        <time>2020-02-22T08:32:41.000Z</time>
      </trkpt>
      <trkpt lat="43.78618" lon="7.24319">
        <ele>502.60000610352</ele>
        <time>2020-02-22T08:32:45.000Z</time>
      </trkpt>
      <trkpt lat="43.78602" lon="7.24327">
        <ele>503.39999389648</ele>
        <time>2020-02-22T08:32:50.000Z</time>
      </trkpt>
      <trkpt lat="43.78596" lon="7.24329">
        <ele>503.60000610352</ele>
        <time>2020-02-22T08:32:52.000Z</time>
      </trkpt>
      <trkpt lat="43.78588" lon="7.24328">
        <ele>504.20001220703</ele>
        <time>2020-02-22T08:32:55.000Z</time>
      </trkpt>
      <trkpt lat="43.78575" lon="7.24319">
        <ele>504.60000610352</ele>
        <time>2020-02-22T08:32:59.000Z</time>
      </trkpt>
      <trkpt lat="43.78572" lon="7.24316">
        <ele>504.60000610352</ele>
        <time>2020-02-22T08:33:00.000Z</time>
      </trkpt>
      <trkpt lat="43.78549" lon="7.24292">
        <ele>505.60000610352</ele>
        <time>2020-02-22T08:33:08.000Z</time>
      </trkpt>
      <trkpt lat="43.78528" lon="7.24289">
        <ele>506.39999389648</ele>
        <time>2020-02-22T08:33:14.000Z</time>
      </trkpt>
      <trkpt lat="43.78522" lon="7.24291">
        <ele>506.79998779297</ele>
        <time>2020-02-22T08:33:16.000Z</time>
      </trkpt>
      <trkpt lat="43.78509" lon="7.24298">
        <ele>507.60000610352</ele>
        <time>2020-02-22T08:33:20.000Z</time>
      </trkpt>
      <trkpt lat="43.785" lon="7.24302">
        <ele>508</ele>
        <time>2020-02-22T08:33:23.000Z</time>
      </trkpt>
      <trkpt lat="43.78489" lon="7.24309">
        <ele>508.39999389648</ele>
        <time>2020-02-22T08:33:27.000Z</time>
      </trkpt>
      <trkpt lat="43.78477" lon="7.24315">
        <ele>509</ele>
        <time>2020-02-22T08:33:31.000Z</time>
      </trkpt>
      <trkpt lat="43.78471" lon="7.24318">
        <ele>509.20001220703</ele>
        <time>2020-02-22T08:33:33.000Z</time>
      </trkpt>
      <trkpt lat="43.78453" lon="7.24328">
        <ele>510</ele>
        <time>2020-02-22T08:33:39.000Z</time>
      </trkpt>
      <trkpt lat="43.78446" lon="7.24331">
        <ele>510.20001220703</ele>
        <time>2020-02-22T08:33:41.000Z</time>
      </trkpt>
      <trkpt lat="43.78431" lon="7.24338">
        <ele>510.79998779297</ele>
        <time>2020-02-22T08:33:47.000Z</time>
      </trkpt>
      <trkpt lat="43.78424" lon="7.24343">
        <ele>510.79998779297</ele>
        <time>2020-02-22T08:33:53.000Z</time>
      </trkpt>
      <trkpt lat="43.78424" lon="7.24343">
        <ele>511</ele>
        <time>2020-02-22T08:33:58.000Z</time>
      </trkpt>
      <trkpt lat="43.78423" lon="7.24343">
        <ele>511</ele>
        <time>2020-02-22T08:34:03.000Z</time>
      </trkpt>
      <trkpt lat="43.78423" lon="7.24344">
        <ele>511.20001220703</ele>
        <time>2020-02-22T08:34:11.000Z</time>
      </trkpt>
      <trkpt lat="43.78422" lon="7.24345">
        <ele>511.20001220703</ele>
        <time>2020-02-22T08:34:37.000Z</time>
      </trkpt>
      <trkpt lat="43.78422" lon="7.24346">
        <ele>511.39999389648</ele>
        <time>2020-02-22T08:35:00.000Z</time>
      </trkpt>
      <trkpt lat="43.78423" lon="7.24346">
        <ele>511.39999389648</ele>
        <time>2020-02-22T08:35:17.000Z</time>
      </trkpt>
      <trkpt lat="43.78422" lon="7.24346">
        <ele>511.39999389648</ele>
        <time>2020-02-22T08:35:34.000Z</time>
      </trkpt>
      <trkpt lat="43.78422" lon="7.24345">
        <ele>511.39999389648</ele>
        <time>2020-02-22T08:35:56.000Z</time>
      </trkpt>
      <trkpt lat="43.78422" lon="7.24346">
        <ele>511.39999389648</ele>
        <time>2020-02-22T08:36:24.000Z</time>
      </trkpt>
      <trkpt lat="43.78422" lon="7.24345">
        <ele>511.39999389648</ele>
        <time>2020-02-22T08:36:52.000Z</time>
      </trkpt>
      <trkpt lat="43.78422" lon="7.24347">
        <ele>511.39999389648</ele>
        <time>2020-02-22T08:37:15.000Z</time>
      </trkpt>
      <trkpt lat="43.78422" lon="7.24348">
        <ele>511.39999389648</ele>
        <time>2020-02-22T08:37:17.000Z</time>
      </trkpt>
      <trkpt lat="43.78423" lon="7.24354">
        <ele>511.39999389648</ele>
        <time>2020-02-22T08:37:20.000Z</time>
      </trkpt>
      <trkpt lat="43.78428" lon="7.24359">
        <ele>511.20001220703</ele>
        <time>2020-02-22T08:37:23.000Z</time>
      </trkpt>
      <trkpt lat="43.78431" lon="7.2436">
        <ele>511.20001220703</ele>
        <time>2020-02-22T08:37:24.000Z</time>
      </trkpt>
      <trkpt lat="43.78449" lon="7.24367">
        <ele>511.60000610352</ele>
        <time>2020-02-22T08:37:30.000Z</time>
      </trkpt>
      <trkpt lat="43.78455" lon="7.2437">
        <ele>512.20001220703</ele>
        <time>2020-02-22T08:37:32.000Z</time>
      </trkpt>
      <trkpt lat="43.78468" lon="7.24377">
        <ele>512.79998779297</ele>
        <time>2020-02-22T08:37:36.000Z</time>
      </trkpt>
      <trkpt lat="43.78478" lon="7.24382">
        <ele>513.20001220703</ele>
        <time>2020-02-22T08:37:40.000Z</time>
      </trkpt>
      <trkpt lat="43.78483" lon="7.24386">
        <ele>513.59997558594</ele>
        <time>2020-02-22T08:37:42.000Z</time>
      </trkpt>
      <trkpt lat="43.7849" lon="7.2439">
        <ele>514.20001220703</ele>
        <time>2020-02-22T08:37:45.000Z</time>
      </trkpt>
      <trkpt lat="43.78492" lon="7.24391">
        <ele>514.40002441406</ele>
        <time>2020-02-22T08:37:46.000Z</time>
      </trkpt>
      <trkpt lat="43.78498" lon="7.24395">
        <ele>515.40002441406</ele>
        <time>2020-02-22T08:37:49.000Z</time>
      </trkpt>
      <trkpt lat="43.78503" lon="7.24398">
        <ele>516</ele>
        <time>2020-02-22T08:37:52.000Z</time>
      </trkpt>
      <trkpt lat="43.78507" lon="7.244">
        <ele>516.59997558594</ele>
        <time>2020-02-22T08:37:54.000Z</time>
      </trkpt>
      <trkpt lat="43.78513" lon="7.24404">
        <ele>517.40002441406</ele>
        <time>2020-02-22T08:37:57.000Z</time>
      </trkpt>
      <trkpt lat="43.78515" lon="7.24405">
        <ele>517.79998779297</ele>
        <time>2020-02-22T08:37:58.000Z</time>
      </trkpt>
      <trkpt lat="43.78525" lon="7.24412">
        <ele>518.79998779297</ele>
        <time>2020-02-22T08:38:03.000Z</time>
      </trkpt>
      <trkpt lat="43.78526" lon="7.24413">
        <ele>519</ele>
        <time>2020-02-22T08:38:04.000Z</time>
      </trkpt>
      <trkpt lat="43.78533" lon="7.24419">
        <ele>520</ele>
        <time>2020-02-22T08:38:10.000Z</time>
      </trkpt>
      <trkpt lat="43.78538" lon="7.24421">
        <ele>520.20001220703</ele>
        <time>2020-02-22T08:38:12.000Z</time>
      </trkpt>
      <trkpt lat="43.78549" lon="7.24426">
        <ele>521.20001220703</ele>
        <time>2020-02-22T08:38:17.000Z</time>
      </trkpt>
      <trkpt lat="43.78553" lon="7.24427">
        <ele>521.59997558594</ele>
        <time>2020-02-22T08:38:19.000Z</time>
      </trkpt>
      <trkpt lat="43.78558" lon="7.24428">
        <ele>522.20001220703</ele>
        <time>2020-02-22T08:38:21.000Z</time>
      </trkpt>
      <trkpt lat="43.78568" lon="7.24429">
        <ele>523.40002441406</ele>
        <time>2020-02-22T08:38:25.000Z</time>
      </trkpt>
      <trkpt lat="43.7857" lon="7.2443">
        <ele>523.79998779297</ele>
        <time>2020-02-22T08:38:26.000Z</time>
      </trkpt>
      <trkpt lat="43.78574" lon="7.2443">
        <ele>524.40002441406</ele>
        <time>2020-02-22T08:38:28.000Z</time>
      </trkpt>
      <trkpt lat="43.78582" lon="7.24433">
        <ele>525.59997558594</ele>
        <time>2020-02-22T08:38:32.000Z</time>
      </trkpt>
      <trkpt lat="43.78589" lon="7.24435">
        <ele>526.79998779297</ele>
        <time>2020-02-22T08:38:36.000Z</time>
      </trkpt>
      <trkpt lat="43.78593" lon="7.24435">
        <ele>527.40002441406</ele>
        <time>2020-02-22T08:38:38.000Z</time>
      </trkpt>
      <trkpt lat="43.78597" lon="7.24435">
        <ele>527.79998779297</ele>
        <time>2020-02-22T08:38:40.000Z</time>
      </trkpt>
      <trkpt lat="43.78606" lon="7.24432">
        <ele>529</ele>
        <time>2020-02-22T08:38:44.000Z</time>
      </trkpt>
      <trkpt lat="43.78615" lon="7.24428">
        <ele>530.20001220703</ele>
        <time>2020-02-22T08:38:48.000Z</time>
      </trkpt>
      <trkpt lat="43.78622" lon="7.24423">
        <ele>531.40002441406</ele>
        <time>2020-02-22T08:38:52.000Z</time>
      </trkpt>
      <trkpt lat="43.78629" lon="7.24418">
        <ele>532.40002441406</ele>
        <time>2020-02-22T08:38:56.000Z</time>
      </trkpt>
      <trkpt lat="43.78638" lon="7.24412">
        <ele>533.59997558594</ele>
        <time>2020-02-22T08:39:01.000Z</time>
      </trkpt>
      <trkpt lat="43.7864" lon="7.24411">
        <ele>533.79998779297</ele>
        <time>2020-02-22T08:39:02.000Z</time>
      </trkpt>
      <trkpt lat="43.78645" lon="7.24408">
        <ele>534.59997558594</ele>
        <time>2020-02-22T08:39:05.000Z</time>
      </trkpt>
      <trkpt lat="43.78655" lon="7.24408">
        <ele>535.40002441406</ele>
        <time>2020-02-22T08:39:09.000Z</time>
      </trkpt>
      <trkpt lat="43.78658" lon="7.24409">
        <ele>535.79998779297</ele>
        <time>2020-02-22T08:39:10.000Z</time>
      </trkpt>
      <trkpt lat="43.78665" lon="7.24408">
        <ele>537</ele>
        <time>2020-02-22T08:39:13.000Z</time>
      </trkpt>
      <trkpt lat="43.78667" lon="7.24407">
        <ele>537.59997558594</ele>
        <time>2020-02-22T08:39:14.000Z</time>
      </trkpt>
      <trkpt lat="43.78669" lon="7.24406">
        <ele>538</ele>
        <time>2020-02-22T08:39:15.000Z</time>
      </trkpt>
      <trkpt lat="43.78675" lon="7.24405">
        <ele>539.40002441406</ele>
        <time>2020-02-22T08:39:18.000Z</time>
      </trkpt>
      <trkpt lat="43.78676" lon="7.24405">
        <ele>539.79998779297</ele>
        <time>2020-02-22T08:39:19.000Z</time>
      </trkpt>
      <trkpt lat="43.78681" lon="7.24405">
        <ele>540.59997558594</ele>
        <time>2020-02-22T08:39:21.000Z</time>
      </trkpt>
      <trkpt lat="43.78687" lon="7.24405">
        <ele>541.59997558594</ele>
        <time>2020-02-22T08:39:24.000Z</time>
      </trkpt>
      <trkpt lat="43.78692" lon="7.24405">
        <ele>542.20001220703</ele>
        <time>2020-02-22T08:39:26.000Z</time>
      </trkpt>
      <trkpt lat="43.78694" lon="7.24405">
        <ele>542.59997558594</ele>
        <time>2020-02-22T08:39:27.000Z</time>
      </trkpt>
      <trkpt lat="43.78702" lon="7.24404">
        <ele>543.79998779297</ele>
        <time>2020-02-22T08:39:31.000Z</time>
      </trkpt>
      <trkpt lat="43.78707" lon="7.24405">
        <ele>544.59997558594</ele>
        <time>2020-02-22T08:39:34.000Z</time>
      </trkpt>
      <trkpt lat="43.7871" lon="7.24405">
        <ele>544.79998779297</ele>
        <time>2020-02-22T08:39:35.000Z</time>
      </trkpt>
      <trkpt lat="43.78715" lon="7.24408">
        <ele>545.79998779297</ele>
        <time>2020-02-22T08:39:38.000Z</time>
      </trkpt>
      <trkpt lat="43.7872" lon="7.24412">
        <ele>546.79998779297</ele>
        <time>2020-02-22T08:39:41.000Z</time>
      </trkpt>
      <trkpt lat="43.78722" lon="7.24413">
        <ele>547.20001220703</ele>
        <time>2020-02-22T08:39:42.000Z</time>
      </trkpt>
      <trkpt lat="43.78728" lon="7.24418">
        <ele>548.59997558594</ele>
        <time>2020-02-22T08:39:46.000Z</time>
      </trkpt>
      <trkpt lat="43.7873" lon="7.24419">
        <ele>548.79998779297</ele>
        <time>2020-02-22T08:39:47.000Z</time>
      </trkpt>
      <trkpt lat="43.78735" lon="7.24423">
        <ele>549.79998779297</ele>
        <time>2020-02-22T08:39:50.000Z</time>
      </trkpt>
      <trkpt lat="43.7874" lon="7.2443">
        <ele>550.79998779297</ele>
        <time>2020-02-22T08:39:54.000Z</time>
      </trkpt>
      <trkpt lat="43.78742" lon="7.24431">
        <ele>551.20001220703</ele>
        <time>2020-02-22T08:39:55.000Z</time>
      </trkpt>
      <trkpt lat="43.78747" lon="7.24436">
        <ele>552</ele>
        <time>2020-02-22T08:39:58.000Z</time>
      </trkpt>
      <trkpt lat="43.78753" lon="7.24443">
        <ele>553</ele>
        <time>2020-02-22T08:40:02.000Z</time>
      </trkpt>
      <trkpt lat="43.78754" lon="7.24445">
        <ele>553.40002441406</ele>
        <time>2020-02-22T08:40:03.000Z</time>
      </trkpt>
      <trkpt lat="43.78758" lon="7.24451">
        <ele>554.20001220703</ele>
        <time>2020-02-22T08:40:06.000Z</time>
      </trkpt>
      <trkpt lat="43.78761" lon="7.24457">
        <ele>555.20001220703</ele>
        <time>2020-02-22T08:40:09.000Z</time>
      </trkpt>
      <trkpt lat="43.78763" lon="7.24461">
        <ele>555.79998779297</ele>
        <time>2020-02-22T08:40:11.000Z</time>
      </trkpt>
      <trkpt lat="43.78764" lon="7.24466">
        <ele>556.59997558594</ele>
        <time>2020-02-22T08:40:13.000Z</time>
      </trkpt>
      <trkpt lat="43.78767" lon="7.24475">
        <ele>557.79998779297</ele>
        <time>2020-02-22T08:40:17.000Z</time>
      </trkpt>
      <trkpt lat="43.78768" lon="7.24487">
        <ele>559</ele>
        <time>2020-02-22T08:40:22.000Z</time>
      </trkpt>
      <trkpt lat="43.7877" lon="7.24492">
        <ele>559.40002441406</ele>
        <time>2020-02-22T08:40:24.000Z</time>
      </trkpt>
      <trkpt lat="43.78771" lon="7.24499">
        <ele>560</ele>
        <time>2020-02-22T08:40:27.000Z</time>
      </trkpt>
      <trkpt lat="43.78775" lon="7.24507">
        <ele>561.20001220703</ele>
        <time>2020-02-22T08:40:31.000Z</time>
      </trkpt>
      <trkpt lat="43.78783" lon="7.24513">
        <ele>562.20001220703</ele>
        <time>2020-02-22T08:40:36.000Z</time>
      </trkpt>
      <trkpt lat="43.78788" lon="7.24516">
        <ele>562.79998779297</ele>
        <time>2020-02-22T08:40:39.000Z</time>
      </trkpt>
      <trkpt lat="43.78792" lon="7.24519">
        <ele>563.20001220703</ele>
        <time>2020-02-22T08:40:41.000Z</time>
      </trkpt>
      <trkpt lat="43.788" lon="7.24524">
        <ele>564.20001220703</ele>
        <time>2020-02-22T08:40:45.000Z</time>
      </trkpt>
      <trkpt lat="43.78804" lon="7.24526">
        <ele>564.79998779297</ele>
        <time>2020-02-22T08:40:47.000Z</time>
      </trkpt>
      <trkpt lat="43.78808" lon="7.24529">
        <ele>565.59997558594</ele>
        <time>2020-02-22T08:40:49.000Z</time>
      </trkpt>
      <trkpt lat="43.78814" lon="7.24535">
        <ele>567</ele>
        <time>2020-02-22T08:40:52.000Z</time>
      </trkpt>
      <trkpt lat="43.78816" lon="7.24537">
        <ele>567.40002441406</ele>
        <time>2020-02-22T08:40:53.000Z</time>
      </trkpt>
      <trkpt lat="43.78819" lon="7.2454">
        <ele>568.20001220703</ele>
        <time>2020-02-22T08:40:55.000Z</time>
      </trkpt>
      <trkpt lat="43.78822" lon="7.24544">
        <ele>569.59997558594</ele>
        <time>2020-02-22T08:40:58.000Z</time>
      </trkpt>
      <trkpt lat="43.78823" lon="7.24545">
        <ele>570.20001220703</ele>
        <time>2020-02-22T08:40:59.000Z</time>
      </trkpt>
      <trkpt lat="43.78825" lon="7.24546">
        <ele>570.59997558594</ele>
        <time>2020-02-22T08:41:00.000Z</time>
      </trkpt>
      <trkpt lat="43.78828" lon="7.24549">
        <ele>572</ele>
        <time>2020-02-22T08:41:03.000Z</time>
      </trkpt>
      <trkpt lat="43.7883" lon="7.24552">
        <ele>572.59997558594</ele>
        <time>2020-02-22T08:41:05.000Z</time>
      </trkpt>
      <trkpt lat="43.7883" lon="7.24554">
        <ele>573</ele>
        <time>2020-02-22T08:41:06.000Z</time>
      </trkpt>
      <trkpt lat="43.78835" lon="7.24557">
        <ele>574.20001220703</ele>
        <time>2020-02-22T08:41:10.000Z</time>
      </trkpt>
      <trkpt lat="43.78836" lon="7.24559">
        <ele>574.59997558594</ele>
        <time>2020-02-22T08:41:11.000Z</time>
      </trkpt>
      <trkpt lat="43.78839" lon="7.24563">
        <ele>575.59997558594</ele>
        <time>2020-02-22T08:41:14.000Z</time>
      </trkpt>
      <trkpt lat="43.78839" lon="7.24565">
        <ele>575.79998779297</ele>
        <time>2020-02-22T08:41:15.000Z</time>
      </trkpt>
      <trkpt lat="43.78839" lon="7.24568">
        <ele>576.40002441406</ele>
        <time>2020-02-22T08:41:17.000Z</time>
      </trkpt>
      <trkpt lat="43.7884" lon="7.2457">
        <ele>576.59997558594</ele>
        <time>2020-02-22T08:41:18.000Z</time>
      </trkpt>
      <trkpt lat="43.78841" lon="7.24578">
        <ele>577.79998779297</ele>
        <time>2020-02-22T08:41:23.000Z</time>
      </trkpt>
      <trkpt lat="43.7884" lon="7.24581">
        <ele>578.20001220703</ele>
        <time>2020-02-22T08:41:25.000Z</time>
      </trkpt>
      <trkpt lat="43.78837" lon="7.24585">
        <ele>578.79998779297</ele>
        <time>2020-02-22T08:41:28.000Z</time>
      </trkpt>
      <trkpt lat="43.78835" lon="7.24588">
        <ele>579.20001220703</ele>
        <time>2020-02-22T08:41:30.000Z</time>
      </trkpt>
      <trkpt lat="43.7883" lon="7.2459">
        <ele>579.79998779297</ele>
        <time>2020-02-22T08:41:34.000Z</time>
      </trkpt>
      <trkpt lat="43.78827" lon="7.2459">
        <ele>580.20001220703</ele>
        <time>2020-02-22T08:41:36.000Z</time>
      </trkpt>
      <trkpt lat="43.78821" lon="7.24592">
        <ele>581</ele>
        <time>2020-02-22T08:41:40.000Z</time>
      </trkpt>
      <trkpt lat="43.7882" lon="7.24592">
        <ele>581</ele>
        <time>2020-02-22T08:41:41.000Z</time>
      </trkpt>
      <trkpt lat="43.78816" lon="7.24594">
        <ele>581</ele>
        <time>2020-02-22T08:41:43.000Z</time>
      </trkpt>
      <trkpt lat="43.78812" lon="7.24599">
        <ele>581.20001220703</ele>
        <time>2020-02-22T08:41:46.000Z</time>
      </trkpt>
      <trkpt lat="43.78814" lon="7.24612">
        <ele>581.20001220703</ele>
        <time>2020-02-22T08:41:51.000Z</time>
      </trkpt>
      <trkpt lat="43.78823" lon="7.24627">
        <ele>581.79998779297</ele>
        <time>2020-02-22T08:41:58.000Z</time>
      </trkpt>
      <trkpt lat="43.78827" lon="7.2463">
        <ele>582.20001220703</ele>
        <time>2020-02-22T08:42:00.000Z</time>
      </trkpt>
      <trkpt lat="43.78832" lon="7.24636">
        <ele>583.20001220703</ele>
        <time>2020-02-22T08:42:04.000Z</time>
      </trkpt>
      <trkpt lat="43.78836" lon="7.24639">
        <ele>583.79998779297</ele>
        <time>2020-02-22T08:42:06.000Z</time>
      </trkpt>
      <trkpt lat="43.78839" lon="7.24643">
        <ele>584.40002441406</ele>
        <time>2020-02-22T08:42:09.000Z</time>
      </trkpt>
      <trkpt lat="43.78844" lon="7.24647">
        <ele>585</ele>
        <time>2020-02-22T08:42:12.000Z</time>
      </trkpt>
      <trkpt lat="43.78845" lon="7.24648">
        <ele>585.40002441406</ele>
        <time>2020-02-22T08:42:13.000Z</time>
      </trkpt>
      <trkpt lat="43.7885" lon="7.24653">
        <ele>586.40002441406</ele>
        <time>2020-02-22T08:42:17.000Z</time>
      </trkpt>
      <trkpt lat="43.78853" lon="7.24656">
        <ele>587</ele>
        <time>2020-02-22T08:42:19.000Z</time>
      </trkpt>
      <trkpt lat="43.78857" lon="7.24659">
        <ele>587.59997558594</ele>
        <time>2020-02-22T08:42:21.000Z</time>
      </trkpt>
      <trkpt lat="43.78862" lon="7.2466">
        <ele>588.59997558594</ele>
        <time>2020-02-22T08:42:24.000Z</time>
      </trkpt>
      <trkpt lat="43.78871" lon="7.24658">
        <ele>589.79998779297</ele>
        <time>2020-02-22T08:42:29.000Z</time>
      </trkpt>
      <trkpt lat="43.78873" lon="7.24657">
        <ele>590</ele>
        <time>2020-02-22T08:42:30.000Z</time>
      </trkpt>
      <trkpt lat="43.78883" lon="7.24648">
        <ele>590.59997558594</ele>
        <time>2020-02-22T08:42:35.000Z</time>
      </trkpt>
      <trkpt lat="43.78894" lon="7.24641">
        <ele>591</ele>
        <time>2020-02-22T08:42:40.000Z</time>
      </trkpt>
      <trkpt lat="43.789" lon="7.24641">
        <ele>591</ele>
        <time>2020-02-22T08:42:42.000Z</time>
      </trkpt>
      <trkpt lat="43.78913" lon="7.24643">
        <ele>592</ele>
        <time>2020-02-22T08:42:47.000Z</time>
      </trkpt>
      <trkpt lat="43.78921" lon="7.24645">
        <ele>592.59997558594</ele>
        <time>2020-02-22T08:42:50.000Z</time>
      </trkpt>
      <trkpt lat="43.78928" lon="7.24649">
        <ele>593</ele>
        <time>2020-02-22T08:42:53.000Z</time>
      </trkpt>
      <trkpt lat="43.78932" lon="7.24655">
        <ele>593.40002441406</ele>
        <time>2020-02-22T08:42:55.000Z</time>
      </trkpt>
      <trkpt lat="43.78947" lon="7.24679">
        <ele>594.20001220703</ele>
        <time>2020-02-22T08:43:03.000Z</time>
      </trkpt>
      <trkpt lat="43.7896" lon="7.24692">
        <ele>595.40002441406</ele>
        <time>2020-02-22T08:43:09.000Z</time>
      </trkpt>
      <trkpt lat="43.78974" lon="7.24696">
        <ele>596.40002441406</ele>
        <time>2020-02-22T08:43:15.000Z</time>
      </trkpt>
      <trkpt lat="43.78977" lon="7.24695">
        <ele>596.59997558594</ele>
        <time>2020-02-22T08:43:16.000Z</time>
      </trkpt>
      <trkpt lat="43.78988" lon="7.24693">
        <ele>597.59997558594</ele>
        <time>2020-02-22T08:43:20.000Z</time>
      </trkpt>
      <trkpt lat="43.79001" lon="7.24689">
        <ele>598.59997558594</ele>
        <time>2020-02-22T08:43:25.000Z</time>
      </trkpt>
      <trkpt lat="43.79017" lon="7.24684">
        <ele>599.59997558594</ele>
        <time>2020-02-22T08:43:31.000Z</time>
      </trkpt>
      <trkpt lat="43.79029" lon="7.24681">
        <ele>600.20001220703</ele>
        <time>2020-02-22T08:43:35.000Z</time>
      </trkpt>
      <trkpt lat="43.79037" lon="7.24682">
        <ele>600.79998779297</ele>
        <time>2020-02-22T08:43:38.000Z</time>
      </trkpt>
      <trkpt lat="43.79042" lon="7.24684">
        <ele>601.20001220703</ele>
        <time>2020-02-22T08:43:40.000Z</time>
      </trkpt>
      <trkpt lat="43.79051" lon="7.24685">
        <ele>601.79998779297</ele>
        <time>2020-02-22T08:43:43.000Z</time>
      </trkpt>
      <trkpt lat="43.79061" lon="7.24683">
        <ele>602.20001220703</ele>
        <time>2020-02-22T08:43:46.000Z</time>
      </trkpt>
      <trkpt lat="43.79081" lon="7.24679">
        <ele>603</ele>
        <time>2020-02-22T08:43:52.000Z</time>
      </trkpt>
      <trkpt lat="43.79098" lon="7.24673">
        <ele>603.79998779297</ele>
        <time>2020-02-22T08:43:57.000Z</time>
      </trkpt>
      <trkpt lat="43.79105" lon="7.24671">
        <ele>604</ele>
        <time>2020-02-22T08:43:59.000Z</time>
      </trkpt>
      <trkpt lat="43.79124" lon="7.24665">
        <ele>605</ele>
        <time>2020-02-22T08:44:05.000Z</time>
      </trkpt>
      <trkpt lat="43.79128" lon="7.24664">
        <ele>605</ele>
        <time>2020-02-22T08:44:06.000Z</time>
      </trkpt>
      <trkpt lat="43.79158" lon="7.2465">
        <ele>606.20001220703</ele>
        <time>2020-02-22T08:44:15.000Z</time>
      </trkpt>
      <trkpt lat="43.79161" lon="7.24649">
        <ele>606.40002441406</ele>
        <time>2020-02-22T08:44:16.000Z</time>
      </trkpt>
      <trkpt lat="43.79179" lon="7.24642">
        <ele>607.40002441406</ele>
        <time>2020-02-22T08:44:22.000Z</time>
      </trkpt>
      <trkpt lat="43.79194" lon="7.24634">
        <ele>608.59997558594</ele>
        <time>2020-02-22T08:44:27.000Z</time>
      </trkpt>
      <trkpt lat="43.79202" lon="7.24626">
        <ele>609.59997558594</ele>
        <time>2020-02-22T08:44:30.000Z</time>
      </trkpt>
      <trkpt lat="43.79204" lon="7.24623">
        <ele>609.79998779297</ele>
        <time>2020-02-22T08:44:31.000Z</time>
      </trkpt>
      <trkpt lat="43.79211" lon="7.24608">
        <ele>611</ele>
        <time>2020-02-22T08:44:35.000Z</time>
      </trkpt>
      <trkpt lat="43.79213" lon="7.24604">
        <ele>611.20001220703</ele>
        <time>2020-02-22T08:44:36.000Z</time>
      </trkpt>
      <trkpt lat="43.79219" lon="7.24589">
        <ele>612.20001220703</ele>
        <time>2020-02-22T08:44:40.000Z</time>
      </trkpt>
      <trkpt lat="43.79227" lon="7.2457">
        <ele>613.20001220703</ele>
        <time>2020-02-22T08:44:45.000Z</time>
      </trkpt>
      <trkpt lat="43.79229" lon="7.24567">
        <ele>613.40002441406</ele>
        <time>2020-02-22T08:44:46.000Z</time>
      </trkpt>
      <trkpt lat="43.7924" lon="7.24551">
        <ele>614.40002441406</ele>
        <time>2020-02-22T08:44:51.000Z</time>
      </trkpt>
      <trkpt lat="43.79246" lon="7.24543">
        <ele>615</ele>
        <time>2020-02-22T08:44:54.000Z</time>
      </trkpt>
      <trkpt lat="43.79251" lon="7.24538">
        <ele>615.40002441406</ele>
        <time>2020-02-22T08:44:56.000Z</time>
      </trkpt>
      <trkpt lat="43.79264" lon="7.24528">
        <ele>616.59997558594</ele>
        <time>2020-02-22T08:45:01.000Z</time>
      </trkpt>
      <trkpt lat="43.79269" lon="7.24523">
        <ele>617</ele>
        <time>2020-02-22T08:45:03.000Z</time>
      </trkpt>
      <trkpt lat="43.79276" lon="7.24517">
        <ele>617.79998779297</ele>
        <time>2020-02-22T08:45:06.000Z</time>
      </trkpt>
      <trkpt lat="43.79287" lon="7.24504">
        <ele>619</ele>
        <time>2020-02-22T08:45:11.000Z</time>
      </trkpt>
      <trkpt lat="43.79291" lon="7.24498">
        <ele>619.40002441406</ele>
        <time>2020-02-22T08:45:13.000Z</time>
      </trkpt>
      <trkpt lat="43.79298" lon="7.24489">
        <ele>620</ele>
        <time>2020-02-22T08:45:16.000Z</time>
      </trkpt>
      <trkpt lat="43.79308" lon="7.24475">
        <ele>621.20001220703</ele>
        <time>2020-02-22T08:45:21.000Z</time>
      </trkpt>
      <trkpt lat="43.7931" lon="7.24473">
        <ele>621.40002441406</ele>
        <time>2020-02-22T08:45:22.000Z</time>
      </trkpt>
      <trkpt lat="43.7932" lon="7.24465">
        <ele>622.20001220703</ele>
        <time>2020-02-22T08:45:26.000Z</time>
      </trkpt>
      <trkpt lat="43.79328" lon="7.2446">
        <ele>622.79998779297</ele>
        <time>2020-02-22T08:45:29.000Z</time>
      </trkpt>
      <trkpt lat="43.7933" lon="7.24459">
        <ele>623.20001220703</ele>
        <time>2020-02-22T08:45:30.000Z</time>
      </trkpt>
      <trkpt lat="43.79344" lon="7.24451">
        <ele>624.40002441406</ele>
        <time>2020-02-22T08:45:35.000Z</time>
      </trkpt>
      <trkpt lat="43.79354" lon="7.24444">
        <ele>625.79998779297</ele>
        <time>2020-02-22T08:45:39.000Z</time>
      </trkpt>
      <trkpt lat="43.79361" lon="7.24439">
        <ele>626.79998779297</ele>
        <time>2020-02-22T08:45:42.000Z</time>
      </trkpt>
      <trkpt lat="43.79366" lon="7.24436">
        <ele>627.40002441406</ele>
        <time>2020-02-22T08:45:44.000Z</time>
      </trkpt>
      <trkpt lat="43.79369" lon="7.24434">
        <ele>627.79998779297</ele>
        <time>2020-02-22T08:45:45.000Z</time>
      </trkpt>
      <trkpt lat="43.79384" lon="7.24423">
        <ele>628.79998779297</ele>
        <time>2020-02-22T08:45:51.000Z</time>
      </trkpt>
      <trkpt lat="43.79387" lon="7.24422">
        <ele>629</ele>
        <time>2020-02-22T08:45:52.000Z</time>
      </trkpt>
      <trkpt lat="43.79399" lon="7.24412">
        <ele>630</ele>
        <time>2020-02-22T08:45:57.000Z</time>
      </trkpt>
      <trkpt lat="43.79409" lon="7.24405">
        <ele>631</ele>
        <time>2020-02-22T08:46:01.000Z</time>
      </trkpt>
      <trkpt lat="43.79412" lon="7.24403">
        <ele>631.20001220703</ele>
        <time>2020-02-22T08:46:02.000Z</time>
      </trkpt>
      <trkpt lat="43.79424" lon="7.24392">
        <ele>632.20001220703</ele>
        <time>2020-02-22T08:46:07.000Z</time>
      </trkpt>
      <trkpt lat="43.79431" lon="7.24384">
        <ele>633</ele>
        <time>2020-02-22T08:46:10.000Z</time>
      </trkpt>
      <trkpt lat="43.79436" lon="7.24379">
        <ele>633.40002441406</ele>
        <time>2020-02-22T08:46:12.000Z</time>
      </trkpt>
      <trkpt lat="43.79448" lon="7.24367">
        <ele>634.59997558594</ele>
        <time>2020-02-22T08:46:17.000Z</time>
      </trkpt>
      <trkpt lat="43.79451" lon="7.24365">
        <ele>635</ele>
        <time>2020-02-22T08:46:18.000Z</time>
      </trkpt>
      <trkpt lat="43.79458" lon="7.24358">
        <ele>635.79998779297</ele>
        <time>2020-02-22T08:46:21.000Z</time>
      </trkpt>
      <trkpt lat="43.79471" lon="7.24346">
        <ele>636.59997558594</ele>
        <time>2020-02-22T08:46:26.000Z</time>
      </trkpt>
      <trkpt lat="43.79473" lon="7.24343">
        <ele>636.79998779297</ele>
        <time>2020-02-22T08:46:27.000Z</time>
      </trkpt>
      <trkpt lat="43.7948" lon="7.24336">
        <ele>638</ele>
        <time>2020-02-22T08:46:30.000Z</time>
      </trkpt>
      <trkpt lat="43.79489" lon="7.24325">
        <ele>638.79998779297</ele>
        <time>2020-02-22T08:46:34.000Z</time>
      </trkpt>
      <trkpt lat="43.79492" lon="7.24322">
        <ele>639</ele>
        <time>2020-02-22T08:46:35.000Z</time>
      </trkpt>
      <trkpt lat="43.79503" lon="7.24307">
        <ele>640.20001220703</ele>
        <time>2020-02-22T08:46:40.000Z</time>
      </trkpt>
      <trkpt lat="43.79508" lon="7.24301">
        <ele>640.79998779297</ele>
        <time>2020-02-22T08:46:42.000Z</time>
      </trkpt>
      <trkpt lat="43.79513" lon="7.24296">
        <ele>641.20001220703</ele>
        <time>2020-02-22T08:46:44.000Z</time>
      </trkpt>
      <trkpt lat="43.79522" lon="7.24284">
        <ele>642.20001220703</ele>
        <time>2020-02-22T08:46:48.000Z</time>
      </trkpt>
      <trkpt lat="43.79524" lon="7.24282">
        <ele>642.40002441406</ele>
        <time>2020-02-22T08:46:49.000Z</time>
      </trkpt>
      <trkpt lat="43.79534" lon="7.24267">
        <ele>643.40002441406</ele>
        <time>2020-02-22T08:46:54.000Z</time>
      </trkpt>
      <trkpt lat="43.79536" lon="7.24264">
        <ele>643.59997558594</ele>
        <time>2020-02-22T08:46:55.000Z</time>
      </trkpt>
      <trkpt lat="43.79549" lon="7.24245">
        <ele>644.59997558594</ele>
        <time>2020-02-22T08:47:01.000Z</time>
      </trkpt>
      <trkpt lat="43.79551" lon="7.24242">
        <ele>644.59997558594</ele>
        <time>2020-02-22T08:47:02.000Z</time>
      </trkpt>
      <trkpt lat="43.79559" lon="7.24221">
        <ele>645.59997558594</ele>
        <time>2020-02-22T08:47:08.000Z</time>
      </trkpt>
      <trkpt lat="43.79561" lon="7.24214">
        <ele>645.79998779297</ele>
        <time>2020-02-22T08:47:10.000Z</time>
      </trkpt>
      <trkpt lat="43.79568" lon="7.24195">
        <ele>646.79998779297</ele>
        <time>2020-02-22T08:47:15.000Z</time>
      </trkpt>
      <trkpt lat="43.79572" lon="7.24184">
        <ele>647.40002441406</ele>
        <time>2020-02-22T08:47:18.000Z</time>
      </trkpt>
      <trkpt lat="43.79576" lon="7.24173">
        <ele>648</ele>
        <time>2020-02-22T08:47:21.000Z</time>
      </trkpt>
      <trkpt lat="43.79582" lon="7.24161">
        <ele>649</ele>
        <time>2020-02-22T08:47:25.000Z</time>
      </trkpt>
      <trkpt lat="43.79584" lon="7.24159">
        <ele>649.40002441406</ele>
        <time>2020-02-22T08:47:26.000Z</time>
      </trkpt>
      <trkpt lat="43.79588" lon="7.24161">
        <ele>650</ele>
        <time>2020-02-22T08:47:28.000Z</time>
      </trkpt>
      <trkpt lat="43.79587" lon="7.24168">
        <ele>650.79998779297</ele>
        <time>2020-02-22T08:47:31.000Z</time>
      </trkpt>
      <trkpt lat="43.79585" lon="7.24173">
        <ele>651.20001220703</ele>
        <time>2020-02-22T08:47:33.000Z</time>
      </trkpt>
      <trkpt lat="43.79581" lon="7.24186">
        <ele>652.20001220703</ele>
        <time>2020-02-22T08:47:38.000Z</time>
      </trkpt>
      <trkpt lat="43.79579" lon="7.24198">
        <ele>653.20001220703</ele>
        <time>2020-02-22T08:47:42.000Z</time>
      </trkpt>
      <trkpt lat="43.79577" lon="7.24211">
        <ele>654.40002441406</ele>
        <time>2020-02-22T08:47:46.000Z</time>
      </trkpt>
      <trkpt lat="43.79575" lon="7.24224">
        <ele>655.59997558594</ele>
        <time>2020-02-22T08:47:50.000Z</time>
      </trkpt>
      <trkpt lat="43.79574" lon="7.24237">
        <ele>656.40002441406</ele>
        <time>2020-02-22T08:47:54.000Z</time>
      </trkpt>
      <trkpt lat="43.79573" lon="7.24241">
        <ele>656.79998779297</ele>
        <time>2020-02-22T08:47:55.000Z</time>
      </trkpt>
      <trkpt lat="43.79571" lon="7.24255">
        <ele>658</ele>
        <time>2020-02-22T08:47:59.000Z</time>
      </trkpt>
      <trkpt lat="43.79569" lon="7.24265">
        <ele>658.40002441406</ele>
        <time>2020-02-22T08:48:02.000Z</time>
      </trkpt>
      <trkpt lat="43.79566" lon="7.24275">
        <ele>659</ele>
        <time>2020-02-22T08:48:05.000Z</time>
      </trkpt>
      <trkpt lat="43.79561" lon="7.24287">
        <ele>660</ele>
        <time>2020-02-22T08:48:09.000Z</time>
      </trkpt>
      <trkpt lat="43.79559" lon="7.2429">
        <ele>660.20001220703</ele>
        <time>2020-02-22T08:48:10.000Z</time>
      </trkpt>
      <trkpt lat="43.79553" lon="7.24303">
        <ele>661</ele>
        <time>2020-02-22T08:48:14.000Z</time>
      </trkpt>
      <trkpt lat="43.79546" lon="7.24318">
        <ele>662.20001220703</ele>
        <time>2020-02-22T08:48:19.000Z</time>
      </trkpt>
      <trkpt lat="43.79536" lon="7.24337">
        <ele>663.20001220703</ele>
        <time>2020-02-22T08:48:25.000Z</time>
      </trkpt>
      <trkpt lat="43.79533" lon="7.24343">
        <ele>663.59997558594</ele>
        <time>2020-02-22T08:48:27.000Z</time>
      </trkpt>
      <trkpt lat="43.79526" lon="7.24354">
        <ele>664.20001220703</ele>
        <time>2020-02-22T08:48:31.000Z</time>
      </trkpt>
      <trkpt lat="43.79523" lon="7.2436">
        <ele>664.79998779297</ele>
        <time>2020-02-22T08:48:33.000Z</time>
      </trkpt>
      <trkpt lat="43.79519" lon="7.24366">
        <ele>665.40002441406</ele>
        <time>2020-02-22T08:48:35.000Z</time>
      </trkpt>
      <trkpt lat="43.79511" lon="7.24381">
        <ele>666.40002441406</ele>
        <time>2020-02-22T08:48:40.000Z</time>
      </trkpt>
      <trkpt lat="43.79509" lon="7.24384">
        <ele>666.40002441406</ele>
        <time>2020-02-22T08:48:41.000Z</time>
      </trkpt>
      <trkpt lat="43.79498" lon="7.24402">
        <ele>667.59997558594</ele>
        <time>2020-02-22T08:48:47.000Z</time>
      </trkpt>
      <trkpt lat="43.79493" lon="7.2441">
        <ele>668</ele>
        <time>2020-02-22T08:48:50.000Z</time>
      </trkpt>
      <trkpt lat="43.7949" lon="7.24415">
        <ele>668.59997558594</ele>
        <time>2020-02-22T08:48:52.000Z</time>
      </trkpt>
      <trkpt lat="43.7948" lon="7.24432">
        <ele>669.59997558594</ele>
        <time>2020-02-22T08:48:58.000Z</time>
      </trkpt>
      <trkpt lat="43.7947" lon="7.24445">
        <ele>670.79998779297</ele>
        <time>2020-02-22T08:49:03.000Z</time>
      </trkpt>
      <trkpt lat="43.79463" lon="7.24457">
        <ele>671.20001220703</ele>
        <time>2020-02-22T08:49:07.000Z</time>
      </trkpt>
      <trkpt lat="43.79452" lon="7.2447">
        <ele>671.79998779297</ele>
        <time>2020-02-22T08:49:12.000Z</time>
      </trkpt>
      <trkpt lat="43.79445" lon="7.24476">
        <ele>672.40002441406</ele>
        <time>2020-02-22T08:49:15.000Z</time>
      </trkpt>
      <trkpt lat="43.79438" lon="7.24484">
        <ele>673</ele>
        <time>2020-02-22T08:49:18.000Z</time>
      </trkpt>
      <trkpt lat="43.79427" lon="7.24496">
        <ele>674</ele>
        <time>2020-02-22T08:49:23.000Z</time>
      </trkpt>
      <trkpt lat="43.79425" lon="7.24498">
        <ele>674.20001220703</ele>
        <time>2020-02-22T08:49:24.000Z</time>
      </trkpt>
      <trkpt lat="43.79416" lon="7.24511">
        <ele>675.20001220703</ele>
        <time>2020-02-22T08:49:29.000Z</time>
      </trkpt>
      <trkpt lat="43.79408" lon="7.24521">
        <ele>676.40002441406</ele>
        <time>2020-02-22T08:49:33.000Z</time>
      </trkpt>
      <trkpt lat="43.79398" lon="7.24534">
        <ele>677.40002441406</ele>
        <time>2020-02-22T08:49:38.000Z</time>
      </trkpt>
      <trkpt lat="43.79392" lon="7.24541">
        <ele>678.20001220703</ele>
        <time>2020-02-22T08:49:41.000Z</time>
      </trkpt>
      <trkpt lat="43.79388" lon="7.24547">
        <ele>678.59997558594</ele>
        <time>2020-02-22T08:49:43.000Z</time>
      </trkpt>
      <trkpt lat="43.79379" lon="7.24561">
        <ele>679.79998779297</ele>
        <time>2020-02-22T08:49:48.000Z</time>
      </trkpt>
      <trkpt lat="43.79378" lon="7.24563">
        <ele>680.20001220703</ele>
        <time>2020-02-22T08:49:49.000Z</time>
      </trkpt>
      <trkpt lat="43.79373" lon="7.24572">
        <ele>680.79998779297</ele>
        <time>2020-02-22T08:49:52.000Z</time>
      </trkpt>
      <trkpt lat="43.79366" lon="7.24588">
        <ele>682.20001220703</ele>
        <time>2020-02-22T08:49:57.000Z</time>
      </trkpt>
      <trkpt lat="43.7936" lon="7.24605">
        <ele>683.20001220703</ele>
        <time>2020-02-22T08:50:02.000Z</time>
      </trkpt>
      <trkpt lat="43.79357" lon="7.24615">
        <ele>684</ele>
        <time>2020-02-22T08:50:05.000Z</time>
      </trkpt>
      <trkpt lat="43.79356" lon="7.24618">
        <ele>684.40002441406</ele>
        <time>2020-02-22T08:50:06.000Z</time>
      </trkpt>
      <trkpt lat="43.7935" lon="7.24637">
        <ele>685.40002441406</ele>
        <time>2020-02-22T08:50:11.000Z</time>
      </trkpt>
      <trkpt lat="43.79346" lon="7.24647">
        <ele>686</ele>
        <time>2020-02-22T08:50:14.000Z</time>
      </trkpt>
      <trkpt lat="43.79344" lon="7.24654">
        <ele>686.40002441406</ele>
        <time>2020-02-22T08:50:16.000Z</time>
      </trkpt>
      <trkpt lat="43.79338" lon="7.24672">
        <ele>687.59997558594</ele>
        <time>2020-02-22T08:50:21.000Z</time>
      </trkpt>
      <trkpt lat="43.79336" lon="7.24679">
        <ele>687.79998779297</ele>
        <time>2020-02-22T08:50:23.000Z</time>
      </trkpt>
      <trkpt lat="43.79332" lon="7.24694">
        <ele>688.59997558594</ele>
        <time>2020-02-22T08:50:27.000Z</time>
      </trkpt>
      <trkpt lat="43.79329" lon="7.24709">
        <ele>689.40002441406</ele>
        <time>2020-02-22T08:50:31.000Z</time>
      </trkpt>
      <trkpt lat="43.79328" lon="7.24716">
        <ele>689.59997558594</ele>
        <time>2020-02-22T08:50:33.000Z</time>
      </trkpt>
      <trkpt lat="43.79324" lon="7.24743">
        <ele>690.59997558594</ele>
        <time>2020-02-22T08:50:40.000Z</time>
      </trkpt>
      <trkpt lat="43.79324" lon="7.24747">
        <ele>690.79998779297</ele>
        <time>2020-02-22T08:50:41.000Z</time>
      </trkpt>
      <trkpt lat="43.79325" lon="7.24765">
        <ele>691.59997558594</ele>
        <time>2020-02-22T08:50:46.000Z</time>
      </trkpt>
      <trkpt lat="43.79325" lon="7.24769">
        <ele>691.79998779297</ele>
        <time>2020-02-22T08:50:47.000Z</time>
      </trkpt>
      <trkpt lat="43.79333" lon="7.24783">
        <ele>692.40002441406</ele>
        <time>2020-02-22T08:50:53.000Z</time>
      </trkpt>
      <trkpt lat="43.79336" lon="7.24777">
        <ele>693</ele>
        <time>2020-02-22T08:50:56.000Z</time>
      </trkpt>
      <trkpt lat="43.79334" lon="7.24766">
        <ele>693.59997558594</ele>
        <time>2020-02-22T08:50:59.000Z</time>
      </trkpt>
      <trkpt lat="43.79334" lon="7.24758">
        <ele>694</ele>
        <time>2020-02-22T08:51:01.000Z</time>
      </trkpt>
      <trkpt lat="43.79336" lon="7.24744">
        <ele>695.20001220703</ele>
        <time>2020-02-22T08:51:05.000Z</time>
      </trkpt>
      <trkpt lat="43.7934" lon="7.24729">
        <ele>695.79998779297</ele>
        <time>2020-02-22T08:51:09.000Z</time>
      </trkpt>
      <trkpt lat="43.79344" lon="7.24716">
        <ele>696.20001220703</ele>
        <time>2020-02-22T08:51:12.000Z</time>
      </trkpt>
      <trkpt lat="43.79351" lon="7.24695">
        <ele>696.79998779297</ele>
        <time>2020-02-22T08:51:17.000Z</time>
      </trkpt>
      <trkpt lat="43.79355" lon="7.24682">
        <ele>697.20001220703</ele>
        <time>2020-02-22T08:51:20.000Z</time>
      </trkpt>
      <trkpt lat="43.7936" lon="7.24667">
        <ele>697.40002441406</ele>
        <time>2020-02-22T08:51:24.000Z</time>
      </trkpt>
      <trkpt lat="43.79374" lon="7.24636">
        <ele>698</ele>
        <time>2020-02-22T08:51:31.000Z</time>
      </trkpt>
      <trkpt lat="43.7938" lon="7.24625">
        <ele>698.40002441406</ele>
        <time>2020-02-22T08:51:34.000Z</time>
      </trkpt>
      <trkpt lat="43.79388" lon="7.24611">
        <ele>699</ele>
        <time>2020-02-22T08:51:38.000Z</time>
      </trkpt>
      <trkpt lat="43.79396" lon="7.246">
        <ele>699.40002441406</ele>
        <time>2020-02-22T08:51:41.000Z</time>
      </trkpt>
      <trkpt lat="43.79404" lon="7.2459">
        <ele>700.20001220703</ele>
        <time>2020-02-22T08:51:44.000Z</time>
      </trkpt>
      <trkpt lat="43.79406" lon="7.24587">
        <ele>700.40002441406</ele>
        <time>2020-02-22T08:51:45.000Z</time>
      </trkpt>
      <trkpt lat="43.7942" lon="7.24572">
        <ele>701.59997558594</ele>
        <time>2020-02-22T08:51:50.000Z</time>
      </trkpt>
      <trkpt lat="43.79429" lon="7.24563">
        <ele>702</ele>
        <time>2020-02-22T08:51:53.000Z</time>
      </trkpt>
      <trkpt lat="43.7944" lon="7.24553">
        <ele>702.59997558594</ele>
        <time>2020-02-22T08:51:57.000Z</time>
      </trkpt>
      <trkpt lat="43.79455" lon="7.24539">
        <ele>703.20001220703</ele>
        <time>2020-02-22T08:52:02.000Z</time>
      </trkpt>
      <trkpt lat="43.79474" lon="7.24523">
        <ele>703.59997558594</ele>
        <time>2020-02-22T08:52:08.000Z</time>
      </trkpt>
      <trkpt lat="43.7948" lon="7.24518">
        <ele>703.79998779297</ele>
        <time>2020-02-22T08:52:10.000Z</time>
      </trkpt>
      <trkpt lat="43.79501" lon="7.24499">
        <ele>704.79998779297</ele>
        <time>2020-02-22T08:52:17.000Z</time>
      </trkpt>
      <trkpt lat="43.79507" lon="7.24493">
        <ele>705</ele>
        <time>2020-02-22T08:52:19.000Z</time>
      </trkpt>
      <trkpt lat="43.79516" lon="7.24485">
        <ele>705.79998779297</ele>
        <time>2020-02-22T08:52:22.000Z</time>
      </trkpt>
      <trkpt lat="43.79527" lon="7.24475">
        <ele>707</ele>
        <time>2020-02-22T08:52:26.000Z</time>
      </trkpt>
      <trkpt lat="43.7953" lon="7.24472">
        <ele>707.20001220703</ele>
        <time>2020-02-22T08:52:27.000Z</time>
      </trkpt>
      <trkpt lat="43.79538" lon="7.24465">
        <ele>708</ele>
        <time>2020-02-22T08:52:30.000Z</time>
      </trkpt>
      <trkpt lat="43.79554" lon="7.24447">
        <ele>709</ele>
        <time>2020-02-22T08:52:36.000Z</time>
      </trkpt>
      <trkpt lat="43.79573" lon="7.24426">
        <ele>710.20001220703</ele>
        <time>2020-02-22T08:52:43.000Z</time>
      </trkpt>
      <trkpt lat="43.79575" lon="7.24423">
        <ele>710.59997558594</ele>
        <time>2020-02-22T08:52:44.000Z</time>
      </trkpt>
      <trkpt lat="43.79588" lon="7.24408">
        <ele>711.40002441406</ele>
        <time>2020-02-22T08:52:49.000Z</time>
      </trkpt>
      <trkpt lat="43.79602" lon="7.24393">
        <ele>712.59997558594</ele>
        <time>2020-02-22T08:52:54.000Z</time>
      </trkpt>
      <trkpt lat="43.79616" lon="7.24377">
        <ele>713.59997558594</ele>
        <time>2020-02-22T08:53:00.000Z</time>
      </trkpt>
      <trkpt lat="43.79623" lon="7.24369">
        <ele>714.59997558594</ele>
        <time>2020-02-22T08:53:03.000Z</time>
      </trkpt>
      <trkpt lat="43.79625" lon="7.24367">
        <ele>714.79998779297</ele>
        <time>2020-02-22T08:53:04.000Z</time>
      </trkpt>
      <trkpt lat="43.79639" lon="7.24353">
        <ele>716.20001220703</ele>
        <time>2020-02-22T08:53:10.000Z</time>
      </trkpt>
      <trkpt lat="43.79642" lon="7.2435">
        <ele>716.40002441406</ele>
        <time>2020-02-22T08:53:11.000Z</time>
      </trkpt>
      <trkpt lat="43.79652" lon="7.24341">
        <ele>717.40002441406</ele>
        <time>2020-02-22T08:53:15.000Z</time>
      </trkpt>
      <trkpt lat="43.79663" lon="7.24327">
        <ele>718.40002441406</ele>
        <time>2020-02-22T08:53:20.000Z</time>
      </trkpt>
      <trkpt lat="43.79665" lon="7.24323">
        <ele>718.59997558594</ele>
        <time>2020-02-22T08:53:21.000Z</time>
      </trkpt>
      <trkpt lat="43.7968" lon="7.24299">
        <ele>719.40002441406</ele>
        <time>2020-02-22T08:53:28.000Z</time>
      </trkpt>
      <trkpt lat="43.79686" lon="7.24286">
        <ele>719.59997558594</ele>
        <time>2020-02-22T08:53:31.000Z</time>
      </trkpt>
      <trkpt lat="43.79698" lon="7.2426">
        <ele>720.40002441406</ele>
        <time>2020-02-22T08:53:37.000Z</time>
      </trkpt>
      <trkpt lat="43.7971" lon="7.24232">
        <ele>720.59997558594</ele>
        <time>2020-02-22T08:53:44.000Z</time>
      </trkpt>
      <trkpt lat="43.79714" lon="7.24224">
        <ele>721</ele>
        <time>2020-02-22T08:53:46.000Z</time>
      </trkpt>
      <trkpt lat="43.7972" lon="7.2421">
        <ele>721.79998779297</ele>
        <time>2020-02-22T08:53:50.000Z</time>
      </trkpt>
      <trkpt lat="43.79728" lon="7.24195">
        <ele>722.59997558594</ele>
        <time>2020-02-22T08:53:55.000Z</time>
      </trkpt>
      <trkpt lat="43.79728" lon="7.24193">
        <ele>722.79998779297</ele>
        <time>2020-02-22T08:53:56.000Z</time>
      </trkpt>
      <trkpt lat="43.7973" lon="7.2418">
        <ele>723</ele>
        <time>2020-02-22T08:53:59.000Z</time>
      </trkpt>
      <trkpt lat="43.79732" lon="7.24168">
        <ele>722.40002441406</ele>
        <time>2020-02-22T08:54:01.000Z</time>
      </trkpt>
      <trkpt lat="43.79736" lon="7.24157">
        <ele>721.59997558594</ele>
        <time>2020-02-22T08:54:03.000Z</time>
      </trkpt>
      <trkpt lat="43.7974" lon="7.24148">
        <ele>720</ele>
        <time>2020-02-22T08:54:05.000Z</time>
      </trkpt>
      <trkpt lat="43.79749" lon="7.24133">
        <ele>719</ele>
        <time>2020-02-22T08:54:08.000Z</time>
      </trkpt>
      <trkpt lat="43.79752" lon="7.24124">
        <ele>719.59997558594</ele>
        <time>2020-02-22T08:54:10.000Z</time>
      </trkpt>
      <trkpt lat="43.79755" lon="7.24114">
        <ele>720.20001220703</ele>
        <time>2020-02-22T08:54:12.000Z</time>
      </trkpt>
      <trkpt lat="43.79759" lon="7.24109">
        <ele>721.40002441406</ele>
        <time>2020-02-22T08:54:14.000Z</time>
      </trkpt>
      <trkpt lat="43.79763" lon="7.24103">
        <ele>722.40002441406</ele>
        <time>2020-02-22T08:54:16.000Z</time>
      </trkpt>
      <trkpt lat="43.79765" lon="7.24101">
        <ele>722.79998779297</ele>
        <time>2020-02-22T08:54:17.000Z</time>
      </trkpt>
      <trkpt lat="43.79769" lon="7.24097">
        <ele>723.59997558594</ele>
        <time>2020-02-22T08:54:19.000Z</time>
      </trkpt>
      <trkpt lat="43.79776" lon="7.24091">
        <ele>724.40002441406</ele>
        <time>2020-02-22T08:54:23.000Z</time>
      </trkpt>
      <trkpt lat="43.79779" lon="7.24089">
        <ele>724.79998779297</ele>
        <time>2020-02-22T08:54:24.000Z</time>
      </trkpt>
      <trkpt lat="43.79787" lon="7.24086">
        <ele>725.79998779297</ele>
        <time>2020-02-22T08:54:28.000Z</time>
      </trkpt>
      <trkpt lat="43.79791" lon="7.24085">
        <ele>726</ele>
        <time>2020-02-22T08:54:30.000Z</time>
      </trkpt>
      <trkpt lat="43.79807" lon="7.2408">
        <ele>726.59997558594</ele>
        <time>2020-02-22T08:54:37.000Z</time>
      </trkpt>
      <trkpt lat="43.7981" lon="7.24081">
        <ele>726.79998779297</ele>
        <time>2020-02-22T08:54:38.000Z</time>
      </trkpt>
      <trkpt lat="43.79825" lon="7.2408">
        <ele>727.59997558594</ele>
        <time>2020-02-22T08:54:44.000Z</time>
      </trkpt>
      <trkpt lat="43.7983" lon="7.2408">
        <ele>728</ele>
        <time>2020-02-22T08:54:46.000Z</time>
      </trkpt>
      <trkpt lat="43.79837" lon="7.24079">
        <ele>729</ele>
        <time>2020-02-22T08:54:49.000Z</time>
      </trkpt>
      <trkpt lat="43.79843" lon="7.24076">
        <ele>730</ele>
        <time>2020-02-22T08:54:52.000Z</time>
      </trkpt>
      <trkpt lat="43.79851" lon="7.24074">
        <ele>730.79998779297</ele>
        <time>2020-02-22T08:54:55.000Z</time>
      </trkpt>
      <trkpt lat="43.79855" lon="7.24073">
        <ele>731.20001220703</ele>
        <time>2020-02-22T08:54:57.000Z</time>
      </trkpt>
      <trkpt lat="43.79869" lon="7.2407">
        <ele>732.20001220703</ele>
        <time>2020-02-22T08:55:03.000Z</time>
      </trkpt>
      <trkpt lat="43.79871" lon="7.2407">
        <ele>732.59997558594</ele>
        <time>2020-02-22T08:55:04.000Z</time>
      </trkpt>
      <trkpt lat="43.79876" lon="7.24072">
        <ele>733.20001220703</ele>
        <time>2020-02-22T08:55:07.000Z</time>
      </trkpt>
      <trkpt lat="43.79878" lon="7.24075">
        <ele>734</ele>
        <time>2020-02-22T08:55:09.000Z</time>
      </trkpt>
      <trkpt lat="43.79879" lon="7.24077">
        <ele>734.40002441406</ele>
        <time>2020-02-22T08:55:10.000Z</time>
      </trkpt>
      <trkpt lat="43.79882" lon="7.24082">
        <ele>735.40002441406</ele>
        <time>2020-02-22T08:55:15.000Z</time>
      </trkpt>
      <trkpt lat="43.79884" lon="7.24083">
        <ele>736.59997558594</ele>
        <time>2020-02-22T08:55:20.000Z</time>
      </trkpt>
      <trkpt lat="43.79884" lon="7.24083">
        <ele>736.79998779297</ele>
        <time>2020-02-22T08:55:21.000Z</time>
      </trkpt>
      <trkpt lat="43.79885" lon="7.24083">
        <ele>737</ele>
        <time>2020-02-22T08:55:25.000Z</time>
      </trkpt>
      <trkpt lat="43.79887" lon="7.24084">
        <ele>737</ele>
        <time>2020-02-22T08:55:27.000Z</time>
      </trkpt>
      <trkpt lat="43.79895" lon="7.2409">
        <ele>737.79998779297</ele>
        <time>2020-02-22T08:55:32.000Z</time>
      </trkpt>
      <trkpt lat="43.79895" lon="7.2409">
        <ele>738.79998779297</ele>
        <time>2020-02-22T08:55:34.000Z</time>
      </trkpt>
      <trkpt lat="43.79895" lon="7.24092">
        <ele>739.40002441406</ele>
        <time>2020-02-22T08:55:36.000Z</time>
      </trkpt>
      <trkpt lat="43.79896" lon="7.24093">
        <ele>739.79998779297</ele>
        <time>2020-02-22T08:55:38.000Z</time>
      </trkpt>
      <trkpt lat="43.79896" lon="7.24094">
        <ele>739.79998779297</ele>
        <time>2020-02-22T08:55:39.000Z</time>
      </trkpt>
      <trkpt lat="43.79899" lon="7.24095">
        <ele>740</ele>
        <time>2020-02-22T08:55:41.000Z</time>
      </trkpt>
      <trkpt lat="43.79901" lon="7.24094">
        <ele>740.20001220703</ele>
        <time>2020-02-22T08:55:44.000Z</time>
      </trkpt>
      <trkpt lat="43.79908" lon="7.24093">
        <ele>740.40002441406</ele>
        <time>2020-02-22T08:55:48.000Z</time>
      </trkpt>
      <trkpt lat="43.7991" lon="7.24094">
        <ele>740.40002441406</ele>
        <time>2020-02-22T08:55:49.000Z</time>
      </trkpt>
      <trkpt lat="43.79917" lon="7.241">
        <ele>740.79998779297</ele>
        <time>2020-02-22T08:55:54.000Z</time>
      </trkpt>
      <trkpt lat="43.79918" lon="7.24103">
        <ele>741</ele>
        <time>2020-02-22T08:55:55.000Z</time>
      </trkpt>
      <trkpt lat="43.79924" lon="7.24111">
        <ele>742</ele>
        <time>2020-02-22T08:56:00.000Z</time>
      </trkpt>
      <trkpt lat="43.79925" lon="7.24112">
        <ele>742.20001220703</ele>
        <time>2020-02-22T08:56:01.000Z</time>
      </trkpt>
      <trkpt lat="43.79933" lon="7.2412">
        <ele>743</ele>
        <time>2020-02-22T08:56:06.000Z</time>
      </trkpt>
      <trkpt lat="43.79935" lon="7.24123">
        <ele>743.20001220703</ele>
        <time>2020-02-22T08:56:07.000Z</time>
      </trkpt>
      <trkpt lat="43.79941" lon="7.24133">
        <ele>744.40002441406</ele>
        <time>2020-02-22T08:56:12.000Z</time>
      </trkpt>
      <trkpt lat="43.79945" lon="7.24144">
        <ele>745.59997558594</ele>
        <time>2020-02-22T08:56:16.000Z</time>
      </trkpt>
      <trkpt lat="43.79948" lon="7.24152">
        <ele>746.79998779297</ele>
        <time>2020-02-22T08:56:19.000Z</time>
      </trkpt>
      <trkpt lat="43.79951" lon="7.2416">
        <ele>748</ele>
        <time>2020-02-22T08:56:22.000Z</time>
      </trkpt>
      <trkpt lat="43.79954" lon="7.24169">
        <ele>749.40002441406</ele>
        <time>2020-02-22T08:56:25.000Z</time>
      </trkpt>
      <trkpt lat="43.79954" lon="7.24172">
        <ele>749.79998779297</ele>
        <time>2020-02-22T08:56:26.000Z</time>
      </trkpt>
      <trkpt lat="43.79956" lon="7.24176">
        <ele>750.40002441406</ele>
        <time>2020-02-22T08:56:28.000Z</time>
      </trkpt>
      <trkpt lat="43.79957" lon="7.24181">
        <ele>751.59997558594</ele>
        <time>2020-02-22T08:56:30.000Z</time>
      </trkpt>
      <trkpt lat="43.79959" lon="7.24188">
        <ele>753</ele>
        <time>2020-02-22T08:56:33.000Z</time>
      </trkpt>
      <trkpt lat="43.79961" lon="7.24193">
        <ele>754.40002441406</ele>
        <time>2020-02-22T08:56:37.000Z</time>
      </trkpt>
      <trkpt lat="43.79961" lon="7.24194">
        <ele>754.59997558594</ele>
        <time>2020-02-22T08:56:38.000Z</time>
      </trkpt>
      <trkpt lat="43.79962" lon="7.24195">
        <ele>755.40002441406</ele>
        <time>2020-02-22T08:56:42.000Z</time>
      </trkpt>
      <trkpt lat="43.79964" lon="7.24196">
        <ele>755.59997558594</ele>
        <time>2020-02-22T08:56:44.000Z</time>
      </trkpt>
      <trkpt lat="43.79966" lon="7.24197">
        <ele>756.40002441406</ele>
        <time>2020-02-22T08:56:49.000Z</time>
      </trkpt>
      <trkpt lat="43.79966" lon="7.24198">
        <ele>756.59997558594</ele>
        <time>2020-02-22T08:56:50.000Z</time>
      </trkpt>
      <trkpt lat="43.79967" lon="7.24198">
        <ele>757</ele>
        <time>2020-02-22T08:56:56.000Z</time>
      </trkpt>
      <trkpt lat="43.79967" lon="7.24199">
        <ele>756.79998779297</ele>
        <time>2020-02-22T08:57:01.000Z</time>
      </trkpt>
      <trkpt lat="43.7997" lon="7.24204">
        <ele>757</ele>
        <time>2020-02-22T08:57:04.000Z</time>
      </trkpt>
      <trkpt lat="43.79974" lon="7.24207">
        <ele>757.40002441406</ele>
        <time>2020-02-22T08:57:06.000Z</time>
      </trkpt>
      <trkpt lat="43.79979" lon="7.24209">
        <ele>758.40002441406</ele>
        <time>2020-02-22T08:57:09.000Z</time>
      </trkpt>
      <trkpt lat="43.79981" lon="7.2421">
        <ele>758.79998779297</ele>
        <time>2020-02-22T08:57:10.000Z</time>
      </trkpt>
      <trkpt lat="43.79985" lon="7.24211">
        <ele>759</ele>
        <time>2020-02-22T08:57:13.000Z</time>
      </trkpt>
      <trkpt lat="43.79986" lon="7.24212">
        <ele>759.79998779297</ele>
        <time>2020-02-22T08:57:16.000Z</time>
      </trkpt>
      <trkpt lat="43.79986" lon="7.24212">
        <ele>760.20001220703</ele>
        <time>2020-02-22T08:57:18.000Z</time>
      </trkpt>
      <trkpt lat="43.79987" lon="7.24213">
        <ele>760</ele>
        <time>2020-02-22T08:57:19.000Z</time>
      </trkpt>
      <trkpt lat="43.79991" lon="7.24217">
        <ele>760.20001220703</ele>
        <time>2020-02-22T08:57:23.000Z</time>
      </trkpt>
      <trkpt lat="43.79991" lon="7.24216">
        <ele>760.40002441406</ele>
        <time>2020-02-22T08:57:28.000Z</time>
      </trkpt>
      <trkpt lat="43.79992" lon="7.24218">
        <ele>760.79998779297</ele>
        <time>2020-02-22T08:57:31.000Z</time>
      </trkpt>
      <trkpt lat="43.79995" lon="7.2422">
        <ele>760.79998779297</ele>
        <time>2020-02-22T08:57:34.000Z</time>
      </trkpt>
      <trkpt lat="43.79996" lon="7.24223">
        <ele>760.59997558594</ele>
        <time>2020-02-22T08:57:41.000Z</time>
      </trkpt>
      <trkpt lat="43.79998" lon="7.24228">
        <ele>760.59997558594</ele>
        <time>2020-02-22T08:57:47.000Z</time>
      </trkpt>
      <trkpt lat="43.79997" lon="7.24231">
        <ele>760.40002441406</ele>
        <time>2020-02-22T08:57:50.000Z</time>
      </trkpt>
      <trkpt lat="43.79996" lon="7.24235">
        <ele>760.20001220703</ele>
        <time>2020-02-22T08:57:52.000Z</time>
      </trkpt>
      <trkpt lat="43.79996" lon="7.24237">
        <ele>760.20001220703</ele>
        <time>2020-02-22T08:57:53.000Z</time>
      </trkpt>
      <trkpt lat="43.79999" lon="7.24244">
        <ele>760</ele>
        <time>2020-02-22T08:57:56.000Z</time>
      </trkpt>
      <trkpt lat="43.79999" lon="7.24258">
        <ele>760</ele>
        <time>2020-02-22T08:58:01.000Z</time>
      </trkpt>
      <trkpt lat="43.79999" lon="7.2426">
        <ele>760</ele>
        <time>2020-02-22T08:58:02.000Z</time>
      </trkpt>
      <trkpt lat="43.80001" lon="7.24263">
        <ele>759.79998779297</ele>
        <time>2020-02-22T08:58:04.000Z</time>
      </trkpt>
      <trkpt lat="43.80001" lon="7.24266">
        <ele>759.59997558594</ele>
        <time>2020-02-22T08:58:05.000Z</time>
      </trkpt>
      <trkpt lat="43.80001" lon="7.24268">
        <ele>759.40002441406</ele>
        <time>2020-02-22T08:58:06.000Z</time>
      </trkpt>
      <trkpt lat="43.80001" lon="7.24276">
        <ele>758.79998779297</ele>
        <time>2020-02-22T08:58:09.000Z</time>
      </trkpt>
      <trkpt lat="43.80002" lon="7.24279">
        <ele>758.79998779297</ele>
        <time>2020-02-22T08:58:10.000Z</time>
      </trkpt>
      <trkpt lat="43.80004" lon="7.24286">
        <ele>758.20001220703</ele>
        <time>2020-02-22T08:58:14.000Z</time>
      </trkpt>
      <trkpt lat="43.80005" lon="7.24292">
        <ele>757.59997558594</ele>
        <time>2020-02-22T08:58:16.000Z</time>
      </trkpt>
      <trkpt lat="43.80006" lon="7.24296">
        <ele>757.40002441406</ele>
        <time>2020-02-22T08:58:17.000Z</time>
      </trkpt>
      <trkpt lat="43.80007" lon="7.24298">
        <ele>757</ele>
        <time>2020-02-22T08:58:18.000Z</time>
      </trkpt>
      <trkpt lat="43.8001" lon="7.24305">
        <ele>756.59997558594</ele>
        <time>2020-02-22T08:58:20.000Z</time>
      </trkpt>
      <trkpt lat="43.80011" lon="7.24313">
        <ele>756.59997558594</ele>
        <time>2020-02-22T08:58:22.000Z</time>
      </trkpt>
      <trkpt lat="43.80014" lon="7.2433">
        <ele>755.20001220703</ele>
        <time>2020-02-22T08:58:26.000Z</time>
      </trkpt>
      <trkpt lat="43.80015" lon="7.24338">
        <ele>754.79998779297</ele>
        <time>2020-02-22T08:58:28.000Z</time>
      </trkpt>
      <trkpt lat="43.80017" lon="7.24354">
        <ele>754.20001220703</ele>
        <time>2020-02-22T08:58:32.000Z</time>
      </trkpt>
      <trkpt lat="43.80018" lon="7.24361">
        <ele>754.20001220703</ele>
        <time>2020-02-22T08:58:34.000Z</time>
      </trkpt>
      <trkpt lat="43.80024" lon="7.24384">
        <ele>753.40002441406</ele>
        <time>2020-02-22T08:58:39.000Z</time>
      </trkpt>
      <trkpt lat="43.80026" lon="7.24392">
        <ele>753.20001220703</ele>
        <time>2020-02-22T08:58:41.000Z</time>
      </trkpt>
      <trkpt lat="43.80028" lon="7.24398">
        <ele>752.20001220703</ele>
        <time>2020-02-22T08:58:43.000Z</time>
      </trkpt>
      <trkpt lat="43.80029" lon="7.24402">
        <ele>751.59997558594</ele>
        <time>2020-02-22T08:58:44.000Z</time>
      </trkpt>
      <trkpt lat="43.80033" lon="7.24412">
        <ele>750.40002441406</ele>
        <time>2020-02-22T08:58:46.000Z</time>
      </trkpt>
      <trkpt lat="43.80036" lon="7.24417">
        <ele>749.79998779297</ele>
        <time>2020-02-22T08:58:47.000Z</time>
      </trkpt>
      <trkpt lat="43.80038" lon="7.24423">
        <ele>749.20001220703</ele>
        <time>2020-02-22T08:58:48.000Z</time>
      </trkpt>
      <trkpt lat="43.80043" lon="7.24436">
        <ele>748.20001220703</ele>
        <time>2020-02-22T08:58:51.000Z</time>
      </trkpt>
      <trkpt lat="43.80045" lon="7.24438">
        <ele>748.20001220703</ele>
        <time>2020-02-22T08:58:52.000Z</time>
      </trkpt>
      <trkpt lat="43.80048" lon="7.2444">
        <ele>747.20001220703</ele>
        <time>2020-02-22T08:58:55.000Z</time>
      </trkpt>
      <trkpt lat="43.80048" lon="7.2444">
        <ele>747</ele>
        <time>2020-02-22T08:58:56.000Z</time>
      </trkpt>
      <trkpt lat="43.80051" lon="7.24442">
        <ele>746.40002441406</ele>
        <time>2020-02-22T08:59:02.000Z</time>
      </trkpt>
      <trkpt lat="43.8005" lon="7.24443">
        <ele>746.20001220703</ele>
        <time>2020-02-22T08:59:06.000Z</time>
      </trkpt>
      <trkpt lat="43.8005" lon="7.24443">
        <ele>746</ele>
        <time>2020-02-22T08:59:07.000Z</time>
      </trkpt>
      <trkpt lat="43.8005" lon="7.24442">
        <ele>746.20001220703</ele>
        <time>2020-02-22T08:59:13.000Z</time>
      </trkpt>
      <trkpt lat="43.80051" lon="7.24441">
        <ele>746</ele>
        <time>2020-02-22T08:59:19.000Z</time>
      </trkpt>
      <trkpt lat="43.80051" lon="7.24441">
        <ele>746.20001220703</ele>
        <time>2020-02-22T08:59:33.000Z</time>
      </trkpt>
      <trkpt lat="43.80051" lon="7.24441">
        <ele>746.20001220703</ele>
        <time>2020-02-22T08:59:51.000Z</time>
      </trkpt>
      <trkpt lat="43.8005" lon="7.24441">
        <ele>745.59997558594</ele>
        <time>2020-02-22T09:00:00.000Z</time>
      </trkpt>
      <trkpt lat="43.8005" lon="7.24442">
        <ele>746.59997558594</ele>
        <time>2020-02-22T09:00:07.000Z</time>
      </trkpt>
      <trkpt lat="43.80051" lon="7.24442">
        <ele>745.59997558594</ele>
        <time>2020-02-22T09:00:13.000Z</time>
      </trkpt>
      <trkpt lat="43.80049" lon="7.24441">
        <ele>746.40002441406</ele>
        <time>2020-02-22T09:00:21.000Z</time>
      </trkpt>
      <trkpt lat="43.8005" lon="7.24441">
        <ele>746.40002441406</ele>
        <time>2020-02-22T09:00:37.000Z</time>
      </trkpt>
      <trkpt lat="43.8005" lon="7.24441">
        <ele>746.40002441406</ele>
        <time>2020-02-22T09:00:42.000Z</time>
      </trkpt>
      <trkpt lat="43.8005" lon="7.24441">
        <ele>746.59997558594</ele>
        <time>2020-02-22T09:01:00.000Z</time>
      </trkpt>
      <trkpt lat="43.8005" lon="7.24441">
        <ele>746.40002441406</ele>
        <time>2020-02-22T09:01:11.000Z</time>
      </trkpt>
      <trkpt lat="43.8005" lon="7.2444">
        <ele>746.20001220703</ele>
        <time>2020-02-22T09:01:41.000Z</time>
      </trkpt>
      <trkpt lat="43.8005" lon="7.24439">
        <ele>746.20001220703</ele>
        <time>2020-02-22T09:02:00.000Z</time>
      </trkpt>
      <trkpt lat="43.8005" lon="7.24437">
        <ele>746.20001220703</ele>
        <time>2020-02-22T09:02:02.000Z</time>
      </trkpt>
      <trkpt lat="43.80051" lon="7.2443">
        <ele>746.20001220703</ele>
        <time>2020-02-22T09:02:05.000Z</time>
      </trkpt>
      <trkpt lat="43.80048" lon="7.24414">
        <ele>745.59997558594</ele>
        <time>2020-02-22T09:02:09.000Z</time>
      </trkpt>
      <trkpt lat="43.80049" lon="7.2441">
        <ele>745.59997558594</ele>
        <time>2020-02-22T09:02:10.000Z</time>
      </trkpt>
      <trkpt lat="43.80051" lon="7.24401">
        <ele>745.20001220703</ele>
        <time>2020-02-22T09:02:12.000Z</time>
      </trkpt>
      <trkpt lat="43.80053" lon="7.24392">
        <ele>744.40002441406</ele>
        <time>2020-02-22T09:02:14.000Z</time>
      </trkpt>
      <trkpt lat="43.80059" lon="7.24392">
        <ele>743.20001220703</ele>
        <time>2020-02-22T09:02:16.000Z</time>
      </trkpt>
      <trkpt lat="43.80067" lon="7.24396">
        <ele>742.20001220703</ele>
        <time>2020-02-22T09:02:18.000Z</time>
      </trkpt>
      <trkpt lat="43.80074" lon="7.244">
        <ele>740.79998779297</ele>
        <time>2020-02-22T09:02:20.000Z</time>
      </trkpt>
      <trkpt lat="43.80082" lon="7.24404">
        <ele>739</ele>
        <time>2020-02-22T09:02:22.000Z</time>
      </trkpt>
      <trkpt lat="43.8009" lon="7.24411">
        <ele>737.59997558594</ele>
        <time>2020-02-22T09:02:24.000Z</time>
      </trkpt>
      <trkpt lat="43.80096" lon="7.24415">
        <ele>736.59997558594</ele>
        <time>2020-02-22T09:02:25.000Z</time>
      </trkpt>
      <trkpt lat="43.80104" lon="7.24424">
        <ele>735.40002441406</ele>
        <time>2020-02-22T09:02:27.000Z</time>
      </trkpt>
      <trkpt lat="43.80106" lon="7.24428">
        <ele>734.59997558594</ele>
        <time>2020-02-22T09:02:28.000Z</time>
      </trkpt>
      <trkpt lat="43.80109" lon="7.24432">
        <ele>733.79998779297</ele>
        <time>2020-02-22T09:02:29.000Z</time>
      </trkpt>
      <trkpt lat="43.80111" lon="7.24438">
        <ele>732.20001220703</ele>
        <time>2020-02-22T09:02:31.000Z</time>
      </trkpt>
      <trkpt lat="43.80114" lon="7.24441">
        <ele>731.59997558594</ele>
        <time>2020-02-22T09:02:32.000Z</time>
      </trkpt>
      <trkpt lat="43.80116" lon="7.24443">
        <ele>731</ele>
        <time>2020-02-22T09:02:33.000Z</time>
      </trkpt>
      <trkpt lat="43.80122" lon="7.24447">
        <ele>730</ele>
        <time>2020-02-22T09:02:36.000Z</time>
      </trkpt>
      <trkpt lat="43.80123" lon="7.24445">
        <ele>729.20001220703</ele>
        <time>2020-02-22T09:02:37.000Z</time>
      </trkpt>
      <trkpt lat="43.80122" lon="7.24438">
        <ele>728</ele>
        <time>2020-02-22T09:02:40.000Z</time>
      </trkpt>
      <trkpt lat="43.80123" lon="7.24429">
        <ele>727.40002441406</ele>
        <time>2020-02-22T09:02:42.000Z</time>
      </trkpt>
      <trkpt lat="43.80123" lon="7.24424">
        <ele>726.79998779297</ele>
        <time>2020-02-22T09:02:43.000Z</time>
      </trkpt>
      <trkpt lat="43.80123" lon="7.24418">
        <ele>725.79998779297</ele>
        <time>2020-02-22T09:02:44.000Z</time>
      </trkpt>
      <trkpt lat="43.80122" lon="7.24411">
        <ele>724.79998779297</ele>
        <time>2020-02-22T09:02:45.000Z</time>
      </trkpt>
      <trkpt lat="43.8012" lon="7.24405">
        <ele>723.59997558594</ele>
        <time>2020-02-22T09:02:46.000Z</time>
      </trkpt>
      <trkpt lat="43.8012" lon="7.24398">
        <ele>722.59997558594</ele>
        <time>2020-02-22T09:02:47.000Z</time>
      </trkpt>
      <trkpt lat="43.80118" lon="7.24385">
        <ele>720.79998779297</ele>
        <time>2020-02-22T09:02:49.000Z</time>
      </trkpt>
      <trkpt lat="43.80117" lon="7.24379">
        <ele>720</ele>
        <time>2020-02-22T09:02:50.000Z</time>
      </trkpt>
      <trkpt lat="43.80115" lon="7.24374">
        <ele>719.40002441406</ele>
        <time>2020-02-22T09:02:51.000Z</time>
      </trkpt>
      <trkpt lat="43.80113" lon="7.2437">
        <ele>718.59997558594</ele>
        <time>2020-02-22T09:02:52.000Z</time>
      </trkpt>
      <trkpt lat="43.80112" lon="7.24364">
        <ele>717.59997558594</ele>
        <time>2020-02-22T09:02:53.000Z</time>
      </trkpt>
      <trkpt lat="43.8011" lon="7.24358">
        <ele>716.79998779297</ele>
        <time>2020-02-22T09:02:54.000Z</time>
      </trkpt>
      <trkpt lat="43.8011" lon="7.2435">
        <ele>716.20001220703</ele>
        <time>2020-02-22T09:02:55.000Z</time>
      </trkpt>
      <trkpt lat="43.80109" lon="7.24342">
        <ele>715.20001220703</ele>
        <time>2020-02-22T09:02:56.000Z</time>
      </trkpt>
      <trkpt lat="43.80109" lon="7.24334">
        <ele>714.59997558594</ele>
        <time>2020-02-22T09:02:57.000Z</time>
      </trkpt>
      <trkpt lat="43.80109" lon="7.24327">
        <ele>713.20001220703</ele>
        <time>2020-02-22T09:02:58.000Z</time>
      </trkpt>
      <trkpt lat="43.8011" lon="7.24321">
        <ele>711.59997558594</ele>
        <time>2020-02-22T09:02:59.000Z</time>
      </trkpt>
      <trkpt lat="43.80109" lon="7.24314">
        <ele>710.79998779297</ele>
        <time>2020-02-22T09:03:00.000Z</time>
      </trkpt>
      <trkpt lat="43.80109" lon="7.24309">
        <ele>709.59997558594</ele>
        <time>2020-02-22T09:03:01.000Z</time>
      </trkpt>
      <trkpt lat="43.8011" lon="7.24304">
        <ele>708.59997558594</ele>
        <time>2020-02-22T09:03:02.000Z</time>
      </trkpt>
      <trkpt lat="43.80111" lon="7.24302">
        <ele>708.40002441406</ele>
        <time>2020-02-22T09:03:03.000Z</time>
      </trkpt>
      <trkpt lat="43.80113" lon="7.24303">
        <ele>708.20001220703</ele>
        <time>2020-02-22T09:03:04.000Z</time>
      </trkpt>
      <trkpt lat="43.80115" lon="7.24305">
        <ele>707</ele>
        <time>2020-02-22T09:03:05.000Z</time>
      </trkpt>
      <trkpt lat="43.80119" lon="7.24311">
        <ele>706</ele>
        <time>2020-02-22T09:03:07.000Z</time>
      </trkpt>
      <trkpt lat="43.80123" lon="7.24317">
        <ele>704.59997558594</ele>
        <time>2020-02-22T09:03:09.000Z</time>
      </trkpt>
      <trkpt lat="43.80125" lon="7.24319">
        <ele>703.79998779297</ele>
        <time>2020-02-22T09:03:10.000Z</time>
      </trkpt>
      <trkpt lat="43.80127" lon="7.24322">
        <ele>703</ele>
        <time>2020-02-22T09:03:11.000Z</time>
      </trkpt>
      <trkpt lat="43.80129" lon="7.24325">
        <ele>702.40002441406</ele>
        <time>2020-02-22T09:03:12.000Z</time>
      </trkpt>
      <trkpt lat="43.80132" lon="7.24329">
        <ele>701.59997558594</ele>
        <time>2020-02-22T09:03:13.000Z</time>
      </trkpt>
      <trkpt lat="43.80135" lon="7.24332">
        <ele>700.59997558594</ele>
        <time>2020-02-22T09:03:14.000Z</time>
      </trkpt>
      <trkpt lat="43.80139" lon="7.24335">
        <ele>698.40002441406</ele>
        <time>2020-02-22T09:03:15.000Z</time>
      </trkpt>
      <trkpt lat="43.80141" lon="7.24334">
        <ele>697.20001220703</ele>
        <time>2020-02-22T09:03:16.000Z</time>
      </trkpt>
      <trkpt lat="43.80142" lon="7.24331">
        <ele>696.20001220703</ele>
        <time>2020-02-22T09:03:17.000Z</time>
      </trkpt>
      <trkpt lat="43.80142" lon="7.24327">
        <ele>695</ele>
        <time>2020-02-22T09:03:18.000Z</time>
      </trkpt>
      <trkpt lat="43.80142" lon="7.24321">
        <ele>694.20001220703</ele>
        <time>2020-02-22T09:03:19.000Z</time>
      </trkpt>
      <trkpt lat="43.80144" lon="7.24306">
        <ele>693.79998779297</ele>
        <time>2020-02-22T09:03:21.000Z</time>
      </trkpt>
      <trkpt lat="43.80144" lon="7.24298">
        <ele>692.40002441406</ele>
        <time>2020-02-22T09:03:22.000Z</time>
      </trkpt>
      <trkpt lat="43.80143" lon="7.2429">
        <ele>691.40002441406</ele>
        <time>2020-02-22T09:03:23.000Z</time>
      </trkpt>
      <trkpt lat="43.80144" lon="7.24285">
        <ele>690.20001220703</ele>
        <time>2020-02-22T09:03:24.000Z</time>
      </trkpt>
      <trkpt lat="43.80146" lon="7.24282">
        <ele>688.79998779297</ele>
        <time>2020-02-22T09:03:25.000Z</time>
      </trkpt>
      <trkpt lat="43.80147" lon="7.2428">
        <ele>687.20001220703</ele>
        <time>2020-02-22T09:03:26.000Z</time>
      </trkpt>
      <trkpt lat="43.80149" lon="7.24274">
        <ele>685.59997558594</ele>
        <time>2020-02-22T09:03:28.000Z</time>
      </trkpt>
      <trkpt lat="43.8015" lon="7.24266">
        <ele>684</ele>
        <time>2020-02-22T09:03:30.000Z</time>
      </trkpt>
      <trkpt lat="43.80151" lon="7.24265">
        <ele>683</ele>
        <time>2020-02-22T09:03:31.000Z</time>
      </trkpt>
      <trkpt lat="43.80153" lon="7.24266">
        <ele>682.20001220703</ele>
        <time>2020-02-22T09:03:32.000Z</time>
      </trkpt>
      <trkpt lat="43.80154" lon="7.24267">
        <ele>681.20001220703</ele>
        <time>2020-02-22T09:03:33.000Z</time>
      </trkpt>
      <trkpt lat="43.80156" lon="7.24266">
        <ele>680.59997558594</ele>
        <time>2020-02-22T09:03:34.000Z</time>
      </trkpt>
      <trkpt lat="43.80159" lon="7.24264">
        <ele>680</ele>
        <time>2020-02-22T09:03:35.000Z</time>
      </trkpt>
      <trkpt lat="43.80161" lon="7.24261">
        <ele>679.20001220703</ele>
        <time>2020-02-22T09:03:36.000Z</time>
      </trkpt>
      <trkpt lat="43.80162" lon="7.24259">
        <ele>678.40002441406</ele>
        <time>2020-02-22T09:03:37.000Z</time>
      </trkpt>
      <trkpt lat="43.80162" lon="7.24251">
        <ele>677</ele>
        <time>2020-02-22T09:03:39.000Z</time>
      </trkpt>
      <trkpt lat="43.80164" lon="7.24243">
        <ele>675.79998779297</ele>
        <time>2020-02-22T09:03:41.000Z</time>
      </trkpt>
      <trkpt lat="43.80166" lon="7.24241">
        <ele>675</ele>
        <time>2020-02-22T09:03:42.000Z</time>
      </trkpt>
      <trkpt lat="43.80166" lon="7.24239">
        <ele>674.40002441406</ele>
        <time>2020-02-22T09:03:43.000Z</time>
      </trkpt>
      <trkpt lat="43.80167" lon="7.24234">
        <ele>673</ele>
        <time>2020-02-22T09:03:45.000Z</time>
      </trkpt>
      <trkpt lat="43.80167" lon="7.2423">
        <ele>672.20001220703</ele>
        <time>2020-02-22T09:03:46.000Z</time>
      </trkpt>
      <trkpt lat="43.80168" lon="7.24226">
        <ele>671.59997558594</ele>
        <time>2020-02-22T09:03:47.000Z</time>
      </trkpt>
      <trkpt lat="43.80173" lon="7.24221">
        <ele>670.20001220703</ele>
        <time>2020-02-22T09:03:49.000Z</time>
      </trkpt>
      <trkpt lat="43.80175" lon="7.24219">
        <ele>669.40002441406</ele>
        <time>2020-02-22T09:03:50.000Z</time>
      </trkpt>
      <trkpt lat="43.80176" lon="7.24216">
        <ele>668.59997558594</ele>
        <time>2020-02-22T09:03:51.000Z</time>
      </trkpt>
      <trkpt lat="43.80179" lon="7.24209">
        <ele>666.79998779297</ele>
        <time>2020-02-22T09:03:53.000Z</time>
      </trkpt>
      <trkpt lat="43.80183" lon="7.24201">
        <ele>665</ele>
        <time>2020-02-22T09:03:55.000Z</time>
      </trkpt>
      <trkpt lat="43.80187" lon="7.24191">
        <ele>663.59997558594</ele>
        <time>2020-02-22T09:03:57.000Z</time>
      </trkpt>
      <trkpt lat="43.80193" lon="7.24183">
        <ele>662</ele>
        <time>2020-02-22T09:03:59.000Z</time>
      </trkpt>
      <trkpt lat="43.80199" lon="7.24172">
        <ele>660.20001220703</ele>
        <time>2020-02-22T09:04:01.000Z</time>
      </trkpt>
      <trkpt lat="43.80202" lon="7.24165">
        <ele>658</ele>
        <time>2020-02-22T09:04:03.000Z</time>
      </trkpt>
      <trkpt lat="43.80204" lon="7.24163">
        <ele>657</ele>
        <time>2020-02-22T09:04:04.000Z</time>
      </trkpt>
      <trkpt lat="43.80205" lon="7.24159">
        <ele>655.79998779297</ele>
        <time>2020-02-22T09:04:05.000Z</time>
      </trkpt>
      <trkpt lat="43.80208" lon="7.2415">
        <ele>653.59997558594</ele>
        <time>2020-02-22T09:04:07.000Z</time>
      </trkpt>
      <trkpt lat="43.80211" lon="7.24145">
        <ele>652.20001220703</ele>
        <time>2020-02-22T09:04:09.000Z</time>
      </trkpt>
      <trkpt lat="43.80212" lon="7.24142">
        <ele>651.40002441406</ele>
        <time>2020-02-22T09:04:10.000Z</time>
      </trkpt>
      <trkpt lat="43.80213" lon="7.24141">
        <ele>650.40002441406</ele>
        <time>2020-02-22T09:04:11.000Z</time>
      </trkpt>
      <trkpt lat="43.80214" lon="7.24139">
        <ele>650</ele>
        <time>2020-02-22T09:04:12.000Z</time>
      </trkpt>
      <trkpt lat="43.80215" lon="7.24137">
        <ele>649.40002441406</ele>
        <time>2020-02-22T09:04:13.000Z</time>
      </trkpt>
      <trkpt lat="43.80219" lon="7.24131">
        <ele>648</ele>
        <time>2020-02-22T09:04:15.000Z</time>
      </trkpt>
      <trkpt lat="43.8022" lon="7.24125">
        <ele>646.79998779297</ele>
        <time>2020-02-22T09:04:17.000Z</time>
      </trkpt>
      <trkpt lat="43.8022" lon="7.2412">
        <ele>646</ele>
        <time>2020-02-22T09:04:18.000Z</time>
      </trkpt>
      <trkpt lat="43.80221" lon="7.24114">
        <ele>645.40002441406</ele>
        <time>2020-02-22T09:04:19.000Z</time>
      </trkpt>
      <trkpt lat="43.80223" lon="7.24101">
        <ele>644.20001220703</ele>
        <time>2020-02-22T09:04:21.000Z</time>
      </trkpt>
      <trkpt lat="43.80226" lon="7.24088">
        <ele>642.20001220703</ele>
        <time>2020-02-22T09:04:23.000Z</time>
      </trkpt>
      <trkpt lat="43.80229" lon="7.24081">
        <ele>640.20001220703</ele>
        <time>2020-02-22T09:04:25.000Z</time>
      </trkpt>
      <trkpt lat="43.8023" lon="7.2408">
        <ele>638.59997558594</ele>
        <time>2020-02-22T09:04:26.000Z</time>
      </trkpt>
      <trkpt lat="43.80231" lon="7.24081">
        <ele>637.40002441406</ele>
        <time>2020-02-22T09:04:27.000Z</time>
      </trkpt>
      <trkpt lat="43.80233" lon="7.24081">
        <ele>635.79998779297</ele>
        <time>2020-02-22T09:04:29.000Z</time>
      </trkpt>
      <trkpt lat="43.80232" lon="7.24081">
        <ele>634.79998779297</ele>
        <time>2020-02-22T09:04:30.000Z</time>
      </trkpt>
      <trkpt lat="43.80233" lon="7.2408">
        <ele>634.40002441406</ele>
        <time>2020-02-22T09:04:31.000Z</time>
      </trkpt>
      <trkpt lat="43.80233" lon="7.24077">
        <ele>633.40002441406</ele>
        <time>2020-02-22T09:04:33.000Z</time>
      </trkpt>
      <trkpt lat="43.80233" lon="7.24074">
        <ele>633.20001220703</ele>
        <time>2020-02-22T09:04:34.000Z</time>
      </trkpt>
      <trkpt lat="43.80234" lon="7.2407">
        <ele>632.79998779297</ele>
        <time>2020-02-22T09:04:35.000Z</time>
      </trkpt>
      <trkpt lat="43.80236" lon="7.24057">
        <ele>631.59997558594</ele>
        <time>2020-02-22T09:04:37.000Z</time>
      </trkpt>
      <trkpt lat="43.80238" lon="7.2405">
        <ele>630.59997558594</ele>
        <time>2020-02-22T09:04:38.000Z</time>
      </trkpt>
      <trkpt lat="43.80239" lon="7.24043">
        <ele>629.59997558594</ele>
        <time>2020-02-22T09:04:39.000Z</time>
      </trkpt>
      <trkpt lat="43.80239" lon="7.24036">
        <ele>628.20001220703</ele>
        <time>2020-02-22T09:04:40.000Z</time>
      </trkpt>
      <trkpt lat="43.8024" lon="7.24029">
        <ele>626.79998779297</ele>
        <time>2020-02-22T09:04:41.000Z</time>
      </trkpt>
      <trkpt lat="43.80241" lon="7.24022">
        <ele>625.40002441406</ele>
        <time>2020-02-22T09:04:42.000Z</time>
      </trkpt>
      <trkpt lat="43.80241" lon="7.24017">
        <ele>623.79998779297</ele>
        <time>2020-02-22T09:04:43.000Z</time>
      </trkpt>
      <trkpt lat="43.80241" lon="7.24013">
        <ele>622</ele>
        <time>2020-02-22T09:04:44.000Z</time>
      </trkpt>
      <trkpt lat="43.80241" lon="7.24009">
        <ele>620.20001220703</ele>
        <time>2020-02-22T09:04:45.000Z</time>
      </trkpt>
      <trkpt lat="43.80242" lon="7.24005">
        <ele>618</ele>
        <time>2020-02-22T09:04:46.000Z</time>
      </trkpt>
      <trkpt lat="43.80241" lon="7.23997">
        <ele>616.59997558594</ele>
        <time>2020-02-22T09:04:47.000Z</time>
      </trkpt>
      <trkpt lat="43.80242" lon="7.2399">
        <ele>615.59997558594</ele>
        <time>2020-02-22T09:04:48.000Z</time>
      </trkpt>
      <trkpt lat="43.80243" lon="7.23983">
        <ele>614.40002441406</ele>
        <time>2020-02-22T09:04:49.000Z</time>
      </trkpt>
      <trkpt lat="43.80243" lon="7.23976">
        <ele>613.20001220703</ele>
        <time>2020-02-22T09:04:50.000Z</time>
      </trkpt>
      <trkpt lat="43.80244" lon="7.2397">
        <ele>611.40002441406</ele>
        <time>2020-02-22T09:04:51.000Z</time>
      </trkpt>
      <trkpt lat="43.80244" lon="7.23964">
        <ele>610.20001220703</ele>
        <time>2020-02-22T09:04:52.000Z</time>
      </trkpt>
      <trkpt lat="43.80246" lon="7.23957">
        <ele>608.59997558594</ele>
        <time>2020-02-22T09:04:53.000Z</time>
      </trkpt>
      <trkpt lat="43.80247" lon="7.23951">
        <ele>607.20001220703</ele>
        <time>2020-02-22T09:04:54.000Z</time>
      </trkpt>
      <trkpt lat="43.80247" lon="7.23945">
        <ele>605.79998779297</ele>
        <time>2020-02-22T09:04:55.000Z</time>
      </trkpt>
      <trkpt lat="43.80247" lon="7.2394">
        <ele>604.40002441406</ele>
        <time>2020-02-22T09:04:56.000Z</time>
      </trkpt>
      <trkpt lat="43.80247" lon="7.23938">
        <ele>603</ele>
        <time>2020-02-22T09:04:57.000Z</time>
      </trkpt>
      <trkpt lat="43.80247" lon="7.23939">
        <ele>601.20001220703</ele>
        <time>2020-02-22T09:04:58.000Z</time>
      </trkpt>
      <trkpt lat="43.80247" lon="7.23936">
        <ele>599.40002441406</ele>
        <time>2020-02-22T09:04:59.000Z</time>
      </trkpt>
      <trkpt lat="43.80248" lon="7.23935">
        <ele>598.20001220703</ele>
        <time>2020-02-22T09:05:00.000Z</time>
      </trkpt>
      <trkpt lat="43.80248" lon="7.2393">
        <ele>596.59997558594</ele>
        <time>2020-02-22T09:05:02.000Z</time>
      </trkpt>
      <trkpt lat="43.80248" lon="7.23926">
        <ele>596</ele>
        <time>2020-02-22T09:05:03.000Z</time>
      </trkpt>
      <trkpt lat="43.80247" lon="7.23923">
        <ele>595.40002441406</ele>
        <time>2020-02-22T09:05:04.000Z</time>
      </trkpt>
      <trkpt lat="43.80248" lon="7.23919">
        <ele>593.59997558594</ele>
        <time>2020-02-22T09:05:06.000Z</time>
      </trkpt>
      <trkpt lat="43.80248" lon="7.23919">
        <ele>592.79998779297</ele>
        <time>2020-02-22T09:05:07.000Z</time>
      </trkpt>
      <trkpt lat="43.80248" lon="7.2392">
        <ele>592.20001220703</ele>
        <time>2020-02-22T09:05:08.000Z</time>
      </trkpt>
      <trkpt lat="43.80249" lon="7.2392">
        <ele>591.20001220703</ele>
        <time>2020-02-22T09:05:10.000Z</time>
      </trkpt>
      <trkpt lat="43.8025" lon="7.23918">
        <ele>590.59997558594</ele>
        <time>2020-02-22T09:05:12.000Z</time>
      </trkpt>
      <trkpt lat="43.80251" lon="7.23909">
        <ele>590</ele>
        <time>2020-02-22T09:05:14.000Z</time>
      </trkpt>
      <trkpt lat="43.80251" lon="7.23903">
        <ele>589.40002441406</ele>
        <time>2020-02-22T09:05:15.000Z</time>
      </trkpt>
      <trkpt lat="43.80252" lon="7.23899">
        <ele>588.79998779297</ele>
        <time>2020-02-22T09:05:16.000Z</time>
      </trkpt>
      <trkpt lat="43.80251" lon="7.23888">
        <ele>587</ele>
        <time>2020-02-22T09:05:18.000Z</time>
      </trkpt>
      <trkpt lat="43.80251" lon="7.23882">
        <ele>586.20001220703</ele>
        <time>2020-02-22T09:05:19.000Z</time>
      </trkpt>
      <trkpt lat="43.8025" lon="7.23876">
        <ele>585.40002441406</ele>
        <time>2020-02-22T09:05:20.000Z</time>
      </trkpt>
      <trkpt lat="43.8025" lon="7.23865">
        <ele>583.40002441406</ele>
        <time>2020-02-22T09:05:22.000Z</time>
      </trkpt>
      <trkpt lat="43.80251" lon="7.23858">
        <ele>582.59997558594</ele>
        <time>2020-02-22T09:05:23.000Z</time>
      </trkpt>
      <trkpt lat="43.80251" lon="7.23852">
        <ele>581.40002441406</ele>
        <time>2020-02-22T09:05:24.000Z</time>
      </trkpt>
      <trkpt lat="43.80251" lon="7.23845">
        <ele>579.79998779297</ele>
        <time>2020-02-22T09:05:25.000Z</time>
      </trkpt>
      <trkpt lat="43.80249" lon="7.2384">
        <ele>578.79998779297</ele>
        <time>2020-02-22T09:05:26.000Z</time>
      </trkpt>
      <trkpt lat="43.80248" lon="7.23835">
        <ele>577.79998779297</ele>
        <time>2020-02-22T09:05:27.000Z</time>
      </trkpt>
      <trkpt lat="43.80246" lon="7.23831">
        <ele>576</ele>
        <time>2020-02-22T09:05:29.000Z</time>
      </trkpt>
      <trkpt lat="43.80245" lon="7.2383">
        <ele>575</ele>
        <time>2020-02-22T09:05:31.000Z</time>
      </trkpt>
      <trkpt lat="43.80245" lon="7.23829">
        <ele>574.20001220703</ele>
        <time>2020-02-22T09:05:33.000Z</time>
      </trkpt>
      <trkpt lat="43.80243" lon="7.23824">
        <ele>574.79998779297</ele>
        <time>2020-02-22T09:05:39.000Z</time>
      </trkpt>
      <trkpt lat="43.8024" lon="7.2382">
        <ele>575.40002441406</ele>
        <time>2020-02-22T09:05:44.000Z</time>
      </trkpt>
      <trkpt lat="43.8023" lon="7.23813">
        <ele>575.40002441406</ele>
        <time>2020-02-22T09:05:48.000Z</time>
      </trkpt>
      <trkpt lat="43.80227" lon="7.23809">
        <ele>574.79998779297</ele>
        <time>2020-02-22T09:05:50.000Z</time>
      </trkpt>
      <trkpt lat="43.80227" lon="7.23806">
        <ele>574.59997558594</ele>
        <time>2020-02-22T09:05:51.000Z</time>
      </trkpt>
      <trkpt lat="43.80226" lon="7.23795">
        <ele>573.79998779297</ele>
        <time>2020-02-22T09:05:53.000Z</time>
      </trkpt>
      <trkpt lat="43.80227" lon="7.23789">
        <ele>573</ele>
        <time>2020-02-22T09:05:54.000Z</time>
      </trkpt>
      <trkpt lat="43.80227" lon="7.23783">
        <ele>572.20001220703</ele>
        <time>2020-02-22T09:05:55.000Z</time>
      </trkpt>
      <trkpt lat="43.80227" lon="7.23779">
        <ele>570.79998779297</ele>
        <time>2020-02-22T09:05:56.000Z</time>
      </trkpt>
      <trkpt lat="43.80228" lon="7.23777">
        <ele>569</ele>
        <time>2020-02-22T09:05:57.000Z</time>
      </trkpt>
      <trkpt lat="43.80227" lon="7.23778">
        <ele>567.40002441406</ele>
        <time>2020-02-22T09:05:58.000Z</time>
      </trkpt>
      <trkpt lat="43.80228" lon="7.23776">
        <ele>565.40002441406</ele>
        <time>2020-02-22T09:06:00.000Z</time>
      </trkpt>
      <trkpt lat="43.80228" lon="7.23777">
        <ele>564.79998779297</ele>
        <time>2020-02-22T09:06:01.000Z</time>
      </trkpt>
      <trkpt lat="43.80227" lon="7.23776">
        <ele>564.59997558594</ele>
        <time>2020-02-22T09:06:11.000Z</time>
      </trkpt>
      <trkpt lat="43.80226" lon="7.23776">
        <ele>565</ele>
        <time>2020-02-22T09:06:26.000Z</time>
      </trkpt>
      <trkpt lat="43.80226" lon="7.23776">
        <ele>564.79998779297</ele>
        <time>2020-02-22T09:06:41.000Z</time>
      </trkpt>
      <trkpt lat="43.80225" lon="7.23776">
        <ele>565</ele>
        <time>2020-02-22T09:06:49.000Z</time>
      </trkpt>
      <trkpt lat="43.80225" lon="7.23776">
        <ele>564.79998779297</ele>
        <time>2020-02-22T09:07:00.000Z</time>
      </trkpt>
      <trkpt lat="43.80224" lon="7.23776">
        <ele>564.59997558594</ele>
        <time>2020-02-22T09:07:17.000Z</time>
      </trkpt>
      <trkpt lat="43.80224" lon="7.23778">
        <ele>564.40002441406</ele>
        <time>2020-02-22T09:07:23.000Z</time>
      </trkpt>
      <trkpt lat="43.80223" lon="7.23777">
        <ele>564.40002441406</ele>
        <time>2020-02-22T09:07:24.000Z</time>
      </trkpt>
      <trkpt lat="43.80225" lon="7.23776">
        <ele>564.40002441406</ele>
        <time>2020-02-22T09:07:28.000Z</time>
      </trkpt>
      <trkpt lat="43.80233" lon="7.23778">
        <ele>564.40002441406</ele>
        <time>2020-02-22T09:07:32.000Z</time>
      </trkpt>
      <trkpt lat="43.80236" lon="7.23779">
        <ele>564.20001220703</ele>
        <time>2020-02-22T09:07:33.000Z</time>
      </trkpt>
      <trkpt lat="43.80247" lon="7.23784">
        <ele>563</ele>
        <time>2020-02-22T09:07:36.000Z</time>
      </trkpt>
      <trkpt lat="43.80249" lon="7.23786">
        <ele>562</ele>
        <time>2020-02-22T09:07:37.000Z</time>
      </trkpt>
      <trkpt lat="43.80251" lon="7.23788">
        <ele>561.40002441406</ele>
        <time>2020-02-22T09:07:38.000Z</time>
      </trkpt>
      <trkpt lat="43.80253" lon="7.2379">
        <ele>560.20001220703</ele>
        <time>2020-02-22T09:07:39.000Z</time>
      </trkpt>
      <trkpt lat="43.80255" lon="7.23791">
        <ele>559</ele>
        <time>2020-02-22T09:07:40.000Z</time>
      </trkpt>
      <trkpt lat="43.80261" lon="7.23793">
        <ele>557.79998779297</ele>
        <time>2020-02-22T09:07:42.000Z</time>
      </trkpt>
      <trkpt lat="43.80267" lon="7.23799">
        <ele>556.40002441406</ele>
        <time>2020-02-22T09:07:44.000Z</time>
      </trkpt>
      <trkpt lat="43.80273" lon="7.23806">
        <ele>554.79998779297</ele>
        <time>2020-02-22T09:07:46.000Z</time>
      </trkpt>
      <trkpt lat="43.8028" lon="7.23813">
        <ele>554</ele>
        <time>2020-02-22T09:07:48.000Z</time>
      </trkpt>
      <trkpt lat="43.80282" lon="7.23815">
        <ele>553.40002441406</ele>
        <time>2020-02-22T09:07:49.000Z</time>
      </trkpt>
      <trkpt lat="43.80286" lon="7.23816">
        <ele>552.40002441406</ele>
        <time>2020-02-22T09:07:51.000Z</time>
      </trkpt>
      <trkpt lat="43.80287" lon="7.23814">
        <ele>550.79998779297</ele>
        <time>2020-02-22T09:07:53.000Z</time>
      </trkpt>
      <trkpt lat="43.80286" lon="7.23811">
        <ele>550.20001220703</ele>
        <time>2020-02-22T09:07:54.000Z</time>
      </trkpt>
      <trkpt lat="43.80284" lon="7.23807">
        <ele>549.59997558594</ele>
        <time>2020-02-22T09:07:55.000Z</time>
      </trkpt>
      <trkpt lat="43.80285" lon="7.23803">
        <ele>548.20001220703</ele>
        <time>2020-02-22T09:07:57.000Z</time>
      </trkpt>
      <trkpt lat="43.80286" lon="7.23804">
        <ele>547.40002441406</ele>
        <time>2020-02-22T09:07:58.000Z</time>
      </trkpt>
      <trkpt lat="43.80288" lon="7.23806">
        <ele>546.59997558594</ele>
        <time>2020-02-22T09:07:59.000Z</time>
      </trkpt>
      <trkpt lat="43.80289" lon="7.23804">
        <ele>545.20001220703</ele>
        <time>2020-02-22T09:08:01.000Z</time>
      </trkpt>
      <trkpt lat="43.80288" lon="7.23803">
        <ele>544.79998779297</ele>
        <time>2020-02-22T09:08:02.000Z</time>
      </trkpt>
      <trkpt lat="43.80287" lon="7.23801">
        <ele>544.20001220703</ele>
        <time>2020-02-22T09:08:03.000Z</time>
      </trkpt>
      <trkpt lat="43.80286" lon="7.23794">
        <ele>543</ele>
        <time>2020-02-22T09:08:05.000Z</time>
      </trkpt>
      <trkpt lat="43.80285" lon="7.2379">
        <ele>542.40002441406</ele>
        <time>2020-02-22T09:08:06.000Z</time>
      </trkpt>
      <trkpt lat="43.80284" lon="7.23786">
        <ele>541.79998779297</ele>
        <time>2020-02-22T09:08:07.000Z</time>
      </trkpt>
      <trkpt lat="43.80283" lon="7.23783">
        <ele>541</ele>
        <time>2020-02-22T09:08:08.000Z</time>
      </trkpt>
      <trkpt lat="43.80281" lon="7.2378">
        <ele>540.20001220703</ele>
        <time>2020-02-22T09:08:09.000Z</time>
      </trkpt>
      <trkpt lat="43.80278" lon="7.23774">
        <ele>538.59997558594</ele>
        <time>2020-02-22T09:08:11.000Z</time>
      </trkpt>
      <trkpt lat="43.8028" lon="7.2377">
        <ele>537</ele>
        <time>2020-02-22T09:08:13.000Z</time>
      </trkpt>
      <trkpt lat="43.80283" lon="7.23771">
        <ele>535.79998779297</ele>
        <time>2020-02-22T09:08:15.000Z</time>
      </trkpt>
      <trkpt lat="43.80285" lon="7.2377">
        <ele>535.20001220703</ele>
        <time>2020-02-22T09:08:16.000Z</time>
      </trkpt>
      <trkpt lat="43.80285" lon="7.23769">
        <ele>534.59997558594</ele>
        <time>2020-02-22T09:08:17.000Z</time>
      </trkpt>
      <trkpt lat="43.80284" lon="7.23767">
        <ele>534.20001220703</ele>
        <time>2020-02-22T09:08:18.000Z</time>
      </trkpt>
      <trkpt lat="43.80283" lon="7.23766">
        <ele>533.40002441406</ele>
        <time>2020-02-22T09:08:19.000Z</time>
      </trkpt>
      <trkpt lat="43.80281" lon="7.2376">
        <ele>532.59997558594</ele>
        <time>2020-02-22T09:08:21.000Z</time>
      </trkpt>
      <trkpt lat="43.80281" lon="7.23757">
        <ele>532</ele>
        <time>2020-02-22T09:08:22.000Z</time>
      </trkpt>
      <trkpt lat="43.8028" lon="7.23753">
        <ele>531.40002441406</ele>
        <time>2020-02-22T09:08:23.000Z</time>
      </trkpt>
      <trkpt lat="43.80279" lon="7.2375">
        <ele>530.59997558594</ele>
        <time>2020-02-22T09:08:24.000Z</time>
      </trkpt>
      <trkpt lat="43.80278" lon="7.23747">
        <ele>529.59997558594</ele>
        <time>2020-02-22T09:08:25.000Z</time>
      </trkpt>
      <trkpt lat="43.80277" lon="7.23745">
        <ele>528.40002441406</ele>
        <time>2020-02-22T09:08:26.000Z</time>
      </trkpt>
      <trkpt lat="43.80276" lon="7.23739">
        <ele>526</ele>
        <time>2020-02-22T09:08:28.000Z</time>
      </trkpt>
      <trkpt lat="43.80277" lon="7.23737">
        <ele>525.20001220703</ele>
        <time>2020-02-22T09:08:29.000Z</time>
      </trkpt>
      <trkpt lat="43.80278" lon="7.23734">
        <ele>524.79998779297</ele>
        <time>2020-02-22T09:08:30.000Z</time>
      </trkpt>
      <trkpt lat="43.80278" lon="7.23729">
        <ele>523.79998779297</ele>
        <time>2020-02-22T09:08:32.000Z</time>
      </trkpt>
      <trkpt lat="43.80276" lon="7.23728">
        <ele>523.59997558594</ele>
        <time>2020-02-22T09:08:33.000Z</time>
      </trkpt>
      <trkpt lat="43.80271" lon="7.23722">
        <ele>522.40002441406</ele>
        <time>2020-02-22T09:08:35.000Z</time>
      </trkpt>
      <trkpt lat="43.80269" lon="7.23718">
        <ele>521.79998779297</ele>
        <time>2020-02-22T09:08:36.000Z</time>
      </trkpt>
      <trkpt lat="43.80268" lon="7.23714">
        <ele>521</ele>
        <time>2020-02-22T09:08:37.000Z</time>
      </trkpt>
      <trkpt lat="43.80265" lon="7.23709">
        <ele>520</ele>
        <time>2020-02-22T09:08:39.000Z</time>
      </trkpt>
      <trkpt lat="43.80264" lon="7.23706">
        <ele>519.20001220703</ele>
        <time>2020-02-22T09:08:40.000Z</time>
      </trkpt>
      <trkpt lat="43.80262" lon="7.23702">
        <ele>518.59997558594</ele>
        <time>2020-02-22T09:08:41.000Z</time>
      </trkpt>
      <trkpt lat="43.8026" lon="7.23698">
        <ele>517.40002441406</ele>
        <time>2020-02-22T09:08:43.000Z</time>
      </trkpt>
      <trkpt lat="43.80258" lon="7.23697">
        <ele>516.79998779297</ele>
        <time>2020-02-22T09:08:44.000Z</time>
      </trkpt>
      <trkpt lat="43.80258" lon="7.23695">
        <ele>516.20001220703</ele>
        <time>2020-02-22T09:08:45.000Z</time>
      </trkpt>
      <trkpt lat="43.80256" lon="7.2369">
        <ele>515</ele>
        <time>2020-02-22T09:08:47.000Z</time>
      </trkpt>
      <trkpt lat="43.80255" lon="7.23688">
        <ele>514.40002441406</ele>
        <time>2020-02-22T09:08:48.000Z</time>
      </trkpt>
      <trkpt lat="43.80253" lon="7.23684">
        <ele>513.79998779297</ele>
        <time>2020-02-22T09:08:49.000Z</time>
      </trkpt>
      <trkpt lat="43.80252" lon="7.23677">
        <ele>512.79998779297</ele>
        <time>2020-02-22T09:08:51.000Z</time>
      </trkpt>
      <trkpt lat="43.80251" lon="7.23675">
        <ele>512</ele>
        <time>2020-02-22T09:08:52.000Z</time>
      </trkpt>
      <trkpt lat="43.80251" lon="7.23672">
        <ele>511.39999389648</ele>
        <time>2020-02-22T09:08:53.000Z</time>
      </trkpt>
      <trkpt lat="43.80245" lon="7.2366">
        <ele>510.20001220703</ele>
        <time>2020-02-22T09:08:56.000Z</time>
      </trkpt>
      <trkpt lat="43.80245" lon="7.23657">
        <ele>509.79998779297</ele>
        <time>2020-02-22T09:08:57.000Z</time>
      </trkpt>
      <trkpt lat="43.80246" lon="7.23651">
        <ele>508.60000610352</ele>
        <time>2020-02-22T09:08:59.000Z</time>
      </trkpt>
      <trkpt lat="43.80247" lon="7.23648">
        <ele>508.20001220703</ele>
        <time>2020-02-22T09:09:00.000Z</time>
      </trkpt>
      <trkpt lat="43.80248" lon="7.23643">
        <ele>507.39999389648</ele>
        <time>2020-02-22T09:09:01.000Z</time>
      </trkpt>
      <trkpt lat="43.80248" lon="7.23635">
        <ele>505.79998779297</ele>
        <time>2020-02-22T09:09:03.000Z</time>
      </trkpt>
      <trkpt lat="43.80248" lon="7.23632">
        <ele>505.20001220703</ele>
        <time>2020-02-22T09:09:04.000Z</time>
      </trkpt>
      <trkpt lat="43.80249" lon="7.23628">
        <ele>504.39999389648</ele>
        <time>2020-02-22T09:09:05.000Z</time>
      </trkpt>
      <trkpt lat="43.8025" lon="7.23621">
        <ele>502.60000610352</ele>
        <time>2020-02-22T09:09:07.000Z</time>
      </trkpt>
      <trkpt lat="43.8025" lon="7.23616">
        <ele>501.20001220703</ele>
        <time>2020-02-22T09:09:09.000Z</time>
      </trkpt>
      <trkpt lat="43.8025" lon="7.23614">
        <ele>500.20001220703</ele>
        <time>2020-02-22T09:09:10.000Z</time>
      </trkpt>
      <trkpt lat="43.80248" lon="7.23612">
        <ele>499.60000610352</ele>
        <time>2020-02-22T09:09:11.000Z</time>
      </trkpt>
      <trkpt lat="43.80246" lon="7.23609">
        <ele>498</ele>
        <time>2020-02-22T09:09:13.000Z</time>
      </trkpt>
      <trkpt lat="43.80248" lon="7.23606">
        <ele>496.79998779297</ele>
        <time>2020-02-22T09:09:15.000Z</time>
      </trkpt>
      <trkpt lat="43.8025" lon="7.23605">
        <ele>496</ele>
        <time>2020-02-22T09:09:16.000Z</time>
      </trkpt>
      <trkpt lat="43.8025" lon="7.23603">
        <ele>495.20001220703</ele>
        <time>2020-02-22T09:09:18.000Z</time>
      </trkpt>
      <trkpt lat="43.80248" lon="7.236">
        <ele>494.20001220703</ele>
        <time>2020-02-22T09:09:20.000Z</time>
      </trkpt>
      <trkpt lat="43.80245" lon="7.23599">
        <ele>493.60000610352</ele>
        <time>2020-02-22T09:09:21.000Z</time>
      </trkpt>
      <trkpt lat="43.80236" lon="7.23595">
        <ele>492.20001220703</ele>
        <time>2020-02-22T09:09:23.000Z</time>
      </trkpt>
      <trkpt lat="43.80233" lon="7.23592">
        <ele>491.39999389648</ele>
        <time>2020-02-22T09:09:24.000Z</time>
      </trkpt>
      <trkpt lat="43.8023" lon="7.2359">
        <ele>490.60000610352</ele>
        <time>2020-02-22T09:09:25.000Z</time>
      </trkpt>
      <trkpt lat="43.80224" lon="7.23584">
        <ele>489</ele>
        <time>2020-02-22T09:09:27.000Z</time>
      </trkpt>
      <trkpt lat="43.8022" lon="7.23572">
        <ele>488</ele>
        <time>2020-02-22T09:09:29.000Z</time>
      </trkpt>
      <trkpt lat="43.80219" lon="7.23566">
        <ele>487.60000610352</ele>
        <time>2020-02-22T09:09:30.000Z</time>
      </trkpt>
      <trkpt lat="43.80222" lon="7.23556">
        <ele>486.79998779297</ele>
        <time>2020-02-22T09:09:32.000Z</time>
      </trkpt>
      <trkpt lat="43.80224" lon="7.23551">
        <ele>486.20001220703</ele>
        <time>2020-02-22T09:09:33.000Z</time>
      </trkpt>
      <trkpt lat="43.80225" lon="7.23547">
        <ele>485.60000610352</ele>
        <time>2020-02-22T09:09:34.000Z</time>
      </trkpt>
      <trkpt lat="43.80226" lon="7.2354">
        <ele>484.39999389648</ele>
        <time>2020-02-22T09:09:35.000Z</time>
      </trkpt>
      <trkpt lat="43.80227" lon="7.23534">
        <ele>483</ele>
        <time>2020-02-22T09:09:36.000Z</time>
      </trkpt>
      <trkpt lat="43.80226" lon="7.23532">
        <ele>482</ele>
        <time>2020-02-22T09:09:37.000Z</time>
      </trkpt>
      <trkpt lat="43.80225" lon="7.23531">
        <ele>481.20001220703</ele>
        <time>2020-02-22T09:09:38.000Z</time>
      </trkpt>
      <trkpt lat="43.80224" lon="7.23531">
        <ele>480.39999389648</ele>
        <time>2020-02-22T09:09:39.000Z</time>
      </trkpt>
      <trkpt lat="43.80223" lon="7.2353">
        <ele>480</ele>
        <time>2020-02-22T09:09:40.000Z</time>
      </trkpt>
      <trkpt lat="43.80222" lon="7.23529">
        <ele>479.60000610352</ele>
        <time>2020-02-22T09:09:45.000Z</time>
      </trkpt>
      <trkpt lat="43.80221" lon="7.23527">
        <ele>479.60000610352</ele>
        <time>2020-02-22T09:10:04.000Z</time>
      </trkpt>
      <trkpt lat="43.80221" lon="7.23527">
        <ele>479.60000610352</ele>
        <time>2020-02-22T09:10:12.000Z</time>
      </trkpt>
      <trkpt lat="43.80218" lon="7.23526">
        <ele>479.60000610352</ele>
        <time>2020-02-22T09:10:16.000Z</time>
      </trkpt>
      <trkpt lat="43.80215" lon="7.23525">
        <ele>479.60000610352</ele>
        <time>2020-02-22T09:10:18.000Z</time>
      </trkpt>
      <trkpt lat="43.80202" lon="7.23521">
        <ele>480.20001220703</ele>
        <time>2020-02-22T09:10:25.000Z</time>
      </trkpt>
      <trkpt lat="43.80188" lon="7.2352">
        <ele>480.20001220703</ele>
        <time>2020-02-22T09:10:31.000Z</time>
      </trkpt>
      <trkpt lat="43.80169" lon="7.23525">
        <ele>480.60000610352</ele>
        <time>2020-02-22T09:10:39.000Z</time>
      </trkpt>
      <trkpt lat="43.8015" lon="7.23519">
        <ele>480.39999389648</ele>
        <time>2020-02-22T09:10:44.000Z</time>
      </trkpt>
      <trkpt lat="43.80141" lon="7.23514">
        <ele>479.79998779297</ele>
        <time>2020-02-22T09:10:46.000Z</time>
      </trkpt>
      <trkpt lat="43.80134" lon="7.23512">
        <ele>479.20001220703</ele>
        <time>2020-02-22T09:10:48.000Z</time>
      </trkpt>
      <trkpt lat="43.80131" lon="7.23511">
        <ele>479</ele>
        <time>2020-02-22T09:10:49.000Z</time>
      </trkpt>
      <trkpt lat="43.80123" lon="7.23509">
        <ele>480.20001220703</ele>
        <time>2020-02-22T09:10:52.000Z</time>
      </trkpt>
      <trkpt lat="43.80115" lon="7.23509">
        <ele>481.60000610352</ele>
        <time>2020-02-22T09:10:55.000Z</time>
      </trkpt>
      <trkpt lat="43.80108" lon="7.23508">
        <ele>482.60000610352</ele>
        <time>2020-02-22T09:10:58.000Z</time>
      </trkpt>
      <trkpt lat="43.80098" lon="7.23505">
        <ele>484</ele>
        <time>2020-02-22T09:11:02.000Z</time>
      </trkpt>
      <trkpt lat="43.80095" lon="7.23504">
        <ele>484.20001220703</ele>
        <time>2020-02-22T09:11:03.000Z</time>
      </trkpt>
      <trkpt lat="43.80085" lon="7.23502">
        <ele>485</ele>
        <time>2020-02-22T09:11:07.000Z</time>
      </trkpt>
      <trkpt lat="43.80078" lon="7.23503">
        <ele>485.79998779297</ele>
        <time>2020-02-22T09:11:10.000Z</time>
      </trkpt>
      <trkpt lat="43.80074" lon="7.23505">
        <ele>486.20001220703</ele>
        <time>2020-02-22T09:11:12.000Z</time>
      </trkpt>
      <trkpt lat="43.80065" lon="7.23508">
        <ele>487.20001220703</ele>
        <time>2020-02-22T09:11:16.000Z</time>
      </trkpt>
      <trkpt lat="43.80063" lon="7.23509">
        <ele>487.60000610352</ele>
        <time>2020-02-22T09:11:17.000Z</time>
      </trkpt>
      <trkpt lat="43.80056" lon="7.23512">
        <ele>488.39999389648</ele>
        <time>2020-02-22T09:11:20.000Z</time>
      </trkpt>
      <trkpt lat="43.80047" lon="7.23513">
        <ele>489.60000610352</ele>
        <time>2020-02-22T09:11:24.000Z</time>
      </trkpt>
      <trkpt lat="43.80045" lon="7.23513">
        <ele>489.79998779297</ele>
        <time>2020-02-22T09:11:25.000Z</time>
      </trkpt>
      <trkpt lat="43.80039" lon="7.23512">
        <ele>490.60000610352</ele>
        <time>2020-02-22T09:11:28.000Z</time>
      </trkpt>
      <trkpt lat="43.8003" lon="7.2351">
        <ele>492</ele>
        <time>2020-02-22T09:11:32.000Z</time>
      </trkpt>
      <trkpt lat="43.80026" lon="7.2351">
        <ele>492.60000610352</ele>
        <time>2020-02-22T09:11:34.000Z</time>
      </trkpt>
      <trkpt lat="43.80024" lon="7.23511">
        <ele>493</ele>
        <time>2020-02-22T09:11:35.000Z</time>
      </trkpt>
      <trkpt lat="43.80018" lon="7.23519">
        <ele>494</ele>
        <time>2020-02-22T09:11:39.000Z</time>
      </trkpt>
      <trkpt lat="43.80017" lon="7.23533">
        <ele>495.20001220703</ele>
        <time>2020-02-22T09:11:44.000Z</time>
      </trkpt>
      <trkpt lat="43.80018" lon="7.23536">
        <ele>495.60000610352</ele>
        <time>2020-02-22T09:11:45.000Z</time>
      </trkpt>
      <trkpt lat="43.8002" lon="7.23544">
        <ele>496.39999389648</ele>
        <time>2020-02-22T09:11:48.000Z</time>
      </trkpt>
      <trkpt lat="43.80023" lon="7.23551">
        <ele>497.60000610352</ele>
        <time>2020-02-22T09:11:51.000Z</time>
      </trkpt>
      <trkpt lat="43.80025" lon="7.23556">
        <ele>498.39999389648</ele>
        <time>2020-02-22T09:11:53.000Z</time>
      </trkpt>
      <trkpt lat="43.80026" lon="7.23558">
        <ele>498.79998779297</ele>
        <time>2020-02-22T09:11:54.000Z</time>
      </trkpt>
      <trkpt lat="43.80032" lon="7.23565">
        <ele>499.79998779297</ele>
        <time>2020-02-22T09:11:57.000Z</time>
      </trkpt>
      <trkpt lat="43.80035" lon="7.23569">
        <ele>500.39999389648</ele>
        <time>2020-02-22T09:11:59.000Z</time>
      </trkpt>
      <trkpt lat="43.80039" lon="7.23572">
        <ele>501</ele>
        <time>2020-02-22T09:12:01.000Z</time>
      </trkpt>
      <trkpt lat="43.80048" lon="7.23576">
        <ele>502</ele>
        <time>2020-02-22T09:12:05.000Z</time>
      </trkpt>
      <trkpt lat="43.8005" lon="7.23576">
        <ele>502.39999389648</ele>
        <time>2020-02-22T09:12:06.000Z</time>
      </trkpt>
      <trkpt lat="43.80057" lon="7.23578">
        <ele>503.20001220703</ele>
        <time>2020-02-22T09:12:09.000Z</time>
      </trkpt>
      <trkpt lat="43.80072" lon="7.2358">
        <ele>504.20001220703</ele>
        <time>2020-02-22T09:12:15.000Z</time>
      </trkpt>
      <trkpt lat="43.80074" lon="7.2358">
        <ele>504.39999389648</ele>
        <time>2020-02-22T09:12:16.000Z</time>
      </trkpt>
      <trkpt lat="43.80087" lon="7.23581">
        <ele>505.20001220703</ele>
        <time>2020-02-22T09:12:21.000Z</time>
      </trkpt>
      <trkpt lat="43.80089" lon="7.23581">
        <ele>505.39999389648</ele>
        <time>2020-02-22T09:12:22.000Z</time>
      </trkpt>
      <trkpt lat="43.80102" lon="7.23585">
        <ele>506.39999389648</ele>
        <time>2020-02-22T09:12:27.000Z</time>
      </trkpt>
      <trkpt lat="43.80107" lon="7.23587">
        <ele>506.79998779297</ele>
        <time>2020-02-22T09:12:29.000Z</time>
      </trkpt>
      <trkpt lat="43.80114" lon="7.23598">
        <ele>507.39999389648</ele>
        <time>2020-02-22T09:12:33.000Z</time>
      </trkpt>
      <trkpt lat="43.80115" lon="7.23601">
        <ele>507.60000610352</ele>
        <time>2020-02-22T09:12:34.000Z</time>
      </trkpt>
      <trkpt lat="43.80126" lon="7.23623">
        <ele>508</ele>
        <time>2020-02-22T09:12:40.000Z</time>
      </trkpt>
      <trkpt lat="43.80141" lon="7.23638">
        <ele>508.60000610352</ele>
        <time>2020-02-22T09:12:46.000Z</time>
      </trkpt>
      <trkpt lat="43.80144" lon="7.2364">
        <ele>508.79998779297</ele>
        <time>2020-02-22T09:12:47.000Z</time>
      </trkpt>
      <trkpt lat="43.80165" lon="7.23644">
        <ele>509.39999389648</ele>
        <time>2020-02-22T09:12:54.000Z</time>
      </trkpt>
      <trkpt lat="43.80171" lon="7.23647">
        <ele>509.60000610352</ele>
        <time>2020-02-22T09:12:56.000Z</time>
      </trkpt>
      <trkpt lat="43.8018" lon="7.23655">
        <ele>510.39999389648</ele>
        <time>2020-02-22T09:13:00.000Z</time>
      </trkpt>
      <trkpt lat="43.80182" lon="7.23656">
        <ele>510.60000610352</ele>
        <time>2020-02-22T09:13:01.000Z</time>
      </trkpt>
      <trkpt lat="43.80191" lon="7.23662">
        <ele>512</ele>
        <time>2020-02-22T09:13:05.000Z</time>
      </trkpt>
      <trkpt lat="43.80194" lon="7.23665">
        <ele>512.59997558594</ele>
        <time>2020-02-22T09:13:07.000Z</time>
      </trkpt>
      <trkpt lat="43.80197" lon="7.23668">
        <ele>513.20001220703</ele>
        <time>2020-02-22T09:13:09.000Z</time>
      </trkpt>
      <trkpt lat="43.80198" lon="7.23671">
        <ele>513.59997558594</ele>
        <time>2020-02-22T09:13:10.000Z</time>
      </trkpt>
      <trkpt lat="43.80196" lon="7.23675">
        <ele>514.40002441406</ele>
        <time>2020-02-22T09:13:12.000Z</time>
      </trkpt>
      <trkpt lat="43.8019" lon="7.23677">
        <ele>515.40002441406</ele>
        <time>2020-02-22T09:13:15.000Z</time>
      </trkpt>
      <trkpt lat="43.80188" lon="7.23677">
        <ele>515.79998779297</ele>
        <time>2020-02-22T09:13:16.000Z</time>
      </trkpt>
      <trkpt lat="43.80184" lon="7.23677">
        <ele>516.40002441406</ele>
        <time>2020-02-22T09:13:18.000Z</time>
      </trkpt>
      <trkpt lat="43.80182" lon="7.23677">
        <ele>516.79998779297</ele>
        <time>2020-02-22T09:13:19.000Z</time>
      </trkpt>
      <trkpt lat="43.80174" lon="7.23678">
        <ele>517.79998779297</ele>
        <time>2020-02-22T09:13:23.000Z</time>
      </trkpt>
      <trkpt lat="43.80168" lon="7.2368">
        <ele>518.59997558594</ele>
        <time>2020-02-22T09:13:26.000Z</time>
      </trkpt>
      <trkpt lat="43.80166" lon="7.23681">
        <ele>519</ele>
        <time>2020-02-22T09:13:27.000Z</time>
      </trkpt>
      <trkpt lat="43.80156" lon="7.23685">
        <ele>520.20001220703</ele>
        <time>2020-02-22T09:13:32.000Z</time>
      </trkpt>
      <trkpt lat="43.80154" lon="7.23686">
        <ele>520.59997558594</ele>
        <time>2020-02-22T09:13:33.000Z</time>
      </trkpt>
      <trkpt lat="43.80147" lon="7.23688">
        <ele>521.40002441406</ele>
        <time>2020-02-22T09:13:36.000Z</time>
      </trkpt>
      <trkpt lat="43.80137" lon="7.23689">
        <ele>522.20001220703</ele>
        <time>2020-02-22T09:13:40.000Z</time>
      </trkpt>
      <trkpt lat="43.80135" lon="7.23689">
        <ele>522.40002441406</ele>
        <time>2020-02-22T09:13:41.000Z</time>
      </trkpt>
      <trkpt lat="43.80123" lon="7.23687">
        <ele>523.79998779297</ele>
        <time>2020-02-22T09:13:46.000Z</time>
      </trkpt>
      <trkpt lat="43.80116" lon="7.23687">
        <ele>524.40002441406</ele>
        <time>2020-02-22T09:13:49.000Z</time>
      </trkpt>
      <trkpt lat="43.80108" lon="7.23687">
        <ele>525</ele>
        <time>2020-02-22T09:13:52.000Z</time>
      </trkpt>
      <trkpt lat="43.80096" lon="7.23688">
        <ele>526</ele>
        <time>2020-02-22T09:13:57.000Z</time>
      </trkpt>
      <trkpt lat="43.80091" lon="7.23688">
        <ele>526.20001220703</ele>
        <time>2020-02-22T09:13:59.000Z</time>
      </trkpt>
      <trkpt lat="43.80079" lon="7.2369">
        <ele>527.20001220703</ele>
        <time>2020-02-22T09:14:04.000Z</time>
      </trkpt>
      <trkpt lat="43.80069" lon="7.2369">
        <ele>527.79998779297</ele>
        <time>2020-02-22T09:14:08.000Z</time>
      </trkpt>
      <trkpt lat="43.80064" lon="7.23689">
        <ele>528.20001220703</ele>
        <time>2020-02-22T09:14:10.000Z</time>
      </trkpt>
      <trkpt lat="43.80052" lon="7.23681">
        <ele>529</ele>
        <time>2020-02-22T09:14:15.000Z</time>
      </trkpt>
      <trkpt lat="43.80048" lon="7.23678">
        <ele>529.20001220703</ele>
        <time>2020-02-22T09:14:17.000Z</time>
      </trkpt>
      <trkpt lat="43.80039" lon="7.23673">
        <ele>529.59997558594</ele>
        <time>2020-02-22T09:14:21.000Z</time>
      </trkpt>
      <trkpt lat="43.80027" lon="7.23666">
        <ele>530.40002441406</ele>
        <time>2020-02-22T09:14:26.000Z</time>
      </trkpt>
      <trkpt lat="43.80018" lon="7.23661">
        <ele>530.79998779297</ele>
        <time>2020-02-22T09:14:30.000Z</time>
      </trkpt>
      <trkpt lat="43.80011" lon="7.23659">
        <ele>531.40002441406</ele>
        <time>2020-02-22T09:14:33.000Z</time>
      </trkpt>
      <trkpt lat="43.80001" lon="7.23656">
        <ele>532</ele>
        <time>2020-02-22T09:14:37.000Z</time>
      </trkpt>
      <trkpt lat="43.79996" lon="7.23654">
        <ele>532.59997558594</ele>
        <time>2020-02-22T09:14:39.000Z</time>
      </trkpt>
      <trkpt lat="43.79989" lon="7.2365">
        <ele>533.59997558594</ele>
        <time>2020-02-22T09:14:42.000Z</time>
      </trkpt>
      <trkpt lat="43.79983" lon="7.23646">
        <ele>534.79998779297</ele>
        <time>2020-02-22T09:14:45.000Z</time>
      </trkpt>
      <trkpt lat="43.79975" lon="7.23643">
        <ele>536</ele>
        <time>2020-02-22T09:14:49.000Z</time>
      </trkpt>
      <trkpt lat="43.79971" lon="7.23646">
        <ele>536.59997558594</ele>
        <time>2020-02-22T09:14:51.000Z</time>
      </trkpt>
      <trkpt lat="43.79971" lon="7.23651">
        <ele>537.20001220703</ele>
        <time>2020-02-22T09:14:53.000Z</time>
      </trkpt>
      <trkpt lat="43.79973" lon="7.23656">
        <ele>537.59997558594</ele>
        <time>2020-02-22T09:14:55.000Z</time>
      </trkpt>
      <trkpt lat="43.79977" lon="7.23662">
        <ele>538.40002441406</ele>
        <time>2020-02-22T09:14:58.000Z</time>
      </trkpt>
      <trkpt lat="43.79982" lon="7.23669">
        <ele>539</ele>
        <time>2020-02-22T09:15:01.000Z</time>
      </trkpt>
      <trkpt lat="43.79985" lon="7.23673">
        <ele>539.59997558594</ele>
        <time>2020-02-22T09:15:03.000Z</time>
      </trkpt>
      <trkpt lat="43.79993" lon="7.23685">
        <ele>540.79998779297</ele>
        <time>2020-02-22T09:15:08.000Z</time>
      </trkpt>
      <trkpt lat="43.79996" lon="7.23689">
        <ele>541.40002441406</ele>
        <time>2020-02-22T09:15:10.000Z</time>
      </trkpt>
      <trkpt lat="43.8" lon="7.23692">
        <ele>541.79998779297</ele>
        <time>2020-02-22T09:15:12.000Z</time>
      </trkpt>
      <trkpt lat="43.80011" lon="7.23699">
        <ele>542.79998779297</ele>
        <time>2020-02-22T09:15:17.000Z</time>
      </trkpt>
      <trkpt lat="43.80014" lon="7.237">
        <ele>543.20001220703</ele>
        <time>2020-02-22T09:15:18.000Z</time>
      </trkpt>
      <trkpt lat="43.80025" lon="7.23708">
        <ele>544</ele>
        <time>2020-02-22T09:15:23.000Z</time>
      </trkpt>
      <trkpt lat="43.80037" lon="7.23717">
        <ele>544.79998779297</ele>
        <time>2020-02-22T09:15:28.000Z</time>
      </trkpt>
      <trkpt lat="43.80048" lon="7.23724">
        <ele>545.20001220703</ele>
        <time>2020-02-22T09:15:32.000Z</time>
      </trkpt>
      <trkpt lat="43.80062" lon="7.23732">
        <ele>545.20001220703</ele>
        <time>2020-02-22T09:15:36.000Z</time>
      </trkpt>
      <trkpt lat="43.80086" lon="7.23739">
        <ele>544.40002441406</ele>
        <time>2020-02-22T09:15:43.000Z</time>
      </trkpt>
      <trkpt lat="43.80102" lon="7.23739">
        <ele>545.40002441406</ele>
        <time>2020-02-22T09:15:49.000Z</time>
      </trkpt>
      <trkpt lat="43.80108" lon="7.2374">
        <ele>546.40002441406</ele>
        <time>2020-02-22T09:15:52.000Z</time>
      </trkpt>
      <trkpt lat="43.80115" lon="7.23742">
        <ele>547.40002441406</ele>
        <time>2020-02-22T09:15:55.000Z</time>
      </trkpt>
      <trkpt lat="43.80117" lon="7.23742">
        <ele>547.79998779297</ele>
        <time>2020-02-22T09:15:56.000Z</time>
      </trkpt>
      <trkpt lat="43.80123" lon="7.23744">
        <ele>548.79998779297</ele>
        <time>2020-02-22T09:15:59.000Z</time>
      </trkpt>
      <trkpt lat="43.8013" lon="7.23746">
        <ele>550.20001220703</ele>
        <time>2020-02-22T09:16:02.000Z</time>
      </trkpt>
      <trkpt lat="43.80132" lon="7.23746">
        <ele>550.79998779297</ele>
        <time>2020-02-22T09:16:03.000Z</time>
      </trkpt>
      <trkpt lat="43.80136" lon="7.23747">
        <ele>551.40002441406</ele>
        <time>2020-02-22T09:16:05.000Z</time>
      </trkpt>
      <trkpt lat="43.80143" lon="7.23749">
        <ele>552.79998779297</ele>
        <time>2020-02-22T09:16:08.000Z</time>
      </trkpt>
      <trkpt lat="43.80149" lon="7.2375">
        <ele>553.79998779297</ele>
        <time>2020-02-22T09:16:11.000Z</time>
      </trkpt>
      <trkpt lat="43.80159" lon="7.23751">
        <ele>555</ele>
        <time>2020-02-22T09:16:16.000Z</time>
      </trkpt>
      <trkpt lat="43.80165" lon="7.23752">
        <ele>556</ele>
        <time>2020-02-22T09:16:19.000Z</time>
      </trkpt>
      <trkpt lat="43.80167" lon="7.23752">
        <ele>556.40002441406</ele>
        <time>2020-02-22T09:16:20.000Z</time>
      </trkpt>
      <trkpt lat="43.80173" lon="7.23753">
        <ele>557.40002441406</ele>
        <time>2020-02-22T09:16:23.000Z</time>
      </trkpt>
      <trkpt lat="43.80181" lon="7.23755">
        <ele>558.20001220703</ele>
        <time>2020-02-22T09:16:27.000Z</time>
      </trkpt>
      <trkpt lat="43.80183" lon="7.23755">
        <ele>558.59997558594</ele>
        <time>2020-02-22T09:16:28.000Z</time>
      </trkpt>
      <trkpt lat="43.80191" lon="7.23757">
        <ele>559.59997558594</ele>
        <time>2020-02-22T09:16:32.000Z</time>
      </trkpt>
      <trkpt lat="43.80195" lon="7.23759">
        <ele>560</ele>
        <time>2020-02-22T09:16:34.000Z</time>
      </trkpt>
      <trkpt lat="43.80201" lon="7.23761">
        <ele>560.79998779297</ele>
        <time>2020-02-22T09:16:37.000Z</time>
      </trkpt>
      <trkpt lat="43.8021" lon="7.23766">
        <ele>561.79998779297</ele>
        <time>2020-02-22T09:16:42.000Z</time>
      </trkpt>
      <trkpt lat="43.80211" lon="7.23767">
        <ele>562</ele>
        <time>2020-02-22T09:16:43.000Z</time>
      </trkpt>
      <trkpt lat="43.80222" lon="7.23779">
        <ele>563</ele>
        <time>2020-02-22T09:16:50.000Z</time>
      </trkpt>
      <trkpt lat="43.80232" lon="7.23793">
        <ele>563.79998779297</ele>
        <time>2020-02-22T09:16:57.000Z</time>
      </trkpt>
      <trkpt lat="43.80234" lon="7.23798">
        <ele>564.20001220703</ele>
        <time>2020-02-22T09:16:59.000Z</time>
      </trkpt>
      <trkpt lat="43.80239" lon="7.23808">
        <ele>564.79998779297</ele>
        <time>2020-02-22T09:17:03.000Z</time>
      </trkpt>
      <trkpt lat="43.80243" lon="7.23816">
        <ele>565.20001220703</ele>
        <time>2020-02-22T09:17:06.000Z</time>
      </trkpt>
      <trkpt lat="43.80247" lon="7.23825">
        <ele>566.40002441406</ele>
        <time>2020-02-22T09:17:10.000Z</time>
      </trkpt>
      <trkpt lat="43.80247" lon="7.23828">
        <ele>566.59997558594</ele>
        <time>2020-02-22T09:17:11.000Z</time>
      </trkpt>
      <trkpt lat="43.80249" lon="7.23836">
        <ele>567.59997558594</ele>
        <time>2020-02-22T09:17:15.000Z</time>
      </trkpt>
      <trkpt lat="43.80251" lon="7.23847">
        <ele>568.59997558594</ele>
        <time>2020-02-22T09:17:19.000Z</time>
      </trkpt>
      <trkpt lat="43.80251" lon="7.2386">
        <ele>569.79998779297</ele>
        <time>2020-02-22T09:17:23.000Z</time>
      </trkpt>
      <trkpt lat="43.80251" lon="7.23868">
        <ele>571</ele>
        <time>2020-02-22T09:17:26.000Z</time>
      </trkpt>
      <trkpt lat="43.80252" lon="7.2387">
        <ele>571.40002441406</ele>
        <time>2020-02-22T09:17:27.000Z</time>
      </trkpt>
      <trkpt lat="43.80252" lon="7.23875">
        <ele>572</ele>
        <time>2020-02-22T09:17:29.000Z</time>
      </trkpt>
      <trkpt lat="43.80252" lon="7.23883">
        <ele>573</ele>
        <time>2020-02-22T09:17:32.000Z</time>
      </trkpt>
      <trkpt lat="43.80252" lon="7.23893">
        <ele>574.40002441406</ele>
        <time>2020-02-22T09:17:36.000Z</time>
      </trkpt>
      <trkpt lat="43.80253" lon="7.23896">
        <ele>574.59997558594</ele>
        <time>2020-02-22T09:17:37.000Z</time>
      </trkpt>
      <trkpt lat="43.80257" lon="7.23901">
        <ele>575.40002441406</ele>
        <time>2020-02-22T09:17:40.000Z</time>
      </trkpt>
      <trkpt lat="43.80261" lon="7.23903">
        <ele>575.79998779297</ele>
        <time>2020-02-22T09:17:42.000Z</time>
      </trkpt>
      <trkpt lat="43.80268" lon="7.23902">
        <ele>576.59997558594</ele>
        <time>2020-02-22T09:17:45.000Z</time>
      </trkpt>
      <trkpt lat="43.80273" lon="7.23899">
        <ele>577</ele>
        <time>2020-02-22T09:17:47.000Z</time>
      </trkpt>
      <trkpt lat="43.8028" lon="7.23894">
        <ele>577.59997558594</ele>
        <time>2020-02-22T09:17:50.000Z</time>
      </trkpt>
      <trkpt lat="43.80288" lon="7.23887">
        <ele>577.79998779297</ele>
        <time>2020-02-22T09:17:54.000Z</time>
      </trkpt>
      <trkpt lat="43.80299" lon="7.23878">
        <ele>578.59997558594</ele>
        <time>2020-02-22T09:17:59.000Z</time>
      </trkpt>
      <trkpt lat="43.80309" lon="7.23869">
        <ele>579.20001220703</ele>
        <time>2020-02-22T09:18:04.000Z</time>
      </trkpt>
      <trkpt lat="43.80315" lon="7.23863">
        <ele>579.59997558594</ele>
        <time>2020-02-22T09:18:07.000Z</time>
      </trkpt>
      <trkpt lat="43.80325" lon="7.23854">
        <ele>580.40002441406</ele>
        <time>2020-02-22T09:18:12.000Z</time>
      </trkpt>
      <trkpt lat="43.80329" lon="7.23851">
        <ele>580.79998779297</ele>
        <time>2020-02-22T09:18:14.000Z</time>
      </trkpt>
      <trkpt lat="43.80335" lon="7.23846">
        <ele>581.79998779297</ele>
        <time>2020-02-22T09:18:19.000Z</time>
      </trkpt>
      <trkpt lat="43.80341" lon="7.23837">
        <ele>582.40002441406</ele>
        <time>2020-02-22T09:18:25.000Z</time>
      </trkpt>
      <trkpt lat="43.80352" lon="7.23824">
        <ele>582.20001220703</ele>
        <time>2020-02-22T09:18:32.000Z</time>
      </trkpt>
      <trkpt lat="43.80355" lon="7.23823">
        <ele>582.79998779297</ele>
        <time>2020-02-22T09:18:35.000Z</time>
      </trkpt>
      <trkpt lat="43.80356" lon="7.23823">
        <ele>584.40002441406</ele>
        <time>2020-02-22T09:18:37.000Z</time>
      </trkpt>
      <trkpt lat="43.80356" lon="7.23823">
        <ele>585.40002441406</ele>
        <time>2020-02-22T09:18:41.000Z</time>
      </trkpt>
      <trkpt lat="43.80357" lon="7.23823">
        <ele>585.59997558594</ele>
        <time>2020-02-22T09:18:44.000Z</time>
      </trkpt>
      <trkpt lat="43.8036" lon="7.23822">
        <ele>586.40002441406</ele>
        <time>2020-02-22T09:18:50.000Z</time>
      </trkpt>
      <trkpt lat="43.80363" lon="7.2382">
        <ele>587.40002441406</ele>
        <time>2020-02-22T09:18:57.000Z</time>
      </trkpt>
      <trkpt lat="43.80363" lon="7.23819">
        <ele>588</ele>
        <time>2020-02-22T09:19:03.000Z</time>
      </trkpt>
      <trkpt lat="43.80364" lon="7.2382">
        <ele>588</ele>
        <time>2020-02-22T09:19:07.000Z</time>
      </trkpt>
      <trkpt lat="43.80366" lon="7.23819">
        <ele>588.40002441406</ele>
        <time>2020-02-22T09:19:12.000Z</time>
      </trkpt>
      <trkpt lat="43.80366" lon="7.23819">
        <ele>588.59997558594</ele>
        <time>2020-02-22T09:19:13.000Z</time>
      </trkpt>
      <trkpt lat="43.8037" lon="7.23817">
        <ele>589.40002441406</ele>
        <time>2020-02-22T09:19:21.000Z</time>
      </trkpt>
      <trkpt lat="43.8037" lon="7.23817">
        <ele>589.59997558594</ele>
        <time>2020-02-22T09:19:22.000Z</time>
      </trkpt>
      <trkpt lat="43.80372" lon="7.23816">
        <ele>590.59997558594</ele>
        <time>2020-02-22T09:19:28.000Z</time>
      </trkpt>
      <trkpt lat="43.80373" lon="7.23816">
        <ele>591</ele>
        <time>2020-02-22T09:19:30.000Z</time>
      </trkpt>
      <trkpt lat="43.80373" lon="7.23816">
        <ele>591.59997558594</ele>
        <time>2020-02-22T09:19:40.000Z</time>
      </trkpt>
      <trkpt lat="43.80375" lon="7.23814">
        <ele>591.59997558594</ele>
        <time>2020-02-22T09:19:51.000Z</time>
      </trkpt>
      <trkpt lat="43.80376" lon="7.23814">
        <ele>591.79998779297</ele>
        <time>2020-02-22T09:19:52.000Z</time>
      </trkpt>
      <trkpt lat="43.8038" lon="7.2381">
        <ele>592.79998779297</ele>
        <time>2020-02-22T09:20:01.000Z</time>
      </trkpt>
      <trkpt lat="43.80384" lon="7.23808">
        <ele>593.79998779297</ele>
        <time>2020-02-22T09:20:08.000Z</time>
      </trkpt>
      <trkpt lat="43.80384" lon="7.23808">
        <ele>594.20001220703</ele>
        <time>2020-02-22T09:20:10.000Z</time>
      </trkpt>
      <trkpt lat="43.80387" lon="7.23805">
        <ele>594.79998779297</ele>
        <time>2020-02-22T09:20:15.000Z</time>
      </trkpt>
      <trkpt lat="43.80389" lon="7.23804">
        <ele>595.40002441406</ele>
        <time>2020-02-22T09:20:18.000Z</time>
      </trkpt>
      <trkpt lat="43.80391" lon="7.23802">
        <ele>596</ele>
        <time>2020-02-22T09:20:24.000Z</time>
      </trkpt>
      <trkpt lat="43.80391" lon="7.23802">
        <ele>596.40002441406</ele>
        <time>2020-02-22T09:20:27.000Z</time>
      </trkpt>
      <trkpt lat="43.80391" lon="7.23802">
        <ele>596</ele>
        <time>2020-02-22T09:20:33.000Z</time>
      </trkpt>
      <trkpt lat="43.80392" lon="7.238">
        <ele>596.59997558594</ele>
        <time>2020-02-22T09:20:40.000Z</time>
      </trkpt>
      <trkpt lat="43.80394" lon="7.23798">
        <ele>597</ele>
        <time>2020-02-22T09:20:46.000Z</time>
      </trkpt>
      <trkpt lat="43.80395" lon="7.23797">
        <ele>598</ele>
        <time>2020-02-22T09:20:53.000Z</time>
      </trkpt>
      <trkpt lat="43.80395" lon="7.23796">
        <ele>598.20001220703</ele>
        <time>2020-02-22T09:20:54.000Z</time>
      </trkpt>
      <trkpt lat="43.80396" lon="7.23794">
        <ele>599</ele>
        <time>2020-02-22T09:21:00.000Z</time>
      </trkpt>
      <trkpt lat="43.80396" lon="7.23793">
        <ele>599</ele>
        <time>2020-02-22T09:21:10.000Z</time>
      </trkpt>
      <trkpt lat="43.80396" lon="7.23793">
        <ele>599.20001220703</ele>
        <time>2020-02-22T09:21:11.000Z</time>
      </trkpt>
      <trkpt lat="43.80397" lon="7.23791">
        <ele>599.79998779297</ele>
        <time>2020-02-22T09:21:16.000Z</time>
      </trkpt>
      <trkpt lat="43.80398" lon="7.23791">
        <ele>600.40002441406</ele>
        <time>2020-02-22T09:21:20.000Z</time>
      </trkpt>
      <trkpt lat="43.80399" lon="7.23792">
        <ele>600.59997558594</ele>
        <time>2020-02-22T09:21:23.000Z</time>
      </trkpt>
      <trkpt lat="43.80401" lon="7.23793">
        <ele>601.40002441406</ele>
        <time>2020-02-22T09:21:31.000Z</time>
      </trkpt>
      <trkpt lat="43.80403" lon="7.23789">
        <ele>602.59997558594</ele>
        <time>2020-02-22T09:21:37.000Z</time>
      </trkpt>
      <trkpt lat="43.80404" lon="7.23788">
        <ele>602.59997558594</ele>
        <time>2020-02-22T09:21:38.000Z</time>
      </trkpt>
      <trkpt lat="43.80408" lon="7.23783">
        <ele>603.40002441406</ele>
        <time>2020-02-22T09:21:46.000Z</time>
      </trkpt>
      <trkpt lat="43.80408" lon="7.23783">
        <ele>603.59997558594</ele>
        <time>2020-02-22T09:21:47.000Z</time>
      </trkpt>
      <trkpt lat="43.8041" lon="7.23781">
        <ele>604.40002441406</ele>
        <time>2020-02-22T09:21:53.000Z</time>
      </trkpt>
      <trkpt lat="43.80411" lon="7.2378">
        <ele>604.59997558594</ele>
        <time>2020-02-22T09:21:55.000Z</time>
      </trkpt>
      <trkpt lat="43.80411" lon="7.2378">
        <ele>605</ele>
        <time>2020-02-22T09:22:01.000Z</time>
      </trkpt>
      <trkpt lat="43.80413" lon="7.23776">
        <ele>605.20001220703</ele>
        <time>2020-02-22T09:22:08.000Z</time>
      </trkpt>
      <trkpt lat="43.80414" lon="7.23776">
        <ele>605.79998779297</ele>
        <time>2020-02-22T09:22:14.000Z</time>
      </trkpt>
      <trkpt lat="43.80414" lon="7.23776">
        <ele>605.79998779297</ele>
        <time>2020-02-22T09:22:15.000Z</time>
      </trkpt>
      <trkpt lat="43.80416" lon="7.23776">
        <ele>606</ele>
        <time>2020-02-22T09:22:25.000Z</time>
      </trkpt>
      <trkpt lat="43.80417" lon="7.23776">
        <ele>606.59997558594</ele>
        <time>2020-02-22T09:22:34.000Z</time>
      </trkpt>
      <trkpt lat="43.80418" lon="7.23777">
        <ele>606.40002441406</ele>
        <time>2020-02-22T09:22:41.000Z</time>
      </trkpt>
      <trkpt lat="43.80419" lon="7.23777">
        <ele>606.79998779297</ele>
        <time>2020-02-22T09:22:45.000Z</time>
      </trkpt>
      <trkpt lat="43.80418" lon="7.23777">
        <ele>606.79998779297</ele>
        <time>2020-02-22T09:22:46.000Z</time>
      </trkpt>
      <trkpt lat="43.80419" lon="7.23777">
        <ele>607.59997558594</ele>
        <time>2020-02-22T09:22:51.000Z</time>
      </trkpt>
      <trkpt lat="43.8042" lon="7.23775">
        <ele>607.79998779297</ele>
        <time>2020-02-22T09:22:53.000Z</time>
      </trkpt>
      <trkpt lat="43.80423" lon="7.23773">
        <ele>608</ele>
        <time>2020-02-22T09:22:57.000Z</time>
      </trkpt>
      <trkpt lat="43.80425" lon="7.23768">
        <ele>608</ele>
        <time>2020-02-22T09:23:04.000Z</time>
      </trkpt>
      <trkpt lat="43.80429" lon="7.23765">
        <ele>607.79998779297</ele>
        <time>2020-02-22T09:23:11.000Z</time>
      </trkpt>
      <trkpt lat="43.80431" lon="7.23764">
        <ele>608.20001220703</ele>
        <time>2020-02-22T09:23:18.000Z</time>
      </trkpt>
      <trkpt lat="43.80435" lon="7.23762">
        <ele>608.79998779297</ele>
        <time>2020-02-22T09:23:26.000Z</time>
      </trkpt>
      <trkpt lat="43.80436" lon="7.23762">
        <ele>609.59997558594</ele>
        <time>2020-02-22T09:23:34.000Z</time>
      </trkpt>
      <trkpt lat="43.80436" lon="7.23762">
        <ele>609.59997558594</ele>
        <time>2020-02-22T09:23:57.000Z</time>
      </trkpt>
      <trkpt lat="43.80437" lon="7.23761">
        <ele>609.59997558594</ele>
        <time>2020-02-22T09:24:25.000Z</time>
      </trkpt>
      <trkpt lat="43.8044" lon="7.23757">
        <ele>609.59997558594</ele>
        <time>2020-02-22T09:24:32.000Z</time>
      </trkpt>
      <trkpt lat="43.80443" lon="7.23755">
        <ele>609.59997558594</ele>
        <time>2020-02-22T09:24:40.000Z</time>
      </trkpt>
      <trkpt lat="43.80447" lon="7.23754">
        <ele>609.59997558594</ele>
        <time>2020-02-22T09:24:47.000Z</time>
      </trkpt>
      <trkpt lat="43.80449" lon="7.23754">
        <ele>610</ele>
        <time>2020-02-22T09:24:50.000Z</time>
      </trkpt>
      <trkpt lat="43.80452" lon="7.23753">
        <ele>610.79998779297</ele>
        <time>2020-02-22T09:24:55.000Z</time>
      </trkpt>
      <trkpt lat="43.80454" lon="7.23753">
        <ele>611</ele>
        <time>2020-02-22T09:24:58.000Z</time>
      </trkpt>
      <trkpt lat="43.80456" lon="7.23753">
        <ele>611.40002441406</ele>
        <time>2020-02-22T09:25:03.000Z</time>
      </trkpt>
      <trkpt lat="43.80458" lon="7.23753">
        <ele>611.79998779297</ele>
        <time>2020-02-22T09:25:14.000Z</time>
      </trkpt>
      <trkpt lat="43.80459" lon="7.23755">
        <ele>612</ele>
        <time>2020-02-22T09:25:16.000Z</time>
      </trkpt>
      <trkpt lat="43.80461" lon="7.23755">
        <ele>613</ele>
        <time>2020-02-22T09:25:23.000Z</time>
      </trkpt>
      <trkpt lat="43.80461" lon="7.23755">
        <ele>613.20001220703</ele>
        <time>2020-02-22T09:25:25.000Z</time>
      </trkpt>
      <trkpt lat="43.80464" lon="7.23755">
        <ele>613.40002441406</ele>
        <time>2020-02-22T09:25:29.000Z</time>
      </trkpt>
      <trkpt lat="43.80467" lon="7.23756">
        <ele>614.40002441406</ele>
        <time>2020-02-22T09:25:36.000Z</time>
      </trkpt>
      <trkpt lat="43.80468" lon="7.23757">
        <ele>614.40002441406</ele>
        <time>2020-02-22T09:25:37.000Z</time>
      </trkpt>
      <trkpt lat="43.80472" lon="7.23757">
        <ele>615.40002441406</ele>
        <time>2020-02-22T09:25:45.000Z</time>
      </trkpt>
      <trkpt lat="43.80475" lon="7.2376">
        <ele>616.40002441406</ele>
        <time>2020-02-22T09:25:53.000Z</time>
      </trkpt>
      <trkpt lat="43.80475" lon="7.2376">
        <ele>616.59997558594</ele>
        <time>2020-02-22T09:25:54.000Z</time>
      </trkpt>
      <trkpt lat="43.80475" lon="7.23759">
        <ele>617</ele>
        <time>2020-02-22T09:26:06.000Z</time>
      </trkpt>
      <trkpt lat="43.80476" lon="7.2376">
        <ele>617.20001220703</ele>
        <time>2020-02-22T09:26:15.000Z</time>
      </trkpt>
      <trkpt lat="43.80477" lon="7.23761">
        <ele>617.40002441406</ele>
        <time>2020-02-22T09:26:18.000Z</time>
      </trkpt>
      <trkpt lat="43.80478" lon="7.23763">
        <ele>617.79998779297</ele>
        <time>2020-02-22T09:26:23.000Z</time>
      </trkpt>
      <trkpt lat="43.8048" lon="7.23765">
        <ele>618.59997558594</ele>
        <time>2020-02-22T09:26:28.000Z</time>
      </trkpt>
      <trkpt lat="43.8048" lon="7.23764">
        <ele>618.59997558594</ele>
        <time>2020-02-22T09:26:29.000Z</time>
      </trkpt>
      <trkpt lat="43.80482" lon="7.23766">
        <ele>619.59997558594</ele>
        <time>2020-02-22T09:26:34.000Z</time>
      </trkpt>
      <trkpt lat="43.80483" lon="7.23766">
        <ele>620</ele>
        <time>2020-02-22T09:26:37.000Z</time>
      </trkpt>
      <trkpt lat="43.80485" lon="7.23768">
        <ele>620.79998779297</ele>
        <time>2020-02-22T09:26:42.000Z</time>
      </trkpt>
      <trkpt lat="43.80486" lon="7.2377">
        <ele>621.20001220703</ele>
        <time>2020-02-22T09:26:45.000Z</time>
      </trkpt>
      <trkpt lat="43.80486" lon="7.2377">
        <ele>621.59997558594</ele>
        <time>2020-02-22T09:26:50.000Z</time>
      </trkpt>
      <trkpt lat="43.80486" lon="7.23771">
        <ele>622</ele>
        <time>2020-02-22T09:26:56.000Z</time>
      </trkpt>
      <trkpt lat="43.80486" lon="7.23774">
        <ele>622.40002441406</ele>
        <time>2020-02-22T09:27:06.000Z</time>
      </trkpt>
      <trkpt lat="43.80486" lon="7.23775">
        <ele>623</ele>
        <time>2020-02-22T09:27:12.000Z</time>
      </trkpt>
      <trkpt lat="43.80487" lon="7.23775">
        <ele>623.20001220703</ele>
        <time>2020-02-22T09:27:13.000Z</time>
      </trkpt>
      <trkpt lat="43.80487" lon="7.23775">
        <ele>623.59997558594</ele>
        <time>2020-02-22T09:27:25.000Z</time>
      </trkpt>
      <trkpt lat="43.80487" lon="7.23775">
        <ele>623.40002441406</ele>
        <time>2020-02-22T09:27:39.000Z</time>
      </trkpt>
      <trkpt lat="43.8049" lon="7.23776">
        <ele>623.79998779297</ele>
        <time>2020-02-22T09:27:45.000Z</time>
      </trkpt>
      <trkpt lat="43.80491" lon="7.23777">
        <ele>624.20001220703</ele>
        <time>2020-02-22T09:27:47.000Z</time>
      </trkpt>
      <trkpt lat="43.80493" lon="7.23779">
        <ele>624.79998779297</ele>
        <time>2020-02-22T09:27:52.000Z</time>
      </trkpt>
      <trkpt lat="43.80493" lon="7.23779">
        <ele>625.20001220703</ele>
        <time>2020-02-22T09:27:56.000Z</time>
      </trkpt>
      <trkpt lat="43.80493" lon="7.23781">
        <ele>625.40002441406</ele>
        <time>2020-02-22T09:27:59.000Z</time>
      </trkpt>
      <trkpt lat="43.80494" lon="7.23781">
        <ele>626.20001220703</ele>
        <time>2020-02-22T09:28:04.000Z</time>
      </trkpt>
      <trkpt lat="43.80494" lon="7.23781">
        <ele>626.20001220703</ele>
        <time>2020-02-22T09:28:05.000Z</time>
      </trkpt>
      <trkpt lat="43.80496" lon="7.23782">
        <ele>626.40002441406</ele>
        <time>2020-02-22T09:28:15.000Z</time>
      </trkpt>
      <trkpt lat="43.805" lon="7.23784">
        <ele>627.20001220703</ele>
        <time>2020-02-22T09:28:23.000Z</time>
      </trkpt>
      <trkpt lat="43.80501" lon="7.23784">
        <ele>627.40002441406</ele>
        <time>2020-02-22T09:28:24.000Z</time>
      </trkpt>
      <trkpt lat="43.80502" lon="7.23785">
        <ele>627.59997558594</ele>
        <time>2020-02-22T09:28:26.000Z</time>
      </trkpt>
      <trkpt lat="43.80506" lon="7.23787">
        <ele>628</ele>
        <time>2020-02-22T09:28:31.000Z</time>
      </trkpt>
      <trkpt lat="43.80507" lon="7.23789">
        <ele>628.40002441406</ele>
        <time>2020-02-22T09:28:34.000Z</time>
      </trkpt>
      <trkpt lat="43.80508" lon="7.23791">
        <ele>629</ele>
        <time>2020-02-22T09:28:38.000Z</time>
      </trkpt>
      <trkpt lat="43.80507" lon="7.23792">
        <ele>629.40002441406</ele>
        <time>2020-02-22T09:28:42.000Z</time>
      </trkpt>
      <trkpt lat="43.80507" lon="7.23793">
        <ele>630</ele>
        <time>2020-02-22T09:28:47.000Z</time>
      </trkpt>
      <trkpt lat="43.80508" lon="7.23797">
        <ele>630.40002441406</ele>
        <time>2020-02-22T09:28:54.000Z</time>
      </trkpt>
      <trkpt lat="43.80507" lon="7.23799">
        <ele>631.40002441406</ele>
        <time>2020-02-22T09:29:03.000Z</time>
      </trkpt>
      <trkpt lat="43.80506" lon="7.238">
        <ele>631.79998779297</ele>
        <time>2020-02-22T09:29:10.000Z</time>
      </trkpt>
      <trkpt lat="43.80506" lon="7.23802">
        <ele>632.20001220703</ele>
        <time>2020-02-22T09:29:17.000Z</time>
      </trkpt>
      <trkpt lat="43.80505" lon="7.23806">
        <ele>632.40002441406</ele>
        <time>2020-02-22T09:29:29.000Z</time>
      </trkpt>
      <trkpt lat="43.80504" lon="7.23807">
        <ele>632.59997558594</ele>
        <time>2020-02-22T09:29:31.000Z</time>
      </trkpt>
      <trkpt lat="43.80503" lon="7.23808">
        <ele>633.20001220703</ele>
        <time>2020-02-22T09:29:37.000Z</time>
      </trkpt>
      <trkpt lat="43.80503" lon="7.23808">
        <ele>633.59997558594</ele>
        <time>2020-02-22T09:29:45.000Z</time>
      </trkpt>
      <trkpt lat="43.80503" lon="7.23808">
        <ele>633.59997558594</ele>
        <time>2020-02-22T09:29:46.000Z</time>
      </trkpt>
      <trkpt lat="43.80503" lon="7.2381">
        <ele>633.40002441406</ele>
        <time>2020-02-22T09:30:00.000Z</time>
      </trkpt>
      <trkpt lat="43.80503" lon="7.23812">
        <ele>633.40002441406</ele>
        <time>2020-02-22T09:30:05.000Z</time>
      </trkpt>
      <trkpt lat="43.80502" lon="7.23819">
        <ele>633.40002441406</ele>
        <time>2020-02-22T09:30:12.000Z</time>
      </trkpt>
      <trkpt lat="43.80504" lon="7.23834">
        <ele>634</ele>
        <time>2020-02-22T09:30:18.000Z</time>
      </trkpt>
      <trkpt lat="43.80504" lon="7.23841">
        <ele>634.59997558594</ele>
        <time>2020-02-22T09:30:22.000Z</time>
      </trkpt>
      <trkpt lat="43.80504" lon="7.23843">
        <ele>634.59997558594</ele>
        <time>2020-02-22T09:30:23.000Z</time>
      </trkpt>
      <trkpt lat="43.8051" lon="7.23858">
        <ele>635</ele>
        <time>2020-02-22T09:30:30.000Z</time>
      </trkpt>
      <trkpt lat="43.80513" lon="7.23875">
        <ele>634.79998779297</ele>
        <time>2020-02-22T09:30:35.000Z</time>
      </trkpt>
      <trkpt lat="43.80514" lon="7.23882">
        <ele>635.79998779297</ele>
        <time>2020-02-22T09:30:38.000Z</time>
      </trkpt>
      <trkpt lat="43.80514" lon="7.23885">
        <ele>636.20001220703</ele>
        <time>2020-02-22T09:30:39.000Z</time>
      </trkpt>
      <trkpt lat="43.80514" lon="7.23886">
        <ele>637</ele>
        <time>2020-02-22T09:30:41.000Z</time>
      </trkpt>
      <trkpt lat="43.80514" lon="7.23889">
        <ele>637.59997558594</ele>
        <time>2020-02-22T09:30:43.000Z</time>
      </trkpt>
      <trkpt lat="43.80517" lon="7.23892">
        <ele>638</ele>
        <time>2020-02-22T09:30:45.000Z</time>
      </trkpt>
      <trkpt lat="43.80517" lon="7.23896">
        <ele>638.20001220703</ele>
        <time>2020-02-22T09:30:48.000Z</time>
      </trkpt>
      <trkpt lat="43.80517" lon="7.23897">
        <ele>638.20001220703</ele>
        <time>2020-02-22T09:30:49.000Z</time>
      </trkpt>
      <trkpt lat="43.80516" lon="7.23902">
        <ele>638.59997558594</ele>
        <time>2020-02-22T09:30:53.000Z</time>
      </trkpt>
      <trkpt lat="43.80511" lon="7.23912">
        <ele>639</ele>
        <time>2020-02-22T09:30:58.000Z</time>
      </trkpt>
      <trkpt lat="43.80511" lon="7.23914">
        <ele>639.20001220703</ele>
        <time>2020-02-22T09:30:59.000Z</time>
      </trkpt>
      <trkpt lat="43.80515" lon="7.23923">
        <ele>640.20001220703</ele>
        <time>2020-02-22T09:31:03.000Z</time>
      </trkpt>
      <trkpt lat="43.80518" lon="7.23935">
        <ele>640</ele>
        <time>2020-02-22T09:31:07.000Z</time>
      </trkpt>
      <trkpt lat="43.80523" lon="7.23943">
        <ele>639.59997558594</ele>
        <time>2020-02-22T09:31:10.000Z</time>
      </trkpt>
      <trkpt lat="43.80528" lon="7.23949">
        <ele>639.79998779297</ele>
        <time>2020-02-22T09:31:13.000Z</time>
      </trkpt>
      <trkpt lat="43.8053" lon="7.23951">
        <ele>640</ele>
        <time>2020-02-22T09:31:15.000Z</time>
      </trkpt>
      <trkpt lat="43.80532" lon="7.23952">
        <ele>640.59997558594</ele>
        <time>2020-02-22T09:31:17.000Z</time>
      </trkpt>
      <trkpt lat="43.80532" lon="7.23952">
        <ele>641.40002441406</ele>
        <time>2020-02-22T09:31:19.000Z</time>
      </trkpt>
      <trkpt lat="43.80532" lon="7.23952">
        <ele>642.20001220703</ele>
        <time>2020-02-22T09:31:22.000Z</time>
      </trkpt>
      <trkpt lat="43.80532" lon="7.23955">
        <ele>642.20001220703</ele>
        <time>2020-02-22T09:31:31.000Z</time>
      </trkpt>
      <trkpt lat="43.80532" lon="7.23955">
        <ele>642.40002441406</ele>
        <time>2020-02-22T09:31:32.000Z</time>
      </trkpt>
      <trkpt lat="43.80531" lon="7.23957">
        <ele>643.20001220703</ele>
        <time>2020-02-22T09:31:38.000Z</time>
      </trkpt>
      <trkpt lat="43.8053" lon="7.23957">
        <ele>643.40002441406</ele>
        <time>2020-02-22T09:31:39.000Z</time>
      </trkpt>
      <trkpt lat="43.80529" lon="7.2396">
        <ele>644.59997558594</ele>
        <time>2020-02-22T09:31:46.000Z</time>
      </trkpt>
      <trkpt lat="43.80528" lon="7.23964">
        <ele>645.59997558594</ele>
        <time>2020-02-22T09:31:52.000Z</time>
      </trkpt>
      <trkpt lat="43.80528" lon="7.23964">
        <ele>645.79998779297</ele>
        <time>2020-02-22T09:31:53.000Z</time>
      </trkpt>
      <trkpt lat="43.80528" lon="7.23964">
        <ele>645.59997558594</ele>
        <time>2020-02-22T09:32:02.000Z</time>
      </trkpt>
      <trkpt lat="43.80528" lon="7.23965">
        <ele>645.40002441406</ele>
        <time>2020-02-22T09:32:23.000Z</time>
      </trkpt>
      <trkpt lat="43.80529" lon="7.23965">
        <ele>645.40002441406</ele>
        <time>2020-02-22T09:32:45.000Z</time>
      </trkpt>
      <trkpt lat="43.80529" lon="7.23965">
        <ele>645.40002441406</ele>
        <time>2020-02-22T09:33:04.000Z</time>
      </trkpt>
      <trkpt lat="43.80529" lon="7.23964">
        <ele>645.40002441406</ele>
        <time>2020-02-22T09:33:30.000Z</time>
      </trkpt>
      <trkpt lat="43.80529" lon="7.23964">
        <ele>645.20001220703</ele>
        <time>2020-02-22T09:33:54.000Z</time>
      </trkpt>
      <trkpt lat="43.80525" lon="7.23968">
        <ele>645.20001220703</ele>
        <time>2020-02-22T09:34:03.000Z</time>
      </trkpt>
      <trkpt lat="43.80517" lon="7.23976">
        <ele>646</ele>
        <time>2020-02-22T09:34:08.000Z</time>
      </trkpt>
      <trkpt lat="43.80513" lon="7.23979">
        <ele>647</ele>
        <time>2020-02-22T09:34:10.000Z</time>
      </trkpt>
      <trkpt lat="43.8051" lon="7.23984">
        <ele>648</ele>
        <time>2020-02-22T09:34:13.000Z</time>
      </trkpt>
      <trkpt lat="43.8051" lon="7.23984">
        <ele>649.40002441406</ele>
        <time>2020-02-22T09:34:16.000Z</time>
      </trkpt>
      <trkpt lat="43.8051" lon="7.23984">
        <ele>649.79998779297</ele>
        <time>2020-02-22T09:34:17.000Z</time>
      </trkpt>
      <trkpt lat="43.80508" lon="7.23985">
        <ele>650.20001220703</ele>
        <time>2020-02-22T09:34:29.000Z</time>
      </trkpt>
      <trkpt lat="43.80508" lon="7.23985">
        <ele>650.59997558594</ele>
        <time>2020-02-22T09:34:31.000Z</time>
      </trkpt>
      <trkpt lat="43.80507" lon="7.23988">
        <ele>651.40002441406</ele>
        <time>2020-02-22T09:34:36.000Z</time>
      </trkpt>
      <trkpt lat="43.80507" lon="7.23988">
        <ele>651.59997558594</ele>
        <time>2020-02-22T09:34:38.000Z</time>
      </trkpt>
      <trkpt lat="43.80506" lon="7.2399">
        <ele>652</ele>
        <time>2020-02-22T09:34:42.000Z</time>
      </trkpt>
      <trkpt lat="43.80506" lon="7.2399">
        <ele>652.59997558594</ele>
        <time>2020-02-22T09:34:48.000Z</time>
      </trkpt>
      <trkpt lat="43.80506" lon="7.2399">
        <ele>652.59997558594</ele>
        <time>2020-02-22T09:34:49.000Z</time>
      </trkpt>
      <trkpt lat="43.80504" lon="7.23991">
        <ele>652.40002441406</ele>
        <time>2020-02-22T09:35:00.000Z</time>
      </trkpt>
      <trkpt lat="43.80502" lon="7.23993">
        <ele>652.40002441406</ele>
        <time>2020-02-22T09:35:02.000Z</time>
      </trkpt>
      <trkpt lat="43.80501" lon="7.24">
        <ele>653</ele>
        <time>2020-02-22T09:35:05.000Z</time>
      </trkpt>
      <trkpt lat="43.805" lon="7.24004">
        <ele>653.40002441406</ele>
        <time>2020-02-22T09:35:06.000Z</time>
      </trkpt>
      <trkpt lat="43.80499" lon="7.24008">
        <ele>653.79998779297</ele>
        <time>2020-02-22T09:35:07.000Z</time>
      </trkpt>
      <trkpt lat="43.80495" lon="7.24015">
        <ele>655.20001220703</ele>
        <time>2020-02-22T09:35:10.000Z</time>
      </trkpt>
      <trkpt lat="43.80494" lon="7.24017">
        <ele>655.59997558594</ele>
        <time>2020-02-22T09:35:11.000Z</time>
      </trkpt>
      <trkpt lat="43.80493" lon="7.24018">
        <ele>656.40002441406</ele>
        <time>2020-02-22T09:35:12.000Z</time>
      </trkpt>
      <trkpt lat="43.80494" lon="7.24021">
        <ele>656.79998779297</ele>
        <time>2020-02-22T09:35:13.000Z</time>
      </trkpt>
      <trkpt lat="43.80493" lon="7.24024">
        <ele>657.40002441406</ele>
        <time>2020-02-22T09:35:14.000Z</time>
      </trkpt>
      <trkpt lat="43.80492" lon="7.24026">
        <ele>658</ele>
        <time>2020-02-22T09:35:15.000Z</time>
      </trkpt>
      <trkpt lat="43.80491" lon="7.24028">
        <ele>658.40002441406</ele>
        <time>2020-02-22T09:35:16.000Z</time>
      </trkpt>
      <trkpt lat="43.8049" lon="7.24031">
        <ele>659.20001220703</ele>
        <time>2020-02-22T09:35:18.000Z</time>
      </trkpt>
      <trkpt lat="43.8049" lon="7.24032">
        <ele>659.40002441406</ele>
        <time>2020-02-22T09:35:19.000Z</time>
      </trkpt>
      <trkpt lat="43.8049" lon="7.24031">
        <ele>659.59997558594</ele>
        <time>2020-02-22T09:35:20.000Z</time>
      </trkpt>
      <trkpt lat="43.8049" lon="7.24032">
        <ele>660.59997558594</ele>
        <time>2020-02-22T09:35:24.000Z</time>
      </trkpt>
      <trkpt lat="43.80489" lon="7.24035">
        <ele>660.79998779297</ele>
        <time>2020-02-22T09:35:25.000Z</time>
      </trkpt>
      <trkpt lat="43.80484" lon="7.24046">
        <ele>661.40002441406</ele>
        <time>2020-02-22T09:35:30.000Z</time>
      </trkpt>
      <trkpt lat="43.80484" lon="7.24046">
        <ele>661.59997558594</ele>
        <time>2020-02-22T09:35:31.000Z</time>
      </trkpt>
      <trkpt lat="43.80484" lon="7.24047">
        <ele>662.59997558594</ele>
        <time>2020-02-22T09:35:34.000Z</time>
      </trkpt>
      <trkpt lat="43.80484" lon="7.24047">
        <ele>662.79998779297</ele>
        <time>2020-02-22T09:35:35.000Z</time>
      </trkpt>
      <trkpt lat="43.80482" lon="7.24051">
        <ele>663.40002441406</ele>
        <time>2020-02-22T09:35:41.000Z</time>
      </trkpt>
      <trkpt lat="43.80478" lon="7.2406">
        <ele>664</ele>
        <time>2020-02-22T09:35:45.000Z</time>
      </trkpt>
      <trkpt lat="43.80472" lon="7.24073">
        <ele>665.20001220703</ele>
        <time>2020-02-22T09:35:50.000Z</time>
      </trkpt>
      <trkpt lat="43.80469" lon="7.2408">
        <ele>666.59997558594</ele>
        <time>2020-02-22T09:35:53.000Z</time>
      </trkpt>
      <trkpt lat="43.80464" lon="7.24087">
        <ele>667.59997558594</ele>
        <time>2020-02-22T09:35:56.000Z</time>
      </trkpt>
      <trkpt lat="43.80462" lon="7.24091">
        <ele>668.59997558594</ele>
        <time>2020-02-22T09:35:58.000Z</time>
      </trkpt>
      <trkpt lat="43.80461" lon="7.24093">
        <ele>668.79998779297</ele>
        <time>2020-02-22T09:35:59.000Z</time>
      </trkpt>
      <trkpt lat="43.80457" lon="7.24099">
        <ele>670.20001220703</ele>
        <time>2020-02-22T09:36:02.000Z</time>
      </trkpt>
      <trkpt lat="43.80457" lon="7.24099">
        <ele>670.59997558594</ele>
        <time>2020-02-22T09:36:03.000Z</time>
      </trkpt>
      <trkpt lat="43.80456" lon="7.24101">
        <ele>671.20001220703</ele>
        <time>2020-02-22T09:36:04.000Z</time>
      </trkpt>
      <trkpt lat="43.80454" lon="7.24102">
        <ele>671.40002441406</ele>
        <time>2020-02-22T09:36:05.000Z</time>
      </trkpt>
      <trkpt lat="43.80452" lon="7.24104">
        <ele>672.40002441406</ele>
        <time>2020-02-22T09:36:07.000Z</time>
      </trkpt>
      <trkpt lat="43.80448" lon="7.2411">
        <ele>673.59997558594</ele>
        <time>2020-02-22T09:36:10.000Z</time>
      </trkpt>
      <trkpt lat="43.80446" lon="7.24117">
        <ele>675.20001220703</ele>
        <time>2020-02-22T09:36:13.000Z</time>
      </trkpt>
      <trkpt lat="43.80445" lon="7.24119">
        <ele>675.59997558594</ele>
        <time>2020-02-22T09:36:14.000Z</time>
      </trkpt>
      <trkpt lat="43.80444" lon="7.24121">
        <ele>676.20001220703</ele>
        <time>2020-02-22T09:36:16.000Z</time>
      </trkpt>
      <trkpt lat="43.80444" lon="7.2412">
        <ele>676.79998779297</ele>
        <time>2020-02-22T09:36:18.000Z</time>
      </trkpt>
      <trkpt lat="43.80444" lon="7.24121">
        <ele>677.40002441406</ele>
        <time>2020-02-22T09:36:24.000Z</time>
      </trkpt>
      <trkpt lat="43.80444" lon="7.24123">
        <ele>677.59997558594</ele>
        <time>2020-02-22T09:36:30.000Z</time>
      </trkpt>
      <trkpt lat="43.80443" lon="7.24124">
        <ele>677.59997558594</ele>
        <time>2020-02-22T09:36:31.000Z</time>
      </trkpt>
      <trkpt lat="43.80441" lon="7.2413">
        <ele>677.79998779297</ele>
        <time>2020-02-22T09:36:34.000Z</time>
      </trkpt>
      <trkpt lat="43.80439" lon="7.24135">
        <ele>678.20001220703</ele>
        <time>2020-02-22T09:36:36.000Z</time>
      </trkpt>
      <trkpt lat="43.80438" lon="7.24137">
        <ele>678.59997558594</ele>
        <time>2020-02-22T09:36:37.000Z</time>
      </trkpt>
      <trkpt lat="43.80435" lon="7.24143">
        <ele>679.59997558594</ele>
        <time>2020-02-22T09:36:40.000Z</time>
      </trkpt>
      <trkpt lat="43.80434" lon="7.24145">
        <ele>680</ele>
        <time>2020-02-22T09:36:41.000Z</time>
      </trkpt>
      <trkpt lat="43.80431" lon="7.24148">
        <ele>680.79998779297</ele>
        <time>2020-02-22T09:36:43.000Z</time>
      </trkpt>
      <trkpt lat="43.8043" lon="7.2415">
        <ele>681.20001220703</ele>
        <time>2020-02-22T09:36:44.000Z</time>
      </trkpt>
      <trkpt lat="43.80428" lon="7.24152">
        <ele>681.59997558594</ele>
        <time>2020-02-22T09:36:45.000Z</time>
      </trkpt>
      <trkpt lat="43.80426" lon="7.24154">
        <ele>682.40002441406</ele>
        <time>2020-02-22T09:36:47.000Z</time>
      </trkpt>
      <trkpt lat="43.80424" lon="7.24158">
        <ele>683</ele>
        <time>2020-02-22T09:36:49.000Z</time>
      </trkpt>
      <trkpt lat="43.80422" lon="7.24159">
        <ele>683.40002441406</ele>
        <time>2020-02-22T09:36:50.000Z</time>
      </trkpt>
      <trkpt lat="43.80417" lon="7.24164">
        <ele>684.59997558594</ele>
        <time>2020-02-22T09:36:53.000Z</time>
      </trkpt>
      <trkpt lat="43.80415" lon="7.24166">
        <ele>685.40002441406</ele>
        <time>2020-02-22T09:36:55.000Z</time>
      </trkpt>
      <trkpt lat="43.80413" lon="7.24167">
        <ele>685.59997558594</ele>
        <time>2020-02-22T09:36:56.000Z</time>
      </trkpt>
      <trkpt lat="43.80409" lon="7.2417">
        <ele>686.59997558594</ele>
        <time>2020-02-22T09:37:00.000Z</time>
      </trkpt>
      <trkpt lat="43.80409" lon="7.24171">
        <ele>687</ele>
        <time>2020-02-22T09:37:01.000Z</time>
      </trkpt>
      <trkpt lat="43.80405" lon="7.24174">
        <ele>687.79998779297</ele>
        <time>2020-02-22T09:37:05.000Z</time>
      </trkpt>
      <trkpt lat="43.80404" lon="7.24173">
        <ele>688</ele>
        <time>2020-02-22T09:37:06.000Z</time>
      </trkpt>
      <trkpt lat="43.80404" lon="7.24173">
        <ele>688.79998779297</ele>
        <time>2020-02-22T09:37:11.000Z</time>
      </trkpt>
      <trkpt lat="43.80402" lon="7.24178">
        <ele>688.79998779297</ele>
        <time>2020-02-22T09:37:22.000Z</time>
      </trkpt>
      <trkpt lat="43.80407" lon="7.2419">
        <ele>688.79998779297</ele>
        <time>2020-02-22T09:37:28.000Z</time>
      </trkpt>
      <trkpt lat="43.80412" lon="7.24193">
        <ele>689.20001220703</ele>
        <time>2020-02-22T09:37:31.000Z</time>
      </trkpt>
      <trkpt lat="43.80417" lon="7.24197">
        <ele>689.79998779297</ele>
        <time>2020-02-22T09:37:34.000Z</time>
      </trkpt>
      <trkpt lat="43.80422" lon="7.24201">
        <ele>690.40002441406</ele>
        <time>2020-02-22T09:37:37.000Z</time>
      </trkpt>
      <trkpt lat="43.80426" lon="7.24204">
        <ele>691.40002441406</ele>
        <time>2020-02-22T09:37:42.000Z</time>
      </trkpt>
      <trkpt lat="43.80427" lon="7.24204">
        <ele>691.59997558594</ele>
        <time>2020-02-22T09:37:43.000Z</time>
      </trkpt>
      <trkpt lat="43.80433" lon="7.24208">
        <ele>692.20001220703</ele>
        <time>2020-02-22T09:37:49.000Z</time>
      </trkpt>
      <trkpt lat="43.80435" lon="7.2421">
        <ele>692.59997558594</ele>
        <time>2020-02-22T09:37:51.000Z</time>
      </trkpt>
      <trkpt lat="43.80438" lon="7.24213">
        <ele>693.40002441406</ele>
        <time>2020-02-22T09:37:55.000Z</time>
      </trkpt>
      <trkpt lat="43.80438" lon="7.24213">
        <ele>693.59997558594</ele>
        <time>2020-02-22T09:37:56.000Z</time>
      </trkpt>
      <trkpt lat="43.80438" lon="7.24213">
        <ele>694</ele>
        <time>2020-02-22T09:38:02.000Z</time>
      </trkpt>
      <trkpt lat="43.80438" lon="7.24212">
        <ele>694.40002441406</ele>
        <time>2020-02-22T09:38:07.000Z</time>
      </trkpt>
      <trkpt lat="43.80436" lon="7.24211">
        <ele>694.20001220703</ele>
        <time>2020-02-22T09:38:14.000Z</time>
      </trkpt>
      <trkpt lat="43.80432" lon="7.24207">
        <ele>693.40002441406</ele>
        <time>2020-02-22T09:38:20.000Z</time>
      </trkpt>
      <trkpt lat="43.80431" lon="7.24207">
        <ele>692.59997558594</ele>
        <time>2020-02-22T09:38:28.000Z</time>
      </trkpt>
      <trkpt lat="43.80431" lon="7.24207">
        <ele>692.59997558594</ele>
        <time>2020-02-22T09:38:29.000Z</time>
      </trkpt>
      <trkpt lat="43.80431" lon="7.24207">
        <ele>692.40002441406</ele>
        <time>2020-02-22T09:38:42.000Z</time>
      </trkpt>
      <trkpt lat="43.80431" lon="7.24207">
        <ele>692.59997558594</ele>
        <time>2020-02-22T09:38:51.000Z</time>
      </trkpt>
      <trkpt lat="43.80433" lon="7.24208">
        <ele>692.40002441406</ele>
        <time>2020-02-22T09:39:02.000Z</time>
      </trkpt>
      <trkpt lat="43.80434" lon="7.24209">
        <ele>692.40002441406</ele>
        <time>2020-02-22T09:39:03.000Z</time>
      </trkpt>
      <trkpt lat="43.80442" lon="7.24216">
        <ele>693</ele>
        <time>2020-02-22T09:39:07.000Z</time>
      </trkpt>
      <trkpt lat="43.80443" lon="7.24216">
        <ele>694.20001220703</ele>
        <time>2020-02-22T09:39:09.000Z</time>
      </trkpt>
      <trkpt lat="43.80445" lon="7.24216">
        <ele>695.20001220703</ele>
        <time>2020-02-22T09:39:11.000Z</time>
      </trkpt>
      <trkpt lat="43.80448" lon="7.24219">
        <ele>695.79998779297</ele>
        <time>2020-02-22T09:39:13.000Z</time>
      </trkpt>
      <trkpt lat="43.8045" lon="7.24219">
        <ele>696.59997558594</ele>
        <time>2020-02-22T09:39:15.000Z</time>
      </trkpt>
      <trkpt lat="43.80453" lon="7.24221">
        <ele>696.79998779297</ele>
        <time>2020-02-22T09:39:17.000Z</time>
      </trkpt>
      <trkpt lat="43.80455" lon="7.24224">
        <ele>698</ele>
        <time>2020-02-22T09:39:19.000Z</time>
      </trkpt>
      <trkpt lat="43.80456" lon="7.24225">
        <ele>698.40002441406</ele>
        <time>2020-02-22T09:39:20.000Z</time>
      </trkpt>
      <trkpt lat="43.80457" lon="7.24225">
        <ele>699.59997558594</ele>
        <time>2020-02-22T09:39:22.000Z</time>
      </trkpt>
      <trkpt lat="43.80457" lon="7.24225">
        <ele>700</ele>
        <time>2020-02-22T09:39:24.000Z</time>
      </trkpt>
      <trkpt lat="43.80458" lon="7.24225">
        <ele>700.79998779297</ele>
        <time>2020-02-22T09:39:27.000Z</time>
      </trkpt>
      <trkpt lat="43.80458" lon="7.24225">
        <ele>701</ele>
        <time>2020-02-22T09:39:31.000Z</time>
      </trkpt>
      <trkpt lat="43.8046" lon="7.24228">
        <ele>701.40002441406</ele>
        <time>2020-02-22T09:39:39.000Z</time>
      </trkpt>
      <trkpt lat="43.80461" lon="7.24229">
        <ele>701.79998779297</ele>
        <time>2020-02-22T09:39:43.000Z</time>
      </trkpt>
      <trkpt lat="43.80463" lon="7.24231">
        <ele>702.59997558594</ele>
        <time>2020-02-22T09:39:49.000Z</time>
      </trkpt>
      <trkpt lat="43.80463" lon="7.24232">
        <ele>702.79998779297</ele>
        <time>2020-02-22T09:39:51.000Z</time>
      </trkpt>
      <trkpt lat="43.80463" lon="7.24234">
        <ele>703</ele>
        <time>2020-02-22T09:39:55.000Z</time>
      </trkpt>
      <trkpt lat="43.80463" lon="7.24233">
        <ele>703.20001220703</ele>
        <time>2020-02-22T09:40:03.000Z</time>
      </trkpt>
      <trkpt lat="43.80463" lon="7.24233">
        <ele>702.59997558594</ele>
        <time>2020-02-22T09:40:17.000Z</time>
      </trkpt>
      <trkpt lat="43.80462" lon="7.24236">
        <ele>703.20001220703</ele>
        <time>2020-02-22T09:40:22.000Z</time>
      </trkpt>
      <trkpt lat="43.80462" lon="7.24238">
        <ele>703.79998779297</ele>
        <time>2020-02-22T09:40:26.000Z</time>
      </trkpt>
      <trkpt lat="43.80461" lon="7.24241">
        <ele>704.59997558594</ele>
        <time>2020-02-22T09:40:31.000Z</time>
      </trkpt>
      <trkpt lat="43.8046" lon="7.24242">
        <ele>705</ele>
        <time>2020-02-22T09:40:33.000Z</time>
      </trkpt>
      <trkpt lat="43.8046" lon="7.24244">
        <ele>705.59997558594</ele>
        <time>2020-02-22T09:40:38.000Z</time>
      </trkpt>
      <trkpt lat="43.8046" lon="7.24246">
        <ele>706</ele>
        <time>2020-02-22T09:40:41.000Z</time>
      </trkpt>
      <trkpt lat="43.80459" lon="7.24248">
        <ele>706.59997558594</ele>
        <time>2020-02-22T09:40:44.000Z</time>
      </trkpt>
      <trkpt lat="43.80459" lon="7.24249">
        <ele>707</ele>
        <time>2020-02-22T09:40:47.000Z</time>
      </trkpt>
      <trkpt lat="43.80459" lon="7.24249">
        <ele>707.40002441406</ele>
        <time>2020-02-22T09:40:49.000Z</time>
      </trkpt>
      <trkpt lat="43.80459" lon="7.2425">
        <ele>707.79998779297</ele>
        <time>2020-02-22T09:40:56.000Z</time>
      </trkpt>
      <trkpt lat="43.80459" lon="7.24251">
        <ele>708</ele>
        <time>2020-02-22T09:41:02.000Z</time>
      </trkpt>
      <trkpt lat="43.80459" lon="7.24251">
        <ele>708</ele>
        <time>2020-02-22T09:41:03.000Z</time>
      </trkpt>
      <trkpt lat="43.80458" lon="7.24251">
        <ele>708</ele>
        <time>2020-02-22T09:41:16.000Z</time>
      </trkpt>
      <trkpt lat="43.80456" lon="7.24254">
        <ele>708</ele>
        <time>2020-02-22T09:41:24.000Z</time>
      </trkpt>
      <trkpt lat="43.80455" lon="7.24255">
        <ele>708.79998779297</ele>
        <time>2020-02-22T09:41:29.000Z</time>
      </trkpt>
      <trkpt lat="43.80454" lon="7.24257">
        <ele>709.20001220703</ele>
        <time>2020-02-22T09:41:32.000Z</time>
      </trkpt>
      <trkpt lat="43.80454" lon="7.24257">
        <ele>709.79998779297</ele>
        <time>2020-02-22T09:41:37.000Z</time>
      </trkpt>
      <trkpt lat="43.80451" lon="7.24263">
        <ele>710</ele>
        <time>2020-02-22T09:41:44.000Z</time>
      </trkpt>
      <trkpt lat="43.8045" lon="7.24265">
        <ele>710.20001220703</ele>
        <time>2020-02-22T09:41:45.000Z</time>
      </trkpt>
      <trkpt lat="43.80446" lon="7.24268">
        <ele>711.40002441406</ele>
        <time>2020-02-22T09:41:48.000Z</time>
      </trkpt>
      <trkpt lat="43.80446" lon="7.24267">
        <ele>711.59997558594</ele>
        <time>2020-02-22T09:41:49.000Z</time>
      </trkpt>
      <trkpt lat="43.80446" lon="7.24268">
        <ele>712.59997558594</ele>
        <time>2020-02-22T09:41:51.000Z</time>
      </trkpt>
      <trkpt lat="43.80445" lon="7.24269">
        <ele>713.40002441406</ele>
        <time>2020-02-22T09:41:54.000Z</time>
      </trkpt>
      <trkpt lat="43.80445" lon="7.2427">
        <ele>713.59997558594</ele>
        <time>2020-02-22T09:41:57.000Z</time>
      </trkpt>
      <trkpt lat="43.80445" lon="7.2427">
        <ele>714</ele>
        <time>2020-02-22T09:41:59.000Z</time>
      </trkpt>
      <trkpt lat="43.80446" lon="7.2427">
        <ele>713.59997558594</ele>
        <time>2020-02-22T09:42:04.000Z</time>
      </trkpt>
      <trkpt lat="43.80445" lon="7.24272">
        <ele>714</ele>
        <time>2020-02-22T09:42:11.000Z</time>
      </trkpt>
      <trkpt lat="43.80445" lon="7.24272">
        <ele>714.20001220703</ele>
        <time>2020-02-22T09:42:15.000Z</time>
      </trkpt>
      <trkpt lat="43.80445" lon="7.24275">
        <ele>714.59997558594</ele>
        <time>2020-02-22T09:42:21.000Z</time>
      </trkpt>
      <trkpt lat="43.80445" lon="7.24275">
        <ele>714.79998779297</ele>
        <time>2020-02-22T09:42:28.000Z</time>
      </trkpt>
      <trkpt lat="43.80445" lon="7.24277">
        <ele>715</ele>
        <time>2020-02-22T09:42:29.000Z</time>
      </trkpt>
      <trkpt lat="43.80443" lon="7.24278">
        <ele>715.20001220703</ele>
        <time>2020-02-22T09:42:33.000Z</time>
      </trkpt>
      <trkpt lat="43.80442" lon="7.2428">
        <ele>715.79998779297</ele>
        <time>2020-02-22T09:42:35.000Z</time>
      </trkpt>
      <trkpt lat="43.80441" lon="7.24281">
        <ele>716.40002441406</ele>
        <time>2020-02-22T09:42:40.000Z</time>
      </trkpt>
      <trkpt lat="43.80441" lon="7.24281">
        <ele>716.79998779297</ele>
        <time>2020-02-22T09:42:42.000Z</time>
      </trkpt>
      <trkpt lat="43.80442" lon="7.2428">
        <ele>717</ele>
        <time>2020-02-22T09:42:47.000Z</time>
      </trkpt>
      <trkpt lat="43.80439" lon="7.24289">
        <ele>717</ele>
        <time>2020-02-22T09:42:53.000Z</time>
      </trkpt>
      <trkpt lat="43.80438" lon="7.2429">
        <ele>717.79998779297</ele>
        <time>2020-02-22T09:42:56.000Z</time>
      </trkpt>
      <trkpt lat="43.80438" lon="7.24289">
        <ele>718.59997558594</ele>
        <time>2020-02-22T09:42:57.000Z</time>
      </trkpt>
      <trkpt lat="43.80438" lon="7.2429">
        <ele>719</ele>
        <time>2020-02-22T09:42:58.000Z</time>
      </trkpt>
      <trkpt lat="43.80438" lon="7.24291">
        <ele>719.40002441406</ele>
        <time>2020-02-22T09:43:05.000Z</time>
      </trkpt>
      <trkpt lat="43.80435" lon="7.24299">
        <ele>719.59997558594</ele>
        <time>2020-02-22T09:43:10.000Z</time>
      </trkpt>
      <trkpt lat="43.80433" lon="7.24303">
        <ele>720.20001220703</ele>
        <time>2020-02-22T09:43:12.000Z</time>
      </trkpt>
      <trkpt lat="43.80431" lon="7.24307">
        <ele>721.59997558594</ele>
        <time>2020-02-22T09:43:15.000Z</time>
      </trkpt>
      <trkpt lat="43.8043" lon="7.24308">
        <ele>722.20001220703</ele>
        <time>2020-02-22T09:43:16.000Z</time>
      </trkpt>
      <trkpt lat="43.8043" lon="7.24309">
        <ele>723</ele>
        <time>2020-02-22T09:43:18.000Z</time>
      </trkpt>
      <trkpt lat="43.8043" lon="7.2431">
        <ele>724</ele>
        <time>2020-02-22T09:43:21.000Z</time>
      </trkpt>
      <trkpt lat="43.8043" lon="7.24311">
        <ele>724.59997558594</ele>
        <time>2020-02-22T09:43:29.000Z</time>
      </trkpt>
      <trkpt lat="43.80428" lon="7.24315">
        <ele>725.20001220703</ele>
        <time>2020-02-22T09:43:35.000Z</time>
      </trkpt>
      <trkpt lat="43.80428" lon="7.24315">
        <ele>725.40002441406</ele>
        <time>2020-02-22T09:43:36.000Z</time>
      </trkpt>
      <trkpt lat="43.80428" lon="7.24315">
        <ele>726</ele>
        <time>2020-02-22T09:43:46.000Z</time>
      </trkpt>
      <trkpt lat="43.80427" lon="7.24316">
        <ele>725.79998779297</ele>
        <time>2020-02-22T09:43:59.000Z</time>
      </trkpt>
      <trkpt lat="43.80426" lon="7.24317">
        <ele>726.20001220703</ele>
        <time>2020-02-22T09:44:03.000Z</time>
      </trkpt>
      <trkpt lat="43.80426" lon="7.24317">
        <ele>726.59997558594</ele>
        <time>2020-02-22T09:44:06.000Z</time>
      </trkpt>
      <trkpt lat="43.80423" lon="7.24321">
        <ele>726.79998779297</ele>
        <time>2020-02-22T09:44:13.000Z</time>
      </trkpt>
      <trkpt lat="43.8042" lon="7.24324">
        <ele>727.40002441406</ele>
        <time>2020-02-22T09:44:16.000Z</time>
      </trkpt>
      <trkpt lat="43.8042" lon="7.24323">
        <ele>728.20001220703</ele>
        <time>2020-02-22T09:44:18.000Z</time>
      </trkpt>
      <trkpt lat="43.8042" lon="7.24323">
        <ele>728.59997558594</ele>
        <time>2020-02-22T09:44:19.000Z</time>
      </trkpt>
      <trkpt lat="43.80417" lon="7.24325">
        <ele>729.40002441406</ele>
        <time>2020-02-22T09:44:25.000Z</time>
      </trkpt>
      <trkpt lat="43.80416" lon="7.24326">
        <ele>729.59997558594</ele>
        <time>2020-02-22T09:44:26.000Z</time>
      </trkpt>
      <trkpt lat="43.80415" lon="7.24328">
        <ele>730.59997558594</ele>
        <time>2020-02-22T09:44:32.000Z</time>
      </trkpt>
      <trkpt lat="43.80414" lon="7.24328">
        <ele>730.79998779297</ele>
        <time>2020-02-22T09:44:33.000Z</time>
      </trkpt>
      <trkpt lat="43.80413" lon="7.2433">
        <ele>731.40002441406</ele>
        <time>2020-02-22T09:44:38.000Z</time>
      </trkpt>
      <trkpt lat="43.80412" lon="7.24331">
        <ele>731.40002441406</ele>
        <time>2020-02-22T09:44:40.000Z</time>
      </trkpt>
      <trkpt lat="43.80412" lon="7.2433">
        <ele>731.40002441406</ele>
        <time>2020-02-22T09:44:42.000Z</time>
      </trkpt>
      <trkpt lat="43.80412" lon="7.2433">
        <ele>731.59997558594</ele>
        <time>2020-02-22T09:44:44.000Z</time>
      </trkpt>
      <trkpt lat="43.80411" lon="7.24333">
        <ele>732</ele>
        <time>2020-02-22T09:44:48.000Z</time>
      </trkpt>
      <trkpt lat="43.8041" lon="7.24335">
        <ele>732.59997558594</ele>
        <time>2020-02-22T09:44:54.000Z</time>
      </trkpt>
      <trkpt lat="43.80408" lon="7.24338">
        <ele>733.59997558594</ele>
        <time>2020-02-22T09:45:00.000Z</time>
      </trkpt>
      <trkpt lat="43.80408" lon="7.24338">
        <ele>733.79998779297</ele>
        <time>2020-02-22T09:45:01.000Z</time>
      </trkpt>
      <trkpt lat="43.80407" lon="7.2434">
        <ele>734.40002441406</ele>
        <time>2020-02-22T09:45:06.000Z</time>
      </trkpt>
      <trkpt lat="43.80405" lon="7.2434">
        <ele>734.79998779297</ele>
        <time>2020-02-22T09:45:10.000Z</time>
      </trkpt>
      <trkpt lat="43.80404" lon="7.24341">
        <ele>735.59997558594</ele>
        <time>2020-02-22T09:45:14.000Z</time>
      </trkpt>
      <trkpt lat="43.80401" lon="7.24343">
        <ele>736</ele>
        <time>2020-02-22T09:45:19.000Z</time>
      </trkpt>
      <trkpt lat="43.80401" lon="7.24344">
        <ele>736.79998779297</ele>
        <time>2020-02-22T09:45:23.000Z</time>
      </trkpt>
      <trkpt lat="43.804" lon="7.24344">
        <ele>737</ele>
        <time>2020-02-22T09:45:24.000Z</time>
      </trkpt>
      <trkpt lat="43.804" lon="7.24344">
        <ele>737.20001220703</ele>
        <time>2020-02-22T09:45:29.000Z</time>
      </trkpt>
      <trkpt lat="43.80394" lon="7.24348">
        <ele>737.40002441406</ele>
        <time>2020-02-22T09:45:36.000Z</time>
      </trkpt>
      <trkpt lat="43.8039" lon="7.24353">
        <ele>738.20001220703</ele>
        <time>2020-02-22T09:45:39.000Z</time>
      </trkpt>
      <trkpt lat="43.80388" lon="7.24357">
        <ele>739</ele>
        <time>2020-02-22T09:45:41.000Z</time>
      </trkpt>
      <trkpt lat="43.80387" lon="7.24359">
        <ele>739.20001220703</ele>
        <time>2020-02-22T09:45:42.000Z</time>
      </trkpt>
      <trkpt lat="43.80382" lon="7.24365">
        <ele>740.20001220703</ele>
        <time>2020-02-22T09:45:46.000Z</time>
      </trkpt>
      <trkpt lat="43.8038" lon="7.24366">
        <ele>740.59997558594</ele>
        <time>2020-02-22T09:45:47.000Z</time>
      </trkpt>
      <trkpt lat="43.80375" lon="7.24371">
        <ele>741.40002441406</ele>
        <time>2020-02-22T09:45:50.000Z</time>
      </trkpt>
      <trkpt lat="43.8037" lon="7.24374">
        <ele>742.40002441406</ele>
        <time>2020-02-22T09:45:53.000Z</time>
      </trkpt>
      <trkpt lat="43.80367" lon="7.24378">
        <ele>743.20001220703</ele>
        <time>2020-02-22T09:45:55.000Z</time>
      </trkpt>
      <trkpt lat="43.80365" lon="7.24379">
        <ele>743.59997558594</ele>
        <time>2020-02-22T09:45:56.000Z</time>
      </trkpt>
      <trkpt lat="43.8036" lon="7.24382">
        <ele>745</ele>
        <time>2020-02-22T09:45:59.000Z</time>
      </trkpt>
      <trkpt lat="43.80358" lon="7.24385">
        <ele>745.59997558594</ele>
        <time>2020-02-22T09:46:00.000Z</time>
      </trkpt>
      <trkpt lat="43.80355" lon="7.24388">
        <ele>746.20001220703</ele>
        <time>2020-02-22T09:46:02.000Z</time>
      </trkpt>
      <trkpt lat="43.80351" lon="7.24393">
        <ele>747.59997558594</ele>
        <time>2020-02-22T09:46:05.000Z</time>
      </trkpt>
      <trkpt lat="43.80348" lon="7.24399">
        <ele>748.79998779297</ele>
        <time>2020-02-22T09:46:08.000Z</time>
      </trkpt>
      <trkpt lat="43.80344" lon="7.24405">
        <ele>749.79998779297</ele>
        <time>2020-02-22T09:46:11.000Z</time>
      </trkpt>
      <trkpt lat="43.80338" lon="7.2441">
        <ele>751.40002441406</ele>
        <time>2020-02-22T09:46:15.000Z</time>
      </trkpt>
      <trkpt lat="43.80333" lon="7.24416">
        <ele>752.59997558594</ele>
        <time>2020-02-22T09:46:18.000Z</time>
      </trkpt>
      <trkpt lat="43.8033" lon="7.24419">
        <ele>753.59997558594</ele>
        <time>2020-02-22T09:46:20.000Z</time>
      </trkpt>
      <trkpt lat="43.80329" lon="7.24421">
        <ele>753.79998779297</ele>
        <time>2020-02-22T09:46:21.000Z</time>
      </trkpt>
      <trkpt lat="43.80324" lon="7.24424">
        <ele>755</ele>
        <time>2020-02-22T09:46:24.000Z</time>
      </trkpt>
      <trkpt lat="43.8032" lon="7.24428">
        <ele>756.20001220703</ele>
        <time>2020-02-22T09:46:27.000Z</time>
      </trkpt>
      <trkpt lat="43.80314" lon="7.24432">
        <ele>757.40002441406</ele>
        <time>2020-02-22T09:46:30.000Z</time>
      </trkpt>
      <trkpt lat="43.8031" lon="7.24436">
        <ele>758.79998779297</ele>
        <time>2020-02-22T09:46:33.000Z</time>
      </trkpt>
      <trkpt lat="43.80308" lon="7.24437">
        <ele>759.20001220703</ele>
        <time>2020-02-22T09:46:34.000Z</time>
      </trkpt>
      <trkpt lat="43.80304" lon="7.2444">
        <ele>760.20001220703</ele>
        <time>2020-02-22T09:46:36.000Z</time>
      </trkpt>
      <trkpt lat="43.80299" lon="7.24443">
        <ele>761.20001220703</ele>
        <time>2020-02-22T09:46:39.000Z</time>
      </trkpt>
      <trkpt lat="43.80296" lon="7.24447">
        <ele>762</ele>
        <time>2020-02-22T09:46:41.000Z</time>
      </trkpt>
      <trkpt lat="43.80295" lon="7.24448">
        <ele>762.40002441406</ele>
        <time>2020-02-22T09:46:42.000Z</time>
      </trkpt>
      <trkpt lat="43.8029" lon="7.24451">
        <ele>763.40002441406</ele>
        <time>2020-02-22T09:46:46.000Z</time>
      </trkpt>
      <trkpt lat="43.80289" lon="7.24451">
        <ele>763.59997558594</ele>
        <time>2020-02-22T09:46:47.000Z</time>
      </trkpt>
      <trkpt lat="43.80285" lon="7.24453">
        <ele>764.20001220703</ele>
        <time>2020-02-22T09:46:51.000Z</time>
      </trkpt>
      <trkpt lat="43.80284" lon="7.24453">
        <ele>764.20001220703</ele>
        <time>2020-02-22T09:46:52.000Z</time>
      </trkpt>
      <trkpt lat="43.80282" lon="7.2445">
        <ele>764.40002441406</ele>
        <time>2020-02-22T09:46:56.000Z</time>
      </trkpt>
      <trkpt lat="43.80282" lon="7.24451">
        <ele>764.40002441406</ele>
        <time>2020-02-22T09:46:57.000Z</time>
      </trkpt>
      <trkpt lat="43.80284" lon="7.24449">
        <ele>764</ele>
        <time>2020-02-22T09:47:02.000Z</time>
      </trkpt>
      <trkpt lat="43.80286" lon="7.24449">
        <ele>763.79998779297</ele>
        <time>2020-02-22T09:47:08.000Z</time>
      </trkpt>
      <trkpt lat="43.80286" lon="7.2445">
        <ele>764.40002441406</ele>
        <time>2020-02-22T09:47:15.000Z</time>
      </trkpt>
      <trkpt lat="43.80288" lon="7.2445">
        <ele>764.59997558594</ele>
        <time>2020-02-22T09:47:18.000Z</time>
      </trkpt>
      <trkpt lat="43.80287" lon="7.2445">
        <ele>764.40002441406</ele>
        <time>2020-02-22T09:47:20.000Z</time>
      </trkpt>
      <trkpt lat="43.80284" lon="7.24451">
        <ele>764.20001220703</ele>
        <time>2020-02-22T09:47:25.000Z</time>
      </trkpt>
      <trkpt lat="43.80284" lon="7.24451">
        <ele>764.59997558594</ele>
        <time>2020-02-22T09:47:28.000Z</time>
      </trkpt>
      <trkpt lat="43.80284" lon="7.24451">
        <ele>764.59997558594</ele>
        <time>2020-02-22T09:47:33.000Z</time>
      </trkpt>
      <trkpt lat="43.80284" lon="7.24451">
        <ele>764.59997558594</ele>
        <time>2020-02-22T09:47:39.000Z</time>
      </trkpt>
      <trkpt lat="43.80285" lon="7.24451">
        <ele>764</ele>
        <time>2020-02-22T09:47:43.000Z</time>
      </trkpt>
      <trkpt lat="43.80287" lon="7.24452">
        <ele>764</ele>
        <time>2020-02-22T09:47:46.000Z</time>
      </trkpt>
      <trkpt lat="43.80289" lon="7.24451">
        <ele>763.79998779297</ele>
        <time>2020-02-22T09:47:52.000Z</time>
      </trkpt>
      <trkpt lat="43.80289" lon="7.24451">
        <ele>763.59997558594</ele>
        <time>2020-02-22T09:47:54.000Z</time>
      </trkpt>
      <trkpt lat="43.80289" lon="7.24451">
        <ele>764.20001220703</ele>
        <time>2020-02-22T09:48:01.000Z</time>
      </trkpt>
      <trkpt lat="43.80289" lon="7.24451">
        <ele>764.20001220703</ele>
        <time>2020-02-22T09:48:11.000Z</time>
      </trkpt>
      <trkpt lat="43.80289" lon="7.24451">
        <ele>764.20001220703</ele>
        <time>2020-02-22T09:48:23.000Z</time>
      </trkpt>
      <trkpt lat="43.80289" lon="7.24453">
        <ele>764</ele>
        <time>2020-02-22T09:48:35.000Z</time>
      </trkpt>
      <trkpt lat="43.80289" lon="7.24454">
        <ele>764.20001220703</ele>
        <time>2020-02-22T09:48:44.000Z</time>
      </trkpt>
      <trkpt lat="43.80289" lon="7.24454">
        <ele>764.20001220703</ele>
        <time>2020-02-22T09:49:07.000Z</time>
      </trkpt>
      <trkpt lat="43.80289" lon="7.24453">
        <ele>764.20001220703</ele>
        <time>2020-02-22T09:49:31.000Z</time>
      </trkpt>
      <trkpt lat="43.80289" lon="7.24453">
        <ele>763.79998779297</ele>
        <time>2020-02-22T09:49:39.000Z</time>
      </trkpt>
      <trkpt lat="43.80288" lon="7.24452">
        <ele>764</ele>
        <time>2020-02-22T09:49:48.000Z</time>
      </trkpt>
      <trkpt lat="43.80288" lon="7.24453">
        <ele>763.79998779297</ele>
        <time>2020-02-22T09:49:55.000Z</time>
      </trkpt>
      <trkpt lat="43.80288" lon="7.24453">
        <ele>763.40002441406</ele>
        <time>2020-02-22T09:50:03.000Z</time>
      </trkpt>
      <trkpt lat="43.80288" lon="7.24452">
        <ele>763.79998779297</ele>
        <time>2020-02-22T09:50:12.000Z</time>
      </trkpt>
      <trkpt lat="43.80288" lon="7.24452">
        <ele>763.79998779297</ele>
        <time>2020-02-22T09:50:24.000Z</time>
      </trkpt>
      <trkpt lat="43.80288" lon="7.24452">
        <ele>763.20001220703</ele>
        <time>2020-02-22T09:50:35.000Z</time>
      </trkpt>
      <trkpt lat="43.80287" lon="7.24453">
        <ele>763.79998779297</ele>
        <time>2020-02-22T09:50:41.000Z</time>
      </trkpt>
      <trkpt lat="43.80286" lon="7.24454">
        <ele>764.20001220703</ele>
        <time>2020-02-22T09:50:55.000Z</time>
      </trkpt>
      <trkpt lat="43.80287" lon="7.24453">
        <ele>764.40002441406</ele>
        <time>2020-02-22T09:51:06.000Z</time>
      </trkpt>
      <trkpt lat="43.80287" lon="7.24452">
        <ele>764.40002441406</ele>
        <time>2020-02-22T09:51:28.000Z</time>
      </trkpt>
      <trkpt lat="43.80287" lon="7.24452">
        <ele>764.20001220703</ele>
        <time>2020-02-22T09:51:43.000Z</time>
      </trkpt>
      <trkpt lat="43.80287" lon="7.24451">
        <ele>764</ele>
        <time>2020-02-22T09:51:53.000Z</time>
      </trkpt>
      <trkpt lat="43.80287" lon="7.24451">
        <ele>763.79998779297</ele>
        <time>2020-02-22T09:52:05.000Z</time>
      </trkpt>
      <trkpt lat="43.80287" lon="7.24452">
        <ele>763.79998779297</ele>
        <time>2020-02-22T09:52:11.000Z</time>
      </trkpt>
      <trkpt lat="43.80287" lon="7.24452">
        <ele>764</ele>
        <time>2020-02-22T09:52:27.000Z</time>
      </trkpt>
      <trkpt lat="43.80286" lon="7.24452">
        <ele>764</ele>
        <time>2020-02-22T09:52:40.000Z</time>
      </trkpt>
      <trkpt lat="43.80286" lon="7.24451">
        <ele>763.79998779297</ele>
        <time>2020-02-22T09:52:49.000Z</time>
      </trkpt>
      <trkpt lat="43.80286" lon="7.24451">
        <ele>763.79998779297</ele>
        <time>2020-02-22T09:52:57.000Z</time>
      </trkpt>
      <trkpt lat="43.80286" lon="7.24451">
        <ele>763.79998779297</ele>
        <time>2020-02-22T09:53:06.000Z</time>
      </trkpt>
      <trkpt lat="43.80285" lon="7.24452">
        <ele>763.79998779297</ele>
        <time>2020-02-22T09:53:13.000Z</time>
      </trkpt>
      <trkpt lat="43.80285" lon="7.24453">
        <ele>764</ele>
        <time>2020-02-22T09:53:28.000Z</time>
      </trkpt>
      <trkpt lat="43.80285" lon="7.24454">
        <ele>764</ele>
        <time>2020-02-22T09:53:40.000Z</time>
      </trkpt>
      <trkpt lat="43.80285" lon="7.24454">
        <ele>763.40002441406</ele>
        <time>2020-02-22T09:53:50.000Z</time>
      </trkpt>
      <trkpt lat="43.80286" lon="7.24454">
        <ele>763.40002441406</ele>
        <time>2020-02-22T09:53:59.000Z</time>
      </trkpt>
      <trkpt lat="43.80287" lon="7.24454">
        <ele>763.20001220703</ele>
        <time>2020-02-22T09:54:09.000Z</time>
      </trkpt>
      <trkpt lat="43.8029" lon="7.24454">
        <ele>763.20001220703</ele>
        <time>2020-02-22T09:54:23.000Z</time>
      </trkpt>
      <trkpt lat="43.80291" lon="7.24455">
        <ele>763.20001220703</ele>
        <time>2020-02-22T09:54:39.000Z</time>
      </trkpt>
      <trkpt lat="43.80291" lon="7.24453">
        <ele>763.40002441406</ele>
        <time>2020-02-22T09:54:42.000Z</time>
      </trkpt>
      <trkpt lat="43.80293" lon="7.24451">
        <ele>763.20001220703</ele>
        <time>2020-02-22T09:54:44.000Z</time>
      </trkpt>
      <trkpt lat="43.80293" lon="7.24452">
        <ele>763.20001220703</ele>
        <time>2020-02-22T09:54:47.000Z</time>
      </trkpt>
      <trkpt lat="43.80293" lon="7.24451">
        <ele>763.20001220703</ele>
        <time>2020-02-22T09:54:48.000Z</time>
      </trkpt>
      <trkpt lat="43.80292" lon="7.24456">
        <ele>763.59997558594</ele>
        <time>2020-02-22T09:54:54.000Z</time>
      </trkpt>
      <trkpt lat="43.80293" lon="7.24458">
        <ele>763.79998779297</ele>
        <time>2020-02-22T09:54:57.000Z</time>
      </trkpt>
      <trkpt lat="43.80292" lon="7.24459">
        <ele>763.59997558594</ele>
        <time>2020-02-22T09:54:59.000Z</time>
      </trkpt>
      <trkpt lat="43.80294" lon="7.24468">
        <ele>763.40002441406</ele>
        <time>2020-02-22T09:55:05.000Z</time>
      </trkpt>
      <trkpt lat="43.80297" lon="7.24478">
        <ele>763.79998779297</ele>
        <time>2020-02-22T09:55:11.000Z</time>
      </trkpt>
      <trkpt lat="43.80296" lon="7.24486">
        <ele>764.79998779297</ele>
        <time>2020-02-22T09:55:15.000Z</time>
      </trkpt>
      <trkpt lat="43.80295" lon="7.24493">
        <ele>765.40002441406</ele>
        <time>2020-02-22T09:55:19.000Z</time>
      </trkpt>
      <trkpt lat="43.80293" lon="7.24496">
        <ele>766</ele>
        <time>2020-02-22T09:55:21.000Z</time>
      </trkpt>
      <trkpt lat="43.80292" lon="7.245">
        <ele>766.40002441406</ele>
        <time>2020-02-22T09:55:24.000Z</time>
      </trkpt>
      <trkpt lat="43.80289" lon="7.24505">
        <ele>767.20001220703</ele>
        <time>2020-02-22T09:55:27.000Z</time>
      </trkpt>
      <trkpt lat="43.80288" lon="7.24508">
        <ele>767.40002441406</ele>
        <time>2020-02-22T09:55:29.000Z</time>
      </trkpt>
      <trkpt lat="43.80286" lon="7.24511">
        <ele>767.79998779297</ele>
        <time>2020-02-22T09:55:31.000Z</time>
      </trkpt>
      <trkpt lat="43.80283" lon="7.24517">
        <ele>768.20001220703</ele>
        <time>2020-02-22T09:55:35.000Z</time>
      </trkpt>
      <trkpt lat="43.80282" lon="7.2452">
        <ele>768.59997558594</ele>
        <time>2020-02-22T09:55:37.000Z</time>
      </trkpt>
      <trkpt lat="43.80279" lon="7.24532">
        <ele>769.40002441406</ele>
        <time>2020-02-22T09:55:42.000Z</time>
      </trkpt>
      <trkpt lat="43.80279" lon="7.24535">
        <ele>770</ele>
        <time>2020-02-22T09:55:44.000Z</time>
      </trkpt>
      <trkpt lat="43.80279" lon="7.24536">
        <ele>770.40002441406</ele>
        <time>2020-02-22T09:55:45.000Z</time>
      </trkpt>
      <trkpt lat="43.80281" lon="7.24538">
        <ele>771.59997558594</ele>
        <time>2020-02-22T09:55:48.000Z</time>
      </trkpt>
      <trkpt lat="43.80282" lon="7.24538">
        <ele>771.79998779297</ele>
        <time>2020-02-22T09:55:49.000Z</time>
      </trkpt>
      <trkpt lat="43.80288" lon="7.24535">
        <ele>772.79998779297</ele>
        <time>2020-02-22T09:55:53.000Z</time>
      </trkpt>
      <trkpt lat="43.80295" lon="7.24533">
        <ele>773.79998779297</ele>
        <time>2020-02-22T09:55:58.000Z</time>
      </trkpt>
      <trkpt lat="43.80297" lon="7.24532">
        <ele>774</ele>
        <time>2020-02-22T09:55:59.000Z</time>
      </trkpt>
      <trkpt lat="43.80304" lon="7.24528">
        <ele>775</ele>
        <time>2020-02-22T09:56:04.000Z</time>
      </trkpt>
      <trkpt lat="43.80309" lon="7.24526">
        <ele>775.59997558594</ele>
        <time>2020-02-22T09:56:07.000Z</time>
      </trkpt>
      <trkpt lat="43.80316" lon="7.24525">
        <ele>776.20001220703</ele>
        <time>2020-02-22T09:56:11.000Z</time>
      </trkpt>
      <trkpt lat="43.80323" lon="7.24525">
        <ele>776.79998779297</ele>
        <time>2020-02-22T09:56:15.000Z</time>
      </trkpt>
      <trkpt lat="43.80339" lon="7.24523">
        <ele>777.20001220703</ele>
        <time>2020-02-22T09:56:23.000Z</time>
      </trkpt>
      <trkpt lat="43.8034" lon="7.24523">
        <ele>777.20001220703</ele>
        <time>2020-02-22T09:56:24.000Z</time>
      </trkpt>
      <trkpt lat="43.80348" lon="7.24523">
        <ele>777.59997558594</ele>
        <time>2020-02-22T09:56:30.000Z</time>
      </trkpt>
      <trkpt lat="43.80348" lon="7.24523">
        <ele>778</ele>
        <time>2020-02-22T09:56:36.000Z</time>
      </trkpt>
      <trkpt lat="43.80348" lon="7.24524">
        <ele>778.20001220703</ele>
        <time>2020-02-22T09:56:41.000Z</time>
      </trkpt>
      <trkpt lat="43.8035" lon="7.24523">
        <ele>778.20001220703</ele>
        <time>2020-02-22T09:56:45.000Z</time>
      </trkpt>
      <trkpt lat="43.80357" lon="7.24522">
        <ele>778</ele>
        <time>2020-02-22T09:56:50.000Z</time>
      </trkpt>
      <trkpt lat="43.80374" lon="7.2452">
        <ele>778</ele>
        <time>2020-02-22T09:56:56.000Z</time>
      </trkpt>
      <trkpt lat="43.80402" lon="7.24516">
        <ele>778.59997558594</ele>
        <time>2020-02-22T09:57:04.000Z</time>
      </trkpt>
      <trkpt lat="43.80421" lon="7.24514">
        <ele>779.20001220703</ele>
        <time>2020-02-22T09:57:09.000Z</time>
      </trkpt>
      <trkpt lat="43.80438" lon="7.24512">
        <ele>780</ele>
        <time>2020-02-22T09:57:14.000Z</time>
      </trkpt>
      <trkpt lat="43.80442" lon="7.24511">
        <ele>780.20001220703</ele>
        <time>2020-02-22T09:57:15.000Z</time>
      </trkpt>
      <trkpt lat="43.80455" lon="7.24509">
        <ele>781.59997558594</ele>
        <time>2020-02-22T09:57:19.000Z</time>
      </trkpt>
      <trkpt lat="43.80468" lon="7.24507">
        <ele>782.59997558594</ele>
        <time>2020-02-22T09:57:23.000Z</time>
      </trkpt>
      <trkpt lat="43.80471" lon="7.24507">
        <ele>782.59997558594</ele>
        <time>2020-02-22T09:57:24.000Z</time>
      </trkpt>
      <trkpt lat="43.80502" lon="7.24504">
        <ele>783.40002441406</ele>
        <time>2020-02-22T09:57:33.000Z</time>
      </trkpt>
      <trkpt lat="43.80505" lon="7.24505">
        <ele>783.59997558594</ele>
        <time>2020-02-22T09:57:34.000Z</time>
      </trkpt>
      <trkpt lat="43.80519" lon="7.24506">
        <ele>783.20001220703</ele>
        <time>2020-02-22T09:57:37.000Z</time>
      </trkpt>
      <trkpt lat="43.80548" lon="7.2451">
        <ele>783</ele>
        <time>2020-02-22T09:57:45.000Z</time>
      </trkpt>
      <trkpt lat="43.80578" lon="7.24507">
        <ele>782</ele>
        <time>2020-02-22T09:57:52.000Z</time>
      </trkpt>
      <trkpt lat="43.80584" lon="7.24506">
        <ele>781.59997558594</ele>
        <time>2020-02-22T09:57:54.000Z</time>
      </trkpt>
      <trkpt lat="43.80589" lon="7.24504">
        <ele>781.59997558594</ele>
        <time>2020-02-22T09:57:55.000Z</time>
      </trkpt>
      <trkpt lat="43.80593" lon="7.24503">
        <ele>781.40002441406</ele>
        <time>2020-02-22T09:57:56.000Z</time>
      </trkpt>
      <trkpt lat="43.80613" lon="7.24499">
        <ele>781.59997558594</ele>
        <time>2020-02-22T09:58:00.000Z</time>
      </trkpt>
      <trkpt lat="43.80621" lon="7.245">
        <ele>781.20001220703</ele>
        <time>2020-02-22T09:58:02.000Z</time>
      </trkpt>
      <trkpt lat="43.80635" lon="7.24499">
        <ele>781</ele>
        <time>2020-02-22T09:58:06.000Z</time>
      </trkpt>
      <trkpt lat="43.80639" lon="7.24498">
        <ele>781.20001220703</ele>
        <time>2020-02-22T09:58:07.000Z</time>
      </trkpt>
      <trkpt lat="43.80649" lon="7.24497">
        <ele>780.40002441406</ele>
        <time>2020-02-22T09:58:10.000Z</time>
      </trkpt>
      <trkpt lat="43.80666" lon="7.24494">
        <ele>780.59997558594</ele>
        <time>2020-02-22T09:58:15.000Z</time>
      </trkpt>
      <trkpt lat="43.80683" lon="7.24492">
        <ele>780.59997558594</ele>
        <time>2020-02-22T09:58:20.000Z</time>
      </trkpt>
      <trkpt lat="43.80697" lon="7.24491">
        <ele>781.59997558594</ele>
        <time>2020-02-22T09:58:25.000Z</time>
      </trkpt>
      <trkpt lat="43.80703" lon="7.2449">
        <ele>782</ele>
        <time>2020-02-22T09:58:27.000Z</time>
      </trkpt>
      <trkpt lat="43.80709" lon="7.24489">
        <ele>782.59997558594</ele>
        <time>2020-02-22T09:58:29.000Z</time>
      </trkpt>
      <trkpt lat="43.80722" lon="7.24486">
        <ele>783.59997558594</ele>
        <time>2020-02-22T09:58:33.000Z</time>
      </trkpt>
      <trkpt lat="43.80731" lon="7.24485">
        <ele>783.59997558594</ele>
        <time>2020-02-22T09:58:36.000Z</time>
      </trkpt>
      <trkpt lat="43.80743" lon="7.24485">
        <ele>784.59997558594</ele>
        <time>2020-02-22T09:58:40.000Z</time>
      </trkpt>
      <trkpt lat="43.8075" lon="7.24485">
        <ele>784.79998779297</ele>
        <time>2020-02-22T09:58:42.000Z</time>
      </trkpt>
      <trkpt lat="43.80762" lon="7.24486">
        <ele>784.40002441406</ele>
        <time>2020-02-22T09:58:46.000Z</time>
      </trkpt>
      <trkpt lat="43.80778" lon="7.24488">
        <ele>784.59997558594</ele>
        <time>2020-02-22T09:58:51.000Z</time>
      </trkpt>
      <trkpt lat="43.80782" lon="7.2449">
        <ele>784.59997558594</ele>
        <time>2020-02-22T09:58:52.000Z</time>
      </trkpt>
      <trkpt lat="43.80791" lon="7.24496">
        <ele>784</ele>
        <time>2020-02-22T09:58:55.000Z</time>
      </trkpt>
      <trkpt lat="43.808" lon="7.24511">
        <ele>783.79998779297</ele>
        <time>2020-02-22T09:58:59.000Z</time>
      </trkpt>
      <trkpt lat="43.80807" lon="7.24532">
        <ele>784.40002441406</ele>
        <time>2020-02-22T09:59:04.000Z</time>
      </trkpt>
      <trkpt lat="43.8081" lon="7.24552">
        <ele>784.59997558594</ele>
        <time>2020-02-22T09:59:08.000Z</time>
      </trkpt>
      <trkpt lat="43.80814" lon="7.24557">
        <ele>784.59997558594</ele>
        <time>2020-02-22T09:59:10.000Z</time>
      </trkpt>
      <trkpt lat="43.8082" lon="7.24558">
        <ele>785</ele>
        <time>2020-02-22T09:59:12.000Z</time>
      </trkpt>
      <trkpt lat="43.80833" lon="7.2455">
        <ele>785.79998779297</ele>
        <time>2020-02-22T09:59:16.000Z</time>
      </trkpt>
      <trkpt lat="43.80837" lon="7.24549">
        <ele>786</ele>
        <time>2020-02-22T09:59:17.000Z</time>
      </trkpt>
      <trkpt lat="43.80851" lon="7.24542">
        <ele>786.40002441406</ele>
        <time>2020-02-22T09:59:21.000Z</time>
      </trkpt>
      <trkpt lat="43.80854" lon="7.24541">
        <ele>786.40002441406</ele>
        <time>2020-02-22T09:59:22.000Z</time>
      </trkpt>
      <trkpt lat="43.80865" lon="7.24533">
        <ele>787</ele>
        <time>2020-02-22T09:59:26.000Z</time>
      </trkpt>
      <trkpt lat="43.80872" lon="7.2453">
        <ele>787.40002441406</ele>
        <time>2020-02-22T09:59:28.000Z</time>
      </trkpt>
      <trkpt lat="43.80884" lon="7.24523">
        <ele>786</ele>
        <time>2020-02-22T09:59:32.000Z</time>
      </trkpt>
      <trkpt lat="43.80887" lon="7.24524">
        <ele>785.59997558594</ele>
        <time>2020-02-22T09:59:33.000Z</time>
      </trkpt>
      <trkpt lat="43.80901" lon="7.24523">
        <ele>784.59997558594</ele>
        <time>2020-02-22T09:59:37.000Z</time>
      </trkpt>
      <trkpt lat="43.80913" lon="7.24519">
        <ele>783.40002441406</ele>
        <time>2020-02-22T09:59:41.000Z</time>
      </trkpt>
      <trkpt lat="43.80914" lon="7.24518">
        <ele>783.20001220703</ele>
        <time>2020-02-22T09:59:42.000Z</time>
      </trkpt>
      <trkpt lat="43.80923" lon="7.24506">
        <ele>782.40002441406</ele>
        <time>2020-02-22T09:59:46.000Z</time>
      </trkpt>
      <trkpt lat="43.80918" lon="7.24491">
        <ele>781.59997558594</ele>
        <time>2020-02-22T09:59:50.000Z</time>
      </trkpt>
      <trkpt lat="43.80917" lon="7.24483">
        <ele>781.40002441406</ele>
        <time>2020-02-22T09:59:52.000Z</time>
      </trkpt>
      <trkpt lat="43.80918" lon="7.24481">
        <ele>781.20001220703</ele>
        <time>2020-02-22T09:59:53.000Z</time>
      </trkpt>
      <trkpt lat="43.80918" lon="7.24481">
        <ele>781.20001220703</ele>
        <time>2020-02-22T09:59:57.000Z</time>
      </trkpt>
      <trkpt lat="43.80917" lon="7.2448">
        <ele>781.59997558594</ele>
        <time>2020-02-22T10:00:16.000Z</time>
      </trkpt>
      <trkpt lat="43.80915" lon="7.24471">
        <ele>781.40002441406</ele>
        <time>2020-02-22T10:00:22.000Z</time>
      </trkpt>
      <trkpt lat="43.80908" lon="7.24457">
        <ele>782.20001220703</ele>
        <time>2020-02-22T10:00:28.000Z</time>
      </trkpt>
      <trkpt lat="43.80907" lon="7.24454">
        <ele>782.40002441406</ele>
        <time>2020-02-22T10:00:29.000Z</time>
      </trkpt>
      <trkpt lat="43.80906" lon="7.24442">
        <ele>783.40002441406</ele>
        <time>2020-02-22T10:00:33.000Z</time>
      </trkpt>
      <trkpt lat="43.80906" lon="7.24436">
        <ele>783.79998779297</ele>
        <time>2020-02-22T10:00:35.000Z</time>
      </trkpt>
      <trkpt lat="43.80907" lon="7.2443">
        <ele>785.20001220703</ele>
        <time>2020-02-22T10:00:38.000Z</time>
      </trkpt>
      <trkpt lat="43.80907" lon="7.24428">
        <ele>785.59997558594</ele>
        <time>2020-02-22T10:00:39.000Z</time>
      </trkpt>
      <trkpt lat="43.80907" lon="7.24425">
        <ele>786.20001220703</ele>
        <time>2020-02-22T10:00:40.000Z</time>
      </trkpt>
      <trkpt lat="43.80908" lon="7.24418">
        <ele>787.20001220703</ele>
        <time>2020-02-22T10:00:43.000Z</time>
      </trkpt>
      <trkpt lat="43.80909" lon="7.24413">
        <ele>787.59997558594</ele>
        <time>2020-02-22T10:00:45.000Z</time>
      </trkpt>
      <trkpt lat="43.80909" lon="7.24407">
        <ele>788.20001220703</ele>
        <time>2020-02-22T10:00:47.000Z</time>
      </trkpt>
      <trkpt lat="43.80911" lon="7.24396">
        <ele>789.40002441406</ele>
        <time>2020-02-22T10:00:51.000Z</time>
      </trkpt>
      <trkpt lat="43.80909" lon="7.24385">
        <ele>790.79998779297</ele>
        <time>2020-02-22T10:00:55.000Z</time>
      </trkpt>
      <trkpt lat="43.80907" lon="7.24379">
        <ele>791.20001220703</ele>
        <time>2020-02-22T10:00:57.000Z</time>
      </trkpt>
      <trkpt lat="43.80902" lon="7.24365">
        <ele>791.59997558594</ele>
        <time>2020-02-22T10:01:02.000Z</time>
      </trkpt>
      <trkpt lat="43.80901" lon="7.24362">
        <ele>791.79998779297</ele>
        <time>2020-02-22T10:01:03.000Z</time>
      </trkpt>
      <trkpt lat="43.80897" lon="7.24342">
        <ele>792.40002441406</ele>
        <time>2020-02-22T10:01:09.000Z</time>
      </trkpt>
      <trkpt lat="43.80897" lon="7.24339">
        <ele>792.79998779297</ele>
        <time>2020-02-22T10:01:10.000Z</time>
      </trkpt>
      <trkpt lat="43.80894" lon="7.24332">
        <ele>794.20001220703</ele>
        <time>2020-02-22T10:01:13.000Z</time>
      </trkpt>
      <trkpt lat="43.80891" lon="7.24325">
        <ele>795.20001220703</ele>
        <time>2020-02-22T10:01:16.000Z</time>
      </trkpt>
      <trkpt lat="43.80889" lon="7.24322">
        <ele>795.59997558594</ele>
        <time>2020-02-22T10:01:17.000Z</time>
      </trkpt>
      <trkpt lat="43.80884" lon="7.24309">
        <ele>796</ele>
        <time>2020-02-22T10:01:21.000Z</time>
      </trkpt>
      <trkpt lat="43.80884" lon="7.24302">
        <ele>796.59997558594</ele>
        <time>2020-02-22T10:01:24.000Z</time>
      </trkpt>
      <trkpt lat="43.80883" lon="7.243">
        <ele>797</ele>
        <time>2020-02-22T10:01:25.000Z</time>
      </trkpt>
      <trkpt lat="43.80882" lon="7.24297">
        <ele>797.79998779297</ele>
        <time>2020-02-22T10:01:27.000Z</time>
      </trkpt>
      <trkpt lat="43.80881" lon="7.24291">
        <ele>799</ele>
        <time>2020-02-22T10:01:30.000Z</time>
      </trkpt>
      <trkpt lat="43.8088" lon="7.2429">
        <ele>799.40002441406</ele>
        <time>2020-02-22T10:01:31.000Z</time>
      </trkpt>
      <trkpt lat="43.8088" lon="7.24287">
        <ele>800</ele>
        <time>2020-02-22T10:01:33.000Z</time>
      </trkpt>
      <trkpt lat="43.8088" lon="7.2428">
        <ele>801.20001220703</ele>
        <time>2020-02-22T10:01:37.000Z</time>
      </trkpt>
      <trkpt lat="43.8088" lon="7.2428">
        <ele>802.40002441406</ele>
        <time>2020-02-22T10:01:40.000Z</time>
      </trkpt>
      <trkpt lat="43.8088" lon="7.24279">
        <ele>802.79998779297</ele>
        <time>2020-02-22T10:01:42.000Z</time>
      </trkpt>
      <trkpt lat="43.8088" lon="7.24276">
        <ele>803</ele>
        <time>2020-02-22T10:01:50.000Z</time>
      </trkpt>
      <trkpt lat="43.80881" lon="7.24272">
        <ele>803.40002441406</ele>
        <time>2020-02-22T10:01:55.000Z</time>
      </trkpt>
      <trkpt lat="43.80882" lon="7.24271">
        <ele>803.59997558594</ele>
        <time>2020-02-22T10:01:56.000Z</time>
      </trkpt>
      <trkpt lat="43.80882" lon="7.24271">
        <ele>804.40002441406</ele>
        <time>2020-02-22T10:02:04.000Z</time>
      </trkpt>
      <trkpt lat="43.80884" lon="7.24264">
        <ele>804.40002441406</ele>
        <time>2020-02-22T10:02:10.000Z</time>
      </trkpt>
      <trkpt lat="43.80886" lon="7.24263">
        <ele>804.59997558594</ele>
        <time>2020-02-22T10:02:11.000Z</time>
      </trkpt>
      <trkpt lat="43.8089" lon="7.24264">
        <ele>805.20001220703</ele>
        <time>2020-02-22T10:02:14.000Z</time>
      </trkpt>
      <trkpt lat="43.80892" lon="7.24267">
        <ele>805.40002441406</ele>
        <time>2020-02-22T10:02:15.000Z</time>
      </trkpt>
      <trkpt lat="43.80893" lon="7.24269">
        <ele>805.59997558594</ele>
        <time>2020-02-22T10:02:16.000Z</time>
      </trkpt>
      <trkpt lat="43.80899" lon="7.24271">
        <ele>805.40002441406</ele>
        <time>2020-02-22T10:02:20.000Z</time>
      </trkpt>
      <trkpt lat="43.809" lon="7.2427">
        <ele>805.20001220703</ele>
        <time>2020-02-22T10:02:24.000Z</time>
      </trkpt>
      <trkpt lat="43.80899" lon="7.24271">
        <ele>805.59997558594</ele>
        <time>2020-02-22T10:02:33.000Z</time>
      </trkpt>
      <trkpt lat="43.80898" lon="7.24271">
        <ele>805.59997558594</ele>
        <time>2020-02-22T10:02:39.000Z</time>
      </trkpt>
      <trkpt lat="43.80898" lon="7.24272">
        <ele>805.59997558594</ele>
        <time>2020-02-22T10:02:56.000Z</time>
      </trkpt>
      <trkpt lat="43.80897" lon="7.24271">
        <ele>805.59997558594</ele>
        <time>2020-02-22T10:03:13.000Z</time>
      </trkpt>
      <trkpt lat="43.80897" lon="7.24271">
        <ele>805.59997558594</ele>
        <time>2020-02-22T10:03:34.000Z</time>
      </trkpt>
      <trkpt lat="43.80897" lon="7.24271">
        <ele>805.40002441406</ele>
        <time>2020-02-22T10:03:43.000Z</time>
      </trkpt>
      <trkpt lat="43.80897" lon="7.24271">
        <ele>805.40002441406</ele>
        <time>2020-02-22T10:04:07.000Z</time>
      </trkpt>
      <trkpt lat="43.80897" lon="7.24271">
        <ele>805.40002441406</ele>
        <time>2020-02-22T10:04:32.000Z</time>
      </trkpt>
      <trkpt lat="43.80897" lon="7.24271">
        <ele>805.40002441406</ele>
        <time>2020-02-22T10:04:55.000Z</time>
      </trkpt>
      <trkpt lat="43.80897" lon="7.2427">
        <ele>805.40002441406</ele>
        <time>2020-02-22T10:05:08.000Z</time>
      </trkpt>
      <trkpt lat="43.80898" lon="7.2427">
        <ele>805.20001220703</ele>
        <time>2020-02-22T10:05:18.000Z</time>
      </trkpt>
      <trkpt lat="43.80899" lon="7.24269">
        <ele>805.40002441406</ele>
        <time>2020-02-22T10:05:26.000Z</time>
      </trkpt>
      <trkpt lat="43.809" lon="7.24265">
        <ele>805.40002441406</ele>
        <time>2020-02-22T10:05:33.000Z</time>
      </trkpt>
      <trkpt lat="43.80906" lon="7.24252">
        <ele>805.20001220703</ele>
        <time>2020-02-22T10:05:38.000Z</time>
      </trkpt>
      <trkpt lat="43.80916" lon="7.24246">
        <ele>804.59997558594</ele>
        <time>2020-02-22T10:05:41.000Z</time>
      </trkpt>
      <trkpt lat="43.8092" lon="7.24247">
        <ele>804.20001220703</ele>
        <time>2020-02-22T10:05:42.000Z</time>
      </trkpt>
      <trkpt lat="43.80926" lon="7.2425">
        <ele>803.40002441406</ele>
        <time>2020-02-22T10:05:44.000Z</time>
      </trkpt>
      <trkpt lat="43.80937" lon="7.24251">
        <ele>802.79998779297</ele>
        <time>2020-02-22T10:05:47.000Z</time>
      </trkpt>
      <trkpt lat="43.80944" lon="7.24245">
        <ele>802</ele>
        <time>2020-02-22T10:05:49.000Z</time>
      </trkpt>
      <trkpt lat="43.80946" lon="7.2424">
        <ele>801.40002441406</ele>
        <time>2020-02-22T10:05:50.000Z</time>
      </trkpt>
      <trkpt lat="43.80949" lon="7.24235">
        <ele>800.79998779297</ele>
        <time>2020-02-22T10:05:51.000Z</time>
      </trkpt>
      <trkpt lat="43.8095" lon="7.24231">
        <ele>799.79998779297</ele>
        <time>2020-02-22T10:05:52.000Z</time>
      </trkpt>
      <trkpt lat="43.80953" lon="7.24226">
        <ele>798.59997558594</ele>
        <time>2020-02-22T10:05:53.000Z</time>
      </trkpt>
      <trkpt lat="43.80955" lon="7.24223">
        <ele>797.79998779297</ele>
        <time>2020-02-22T10:05:54.000Z</time>
      </trkpt>
      <trkpt lat="43.80958" lon="7.24218">
        <ele>796.79998779297</ele>
        <time>2020-02-22T10:05:55.000Z</time>
      </trkpt>
      <trkpt lat="43.80961" lon="7.24215">
        <ele>794.79998779297</ele>
        <time>2020-02-22T10:05:56.000Z</time>
      </trkpt>
      <trkpt lat="43.80962" lon="7.24212">
        <ele>793.40002441406</ele>
        <time>2020-02-22T10:05:57.000Z</time>
      </trkpt>
      <trkpt lat="43.80964" lon="7.24211">
        <ele>792.59997558594</ele>
        <time>2020-02-22T10:05:58.000Z</time>
      </trkpt>
      <trkpt lat="43.80965" lon="7.2421">
        <ele>791.20001220703</ele>
        <time>2020-02-22T10:05:59.000Z</time>
      </trkpt>
      <trkpt lat="43.80968" lon="7.2421">
        <ele>789.59997558594</ele>
        <time>2020-02-22T10:06:01.000Z</time>
      </trkpt>
      <trkpt lat="43.80968" lon="7.24208">
        <ele>789.20001220703</ele>
        <time>2020-02-22T10:06:02.000Z</time>
      </trkpt>
      <trkpt lat="43.80972" lon="7.24202">
        <ele>788.40002441406</ele>
        <time>2020-02-22T10:06:04.000Z</time>
      </trkpt>
      <trkpt lat="43.80974" lon="7.24199">
        <ele>787.79998779297</ele>
        <time>2020-02-22T10:06:05.000Z</time>
      </trkpt>
      <trkpt lat="43.80976" lon="7.24196">
        <ele>787.20001220703</ele>
        <time>2020-02-22T10:06:06.000Z</time>
      </trkpt>
      <trkpt lat="43.80979" lon="7.24193">
        <ele>785.40002441406</ele>
        <time>2020-02-22T10:06:08.000Z</time>
      </trkpt>
      <trkpt lat="43.80979" lon="7.2419">
        <ele>784.59997558594</ele>
        <time>2020-02-22T10:06:09.000Z</time>
      </trkpt>
      <trkpt lat="43.80979" lon="7.24187">
        <ele>783.40002441406</ele>
        <time>2020-02-22T10:06:10.000Z</time>
      </trkpt>
      <trkpt lat="43.80982" lon="7.24183">
        <ele>781.59997558594</ele>
        <time>2020-02-22T10:06:12.000Z</time>
      </trkpt>
      <trkpt lat="43.80987" lon="7.24182">
        <ele>780.40002441406</ele>
        <time>2020-02-22T10:06:14.000Z</time>
      </trkpt>
      <trkpt lat="43.80993" lon="7.2418">
        <ele>779</ele>
        <time>2020-02-22T10:06:16.000Z</time>
      </trkpt>
      <trkpt lat="43.80996" lon="7.24177">
        <ele>778.40002441406</ele>
        <time>2020-02-22T10:06:17.000Z</time>
      </trkpt>
      <trkpt lat="43.80998" lon="7.24174">
        <ele>777.59997558594</ele>
        <time>2020-02-22T10:06:18.000Z</time>
      </trkpt>
      <trkpt lat="43.81001" lon="7.24173">
        <ele>776.59997558594</ele>
        <time>2020-02-22T10:06:19.000Z</time>
      </trkpt>
      <trkpt lat="43.81004" lon="7.24173">
        <ele>775.40002441406</ele>
        <time>2020-02-22T10:06:20.000Z</time>
      </trkpt>
      <trkpt lat="43.81006" lon="7.24171">
        <ele>774.20001220703</ele>
        <time>2020-02-22T10:06:21.000Z</time>
      </trkpt>
      <trkpt lat="43.81007" lon="7.24168">
        <ele>773.20001220703</ele>
        <time>2020-02-22T10:06:22.000Z</time>
      </trkpt>
      <trkpt lat="43.8101" lon="7.24164">
        <ele>771.79998779297</ele>
        <time>2020-02-22T10:06:23.000Z</time>
      </trkpt>
      <trkpt lat="43.81014" lon="7.24161">
        <ele>770.20001220703</ele>
        <time>2020-02-22T10:06:25.000Z</time>
      </trkpt>
      <trkpt lat="43.81016" lon="7.24161">
        <ele>769.20001220703</ele>
        <time>2020-02-22T10:06:26.000Z</time>
      </trkpt>
      <trkpt lat="43.8102" lon="7.24161">
        <ele>767</ele>
        <time>2020-02-22T10:06:28.000Z</time>
      </trkpt>
      <trkpt lat="43.81024" lon="7.24161">
        <ele>766</ele>
        <time>2020-02-22T10:06:29.000Z</time>
      </trkpt>
      <trkpt lat="43.81026" lon="7.24163">
        <ele>765</ele>
        <time>2020-02-22T10:06:30.000Z</time>
      </trkpt>
      <trkpt lat="43.81028" lon="7.24165">
        <ele>763.79998779297</ele>
        <time>2020-02-22T10:06:31.000Z</time>
      </trkpt>
      <trkpt lat="43.81034" lon="7.24166">
        <ele>762.40002441406</ele>
        <time>2020-02-22T10:06:33.000Z</time>
      </trkpt>
      <trkpt lat="43.81036" lon="7.24164">
        <ele>761.79998779297</ele>
        <time>2020-02-22T10:06:34.000Z</time>
      </trkpt>
      <trkpt lat="43.8104" lon="7.24163">
        <ele>761</ele>
        <time>2020-02-22T10:06:35.000Z</time>
      </trkpt>
      <trkpt lat="43.81044" lon="7.24163">
        <ele>759.59997558594</ele>
        <time>2020-02-22T10:06:37.000Z</time>
      </trkpt>
      <trkpt lat="43.81046" lon="7.24158">
        <ele>757.79998779297</ele>
        <time>2020-02-22T10:06:39.000Z</time>
      </trkpt>
      <trkpt lat="43.81047" lon="7.24155">
        <ele>757</ele>
        <time>2020-02-22T10:06:40.000Z</time>
      </trkpt>
      <trkpt lat="43.81051" lon="7.24152">
        <ele>756.40002441406</ele>
        <time>2020-02-22T10:06:41.000Z</time>
      </trkpt>
      <trkpt lat="43.81055" lon="7.24148">
        <ele>755.20001220703</ele>
        <time>2020-02-22T10:06:43.000Z</time>
      </trkpt>
      <trkpt lat="43.81058" lon="7.24143">
        <ele>753.79998779297</ele>
        <time>2020-02-22T10:06:45.000Z</time>
      </trkpt>
      <trkpt lat="43.81065" lon="7.24142">
        <ele>752.20001220703</ele>
        <time>2020-02-22T10:06:47.000Z</time>
      </trkpt>
      <trkpt lat="43.81069" lon="7.24147">
        <ele>750</ele>
        <time>2020-02-22T10:06:49.000Z</time>
      </trkpt>
      <trkpt lat="43.81071" lon="7.2415">
        <ele>749</ele>
        <time>2020-02-22T10:06:50.000Z</time>
      </trkpt>
      <trkpt lat="43.81073" lon="7.24149">
        <ele>747.59997558594</ele>
        <time>2020-02-22T10:06:52.000Z</time>
      </trkpt>
      <trkpt lat="43.81074" lon="7.24147">
        <ele>747</ele>
        <time>2020-02-22T10:06:53.000Z</time>
      </trkpt>
      <trkpt lat="43.81078" lon="7.24142">
        <ele>746.40002441406</ele>
        <time>2020-02-22T10:06:55.000Z</time>
      </trkpt>
      <trkpt lat="43.81082" lon="7.24139">
        <ele>745.59997558594</ele>
        <time>2020-02-22T10:06:57.000Z</time>
      </trkpt>
      <trkpt lat="43.81082" lon="7.24136">
        <ele>744.59997558594</ele>
        <time>2020-02-22T10:06:58.000Z</time>
      </trkpt>
      <trkpt lat="43.81085" lon="7.24132">
        <ele>743</ele>
        <time>2020-02-22T10:07:00.000Z</time>
      </trkpt>
      <trkpt lat="43.81091" lon="7.2413">
        <ele>741.40002441406</ele>
        <time>2020-02-22T10:07:02.000Z</time>
      </trkpt>
      <trkpt lat="43.81097" lon="7.2413">
        <ele>740.20001220703</ele>
        <time>2020-02-22T10:07:04.000Z</time>
      </trkpt>
      <trkpt lat="43.81104" lon="7.24131">
        <ele>738.20001220703</ele>
        <time>2020-02-22T10:07:06.000Z</time>
      </trkpt>
      <trkpt lat="43.81107" lon="7.24133">
        <ele>736.40002441406</ele>
        <time>2020-02-22T10:07:07.000Z</time>
      </trkpt>
      <trkpt lat="43.8111" lon="7.24134">
        <ele>735.20001220703</ele>
        <time>2020-02-22T10:07:08.000Z</time>
      </trkpt>
      <trkpt lat="43.81113" lon="7.24136">
        <ele>734.20001220703</ele>
        <time>2020-02-22T10:07:09.000Z</time>
      </trkpt>
      <trkpt lat="43.81115" lon="7.24136">
        <ele>733</ele>
        <time>2020-02-22T10:07:10.000Z</time>
      </trkpt>
      <trkpt lat="43.81118" lon="7.24133">
        <ele>731</ele>
        <time>2020-02-22T10:07:12.000Z</time>
      </trkpt>
      <trkpt lat="43.81121" lon="7.2413">
        <ele>730.20001220703</ele>
        <time>2020-02-22T10:07:13.000Z</time>
      </trkpt>
      <trkpt lat="43.81124" lon="7.24128">
        <ele>729.40002441406</ele>
        <time>2020-02-22T10:07:14.000Z</time>
      </trkpt>
      <trkpt lat="43.81128" lon="7.24126">
        <ele>728.40002441406</ele>
        <time>2020-02-22T10:07:15.000Z</time>
      </trkpt>
      <trkpt lat="43.81131" lon="7.24125">
        <ele>727.79998779297</ele>
        <time>2020-02-22T10:07:16.000Z</time>
      </trkpt>
      <trkpt lat="43.81134" lon="7.24123">
        <ele>726.20001220703</ele>
        <time>2020-02-22T10:07:17.000Z</time>
      </trkpt>
      <trkpt lat="43.81137" lon="7.24119">
        <ele>725</ele>
        <time>2020-02-22T10:07:18.000Z</time>
      </trkpt>
      <trkpt lat="43.81139" lon="7.24117">
        <ele>723.40002441406</ele>
        <time>2020-02-22T10:07:19.000Z</time>
      </trkpt>
      <trkpt lat="43.8114" lon="7.24114">
        <ele>722</ele>
        <time>2020-02-22T10:07:20.000Z</time>
      </trkpt>
      <trkpt lat="43.8114" lon="7.2411">
        <ele>720.40002441406</ele>
        <time>2020-02-22T10:07:21.000Z</time>
      </trkpt>
      <trkpt lat="43.8114" lon="7.24107">
        <ele>719.59997558594</ele>
        <time>2020-02-22T10:07:22.000Z</time>
      </trkpt>
      <trkpt lat="43.81141" lon="7.24103">
        <ele>718.40002441406</ele>
        <time>2020-02-22T10:07:23.000Z</time>
      </trkpt>
      <trkpt lat="43.81144" lon="7.241">
        <ele>716.59997558594</ele>
        <time>2020-02-22T10:07:25.000Z</time>
      </trkpt>
      <trkpt lat="43.81147" lon="7.241">
        <ele>716</ele>
        <time>2020-02-22T10:07:26.000Z</time>
      </trkpt>
      <trkpt lat="43.8115" lon="7.24101">
        <ele>715.20001220703</ele>
        <time>2020-02-22T10:07:27.000Z</time>
      </trkpt>
      <trkpt lat="43.81154" lon="7.24103">
        <ele>713.59997558594</ele>
        <time>2020-02-22T10:07:29.000Z</time>
      </trkpt>
      <trkpt lat="43.81157" lon="7.24105">
        <ele>712.59997558594</ele>
        <time>2020-02-22T10:07:30.000Z</time>
      </trkpt>
      <trkpt lat="43.8116" lon="7.24107">
        <ele>711.59997558594</ele>
        <time>2020-02-22T10:07:31.000Z</time>
      </trkpt>
      <trkpt lat="43.81162" lon="7.24111">
        <ele>710.59997558594</ele>
        <time>2020-02-22T10:07:32.000Z</time>
      </trkpt>
      <trkpt lat="43.81163" lon="7.24115">
        <ele>709.40002441406</ele>
        <time>2020-02-22T10:07:33.000Z</time>
      </trkpt>
      <trkpt lat="43.81165" lon="7.24117">
        <ele>709</ele>
        <time>2020-02-22T10:07:34.000Z</time>
      </trkpt>
      <trkpt lat="43.81167" lon="7.24117">
        <ele>707.79998779297</ele>
        <time>2020-02-22T10:07:35.000Z</time>
      </trkpt>
      <trkpt lat="43.8117" lon="7.24115">
        <ele>705.59997558594</ele>
        <time>2020-02-22T10:07:37.000Z</time>
      </trkpt>
      <trkpt lat="43.81172" lon="7.24114">
        <ele>704.79998779297</ele>
        <time>2020-02-22T10:07:38.000Z</time>
      </trkpt>
      <trkpt lat="43.81173" lon="7.24114">
        <ele>703.59997558594</ele>
        <time>2020-02-22T10:07:39.000Z</time>
      </trkpt>
      <trkpt lat="43.81175" lon="7.24115">
        <ele>702.40002441406</ele>
        <time>2020-02-22T10:07:40.000Z</time>
      </trkpt>
      <trkpt lat="43.81179" lon="7.24121">
        <ele>700.40002441406</ele>
        <time>2020-02-22T10:07:42.000Z</time>
      </trkpt>
      <trkpt lat="43.81184" lon="7.24127">
        <ele>699</ele>
        <time>2020-02-22T10:07:44.000Z</time>
      </trkpt>
      <trkpt lat="43.81188" lon="7.24129">
        <ele>697.40002441406</ele>
        <time>2020-02-22T10:07:46.000Z</time>
      </trkpt>
      <trkpt lat="43.81189" lon="7.2413">
        <ele>696.20001220703</ele>
        <time>2020-02-22T10:07:47.000Z</time>
      </trkpt>
      <trkpt lat="43.81191" lon="7.24132">
        <ele>695.20001220703</ele>
        <time>2020-02-22T10:07:48.000Z</time>
      </trkpt>
      <trkpt lat="43.81195" lon="7.24132">
        <ele>693.59997558594</ele>
        <time>2020-02-22T10:07:50.000Z</time>
      </trkpt>
      <trkpt lat="43.81196" lon="7.24132">
        <ele>692.40002441406</ele>
        <time>2020-02-22T10:07:51.000Z</time>
      </trkpt>
      <trkpt lat="43.81198" lon="7.24131">
        <ele>691.40002441406</ele>
        <time>2020-02-22T10:07:52.000Z</time>
      </trkpt>
      <trkpt lat="43.81203" lon="7.24136">
        <ele>689.79998779297</ele>
        <time>2020-02-22T10:07:54.000Z</time>
      </trkpt>
      <trkpt lat="43.81206" lon="7.24138">
        <ele>688.79998779297</ele>
        <time>2020-02-22T10:07:55.000Z</time>
      </trkpt>
      <trkpt lat="43.81213" lon="7.24137">
        <ele>686.79998779297</ele>
        <time>2020-02-22T10:07:57.000Z</time>
      </trkpt>
      <trkpt lat="43.81217" lon="7.24138">
        <ele>685.59997558594</ele>
        <time>2020-02-22T10:07:58.000Z</time>
      </trkpt>
      <trkpt lat="43.8122" lon="7.2414">
        <ele>684.40002441406</ele>
        <time>2020-02-22T10:07:59.000Z</time>
      </trkpt>
      <trkpt lat="43.81224" lon="7.24142">
        <ele>682.59997558594</ele>
        <time>2020-02-22T10:08:00.000Z</time>
      </trkpt>
      <trkpt lat="43.81226" lon="7.24141">
        <ele>681.59997558594</ele>
        <time>2020-02-22T10:08:01.000Z</time>
      </trkpt>
      <trkpt lat="43.81228" lon="7.24138">
        <ele>680.59997558594</ele>
        <time>2020-02-22T10:08:02.000Z</time>
      </trkpt>
      <trkpt lat="43.81231" lon="7.24137">
        <ele>680</ele>
        <time>2020-02-22T10:08:03.000Z</time>
      </trkpt>
      <trkpt lat="43.81237" lon="7.24137">
        <ele>678.40002441406</ele>
        <time>2020-02-22T10:08:05.000Z</time>
      </trkpt>
      <trkpt lat="43.8124" lon="7.24137">
        <ele>677.59997558594</ele>
        <time>2020-02-22T10:08:06.000Z</time>
      </trkpt>
      <trkpt lat="43.81243" lon="7.24138">
        <ele>676.40002441406</ele>
        <time>2020-02-22T10:08:07.000Z</time>
      </trkpt>
      <trkpt lat="43.81245" lon="7.24138">
        <ele>675.40002441406</ele>
        <time>2020-02-22T10:08:08.000Z</time>
      </trkpt>
      <trkpt lat="43.81248" lon="7.24138">
        <ele>674.40002441406</ele>
        <time>2020-02-22T10:08:09.000Z</time>
      </trkpt>
      <trkpt lat="43.81251" lon="7.24138">
        <ele>673.59997558594</ele>
        <time>2020-02-22T10:08:10.000Z</time>
      </trkpt>
      <trkpt lat="43.81252" lon="7.24138">
        <ele>672.40002441406</ele>
        <time>2020-02-22T10:08:11.000Z</time>
      </trkpt>
      <trkpt lat="43.81257" lon="7.24139">
        <ele>670.59997558594</ele>
        <time>2020-02-22T10:08:13.000Z</time>
      </trkpt>
      <trkpt lat="43.81259" lon="7.24141">
        <ele>670.20001220703</ele>
        <time>2020-02-22T10:08:14.000Z</time>
      </trkpt>
      <trkpt lat="43.81261" lon="7.24141">
        <ele>669.59997558594</ele>
        <time>2020-02-22T10:08:15.000Z</time>
      </trkpt>
      <trkpt lat="43.81269" lon="7.24145">
        <ele>668</ele>
        <time>2020-02-22T10:08:18.000Z</time>
      </trkpt>
      <trkpt lat="43.81271" lon="7.24146">
        <ele>667.40002441406</ele>
        <time>2020-02-22T10:08:19.000Z</time>
      </trkpt>
      <trkpt lat="43.81272" lon="7.24145">
        <ele>666.59997558594</ele>
        <time>2020-02-22T10:08:20.000Z</time>
      </trkpt>
      <trkpt lat="43.81275" lon="7.24144">
        <ele>665.79998779297</ele>
        <time>2020-02-22T10:08:21.000Z</time>
      </trkpt>
      <trkpt lat="43.81278" lon="7.24143">
        <ele>665</ele>
        <time>2020-02-22T10:08:22.000Z</time>
      </trkpt>
      <trkpt lat="43.81283" lon="7.24146">
        <ele>663.59997558594</ele>
        <time>2020-02-22T10:08:24.000Z</time>
      </trkpt>
      <trkpt lat="43.81285" lon="7.24148">
        <ele>663</ele>
        <time>2020-02-22T10:08:25.000Z</time>
      </trkpt>
      <trkpt lat="43.81288" lon="7.2415">
        <ele>662.20001220703</ele>
        <time>2020-02-22T10:08:26.000Z</time>
      </trkpt>
      <trkpt lat="43.81293" lon="7.24153">
        <ele>660.79998779297</ele>
        <time>2020-02-22T10:08:28.000Z</time>
      </trkpt>
      <trkpt lat="43.81297" lon="7.24157">
        <ele>659.79998779297</ele>
        <time>2020-02-22T10:08:29.000Z</time>
      </trkpt>
      <trkpt lat="43.81301" lon="7.2416">
        <ele>659</ele>
        <time>2020-02-22T10:08:30.000Z</time>
      </trkpt>
      <trkpt lat="43.81305" lon="7.24163">
        <ele>658</ele>
        <time>2020-02-22T10:08:31.000Z</time>
      </trkpt>
      <trkpt lat="43.81309" lon="7.24163">
        <ele>656.79998779297</ele>
        <time>2020-02-22T10:08:32.000Z</time>
      </trkpt>
      <trkpt lat="43.81313" lon="7.24165">
        <ele>655.40002441406</ele>
        <time>2020-02-22T10:08:33.000Z</time>
      </trkpt>
      <trkpt lat="43.81316" lon="7.24167">
        <ele>654.20001220703</ele>
        <time>2020-02-22T10:08:34.000Z</time>
      </trkpt>
      <trkpt lat="43.8132" lon="7.24169">
        <ele>653</ele>
        <time>2020-02-22T10:08:35.000Z</time>
      </trkpt>
      <trkpt lat="43.81324" lon="7.2417">
        <ele>651.20001220703</ele>
        <time>2020-02-22T10:08:36.000Z</time>
      </trkpt>
      <trkpt lat="43.81327" lon="7.24171">
        <ele>649.79998779297</ele>
        <time>2020-02-22T10:08:37.000Z</time>
      </trkpt>
      <trkpt lat="43.8133" lon="7.24169">
        <ele>648.79998779297</ele>
        <time>2020-02-22T10:08:38.000Z</time>
      </trkpt>
      <trkpt lat="43.81332" lon="7.24167">
        <ele>647.59997558594</ele>
        <time>2020-02-22T10:08:39.000Z</time>
      </trkpt>
      <trkpt lat="43.81334" lon="7.24167">
        <ele>646.40002441406</ele>
        <time>2020-02-22T10:08:40.000Z</time>
      </trkpt>
      <trkpt lat="43.81336" lon="7.24169">
        <ele>645.59997558594</ele>
        <time>2020-02-22T10:08:41.000Z</time>
      </trkpt>
      <trkpt lat="43.81339" lon="7.24173">
        <ele>644.59997558594</ele>
        <time>2020-02-22T10:08:42.000Z</time>
      </trkpt>
      <trkpt lat="43.81343" lon="7.24175">
        <ele>643.40002441406</ele>
        <time>2020-02-22T10:08:43.000Z</time>
      </trkpt>
      <trkpt lat="43.81349" lon="7.24177">
        <ele>641.40002441406</ele>
        <time>2020-02-22T10:08:45.000Z</time>
      </trkpt>
      <trkpt lat="43.81351" lon="7.24177">
        <ele>640.20001220703</ele>
        <time>2020-02-22T10:08:46.000Z</time>
      </trkpt>
      <trkpt lat="43.81354" lon="7.24177">
        <ele>639.20001220703</ele>
        <time>2020-02-22T10:08:47.000Z</time>
      </trkpt>
      <trkpt lat="43.81357" lon="7.24177">
        <ele>638</ele>
        <time>2020-02-22T10:08:48.000Z</time>
      </trkpt>
      <trkpt lat="43.8136" lon="7.24178">
        <ele>637</ele>
        <time>2020-02-22T10:08:49.000Z</time>
      </trkpt>
      <trkpt lat="43.81362" lon="7.24182">
        <ele>635.59997558594</ele>
        <time>2020-02-22T10:08:50.000Z</time>
      </trkpt>
      <trkpt lat="43.81363" lon="7.24186">
        <ele>634.40002441406</ele>
        <time>2020-02-22T10:08:51.000Z</time>
      </trkpt>
      <trkpt lat="43.81365" lon="7.2419">
        <ele>633.40002441406</ele>
        <time>2020-02-22T10:08:52.000Z</time>
      </trkpt>
      <trkpt lat="43.81368" lon="7.24193">
        <ele>632.20001220703</ele>
        <time>2020-02-22T10:08:53.000Z</time>
      </trkpt>
      <trkpt lat="43.8137" lon="7.24194">
        <ele>630.59997558594</ele>
        <time>2020-02-22T10:08:54.000Z</time>
      </trkpt>
      <trkpt lat="43.81373" lon="7.24196">
        <ele>629.40002441406</ele>
        <time>2020-02-22T10:08:55.000Z</time>
      </trkpt>
      <trkpt lat="43.81374" lon="7.24199">
        <ele>628.40002441406</ele>
        <time>2020-02-22T10:08:56.000Z</time>
      </trkpt>
      <trkpt lat="43.81375" lon="7.24202">
        <ele>627.20001220703</ele>
        <time>2020-02-22T10:08:57.000Z</time>
      </trkpt>
      <trkpt lat="43.81376" lon="7.24207">
        <ele>626</ele>
        <time>2020-02-22T10:08:58.000Z</time>
      </trkpt>
      <trkpt lat="43.81377" lon="7.24211">
        <ele>625</ele>
        <time>2020-02-22T10:08:59.000Z</time>
      </trkpt>
      <trkpt lat="43.81382" lon="7.24219">
        <ele>622.79998779297</ele>
        <time>2020-02-22T10:09:01.000Z</time>
      </trkpt>
      <trkpt lat="43.81385" lon="7.24223">
        <ele>621.79998779297</ele>
        <time>2020-02-22T10:09:02.000Z</time>
      </trkpt>
      <trkpt lat="43.81387" lon="7.24227">
        <ele>620.59997558594</ele>
        <time>2020-02-22T10:09:03.000Z</time>
      </trkpt>
      <trkpt lat="43.81388" lon="7.2423">
        <ele>619.40002441406</ele>
        <time>2020-02-22T10:09:04.000Z</time>
      </trkpt>
      <trkpt lat="43.81391" lon="7.24233">
        <ele>618.20001220703</ele>
        <time>2020-02-22T10:09:05.000Z</time>
      </trkpt>
      <trkpt lat="43.81394" lon="7.24236">
        <ele>617</ele>
        <time>2020-02-22T10:09:06.000Z</time>
      </trkpt>
      <trkpt lat="43.81396" lon="7.24239">
        <ele>615.59997558594</ele>
        <time>2020-02-22T10:09:07.000Z</time>
      </trkpt>
      <trkpt lat="43.81395" lon="7.24242">
        <ele>614.40002441406</ele>
        <time>2020-02-22T10:09:08.000Z</time>
      </trkpt>
      <trkpt lat="43.81395" lon="7.24244">
        <ele>613</ele>
        <time>2020-02-22T10:09:09.000Z</time>
      </trkpt>
      <trkpt lat="43.81396" lon="7.24246">
        <ele>612</ele>
        <time>2020-02-22T10:09:10.000Z</time>
      </trkpt>
      <trkpt lat="43.81397" lon="7.24247">
        <ele>610.59997558594</ele>
        <time>2020-02-22T10:09:11.000Z</time>
      </trkpt>
      <trkpt lat="43.81399" lon="7.24248">
        <ele>609.20001220703</ele>
        <time>2020-02-22T10:09:13.000Z</time>
      </trkpt>
      <trkpt lat="43.81403" lon="7.24251">
        <ele>608</ele>
        <time>2020-02-22T10:09:15.000Z</time>
      </trkpt>
      <trkpt lat="43.81404" lon="7.24254">
        <ele>606.20001220703</ele>
        <time>2020-02-22T10:09:17.000Z</time>
      </trkpt>
      <trkpt lat="43.81405" lon="7.24252">
        <ele>605.40002441406</ele>
        <time>2020-02-22T10:09:18.000Z</time>
      </trkpt>
      <trkpt lat="43.81406" lon="7.2425">
        <ele>604.20001220703</ele>
        <time>2020-02-22T10:09:19.000Z</time>
      </trkpt>
      <trkpt lat="43.81408" lon="7.24245">
        <ele>602.40002441406</ele>
        <time>2020-02-22T10:09:21.000Z</time>
      </trkpt>
      <trkpt lat="43.81414" lon="7.24237">
        <ele>601.59997558594</ele>
        <time>2020-02-22T10:09:25.000Z</time>
      </trkpt>
      <trkpt lat="43.81415" lon="7.24238">
        <ele>601.20001220703</ele>
        <time>2020-02-22T10:09:26.000Z</time>
      </trkpt>
      <trkpt lat="43.81416" lon="7.24243">
        <ele>600.20001220703</ele>
        <time>2020-02-22T10:09:28.000Z</time>
      </trkpt>
      <trkpt lat="43.81418" lon="7.2425">
        <ele>599</ele>
        <time>2020-02-22T10:09:30.000Z</time>
      </trkpt>
      <trkpt lat="43.81422" lon="7.24256">
        <ele>598.20001220703</ele>
        <time>2020-02-22T10:09:32.000Z</time>
      </trkpt>
      <trkpt lat="43.81424" lon="7.24259">
        <ele>597.79998779297</ele>
        <time>2020-02-22T10:09:33.000Z</time>
      </trkpt>
      <trkpt lat="43.81426" lon="7.24266">
        <ele>596</ele>
        <time>2020-02-22T10:09:35.000Z</time>
      </trkpt>
      <trkpt lat="43.81425" lon="7.2427">
        <ele>595</ele>
        <time>2020-02-22T10:09:36.000Z</time>
      </trkpt>
      <trkpt lat="43.81423" lon="7.24277">
        <ele>593.20001220703</ele>
        <time>2020-02-22T10:09:38.000Z</time>
      </trkpt>
      <trkpt lat="43.8142" lon="7.24281">
        <ele>591.20001220703</ele>
        <time>2020-02-22T10:09:40.000Z</time>
      </trkpt>
      <trkpt lat="43.81417" lon="7.24285">
        <ele>590</ele>
        <time>2020-02-22T10:09:42.000Z</time>
      </trkpt>
      <trkpt lat="43.81414" lon="7.24289">
        <ele>588.79998779297</ele>
        <time>2020-02-22T10:09:44.000Z</time>
      </trkpt>
      <trkpt lat="43.81411" lon="7.24292">
        <ele>588.20001220703</ele>
        <time>2020-02-22T10:09:45.000Z</time>
      </trkpt>
      <trkpt lat="43.8141" lon="7.24297">
        <ele>587.20001220703</ele>
        <time>2020-02-22T10:09:46.000Z</time>
      </trkpt>
      <trkpt lat="43.81409" lon="7.24301">
        <ele>585.79998779297</ele>
        <time>2020-02-22T10:09:47.000Z</time>
      </trkpt>
      <trkpt lat="43.8141" lon="7.24304">
        <ele>584.79998779297</ele>
        <time>2020-02-22T10:09:48.000Z</time>
      </trkpt>
      <trkpt lat="43.81412" lon="7.24307">
        <ele>583.40002441406</ele>
        <time>2020-02-22T10:09:49.000Z</time>
      </trkpt>
      <trkpt lat="43.81415" lon="7.24309">
        <ele>582.20001220703</ele>
        <time>2020-02-22T10:09:50.000Z</time>
      </trkpt>
      <trkpt lat="43.81417" lon="7.2431">
        <ele>581.40002441406</ele>
        <time>2020-02-22T10:09:51.000Z</time>
      </trkpt>
      <trkpt lat="43.81418" lon="7.2431">
        <ele>580.20001220703</ele>
        <time>2020-02-22T10:09:52.000Z</time>
      </trkpt>
      <trkpt lat="43.81419" lon="7.2431">
        <ele>579</ele>
        <time>2020-02-22T10:09:53.000Z</time>
      </trkpt>
      <trkpt lat="43.81419" lon="7.2431">
        <ele>577.20001220703</ele>
        <time>2020-02-22T10:09:55.000Z</time>
      </trkpt>
      <trkpt lat="43.81421" lon="7.2431">
        <ele>575.79998779297</ele>
        <time>2020-02-22T10:09:58.000Z</time>
      </trkpt>
      <trkpt lat="43.81424" lon="7.24311">
        <ele>575.59997558594</ele>
        <time>2020-02-22T10:09:59.000Z</time>
      </trkpt>
      <trkpt lat="43.81435" lon="7.24311">
        <ele>574.79998779297</ele>
        <time>2020-02-22T10:10:03.000Z</time>
      </trkpt>
      <trkpt lat="43.81439" lon="7.2431">
        <ele>574.20001220703</ele>
        <time>2020-02-22T10:10:04.000Z</time>
      </trkpt>
      <trkpt lat="43.81445" lon="7.24308">
        <ele>573.40002441406</ele>
        <time>2020-02-22T10:10:05.000Z</time>
      </trkpt>
      <trkpt lat="43.81455" lon="7.24308">
        <ele>571.59997558594</ele>
        <time>2020-02-22T10:10:07.000Z</time>
      </trkpt>
      <trkpt lat="43.8146" lon="7.24309">
        <ele>570.40002441406</ele>
        <time>2020-02-22T10:10:08.000Z</time>
      </trkpt>
      <trkpt lat="43.81463" lon="7.24314">
        <ele>568.79998779297</ele>
        <time>2020-02-22T10:10:10.000Z</time>
      </trkpt>
      <trkpt lat="43.81467" lon="7.24317">
        <ele>567.20001220703</ele>
        <time>2020-02-22T10:10:12.000Z</time>
      </trkpt>
      <trkpt lat="43.81472" lon="7.24315">
        <ele>565.79998779297</ele>
        <time>2020-02-22T10:10:14.000Z</time>
      </trkpt>
      <trkpt lat="43.81474" lon="7.24314">
        <ele>565.20001220703</ele>
        <time>2020-02-22T10:10:15.000Z</time>
      </trkpt>
      <trkpt lat="43.81477" lon="7.24309">
        <ele>564.79998779297</ele>
        <time>2020-02-22T10:10:17.000Z</time>
      </trkpt>
      <trkpt lat="43.81478" lon="7.24305">
        <ele>564.59997558594</ele>
        <time>2020-02-22T10:10:18.000Z</time>
      </trkpt>
      <trkpt lat="43.81478" lon="7.24299">
        <ele>564.59997558594</ele>
        <time>2020-02-22T10:10:19.000Z</time>
      </trkpt>
      <trkpt lat="43.81479" lon="7.24292">
        <ele>564.40002441406</ele>
        <time>2020-02-22T10:10:20.000Z</time>
      </trkpt>
      <trkpt lat="43.81477" lon="7.24288">
        <ele>563.59997558594</ele>
        <time>2020-02-22T10:10:22.000Z</time>
      </trkpt>
      <trkpt lat="43.81476" lon="7.24288">
        <ele>562.20001220703</ele>
        <time>2020-02-22T10:10:24.000Z</time>
      </trkpt>
      <trkpt lat="43.81475" lon="7.24288">
        <ele>561.40002441406</ele>
        <time>2020-02-22T10:10:26.000Z</time>
      </trkpt>
      <trkpt lat="43.81474" lon="7.24289">
        <ele>561.59997558594</ele>
        <time>2020-02-22T10:10:40.000Z</time>
      </trkpt>
      <trkpt lat="43.81474" lon="7.24288">
        <ele>561.59997558594</ele>
        <time>2020-02-22T10:10:47.000Z</time>
      </trkpt>
      <trkpt lat="43.81475" lon="7.24289">
        <ele>561.59997558594</ele>
        <time>2020-02-22T10:10:53.000Z</time>
      </trkpt>
      <trkpt lat="43.81476" lon="7.24289">
        <ele>561.59997558594</ele>
        <time>2020-02-22T10:11:01.000Z</time>
      </trkpt>
      <trkpt lat="43.81477" lon="7.2429">
        <ele>561.59997558594</ele>
        <time>2020-02-22T10:11:26.000Z</time>
      </trkpt>
      <trkpt lat="43.81477" lon="7.24291">
        <ele>561.59997558594</ele>
        <time>2020-02-22T10:11:42.000Z</time>
      </trkpt>
      <trkpt lat="43.81479" lon="7.24291">
        <ele>561.40002441406</ele>
        <time>2020-02-22T10:11:50.000Z</time>
      </trkpt>
      <trkpt lat="43.81478" lon="7.24291">
        <ele>561.40002441406</ele>
        <time>2020-02-22T10:11:55.000Z</time>
      </trkpt>
      <trkpt lat="43.81478" lon="7.24292">
        <ele>561.59997558594</ele>
        <time>2020-02-22T10:12:02.000Z</time>
      </trkpt>
      <trkpt lat="43.81477" lon="7.24292">
        <ele>561.59997558594</ele>
        <time>2020-02-22T10:12:12.000Z</time>
      </trkpt>
      <trkpt lat="43.81473" lon="7.24292">
        <ele>561.59997558594</ele>
        <time>2020-02-22T10:12:23.000Z</time>
      </trkpt>
      <trkpt lat="43.8147" lon="7.24292">
        <ele>561.59997558594</ele>
        <time>2020-02-22T10:12:34.000Z</time>
      </trkpt>
      <trkpt lat="43.81474" lon="7.24293">
        <ele>561.40002441406</ele>
        <time>2020-02-22T10:12:45.000Z</time>
      </trkpt>
      <trkpt lat="43.81476" lon="7.24293">
        <ele>561.40002441406</ele>
        <time>2020-02-22T10:12:55.000Z</time>
      </trkpt>
      <trkpt lat="43.81478" lon="7.24292">
        <ele>561.59997558594</ele>
        <time>2020-02-22T10:12:59.000Z</time>
      </trkpt>
      <trkpt lat="43.81477" lon="7.24292">
        <ele>561.79998779297</ele>
        <time>2020-02-22T10:13:04.000Z</time>
      </trkpt>
      <trkpt lat="43.81478" lon="7.24292">
        <ele>561.79998779297</ele>
        <time>2020-02-22T10:13:10.000Z</time>
      </trkpt>
      <trkpt lat="43.8148" lon="7.24292">
        <ele>561.59997558594</ele>
        <time>2020-02-22T10:13:16.000Z</time>
      </trkpt>
      <trkpt lat="43.81482" lon="7.24292">
        <ele>561.79998779297</ele>
        <time>2020-02-22T10:13:27.000Z</time>
      </trkpt>
      <trkpt lat="43.81481" lon="7.24292">
        <ele>561.40002441406</ele>
        <time>2020-02-22T10:13:41.000Z</time>
      </trkpt>
      <trkpt lat="43.81481" lon="7.24292">
        <ele>561.20001220703</ele>
        <time>2020-02-22T10:13:48.000Z</time>
      </trkpt>
      <trkpt lat="43.81479" lon="7.24292">
        <ele>561.40002441406</ele>
        <time>2020-02-22T10:14:04.000Z</time>
      </trkpt>
      <trkpt lat="43.81477" lon="7.24292">
        <ele>561.40002441406</ele>
        <time>2020-02-22T10:14:28.000Z</time>
      </trkpt>
      <trkpt lat="43.81475" lon="7.24291">
        <ele>561.40002441406</ele>
        <time>2020-02-22T10:14:44.000Z</time>
      </trkpt>
      <trkpt lat="43.81474" lon="7.24291">
        <ele>561.40002441406</ele>
        <time>2020-02-22T10:15:02.000Z</time>
      </trkpt>
      <trkpt lat="43.81475" lon="7.24291">
        <ele>561.20001220703</ele>
        <time>2020-02-22T10:15:22.000Z</time>
      </trkpt>
      <trkpt lat="43.81475" lon="7.2429">
        <ele>561.20001220703</ele>
        <time>2020-02-22T10:15:40.000Z</time>
      </trkpt>
      <trkpt lat="43.81477" lon="7.24289">
        <ele>561.20001220703</ele>
        <time>2020-02-22T10:16:00.000Z</time>
      </trkpt>
      <trkpt lat="43.81477" lon="7.24289">
        <ele>561.20001220703</ele>
        <time>2020-02-22T10:16:01.000Z</time>
      </trkpt>
      <trkpt lat="43.81477" lon="7.2429">
        <ele>561.20001220703</ele>
        <time>2020-02-22T10:16:16.000Z</time>
      </trkpt>
      <trkpt lat="43.81478" lon="7.2429">
        <ele>561</ele>
        <time>2020-02-22T10:16:24.000Z</time>
      </trkpt>
      <trkpt lat="43.81479" lon="7.2429">
        <ele>561</ele>
        <time>2020-02-22T10:16:42.000Z</time>
      </trkpt>
      <trkpt lat="43.8148" lon="7.24291">
        <ele>560.79998779297</ele>
        <time>2020-02-22T10:16:58.000Z</time>
      </trkpt>
      <trkpt lat="43.8148" lon="7.24292">
        <ele>560.79998779297</ele>
        <time>2020-02-22T10:17:07.000Z</time>
      </trkpt>
      <trkpt lat="43.8148" lon="7.24292">
        <ele>560.79998779297</ele>
        <time>2020-02-22T10:17:16.000Z</time>
      </trkpt>
      <trkpt lat="43.81479" lon="7.24292">
        <ele>560.59997558594</ele>
        <time>2020-02-22T10:17:27.000Z</time>
      </trkpt>
      <trkpt lat="43.81478" lon="7.24292">
        <ele>560.59997558594</ele>
        <time>2020-02-22T10:17:39.000Z</time>
      </trkpt>
      <trkpt lat="43.81479" lon="7.24292">
        <ele>560.59997558594</ele>
        <time>2020-02-22T10:17:52.000Z</time>
      </trkpt>
      <trkpt lat="43.81481" lon="7.24293">
        <ele>560.40002441406</ele>
        <time>2020-02-22T10:18:01.000Z</time>
      </trkpt>
      <trkpt lat="43.81484" lon="7.24293">
        <ele>560.20001220703</ele>
        <time>2020-02-22T10:18:13.000Z</time>
      </trkpt>
      <trkpt lat="43.81484" lon="7.24292">
        <ele>560.20001220703</ele>
        <time>2020-02-22T10:18:23.000Z</time>
      </trkpt>
      <trkpt lat="43.81484" lon="7.24291">
        <ele>560.20001220703</ele>
        <time>2020-02-22T10:18:32.000Z</time>
      </trkpt>
      <trkpt lat="43.81485" lon="7.24289">
        <ele>560.40002441406</ele>
        <time>2020-02-22T10:18:35.000Z</time>
      </trkpt>
      <trkpt lat="43.81484" lon="7.24283">
        <ele>560.40002441406</ele>
        <time>2020-02-22T10:18:37.000Z</time>
      </trkpt>
      <trkpt lat="43.81484" lon="7.24277">
        <ele>560.20001220703</ele>
        <time>2020-02-22T10:18:39.000Z</time>
      </trkpt>
      <trkpt lat="43.81484" lon="7.24273">
        <ele>560</ele>
        <time>2020-02-22T10:18:40.000Z</time>
      </trkpt>
      <trkpt lat="43.81485" lon="7.24255">
        <ele>559.59997558594</ele>
        <time>2020-02-22T10:18:44.000Z</time>
      </trkpt>
      <trkpt lat="43.81489" lon="7.24232">
        <ele>558.59997558594</ele>
        <time>2020-02-22T10:18:48.000Z</time>
      </trkpt>
      <trkpt lat="43.81489" lon="7.24226">
        <ele>558.40002441406</ele>
        <time>2020-02-22T10:18:49.000Z</time>
      </trkpt>
      <trkpt lat="43.81489" lon="7.24212">
        <ele>557.40002441406</ele>
        <time>2020-02-22T10:18:51.000Z</time>
      </trkpt>
      <trkpt lat="43.81488" lon="7.24191">
        <ele>556.20001220703</ele>
        <time>2020-02-22T10:18:54.000Z</time>
      </trkpt>
      <trkpt lat="43.81488" lon="7.24183">
        <ele>555.59997558594</ele>
        <time>2020-02-22T10:18:55.000Z</time>
      </trkpt>
      <trkpt lat="43.81487" lon="7.24175">
        <ele>555</ele>
        <time>2020-02-22T10:18:56.000Z</time>
      </trkpt>
      <trkpt lat="43.81486" lon="7.24158">
        <ele>553.79998779297</ele>
        <time>2020-02-22T10:18:58.000Z</time>
      </trkpt>
      <trkpt lat="43.81487" lon="7.24149">
        <ele>553.40002441406</ele>
        <time>2020-02-22T10:18:59.000Z</time>
      </trkpt>
      <trkpt lat="43.81488" lon="7.2414">
        <ele>552.79998779297</ele>
        <time>2020-02-22T10:19:00.000Z</time>
      </trkpt>
      <trkpt lat="43.81488" lon="7.24132">
        <ele>552.40002441406</ele>
        <time>2020-02-22T10:19:01.000Z</time>
      </trkpt>
      <trkpt lat="43.8149" lon="7.24122">
        <ele>551.79998779297</ele>
        <time>2020-02-22T10:19:02.000Z</time>
      </trkpt>
      <trkpt lat="43.81492" lon="7.24114">
        <ele>551.40002441406</ele>
        <time>2020-02-22T10:19:03.000Z</time>
      </trkpt>
      <trkpt lat="43.81497" lon="7.24097">
        <ele>550</ele>
        <time>2020-02-22T10:19:05.000Z</time>
      </trkpt>
      <trkpt lat="43.81498" lon="7.2409">
        <ele>549.40002441406</ele>
        <time>2020-02-22T10:19:06.000Z</time>
      </trkpt>
      <trkpt lat="43.815" lon="7.24082">
        <ele>548.79998779297</ele>
        <time>2020-02-22T10:19:07.000Z</time>
      </trkpt>
      <trkpt lat="43.81502" lon="7.24065">
        <ele>547.59997558594</ele>
        <time>2020-02-22T10:19:09.000Z</time>
      </trkpt>
      <trkpt lat="43.81501" lon="7.24048">
        <ele>546.40002441406</ele>
        <time>2020-02-22T10:19:11.000Z</time>
      </trkpt>
      <trkpt lat="43.81494" lon="7.24033">
        <ele>545.20001220703</ele>
        <time>2020-02-22T10:19:13.000Z</time>
      </trkpt>
      <trkpt lat="43.81491" lon="7.24026">
        <ele>544.59997558594</ele>
        <time>2020-02-22T10:19:14.000Z</time>
      </trkpt>
      <trkpt lat="43.81486" lon="7.24019">
        <ele>544</ele>
        <time>2020-02-22T10:19:15.000Z</time>
      </trkpt>
      <trkpt lat="43.81475" lon="7.24007">
        <ele>543.20001220703</ele>
        <time>2020-02-22T10:19:17.000Z</time>
      </trkpt>
      <trkpt lat="43.81469" lon="7.24001">
        <ele>542.59997558594</ele>
        <time>2020-02-22T10:19:18.000Z</time>
      </trkpt>
      <trkpt lat="43.81453" lon="7.23983">
        <ele>541.20001220703</ele>
        <time>2020-02-22T10:19:21.000Z</time>
      </trkpt>
      <trkpt lat="43.81448" lon="7.23977">
        <ele>540.79998779297</ele>
        <time>2020-02-22T10:19:22.000Z</time>
      </trkpt>
      <trkpt lat="43.81437" lon="7.23966">
        <ele>539.79998779297</ele>
        <time>2020-02-22T10:19:24.000Z</time>
      </trkpt>
      <trkpt lat="43.81428" lon="7.23955">
        <ele>538.40002441406</ele>
        <time>2020-02-22T10:19:26.000Z</time>
      </trkpt>
      <trkpt lat="43.81425" lon="7.23949">
        <ele>538</ele>
        <time>2020-02-22T10:19:27.000Z</time>
      </trkpt>
      <trkpt lat="43.81422" lon="7.23943">
        <ele>537.40002441406</ele>
        <time>2020-02-22T10:19:28.000Z</time>
      </trkpt>
      <trkpt lat="43.81415" lon="7.23931">
        <ele>536.40002441406</ele>
        <time>2020-02-22T10:19:30.000Z</time>
      </trkpt>
      <trkpt lat="43.8141" lon="7.23927">
        <ele>536</ele>
        <time>2020-02-22T10:19:31.000Z</time>
      </trkpt>
      <trkpt lat="43.81406" lon="7.23923">
        <ele>535.59997558594</ele>
        <time>2020-02-22T10:19:32.000Z</time>
      </trkpt>
      <trkpt lat="43.814" lon="7.2392">
        <ele>535.20001220703</ele>
        <time>2020-02-22T10:19:33.000Z</time>
      </trkpt>
      <trkpt lat="43.81398" lon="7.23915">
        <ele>534.59997558594</ele>
        <time>2020-02-22T10:19:34.000Z</time>
      </trkpt>
      <trkpt lat="43.81396" lon="7.23906">
        <ele>534.20001220703</ele>
        <time>2020-02-22T10:19:35.000Z</time>
      </trkpt>
      <trkpt lat="43.81396" lon="7.23896">
        <ele>533.59997558594</ele>
        <time>2020-02-22T10:19:36.000Z</time>
      </trkpt>
      <trkpt lat="43.814" lon="7.23881">
        <ele>532.79998779297</ele>
        <time>2020-02-22T10:19:38.000Z</time>
      </trkpt>
      <trkpt lat="43.81403" lon="7.23876">
        <ele>532.40002441406</ele>
        <time>2020-02-22T10:19:39.000Z</time>
      </trkpt>
      <trkpt lat="43.81414" lon="7.23868">
        <ele>531.79998779297</ele>
        <time>2020-02-22T10:19:41.000Z</time>
      </trkpt>
      <trkpt lat="43.8142" lon="7.23864">
        <ele>531.40002441406</ele>
        <time>2020-02-22T10:19:42.000Z</time>
      </trkpt>
      <trkpt lat="43.81448" lon="7.23848">
        <ele>530.40002441406</ele>
        <time>2020-02-22T10:19:46.000Z</time>
      </trkpt>
      <trkpt lat="43.81454" lon="7.23846">
        <ele>530</ele>
        <time>2020-02-22T10:19:47.000Z</time>
      </trkpt>
      <trkpt lat="43.81461" lon="7.23844">
        <ele>529</ele>
        <time>2020-02-22T10:19:48.000Z</time>
      </trkpt>
      <trkpt lat="43.81473" lon="7.23839">
        <ele>527.40002441406</ele>
        <time>2020-02-22T10:19:50.000Z</time>
      </trkpt>
      <trkpt lat="43.81478" lon="7.23837">
        <ele>526.79998779297</ele>
        <time>2020-02-22T10:19:51.000Z</time>
      </trkpt>
      <trkpt lat="43.81484" lon="7.23833">
        <ele>526.20001220703</ele>
        <time>2020-02-22T10:19:52.000Z</time>
      </trkpt>
      <trkpt lat="43.81496" lon="7.23824">
        <ele>525</ele>
        <time>2020-02-22T10:19:54.000Z</time>
      </trkpt>
      <trkpt lat="43.81503" lon="7.23818">
        <ele>524.40002441406</ele>
        <time>2020-02-22T10:19:55.000Z</time>
      </trkpt>
      <trkpt lat="43.8151" lon="7.23813">
        <ele>523.59997558594</ele>
        <time>2020-02-22T10:19:56.000Z</time>
      </trkpt>
      <trkpt lat="43.81518" lon="7.23805">
        <ele>522.40002441406</ele>
        <time>2020-02-22T10:19:58.000Z</time>
      </trkpt>
      <trkpt lat="43.81521" lon="7.23805">
        <ele>522</ele>
        <time>2020-02-22T10:19:59.000Z</time>
      </trkpt>
      <trkpt lat="43.81521" lon="7.23806">
        <ele>521.79998779297</ele>
        <time>2020-02-22T10:20:00.000Z</time>
      </trkpt>
      <trkpt lat="43.8152" lon="7.23806">
        <ele>521.40002441406</ele>
        <time>2020-02-22T10:20:01.000Z</time>
      </trkpt>
      <trkpt lat="43.81521" lon="7.23806">
        <ele>521.20001220703</ele>
        <time>2020-02-22T10:20:02.000Z</time>
      </trkpt>
      <trkpt lat="43.81522" lon="7.23805">
        <ele>520.79998779297</ele>
        <time>2020-02-22T10:20:08.000Z</time>
      </trkpt>
      <trkpt lat="43.81524" lon="7.23803">
        <ele>520.59997558594</ele>
        <time>2020-02-22T10:20:12.000Z</time>
      </trkpt>
      <trkpt lat="43.81526" lon="7.23803">
        <ele>520.59997558594</ele>
        <time>2020-02-22T10:20:14.000Z</time>
      </trkpt>
      <trkpt lat="43.81528" lon="7.23812">
        <ele>520.59997558594</ele>
        <time>2020-02-22T10:20:17.000Z</time>
      </trkpt>
      <trkpt lat="43.81526" lon="7.23815">
        <ele>520.40002441406</ele>
        <time>2020-02-22T10:20:18.000Z</time>
      </trkpt>
      <trkpt lat="43.81524" lon="7.23821">
        <ele>518.79998779297</ele>
        <time>2020-02-22T10:20:21.000Z</time>
      </trkpt>
      <trkpt lat="43.81523" lon="7.23823">
        <ele>518.40002441406</ele>
        <time>2020-02-22T10:20:22.000Z</time>
      </trkpt>
      <trkpt lat="43.81524" lon="7.23824">
        <ele>518</ele>
        <time>2020-02-22T10:20:23.000Z</time>
      </trkpt>
      <trkpt lat="43.81528" lon="7.23822">
        <ele>517.59997558594</ele>
        <time>2020-02-22T10:20:25.000Z</time>
      </trkpt>
      <trkpt lat="43.81538" lon="7.23817">
        <ele>516.40002441406</ele>
        <time>2020-02-22T10:20:28.000Z</time>
      </trkpt>
      <trkpt lat="43.81541" lon="7.23815">
        <ele>515.40002441406</ele>
        <time>2020-02-22T10:20:29.000Z</time>
      </trkpt>
      <trkpt lat="43.81543" lon="7.23816">
        <ele>514.79998779297</ele>
        <time>2020-02-22T10:20:30.000Z</time>
      </trkpt>
      <trkpt lat="43.81546" lon="7.2382">
        <ele>513.40002441406</ele>
        <time>2020-02-22T10:20:32.000Z</time>
      </trkpt>
      <trkpt lat="43.81542" lon="7.23832">
        <ele>511.79998779297</ele>
        <time>2020-02-22T10:20:35.000Z</time>
      </trkpt>
      <trkpt lat="43.81536" lon="7.2384">
        <ele>510.79998779297</ele>
        <time>2020-02-22T10:20:37.000Z</time>
      </trkpt>
      <trkpt lat="43.81531" lon="7.23854">
        <ele>509.79998779297</ele>
        <time>2020-02-22T10:20:39.000Z</time>
      </trkpt>
      <trkpt lat="43.8153" lon="7.2386">
        <ele>509.60000610352</ele>
        <time>2020-02-22T10:20:40.000Z</time>
      </trkpt>
      <trkpt lat="43.8152" lon="7.23871">
        <ele>508.20001220703</ele>
        <time>2020-02-22T10:20:42.000Z</time>
      </trkpt>
      <trkpt lat="43.81513" lon="7.23876">
        <ele>507.20001220703</ele>
        <time>2020-02-22T10:20:44.000Z</time>
      </trkpt>
      <trkpt lat="43.81508" lon="7.23879">
        <ele>506.79998779297</ele>
        <time>2020-02-22T10:20:45.000Z</time>
      </trkpt>
      <trkpt lat="43.81502" lon="7.23882">
        <ele>506.60000610352</ele>
        <time>2020-02-22T10:20:46.000Z</time>
      </trkpt>
      <trkpt lat="43.81499" lon="7.23886">
        <ele>506.20001220703</ele>
        <time>2020-02-22T10:20:47.000Z</time>
      </trkpt>
      <trkpt lat="43.81497" lon="7.23891">
        <ele>505.60000610352</ele>
        <time>2020-02-22T10:20:48.000Z</time>
      </trkpt>
      <trkpt lat="43.81495" lon="7.23895">
        <ele>505.20001220703</ele>
        <time>2020-02-22T10:20:49.000Z</time>
      </trkpt>
      <trkpt lat="43.81499" lon="7.239">
        <ele>504.39999389648</ele>
        <time>2020-02-22T10:20:51.000Z</time>
      </trkpt>
      <trkpt lat="43.81499" lon="7.23901">
        <ele>504.20001220703</ele>
        <time>2020-02-22T10:20:52.000Z</time>
      </trkpt>
      <trkpt lat="43.81499" lon="7.23901">
        <ele>503.39999389648</ele>
        <time>2020-02-22T10:20:54.000Z</time>
      </trkpt>
      <trkpt lat="43.81502" lon="7.23903">
        <ele>503</ele>
        <time>2020-02-22T10:20:55.000Z</time>
      </trkpt>
      <trkpt lat="43.81506" lon="7.23913">
        <ele>502.20001220703</ele>
        <time>2020-02-22T10:20:58.000Z</time>
      </trkpt>
      <trkpt lat="43.81508" lon="7.23917">
        <ele>502</ele>
        <time>2020-02-22T10:20:59.000Z</time>
      </trkpt>
      <trkpt lat="43.81508" lon="7.23922">
        <ele>503.20001220703</ele>
        <time>2020-02-22T10:21:02.000Z</time>
      </trkpt>
      <trkpt lat="43.81509" lon="7.23924">
        <ele>503.79998779297</ele>
        <time>2020-02-22T10:21:03.000Z</time>
      </trkpt>
      <trkpt lat="43.81509" lon="7.23925">
        <ele>504.60000610352</ele>
        <time>2020-02-22T10:21:04.000Z</time>
      </trkpt>
      <trkpt lat="43.81513" lon="7.23931">
        <ele>506</ele>
        <time>2020-02-22T10:21:06.000Z</time>
      </trkpt>
      <trkpt lat="43.81523" lon="7.23939">
        <ele>506.39999389648</ele>
        <time>2020-02-22T10:21:09.000Z</time>
      </trkpt>
      <trkpt lat="43.81526" lon="7.23942">
        <ele>506.39999389648</ele>
        <time>2020-02-22T10:21:10.000Z</time>
      </trkpt>
      <trkpt lat="43.81538" lon="7.23959">
        <ele>506.20001220703</ele>
        <time>2020-02-22T10:21:16.000Z</time>
      </trkpt>
      <trkpt lat="43.81534" lon="7.23972">
        <ele>506.39999389648</ele>
        <time>2020-02-22T10:21:22.000Z</time>
      </trkpt>
      <trkpt lat="43.81544" lon="7.23983">
        <ele>506.60000610352</ele>
        <time>2020-02-22T10:21:26.000Z</time>
      </trkpt>
      <trkpt lat="43.8155" lon="7.24003">
        <ele>505.60000610352</ele>
        <time>2020-02-22T10:21:31.000Z</time>
      </trkpt>
      <trkpt lat="43.81552" lon="7.24025">
        <ele>506.60000610352</ele>
        <time>2020-02-22T10:21:36.000Z</time>
      </trkpt>
      <trkpt lat="43.81553" lon="7.24033">
        <ele>507.20001220703</ele>
        <time>2020-02-22T10:21:38.000Z</time>
      </trkpt>
      <trkpt lat="43.81555" lon="7.24045">
        <ele>507.39999389648</ele>
        <time>2020-02-22T10:21:41.000Z</time>
      </trkpt>
      <trkpt lat="43.81555" lon="7.24057">
        <ele>507.39999389648</ele>
        <time>2020-02-22T10:21:44.000Z</time>
      </trkpt>
      <trkpt lat="43.81554" lon="7.2406">
        <ele>507.39999389648</ele>
        <time>2020-02-22T10:21:45.000Z</time>
      </trkpt>
      <trkpt lat="43.81552" lon="7.24067">
        <ele>508.20001220703</ele>
        <time>2020-02-22T10:21:48.000Z</time>
      </trkpt>
      <trkpt lat="43.81551" lon="7.24071">
        <ele>508.79998779297</ele>
        <time>2020-02-22T10:21:49.000Z</time>
      </trkpt>
      <trkpt lat="43.81549" lon="7.24078">
        <ele>509.20001220703</ele>
        <time>2020-02-22T10:21:51.000Z</time>
      </trkpt>
      <trkpt lat="43.81548" lon="7.24086">
        <ele>509</ele>
        <time>2020-02-22T10:21:53.000Z</time>
      </trkpt>
      <trkpt lat="43.81547" lon="7.24089">
        <ele>509.20001220703</ele>
        <time>2020-02-22T10:21:54.000Z</time>
      </trkpt>
      <trkpt lat="43.81548" lon="7.24092">
        <ele>509.39999389648</ele>
        <time>2020-02-22T10:21:55.000Z</time>
      </trkpt>
      <trkpt lat="43.81547" lon="7.24102">
        <ele>510</ele>
        <time>2020-02-22T10:21:58.000Z</time>
      </trkpt>
      <trkpt lat="43.81545" lon="7.24108">
        <ele>510.39999389648</ele>
        <time>2020-02-22T10:22:00.000Z</time>
      </trkpt>
      <trkpt lat="43.81546" lon="7.24112">
        <ele>511</ele>
        <time>2020-02-22T10:22:02.000Z</time>
      </trkpt>
      <trkpt lat="43.81549" lon="7.24122">
        <ele>511.39999389648</ele>
        <time>2020-02-22T10:22:05.000Z</time>
      </trkpt>
      <trkpt lat="43.81549" lon="7.24125">
        <ele>511.60000610352</ele>
        <time>2020-02-22T10:22:06.000Z</time>
      </trkpt>
      <trkpt lat="43.81548" lon="7.24128">
        <ele>511.79998779297</ele>
        <time>2020-02-22T10:22:07.000Z</time>
      </trkpt>
      <trkpt lat="43.81548" lon="7.24137">
        <ele>512.40002441406</ele>
        <time>2020-02-22T10:22:10.000Z</time>
      </trkpt>
      <trkpt lat="43.81548" lon="7.24139">
        <ele>512.59997558594</ele>
        <time>2020-02-22T10:22:11.000Z</time>
      </trkpt>
      <trkpt lat="43.81548" lon="7.24145">
        <ele>513</ele>
        <time>2020-02-22T10:22:13.000Z</time>
      </trkpt>
      <trkpt lat="43.8155" lon="7.24147">
        <ele>513.20001220703</ele>
        <time>2020-02-22T10:22:14.000Z</time>
      </trkpt>
      <trkpt lat="43.81562" lon="7.24163">
        <ele>513.79998779297</ele>
        <time>2020-02-22T10:22:20.000Z</time>
      </trkpt>
      <trkpt lat="43.8157" lon="7.24169">
        <ele>514.79998779297</ele>
        <time>2020-02-22T10:22:25.000Z</time>
      </trkpt>
      <trkpt lat="43.81573" lon="7.2417">
        <ele>515</ele>
        <time>2020-02-22T10:22:26.000Z</time>
      </trkpt>
      <trkpt lat="43.8158" lon="7.24173">
        <ele>516</ele>
        <time>2020-02-22T10:22:29.000Z</time>
      </trkpt>
      <trkpt lat="43.81583" lon="7.24173">
        <ele>516.20001220703</ele>
        <time>2020-02-22T10:22:30.000Z</time>
      </trkpt>
      <trkpt lat="43.81594" lon="7.24175">
        <ele>516.79998779297</ele>
        <time>2020-02-22T10:22:35.000Z</time>
      </trkpt>
      <trkpt lat="43.81608" lon="7.24173">
        <ele>516.79998779297</ele>
        <time>2020-02-22T10:22:39.000Z</time>
      </trkpt>
      <trkpt lat="43.81624" lon="7.24174">
        <ele>515.59997558594</ele>
        <time>2020-02-22T10:22:42.000Z</time>
      </trkpt>
      <trkpt lat="43.81629" lon="7.24173">
        <ele>514.79998779297</ele>
        <time>2020-02-22T10:22:43.000Z</time>
      </trkpt>
      <trkpt lat="43.81635" lon="7.24174">
        <ele>514.40002441406</ele>
        <time>2020-02-22T10:22:44.000Z</time>
      </trkpt>
      <trkpt lat="43.81641" lon="7.24175">
        <ele>513.59997558594</ele>
        <time>2020-02-22T10:22:45.000Z</time>
      </trkpt>
      <trkpt lat="43.81656" lon="7.24182">
        <ele>512.59997558594</ele>
        <time>2020-02-22T10:22:48.000Z</time>
      </trkpt>
      <trkpt lat="43.81661" lon="7.242">
        <ele>513</ele>
        <time>2020-02-22T10:22:51.000Z</time>
      </trkpt>
      <trkpt lat="43.81663" lon="7.24206">
        <ele>512.79998779297</ele>
        <time>2020-02-22T10:22:52.000Z</time>
      </trkpt>
      <trkpt lat="43.81672" lon="7.24232">
        <ele>512.40002441406</ele>
        <time>2020-02-22T10:22:57.000Z</time>
      </trkpt>
      <trkpt lat="43.81686" lon="7.24244">
        <ele>511.79998779297</ele>
        <time>2020-02-22T10:23:00.000Z</time>
      </trkpt>
      <trkpt lat="43.81691" lon="7.24245">
        <ele>511.60000610352</ele>
        <time>2020-02-22T10:23:01.000Z</time>
      </trkpt>
      <trkpt lat="43.81704" lon="7.2425">
        <ele>510.60000610352</ele>
        <time>2020-02-22T10:23:04.000Z</time>
      </trkpt>
      <trkpt lat="43.81713" lon="7.2426">
        <ele>510.79998779297</ele>
        <time>2020-02-22T10:23:08.000Z</time>
      </trkpt>
      <trkpt lat="43.81713" lon="7.24262">
        <ele>511.39999389648</ele>
        <time>2020-02-22T10:23:11.000Z</time>
      </trkpt>
      <trkpt lat="43.81717" lon="7.2427">
        <ele>512</ele>
        <time>2020-02-22T10:23:15.000Z</time>
      </trkpt>
      <trkpt lat="43.81722" lon="7.24273">
        <ele>512.20001220703</ele>
        <time>2020-02-22T10:23:17.000Z</time>
      </trkpt>
      <trkpt lat="43.81723" lon="7.24271">
        <ele>511.79998779297</ele>
        <time>2020-02-22T10:23:18.000Z</time>
      </trkpt>
      <trkpt lat="43.81728" lon="7.24272">
        <ele>510.20001220703</ele>
        <time>2020-02-22T10:23:21.000Z</time>
      </trkpt>
      <trkpt lat="43.81728" lon="7.24274">
        <ele>509.60000610352</ele>
        <time>2020-02-22T10:23:22.000Z</time>
      </trkpt>
      <trkpt lat="43.81728" lon="7.24275">
        <ele>508.79998779297</ele>
        <time>2020-02-22T10:23:23.000Z</time>
      </trkpt>
      <trkpt lat="43.81727" lon="7.24276">
        <ele>507.79998779297</ele>
        <time>2020-02-22T10:23:25.000Z</time>
      </trkpt>
      <trkpt lat="43.81727" lon="7.24276">
        <ele>507.39999389648</ele>
        <time>2020-02-22T10:23:26.000Z</time>
      </trkpt>
      <trkpt lat="43.81727" lon="7.24277">
        <ele>506.79998779297</ele>
        <time>2020-02-22T10:23:41.000Z</time>
      </trkpt>
      <trkpt lat="43.81726" lon="7.24279">
        <ele>506.79998779297</ele>
        <time>2020-02-22T10:24:00.000Z</time>
      </trkpt>
      <trkpt lat="43.81726" lon="7.24282">
        <ele>506.79998779297</ele>
        <time>2020-02-22T10:24:12.000Z</time>
      </trkpt>
      <trkpt lat="43.81724" lon="7.24287">
        <ele>506.79998779297</ele>
        <time>2020-02-22T10:24:14.000Z</time>
      </trkpt>
      <trkpt lat="43.81723" lon="7.24289">
        <ele>506.60000610352</ele>
        <time>2020-02-22T10:24:15.000Z</time>
      </trkpt>
      <trkpt lat="43.81722" lon="7.24293">
        <ele>505.79998779297</ele>
        <time>2020-02-22T10:24:18.000Z</time>
      </trkpt>
      <trkpt lat="43.81722" lon="7.24296">
        <ele>505.60000610352</ele>
        <time>2020-02-22T10:24:19.000Z</time>
      </trkpt>
      <trkpt lat="43.81718" lon="7.24301">
        <ele>505</ele>
        <time>2020-02-22T10:24:21.000Z</time>
      </trkpt>
      <trkpt lat="43.81716" lon="7.24303">
        <ele>504.60000610352</ele>
        <time>2020-02-22T10:24:22.000Z</time>
      </trkpt>
      <trkpt lat="43.81714" lon="7.24305">
        <ele>504.20001220703</ele>
        <time>2020-02-22T10:24:23.000Z</time>
      </trkpt>
      <trkpt lat="43.81707" lon="7.24312">
        <ele>503</ele>
        <time>2020-02-22T10:24:25.000Z</time>
      </trkpt>
      <trkpt lat="43.81704" lon="7.24313">
        <ele>502.60000610352</ele>
        <time>2020-02-22T10:24:26.000Z</time>
      </trkpt>
      <trkpt lat="43.81701" lon="7.24314">
        <ele>501.79998779297</ele>
        <time>2020-02-22T10:24:28.000Z</time>
      </trkpt>
      <trkpt lat="43.817" lon="7.24316">
        <ele>501.79998779297</ele>
        <time>2020-02-22T10:24:29.000Z</time>
      </trkpt>
      <trkpt lat="43.81694" lon="7.24324">
        <ele>502</ele>
        <time>2020-02-22T10:24:31.000Z</time>
      </trkpt>
      <trkpt lat="43.81691" lon="7.24327">
        <ele>502.20001220703</ele>
        <time>2020-02-22T10:24:32.000Z</time>
      </trkpt>
      <trkpt lat="43.81674" lon="7.24342">
        <ele>501.79998779297</ele>
        <time>2020-02-22T10:24:37.000Z</time>
      </trkpt>
      <trkpt lat="43.8167" lon="7.24347">
        <ele>501.79998779297</ele>
        <time>2020-02-22T10:24:39.000Z</time>
      </trkpt>
      <trkpt lat="43.81663" lon="7.24355">
        <ele>502</ele>
        <time>2020-02-22T10:24:41.000Z</time>
      </trkpt>
      <trkpt lat="43.81659" lon="7.24359">
        <ele>502</ele>
        <time>2020-02-22T10:24:42.000Z</time>
      </trkpt>
      <trkpt lat="43.81645" lon="7.24374">
        <ele>501.79998779297</ele>
        <time>2020-02-22T10:24:46.000Z</time>
      </trkpt>
      <trkpt lat="43.81638" lon="7.24378">
        <ele>501.79998779297</ele>
        <time>2020-02-22T10:24:49.000Z</time>
      </trkpt>
      <trkpt lat="43.81626" lon="7.24387">
        <ele>502.20001220703</ele>
        <time>2020-02-22T10:24:53.000Z</time>
      </trkpt>
      <trkpt lat="43.81617" lon="7.24393">
        <ele>502.79998779297</ele>
        <time>2020-02-22T10:24:56.000Z</time>
      </trkpt>
      <trkpt lat="43.81613" lon="7.24396">
        <ele>503.20001220703</ele>
        <time>2020-02-22T10:24:57.000Z</time>
      </trkpt>
      <trkpt lat="43.81592" lon="7.24411">
        <ele>503</ele>
        <time>2020-02-22T10:25:02.000Z</time>
      </trkpt>
      <trkpt lat="43.81587" lon="7.24414">
        <ele>502.79998779297</ele>
        <time>2020-02-22T10:25:03.000Z</time>
      </trkpt>
      <trkpt lat="43.81573" lon="7.24423">
        <ele>501.60000610352</ele>
        <time>2020-02-22T10:25:07.000Z</time>
      </trkpt>
      <trkpt lat="43.81557" lon="7.24428">
        <ele>500.60000610352</ele>
        <time>2020-02-22T10:25:11.000Z</time>
      </trkpt>
      <trkpt lat="43.8155" lon="7.24431">
        <ele>499.79998779297</ele>
        <time>2020-02-22T10:25:15.000Z</time>
      </trkpt>
      <trkpt lat="43.81551" lon="7.24433">
        <ele>499.20001220703</ele>
        <time>2020-02-22T10:25:17.000Z</time>
      </trkpt>
      <trkpt lat="43.81557" lon="7.24435">
        <ele>498.39999389648</ele>
        <time>2020-02-22T10:25:19.000Z</time>
      </trkpt>
      <trkpt lat="43.81559" lon="7.24436">
        <ele>497.60000610352</ele>
        <time>2020-02-22T10:25:20.000Z</time>
      </trkpt>
      <trkpt lat="43.8156" lon="7.24438">
        <ele>496.20001220703</ele>
        <time>2020-02-22T10:25:22.000Z</time>
      </trkpt>
      <trkpt lat="43.81559" lon="7.2444">
        <ele>495.39999389648</ele>
        <time>2020-02-22T10:25:23.000Z</time>
      </trkpt>
      <trkpt lat="43.8156" lon="7.24439">
        <ele>494.79998779297</ele>
        <time>2020-02-22T10:25:24.000Z</time>
      </trkpt>
      <trkpt lat="43.81557" lon="7.2444">
        <ele>494.20001220703</ele>
        <time>2020-02-22T10:25:25.000Z</time>
      </trkpt>
      <trkpt lat="43.81555" lon="7.24442">
        <ele>493.60000610352</ele>
        <time>2020-02-22T10:25:26.000Z</time>
      </trkpt>
      <trkpt lat="43.81556" lon="7.24442">
        <ele>493</ele>
        <time>2020-02-22T10:25:27.000Z</time>
      </trkpt>
      <trkpt lat="43.81558" lon="7.24443">
        <ele>492.60000610352</ele>
        <time>2020-02-22T10:25:28.000Z</time>
      </trkpt>
      <trkpt lat="43.81565" lon="7.24448">
        <ele>491.39999389648</ele>
        <time>2020-02-22T10:25:30.000Z</time>
      </trkpt>
      <trkpt lat="43.8157" lon="7.2445">
        <ele>490</ele>
        <time>2020-02-22T10:25:32.000Z</time>
      </trkpt>
      <trkpt lat="43.81571" lon="7.24452">
        <ele>489</ele>
        <time>2020-02-22T10:25:33.000Z</time>
      </trkpt>
      <trkpt lat="43.81569" lon="7.24451">
        <ele>488.20001220703</ele>
        <time>2020-02-22T10:25:34.000Z</time>
      </trkpt>
      <trkpt lat="43.81567" lon="7.24455">
        <ele>487.20001220703</ele>
        <time>2020-02-22T10:25:35.000Z</time>
      </trkpt>
      <trkpt lat="43.81566" lon="7.24457">
        <ele>486</ele>
        <time>2020-02-22T10:25:36.000Z</time>
      </trkpt>
      <trkpt lat="43.81565" lon="7.24461">
        <ele>484.39999389648</ele>
        <time>2020-02-22T10:25:38.000Z</time>
      </trkpt>
      <trkpt lat="43.81568" lon="7.24464">
        <ele>482.79998779297</ele>
        <time>2020-02-22T10:25:40.000Z</time>
      </trkpt>
      <trkpt lat="43.81569" lon="7.24467">
        <ele>481.60000610352</ele>
        <time>2020-02-22T10:25:42.000Z</time>
      </trkpt>
      <trkpt lat="43.81566" lon="7.24471">
        <ele>480.20001220703</ele>
        <time>2020-02-22T10:25:45.000Z</time>
      </trkpt>
      <trkpt lat="43.81566" lon="7.24474">
        <ele>479.60000610352</ele>
        <time>2020-02-22T10:25:46.000Z</time>
      </trkpt>
      <trkpt lat="43.81567" lon="7.24475">
        <ele>479</ele>
        <time>2020-02-22T10:25:47.000Z</time>
      </trkpt>
      <trkpt lat="43.81568" lon="7.24476">
        <ele>478</ele>
        <time>2020-02-22T10:25:49.000Z</time>
      </trkpt>
      <trkpt lat="43.81569" lon="7.24477">
        <ele>477.20001220703</ele>
        <time>2020-02-22T10:25:50.000Z</time>
      </trkpt>
      <trkpt lat="43.8157" lon="7.24479">
        <ele>476.60000610352</ele>
        <time>2020-02-22T10:25:51.000Z</time>
      </trkpt>
      <trkpt lat="43.81571" lon="7.24479">
        <ele>475.60000610352</ele>
        <time>2020-02-22T10:25:53.000Z</time>
      </trkpt>
      <trkpt lat="43.81579" lon="7.24481">
        <ele>474.60000610352</ele>
        <time>2020-02-22T10:25:55.000Z</time>
      </trkpt>
      <trkpt lat="43.81583" lon="7.24481">
        <ele>474.20001220703</ele>
        <time>2020-02-22T10:25:56.000Z</time>
      </trkpt>
      <trkpt lat="43.81589" lon="7.24482">
        <ele>472.79998779297</ele>
        <time>2020-02-22T10:25:58.000Z</time>
      </trkpt>
      <trkpt lat="43.81587" lon="7.24481">
        <ele>472.20001220703</ele>
        <time>2020-02-22T10:25:59.000Z</time>
      </trkpt>
      <trkpt lat="43.81586" lon="7.24484">
        <ele>471.60000610352</ele>
        <time>2020-02-22T10:26:00.000Z</time>
      </trkpt>
      <trkpt lat="43.81587" lon="7.24487">
        <ele>470.39999389648</ele>
        <time>2020-02-22T10:26:02.000Z</time>
      </trkpt>
      <trkpt lat="43.81587" lon="7.24489">
        <ele>470</ele>
        <time>2020-02-22T10:26:03.000Z</time>
      </trkpt>
      <trkpt lat="43.81587" lon="7.24488">
        <ele>469.20001220703</ele>
        <time>2020-02-22T10:26:05.000Z</time>
      </trkpt>
      <trkpt lat="43.81591" lon="7.24491">
        <ele>468.39999389648</ele>
        <time>2020-02-22T10:26:07.000Z</time>
      </trkpt>
      <trkpt lat="43.81591" lon="7.24492">
        <ele>468</ele>
        <time>2020-02-22T10:26:08.000Z</time>
      </trkpt>
      <trkpt lat="43.81591" lon="7.24495">
        <ele>467</ele>
        <time>2020-02-22T10:26:10.000Z</time>
      </trkpt>
      <trkpt lat="43.8159" lon="7.24497">
        <ele>466.60000610352</ele>
        <time>2020-02-22T10:26:11.000Z</time>
      </trkpt>
      <trkpt lat="43.81588" lon="7.24498">
        <ele>465.20001220703</ele>
        <time>2020-02-22T10:26:14.000Z</time>
      </trkpt>
      <trkpt lat="43.81587" lon="7.24499">
        <ele>464.79998779297</ele>
        <time>2020-02-22T10:26:16.000Z</time>
      </trkpt>
      <trkpt lat="43.81589" lon="7.24502">
        <ele>464.79998779297</ele>
        <time>2020-02-22T10:26:17.000Z</time>
      </trkpt>
      <trkpt lat="43.81595" lon="7.24506">
        <ele>464.39999389648</ele>
        <time>2020-02-22T10:26:19.000Z</time>
      </trkpt>
      <trkpt lat="43.81596" lon="7.24506">
        <ele>464</ele>
        <time>2020-02-22T10:26:20.000Z</time>
      </trkpt>
      <trkpt lat="43.81598" lon="7.24507">
        <ele>462.39999389648</ele>
        <time>2020-02-22T10:26:22.000Z</time>
      </trkpt>
      <trkpt lat="43.81603" lon="7.24507">
        <ele>461</ele>
        <time>2020-02-22T10:26:24.000Z</time>
      </trkpt>
      <trkpt lat="43.81609" lon="7.24509">
        <ele>459.79998779297</ele>
        <time>2020-02-22T10:26:26.000Z</time>
      </trkpt>
      <trkpt lat="43.81614" lon="7.24508">
        <ele>458.39999389648</ele>
        <time>2020-02-22T10:26:28.000Z</time>
      </trkpt>
      <trkpt lat="43.8162" lon="7.24508">
        <ele>457.60000610352</ele>
        <time>2020-02-22T10:26:29.000Z</time>
      </trkpt>
      <trkpt lat="43.81626" lon="7.24508">
        <ele>457</ele>
        <time>2020-02-22T10:26:30.000Z</time>
      </trkpt>
      <trkpt lat="43.81629" lon="7.24507">
        <ele>456</ele>
        <time>2020-02-22T10:26:31.000Z</time>
      </trkpt>
      <trkpt lat="43.81633" lon="7.24506">
        <ele>455</ele>
        <time>2020-02-22T10:26:32.000Z</time>
      </trkpt>
      <trkpt lat="43.81636" lon="7.24508">
        <ele>453.79998779297</ele>
        <time>2020-02-22T10:26:33.000Z</time>
      </trkpt>
      <trkpt lat="43.8164" lon="7.24512">
        <ele>451.79998779297</ele>
        <time>2020-02-22T10:26:35.000Z</time>
      </trkpt>
      <trkpt lat="43.81644" lon="7.24511">
        <ele>451</ele>
        <time>2020-02-22T10:26:36.000Z</time>
      </trkpt>
      <trkpt lat="43.81651" lon="7.24509">
        <ele>450.20001220703</ele>
        <time>2020-02-22T10:26:37.000Z</time>
      </trkpt>
      <trkpt lat="43.81655" lon="7.24507">
        <ele>449</ele>
        <time>2020-02-22T10:26:38.000Z</time>
      </trkpt>
      <trkpt lat="43.81658" lon="7.24507">
        <ele>448</ele>
        <time>2020-02-22T10:26:39.000Z</time>
      </trkpt>
      <trkpt lat="43.81664" lon="7.24508">
        <ele>447</ele>
        <time>2020-02-22T10:26:40.000Z</time>
      </trkpt>
      <trkpt lat="43.8167" lon="7.24506">
        <ele>445.79998779297</ele>
        <time>2020-02-22T10:26:41.000Z</time>
      </trkpt>
      <trkpt lat="43.81675" lon="7.24505">
        <ele>445</ele>
        <time>2020-02-22T10:26:42.000Z</time>
      </trkpt>
      <trkpt lat="43.8168" lon="7.24503">
        <ele>444.39999389648</ele>
        <time>2020-02-22T10:26:43.000Z</time>
      </trkpt>
      <trkpt lat="43.81685" lon="7.24503">
        <ele>443</ele>
        <time>2020-02-22T10:26:44.000Z</time>
      </trkpt>
      <trkpt lat="43.8169" lon="7.24502">
        <ele>441.79998779297</ele>
        <time>2020-02-22T10:26:45.000Z</time>
      </trkpt>
      <trkpt lat="43.81693" lon="7.245">
        <ele>440.60000610352</ele>
        <time>2020-02-22T10:26:46.000Z</time>
      </trkpt>
      <trkpt lat="43.81697" lon="7.24499">
        <ele>439.39999389648</ele>
        <time>2020-02-22T10:26:47.000Z</time>
      </trkpt>
      <trkpt lat="43.81698" lon="7.245">
        <ele>438</ele>
        <time>2020-02-22T10:26:48.000Z</time>
      </trkpt>
      <trkpt lat="43.81698" lon="7.24501">
        <ele>437.20001220703</ele>
        <time>2020-02-22T10:26:49.000Z</time>
      </trkpt>
      <trkpt lat="43.81698" lon="7.24503">
        <ele>436.60000610352</ele>
        <time>2020-02-22T10:26:50.000Z</time>
      </trkpt>
      <trkpt lat="43.81695" lon="7.24505">
        <ele>435.39999389648</ele>
        <time>2020-02-22T10:26:52.000Z</time>
      </trkpt>
      <trkpt lat="43.81696" lon="7.24504">
        <ele>434.79998779297</ele>
        <time>2020-02-22T10:26:53.000Z</time>
      </trkpt>
      <trkpt lat="43.81694" lon="7.24505">
        <ele>434.20001220703</ele>
        <time>2020-02-22T10:26:55.000Z</time>
      </trkpt>
      <trkpt lat="43.81692" lon="7.24505">
        <ele>434.20001220703</ele>
        <time>2020-02-22T10:26:59.000Z</time>
      </trkpt>
      <trkpt lat="43.81689" lon="7.24504">
        <ele>434</ele>
        <time>2020-02-22T10:27:07.000Z</time>
      </trkpt>
      <trkpt lat="43.81686" lon="7.24504">
        <ele>434</ele>
        <time>2020-02-22T10:27:14.000Z</time>
      </trkpt>
      <trkpt lat="43.81686" lon="7.24505">
        <ele>434</ele>
        <time>2020-02-22T10:27:23.000Z</time>
      </trkpt>
      <trkpt lat="43.81684" lon="7.24512">
        <ele>434</ele>
        <time>2020-02-22T10:27:27.000Z</time>
      </trkpt>
      <trkpt lat="43.81676" lon="7.24527">
        <ele>433.20001220703</ele>
        <time>2020-02-22T10:27:31.000Z</time>
      </trkpt>
      <trkpt lat="43.81671" lon="7.24529">
        <ele>433</ele>
        <time>2020-02-22T10:27:32.000Z</time>
      </trkpt>
      <trkpt lat="43.81667" lon="7.24533">
        <ele>432.60000610352</ele>
        <time>2020-02-22T10:27:34.000Z</time>
      </trkpt>
      <trkpt lat="43.8166" lon="7.24539">
        <ele>433</ele>
        <time>2020-02-22T10:27:38.000Z</time>
      </trkpt>
      <trkpt lat="43.81658" lon="7.2454">
        <ele>434</ele>
        <time>2020-02-22T10:27:44.000Z</time>
      </trkpt>
      <trkpt lat="43.81663" lon="7.24538">
        <ele>434</ele>
        <time>2020-02-22T10:27:49.000Z</time>
      </trkpt>
      <trkpt lat="43.8166" lon="7.24539">
        <ele>434</ele>
        <time>2020-02-22T10:27:54.000Z</time>
      </trkpt>
      <trkpt lat="43.81654" lon="7.24542">
        <ele>433.79998779297</ele>
        <time>2020-02-22T10:28:01.000Z</time>
      </trkpt>
      <trkpt lat="43.81648" lon="7.24544">
        <ele>433.79998779297</ele>
        <time>2020-02-22T10:28:10.000Z</time>
      </trkpt>
      <trkpt lat="43.81648" lon="7.24546">
        <ele>433.79998779297</ele>
        <time>2020-02-22T10:28:17.000Z</time>
      </trkpt>
      <trkpt lat="43.81654" lon="7.24547">
        <ele>433.79998779297</ele>
        <time>2020-02-22T10:28:24.000Z</time>
      </trkpt>
      <trkpt lat="43.81659" lon="7.24547">
        <ele>433.79998779297</ele>
        <time>2020-02-22T10:28:30.000Z</time>
      </trkpt>
      <trkpt lat="43.81656" lon="7.24549">
        <ele>433.79998779297</ele>
        <time>2020-02-22T10:28:32.000Z</time>
      </trkpt>
      <trkpt lat="43.81651" lon="7.24553">
        <ele>434</ele>
        <time>2020-02-22T10:28:35.000Z</time>
      </trkpt>
      <trkpt lat="43.81642" lon="7.24557">
        <ele>434.20001220703</ele>
        <time>2020-02-22T10:28:40.000Z</time>
      </trkpt>
      <trkpt lat="43.81643" lon="7.24557">
        <ele>434.39999389648</ele>
        <time>2020-02-22T10:28:41.000Z</time>
      </trkpt>
      <trkpt lat="43.81641" lon="7.2456">
        <ele>434.39999389648</ele>
        <time>2020-02-22T10:28:42.000Z</time>
      </trkpt>
      <trkpt lat="43.81638" lon="7.24563">
        <ele>434.20001220703</ele>
        <time>2020-02-22T10:28:44.000Z</time>
      </trkpt>
      <trkpt lat="43.81632" lon="7.24572">
        <ele>433.60000610352</ele>
        <time>2020-02-22T10:28:47.000Z</time>
      </trkpt>
      <trkpt lat="43.8163" lon="7.24584">
        <ele>433.20001220703</ele>
        <time>2020-02-22T10:28:50.000Z</time>
      </trkpt>
      <trkpt lat="43.8163" lon="7.2459">
        <ele>433.39999389648</ele>
        <time>2020-02-22T10:28:51.000Z</time>
      </trkpt>
      <trkpt lat="43.81625" lon="7.24598">
        <ele>433.20001220703</ele>
        <time>2020-02-22T10:28:53.000Z</time>
      </trkpt>
      <trkpt lat="43.81625" lon="7.246">
        <ele>433.20001220703</ele>
        <time>2020-02-22T10:28:54.000Z</time>
      </trkpt>
      <trkpt lat="43.81613" lon="7.2461">
        <ele>432.39999389648</ele>
        <time>2020-02-22T10:28:59.000Z</time>
      </trkpt>
      <trkpt lat="43.81611" lon="7.24615">
        <ele>432.39999389648</ele>
        <time>2020-02-22T10:29:01.000Z</time>
      </trkpt>
      <trkpt lat="43.81607" lon="7.24623">
        <ele>432.20001220703</ele>
        <time>2020-02-22T10:29:03.000Z</time>
      </trkpt>
      <trkpt lat="43.81609" lon="7.24632">
        <ele>432.20001220703</ele>
        <time>2020-02-22T10:29:05.000Z</time>
      </trkpt>
      <trkpt lat="43.81613" lon="7.24636">
        <ele>432</ele>
        <time>2020-02-22T10:29:06.000Z</time>
      </trkpt>
      <trkpt lat="43.81622" lon="7.24647">
        <ele>430.79998779297</ele>
        <time>2020-02-22T10:29:08.000Z</time>
      </trkpt>
      <trkpt lat="43.81624" lon="7.24651">
        <ele>429.20001220703</ele>
        <time>2020-02-22T10:29:09.000Z</time>
      </trkpt>
      <trkpt lat="43.81622" lon="7.24659">
        <ele>427.39999389648</ele>
        <time>2020-02-22T10:29:11.000Z</time>
      </trkpt>
      <trkpt lat="43.81621" lon="7.24661">
        <ele>426</ele>
        <time>2020-02-22T10:29:12.000Z</time>
      </trkpt>
      <trkpt lat="43.81618" lon="7.24665">
        <ele>425.39999389648</ele>
        <time>2020-02-22T10:29:13.000Z</time>
      </trkpt>
      <trkpt lat="43.81618" lon="7.24668">
        <ele>425.20001220703</ele>
        <time>2020-02-22T10:29:15.000Z</time>
      </trkpt>
      <trkpt lat="43.81607" lon="7.24678">
        <ele>425.39999389648</ele>
        <time>2020-02-22T10:29:18.000Z</time>
      </trkpt>
      <trkpt lat="43.816" lon="7.24688">
        <ele>424.60000610352</ele>
        <time>2020-02-22T10:29:21.000Z</time>
      </trkpt>
      <trkpt lat="43.81588" lon="7.24689">
        <ele>423.79998779297</ele>
        <time>2020-02-22T10:29:24.000Z</time>
      </trkpt>
      <trkpt lat="43.81584" lon="7.24688">
        <ele>423.39999389648</ele>
        <time>2020-02-22T10:29:25.000Z</time>
      </trkpt>
      <trkpt lat="43.81582" lon="7.2469">
        <ele>423</ele>
        <time>2020-02-22T10:29:26.000Z</time>
      </trkpt>
      <trkpt lat="43.8158" lon="7.2469">
        <ele>422.39999389648</ele>
        <time>2020-02-22T10:29:27.000Z</time>
      </trkpt>
      <trkpt lat="43.81582" lon="7.2469">
        <ele>422.20001220703</ele>
        <time>2020-02-22T10:29:28.000Z</time>
      </trkpt>
      <trkpt lat="43.81572" lon="7.24693">
        <ele>422.20001220703</ele>
        <time>2020-02-22T10:29:36.000Z</time>
      </trkpt>
      <trkpt lat="43.81565" lon="7.24695">
        <ele>422</ele>
        <time>2020-02-22T10:29:40.000Z</time>
      </trkpt>
      <trkpt lat="43.81563" lon="7.24694">
        <ele>421.79998779297</ele>
        <time>2020-02-22T10:29:41.000Z</time>
      </trkpt>
      <trkpt lat="43.81561" lon="7.24695">
        <ele>421.60000610352</ele>
        <time>2020-02-22T10:29:44.000Z</time>
      </trkpt>
      <trkpt lat="43.81556" lon="7.24697">
        <ele>421.39999389648</ele>
        <time>2020-02-22T10:29:51.000Z</time>
      </trkpt>
      <trkpt lat="43.81553" lon="7.24699">
        <ele>421.39999389648</ele>
        <time>2020-02-22T10:29:55.000Z</time>
      </trkpt>
      <trkpt lat="43.81553" lon="7.24699">
        <ele>421.39999389648</ele>
        <time>2020-02-22T10:29:56.000Z</time>
      </trkpt>
      <trkpt lat="43.81551" lon="7.24701">
        <ele>421</ele>
        <time>2020-02-22T10:30:02.000Z</time>
      </trkpt>
      <trkpt lat="43.81551" lon="7.24702">
        <ele>421.39999389648</ele>
        <time>2020-02-22T10:30:08.000Z</time>
      </trkpt>
      <trkpt lat="43.81551" lon="7.24701">
        <ele>421.60000610352</ele>
        <time>2020-02-22T10:30:12.000Z</time>
      </trkpt>
      <trkpt lat="43.81551" lon="7.247">
        <ele>422</ele>
        <time>2020-02-22T10:30:19.000Z</time>
      </trkpt>
      <trkpt lat="43.81548" lon="7.24698">
        <ele>422.20001220703</ele>
        <time>2020-02-22T10:30:26.000Z</time>
      </trkpt>
      <trkpt lat="43.81549" lon="7.24699">
        <ele>422.20001220703</ele>
        <time>2020-02-22T10:30:27.000Z</time>
      </trkpt>
      <trkpt lat="43.81548" lon="7.24699">
        <ele>422.39999389648</ele>
        <time>2020-02-22T10:30:28.000Z</time>
      </trkpt>
      <trkpt lat="43.8155" lon="7.24702">
        <ele>422.60000610352</ele>
        <time>2020-02-22T10:30:31.000Z</time>
      </trkpt>
      <trkpt lat="43.8155" lon="7.24703">
        <ele>423</ele>
        <time>2020-02-22T10:30:36.000Z</time>
      </trkpt>
      <trkpt lat="43.81548" lon="7.24705">
        <ele>423.39999389648</ele>
        <time>2020-02-22T10:30:39.000Z</time>
      </trkpt>
      <trkpt lat="43.81549" lon="7.24704">
        <ele>423.39999389648</ele>
        <time>2020-02-22T10:30:40.000Z</time>
      </trkpt>
      <trkpt lat="43.81547" lon="7.24705">
        <ele>423.79998779297</ele>
        <time>2020-02-22T10:30:42.000Z</time>
      </trkpt>
      <trkpt lat="43.81548" lon="7.24705">
        <ele>424.20001220703</ele>
        <time>2020-02-22T10:30:48.000Z</time>
      </trkpt>
      <trkpt lat="43.81544" lon="7.24705">
        <ele>424.39999389648</ele>
        <time>2020-02-22T10:30:54.000Z</time>
      </trkpt>
      <trkpt lat="43.81543" lon="7.24706">
        <ele>424.39999389648</ele>
        <time>2020-02-22T10:30:55.000Z</time>
      </trkpt>
      <trkpt lat="43.81542" lon="7.24707">
        <ele>424.39999389648</ele>
        <time>2020-02-22T10:30:56.000Z</time>
      </trkpt>
      <trkpt lat="43.81541" lon="7.24714">
        <ele>425.39999389648</ele>
        <time>2020-02-22T10:31:00.000Z</time>
      </trkpt>
      <trkpt lat="43.81543" lon="7.24716">
        <ele>425.79998779297</ele>
        <time>2020-02-22T10:31:01.000Z</time>
      </trkpt>
      <trkpt lat="43.81544" lon="7.24719">
        <ele>426.20001220703</ele>
        <time>2020-02-22T10:31:02.000Z</time>
      </trkpt>
      <trkpt lat="43.81542" lon="7.24721">
        <ele>426.60000610352</ele>
        <time>2020-02-22T10:31:03.000Z</time>
      </trkpt>
      <trkpt lat="43.81543" lon="7.24726">
        <ele>427.20001220703</ele>
        <time>2020-02-22T10:31:05.000Z</time>
      </trkpt>
      <trkpt lat="43.81544" lon="7.24728">
        <ele>427.60000610352</ele>
        <time>2020-02-22T10:31:06.000Z</time>
      </trkpt>
      <trkpt lat="43.81547" lon="7.24732">
        <ele>428.60000610352</ele>
        <time>2020-02-22T10:31:08.000Z</time>
      </trkpt>
      <trkpt lat="43.81549" lon="7.24736">
        <ele>430</ele>
        <time>2020-02-22T10:31:10.000Z</time>
      </trkpt>
      <trkpt lat="43.81548" lon="7.24741">
        <ele>431</ele>
        <time>2020-02-22T10:31:12.000Z</time>
      </trkpt>
      <trkpt lat="43.81545" lon="7.24742">
        <ele>432</ele>
        <time>2020-02-22T10:31:14.000Z</time>
      </trkpt>
      <trkpt lat="43.81545" lon="7.24742">
        <ele>433.39999389648</ele>
        <time>2020-02-22T10:31:17.000Z</time>
      </trkpt>
      <trkpt lat="43.81545" lon="7.24741">
        <ele>433.79998779297</ele>
        <time>2020-02-22T10:31:19.000Z</time>
      </trkpt>
      <trkpt lat="43.81543" lon="7.24741">
        <ele>433.79998779297</ele>
        <time>2020-02-22T10:31:27.000Z</time>
      </trkpt>
      <trkpt lat="43.81542" lon="7.24743">
        <ele>434.20001220703</ele>
        <time>2020-02-22T10:31:33.000Z</time>
      </trkpt>
      <trkpt lat="43.81541" lon="7.24743">
        <ele>434.39999389648</ele>
        <time>2020-02-22T10:31:35.000Z</time>
      </trkpt>
      <trkpt lat="43.8154" lon="7.24744">
        <ele>435</ele>
        <time>2020-02-22T10:31:39.000Z</time>
      </trkpt>
      <trkpt lat="43.81536" lon="7.24746">
        <ele>435.39999389648</ele>
        <time>2020-02-22T10:31:45.000Z</time>
      </trkpt>
      <trkpt lat="43.81536" lon="7.24748">
        <ele>436.39999389648</ele>
        <time>2020-02-22T10:31:51.000Z</time>
      </trkpt>
      <trkpt lat="43.81536" lon="7.24748">
        <ele>436.60000610352</ele>
        <time>2020-02-22T10:31:52.000Z</time>
      </trkpt>
      <trkpt lat="43.81533" lon="7.24751">
        <ele>437</ele>
        <time>2020-02-22T10:31:57.000Z</time>
      </trkpt>
      <trkpt lat="43.81532" lon="7.24754">
        <ele>437.60000610352</ele>
        <time>2020-02-22T10:32:01.000Z</time>
      </trkpt>
      <trkpt lat="43.81532" lon="7.24754">
        <ele>438</ele>
        <time>2020-02-22T10:32:03.000Z</time>
      </trkpt>
      <trkpt lat="43.81533" lon="7.24756">
        <ele>438.60000610352</ele>
        <time>2020-02-22T10:32:07.000Z</time>
      </trkpt>
      <trkpt lat="43.81534" lon="7.24756">
        <ele>439</ele>
        <time>2020-02-22T10:32:09.000Z</time>
      </trkpt>
      <trkpt lat="43.81535" lon="7.24757">
        <ele>439.60000610352</ele>
        <time>2020-02-22T10:32:16.000Z</time>
      </trkpt>
      <trkpt lat="43.81535" lon="7.24757">
        <ele>439.79998779297</ele>
        <time>2020-02-22T10:32:17.000Z</time>
      </trkpt>
      <trkpt lat="43.81537" lon="7.2476">
        <ele>439.79998779297</ele>
        <time>2020-02-22T10:32:23.000Z</time>
      </trkpt>
      <trkpt lat="43.81539" lon="7.24763">
        <ele>439.79998779297</ele>
        <time>2020-02-22T10:32:24.000Z</time>
      </trkpt>
      <trkpt lat="43.81543" lon="7.24771">
        <ele>440.79998779297</ele>
        <time>2020-02-22T10:32:28.000Z</time>
      </trkpt>
      <trkpt lat="43.81543" lon="7.24773">
        <ele>441</ele>
        <time>2020-02-22T10:32:29.000Z</time>
      </trkpt>
      <trkpt lat="43.81542" lon="7.24775">
        <ele>441.39999389648</ele>
        <time>2020-02-22T10:32:30.000Z</time>
      </trkpt>
      <trkpt lat="43.81539" lon="7.24775">
        <ele>441.79998779297</ele>
        <time>2020-02-22T10:32:31.000Z</time>
      </trkpt>
      <trkpt lat="43.81538" lon="7.24774">
        <ele>442</ele>
        <time>2020-02-22T10:32:32.000Z</time>
      </trkpt>
      <trkpt lat="43.81538" lon="7.24773">
        <ele>443.20001220703</ele>
        <time>2020-02-22T10:32:34.000Z</time>
      </trkpt>
      <trkpt lat="43.81538" lon="7.24773">
        <ele>443.79998779297</ele>
        <time>2020-02-22T10:32:36.000Z</time>
      </trkpt>
      <trkpt lat="43.81537" lon="7.24774">
        <ele>444</ele>
        <time>2020-02-22T10:32:37.000Z</time>
      </trkpt>
      <trkpt lat="43.81537" lon="7.24775">
        <ele>444.20001220703</ele>
        <time>2020-02-22T10:32:40.000Z</time>
      </trkpt>
      <trkpt lat="43.81537" lon="7.24776">
        <ele>444.39999389648</ele>
        <time>2020-02-22T10:32:41.000Z</time>
      </trkpt>
      <trkpt lat="43.81538" lon="7.24777">
        <ele>445.39999389648</ele>
        <time>2020-02-22T10:32:46.000Z</time>
      </trkpt>
      <trkpt lat="43.81538" lon="7.24776">
        <ele>445.39999389648</ele>
        <time>2020-02-22T10:32:47.000Z</time>
      </trkpt>
      <trkpt lat="43.81539" lon="7.24778">
        <ele>445.39999389648</ele>
        <time>2020-02-22T10:32:48.000Z</time>
      </trkpt>
      <trkpt lat="43.81541" lon="7.24776">
        <ele>445.39999389648</ele>
        <time>2020-02-22T10:32:50.000Z</time>
      </trkpt>
      <trkpt lat="43.81539" lon="7.24776">
        <ele>445.79998779297</ele>
        <time>2020-02-22T10:32:54.000Z</time>
      </trkpt>
      <trkpt lat="43.81539" lon="7.24776">
        <ele>445.79998779297</ele>
        <time>2020-02-22T10:33:01.000Z</time>
      </trkpt>
      <trkpt lat="43.81539" lon="7.24776">
        <ele>445.60000610352</ele>
        <time>2020-02-22T10:33:11.000Z</time>
      </trkpt>
      <trkpt lat="43.81542" lon="7.24779">
        <ele>445.60000610352</ele>
        <time>2020-02-22T10:33:13.000Z</time>
      </trkpt>
      <trkpt lat="43.81542" lon="7.24785">
        <ele>445.79998779297</ele>
        <time>2020-02-22T10:33:15.000Z</time>
      </trkpt>
      <trkpt lat="43.81542" lon="7.24788">
        <ele>446.60000610352</ele>
        <time>2020-02-22T10:33:18.000Z</time>
      </trkpt>
      <trkpt lat="43.81543" lon="7.24788">
        <ele>446.79998779297</ele>
        <time>2020-02-22T10:33:19.000Z</time>
      </trkpt>
      <trkpt lat="43.81546" lon="7.24789">
        <ele>447.79998779297</ele>
        <time>2020-02-22T10:33:21.000Z</time>
      </trkpt>
      <trkpt lat="43.81546" lon="7.24789">
        <ele>449.20001220703</ele>
        <time>2020-02-22T10:33:24.000Z</time>
      </trkpt>
      <trkpt lat="43.81546" lon="7.24793">
        <ele>449.79998779297</ele>
        <time>2020-02-22T10:33:31.000Z</time>
      </trkpt>
      <trkpt lat="43.81546" lon="7.24793">
        <ele>450.20001220703</ele>
        <time>2020-02-22T10:33:35.000Z</time>
      </trkpt>
      <trkpt lat="43.81547" lon="7.24794">
        <ele>450.39999389648</ele>
        <time>2020-02-22T10:33:39.000Z</time>
      </trkpt>
      <trkpt lat="43.81548" lon="7.24795">
        <ele>450.79998779297</ele>
        <time>2020-02-22T10:33:45.000Z</time>
      </trkpt>
      <trkpt lat="43.81547" lon="7.24797">
        <ele>450.79998779297</ele>
        <time>2020-02-22T10:33:48.000Z</time>
      </trkpt>
      <trkpt lat="43.81547" lon="7.24804">
        <ele>451</ele>
        <time>2020-02-22T10:33:51.000Z</time>
      </trkpt>
      <trkpt lat="43.81547" lon="7.24806">
        <ele>451.20001220703</ele>
        <time>2020-02-22T10:33:52.000Z</time>
      </trkpt>
      <trkpt lat="43.81547" lon="7.24814">
        <ele>452.79998779297</ele>
        <time>2020-02-22T10:33:56.000Z</time>
      </trkpt>
      <trkpt lat="43.81547" lon="7.24816">
        <ele>454</ele>
        <time>2020-02-22T10:33:59.000Z</time>
      </trkpt>
      <trkpt lat="43.81547" lon="7.24818">
        <ele>454.79998779297</ele>
        <time>2020-02-22T10:34:01.000Z</time>
      </trkpt>
      <trkpt lat="43.81547" lon="7.24817">
        <ele>455.20001220703</ele>
        <time>2020-02-22T10:34:02.000Z</time>
      </trkpt>
      <trkpt lat="43.81548" lon="7.24825">
        <ele>456</ele>
        <time>2020-02-22T10:34:05.000Z</time>
      </trkpt>
      <trkpt lat="43.81548" lon="7.24828">
        <ele>456.39999389648</ele>
        <time>2020-02-22T10:34:06.000Z</time>
      </trkpt>
      <trkpt lat="43.81546" lon="7.24835">
        <ele>457.39999389648</ele>
        <time>2020-02-22T10:34:09.000Z</time>
      </trkpt>
      <trkpt lat="43.81546" lon="7.24838">
        <ele>457.79998779297</ele>
        <time>2020-02-22T10:34:10.000Z</time>
      </trkpt>
      <trkpt lat="43.81544" lon="7.24838">
        <ele>458.60000610352</ele>
        <time>2020-02-22T10:34:12.000Z</time>
      </trkpt>
      <trkpt lat="43.81542" lon="7.24839">
        <ele>459</ele>
        <time>2020-02-22T10:34:13.000Z</time>
      </trkpt>
      <trkpt lat="43.81542" lon="7.24839">
        <ele>459.79998779297</ele>
        <time>2020-02-22T10:34:15.000Z</time>
      </trkpt>
      <trkpt lat="43.81542" lon="7.24839">
        <ele>460.79998779297</ele>
        <time>2020-02-22T10:34:18.000Z</time>
      </trkpt>
      <trkpt lat="43.81541" lon="7.24838">
        <ele>460.79998779297</ele>
        <time>2020-02-22T10:34:20.000Z</time>
      </trkpt>
      <trkpt lat="43.81541" lon="7.24838">
        <ele>460.60000610352</ele>
        <time>2020-02-22T10:34:23.000Z</time>
      </trkpt>
      <trkpt lat="43.81538" lon="7.24838">
        <ele>461.79998779297</ele>
        <time>2020-02-22T10:34:30.000Z</time>
      </trkpt>
      <trkpt lat="43.81534" lon="7.24839">
        <ele>462.20001220703</ele>
        <time>2020-02-22T10:34:37.000Z</time>
      </trkpt>
      <trkpt lat="43.81525" lon="7.24837">
        <ele>463</ele>
        <time>2020-02-22T10:34:41.000Z</time>
      </trkpt>
      <trkpt lat="43.81524" lon="7.24837">
        <ele>463.20001220703</ele>
        <time>2020-02-22T10:34:42.000Z</time>
      </trkpt>
      <trkpt lat="43.81524" lon="7.24837">
        <ele>464</ele>
        <time>2020-02-22T10:34:44.000Z</time>
      </trkpt>
      <trkpt lat="43.81524" lon="7.24837">
        <ele>465</ele>
        <time>2020-02-22T10:34:47.000Z</time>
      </trkpt>
      <trkpt lat="43.81524" lon="7.24837">
        <ele>465</ele>
        <time>2020-02-22T10:34:48.000Z</time>
      </trkpt>
      <trkpt lat="43.81523" lon="7.24835">
        <ele>465</ele>
        <time>2020-02-22T10:34:54.000Z</time>
      </trkpt>
      <trkpt lat="43.81523" lon="7.24837">
        <ele>465.39999389648</ele>
        <time>2020-02-22T10:35:01.000Z</time>
      </trkpt>
      <trkpt lat="43.81524" lon="7.24836">
        <ele>465.60000610352</ele>
        <time>2020-02-22T10:35:05.000Z</time>
      </trkpt>
      <trkpt lat="43.81525" lon="7.24838">
        <ele>465.20001220703</ele>
        <time>2020-02-22T10:35:13.000Z</time>
      </trkpt>
      <trkpt lat="43.81525" lon="7.24839">
        <ele>465.39999389648</ele>
        <time>2020-02-22T10:35:18.000Z</time>
      </trkpt>
      <trkpt lat="43.81523" lon="7.2484">
        <ele>466.20001220703</ele>
        <time>2020-02-22T10:35:25.000Z</time>
      </trkpt>
      <trkpt lat="43.81522" lon="7.2484">
        <ele>467.20001220703</ele>
        <time>2020-02-22T10:35:32.000Z</time>
      </trkpt>
      <trkpt lat="43.81522" lon="7.2484">
        <ele>467.20001220703</ele>
        <time>2020-02-22T10:35:33.000Z</time>
      </trkpt>
      <trkpt lat="43.81522" lon="7.24841">
        <ele>467.20001220703</ele>
        <time>2020-02-22T10:35:43.000Z</time>
      </trkpt>
      <trkpt lat="43.81519" lon="7.2484">
        <ele>467.60000610352</ele>
        <time>2020-02-22T10:35:49.000Z</time>
      </trkpt>
      <trkpt lat="43.81518" lon="7.24841">
        <ele>468.20001220703</ele>
        <time>2020-02-22T10:35:51.000Z</time>
      </trkpt>
      <trkpt lat="43.81517" lon="7.24841">
        <ele>469</ele>
        <time>2020-02-22T10:35:56.000Z</time>
      </trkpt>
      <trkpt lat="43.81514" lon="7.24841">
        <ele>469.20001220703</ele>
        <time>2020-02-22T10:35:59.000Z</time>
      </trkpt>
      <trkpt lat="43.81511" lon="7.24842">
        <ele>469.39999389648</ele>
        <time>2020-02-22T10:36:01.000Z</time>
      </trkpt>
      <trkpt lat="43.81506" lon="7.24845">
        <ele>470.39999389648</ele>
        <time>2020-02-22T10:36:05.000Z</time>
      </trkpt>
      <trkpt lat="43.81505" lon="7.24847">
        <ele>471.60000610352</ele>
        <time>2020-02-22T10:36:07.000Z</time>
      </trkpt>
      <trkpt lat="43.81505" lon="7.24848">
        <ele>472.60000610352</ele>
        <time>2020-02-22T10:36:09.000Z</time>
      </trkpt>
      <trkpt lat="43.81504" lon="7.24848">
        <ele>472.79998779297</ele>
        <time>2020-02-22T10:36:11.000Z</time>
      </trkpt>
      <trkpt lat="43.81502" lon="7.24849">
        <ele>473.20001220703</ele>
        <time>2020-02-22T10:36:16.000Z</time>
      </trkpt>
      <trkpt lat="43.815" lon="7.24849">
        <ele>473.79998779297</ele>
        <time>2020-02-22T10:36:21.000Z</time>
      </trkpt>
      <trkpt lat="43.81499" lon="7.24849">
        <ele>474.39999389648</ele>
        <time>2020-02-22T10:36:23.000Z</time>
      </trkpt>
      <trkpt lat="43.81499" lon="7.2485">
        <ele>474.60000610352</ele>
        <time>2020-02-22T10:36:31.000Z</time>
      </trkpt>
      <trkpt lat="43.81498" lon="7.24852">
        <ele>474.79998779297</ele>
        <time>2020-02-22T10:36:33.000Z</time>
      </trkpt>
      <trkpt lat="43.81494" lon="7.24855">
        <ele>475</ele>
        <time>2020-02-22T10:36:35.000Z</time>
      </trkpt>
      <trkpt lat="43.81492" lon="7.24857">
        <ele>475.20001220703</ele>
        <time>2020-02-22T10:36:37.000Z</time>
      </trkpt>
      <trkpt lat="43.8149" lon="7.24861">
        <ele>476.20001220703</ele>
        <time>2020-02-22T10:36:39.000Z</time>
      </trkpt>
      <trkpt lat="43.81489" lon="7.24863">
        <ele>476.79998779297</ele>
        <time>2020-02-22T10:36:40.000Z</time>
      </trkpt>
      <trkpt lat="43.8149" lon="7.24865">
        <ele>477.60000610352</ele>
        <time>2020-02-22T10:36:41.000Z</time>
      </trkpt>
      <trkpt lat="43.81493" lon="7.24868">
        <ele>478.79998779297</ele>
        <time>2020-02-22T10:36:43.000Z</time>
      </trkpt>
      <trkpt lat="43.81494" lon="7.24869">
        <ele>479.60000610352</ele>
        <time>2020-02-22T10:36:44.000Z</time>
      </trkpt>
      <trkpt lat="43.81494" lon="7.24871">
        <ele>480.20001220703</ele>
        <time>2020-02-22T10:36:45.000Z</time>
      </trkpt>
      <trkpt lat="43.81493" lon="7.24872">
        <ele>481.39999389648</ele>
        <time>2020-02-22T10:36:48.000Z</time>
      </trkpt>
      <trkpt lat="43.81491" lon="7.24871">
        <ele>481.79998779297</ele>
        <time>2020-02-22T10:36:56.000Z</time>
      </trkpt>
      <trkpt lat="43.81489" lon="7.2487">
        <ele>481.39999389648</ele>
        <time>2020-02-22T10:37:06.000Z</time>
      </trkpt>
      <trkpt lat="43.81486" lon="7.24871">
        <ele>481.39999389648</ele>
        <time>2020-02-22T10:37:23.000Z</time>
      </trkpt>
      <trkpt lat="43.81486" lon="7.24872">
        <ele>481.39999389648</ele>
        <time>2020-02-22T10:37:44.000Z</time>
      </trkpt>
      <trkpt lat="43.81485" lon="7.24871">
        <ele>481.39999389648</ele>
        <time>2020-02-22T10:37:55.000Z</time>
      </trkpt>
      <trkpt lat="43.81483" lon="7.24871">
        <ele>481.39999389648</ele>
        <time>2020-02-22T10:37:57.000Z</time>
      </trkpt>
      <trkpt lat="43.81479" lon="7.24872">
        <ele>481.60000610352</ele>
        <time>2020-02-22T10:38:00.000Z</time>
      </trkpt>
      <trkpt lat="43.81473" lon="7.24873">
        <ele>482.20001220703</ele>
        <time>2020-02-22T10:38:03.000Z</time>
      </trkpt>
      <trkpt lat="43.81472" lon="7.24874">
        <ele>482.60000610352</ele>
        <time>2020-02-22T10:38:04.000Z</time>
      </trkpt>
      <trkpt lat="43.81467" lon="7.24878">
        <ele>483.20001220703</ele>
        <time>2020-02-22T10:38:07.000Z</time>
      </trkpt>
      <trkpt lat="43.81462" lon="7.24882">
        <ele>483.79998779297</ele>
        <time>2020-02-22T10:38:10.000Z</time>
      </trkpt>
      <trkpt lat="43.81458" lon="7.24891">
        <ele>484.79998779297</ele>
        <time>2020-02-22T10:38:14.000Z</time>
      </trkpt>
      <trkpt lat="43.81458" lon="7.24909">
        <ele>485.60000610352</ele>
        <time>2020-02-22T10:38:21.000Z</time>
      </trkpt>
      <trkpt lat="43.81458" lon="7.24913">
        <ele>486</ele>
        <time>2020-02-22T10:38:23.000Z</time>
      </trkpt>
      <trkpt lat="43.81457" lon="7.24922">
        <ele>486.39999389648</ele>
        <time>2020-02-22T10:38:27.000Z</time>
      </trkpt>
      <trkpt lat="43.81453" lon="7.24931">
        <ele>487.20001220703</ele>
        <time>2020-02-22T10:38:31.000Z</time>
      </trkpt>
      <trkpt lat="43.81449" lon="7.24934">
        <ele>487.60000610352</ele>
        <time>2020-02-22T10:38:33.000Z</time>
      </trkpt>
      <trkpt lat="43.81446" lon="7.24936">
        <ele>488.20001220703</ele>
        <time>2020-02-22T10:38:35.000Z</time>
      </trkpt>
      <trkpt lat="43.81442" lon="7.24937">
        <ele>489.39999389648</ele>
        <time>2020-02-22T10:38:38.000Z</time>
      </trkpt>
      <trkpt lat="43.81441" lon="7.24938">
        <ele>489.79998779297</ele>
        <time>2020-02-22T10:38:39.000Z</time>
      </trkpt>
      <trkpt lat="43.81439" lon="7.24941">
        <ele>490.60000610352</ele>
        <time>2020-02-22T10:38:41.000Z</time>
      </trkpt>
      <trkpt lat="43.81435" lon="7.2495">
        <ele>491.39999389648</ele>
        <time>2020-02-22T10:38:45.000Z</time>
      </trkpt>
      <trkpt lat="43.81434" lon="7.24954">
        <ele>491.60000610352</ele>
        <time>2020-02-22T10:38:47.000Z</time>
      </trkpt>
      <trkpt lat="43.81434" lon="7.24963">
        <ele>492.60000610352</ele>
        <time>2020-02-22T10:38:51.000Z</time>
      </trkpt>
      <trkpt lat="43.81435" lon="7.24966">
        <ele>492.79998779297</ele>
        <time>2020-02-22T10:38:53.000Z</time>
      </trkpt>
      <trkpt lat="43.81433" lon="7.24968">
        <ele>493</ele>
        <time>2020-02-22T10:38:54.000Z</time>
      </trkpt>
      <trkpt lat="43.81433" lon="7.24974">
        <ele>493.20001220703</ele>
        <time>2020-02-22T10:38:56.000Z</time>
      </trkpt>
      <trkpt lat="43.81431" lon="7.24981">
        <ele>494</ele>
        <time>2020-02-22T10:38:59.000Z</time>
      </trkpt>
      <trkpt lat="43.81426" lon="7.24989">
        <ele>495</ele>
        <time>2020-02-22T10:39:03.000Z</time>
      </trkpt>
      <trkpt lat="43.81418" lon="7.24994">
        <ele>496</ele>
        <time>2020-02-22T10:39:08.000Z</time>
      </trkpt>
      <trkpt lat="43.81415" lon="7.24995">
        <ele>496.60000610352</ele>
        <time>2020-02-22T10:39:10.000Z</time>
      </trkpt>
      <trkpt lat="43.81412" lon="7.24998">
        <ele>497.20001220703</ele>
        <time>2020-02-22T10:39:12.000Z</time>
      </trkpt>
      <trkpt lat="43.81406" lon="7.25">
        <ele>497.79998779297</ele>
        <time>2020-02-22T10:39:15.000Z</time>
      </trkpt>
      <trkpt lat="43.81402" lon="7.24998">
        <ele>498.20001220703</ele>
        <time>2020-02-22T10:39:17.000Z</time>
      </trkpt>
      <trkpt lat="43.81398" lon="7.24994">
        <ele>498.39999389648</ele>
        <time>2020-02-22T10:39:19.000Z</time>
      </trkpt>
      <trkpt lat="43.81395" lon="7.24989">
        <ele>499.39999389648</ele>
        <time>2020-02-22T10:39:22.000Z</time>
      </trkpt>
      <trkpt lat="43.81391" lon="7.24988">
        <ele>500.60000610352</ele>
        <time>2020-02-22T10:39:25.000Z</time>
      </trkpt>
      <trkpt lat="43.81386" lon="7.24989">
        <ele>501.60000610352</ele>
        <time>2020-02-22T10:39:29.000Z</time>
      </trkpt>
      <trkpt lat="43.81384" lon="7.2499">
        <ele>501.79998779297</ele>
        <time>2020-02-22T10:39:30.000Z</time>
      </trkpt>
      <trkpt lat="43.8137" lon="7.24996">
        <ele>502.60000610352</ele>
        <time>2020-02-22T10:39:37.000Z</time>
      </trkpt>
      <trkpt lat="43.81368" lon="7.24995">
        <ele>502.79998779297</ele>
        <time>2020-02-22T10:39:38.000Z</time>
      </trkpt>
      <trkpt lat="43.81364" lon="7.24992">
        <ele>504.20001220703</ele>
        <time>2020-02-22T10:39:41.000Z</time>
      </trkpt>
      <trkpt lat="43.81361" lon="7.2499">
        <ele>505.20001220703</ele>
        <time>2020-02-22T10:39:43.000Z</time>
      </trkpt>
      <trkpt lat="43.81355" lon="7.24989">
        <ele>506.39999389648</ele>
        <time>2020-02-22T10:39:48.000Z</time>
      </trkpt>
      <trkpt lat="43.81353" lon="7.2499">
        <ele>506.60000610352</ele>
        <time>2020-02-22T10:39:50.000Z</time>
      </trkpt>
      <trkpt lat="43.81345" lon="7.24994">
        <ele>507.39999389648</ele>
        <time>2020-02-22T10:39:55.000Z</time>
      </trkpt>
      <trkpt lat="43.81342" lon="7.24995">
        <ele>508</ele>
        <time>2020-02-22T10:39:57.000Z</time>
      </trkpt>
      <trkpt lat="43.81337" lon="7.24994">
        <ele>508.60000610352</ele>
        <time>2020-02-22T10:40:00.000Z</time>
      </trkpt>
      <trkpt lat="43.81331" lon="7.2499">
        <ele>509.20001220703</ele>
        <time>2020-02-22T10:40:03.000Z</time>
      </trkpt>
      <trkpt lat="43.81328" lon="7.24987">
        <ele>509.79998779297</ele>
        <time>2020-02-22T10:40:06.000Z</time>
      </trkpt>
      <trkpt lat="43.81328" lon="7.24987">
        <ele>510.20001220703</ele>
        <time>2020-02-22T10:40:08.000Z</time>
      </trkpt>
      <trkpt lat="43.81328" lon="7.2499">
        <ele>510.39999389648</ele>
        <time>2020-02-22T10:40:09.000Z</time>
      </trkpt>
      <trkpt lat="43.8133" lon="7.24996">
        <ele>510.60000610352</ele>
        <time>2020-02-22T10:40:12.000Z</time>
      </trkpt>
      <trkpt lat="43.81331" lon="7.24997">
        <ele>510.20001220703</ele>
        <time>2020-02-22T10:40:17.000Z</time>
      </trkpt>
      <trkpt lat="43.81333" lon="7.24997">
        <ele>510.20001220703</ele>
        <time>2020-02-22T10:40:33.000Z</time>
      </trkpt>
      <trkpt lat="43.81333" lon="7.24995">
        <ele>510.20001220703</ele>
        <time>2020-02-22T10:40:34.000Z</time>
      </trkpt>
      <trkpt lat="43.81329" lon="7.24987">
        <ele>509.79998779297</ele>
        <time>2020-02-22T10:40:39.000Z</time>
      </trkpt>
      <trkpt lat="43.81328" lon="7.24985">
        <ele>510</ele>
        <time>2020-02-22T10:40:40.000Z</time>
      </trkpt>
      <trkpt lat="43.81323" lon="7.24978">
        <ele>510.79998779297</ele>
        <time>2020-02-22T10:40:45.000Z</time>
      </trkpt>
      <trkpt lat="43.81322" lon="7.24977">
        <ele>511</ele>
        <time>2020-02-22T10:40:46.000Z</time>
      </trkpt>
      <trkpt lat="43.81317" lon="7.24973">
        <ele>512</ele>
        <time>2020-02-22T10:40:51.000Z</time>
      </trkpt>
      <trkpt lat="43.81318" lon="7.24973">
        <ele>512</ele>
        <time>2020-02-22T10:40:52.000Z</time>
      </trkpt>
      <trkpt lat="43.81316" lon="7.24971">
        <ele>512.20001220703</ele>
        <time>2020-02-22T10:41:00.000Z</time>
      </trkpt>
      <trkpt lat="43.81312" lon="7.2496">
        <ele>512.40002441406</ele>
        <time>2020-02-22T10:41:05.000Z</time>
      </trkpt>
      <trkpt lat="43.81313" lon="7.24948">
        <ele>512.79998779297</ele>
        <time>2020-02-22T10:41:09.000Z</time>
      </trkpt>
      <trkpt lat="43.81314" lon="7.24941">
        <ele>513</ele>
        <time>2020-02-22T10:41:11.000Z</time>
      </trkpt>
      <trkpt lat="43.81316" lon="7.24939">
        <ele>513</ele>
        <time>2020-02-22T10:41:12.000Z</time>
      </trkpt>
      <trkpt lat="43.81323" lon="7.24929">
        <ele>514.40002441406</ele>
        <time>2020-02-22T10:41:16.000Z</time>
      </trkpt>
      <trkpt lat="43.81324" lon="7.24926">
        <ele>514.59997558594</ele>
        <time>2020-02-22T10:41:17.000Z</time>
      </trkpt>
      <trkpt lat="43.81331" lon="7.24916">
        <ele>515.40002441406</ele>
        <time>2020-02-22T10:41:21.000Z</time>
      </trkpt>
      <trkpt lat="43.81334" lon="7.24906">
        <ele>516.59997558594</ele>
        <time>2020-02-22T10:41:25.000Z</time>
      </trkpt>
      <trkpt lat="43.8133" lon="7.24896">
        <ele>517.79998779297</ele>
        <time>2020-02-22T10:41:29.000Z</time>
      </trkpt>
      <trkpt lat="43.81322" lon="7.24895">
        <ele>518.40002441406</ele>
        <time>2020-02-22T10:41:34.000Z</time>
      </trkpt>
      <trkpt lat="43.81319" lon="7.24897">
        <ele>518.79998779297</ele>
        <time>2020-02-22T10:41:36.000Z</time>
      </trkpt>
      <trkpt lat="43.81308" lon="7.249">
        <ele>520.20001220703</ele>
        <time>2020-02-22T10:41:41.000Z</time>
      </trkpt>
      <trkpt lat="43.81298" lon="7.24902">
        <ele>521.40002441406</ele>
        <time>2020-02-22T10:41:46.000Z</time>
      </trkpt>
      <trkpt lat="43.81294" lon="7.24903">
        <ele>521.59997558594</ele>
        <time>2020-02-22T10:41:48.000Z</time>
      </trkpt>
      <trkpt lat="43.81288" lon="7.24904">
        <ele>522.40002441406</ele>
        <time>2020-02-22T10:41:51.000Z</time>
      </trkpt>
      <trkpt lat="43.8128" lon="7.24905">
        <ele>523.20001220703</ele>
        <time>2020-02-22T10:41:55.000Z</time>
      </trkpt>
      <trkpt lat="43.81276" lon="7.24905">
        <ele>523.40002441406</ele>
        <time>2020-02-22T10:41:57.000Z</time>
      </trkpt>
      <trkpt lat="43.81266" lon="7.24903">
        <ele>524.59997558594</ele>
        <time>2020-02-22T10:42:02.000Z</time>
      </trkpt>
      <trkpt lat="43.81255" lon="7.24899">
        <ele>525.59997558594</ele>
        <time>2020-02-22T10:42:07.000Z</time>
      </trkpt>
      <trkpt lat="43.81252" lon="7.24897">
        <ele>526</ele>
        <time>2020-02-22T10:42:09.000Z</time>
      </trkpt>
      <trkpt lat="43.81243" lon="7.2489">
        <ele>526.59997558594</ele>
        <time>2020-02-22T10:42:14.000Z</time>
      </trkpt>
      <trkpt lat="43.81242" lon="7.24888">
        <ele>526.79998779297</ele>
        <time>2020-02-22T10:42:15.000Z</time>
      </trkpt>
      <trkpt lat="43.81236" lon="7.24868">
        <ele>527.79998779297</ele>
        <time>2020-02-22T10:42:22.000Z</time>
      </trkpt>
      <trkpt lat="43.81232" lon="7.24859">
        <ele>528.79998779297</ele>
        <time>2020-02-22T10:42:26.000Z</time>
      </trkpt>
      <trkpt lat="43.81229" lon="7.24855">
        <ele>529.20001220703</ele>
        <time>2020-02-22T10:42:28.000Z</time>
      </trkpt>
      <trkpt lat="43.81226" lon="7.24844">
        <ele>529.79998779297</ele>
        <time>2020-02-22T10:42:32.000Z</time>
      </trkpt>
      <trkpt lat="43.81226" lon="7.24839">
        <ele>530</ele>
        <time>2020-02-22T10:42:34.000Z</time>
      </trkpt>
      <trkpt lat="43.81228" lon="7.24833">
        <ele>530.40002441406</ele>
        <time>2020-02-22T10:42:36.000Z</time>
      </trkpt>
      <trkpt lat="43.8123" lon="7.24829">
        <ele>531</ele>
        <time>2020-02-22T10:42:38.000Z</time>
      </trkpt>
      <trkpt lat="43.81231" lon="7.24827">
        <ele>531.20001220703</ele>
        <time>2020-02-22T10:42:39.000Z</time>
      </trkpt>
      <trkpt lat="43.81235" lon="7.24821">
        <ele>532</ele>
        <time>2020-02-22T10:42:42.000Z</time>
      </trkpt>
      <trkpt lat="43.81238" lon="7.24811">
        <ele>533</ele>
        <time>2020-02-22T10:42:46.000Z</time>
      </trkpt>
      <trkpt lat="43.81238" lon="7.24808">
        <ele>533.20001220703</ele>
        <time>2020-02-22T10:42:47.000Z</time>
      </trkpt>
      <trkpt lat="43.81236" lon="7.24802">
        <ele>533.59997558594</ele>
        <time>2020-02-22T10:42:50.000Z</time>
      </trkpt>
      <trkpt lat="43.81235" lon="7.24801">
        <ele>533.79998779297</ele>
        <time>2020-02-22T10:42:51.000Z</time>
      </trkpt>
      <trkpt lat="43.81232" lon="7.24801">
        <ele>534.20001220703</ele>
        <time>2020-02-22T10:42:53.000Z</time>
      </trkpt>
      <trkpt lat="43.8123" lon="7.24805">
        <ele>534.40002441406</ele>
        <time>2020-02-22T10:42:55.000Z</time>
      </trkpt>
      <trkpt lat="43.81225" lon="7.24817">
        <ele>535.20001220703</ele>
        <time>2020-02-22T10:43:00.000Z</time>
      </trkpt>
      <trkpt lat="43.81223" lon="7.2482">
        <ele>535.40002441406</ele>
        <time>2020-02-22T10:43:01.000Z</time>
      </trkpt>
      <trkpt lat="43.81216" lon="7.24832">
        <ele>536.20001220703</ele>
        <time>2020-02-22T10:43:06.000Z</time>
      </trkpt>
      <trkpt lat="43.81214" lon="7.24837">
        <ele>536.40002441406</ele>
        <time>2020-02-22T10:43:08.000Z</time>
      </trkpt>
      <trkpt lat="43.81211" lon="7.24853">
        <ele>537</ele>
        <time>2020-02-22T10:43:13.000Z</time>
      </trkpt>
      <trkpt lat="43.81212" lon="7.24859">
        <ele>537.40002441406</ele>
        <time>2020-02-22T10:43:15.000Z</time>
      </trkpt>
      <trkpt lat="43.81213" lon="7.24869">
        <ele>538.59997558594</ele>
        <time>2020-02-22T10:43:18.000Z</time>
      </trkpt>
      <trkpt lat="43.81213" lon="7.24872">
        <ele>539</ele>
        <time>2020-02-22T10:43:19.000Z</time>
      </trkpt>
      <trkpt lat="43.81213" lon="7.24878">
        <ele>539.59997558594</ele>
        <time>2020-02-22T10:43:21.000Z</time>
      </trkpt>
      <trkpt lat="43.81211" lon="7.24893">
        <ele>540</ele>
        <time>2020-02-22T10:43:25.000Z</time>
      </trkpt>
      <trkpt lat="43.81217" lon="7.24907">
        <ele>540.20001220703</ele>
        <time>2020-02-22T10:43:29.000Z</time>
      </trkpt>
      <trkpt lat="43.81223" lon="7.24915">
        <ele>540.79998779297</ele>
        <time>2020-02-22T10:43:32.000Z</time>
      </trkpt>
      <trkpt lat="43.81232" lon="7.24924">
        <ele>542</ele>
        <time>2020-02-22T10:43:36.000Z</time>
      </trkpt>
      <trkpt lat="43.81238" lon="7.24941">
        <ele>543.20001220703</ele>
        <time>2020-02-22T10:43:42.000Z</time>
      </trkpt>
      <trkpt lat="43.81236" lon="7.24956">
        <ele>544.40002441406</ele>
        <time>2020-02-22T10:43:47.000Z</time>
      </trkpt>
      <trkpt lat="43.81237" lon="7.24959">
        <ele>544.40002441406</ele>
        <time>2020-02-22T10:43:48.000Z</time>
      </trkpt>
      <trkpt lat="43.81238" lon="7.2497">
        <ele>545.40002441406</ele>
        <time>2020-02-22T10:43:52.000Z</time>
      </trkpt>
      <trkpt lat="43.8124" lon="7.24979">
        <ele>546</ele>
        <time>2020-02-22T10:43:55.000Z</time>
      </trkpt>
      <trkpt lat="43.81243" lon="7.24984">
        <ele>546.59997558594</ele>
        <time>2020-02-22T10:43:57.000Z</time>
      </trkpt>
      <trkpt lat="43.81249" lon="7.24991">
        <ele>547.59997558594</ele>
        <time>2020-02-22T10:44:01.000Z</time>
      </trkpt>
      <trkpt lat="43.81258" lon="7.25">
        <ele>548.79998779297</ele>
        <time>2020-02-22T10:44:06.000Z</time>
      </trkpt>
      <trkpt lat="43.81264" lon="7.25008">
        <ele>549.79998779297</ele>
        <time>2020-02-22T10:44:10.000Z</time>
      </trkpt>
      <trkpt lat="43.81265" lon="7.2501">
        <ele>550</ele>
        <time>2020-02-22T10:44:11.000Z</time>
      </trkpt>
      <trkpt lat="43.81267" lon="7.25024">
        <ele>551</ele>
        <time>2020-02-22T10:44:16.000Z</time>
      </trkpt>
      <trkpt lat="43.81267" lon="7.25027">
        <ele>551.20001220703</ele>
        <time>2020-02-22T10:44:17.000Z</time>
      </trkpt>
      <trkpt lat="43.81265" lon="7.25038">
        <ele>552</ele>
        <time>2020-02-22T10:44:21.000Z</time>
      </trkpt>
      <trkpt lat="43.81263" lon="7.25046">
        <ele>552.59997558594</ele>
        <time>2020-02-22T10:44:24.000Z</time>
      </trkpt>
      <trkpt lat="43.81262" lon="7.25052">
        <ele>553.20001220703</ele>
        <time>2020-02-22T10:44:26.000Z</time>
      </trkpt>
      <trkpt lat="43.81261" lon="7.25062">
        <ele>554.20001220703</ele>
        <time>2020-02-22T10:44:30.000Z</time>
      </trkpt>
      <trkpt lat="43.81259" lon="7.25067">
        <ele>554.79998779297</ele>
        <time>2020-02-22T10:44:32.000Z</time>
      </trkpt>
      <trkpt lat="43.81257" lon="7.25072">
        <ele>555.20001220703</ele>
        <time>2020-02-22T10:44:34.000Z</time>
      </trkpt>
      <trkpt lat="43.81258" lon="7.2508">
        <ele>555.79998779297</ele>
        <time>2020-02-22T10:44:37.000Z</time>
      </trkpt>
      <trkpt lat="43.81263" lon="7.25093">
        <ele>556.20001220703</ele>
        <time>2020-02-22T10:44:41.000Z</time>
      </trkpt>
      <trkpt lat="43.81265" lon="7.25095">
        <ele>556.40002441406</ele>
        <time>2020-02-22T10:44:42.000Z</time>
      </trkpt>
      <trkpt lat="43.81271" lon="7.25101">
        <ele>557.20001220703</ele>
        <time>2020-02-22T10:44:45.000Z</time>
      </trkpt>
      <trkpt lat="43.81278" lon="7.25105">
        <ele>558</ele>
        <time>2020-02-22T10:44:48.000Z</time>
      </trkpt>
      <trkpt lat="43.81282" lon="7.25106">
        <ele>558.20001220703</ele>
        <time>2020-02-22T10:44:50.000Z</time>
      </trkpt>
      <trkpt lat="43.81291" lon="7.25108">
        <ele>559.40002441406</ele>
        <time>2020-02-22T10:44:54.000Z</time>
      </trkpt>
      <trkpt lat="43.81296" lon="7.25109">
        <ele>560</ele>
        <time>2020-02-22T10:44:56.000Z</time>
      </trkpt>
      <trkpt lat="43.813" lon="7.2511">
        <ele>560.40002441406</ele>
        <time>2020-02-22T10:44:58.000Z</time>
      </trkpt>
      <trkpt lat="43.81309" lon="7.25113">
        <ele>561.40002441406</ele>
        <time>2020-02-22T10:45:02.000Z</time>
      </trkpt>
      <trkpt lat="43.81311" lon="7.25114">
        <ele>561.59997558594</ele>
        <time>2020-02-22T10:45:03.000Z</time>
      </trkpt>
      <trkpt lat="43.81322" lon="7.25122">
        <ele>562.79998779297</ele>
        <time>2020-02-22T10:45:08.000Z</time>
      </trkpt>
      <trkpt lat="43.81324" lon="7.25124">
        <ele>562.79998779297</ele>
        <time>2020-02-22T10:45:09.000Z</time>
      </trkpt>
      <trkpt lat="43.81332" lon="7.25138">
        <ele>563.79998779297</ele>
        <time>2020-02-22T10:45:15.000Z</time>
      </trkpt>
      <trkpt lat="43.81333" lon="7.25144">
        <ele>564.20001220703</ele>
        <time>2020-02-22T10:45:17.000Z</time>
      </trkpt>
      <trkpt lat="43.81335" lon="7.25152">
        <ele>565</ele>
        <time>2020-02-22T10:45:20.000Z</time>
      </trkpt>
      <trkpt lat="43.81336" lon="7.25165">
        <ele>565.59997558594</ele>
        <time>2020-02-22T10:45:24.000Z</time>
      </trkpt>
      <trkpt lat="43.81336" lon="7.25172">
        <ele>566</ele>
        <time>2020-02-22T10:45:26.000Z</time>
      </trkpt>
      <trkpt lat="43.81339" lon="7.2519">
        <ele>567.20001220703</ele>
        <time>2020-02-22T10:45:32.000Z</time>
      </trkpt>
      <trkpt lat="43.81348" lon="7.25201">
        <ele>568</ele>
        <time>2020-02-22T10:45:37.000Z</time>
      </trkpt>
      <trkpt lat="43.81353" lon="7.25201">
        <ele>568.40002441406</ele>
        <time>2020-02-22T10:45:39.000Z</time>
      </trkpt>
      <trkpt lat="43.8136" lon="7.252">
        <ele>569.59997558594</ele>
        <time>2020-02-22T10:45:42.000Z</time>
      </trkpt>
      <trkpt lat="43.81362" lon="7.25199">
        <ele>570</ele>
        <time>2020-02-22T10:45:43.000Z</time>
      </trkpt>
      <trkpt lat="43.8137" lon="7.25195">
        <ele>570.59997558594</ele>
        <time>2020-02-22T10:45:47.000Z</time>
      </trkpt>
      <trkpt lat="43.81377" lon="7.25193">
        <ele>571.20001220703</ele>
        <time>2020-02-22T10:45:50.000Z</time>
      </trkpt>
      <trkpt lat="43.81384" lon="7.25191">
        <ele>571.79998779297</ele>
        <time>2020-02-22T10:45:53.000Z</time>
      </trkpt>
      <trkpt lat="43.81394" lon="7.25188">
        <ele>572.59997558594</ele>
        <time>2020-02-22T10:45:57.000Z</time>
      </trkpt>
      <trkpt lat="43.81396" lon="7.25188">
        <ele>572.79998779297</ele>
        <time>2020-02-22T10:45:58.000Z</time>
      </trkpt>
      <trkpt lat="43.81407" lon="7.25186">
        <ele>574</ele>
        <time>2020-02-22T10:46:02.000Z</time>
      </trkpt>
      <trkpt lat="43.81418" lon="7.25183">
        <ele>574.59997558594</ele>
        <time>2020-02-22T10:46:06.000Z</time>
      </trkpt>
      <trkpt lat="43.81423" lon="7.25181">
        <ele>575</ele>
        <time>2020-02-22T10:46:08.000Z</time>
      </trkpt>
      <trkpt lat="43.81435" lon="7.25178">
        <ele>576</ele>
        <time>2020-02-22T10:46:13.000Z</time>
      </trkpt>
      <trkpt lat="43.81438" lon="7.25178">
        <ele>576.40002441406</ele>
        <time>2020-02-22T10:46:14.000Z</time>
      </trkpt>
      <trkpt lat="43.81449" lon="7.25177">
        <ele>577</ele>
        <time>2020-02-22T10:46:18.000Z</time>
      </trkpt>
      <trkpt lat="43.81456" lon="7.25176">
        <ele>577.59997558594</ele>
        <time>2020-02-22T10:46:21.000Z</time>
      </trkpt>
      <trkpt lat="43.81462" lon="7.25176">
        <ele>578.20001220703</ele>
        <time>2020-02-22T10:46:23.000Z</time>
      </trkpt>
      <trkpt lat="43.81471" lon="7.25176">
        <ele>579.20001220703</ele>
        <time>2020-02-22T10:46:27.000Z</time>
      </trkpt>
      <trkpt lat="43.81473" lon="7.25176">
        <ele>579.40002441406</ele>
        <time>2020-02-22T10:46:28.000Z</time>
      </trkpt>
      <trkpt lat="43.81483" lon="7.25178">
        <ele>580.59997558594</ele>
        <time>2020-02-22T10:46:32.000Z</time>
      </trkpt>
      <trkpt lat="43.81487" lon="7.2518">
        <ele>581</ele>
        <time>2020-02-22T10:46:34.000Z</time>
      </trkpt>
      <trkpt lat="43.81493" lon="7.25186">
        <ele>581.79998779297</ele>
        <time>2020-02-22T10:46:37.000Z</time>
      </trkpt>
      <trkpt lat="43.81502" lon="7.25192">
        <ele>582.79998779297</ele>
        <time>2020-02-22T10:46:41.000Z</time>
      </trkpt>
      <trkpt lat="43.81504" lon="7.25194">
        <ele>583</ele>
        <time>2020-02-22T10:46:42.000Z</time>
      </trkpt>
      <trkpt lat="43.81516" lon="7.25199">
        <ele>584.20001220703</ele>
        <time>2020-02-22T10:46:47.000Z</time>
      </trkpt>
      <trkpt lat="43.81519" lon="7.25201">
        <ele>584.40002441406</ele>
        <time>2020-02-22T10:46:48.000Z</time>
      </trkpt>
      <trkpt lat="43.81527" lon="7.25206">
        <ele>585.20001220703</ele>
        <time>2020-02-22T10:46:52.000Z</time>
      </trkpt>
      <trkpt lat="43.81533" lon="7.25211">
        <ele>586.40002441406</ele>
        <time>2020-02-22T10:46:55.000Z</time>
      </trkpt>
      <trkpt lat="43.81542" lon="7.25215">
        <ele>587.40002441406</ele>
        <time>2020-02-22T10:46:59.000Z</time>
      </trkpt>
      <trkpt lat="43.81552" lon="7.25218">
        <ele>588.20001220703</ele>
        <time>2020-02-22T10:47:03.000Z</time>
      </trkpt>
      <trkpt lat="43.81553" lon="7.25219">
        <ele>588.59997558594</ele>
        <time>2020-02-22T10:47:04.000Z</time>
      </trkpt>
      <trkpt lat="43.81568" lon="7.25227">
        <ele>589.59997558594</ele>
        <time>2020-02-22T10:47:10.000Z</time>
      </trkpt>
      <trkpt lat="43.8158" lon="7.25235">
        <ele>590.59997558594</ele>
        <time>2020-02-22T10:47:15.000Z</time>
      </trkpt>
      <trkpt lat="43.81586" lon="7.25241">
        <ele>591.40002441406</ele>
        <time>2020-02-22T10:47:18.000Z</time>
      </trkpt>
      <trkpt lat="43.81588" lon="7.25243">
        <ele>591.59997558594</ele>
        <time>2020-02-22T10:47:19.000Z</time>
      </trkpt>
      <trkpt lat="43.81597" lon="7.25254">
        <ele>592.59997558594</ele>
        <time>2020-02-22T10:47:24.000Z</time>
      </trkpt>
      <trkpt lat="43.81599" lon="7.25257">
        <ele>592.79998779297</ele>
        <time>2020-02-22T10:47:25.000Z</time>
      </trkpt>
      <trkpt lat="43.81608" lon="7.25264">
        <ele>593.59997558594</ele>
        <time>2020-02-22T10:47:29.000Z</time>
      </trkpt>
      <trkpt lat="43.81613" lon="7.25267">
        <ele>594.20001220703</ele>
        <time>2020-02-22T10:47:31.000Z</time>
      </trkpt>
      <trkpt lat="43.81619" lon="7.25273">
        <ele>594.79998779297</ele>
        <time>2020-02-22T10:47:34.000Z</time>
      </trkpt>
      <trkpt lat="43.81625" lon="7.2528">
        <ele>595.40002441406</ele>
        <time>2020-02-22T10:47:37.000Z</time>
      </trkpt>
      <trkpt lat="43.81629" lon="7.25285">
        <ele>596</ele>
        <time>2020-02-22T10:47:39.000Z</time>
      </trkpt>
      <trkpt lat="43.81635" lon="7.25297">
        <ele>597</ele>
        <time>2020-02-22T10:47:43.000Z</time>
      </trkpt>
      <trkpt lat="43.81638" lon="7.25303">
        <ele>597.20001220703</ele>
        <time>2020-02-22T10:47:45.000Z</time>
      </trkpt>
      <trkpt lat="43.81644" lon="7.25314">
        <ele>598.20001220703</ele>
        <time>2020-02-22T10:47:49.000Z</time>
      </trkpt>
      <trkpt lat="43.8165" lon="7.25329">
        <ele>599.20001220703</ele>
        <time>2020-02-22T10:47:54.000Z</time>
      </trkpt>
      <trkpt lat="43.81659" lon="7.2535">
        <ele>600.20001220703</ele>
        <time>2020-02-22T10:48:00.000Z</time>
      </trkpt>
      <trkpt lat="43.8166" lon="7.25354">
        <ele>600.40002441406</ele>
        <time>2020-02-22T10:48:01.000Z</time>
      </trkpt>
      <trkpt lat="43.81665" lon="7.25367">
        <ele>601.59997558594</ele>
        <time>2020-02-22T10:48:05.000Z</time>
      </trkpt>
      <trkpt lat="43.8167" lon="7.2538">
        <ele>602.40002441406</ele>
        <time>2020-02-22T10:48:09.000Z</time>
      </trkpt>
      <trkpt lat="43.81671" lon="7.25383">
        <ele>602.79998779297</ele>
        <time>2020-02-22T10:48:10.000Z</time>
      </trkpt>
      <trkpt lat="43.81679" lon="7.25399">
        <ele>603.79998779297</ele>
        <time>2020-02-22T10:48:15.000Z</time>
      </trkpt>
      <trkpt lat="43.81682" lon="7.25405">
        <ele>604.40002441406</ele>
        <time>2020-02-22T10:48:17.000Z</time>
      </trkpt>
      <trkpt lat="43.81685" lon="7.2541">
        <ele>604.79998779297</ele>
        <time>2020-02-22T10:48:19.000Z</time>
      </trkpt>
      <trkpt lat="43.81691" lon="7.2542">
        <ele>606</ele>
        <time>2020-02-22T10:48:23.000Z</time>
      </trkpt>
      <trkpt lat="43.81693" lon="7.25422">
        <ele>606.20001220703</ele>
        <time>2020-02-22T10:48:24.000Z</time>
      </trkpt>
      <trkpt lat="43.81697" lon="7.2543">
        <ele>607.20001220703</ele>
        <time>2020-02-22T10:48:27.000Z</time>
      </trkpt>
      <trkpt lat="43.81703" lon="7.25441">
        <ele>608</ele>
        <time>2020-02-22T10:48:32.000Z</time>
      </trkpt>
      <trkpt lat="43.81705" lon="7.25444">
        <ele>608.40002441406</ele>
        <time>2020-02-22T10:48:33.000Z</time>
      </trkpt>
      <trkpt lat="43.81709" lon="7.25453">
        <ele>609.40002441406</ele>
        <time>2020-02-22T10:48:38.000Z</time>
      </trkpt>
      <trkpt lat="43.8171" lon="7.25455">
        <ele>609.79998779297</ele>
        <time>2020-02-22T10:48:39.000Z</time>
      </trkpt>
      <trkpt lat="43.81711" lon="7.25461">
        <ele>610.59997558594</ele>
        <time>2020-02-22T10:48:42.000Z</time>
      </trkpt>
      <trkpt lat="43.81712" lon="7.25464">
        <ele>610.79998779297</ele>
        <time>2020-02-22T10:48:44.000Z</time>
      </trkpt>
      <trkpt lat="43.81706" lon="7.25467">
        <ele>611.20001220703</ele>
        <time>2020-02-22T10:48:48.000Z</time>
      </trkpt>
      <trkpt lat="43.81691" lon="7.25464">
        <ele>611.40002441406</ele>
        <time>2020-02-22T10:48:54.000Z</time>
      </trkpt>
      <trkpt lat="43.81682" lon="7.25459">
        <ele>611.59997558594</ele>
        <time>2020-02-22T10:48:58.000Z</time>
      </trkpt>
      <trkpt lat="43.81673" lon="7.25454">
        <ele>611.59997558594</ele>
        <time>2020-02-22T10:49:01.000Z</time>
      </trkpt>
      <trkpt lat="43.81646" lon="7.25438">
        <ele>611.59997558594</ele>
        <time>2020-02-22T10:49:10.000Z</time>
      </trkpt>
      <trkpt lat="43.81625" lon="7.25428">
        <ele>611.79998779297</ele>
        <time>2020-02-22T10:49:17.000Z</time>
      </trkpt>
      <trkpt lat="43.816" lon="7.25426">
        <ele>611.59997558594</ele>
        <time>2020-02-22T10:49:23.000Z</time>
      </trkpt>
      <trkpt lat="43.81596" lon="7.25427">
        <ele>611.59997558594</ele>
        <time>2020-02-22T10:49:24.000Z</time>
      </trkpt>
      <trkpt lat="43.81584" lon="7.25439">
        <ele>610.79998779297</ele>
        <time>2020-02-22T10:49:27.000Z</time>
      </trkpt>
      <trkpt lat="43.81581" lon="7.25444">
        <ele>610.59997558594</ele>
        <time>2020-02-22T10:49:28.000Z</time>
      </trkpt>
      <trkpt lat="43.81574" lon="7.25455">
        <ele>610.20001220703</ele>
        <time>2020-02-22T10:49:30.000Z</time>
      </trkpt>
      <trkpt lat="43.81568" lon="7.25467">
        <ele>609.79998779297</ele>
        <time>2020-02-22T10:49:32.000Z</time>
      </trkpt>
      <trkpt lat="43.81565" lon="7.25471">
        <ele>609.79998779297</ele>
        <time>2020-02-22T10:49:33.000Z</time>
      </trkpt>
      <trkpt lat="43.8156" lon="7.25481">
        <ele>609.79998779297</ele>
        <time>2020-02-22T10:49:35.000Z</time>
      </trkpt>
      <trkpt lat="43.81557" lon="7.2549">
        <ele>610</ele>
        <time>2020-02-22T10:49:37.000Z</time>
      </trkpt>
      <trkpt lat="43.81546" lon="7.25531">
        <ele>609.79998779297</ele>
        <time>2020-02-22T10:49:44.000Z</time>
      </trkpt>
      <trkpt lat="43.81539" lon="7.25555">
        <ele>609.59997558594</ele>
        <time>2020-02-22T10:49:48.000Z</time>
      </trkpt>
      <trkpt lat="43.81535" lon="7.25565">
        <ele>609.59997558594</ele>
        <time>2020-02-22T10:49:50.000Z</time>
      </trkpt>
      <trkpt lat="43.81532" lon="7.2557">
        <ele>609.40002441406</ele>
        <time>2020-02-22T10:49:51.000Z</time>
      </trkpt>
      <trkpt lat="43.81521" lon="7.25587">
        <ele>609.20001220703</ele>
        <time>2020-02-22T10:49:55.000Z</time>
      </trkpt>
      <trkpt lat="43.81512" lon="7.25599">
        <ele>609.59997558594</ele>
        <time>2020-02-22T10:49:58.000Z</time>
      </trkpt>
      <trkpt lat="43.81505" lon="7.25606">
        <ele>609.79998779297</ele>
        <time>2020-02-22T10:50:00.000Z</time>
      </trkpt>
      <trkpt lat="43.81493" lon="7.2562">
        <ele>609.59997558594</ele>
        <time>2020-02-22T10:50:04.000Z</time>
      </trkpt>
      <trkpt lat="43.8147" lon="7.25658">
        <ele>609</ele>
        <time>2020-02-22T10:50:12.000Z</time>
      </trkpt>
      <trkpt lat="43.81459" lon="7.2568">
        <ele>608.40002441406</ele>
        <time>2020-02-22T10:50:17.000Z</time>
      </trkpt>
      <trkpt lat="43.81457" lon="7.25685">
        <ele>608.40002441406</ele>
        <time>2020-02-22T10:50:18.000Z</time>
      </trkpt>
      <trkpt lat="43.81442" lon="7.2572">
        <ele>608.59997558594</ele>
        <time>2020-02-22T10:50:26.000Z</time>
      </trkpt>
      <trkpt lat="43.81429" lon="7.25744">
        <ele>609.20001220703</ele>
        <time>2020-02-22T10:50:33.000Z</time>
      </trkpt>
      <trkpt lat="43.81422" lon="7.25748">
        <ele>609.40002441406</ele>
        <time>2020-02-22T10:50:37.000Z</time>
      </trkpt>
      <trkpt lat="43.8142" lon="7.25749">
        <ele>609.59997558594</ele>
        <time>2020-02-22T10:50:38.000Z</time>
      </trkpt>
      <trkpt lat="43.81417" lon="7.25749">
        <ele>609.20001220703</ele>
        <time>2020-02-22T10:50:43.000Z</time>
      </trkpt>
      <trkpt lat="43.81417" lon="7.25748">
        <ele>609.59997558594</ele>
        <time>2020-02-22T10:50:52.000Z</time>
      </trkpt>
      <trkpt lat="43.81417" lon="7.25748">
        <ele>609.40002441406</ele>
        <time>2020-02-22T10:51:20.000Z</time>
      </trkpt>
      <trkpt lat="43.81417" lon="7.25748">
        <ele>609.20001220703</ele>
        <time>2020-02-22T10:51:50.000Z</time>
      </trkpt>
      <trkpt lat="43.81416" lon="7.2575">
        <ele>609.40002441406</ele>
        <time>2020-02-22T10:52:05.000Z</time>
      </trkpt>
      <trkpt lat="43.81418" lon="7.25752">
        <ele>609.20001220703</ele>
        <time>2020-02-22T10:52:16.000Z</time>
      </trkpt>
      <trkpt lat="43.81425" lon="7.25755">
        <ele>609.20001220703</ele>
        <time>2020-02-22T10:52:22.000Z</time>
      </trkpt>
      <trkpt lat="43.81427" lon="7.25768">
        <ele>608.79998779297</ele>
        <time>2020-02-22T10:52:27.000Z</time>
      </trkpt>
      <trkpt lat="43.81427" lon="7.2577">
        <ele>608.20001220703</ele>
        <time>2020-02-22T10:52:29.000Z</time>
      </trkpt>
      <trkpt lat="43.81426" lon="7.25773">
        <ele>607.20001220703</ele>
        <time>2020-02-22T10:52:32.000Z</time>
      </trkpt>
      <trkpt lat="43.81423" lon="7.25776">
        <ele>607</ele>
        <time>2020-02-22T10:52:33.000Z</time>
      </trkpt>
      <trkpt lat="43.81417" lon="7.25783">
        <ele>607</ele>
        <time>2020-02-22T10:52:35.000Z</time>
      </trkpt>
      <trkpt lat="43.81414" lon="7.25787">
        <ele>607</ele>
        <time>2020-02-22T10:52:36.000Z</time>
      </trkpt>
      <trkpt lat="43.81409" lon="7.25794">
        <ele>606</ele>
        <time>2020-02-22T10:52:38.000Z</time>
      </trkpt>
      <trkpt lat="43.81403" lon="7.25798">
        <ele>604.79998779297</ele>
        <time>2020-02-22T10:52:40.000Z</time>
      </trkpt>
      <trkpt lat="43.81398" lon="7.25799">
        <ele>603.40002441406</ele>
        <time>2020-02-22T10:52:41.000Z</time>
      </trkpt>
      <trkpt lat="43.81389" lon="7.258">
        <ele>601.20001220703</ele>
        <time>2020-02-22T10:52:43.000Z</time>
      </trkpt>
      <trkpt lat="43.81384" lon="7.25801">
        <ele>600.20001220703</ele>
        <time>2020-02-22T10:52:44.000Z</time>
      </trkpt>
      <trkpt lat="43.81379" lon="7.25802">
        <ele>598.59997558594</ele>
        <time>2020-02-22T10:52:45.000Z</time>
      </trkpt>
      <trkpt lat="43.81369" lon="7.25806">
        <ele>596.20001220703</ele>
        <time>2020-02-22T10:52:47.000Z</time>
      </trkpt>
      <trkpt lat="43.81364" lon="7.25807">
        <ele>594.40002441406</ele>
        <time>2020-02-22T10:52:48.000Z</time>
      </trkpt>
      <trkpt lat="43.8136" lon="7.25808">
        <ele>593.20001220703</ele>
        <time>2020-02-22T10:52:49.000Z</time>
      </trkpt>
      <trkpt lat="43.81354" lon="7.25808">
        <ele>591.40002441406</ele>
        <time>2020-02-22T10:52:50.000Z</time>
      </trkpt>
      <trkpt lat="43.81344" lon="7.2581">
        <ele>589.20001220703</ele>
        <time>2020-02-22T10:52:52.000Z</time>
      </trkpt>
      <trkpt lat="43.81335" lon="7.25811">
        <ele>587.59997558594</ele>
        <time>2020-02-22T10:52:54.000Z</time>
      </trkpt>
      <trkpt lat="43.81331" lon="7.25811">
        <ele>585.79998779297</ele>
        <time>2020-02-22T10:52:55.000Z</time>
      </trkpt>
      <trkpt lat="43.81317" lon="7.25814">
        <ele>584.40002441406</ele>
        <time>2020-02-22T10:52:58.000Z</time>
      </trkpt>
      <trkpt lat="43.81312" lon="7.25815">
        <ele>582.79998779297</ele>
        <time>2020-02-22T10:52:59.000Z</time>
      </trkpt>
      <trkpt lat="43.81308" lon="7.25817">
        <ele>581.59997558594</ele>
        <time>2020-02-22T10:53:00.000Z</time>
      </trkpt>
      <trkpt lat="43.81304" lon="7.25819">
        <ele>580.20001220703</ele>
        <time>2020-02-22T10:53:01.000Z</time>
      </trkpt>
      <trkpt lat="43.813" lon="7.2582">
        <ele>578.79998779297</ele>
        <time>2020-02-22T10:53:02.000Z</time>
      </trkpt>
      <trkpt lat="43.81299" lon="7.25824">
        <ele>577.40002441406</ele>
        <time>2020-02-22T10:53:03.000Z</time>
      </trkpt>
      <trkpt lat="43.81297" lon="7.25828">
        <ele>576.40002441406</ele>
        <time>2020-02-22T10:53:04.000Z</time>
      </trkpt>
      <trkpt lat="43.81294" lon="7.25829">
        <ele>575.20001220703</ele>
        <time>2020-02-22T10:53:05.000Z</time>
      </trkpt>
      <trkpt lat="43.8129" lon="7.2583">
        <ele>574.40002441406</ele>
        <time>2020-02-22T10:53:06.000Z</time>
      </trkpt>
      <trkpt lat="43.81286" lon="7.25831">
        <ele>573.20001220703</ele>
        <time>2020-02-22T10:53:07.000Z</time>
      </trkpt>
      <trkpt lat="43.81283" lon="7.25832">
        <ele>572.20001220703</ele>
        <time>2020-02-22T10:53:08.000Z</time>
      </trkpt>
      <trkpt lat="43.81276" lon="7.25836">
        <ele>570.20001220703</ele>
        <time>2020-02-22T10:53:10.000Z</time>
      </trkpt>
      <trkpt lat="43.81272" lon="7.2584">
        <ele>568.79998779297</ele>
        <time>2020-02-22T10:53:11.000Z</time>
      </trkpt>
      <trkpt lat="43.81269" lon="7.25845">
        <ele>567.59997558594</ele>
        <time>2020-02-22T10:53:12.000Z</time>
      </trkpt>
      <trkpt lat="43.81267" lon="7.25849">
        <ele>566.20001220703</ele>
        <time>2020-02-22T10:53:13.000Z</time>
      </trkpt>
      <trkpt lat="43.81265" lon="7.25854">
        <ele>564.40002441406</ele>
        <time>2020-02-22T10:53:14.000Z</time>
      </trkpt>
      <trkpt lat="43.81265" lon="7.25859">
        <ele>563</ele>
        <time>2020-02-22T10:53:15.000Z</time>
      </trkpt>
      <trkpt lat="43.81262" lon="7.25862">
        <ele>561.79998779297</ele>
        <time>2020-02-22T10:53:16.000Z</time>
      </trkpt>
      <trkpt lat="43.81258" lon="7.25863">
        <ele>560.79998779297</ele>
        <time>2020-02-22T10:53:17.000Z</time>
      </trkpt>
      <trkpt lat="43.81255" lon="7.25867">
        <ele>559.59997558594</ele>
        <time>2020-02-22T10:53:18.000Z</time>
      </trkpt>
      <trkpt lat="43.81252" lon="7.2587">
        <ele>558.59997558594</ele>
        <time>2020-02-22T10:53:19.000Z</time>
      </trkpt>
      <trkpt lat="43.81248" lon="7.25874">
        <ele>557.20001220703</ele>
        <time>2020-02-22T10:53:20.000Z</time>
      </trkpt>
      <trkpt lat="43.81244" lon="7.25878">
        <ele>556</ele>
        <time>2020-02-22T10:53:21.000Z</time>
      </trkpt>
      <trkpt lat="43.81237" lon="7.25885">
        <ele>554.20001220703</ele>
        <time>2020-02-22T10:53:23.000Z</time>
      </trkpt>
      <trkpt lat="43.81234" lon="7.25889">
        <ele>553.20001220703</ele>
        <time>2020-02-22T10:53:24.000Z</time>
      </trkpt>
      <trkpt lat="43.81229" lon="7.25893">
        <ele>551.40002441406</ele>
        <time>2020-02-22T10:53:25.000Z</time>
      </trkpt>
      <trkpt lat="43.81224" lon="7.25896">
        <ele>550</ele>
        <time>2020-02-22T10:53:26.000Z</time>
      </trkpt>
      <trkpt lat="43.8122" lon="7.259">
        <ele>548.59997558594</ele>
        <time>2020-02-22T10:53:27.000Z</time>
      </trkpt>
      <trkpt lat="43.81215" lon="7.25903">
        <ele>547.20001220703</ele>
        <time>2020-02-22T10:53:28.000Z</time>
      </trkpt>
      <trkpt lat="43.81212" lon="7.25907">
        <ele>545.79998779297</ele>
        <time>2020-02-22T10:53:29.000Z</time>
      </trkpt>
      <trkpt lat="43.81207" lon="7.25913">
        <ele>544.40002441406</ele>
        <time>2020-02-22T10:53:30.000Z</time>
      </trkpt>
      <trkpt lat="43.81204" lon="7.25918">
        <ele>543.20001220703</ele>
        <time>2020-02-22T10:53:31.000Z</time>
      </trkpt>
      <trkpt lat="43.81201" lon="7.25923">
        <ele>542</ele>
        <time>2020-02-22T10:53:32.000Z</time>
      </trkpt>
      <trkpt lat="43.81198" lon="7.25929">
        <ele>540.59997558594</ele>
        <time>2020-02-22T10:53:33.000Z</time>
      </trkpt>
      <trkpt lat="43.81195" lon="7.25934">
        <ele>539.40002441406</ele>
        <time>2020-02-22T10:53:34.000Z</time>
      </trkpt>
      <trkpt lat="43.81193" lon="7.25941">
        <ele>538.20001220703</ele>
        <time>2020-02-22T10:53:35.000Z</time>
      </trkpt>
      <trkpt lat="43.81191" lon="7.25947">
        <ele>536.40002441406</ele>
        <time>2020-02-22T10:53:36.000Z</time>
      </trkpt>
      <trkpt lat="43.81187" lon="7.25952">
        <ele>535.20001220703</ele>
        <time>2020-02-22T10:53:37.000Z</time>
      </trkpt>
      <trkpt lat="43.81184" lon="7.25956">
        <ele>533.79998779297</ele>
        <time>2020-02-22T10:53:38.000Z</time>
      </trkpt>
      <trkpt lat="43.8118" lon="7.25959">
        <ele>532.59997558594</ele>
        <time>2020-02-22T10:53:39.000Z</time>
      </trkpt>
      <trkpt lat="43.81175" lon="7.25961">
        <ele>531.40002441406</ele>
        <time>2020-02-22T10:53:40.000Z</time>
      </trkpt>
      <trkpt lat="43.81171" lon="7.25966">
        <ele>530.20001220703</ele>
        <time>2020-02-22T10:53:41.000Z</time>
      </trkpt>
      <trkpt lat="43.81167" lon="7.25971">
        <ele>529.20001220703</ele>
        <time>2020-02-22T10:53:42.000Z</time>
      </trkpt>
      <trkpt lat="43.81165" lon="7.25976">
        <ele>527.79998779297</ele>
        <time>2020-02-22T10:53:43.000Z</time>
      </trkpt>
      <trkpt lat="43.81157" lon="7.25982">
        <ele>525.20001220703</ele>
        <time>2020-02-22T10:53:45.000Z</time>
      </trkpt>
      <trkpt lat="43.81153" lon="7.25983">
        <ele>524</ele>
        <time>2020-02-22T10:53:46.000Z</time>
      </trkpt>
      <trkpt lat="43.81151" lon="7.25983">
        <ele>522.59997558594</ele>
        <time>2020-02-22T10:53:47.000Z</time>
      </trkpt>
      <trkpt lat="43.81149" lon="7.25983">
        <ele>521.20001220703</ele>
        <time>2020-02-22T10:53:48.000Z</time>
      </trkpt>
      <trkpt lat="43.81147" lon="7.25983">
        <ele>520.20001220703</ele>
        <time>2020-02-22T10:53:49.000Z</time>
      </trkpt>
      <trkpt lat="43.81148" lon="7.25983">
        <ele>519.20001220703</ele>
        <time>2020-02-22T10:53:50.000Z</time>
      </trkpt>
      <trkpt lat="43.81148" lon="7.25983">
        <ele>517.79998779297</ele>
        <time>2020-02-22T10:53:52.000Z</time>
      </trkpt>
      <trkpt lat="43.81146" lon="7.25983">
        <ele>516.59997558594</ele>
        <time>2020-02-22T10:53:57.000Z</time>
      </trkpt>
      <trkpt lat="43.81146" lon="7.25982">
        <ele>516.40002441406</ele>
        <time>2020-02-22T10:53:58.000Z</time>
      </trkpt>
      <trkpt lat="43.81144" lon="7.25981">
        <ele>515.59997558594</ele>
        <time>2020-02-22T10:54:03.000Z</time>
      </trkpt>
      <trkpt lat="43.81144" lon="7.2598">
        <ele>515.40002441406</ele>
        <time>2020-02-22T10:54:04.000Z</time>
      </trkpt>
      <trkpt lat="43.81137" lon="7.2598">
        <ele>515.59997558594</ele>
        <time>2020-02-22T10:54:11.000Z</time>
      </trkpt>
      <trkpt lat="43.81132" lon="7.2598">
        <ele>515.20001220703</ele>
        <time>2020-02-22T10:54:17.000Z</time>
      </trkpt>
      <trkpt lat="43.81114" lon="7.25983">
        <ele>515.40002441406</ele>
        <time>2020-02-22T10:54:24.000Z</time>
      </trkpt>
      <trkpt lat="43.81099" lon="7.25992">
        <ele>514.79998779297</ele>
        <time>2020-02-22T10:54:29.000Z</time>
      </trkpt>
      <trkpt lat="43.811" lon="7.25997">
        <ele>514.20001220703</ele>
        <time>2020-02-22T10:54:30.000Z</time>
      </trkpt>
      <trkpt lat="43.81101" lon="7.26014">
        <ele>513.20001220703</ele>
        <time>2020-02-22T10:54:33.000Z</time>
      </trkpt>
      <trkpt lat="43.81098" lon="7.2602">
        <ele>512.40002441406</ele>
        <time>2020-02-22T10:54:34.000Z</time>
      </trkpt>
      <trkpt lat="43.81094" lon="7.26027">
        <ele>511.39999389648</ele>
        <time>2020-02-22T10:54:35.000Z</time>
      </trkpt>
      <trkpt lat="43.8109" lon="7.26033">
        <ele>510.39999389648</ele>
        <time>2020-02-22T10:54:36.000Z</time>
      </trkpt>
      <trkpt lat="43.81086" lon="7.26039">
        <ele>509.20001220703</ele>
        <time>2020-02-22T10:54:37.000Z</time>
      </trkpt>
      <trkpt lat="43.81081" lon="7.26043">
        <ele>507.79998779297</ele>
        <time>2020-02-22T10:54:38.000Z</time>
      </trkpt>
      <trkpt lat="43.81076" lon="7.26046">
        <ele>506.79998779297</ele>
        <time>2020-02-22T10:54:39.000Z</time>
      </trkpt>
      <trkpt lat="43.81073" lon="7.2605">
        <ele>505.20001220703</ele>
        <time>2020-02-22T10:54:40.000Z</time>
      </trkpt>
      <trkpt lat="43.8107" lon="7.26059">
        <ele>503.20001220703</ele>
        <time>2020-02-22T10:54:41.000Z</time>
      </trkpt>
      <trkpt lat="43.81067" lon="7.26066">
        <ele>502.39999389648</ele>
        <time>2020-02-22T10:54:42.000Z</time>
      </trkpt>
      <trkpt lat="43.81063" lon="7.26072">
        <ele>501.39999389648</ele>
        <time>2020-02-22T10:54:43.000Z</time>
      </trkpt>
      <trkpt lat="43.81059" lon="7.26076">
        <ele>500.20001220703</ele>
        <time>2020-02-22T10:54:44.000Z</time>
      </trkpt>
      <trkpt lat="43.81053" lon="7.26082">
        <ele>499.39999389648</ele>
        <time>2020-02-22T10:54:46.000Z</time>
      </trkpt>
      <trkpt lat="43.81048" lon="7.26085">
        <ele>498.60000610352</ele>
        <time>2020-02-22T10:54:47.000Z</time>
      </trkpt>
      <trkpt lat="43.81034" lon="7.26097">
        <ele>498</ele>
        <time>2020-02-22T10:54:50.000Z</time>
      </trkpt>
      <trkpt lat="43.8103" lon="7.26103">
        <ele>497.60000610352</ele>
        <time>2020-02-22T10:54:51.000Z</time>
      </trkpt>
      <trkpt lat="43.81026" lon="7.26108">
        <ele>497.39999389648</ele>
        <time>2020-02-22T10:54:52.000Z</time>
      </trkpt>
      <trkpt lat="43.81013" lon="7.26121">
        <ele>497.60000610352</ele>
        <time>2020-02-22T10:54:55.000Z</time>
      </trkpt>
      <trkpt lat="43.80987" lon="7.26141">
        <ele>497.79998779297</ele>
        <time>2020-02-22T10:55:00.000Z</time>
      </trkpt>
      <trkpt lat="43.80982" lon="7.26146">
        <ele>497.39999389648</ele>
        <time>2020-02-22T10:55:01.000Z</time>
      </trkpt>
      <trkpt lat="43.80965" lon="7.26165">
        <ele>496.39999389648</ele>
        <time>2020-02-22T10:55:05.000Z</time>
      </trkpt>
      <trkpt lat="43.80954" lon="7.26172">
        <ele>496.20001220703</ele>
        <time>2020-02-22T10:55:07.000Z</time>
      </trkpt>
      <trkpt lat="43.80943" lon="7.26176">
        <ele>496.20001220703</ele>
        <time>2020-02-22T10:55:09.000Z</time>
      </trkpt>
      <trkpt lat="43.80926" lon="7.26183">
        <ele>496.39999389648</ele>
        <time>2020-02-22T10:55:12.000Z</time>
      </trkpt>
      <trkpt lat="43.80914" lon="7.26188">
        <ele>496.20001220703</ele>
        <time>2020-02-22T10:55:14.000Z</time>
      </trkpt>
      <trkpt lat="43.80896" lon="7.26189">
        <ele>495.39999389648</ele>
        <time>2020-02-22T10:55:17.000Z</time>
      </trkpt>
      <trkpt lat="43.8089" lon="7.26187">
        <ele>495.20001220703</ele>
        <time>2020-02-22T10:55:18.000Z</time>
      </trkpt>
      <trkpt lat="43.80884" lon="7.26183">
        <ele>494.79998779297</ele>
        <time>2020-02-22T10:55:19.000Z</time>
      </trkpt>
      <trkpt lat="43.80872" lon="7.26182">
        <ele>493.79998779297</ele>
        <time>2020-02-22T10:55:21.000Z</time>
      </trkpt>
      <trkpt lat="43.80863" lon="7.26182">
        <ele>492.60000610352</ele>
        <time>2020-02-22T10:55:23.000Z</time>
      </trkpt>
      <trkpt lat="43.80854" lon="7.26188">
        <ele>491.39999389648</ele>
        <time>2020-02-22T10:55:25.000Z</time>
      </trkpt>
      <trkpt lat="43.80848" lon="7.2619">
        <ele>490</ele>
        <time>2020-02-22T10:55:26.000Z</time>
      </trkpt>
      <trkpt lat="43.80844" lon="7.26192">
        <ele>488.39999389648</ele>
        <time>2020-02-22T10:55:27.000Z</time>
      </trkpt>
      <trkpt lat="43.8084" lon="7.26193">
        <ele>487.39999389648</ele>
        <time>2020-02-22T10:55:28.000Z</time>
      </trkpt>
      <trkpt lat="43.80836" lon="7.26191">
        <ele>485.79998779297</ele>
        <time>2020-02-22T10:55:29.000Z</time>
      </trkpt>
      <trkpt lat="43.80831" lon="7.26187">
        <ele>483.39999389648</ele>
        <time>2020-02-22T10:55:30.000Z</time>
      </trkpt>
      <trkpt lat="43.80823" lon="7.26181">
        <ele>481.20001220703</ele>
        <time>2020-02-22T10:55:32.000Z</time>
      </trkpt>
      <trkpt lat="43.80817" lon="7.26178">
        <ele>480</ele>
        <time>2020-02-22T10:55:34.000Z</time>
      </trkpt>
      <trkpt lat="43.80811" lon="7.26173">
        <ele>478.39999389648</ele>
        <time>2020-02-22T10:55:36.000Z</time>
      </trkpt>
      <trkpt lat="43.80805" lon="7.26166">
        <ele>476.20001220703</ele>
        <time>2020-02-22T10:55:38.000Z</time>
      </trkpt>
      <trkpt lat="43.80804" lon="7.26164">
        <ele>474.79998779297</ele>
        <time>2020-02-22T10:55:39.000Z</time>
      </trkpt>
      <trkpt lat="43.80803" lon="7.26162">
        <ele>473.60000610352</ele>
        <time>2020-02-22T10:55:40.000Z</time>
      </trkpt>
      <trkpt lat="43.80797" lon="7.26151">
        <ele>472.20001220703</ele>
        <time>2020-02-22T10:55:42.000Z</time>
      </trkpt>
      <trkpt lat="43.80796" lon="7.2615">
        <ele>470.79998779297</ele>
        <time>2020-02-22T10:55:43.000Z</time>
      </trkpt>
      <trkpt lat="43.8079" lon="7.26152">
        <ele>469.79998779297</ele>
        <time>2020-02-22T10:55:45.000Z</time>
      </trkpt>
      <trkpt lat="43.80785" lon="7.26161">
        <ele>467.60000610352</ele>
        <time>2020-02-22T10:55:47.000Z</time>
      </trkpt>
      <trkpt lat="43.80777" lon="7.26167">
        <ele>466.60000610352</ele>
        <time>2020-02-22T10:55:49.000Z</time>
      </trkpt>
      <trkpt lat="43.80774" lon="7.26171">
        <ele>466</ele>
        <time>2020-02-22T10:55:50.000Z</time>
      </trkpt>
      <trkpt lat="43.8077" lon="7.26174">
        <ele>464.79998779297</ele>
        <time>2020-02-22T10:55:51.000Z</time>
      </trkpt>
      <trkpt lat="43.80766" lon="7.26176">
        <ele>464</ele>
        <time>2020-02-22T10:55:52.000Z</time>
      </trkpt>
      <trkpt lat="43.80764" lon="7.26176">
        <ele>463.39999389648</ele>
        <time>2020-02-22T10:55:53.000Z</time>
      </trkpt>
      <trkpt lat="43.80759" lon="7.26176">
        <ele>461.39999389648</ele>
        <time>2020-02-22T10:55:55.000Z</time>
      </trkpt>
      <trkpt lat="43.80757" lon="7.2618">
        <ele>459.60000610352</ele>
        <time>2020-02-22T10:55:57.000Z</time>
      </trkpt>
      <trkpt lat="43.80757" lon="7.26186">
        <ele>459.20001220703</ele>
        <time>2020-02-22T10:55:58.000Z</time>
      </trkpt>
      <trkpt lat="43.80754" lon="7.26199">
        <ele>458.79998779297</ele>
        <time>2020-02-22T10:56:00.000Z</time>
      </trkpt>
      <trkpt lat="43.80751" lon="7.26206">
        <ele>458.39999389648</ele>
        <time>2020-02-22T10:56:01.000Z</time>
      </trkpt>
      <trkpt lat="43.80745" lon="7.26219">
        <ele>456.60000610352</ele>
        <time>2020-02-22T10:56:03.000Z</time>
      </trkpt>
      <trkpt lat="43.80741" lon="7.26225">
        <ele>456</ele>
        <time>2020-02-22T10:56:04.000Z</time>
      </trkpt>
      <trkpt lat="43.80739" lon="7.2623">
        <ele>455.20001220703</ele>
        <time>2020-02-22T10:56:05.000Z</time>
      </trkpt>
      <trkpt lat="43.80726" lon="7.26248">
        <ele>454.39999389648</ele>
        <time>2020-02-22T10:56:09.000Z</time>
      </trkpt>
      <trkpt lat="43.80719" lon="7.26247">
        <ele>454.39999389648</ele>
        <time>2020-02-22T10:56:12.000Z</time>
      </trkpt>
      <trkpt lat="43.80717" lon="7.26247">
        <ele>454.79998779297</ele>
        <time>2020-02-22T10:56:13.000Z</time>
      </trkpt>
      <trkpt lat="43.80707" lon="7.26252">
        <ele>456.60000610352</ele>
        <time>2020-02-22T10:56:16.000Z</time>
      </trkpt>
      <trkpt lat="43.80703" lon="7.26252">
        <ele>457</ele>
        <time>2020-02-22T10:56:17.000Z</time>
      </trkpt>
      <trkpt lat="43.80684" lon="7.26256">
        <ele>456.39999389648</ele>
        <time>2020-02-22T10:56:21.000Z</time>
      </trkpt>
      <trkpt lat="43.80678" lon="7.26259">
        <ele>456.39999389648</ele>
        <time>2020-02-22T10:56:22.000Z</time>
      </trkpt>
      <trkpt lat="43.80668" lon="7.26263">
        <ele>455.39999389648</ele>
        <time>2020-02-22T10:56:24.000Z</time>
      </trkpt>
      <trkpt lat="43.80664" lon="7.26262">
        <ele>455.20001220703</ele>
        <time>2020-02-22T10:56:25.000Z</time>
      </trkpt>
      <trkpt lat="43.8066" lon="7.2626">
        <ele>454.60000610352</ele>
        <time>2020-02-22T10:56:26.000Z</time>
      </trkpt>
      <trkpt lat="43.80658" lon="7.26262">
        <ele>454.20001220703</ele>
        <time>2020-02-22T10:56:27.000Z</time>
      </trkpt>
      <trkpt lat="43.80651" lon="7.26265">
        <ele>453</ele>
        <time>2020-02-22T10:56:29.000Z</time>
      </trkpt>
      <trkpt lat="43.80642" lon="7.26264">
        <ele>451.39999389648</ele>
        <time>2020-02-22T10:56:31.000Z</time>
      </trkpt>
      <trkpt lat="43.80639" lon="7.26264">
        <ele>450</ele>
        <time>2020-02-22T10:56:32.000Z</time>
      </trkpt>
      <trkpt lat="43.80635" lon="7.26264">
        <ele>448.20001220703</ele>
        <time>2020-02-22T10:56:33.000Z</time>
      </trkpt>
      <trkpt lat="43.80632" lon="7.26262">
        <ele>446.79998779297</ele>
        <time>2020-02-22T10:56:34.000Z</time>
      </trkpt>
      <trkpt lat="43.80631" lon="7.26259">
        <ele>445.60000610352</ele>
        <time>2020-02-22T10:56:35.000Z</time>
      </trkpt>
      <trkpt lat="43.80629" lon="7.26257">
        <ele>444.20001220703</ele>
        <time>2020-02-22T10:56:36.000Z</time>
      </trkpt>
      <trkpt lat="43.80626" lon="7.26256">
        <ele>443</ele>
        <time>2020-02-22T10:56:37.000Z</time>
      </trkpt>
      <trkpt lat="43.8062" lon="7.26254">
        <ele>441.60000610352</ele>
        <time>2020-02-22T10:56:39.000Z</time>
      </trkpt>
      <trkpt lat="43.80618" lon="7.26253">
        <ele>441.20001220703</ele>
        <time>2020-02-22T10:56:40.000Z</time>
      </trkpt>
      <trkpt lat="43.8061" lon="7.26244">
        <ele>442.60000610352</ele>
        <time>2020-02-22T10:56:44.000Z</time>
      </trkpt>
      <trkpt lat="43.80607" lon="7.2624">
        <ele>442.79998779297</ele>
        <time>2020-02-22T10:56:45.000Z</time>
      </trkpt>
      <trkpt lat="43.80602" lon="7.26221">
        <ele>442.39999389648</ele>
        <time>2020-02-22T10:56:49.000Z</time>
      </trkpt>
      <trkpt lat="43.80597" lon="7.2622">
        <ele>441</ele>
        <time>2020-02-22T10:56:51.000Z</time>
      </trkpt>
      <trkpt lat="43.80595" lon="7.26222">
        <ele>440.20001220703</ele>
        <time>2020-02-22T10:56:52.000Z</time>
      </trkpt>
      <trkpt lat="43.80593" lon="7.26223">
        <ele>439.39999389648</ele>
        <time>2020-02-22T10:56:53.000Z</time>
      </trkpt>
      <trkpt lat="43.80586" lon="7.26223">
        <ele>439</ele>
        <time>2020-02-22T10:56:56.000Z</time>
      </trkpt>
      <trkpt lat="43.80578" lon="7.26229">
        <ele>440.39999389648</ele>
        <time>2020-02-22T10:57:00.000Z</time>
      </trkpt>
      <trkpt lat="43.80576" lon="7.26228">
        <ele>440.60000610352</ele>
        <time>2020-02-22T10:57:01.000Z</time>
      </trkpt>
      <trkpt lat="43.80566" lon="7.26227">
        <ele>441.79998779297</ele>
        <time>2020-02-22T10:57:06.000Z</time>
      </trkpt>
      <trkpt lat="43.80563" lon="7.26226">
        <ele>442.20001220703</ele>
        <time>2020-02-22T10:57:07.000Z</time>
      </trkpt>
      <trkpt lat="43.80556" lon="7.2623">
        <ele>443</ele>
        <time>2020-02-22T10:57:10.000Z</time>
      </trkpt>
      <trkpt lat="43.80551" lon="7.26234">
        <ele>443</ele>
        <time>2020-02-22T10:57:12.000Z</time>
      </trkpt>
      <trkpt lat="43.80548" lon="7.26234">
        <ele>443</ele>
        <time>2020-02-22T10:57:13.000Z</time>
      </trkpt>
      <trkpt lat="43.80541" lon="7.26231">
        <ele>443.20001220703</ele>
        <time>2020-02-22T10:57:16.000Z</time>
      </trkpt>
      <trkpt lat="43.80531" lon="7.26227">
        <ele>444.20001220703</ele>
        <time>2020-02-22T10:57:21.000Z</time>
      </trkpt>
      <trkpt lat="43.80528" lon="7.26227">
        <ele>444.79998779297</ele>
        <time>2020-02-22T10:57:22.000Z</time>
      </trkpt>
      <trkpt lat="43.80522" lon="7.26226">
        <ele>445.39999389648</ele>
        <time>2020-02-22T10:57:24.000Z</time>
      </trkpt>
      <trkpt lat="43.80518" lon="7.26222">
        <ele>445.20001220703</ele>
        <time>2020-02-22T10:57:26.000Z</time>
      </trkpt>
      <trkpt lat="43.80514" lon="7.26217">
        <ele>444.20001220703</ele>
        <time>2020-02-22T10:57:29.000Z</time>
      </trkpt>
      <trkpt lat="43.80512" lon="7.26217">
        <ele>444.20001220703</ele>
        <time>2020-02-22T10:57:31.000Z</time>
      </trkpt>
      <trkpt lat="43.8051" lon="7.26217">
        <ele>444.20001220703</ele>
        <time>2020-02-22T10:57:32.000Z</time>
      </trkpt>
      <trkpt lat="43.80502" lon="7.26208">
        <ele>444</ele>
        <time>2020-02-22T10:57:35.000Z</time>
      </trkpt>
      <trkpt lat="43.80499" lon="7.26205">
        <ele>443.79998779297</ele>
        <time>2020-02-22T10:57:36.000Z</time>
      </trkpt>
      <trkpt lat="43.80493" lon="7.26195">
        <ele>443</ele>
        <time>2020-02-22T10:57:38.000Z</time>
      </trkpt>
      <trkpt lat="43.80492" lon="7.26188">
        <ele>442.20001220703</ele>
        <time>2020-02-22T10:57:40.000Z</time>
      </trkpt>
      <trkpt lat="43.8049" lon="7.26183">
        <ele>441.79998779297</ele>
        <time>2020-02-22T10:57:41.000Z</time>
      </trkpt>
      <trkpt lat="43.80487" lon="7.26176">
        <ele>440.60000610352</ele>
        <time>2020-02-22T10:57:43.000Z</time>
      </trkpt>
      <trkpt lat="43.80486" lon="7.26172">
        <ele>440.20001220703</ele>
        <time>2020-02-22T10:57:44.000Z</time>
      </trkpt>
      <trkpt lat="43.80484" lon="7.26169">
        <ele>439.39999389648</ele>
        <time>2020-02-22T10:57:46.000Z</time>
      </trkpt>
      <trkpt lat="43.80481" lon="7.26166">
        <ele>438.60000610352</ele>
        <time>2020-02-22T10:57:48.000Z</time>
      </trkpt>
      <trkpt lat="43.80479" lon="7.26164">
        <ele>438</ele>
        <time>2020-02-22T10:57:49.000Z</time>
      </trkpt>
      <trkpt lat="43.80474" lon="7.26159">
        <ele>436.20001220703</ele>
        <time>2020-02-22T10:57:51.000Z</time>
      </trkpt>
      <trkpt lat="43.80471" lon="7.26158">
        <ele>435.20001220703</ele>
        <time>2020-02-22T10:57:52.000Z</time>
      </trkpt>
      <trkpt lat="43.8047" lon="7.26158">
        <ele>433.79998779297</ele>
        <time>2020-02-22T10:57:53.000Z</time>
      </trkpt>
      <trkpt lat="43.80466" lon="7.26159">
        <ele>432.60000610352</ele>
        <time>2020-02-22T10:57:54.000Z</time>
      </trkpt>
      <trkpt lat="43.80463" lon="7.26163">
        <ele>431.60000610352</ele>
        <time>2020-02-22T10:57:55.000Z</time>
      </trkpt>
      <trkpt lat="43.80459" lon="7.26165">
        <ele>431</ele>
        <time>2020-02-22T10:57:56.000Z</time>
      </trkpt>
      <trkpt lat="43.80454" lon="7.26169">
        <ele>429.79998779297</ele>
        <time>2020-02-22T10:57:58.000Z</time>
      </trkpt>
      <trkpt lat="43.80448" lon="7.2617">
        <ele>429.20001220703</ele>
        <time>2020-02-22T10:58:00.000Z</time>
      </trkpt>
      <trkpt lat="43.8043" lon="7.2617">
        <ele>431</ele>
        <time>2020-02-22T10:58:06.000Z</time>
      </trkpt>
      <trkpt lat="43.80418" lon="7.26164">
        <ele>432.39999389648</ele>
        <time>2020-02-22T10:58:11.000Z</time>
      </trkpt>
      <trkpt lat="43.80406" lon="7.26157">
        <ele>433.60000610352</ele>
        <time>2020-02-22T10:58:16.000Z</time>
      </trkpt>
      <trkpt lat="43.804" lon="7.26154">
        <ele>434</ele>
        <time>2020-02-22T10:58:18.000Z</time>
      </trkpt>
      <trkpt lat="43.80396" lon="7.26152">
        <ele>434.60000610352</ele>
        <time>2020-02-22T10:58:20.000Z</time>
      </trkpt>
      <trkpt lat="43.80387" lon="7.26141">
        <ele>435.20001220703</ele>
        <time>2020-02-22T10:58:24.000Z</time>
      </trkpt>
      <trkpt lat="43.80384" lon="7.26136">
        <ele>436</ele>
        <time>2020-02-22T10:58:26.000Z</time>
      </trkpt>
      <trkpt lat="43.80381" lon="7.26132">
        <ele>437</ele>
        <time>2020-02-22T10:58:29.000Z</time>
      </trkpt>
      <trkpt lat="43.80378" lon="7.26131">
        <ele>438.20001220703</ele>
        <time>2020-02-22T10:58:32.000Z</time>
      </trkpt>
      <trkpt lat="43.80376" lon="7.2613">
        <ele>438.39999389648</ele>
        <time>2020-02-22T10:58:33.000Z</time>
      </trkpt>
      <trkpt lat="43.80371" lon="7.26118">
        <ele>438.79998779297</ele>
        <time>2020-02-22T10:58:38.000Z</time>
      </trkpt>
      <trkpt lat="43.8037" lon="7.26114">
        <ele>438.79998779297</ele>
        <time>2020-02-22T10:58:39.000Z</time>
      </trkpt>
      <trkpt lat="43.80369" lon="7.26111">
        <ele>439.60000610352</ele>
        <time>2020-02-22T10:58:41.000Z</time>
      </trkpt>
      <trkpt lat="43.80368" lon="7.2611">
        <ele>439.79998779297</ele>
        <time>2020-02-22T10:58:42.000Z</time>
      </trkpt>
      <trkpt lat="43.80366" lon="7.2611">
        <ele>440.20001220703</ele>
        <time>2020-02-22T10:58:43.000Z</time>
      </trkpt>
      <trkpt lat="43.80363" lon="7.26111">
        <ele>440.79998779297</ele>
        <time>2020-02-22T10:58:45.000Z</time>
      </trkpt>
      <trkpt lat="43.80358" lon="7.26112">
        <ele>441.20001220703</ele>
        <time>2020-02-22T10:58:47.000Z</time>
      </trkpt>
      <trkpt lat="43.80354" lon="7.2611">
        <ele>441.79998779297</ele>
        <time>2020-02-22T10:58:49.000Z</time>
      </trkpt>
      <trkpt lat="43.80342" lon="7.26104">
        <ele>442.39999389648</ele>
        <time>2020-02-22T10:58:54.000Z</time>
      </trkpt>
      <trkpt lat="43.80334" lon="7.26098">
        <ele>443</ele>
        <time>2020-02-22T10:58:57.000Z</time>
      </trkpt>
      <trkpt lat="43.80327" lon="7.26091">
        <ele>443.39999389648</ele>
        <time>2020-02-22T10:59:00.000Z</time>
      </trkpt>
      <trkpt lat="43.80322" lon="7.26082">
        <ele>443.39999389648</ele>
        <time>2020-02-22T10:59:03.000Z</time>
      </trkpt>
      <trkpt lat="43.80321" lon="7.26076">
        <ele>443.79998779297</ele>
        <time>2020-02-22T10:59:05.000Z</time>
      </trkpt>
      <trkpt lat="43.8032" lon="7.26074">
        <ele>444.20001220703</ele>
        <time>2020-02-22T10:59:06.000Z</time>
      </trkpt>
      <trkpt lat="43.80319" lon="7.26071">
        <ele>444.60000610352</ele>
        <time>2020-02-22T10:59:07.000Z</time>
      </trkpt>
      <trkpt lat="43.80316" lon="7.26066">
        <ele>445.20001220703</ele>
        <time>2020-02-22T10:59:09.000Z</time>
      </trkpt>
      <trkpt lat="43.80313" lon="7.26061">
        <ele>446.20001220703</ele>
        <time>2020-02-22T10:59:12.000Z</time>
      </trkpt>
      <trkpt lat="43.80311" lon="7.26061">
        <ele>446.39999389648</ele>
        <time>2020-02-22T10:59:13.000Z</time>
      </trkpt>
      <trkpt lat="43.80298" lon="7.26056">
        <ele>447.39999389648</ele>
        <time>2020-02-22T10:59:20.000Z</time>
      </trkpt>
      <trkpt lat="43.80297" lon="7.26056">
        <ele>448.39999389648</ele>
        <time>2020-02-22T10:59:25.000Z</time>
      </trkpt>
      <trkpt lat="43.80297" lon="7.26057">
        <ele>448.60000610352</ele>
        <time>2020-02-22T10:59:28.000Z</time>
      </trkpt>
      <trkpt lat="43.80296" lon="7.26057">
        <ele>448.60000610352</ele>
        <time>2020-02-22T10:59:54.000Z</time>
      </trkpt>
      <trkpt lat="43.80295" lon="7.26056">
        <ele>448.79998779297</ele>
        <time>2020-02-22T11:00:12.000Z</time>
      </trkpt>
      <trkpt lat="43.80282" lon="7.2605">
        <ele>448.79998779297</ele>
        <time>2020-02-22T11:00:19.000Z</time>
      </trkpt>
      <trkpt lat="43.80275" lon="7.26048">
        <ele>449.60000610352</ele>
        <time>2020-02-22T11:00:22.000Z</time>
      </trkpt>
      <trkpt lat="43.80269" lon="7.26044">
        <ele>450.60000610352</ele>
        <time>2020-02-22T11:00:25.000Z</time>
      </trkpt>
      <trkpt lat="43.80264" lon="7.26036">
        <ele>451.79998779297</ele>
        <time>2020-02-22T11:00:28.000Z</time>
      </trkpt>
      <trkpt lat="43.80264" lon="7.26034">
        <ele>452.20001220703</ele>
        <time>2020-02-22T11:00:29.000Z</time>
      </trkpt>
      <trkpt lat="43.80261" lon="7.26032">
        <ele>452.60000610352</ele>
        <time>2020-02-22T11:00:30.000Z</time>
      </trkpt>
      <trkpt lat="43.8026" lon="7.26031">
        <ele>453</ele>
        <time>2020-02-22T11:00:31.000Z</time>
      </trkpt>
      <trkpt lat="43.80257" lon="7.26027">
        <ele>453.60000610352</ele>
        <time>2020-02-22T11:00:33.000Z</time>
      </trkpt>
      <trkpt lat="43.80254" lon="7.26025">
        <ele>454.20001220703</ele>
        <time>2020-02-22T11:00:35.000Z</time>
      </trkpt>
      <trkpt lat="43.80247" lon="7.26018">
        <ele>454.60000610352</ele>
        <time>2020-02-22T11:00:39.000Z</time>
      </trkpt>
      <trkpt lat="43.80245" lon="7.26018">
        <ele>454.79998779297</ele>
        <time>2020-02-22T11:00:40.000Z</time>
      </trkpt>
      <trkpt lat="43.80242" lon="7.26017">
        <ele>455.39999389648</ele>
        <time>2020-02-22T11:00:42.000Z</time>
      </trkpt>
      <trkpt lat="43.80242" lon="7.26017">
        <ele>455.79998779297</ele>
        <time>2020-02-22T11:00:43.000Z</time>
      </trkpt>
      <trkpt lat="43.80241" lon="7.26017">
        <ele>456.60000610352</ele>
        <time>2020-02-22T11:00:45.000Z</time>
      </trkpt>
      <trkpt lat="43.80237" lon="7.26014">
        <ele>457.39999389648</ele>
        <time>2020-02-22T11:00:50.000Z</time>
      </trkpt>
      <trkpt lat="43.80235" lon="7.26012">
        <ele>457.60000610352</ele>
        <time>2020-02-22T11:00:52.000Z</time>
      </trkpt>
      <trkpt lat="43.80234" lon="7.26011">
        <ele>458.79998779297</ele>
        <time>2020-02-22T11:00:56.000Z</time>
      </trkpt>
      <trkpt lat="43.80231" lon="7.26009">
        <ele>459.60000610352</ele>
        <time>2020-02-22T11:01:02.000Z</time>
      </trkpt>
      <trkpt lat="43.8023" lon="7.26009">
        <ele>460</ele>
        <time>2020-02-22T11:01:03.000Z</time>
      </trkpt>
      <trkpt lat="43.80227" lon="7.26006">
        <ele>460.39999389648</ele>
        <time>2020-02-22T11:01:08.000Z</time>
      </trkpt>
      <trkpt lat="43.80222" lon="7.25996">
        <ele>461</ele>
        <time>2020-02-22T11:01:12.000Z</time>
      </trkpt>
      <trkpt lat="43.80219" lon="7.25991">
        <ele>461.60000610352</ele>
        <time>2020-02-22T11:01:14.000Z</time>
      </trkpt>
      <trkpt lat="43.80217" lon="7.2599">
        <ele>462</ele>
        <time>2020-02-22T11:01:15.000Z</time>
      </trkpt>
      <trkpt lat="43.80215" lon="7.2599">
        <ele>462.39999389648</ele>
        <time>2020-02-22T11:01:16.000Z</time>
      </trkpt>
      <trkpt lat="43.80212" lon="7.2599">
        <ele>463.20001220703</ele>
        <time>2020-02-22T11:01:17.000Z</time>
      </trkpt>
      <trkpt lat="43.80209" lon="7.25988">
        <ele>463.60000610352</ele>
        <time>2020-02-22T11:01:18.000Z</time>
      </trkpt>
      <trkpt lat="43.80207" lon="7.25984">
        <ele>464.39999389648</ele>
        <time>2020-02-22T11:01:20.000Z</time>
      </trkpt>
      <trkpt lat="43.80207" lon="7.25982">
        <ele>464.60000610352</ele>
        <time>2020-02-22T11:01:21.000Z</time>
      </trkpt>
      <trkpt lat="43.80204" lon="7.25978">
        <ele>465.39999389648</ele>
        <time>2020-02-22T11:01:23.000Z</time>
      </trkpt>
      <trkpt lat="43.80202" lon="7.25977">
        <ele>465.60000610352</ele>
        <time>2020-02-22T11:01:24.000Z</time>
      </trkpt>
      <trkpt lat="43.802" lon="7.25976">
        <ele>466.20001220703</ele>
        <time>2020-02-22T11:01:25.000Z</time>
      </trkpt>
      <trkpt lat="43.80198" lon="7.25974">
        <ele>466.79998779297</ele>
        <time>2020-02-22T11:01:26.000Z</time>
      </trkpt>
      <trkpt lat="43.80192" lon="7.25968">
        <ele>468.20001220703</ele>
        <time>2020-02-22T11:01:29.000Z</time>
      </trkpt>
      <trkpt lat="43.80188" lon="7.25962">
        <ele>469.39999389648</ele>
        <time>2020-02-22T11:01:32.000Z</time>
      </trkpt>
      <trkpt lat="43.80182" lon="7.25954">
        <ele>470.60000610352</ele>
        <time>2020-02-22T11:01:36.000Z</time>
      </trkpt>
      <trkpt lat="43.80177" lon="7.25951">
        <ele>470.79998779297</ele>
        <time>2020-02-22T11:01:38.000Z</time>
      </trkpt>
      <trkpt lat="43.80168" lon="7.25947">
        <ele>470.20001220703</ele>
        <time>2020-02-22T11:01:41.000Z</time>
      </trkpt>
      <trkpt lat="43.80162" lon="7.25944">
        <ele>469.79998779297</ele>
        <time>2020-02-22T11:01:43.000Z</time>
      </trkpt>
      <trkpt lat="43.80157" lon="7.25939">
        <ele>469.60000610352</ele>
        <time>2020-02-22T11:01:45.000Z</time>
      </trkpt>
      <trkpt lat="43.80153" lon="7.25934">
        <ele>470.20001220703</ele>
        <time>2020-02-22T11:01:48.000Z</time>
      </trkpt>
      <trkpt lat="43.80142" lon="7.25923">
        <ele>471.60000610352</ele>
        <time>2020-02-22T11:01:53.000Z</time>
      </trkpt>
      <trkpt lat="43.80138" lon="7.25918">
        <ele>471.60000610352</ele>
        <time>2020-02-22T11:01:55.000Z</time>
      </trkpt>
      <trkpt lat="43.80131" lon="7.25909">
        <ele>472.39999389648</ele>
        <time>2020-02-22T11:01:59.000Z</time>
      </trkpt>
      <trkpt lat="43.80129" lon="7.25905">
        <ele>473</ele>
        <time>2020-02-22T11:02:00.000Z</time>
      </trkpt>
      <trkpt lat="43.80126" lon="7.25897">
        <ele>473.79998779297</ele>
        <time>2020-02-22T11:02:03.000Z</time>
      </trkpt>
      <trkpt lat="43.80126" lon="7.25893">
        <ele>474.20001220703</ele>
        <time>2020-02-22T11:02:05.000Z</time>
      </trkpt>
      <trkpt lat="43.80124" lon="7.25886">
        <ele>475.60000610352</ele>
        <time>2020-02-22T11:02:08.000Z</time>
      </trkpt>
      <trkpt lat="43.80124" lon="7.25881">
        <ele>476.60000610352</ele>
        <time>2020-02-22T11:02:10.000Z</time>
      </trkpt>
      <trkpt lat="43.80123" lon="7.25879">
        <ele>477.20001220703</ele>
        <time>2020-02-22T11:02:11.000Z</time>
      </trkpt>
      <trkpt lat="43.80122" lon="7.25877">
        <ele>477.39999389648</ele>
        <time>2020-02-22T11:02:12.000Z</time>
      </trkpt>
      <trkpt lat="43.80122" lon="7.25872">
        <ele>478.20001220703</ele>
        <time>2020-02-22T11:02:14.000Z</time>
      </trkpt>
      <trkpt lat="43.8012" lon="7.25861">
        <ele>479.39999389648</ele>
        <time>2020-02-22T11:02:17.000Z</time>
      </trkpt>
      <trkpt lat="43.8012" lon="7.25858">
        <ele>479.60000610352</ele>
        <time>2020-02-22T11:02:18.000Z</time>
      </trkpt>
      <trkpt lat="43.8012" lon="7.25855">
        <ele>480.39999389648</ele>
        <time>2020-02-22T11:02:20.000Z</time>
      </trkpt>
      <trkpt lat="43.80118" lon="7.25849">
        <ele>481.39999389648</ele>
        <time>2020-02-22T11:02:22.000Z</time>
      </trkpt>
      <trkpt lat="43.80117" lon="7.25845">
        <ele>481.60000610352</ele>
        <time>2020-02-22T11:02:23.000Z</time>
      </trkpt>
      <trkpt lat="43.80114" lon="7.25839">
        <ele>481.60000610352</ele>
        <time>2020-02-22T11:02:25.000Z</time>
      </trkpt>
      <trkpt lat="43.80112" lon="7.25837">
        <ele>481.20001220703</ele>
        <time>2020-02-22T11:02:26.000Z</time>
      </trkpt>
      <trkpt lat="43.80111" lon="7.25837">
        <ele>480.20001220703</ele>
        <time>2020-02-22T11:02:27.000Z</time>
      </trkpt>
      <trkpt lat="43.80107" lon="7.25837">
        <ele>478.79998779297</ele>
        <time>2020-02-22T11:02:29.000Z</time>
      </trkpt>
      <trkpt lat="43.80106" lon="7.25836">
        <ele>477.39999389648</ele>
        <time>2020-02-22T11:02:30.000Z</time>
      </trkpt>
      <trkpt lat="43.80097" lon="7.25842">
        <ele>477.60000610352</ele>
        <time>2020-02-22T11:02:37.000Z</time>
      </trkpt>
      <trkpt lat="43.80093" lon="7.25848">
        <ele>478.60000610352</ele>
        <time>2020-02-22T11:02:40.000Z</time>
      </trkpt>
      <trkpt lat="43.80087" lon="7.25854">
        <ele>479.20001220703</ele>
        <time>2020-02-22T11:02:43.000Z</time>
      </trkpt>
      <trkpt lat="43.80079" lon="7.25867">
        <ele>479.60000610352</ele>
        <time>2020-02-22T11:02:47.000Z</time>
      </trkpt>
      <trkpt lat="43.80073" lon="7.25874">
        <ele>479.60000610352</ele>
        <time>2020-02-22T11:02:49.000Z</time>
      </trkpt>
      <trkpt lat="43.80062" lon="7.25884">
        <ele>479.60000610352</ele>
        <time>2020-02-22T11:02:52.000Z</time>
      </trkpt>
      <trkpt lat="43.80052" lon="7.2589">
        <ele>479.60000610352</ele>
        <time>2020-02-22T11:02:54.000Z</time>
      </trkpt>
      <trkpt lat="43.80036" lon="7.25896">
        <ele>478.79998779297</ele>
        <time>2020-02-22T11:02:57.000Z</time>
      </trkpt>
      <trkpt lat="43.8003" lon="7.25895">
        <ele>478.39999389648</ele>
        <time>2020-02-22T11:02:58.000Z</time>
      </trkpt>
      <trkpt lat="43.80025" lon="7.25892">
        <ele>477.79998779297</ele>
        <time>2020-02-22T11:02:59.000Z</time>
      </trkpt>
      <trkpt lat="43.80016" lon="7.25886">
        <ele>476.60000610352</ele>
        <time>2020-02-22T11:03:01.000Z</time>
      </trkpt>
      <trkpt lat="43.80008" lon="7.2588">
        <ele>474.79998779297</ele>
        <time>2020-02-22T11:03:03.000Z</time>
      </trkpt>
      <trkpt lat="43.80004" lon="7.25877">
        <ele>474.20001220703</ele>
        <time>2020-02-22T11:03:04.000Z</time>
      </trkpt>
      <trkpt lat="43.8" lon="7.2587">
        <ele>473</ele>
        <time>2020-02-22T11:03:05.000Z</time>
      </trkpt>
      <trkpt lat="43.79993" lon="7.25859">
        <ele>471</ele>
        <time>2020-02-22T11:03:07.000Z</time>
      </trkpt>
      <trkpt lat="43.79988" lon="7.25853">
        <ele>469.20001220703</ele>
        <time>2020-02-22T11:03:09.000Z</time>
      </trkpt>
      <trkpt lat="43.79986" lon="7.25853">
        <ele>468.39999389648</ele>
        <time>2020-02-22T11:03:10.000Z</time>
      </trkpt>
      <trkpt lat="43.79985" lon="7.25853">
        <ele>467.39999389648</ele>
        <time>2020-02-22T11:03:11.000Z</time>
      </trkpt>
      <trkpt lat="43.79984" lon="7.25853">
        <ele>466.39999389648</ele>
        <time>2020-02-22T11:03:13.000Z</time>
      </trkpt>
      <trkpt lat="43.79983" lon="7.25853">
        <ele>466.39999389648</ele>
        <time>2020-02-22T11:03:15.000Z</time>
      </trkpt>
      <trkpt lat="43.79985" lon="7.25854">
        <ele>467.20001220703</ele>
        <time>2020-02-22T11:03:20.000Z</time>
      </trkpt>
      <trkpt lat="43.79985" lon="7.25856">
        <ele>467.39999389648</ele>
        <time>2020-02-22T11:03:26.000Z</time>
      </trkpt>
      <trkpt lat="43.79979" lon="7.25863">
        <ele>468.20001220703</ele>
        <time>2020-02-22T11:03:32.000Z</time>
      </trkpt>
      <trkpt lat="43.79978" lon="7.25865">
        <ele>468.60000610352</ele>
        <time>2020-02-22T11:03:33.000Z</time>
      </trkpt>
      <trkpt lat="43.79976" lon="7.25868">
        <ele>469</ele>
        <time>2020-02-22T11:03:35.000Z</time>
      </trkpt>
      <trkpt lat="43.79976" lon="7.25874">
        <ele>469.79998779297</ele>
        <time>2020-02-22T11:03:37.000Z</time>
      </trkpt>
      <trkpt lat="43.79975" lon="7.25876">
        <ele>470.20001220703</ele>
        <time>2020-02-22T11:03:38.000Z</time>
      </trkpt>
      <trkpt lat="43.79974" lon="7.25882">
        <ele>470.79998779297</ele>
        <time>2020-02-22T11:03:40.000Z</time>
      </trkpt>
      <trkpt lat="43.79972" lon="7.25892">
        <ele>472</ele>
        <time>2020-02-22T11:03:43.000Z</time>
      </trkpt>
      <trkpt lat="43.79972" lon="7.25895">
        <ele>472</ele>
        <time>2020-02-22T11:03:44.000Z</time>
      </trkpt>
      <trkpt lat="43.7997" lon="7.25905">
        <ele>473</ele>
        <time>2020-02-22T11:03:47.000Z</time>
      </trkpt>
      <trkpt lat="43.79968" lon="7.25914">
        <ele>474.39999389648</ele>
        <time>2020-02-22T11:03:50.000Z</time>
      </trkpt>
      <trkpt lat="43.79968" lon="7.25917">
        <ele>475</ele>
        <time>2020-02-22T11:03:51.000Z</time>
      </trkpt>
      <trkpt lat="43.79968" lon="7.25922">
        <ele>476</ele>
        <time>2020-02-22T11:03:53.000Z</time>
      </trkpt>
      <trkpt lat="43.79967" lon="7.25927">
        <ele>476.79998779297</ele>
        <time>2020-02-22T11:03:55.000Z</time>
      </trkpt>
      <trkpt lat="43.79967" lon="7.25929">
        <ele>477.39999389648</ele>
        <time>2020-02-22T11:03:56.000Z</time>
      </trkpt>
      <trkpt lat="43.79968" lon="7.25937">
        <ele>478.39999389648</ele>
        <time>2020-02-22T11:03:59.000Z</time>
      </trkpt>
      <trkpt lat="43.79967" lon="7.25941">
        <ele>479</ele>
        <time>2020-02-22T11:04:00.000Z</time>
      </trkpt>
      <trkpt lat="43.79968" lon="7.25947">
        <ele>479.60000610352</ele>
        <time>2020-02-22T11:04:02.000Z</time>
      </trkpt>
      <trkpt lat="43.79967" lon="7.25959">
        <ele>480.79998779297</ele>
        <time>2020-02-22T11:04:06.000Z</time>
      </trkpt>
      <trkpt lat="43.79966" lon="7.25963">
        <ele>481</ele>
        <time>2020-02-22T11:04:07.000Z</time>
      </trkpt>
      <trkpt lat="43.79959" lon="7.25972">
        <ele>481.79998779297</ele>
        <time>2020-02-22T11:04:13.000Z</time>
      </trkpt>
      <trkpt lat="43.79958" lon="7.2597">
        <ele>482.20001220703</ele>
        <time>2020-02-22T11:04:14.000Z</time>
      </trkpt>
      <trkpt lat="43.79958" lon="7.25965">
        <ele>482.79998779297</ele>
        <time>2020-02-22T11:04:16.000Z</time>
      </trkpt>
      <trkpt lat="43.79958" lon="7.25962">
        <ele>483.60000610352</ele>
        <time>2020-02-22T11:04:18.000Z</time>
      </trkpt>
      <trkpt lat="43.79958" lon="7.25957">
        <ele>484.20001220703</ele>
        <time>2020-02-22T11:04:20.000Z</time>
      </trkpt>
      <trkpt lat="43.79953" lon="7.25947">
        <ele>485.20001220703</ele>
        <time>2020-02-22T11:04:24.000Z</time>
      </trkpt>
      <trkpt lat="43.79951" lon="7.25937">
        <ele>486.39999389648</ele>
        <time>2020-02-22T11:04:28.000Z</time>
      </trkpt>
      <trkpt lat="43.79952" lon="7.25935">
        <ele>486.60000610352</ele>
        <time>2020-02-22T11:04:29.000Z</time>
      </trkpt>
      <trkpt lat="43.7995" lon="7.25932">
        <ele>486.79998779297</ele>
        <time>2020-02-22T11:04:30.000Z</time>
      </trkpt>
      <trkpt lat="43.7995" lon="7.25927">
        <ele>487.39999389648</ele>
        <time>2020-02-22T11:04:32.000Z</time>
      </trkpt>
      <trkpt lat="43.79948" lon="7.25924">
        <ele>487.60000610352</ele>
        <time>2020-02-22T11:04:33.000Z</time>
      </trkpt>
      <trkpt lat="43.79945" lon="7.25913">
        <ele>488.60000610352</ele>
        <time>2020-02-22T11:04:37.000Z</time>
      </trkpt>
      <trkpt lat="43.79945" lon="7.25911">
        <ele>488.79998779297</ele>
        <time>2020-02-22T11:04:38.000Z</time>
      </trkpt>
      <trkpt lat="43.79944" lon="7.25894">
        <ele>489.39999389648</ele>
        <time>2020-02-22T11:04:43.000Z</time>
      </trkpt>
      <trkpt lat="43.79944" lon="7.25891">
        <ele>489.60000610352</ele>
        <time>2020-02-22T11:04:44.000Z</time>
      </trkpt>
      <trkpt lat="43.79945" lon="7.25885">
        <ele>490</ele>
        <time>2020-02-22T11:04:46.000Z</time>
      </trkpt>
      <trkpt lat="43.79945" lon="7.25882">
        <ele>490.20001220703</ele>
        <time>2020-02-22T11:04:47.000Z</time>
      </trkpt>
      <trkpt lat="43.79944" lon="7.25872">
        <ele>490.79998779297</ele>
        <time>2020-02-22T11:04:50.000Z</time>
      </trkpt>
      <trkpt lat="43.79944" lon="7.25862">
        <ele>491.39999389648</ele>
        <time>2020-02-22T11:04:53.000Z</time>
      </trkpt>
      <trkpt lat="43.79944" lon="7.25856">
        <ele>491.79998779297</ele>
        <time>2020-02-22T11:04:55.000Z</time>
      </trkpt>
      <trkpt lat="43.79944" lon="7.25844">
        <ele>493</ele>
        <time>2020-02-22T11:04:59.000Z</time>
      </trkpt>
      <trkpt lat="43.79943" lon="7.25841">
        <ele>493.39999389648</ele>
        <time>2020-02-22T11:05:00.000Z</time>
      </trkpt>
      <trkpt lat="43.79938" lon="7.25837">
        <ele>494.39999389648</ele>
        <time>2020-02-22T11:05:03.000Z</time>
      </trkpt>
      <trkpt lat="43.79936" lon="7.25839">
        <ele>494.79998779297</ele>
        <time>2020-02-22T11:05:04.000Z</time>
      </trkpt>
      <trkpt lat="43.79934" lon="7.2585">
        <ele>495.39999389648</ele>
        <time>2020-02-22T11:05:07.000Z</time>
      </trkpt>
      <trkpt lat="43.79933" lon="7.25854">
        <ele>495.39999389648</ele>
        <time>2020-02-22T11:05:08.000Z</time>
      </trkpt>
      <trkpt lat="43.7993" lon="7.25869">
        <ele>495.39999389648</ele>
        <time>2020-02-22T11:05:12.000Z</time>
      </trkpt>
      <trkpt lat="43.79923" lon="7.25889">
        <ele>495.79998779297</ele>
        <time>2020-02-22T11:05:17.000Z</time>
      </trkpt>
      <trkpt lat="43.79919" lon="7.25889">
        <ele>495.79998779297</ele>
        <time>2020-02-22T11:05:18.000Z</time>
      </trkpt>
      <trkpt lat="43.79912" lon="7.25885">
        <ele>496.20001220703</ele>
        <time>2020-02-22T11:05:22.000Z</time>
      </trkpt>
      <trkpt lat="43.79908" lon="7.2588">
        <ele>496.60000610352</ele>
        <time>2020-02-22T11:05:24.000Z</time>
      </trkpt>
      <trkpt lat="43.79905" lon="7.25876">
        <ele>497</ele>
        <time>2020-02-22T11:05:26.000Z</time>
      </trkpt>
      <trkpt lat="43.79905" lon="7.25873">
        <ele>497.20001220703</ele>
        <time>2020-02-22T11:05:27.000Z</time>
      </trkpt>
      <trkpt lat="43.79904" lon="7.25869">
        <ele>497.79998779297</ele>
        <time>2020-02-22T11:05:29.000Z</time>
      </trkpt>
      <trkpt lat="43.79901" lon="7.25861">
        <ele>499</ele>
        <time>2020-02-22T11:05:32.000Z</time>
      </trkpt>
      <trkpt lat="43.79898" lon="7.25854">
        <ele>500</ele>
        <time>2020-02-22T11:05:36.000Z</time>
      </trkpt>
      <trkpt lat="43.79896" lon="7.25849">
        <ele>500.39999389648</ele>
        <time>2020-02-22T11:05:38.000Z</time>
      </trkpt>
      <trkpt lat="43.79894" lon="7.25845">
        <ele>501.20001220703</ele>
        <time>2020-02-22T11:05:40.000Z</time>
      </trkpt>
      <trkpt lat="43.79891" lon="7.25839">
        <ele>502.39999389648</ele>
        <time>2020-02-22T11:05:43.000Z</time>
      </trkpt>
      <trkpt lat="43.7989" lon="7.25838">
        <ele>503</ele>
        <time>2020-02-22T11:05:44.000Z</time>
      </trkpt>
      <trkpt lat="43.79888" lon="7.25833">
        <ele>503.79998779297</ele>
        <time>2020-02-22T11:05:46.000Z</time>
      </trkpt>
      <trkpt lat="43.79886" lon="7.25829">
        <ele>505.20001220703</ele>
        <time>2020-02-22T11:05:49.000Z</time>
      </trkpt>
      <trkpt lat="43.79886" lon="7.25827">
        <ele>505.60000610352</ele>
        <time>2020-02-22T11:05:50.000Z</time>
      </trkpt>
      <trkpt lat="43.79885" lon="7.25823">
        <ele>506.39999389648</ele>
        <time>2020-02-22T11:05:52.000Z</time>
      </trkpt>
      <trkpt lat="43.79883" lon="7.25822">
        <ele>507</ele>
        <time>2020-02-22T11:05:53.000Z</time>
      </trkpt>
      <trkpt lat="43.79882" lon="7.25818">
        <ele>507.60000610352</ele>
        <time>2020-02-22T11:05:55.000Z</time>
      </trkpt>
      <trkpt lat="43.7988" lon="7.25811">
        <ele>508.79998779297</ele>
        <time>2020-02-22T11:05:58.000Z</time>
      </trkpt>
      <trkpt lat="43.7988" lon="7.25804">
        <ele>510</ele>
        <time>2020-02-22T11:06:01.000Z</time>
      </trkpt>
      <trkpt lat="43.79882" lon="7.25803">
        <ele>510.39999389648</ele>
        <time>2020-02-22T11:06:02.000Z</time>
      </trkpt>
      <trkpt lat="43.79883" lon="7.25802">
        <ele>511.20001220703</ele>
        <time>2020-02-22T11:06:03.000Z</time>
      </trkpt>
      <trkpt lat="43.79884" lon="7.258">
        <ele>512.20001220703</ele>
        <time>2020-02-22T11:06:05.000Z</time>
      </trkpt>
      <trkpt lat="43.79885" lon="7.25798">
        <ele>512.59997558594</ele>
        <time>2020-02-22T11:06:06.000Z</time>
      </trkpt>
      <trkpt lat="43.79891" lon="7.25791">
        <ele>513.40002441406</ele>
        <time>2020-02-22T11:06:12.000Z</time>
      </trkpt>
      <trkpt lat="43.79892" lon="7.2579">
        <ele>513.40002441406</ele>
        <time>2020-02-22T11:06:13.000Z</time>
      </trkpt>
      <trkpt lat="43.79894" lon="7.25791">
        <ele>513.79998779297</ele>
        <time>2020-02-22T11:06:16.000Z</time>
      </trkpt>
      <trkpt lat="43.79894" lon="7.2579">
        <ele>514</ele>
        <time>2020-02-22T11:06:18.000Z</time>
      </trkpt>
      <trkpt lat="43.79893" lon="7.2579">
        <ele>513.79998779297</ele>
        <time>2020-02-22T11:06:26.000Z</time>
      </trkpt>
      <trkpt lat="43.79892" lon="7.25789">
        <ele>514.20001220703</ele>
        <time>2020-02-22T11:06:32.000Z</time>
      </trkpt>
      <trkpt lat="43.79892" lon="7.25788">
        <ele>514.40002441406</ele>
        <time>2020-02-22T11:06:33.000Z</time>
      </trkpt>
      <trkpt lat="43.79895" lon="7.25789">
        <ele>514</ele>
        <time>2020-02-22T11:06:38.000Z</time>
      </trkpt>
      <trkpt lat="43.79894" lon="7.25788">
        <ele>514</ele>
        <time>2020-02-22T11:06:41.000Z</time>
      </trkpt>
      <trkpt lat="43.79894" lon="7.25788">
        <ele>513.40002441406</ele>
        <time>2020-02-22T11:06:46.000Z</time>
      </trkpt>
      <trkpt lat="43.79893" lon="7.25788">
        <ele>513.40002441406</ele>
        <time>2020-02-22T11:06:47.000Z</time>
      </trkpt>
      <trkpt lat="43.79893" lon="7.25788">
        <ele>514.40002441406</ele>
        <time>2020-02-22T11:06:55.000Z</time>
      </trkpt>
      <trkpt lat="43.79894" lon="7.25786">
        <ele>513.79998779297</ele>
        <time>2020-02-22T11:07:04.000Z</time>
      </trkpt>
      <trkpt lat="43.79895" lon="7.25786">
        <ele>514</ele>
        <time>2020-02-22T11:07:13.000Z</time>
      </trkpt>
      <trkpt lat="43.79896" lon="7.25786">
        <ele>514</ele>
        <time>2020-02-22T11:07:23.000Z</time>
      </trkpt>
      <trkpt lat="43.79897" lon="7.25786">
        <ele>514.20001220703</ele>
        <time>2020-02-22T11:07:30.000Z</time>
      </trkpt>
      <trkpt lat="43.79897" lon="7.25787">
        <ele>513.79998779297</ele>
        <time>2020-02-22T11:07:41.000Z</time>
      </trkpt>
      <trkpt lat="43.79897" lon="7.25787">
        <ele>514</ele>
        <time>2020-02-22T11:07:48.000Z</time>
      </trkpt>
      <trkpt lat="43.79896" lon="7.25788">
        <ele>513.79998779297</ele>
        <time>2020-02-22T11:08:01.000Z</time>
      </trkpt>
      <trkpt lat="43.79896" lon="7.25788">
        <ele>514</ele>
        <time>2020-02-22T11:08:09.000Z</time>
      </trkpt>
      <trkpt lat="43.79897" lon="7.25785">
        <ele>514.40002441406</ele>
        <time>2020-02-22T11:08:14.000Z</time>
      </trkpt>
      <trkpt lat="43.79903" lon="7.25775">
        <ele>514.40002441406</ele>
        <time>2020-02-22T11:08:19.000Z</time>
      </trkpt>
      <trkpt lat="43.79912" lon="7.25761">
        <ele>515.40002441406</ele>
        <time>2020-02-22T11:08:26.000Z</time>
      </trkpt>
      <trkpt lat="43.79919" lon="7.25749">
        <ele>516.20001220703</ele>
        <time>2020-02-22T11:08:31.000Z</time>
      </trkpt>
      <trkpt lat="43.7992" lon="7.25747">
        <ele>516.40002441406</ele>
        <time>2020-02-22T11:08:32.000Z</time>
      </trkpt>
      <trkpt lat="43.79925" lon="7.25734">
        <ele>517.59997558594</ele>
        <time>2020-02-22T11:08:37.000Z</time>
      </trkpt>
      <trkpt lat="43.79927" lon="7.25728">
        <ele>518</ele>
        <time>2020-02-22T11:08:39.000Z</time>
      </trkpt>
      <trkpt lat="43.7993" lon="7.25715">
        <ele>518.79998779297</ele>
        <time>2020-02-22T11:08:44.000Z</time>
      </trkpt>
      <trkpt lat="43.79931" lon="7.25701">
        <ele>519.79998779297</ele>
        <time>2020-02-22T11:08:49.000Z</time>
      </trkpt>
      <trkpt lat="43.79936" lon="7.25684">
        <ele>521</ele>
        <time>2020-02-22T11:08:55.000Z</time>
      </trkpt>
      <trkpt lat="43.79938" lon="7.25676">
        <ele>521.59997558594</ele>
        <time>2020-02-22T11:08:58.000Z</time>
      </trkpt>
      <trkpt lat="43.7994" lon="7.2567">
        <ele>522.20001220703</ele>
        <time>2020-02-22T11:09:00.000Z</time>
      </trkpt>
      <trkpt lat="43.79945" lon="7.25656">
        <ele>523.20001220703</ele>
        <time>2020-02-22T11:09:05.000Z</time>
      </trkpt>
      <trkpt lat="43.79946" lon="7.25653">
        <ele>523.40002441406</ele>
        <time>2020-02-22T11:09:06.000Z</time>
      </trkpt>
      <trkpt lat="43.79951" lon="7.25643">
        <ele>524.20001220703</ele>
        <time>2020-02-22T11:09:10.000Z</time>
      </trkpt>
      <trkpt lat="43.79953" lon="7.25637">
        <ele>524.79998779297</ele>
        <time>2020-02-22T11:09:12.000Z</time>
      </trkpt>
      <trkpt lat="43.79957" lon="7.25629">
        <ele>525.40002441406</ele>
        <time>2020-02-22T11:09:15.000Z</time>
      </trkpt>
      <trkpt lat="43.79961" lon="7.25622">
        <ele>525.79998779297</ele>
        <time>2020-02-22T11:09:18.000Z</time>
      </trkpt>
      <trkpt lat="43.79966" lon="7.25612">
        <ele>526.59997558594</ele>
        <time>2020-02-22T11:09:22.000Z</time>
      </trkpt>
      <trkpt lat="43.79969" lon="7.25605">
        <ele>527.40002441406</ele>
        <time>2020-02-22T11:09:25.000Z</time>
      </trkpt>
      <trkpt lat="43.79971" lon="7.25603">
        <ele>527.59997558594</ele>
        <time>2020-02-22T11:09:26.000Z</time>
      </trkpt>
      <trkpt lat="43.79979" lon="7.25591">
        <ele>528.79998779297</ele>
        <time>2020-02-22T11:09:31.000Z</time>
      </trkpt>
      <trkpt lat="43.79981" lon="7.25586">
        <ele>529</ele>
        <time>2020-02-22T11:09:33.000Z</time>
      </trkpt>
      <trkpt lat="43.79987" lon="7.25578">
        <ele>529.79998779297</ele>
        <time>2020-02-22T11:09:37.000Z</time>
      </trkpt>
      <trkpt lat="43.7999" lon="7.25572">
        <ele>530.40002441406</ele>
        <time>2020-02-22T11:09:40.000Z</time>
      </trkpt>
      <trkpt lat="43.79994" lon="7.25565">
        <ele>531</ele>
        <time>2020-02-22T11:09:43.000Z</time>
      </trkpt>
      <trkpt lat="43.80002" lon="7.25553">
        <ele>532</ele>
        <time>2020-02-22T11:09:48.000Z</time>
      </trkpt>
      <trkpt lat="43.80004" lon="7.25551">
        <ele>532</ele>
        <time>2020-02-22T11:09:49.000Z</time>
      </trkpt>
      <trkpt lat="43.80009" lon="7.25548">
        <ele>532.40002441406</ele>
        <time>2020-02-22T11:09:51.000Z</time>
      </trkpt>
      <trkpt lat="43.80015" lon="7.25551">
        <ele>532.40002441406</ele>
        <time>2020-02-22T11:09:53.000Z</time>
      </trkpt>
      <trkpt lat="43.80019" lon="7.25567">
        <ele>532.79998779297</ele>
        <time>2020-02-22T11:09:58.000Z</time>
      </trkpt>
      <trkpt lat="43.8002" lon="7.25582">
        <ele>533</ele>
        <time>2020-02-22T11:10:02.000Z</time>
      </trkpt>
      <trkpt lat="43.80025" lon="7.25602">
        <ele>533.59997558594</ele>
        <time>2020-02-22T11:10:08.000Z</time>
      </trkpt>
      <trkpt lat="43.8003" lon="7.25611">
        <ele>534.20001220703</ele>
        <time>2020-02-22T11:10:11.000Z</time>
      </trkpt>
      <trkpt lat="43.80038" lon="7.25623">
        <ele>535.40002441406</ele>
        <time>2020-02-22T11:10:16.000Z</time>
      </trkpt>
      <trkpt lat="43.80048" lon="7.25639">
        <ele>536.40002441406</ele>
        <time>2020-02-22T11:10:22.000Z</time>
      </trkpt>
      <trkpt lat="43.80058" lon="7.25656">
        <ele>537.40002441406</ele>
        <time>2020-02-22T11:10:28.000Z</time>
      </trkpt>
      <trkpt lat="43.80061" lon="7.25658">
        <ele>537.59997558594</ele>
        <time>2020-02-22T11:10:29.000Z</time>
      </trkpt>
      <trkpt lat="43.8007" lon="7.25666">
        <ele>538.40002441406</ele>
        <time>2020-02-22T11:10:33.000Z</time>
      </trkpt>
      <trkpt lat="43.80078" lon="7.25667">
        <ele>538.79998779297</ele>
        <time>2020-02-22T11:10:36.000Z</time>
      </trkpt>
      <trkpt lat="43.80085" lon="7.25665">
        <ele>539.40002441406</ele>
        <time>2020-02-22T11:10:39.000Z</time>
      </trkpt>
      <trkpt lat="43.80091" lon="7.25662">
        <ele>539.79998779297</ele>
        <time>2020-02-22T11:10:41.000Z</time>
      </trkpt>
      <trkpt lat="43.80104" lon="7.25655">
        <ele>540.40002441406</ele>
        <time>2020-02-22T11:10:46.000Z</time>
      </trkpt>
      <trkpt lat="43.80112" lon="7.2565">
        <ele>541</ele>
        <time>2020-02-22T11:10:49.000Z</time>
      </trkpt>
      <trkpt lat="43.80125" lon="7.25641">
        <ele>542</ele>
        <time>2020-02-22T11:10:54.000Z</time>
      </trkpt>
      <trkpt lat="43.80127" lon="7.2564">
        <ele>542.20001220703</ele>
        <time>2020-02-22T11:10:55.000Z</time>
      </trkpt>
      <trkpt lat="43.80145" lon="7.25627">
        <ele>543</ele>
        <time>2020-02-22T11:11:02.000Z</time>
      </trkpt>
      <trkpt lat="43.80147" lon="7.25625">
        <ele>543.20001220703</ele>
        <time>2020-02-22T11:11:03.000Z</time>
      </trkpt>
      <trkpt lat="43.80156" lon="7.25615">
        <ele>544.40002441406</ele>
        <time>2020-02-22T11:11:07.000Z</time>
      </trkpt>
      <trkpt lat="43.8016" lon="7.2561">
        <ele>544.79998779297</ele>
        <time>2020-02-22T11:11:09.000Z</time>
      </trkpt>
      <trkpt lat="43.80169" lon="7.25603">
        <ele>545.40002441406</ele>
        <time>2020-02-22T11:11:13.000Z</time>
      </trkpt>
      <trkpt lat="43.80174" lon="7.256">
        <ele>546.20001220703</ele>
        <time>2020-02-22T11:11:15.000Z</time>
      </trkpt>
      <trkpt lat="43.80177" lon="7.25596">
        <ele>546.79998779297</ele>
        <time>2020-02-22T11:11:17.000Z</time>
      </trkpt>
      <trkpt lat="43.80188" lon="7.2558">
        <ele>547.79998779297</ele>
        <time>2020-02-22T11:11:23.000Z</time>
      </trkpt>
      <trkpt lat="43.8019" lon="7.25577">
        <ele>547.79998779297</ele>
        <time>2020-02-22T11:11:24.000Z</time>
      </trkpt>
      <trkpt lat="43.80202" lon="7.25566">
        <ele>548</ele>
        <time>2020-02-22T11:11:28.000Z</time>
      </trkpt>
      <trkpt lat="43.80222" lon="7.25554">
        <ele>548.20001220703</ele>
        <time>2020-02-22T11:11:35.000Z</time>
      </trkpt>
      <trkpt lat="43.80244" lon="7.25549">
        <ele>548.20001220703</ele>
        <time>2020-02-22T11:11:41.000Z</time>
      </trkpt>
      <trkpt lat="43.80248" lon="7.2555">
        <ele>548.20001220703</ele>
        <time>2020-02-22T11:11:42.000Z</time>
      </trkpt>
      <trkpt lat="43.80257" lon="7.25561">
        <ele>547.79998779297</ele>
        <time>2020-02-22T11:11:45.000Z</time>
      </trkpt>
      <trkpt lat="43.80258" lon="7.25573">
        <ele>548</ele>
        <time>2020-02-22T11:11:48.000Z</time>
      </trkpt>
      <trkpt lat="43.80258" lon="7.2558">
        <ele>548.59997558594</ele>
        <time>2020-02-22T11:11:50.000Z</time>
      </trkpt>
      <trkpt lat="43.80258" lon="7.25584">
        <ele>549</ele>
        <time>2020-02-22T11:11:51.000Z</time>
      </trkpt>
      <trkpt lat="43.80259" lon="7.25602">
        <ele>550</ele>
        <time>2020-02-22T11:11:56.000Z</time>
      </trkpt>
      <trkpt lat="43.8026" lon="7.25613">
        <ele>550.79998779297</ele>
        <time>2020-02-22T11:12:00.000Z</time>
      </trkpt>
      <trkpt lat="43.80261" lon="7.25617">
        <ele>551.20001220703</ele>
        <time>2020-02-22T11:12:03.000Z</time>
      </trkpt>
      <trkpt lat="43.80262" lon="7.2562">
        <ele>551.40002441406</ele>
        <time>2020-02-22T11:12:05.000Z</time>
      </trkpt>
      <trkpt lat="43.80264" lon="7.25636">
        <ele>552</ele>
        <time>2020-02-22T11:12:13.000Z</time>
      </trkpt>
      <trkpt lat="43.80264" lon="7.25649">
        <ele>552.20001220703</ele>
        <time>2020-02-22T11:12:16.000Z</time>
      </trkpt>
      <trkpt lat="43.80263" lon="7.25656">
        <ele>552.40002441406</ele>
        <time>2020-02-22T11:12:18.000Z</time>
      </trkpt>
      <trkpt lat="43.80261" lon="7.25671">
        <ele>553.20001220703</ele>
        <time>2020-02-22T11:12:23.000Z</time>
      </trkpt>
      <trkpt lat="43.80261" lon="7.25678">
        <ele>553.79998779297</ele>
        <time>2020-02-22T11:12:25.000Z</time>
      </trkpt>
      <trkpt lat="43.80264" lon="7.25703">
        <ele>554.40002441406</ele>
        <time>2020-02-22T11:12:33.000Z</time>
      </trkpt>
      <trkpt lat="43.80264" lon="7.25706">
        <ele>554.59997558594</ele>
        <time>2020-02-22T11:12:34.000Z</time>
      </trkpt>
      <trkpt lat="43.80269" lon="7.25724">
        <ele>555.40002441406</ele>
        <time>2020-02-22T11:12:40.000Z</time>
      </trkpt>
      <trkpt lat="43.8027" lon="7.25727">
        <ele>555.59997558594</ele>
        <time>2020-02-22T11:12:41.000Z</time>
      </trkpt>
      <trkpt lat="43.80283" lon="7.25738">
        <ele>556.40002441406</ele>
        <time>2020-02-22T11:12:47.000Z</time>
      </trkpt>
      <trkpt lat="43.80288" lon="7.25741">
        <ele>556.59997558594</ele>
        <time>2020-02-22T11:12:49.000Z</time>
      </trkpt>
      <trkpt lat="43.80303" lon="7.25741">
        <ele>557.20001220703</ele>
        <time>2020-02-22T11:12:54.000Z</time>
      </trkpt>
      <trkpt lat="43.80308" lon="7.25742">
        <ele>557.79998779297</ele>
        <time>2020-02-22T11:12:56.000Z</time>
      </trkpt>
      <trkpt lat="43.80322" lon="7.25741">
        <ele>559</ele>
        <time>2020-02-22T11:13:01.000Z</time>
      </trkpt>
      <trkpt lat="43.80341" lon="7.25736">
        <ele>560.20001220703</ele>
        <time>2020-02-22T11:13:08.000Z</time>
      </trkpt>
      <trkpt lat="43.80344" lon="7.25736">
        <ele>560.40002441406</ele>
        <time>2020-02-22T11:13:09.000Z</time>
      </trkpt>
      <trkpt lat="43.80355" lon="7.25734">
        <ele>561.20001220703</ele>
        <time>2020-02-22T11:13:13.000Z</time>
      </trkpt>
      <trkpt lat="43.80364" lon="7.25735">
        <ele>561.79998779297</ele>
        <time>2020-02-22T11:13:16.000Z</time>
      </trkpt>
      <trkpt lat="43.8037" lon="7.25735">
        <ele>562.20001220703</ele>
        <time>2020-02-22T11:13:18.000Z</time>
      </trkpt>
      <trkpt lat="43.80384" lon="7.25739">
        <ele>562.79998779297</ele>
        <time>2020-02-22T11:13:23.000Z</time>
      </trkpt>
      <trkpt lat="43.80392" lon="7.25741">
        <ele>563.40002441406</ele>
        <time>2020-02-22T11:13:26.000Z</time>
      </trkpt>
      <trkpt lat="43.80401" lon="7.25742">
        <ele>564.40002441406</ele>
        <time>2020-02-22T11:13:30.000Z</time>
      </trkpt>
      <trkpt lat="43.80414" lon="7.25741">
        <ele>565.59997558594</ele>
        <time>2020-02-22T11:13:35.000Z</time>
      </trkpt>
      <trkpt lat="43.8042" lon="7.2574">
        <ele>566.20001220703</ele>
        <time>2020-02-22T11:13:37.000Z</time>
      </trkpt>
      <trkpt lat="43.80428" lon="7.25739">
        <ele>566.79998779297</ele>
        <time>2020-02-22T11:13:40.000Z</time>
      </trkpt>
      <trkpt lat="43.80448" lon="7.25739">
        <ele>567.59997558594</ele>
        <time>2020-02-22T11:13:46.000Z</time>
      </trkpt>
      <trkpt lat="43.80467" lon="7.25741">
        <ele>567.79998779297</ele>
        <time>2020-02-22T11:13:52.000Z</time>
      </trkpt>
      <trkpt lat="43.80473" lon="7.2574">
        <ele>568</ele>
        <time>2020-02-22T11:13:54.000Z</time>
      </trkpt>
      <trkpt lat="43.80486" lon="7.25736">
        <ele>569</ele>
        <time>2020-02-22T11:13:58.000Z</time>
      </trkpt>
      <trkpt lat="43.80497" lon="7.25728">
        <ele>569.40002441406</ele>
        <time>2020-02-22T11:14:02.000Z</time>
      </trkpt>
      <trkpt lat="43.80503" lon="7.25719">
        <ele>570</ele>
        <time>2020-02-22T11:14:05.000Z</time>
      </trkpt>
      <trkpt lat="43.8051" lon="7.25709">
        <ele>570.59997558594</ele>
        <time>2020-02-22T11:14:08.000Z</time>
      </trkpt>
      <trkpt lat="43.80516" lon="7.257">
        <ele>571.20001220703</ele>
        <time>2020-02-22T11:14:11.000Z</time>
      </trkpt>
      <trkpt lat="43.80526" lon="7.25683">
        <ele>572</ele>
        <time>2020-02-22T11:14:16.000Z</time>
      </trkpt>
      <trkpt lat="43.80527" lon="7.25678">
        <ele>572.20001220703</ele>
        <time>2020-02-22T11:14:17.000Z</time>
      </trkpt>
      <trkpt lat="43.80529" lon="7.25663">
        <ele>572.20001220703</ele>
        <time>2020-02-22T11:14:20.000Z</time>
      </trkpt>
      <trkpt lat="43.80536" lon="7.25627">
        <ele>572.59997558594</ele>
        <time>2020-02-22T11:14:27.000Z</time>
      </trkpt>
      <trkpt lat="43.80538" lon="7.25622">
        <ele>572.59997558594</ele>
        <time>2020-02-22T11:14:28.000Z</time>
      </trkpt>
      <trkpt lat="43.80545" lon="7.256">
        <ele>572.59997558594</ele>
        <time>2020-02-22T11:14:33.000Z</time>
      </trkpt>
      <trkpt lat="43.80547" lon="7.25589">
        <ele>573</ele>
        <time>2020-02-22T11:14:35.000Z</time>
      </trkpt>
      <trkpt lat="43.80547" lon="7.25583">
        <ele>573.40002441406</ele>
        <time>2020-02-22T11:14:36.000Z</time>
      </trkpt>
      <trkpt lat="43.80547" lon="7.25566">
        <ele>573.40002441406</ele>
        <time>2020-02-22T11:14:39.000Z</time>
      </trkpt>
      <trkpt lat="43.80549" lon="7.25549">
        <ele>573.59997558594</ele>
        <time>2020-02-22T11:14:42.000Z</time>
      </trkpt>
      <trkpt lat="43.80553" lon="7.25538">
        <ele>573.79998779297</ele>
        <time>2020-02-22T11:14:44.000Z</time>
      </trkpt>
      <trkpt lat="43.80557" lon="7.25536">
        <ele>573.79998779297</ele>
        <time>2020-02-22T11:14:45.000Z</time>
      </trkpt>
      <trkpt lat="43.80561" lon="7.25534">
        <ele>573.79998779297</ele>
        <time>2020-02-22T11:14:46.000Z</time>
      </trkpt>
      <trkpt lat="43.80565" lon="7.25537">
        <ele>573.79998779297</ele>
        <time>2020-02-22T11:14:47.000Z</time>
      </trkpt>
      <trkpt lat="43.80572" lon="7.2554">
        <ele>573.79998779297</ele>
        <time>2020-02-22T11:14:49.000Z</time>
      </trkpt>
      <trkpt lat="43.80579" lon="7.25544">
        <ele>574.40002441406</ele>
        <time>2020-02-22T11:14:51.000Z</time>
      </trkpt>
      <trkpt lat="43.80603" lon="7.25552">
        <ele>574.59997558594</ele>
        <time>2020-02-22T11:14:57.000Z</time>
      </trkpt>
      <trkpt lat="43.80607" lon="7.25555">
        <ele>574.79998779297</ele>
        <time>2020-02-22T11:14:58.000Z</time>
      </trkpt>
      <trkpt lat="43.80613" lon="7.25563">
        <ele>575</ele>
        <time>2020-02-22T11:15:00.000Z</time>
      </trkpt>
      <trkpt lat="43.80616" lon="7.25567">
        <ele>575</ele>
        <time>2020-02-22T11:15:01.000Z</time>
      </trkpt>
      <trkpt lat="43.80627" lon="7.25586">
        <ele>575.59997558594</ele>
        <time>2020-02-22T11:15:05.000Z</time>
      </trkpt>
      <trkpt lat="43.80637" lon="7.25596">
        <ele>575.79998779297</ele>
        <time>2020-02-22T11:15:08.000Z</time>
      </trkpt>
      <trkpt lat="43.80652" lon="7.25599">
        <ele>576.40002441406</ele>
        <time>2020-02-22T11:15:12.000Z</time>
      </trkpt>
      <trkpt lat="43.80656" lon="7.25598">
        <ele>576.59997558594</ele>
        <time>2020-02-22T11:15:13.000Z</time>
      </trkpt>
      <trkpt lat="43.8066" lon="7.25597">
        <ele>576.59997558594</ele>
        <time>2020-02-22T11:15:14.000Z</time>
      </trkpt>
      <trkpt lat="43.80664" lon="7.25599">
        <ele>576.79998779297</ele>
        <time>2020-02-22T11:15:15.000Z</time>
      </trkpt>
      <trkpt lat="43.80672" lon="7.25605">
        <ele>576.59997558594</ele>
        <time>2020-02-22T11:15:17.000Z</time>
      </trkpt>
      <trkpt lat="43.80677" lon="7.25612">
        <ele>576.59997558594</ele>
        <time>2020-02-22T11:15:19.000Z</time>
      </trkpt>
      <trkpt lat="43.8068" lon="7.25617">
        <ele>576.79998779297</ele>
        <time>2020-02-22T11:15:20.000Z</time>
      </trkpt>
      <trkpt lat="43.80684" lon="7.25627">
        <ele>577</ele>
        <time>2020-02-22T11:15:22.000Z</time>
      </trkpt>
      <trkpt lat="43.80693" lon="7.2564">
        <ele>577.20001220703</ele>
        <time>2020-02-22T11:15:25.000Z</time>
      </trkpt>
      <trkpt lat="43.80704" lon="7.25649">
        <ele>577.20001220703</ele>
        <time>2020-02-22T11:15:28.000Z</time>
      </trkpt>
      <trkpt lat="43.80723" lon="7.2566">
        <ele>577.59997558594</ele>
        <time>2020-02-22T11:15:33.000Z</time>
      </trkpt>
      <trkpt lat="43.80734" lon="7.25663">
        <ele>578</ele>
        <time>2020-02-22T11:15:36.000Z</time>
      </trkpt>
      <trkpt lat="43.80746" lon="7.25664">
        <ele>578.59997558594</ele>
        <time>2020-02-22T11:15:39.000Z</time>
      </trkpt>
      <trkpt lat="43.80763" lon="7.25664">
        <ele>579.40002441406</ele>
        <time>2020-02-22T11:15:43.000Z</time>
      </trkpt>
      <trkpt lat="43.80775" lon="7.2566">
        <ele>579.59997558594</ele>
        <time>2020-02-22T11:15:46.000Z</time>
      </trkpt>
      <trkpt lat="43.80792" lon="7.25656">
        <ele>580</ele>
        <time>2020-02-22T11:15:50.000Z</time>
      </trkpt>
      <trkpt lat="43.80807" lon="7.25663">
        <ele>580.59997558594</ele>
        <time>2020-02-22T11:15:54.000Z</time>
      </trkpt>
      <trkpt lat="43.80811" lon="7.25664">
        <ele>580.79998779297</ele>
        <time>2020-02-22T11:15:55.000Z</time>
      </trkpt>
      <trkpt lat="43.80819" lon="7.25664">
        <ele>581.20001220703</ele>
        <time>2020-02-22T11:15:57.000Z</time>
      </trkpt>
      <trkpt lat="43.80827" lon="7.25659">
        <ele>581.59997558594</ele>
        <time>2020-02-22T11:15:59.000Z</time>
      </trkpt>
      <trkpt lat="43.80837" lon="7.25648">
        <ele>581.79998779297</ele>
        <time>2020-02-22T11:16:02.000Z</time>
      </trkpt>
      <trkpt lat="43.80841" lon="7.25644">
        <ele>582</ele>
        <time>2020-02-22T11:16:03.000Z</time>
      </trkpt>
      <trkpt lat="43.80844" lon="7.2564">
        <ele>582.20001220703</ele>
        <time>2020-02-22T11:16:04.000Z</time>
      </trkpt>
      <trkpt lat="43.80847" lon="7.25635">
        <ele>582.40002441406</ele>
        <time>2020-02-22T11:16:05.000Z</time>
      </trkpt>
      <trkpt lat="43.80854" lon="7.25626">
        <ele>582.59997558594</ele>
        <time>2020-02-22T11:16:07.000Z</time>
      </trkpt>
      <trkpt lat="43.8086" lon="7.25617">
        <ele>582.79998779297</ele>
        <time>2020-02-22T11:16:09.000Z</time>
      </trkpt>
      <trkpt lat="43.80863" lon="7.25612">
        <ele>582.79998779297</ele>
        <time>2020-02-22T11:16:10.000Z</time>
      </trkpt>
      <trkpt lat="43.8088" lon="7.25586">
        <ele>583.59997558594</ele>
        <time>2020-02-22T11:16:16.000Z</time>
      </trkpt>
      <trkpt lat="43.80882" lon="7.25581">
        <ele>584</ele>
        <time>2020-02-22T11:16:17.000Z</time>
      </trkpt>
      <trkpt lat="43.80888" lon="7.25565">
        <ele>584.59997558594</ele>
        <time>2020-02-22T11:16:20.000Z</time>
      </trkpt>
      <trkpt lat="43.80889" lon="7.25559">
        <ele>584.59997558594</ele>
        <time>2020-02-22T11:16:21.000Z</time>
      </trkpt>
      <trkpt lat="43.8089" lon="7.25543">
        <ele>585</ele>
        <time>2020-02-22T11:16:24.000Z</time>
      </trkpt>
      <trkpt lat="43.8089" lon="7.25538">
        <ele>585.40002441406</ele>
        <time>2020-02-22T11:16:25.000Z</time>
      </trkpt>
      <trkpt lat="43.8089" lon="7.25526">
        <ele>585.79998779297</ele>
        <time>2020-02-22T11:16:27.000Z</time>
      </trkpt>
      <trkpt lat="43.8089" lon="7.25521">
        <ele>586</ele>
        <time>2020-02-22T11:16:28.000Z</time>
      </trkpt>
      <trkpt lat="43.80889" lon="7.25515">
        <ele>586.20001220703</ele>
        <time>2020-02-22T11:16:29.000Z</time>
      </trkpt>
      <trkpt lat="43.80888" lon="7.25482">
        <ele>586.79998779297</ele>
        <time>2020-02-22T11:16:35.000Z</time>
      </trkpt>
      <trkpt lat="43.80893" lon="7.25467">
        <ele>587</ele>
        <time>2020-02-22T11:16:38.000Z</time>
      </trkpt>
      <trkpt lat="43.80896" lon="7.25462">
        <ele>587</ele>
        <time>2020-02-22T11:16:39.000Z</time>
      </trkpt>
      <trkpt lat="43.80899" lon="7.25459">
        <ele>587</ele>
        <time>2020-02-22T11:16:40.000Z</time>
      </trkpt>
      <trkpt lat="43.80907" lon="7.2546">
        <ele>587</ele>
        <time>2020-02-22T11:16:42.000Z</time>
      </trkpt>
      <trkpt lat="43.80914" lon="7.25465">
        <ele>587</ele>
        <time>2020-02-22T11:16:44.000Z</time>
      </trkpt>
      <trkpt lat="43.80924" lon="7.25473">
        <ele>587.20001220703</ele>
        <time>2020-02-22T11:16:47.000Z</time>
      </trkpt>
      <trkpt lat="43.80928" lon="7.25475">
        <ele>587.40002441406</ele>
        <time>2020-02-22T11:16:48.000Z</time>
      </trkpt>
      <trkpt lat="43.80953" lon="7.25495">
        <ele>587.79998779297</ele>
        <time>2020-02-22T11:16:55.000Z</time>
      </trkpt>
      <trkpt lat="43.80974" lon="7.25504">
        <ele>588.20001220703</ele>
        <time>2020-02-22T11:17:00.000Z</time>
      </trkpt>
      <trkpt lat="43.80977" lon="7.25507">
        <ele>588.20001220703</ele>
        <time>2020-02-22T11:17:01.000Z</time>
      </trkpt>
      <trkpt lat="43.8098" lon="7.25512">
        <ele>588.40002441406</ele>
        <time>2020-02-22T11:17:02.000Z</time>
      </trkpt>
      <trkpt lat="43.80985" lon="7.25521">
        <ele>588.79998779297</ele>
        <time>2020-02-22T11:17:04.000Z</time>
      </trkpt>
      <trkpt lat="43.80988" lon="7.25531">
        <ele>589</ele>
        <time>2020-02-22T11:17:06.000Z</time>
      </trkpt>
      <trkpt lat="43.80998" lon="7.2555">
        <ele>589.59997558594</ele>
        <time>2020-02-22T11:17:10.000Z</time>
      </trkpt>
      <trkpt lat="43.8101" lon="7.25569">
        <ele>589.79998779297</ele>
        <time>2020-02-22T11:17:14.000Z</time>
      </trkpt>
      <trkpt lat="43.81027" lon="7.25595">
        <ele>590.20001220703</ele>
        <time>2020-02-22T11:17:20.000Z</time>
      </trkpt>
      <trkpt lat="43.81033" lon="7.25602">
        <ele>590.59997558594</ele>
        <time>2020-02-22T11:17:22.000Z</time>
      </trkpt>
      <trkpt lat="43.81037" lon="7.25603">
        <ele>590.79998779297</ele>
        <time>2020-02-22T11:17:23.000Z</time>
      </trkpt>
      <trkpt lat="43.81045" lon="7.25605">
        <ele>591.20001220703</ele>
        <time>2020-02-22T11:17:25.000Z</time>
      </trkpt>
      <trkpt lat="43.81049" lon="7.25606">
        <ele>591.20001220703</ele>
        <time>2020-02-22T11:17:26.000Z</time>
      </trkpt>
      <trkpt lat="43.81057" lon="7.25604">
        <ele>591.79998779297</ele>
        <time>2020-02-22T11:17:28.000Z</time>
      </trkpt>
      <trkpt lat="43.8106" lon="7.25603">
        <ele>592</ele>
        <time>2020-02-22T11:17:29.000Z</time>
      </trkpt>
      <trkpt lat="43.81068" lon="7.25599">
        <ele>592.59997558594</ele>
        <time>2020-02-22T11:17:31.000Z</time>
      </trkpt>
      <trkpt lat="43.81072" lon="7.25596">
        <ele>592.79998779297</ele>
        <time>2020-02-22T11:17:32.000Z</time>
      </trkpt>
      <trkpt lat="43.81095" lon="7.2558">
        <ele>593.20001220703</ele>
        <time>2020-02-22T11:17:38.000Z</time>
      </trkpt>
      <trkpt lat="43.81125" lon="7.25563">
        <ele>593.40002441406</ele>
        <time>2020-02-22T11:17:45.000Z</time>
      </trkpt>
      <trkpt lat="43.81129" lon="7.25564">
        <ele>593.40002441406</ele>
        <time>2020-02-22T11:17:46.000Z</time>
      </trkpt>
      <trkpt lat="43.81139" lon="7.25575">
        <ele>593.59997558594</ele>
        <time>2020-02-22T11:17:49.000Z</time>
      </trkpt>
      <trkpt lat="43.8114" lon="7.2558">
        <ele>593.79998779297</ele>
        <time>2020-02-22T11:17:50.000Z</time>
      </trkpt>
      <trkpt lat="43.81147" lon="7.25599">
        <ele>594.20001220703</ele>
        <time>2020-02-22T11:17:54.000Z</time>
      </trkpt>
      <trkpt lat="43.81154" lon="7.25618">
        <ele>594.59997558594</ele>
        <time>2020-02-22T11:18:00.000Z</time>
      </trkpt>
      <trkpt lat="43.81156" lon="7.25623">
        <ele>595</ele>
        <time>2020-02-22T11:18:02.000Z</time>
      </trkpt>
      <trkpt lat="43.8116" lon="7.25633">
        <ele>595.59997558594</ele>
        <time>2020-02-22T11:18:07.000Z</time>
      </trkpt>
      <trkpt lat="43.81168" lon="7.25641">
        <ele>596</ele>
        <time>2020-02-22T11:18:13.000Z</time>
      </trkpt>
      <trkpt lat="43.81181" lon="7.25645">
        <ele>596.40002441406</ele>
        <time>2020-02-22T11:18:20.000Z</time>
      </trkpt>
      <trkpt lat="43.81196" lon="7.25642">
        <ele>596.79998779297</ele>
        <time>2020-02-22T11:18:27.000Z</time>
      </trkpt>
      <trkpt lat="43.81204" lon="7.25636">
        <ele>597</ele>
        <time>2020-02-22T11:18:31.000Z</time>
      </trkpt>
      <trkpt lat="43.81213" lon="7.25631">
        <ele>597</ele>
        <time>2020-02-22T11:18:35.000Z</time>
      </trkpt>
      <trkpt lat="43.81232" lon="7.2561">
        <ele>597.79998779297</ele>
        <time>2020-02-22T11:18:45.000Z</time>
      </trkpt>
      <trkpt lat="43.81239" lon="7.256">
        <ele>598</ele>
        <time>2020-02-22T11:18:49.000Z</time>
      </trkpt>
      <trkpt lat="43.81244" lon="7.25592">
        <ele>598.40002441406</ele>
        <time>2020-02-22T11:18:52.000Z</time>
      </trkpt>
      <trkpt lat="43.81254" lon="7.25576">
        <ele>599</ele>
        <time>2020-02-22T11:18:58.000Z</time>
      </trkpt>
      <trkpt lat="43.81256" lon="7.25574">
        <ele>599</ele>
        <time>2020-02-22T11:18:59.000Z</time>
      </trkpt>
      <trkpt lat="43.81268" lon="7.25558">
        <ele>599</ele>
        <time>2020-02-22T11:19:04.000Z</time>
      </trkpt>
      <trkpt lat="43.81284" lon="7.25548">
        <ele>599.40002441406</ele>
        <time>2020-02-22T11:19:10.000Z</time>
      </trkpt>
      <trkpt lat="43.81295" lon="7.25552">
        <ele>599.20001220703</ele>
        <time>2020-02-22T11:19:14.000Z</time>
      </trkpt>
      <trkpt lat="43.81313" lon="7.25562">
        <ele>600</ele>
        <time>2020-02-22T11:19:21.000Z</time>
      </trkpt>
      <trkpt lat="43.81324" lon="7.25564">
        <ele>600.40002441406</ele>
        <time>2020-02-22T11:19:25.000Z</time>
      </trkpt>
      <trkpt lat="43.81337" lon="7.25566">
        <ele>601</ele>
        <time>2020-02-22T11:19:30.000Z</time>
      </trkpt>
      <trkpt lat="43.81343" lon="7.25572">
        <ele>601.40002441406</ele>
        <time>2020-02-22T11:19:33.000Z</time>
      </trkpt>
      <trkpt lat="43.81348" lon="7.25579">
        <ele>602.40002441406</ele>
        <time>2020-02-22T11:19:36.000Z</time>
      </trkpt>
      <trkpt lat="43.8135" lon="7.25582">
        <ele>602.40002441406</ele>
        <time>2020-02-22T11:19:37.000Z</time>
      </trkpt>
      <trkpt lat="43.81358" lon="7.25605">
        <ele>602.59997558594</ele>
        <time>2020-02-22T11:19:44.000Z</time>
      </trkpt>
      <trkpt lat="43.81364" lon="7.25642">
        <ele>602.40002441406</ele>
        <time>2020-02-22T11:19:54.000Z</time>
      </trkpt>
      <trkpt lat="43.81373" lon="7.25681">
        <ele>603</ele>
        <time>2020-02-22T11:20:05.000Z</time>
      </trkpt>
      <trkpt lat="43.81378" lon="7.25698">
        <ele>603.59997558594</ele>
        <time>2020-02-22T11:20:10.000Z</time>
      </trkpt>
      <trkpt lat="43.81381" lon="7.2571">
        <ele>604</ele>
        <time>2020-02-22T11:20:14.000Z</time>
      </trkpt>
      <trkpt lat="43.81387" lon="7.25717">
        <ele>604.59997558594</ele>
        <time>2020-02-22T11:20:18.000Z</time>
      </trkpt>
      <trkpt lat="43.81388" lon="7.25717">
        <ele>604.59997558594</ele>
        <time>2020-02-22T11:20:19.000Z</time>
      </trkpt>
      <trkpt lat="43.81394" lon="7.25724">
        <ele>605.59997558594</ele>
        <time>2020-02-22T11:20:25.000Z</time>
      </trkpt>
      <trkpt lat="43.81397" lon="7.25724">
        <ele>606</ele>
        <time>2020-02-22T11:20:27.000Z</time>
      </trkpt>
      <trkpt lat="43.81401" lon="7.25725">
        <ele>606.79998779297</ele>
        <time>2020-02-22T11:20:30.000Z</time>
      </trkpt>
      <trkpt lat="43.81405" lon="7.25725">
        <ele>607.79998779297</ele>
        <time>2020-02-22T11:20:34.000Z</time>
      </trkpt>
      <trkpt lat="43.81406" lon="7.25726">
        <ele>608</ele>
        <time>2020-02-22T11:20:35.000Z</time>
      </trkpt>
      <trkpt lat="43.81407" lon="7.25726">
        <ele>609</ele>
        <time>2020-02-22T11:20:40.000Z</time>
      </trkpt>
      <trkpt lat="43.81407" lon="7.25726">
        <ele>609</ele>
        <time>2020-02-22T11:20:41.000Z</time>
      </trkpt>
      <trkpt lat="43.81407" lon="7.25726">
        <ele>609.40002441406</ele>
        <time>2020-02-22T11:20:48.000Z</time>
      </trkpt>
      <trkpt lat="43.81406" lon="7.25726">
        <ele>608.79998779297</ele>
        <time>2020-02-22T11:20:56.000Z</time>
      </trkpt>
      <trkpt lat="43.81406" lon="7.25726">
        <ele>608.20001220703</ele>
        <time>2020-02-22T11:21:02.000Z</time>
      </trkpt>
      <trkpt lat="43.81405" lon="7.25726">
        <ele>608</ele>
        <time>2020-02-22T11:21:16.000Z</time>
      </trkpt>
      <trkpt lat="43.81406" lon="7.25724">
        <ele>608</ele>
        <time>2020-02-22T11:21:19.000Z</time>
      </trkpt>
      <trkpt lat="43.81407" lon="7.25723">
        <ele>608.20001220703</ele>
        <time>2020-02-22T11:21:21.000Z</time>
      </trkpt>
      <trkpt lat="43.81408" lon="7.25723">
        <ele>608.59997558594</ele>
        <time>2020-02-22T11:21:22.000Z</time>
      </trkpt>
      <trkpt lat="43.8141" lon="7.25723">
        <ele>608.79998779297</ele>
        <time>2020-02-22T11:21:25.000Z</time>
      </trkpt>
      <trkpt lat="43.81418" lon="7.25718">
        <ele>608.59997558594</ele>
        <time>2020-02-22T11:21:30.000Z</time>
      </trkpt>
      <trkpt lat="43.81421" lon="7.25714">
        <ele>608.79998779297</ele>
        <time>2020-02-22T11:21:33.000Z</time>
      </trkpt>
      <trkpt lat="43.81421" lon="7.2571">
        <ele>609.40002441406</ele>
        <time>2020-02-22T11:21:35.000Z</time>
      </trkpt>
      <trkpt lat="43.81421" lon="7.25702">
        <ele>610.20001220703</ele>
        <time>2020-02-22T11:21:38.000Z</time>
      </trkpt>
      <trkpt lat="43.81421" lon="7.25691">
        <ele>611.40002441406</ele>
        <time>2020-02-22T11:21:42.000Z</time>
      </trkpt>
      <trkpt lat="43.8142" lon="7.25689">
        <ele>611.79998779297</ele>
        <time>2020-02-22T11:21:43.000Z</time>
      </trkpt>
      <trkpt lat="43.81421" lon="7.25684">
        <ele>612.59997558594</ele>
        <time>2020-02-22T11:21:45.000Z</time>
      </trkpt>
      <trkpt lat="43.8142" lon="7.25674">
        <ele>613.79998779297</ele>
        <time>2020-02-22T11:21:49.000Z</time>
      </trkpt>
      <trkpt lat="43.8142" lon="7.25666">
        <ele>615</ele>
        <time>2020-02-22T11:21:53.000Z</time>
      </trkpt>
      <trkpt lat="43.8142" lon="7.25658">
        <ele>616</ele>
        <time>2020-02-22T11:21:56.000Z</time>
      </trkpt>
      <trkpt lat="43.8142" lon="7.25649">
        <ele>617.40002441406</ele>
        <time>2020-02-22T11:22:00.000Z</time>
      </trkpt>
      <trkpt lat="43.8142" lon="7.25647">
        <ele>617.59997558594</ele>
        <time>2020-02-22T11:22:01.000Z</time>
      </trkpt>
      <trkpt lat="43.8142" lon="7.25641">
        <ele>618.59997558594</ele>
        <time>2020-02-22T11:22:04.000Z</time>
      </trkpt>
      <trkpt lat="43.8142" lon="7.25634">
        <ele>619.59997558594</ele>
        <time>2020-02-22T11:22:07.000Z</time>
      </trkpt>
      <trkpt lat="43.8142" lon="7.25631">
        <ele>620</ele>
        <time>2020-02-22T11:22:08.000Z</time>
      </trkpt>
      <trkpt lat="43.8142" lon="7.25627">
        <ele>620.79998779297</ele>
        <time>2020-02-22T11:22:10.000Z</time>
      </trkpt>
      <trkpt lat="43.8142" lon="7.25621">
        <ele>622</ele>
        <time>2020-02-22T11:22:13.000Z</time>
      </trkpt>
      <trkpt lat="43.8142" lon="7.25618">
        <ele>622.20001220703</ele>
        <time>2020-02-22T11:22:14.000Z</time>
      </trkpt>
      <trkpt lat="43.81421" lon="7.25611">
        <ele>623.20001220703</ele>
        <time>2020-02-22T11:22:17.000Z</time>
      </trkpt>
      <trkpt lat="43.81422" lon="7.25604">
        <ele>624.59997558594</ele>
        <time>2020-02-22T11:22:20.000Z</time>
      </trkpt>
      <trkpt lat="43.81423" lon="7.256">
        <ele>625.40002441406</ele>
        <time>2020-02-22T11:22:22.000Z</time>
      </trkpt>
      <trkpt lat="43.81423" lon="7.25598">
        <ele>625.79998779297</ele>
        <time>2020-02-22T11:22:23.000Z</time>
      </trkpt>
      <trkpt lat="43.81424" lon="7.25591">
        <ele>627</ele>
        <time>2020-02-22T11:22:26.000Z</time>
      </trkpt>
      <trkpt lat="43.81423" lon="7.25589">
        <ele>627.40002441406</ele>
        <time>2020-02-22T11:22:27.000Z</time>
      </trkpt>
      <trkpt lat="43.81423" lon="7.25584">
        <ele>628</ele>
        <time>2020-02-22T11:22:29.000Z</time>
      </trkpt>
      <trkpt lat="43.81423" lon="7.25581">
        <ele>628.20001220703</ele>
        <time>2020-02-22T11:22:30.000Z</time>
      </trkpt>
      <trkpt lat="43.81423" lon="7.25571">
        <ele>629.79998779297</ele>
        <time>2020-02-22T11:22:34.000Z</time>
      </trkpt>
      <trkpt lat="43.81424" lon="7.25566">
        <ele>631</ele>
        <time>2020-02-22T11:22:36.000Z</time>
      </trkpt>
      <trkpt lat="43.81424" lon="7.25561">
        <ele>632.20001220703</ele>
        <time>2020-02-22T11:22:38.000Z</time>
      </trkpt>
      <trkpt lat="43.81425" lon="7.25557">
        <ele>633.40002441406</ele>
        <time>2020-02-22T11:22:40.000Z</time>
      </trkpt>
      <trkpt lat="43.81426" lon="7.2555">
        <ele>635</ele>
        <time>2020-02-22T11:22:43.000Z</time>
      </trkpt>
      <trkpt lat="43.81426" lon="7.25543">
        <ele>636.40002441406</ele>
        <time>2020-02-22T11:22:46.000Z</time>
      </trkpt>
      <trkpt lat="43.81426" lon="7.25535">
        <ele>637.59997558594</ele>
        <time>2020-02-22T11:22:49.000Z</time>
      </trkpt>
      <trkpt lat="43.81426" lon="7.25531">
        <ele>638.59997558594</ele>
        <time>2020-02-22T11:22:51.000Z</time>
      </trkpt>
      <trkpt lat="43.81427" lon="7.25526">
        <ele>639.79998779297</ele>
        <time>2020-02-22T11:22:53.000Z</time>
      </trkpt>
      <trkpt lat="43.81427" lon="7.25524">
        <ele>640.20001220703</ele>
        <time>2020-02-22T11:22:54.000Z</time>
      </trkpt>
      <trkpt lat="43.81427" lon="7.25522">
        <ele>641</ele>
        <time>2020-02-22T11:22:55.000Z</time>
      </trkpt>
      <trkpt lat="43.81427" lon="7.25518">
        <ele>642.20001220703</ele>
        <time>2020-02-22T11:22:57.000Z</time>
      </trkpt>
      <trkpt lat="43.81428" lon="7.25515">
        <ele>643.59997558594</ele>
        <time>2020-02-22T11:22:59.000Z</time>
      </trkpt>
      <trkpt lat="43.81429" lon="7.25511">
        <ele>644.59997558594</ele>
        <time>2020-02-22T11:23:01.000Z</time>
      </trkpt>
      <trkpt lat="43.81429" lon="7.25506">
        <ele>645.79998779297</ele>
        <time>2020-02-22T11:23:03.000Z</time>
      </trkpt>
      <trkpt lat="43.81428" lon="7.255">
        <ele>647</ele>
        <time>2020-02-22T11:23:06.000Z</time>
      </trkpt>
      <trkpt lat="43.81428" lon="7.25491">
        <ele>648.40002441406</ele>
        <time>2020-02-22T11:23:10.000Z</time>
      </trkpt>
      <trkpt lat="43.81428" lon="7.25489">
        <ele>649</ele>
        <time>2020-02-22T11:23:11.000Z</time>
      </trkpt>
      <trkpt lat="43.81428" lon="7.25486">
        <ele>649.59997558594</ele>
        <time>2020-02-22T11:23:12.000Z</time>
      </trkpt>
      <trkpt lat="43.81428" lon="7.25482">
        <ele>650.79998779297</ele>
        <time>2020-02-22T11:23:14.000Z</time>
      </trkpt>
      <trkpt lat="43.81429" lon="7.25478">
        <ele>651.79998779297</ele>
        <time>2020-02-22T11:23:16.000Z</time>
      </trkpt>
      <trkpt lat="43.81429" lon="7.25474">
        <ele>652.79998779297</ele>
        <time>2020-02-22T11:23:18.000Z</time>
      </trkpt>
      <trkpt lat="43.81429" lon="7.25473">
        <ele>653.40002441406</ele>
        <time>2020-02-22T11:23:19.000Z</time>
      </trkpt>
      <trkpt lat="43.81428" lon="7.25467">
        <ele>654.79998779297</ele>
        <time>2020-02-22T11:23:22.000Z</time>
      </trkpt>
      <trkpt lat="43.81427" lon="7.25463">
        <ele>655.40002441406</ele>
        <time>2020-02-22T11:23:24.000Z</time>
      </trkpt>
      <trkpt lat="43.81427" lon="7.25458">
        <ele>655.79998779297</ele>
        <time>2020-02-22T11:23:26.000Z</time>
      </trkpt>
      <trkpt lat="43.81427" lon="7.25452">
        <ele>656.79998779297</ele>
        <time>2020-02-22T11:23:29.000Z</time>
      </trkpt>
      <trkpt lat="43.81427" lon="7.25448">
        <ele>657.79998779297</ele>
        <time>2020-02-22T11:23:31.000Z</time>
      </trkpt>
      <trkpt lat="43.81427" lon="7.25445">
        <ele>658.40002441406</ele>
        <time>2020-02-22T11:23:32.000Z</time>
      </trkpt>
      <trkpt lat="43.81427" lon="7.25442">
        <ele>659</ele>
        <time>2020-02-22T11:23:33.000Z</time>
      </trkpt>
      <trkpt lat="43.81427" lon="7.25434">
        <ele>660.40002441406</ele>
        <time>2020-02-22T11:23:36.000Z</time>
      </trkpt>
      <trkpt lat="43.81427" lon="7.25427">
        <ele>661.79998779297</ele>
        <time>2020-02-22T11:23:39.000Z</time>
      </trkpt>
      <trkpt lat="43.81428" lon="7.2542">
        <ele>663</ele>
        <time>2020-02-22T11:23:42.000Z</time>
      </trkpt>
      <trkpt lat="43.81427" lon="7.25413">
        <ele>664</ele>
        <time>2020-02-22T11:23:45.000Z</time>
      </trkpt>
      <trkpt lat="43.81426" lon="7.25409">
        <ele>665.40002441406</ele>
        <time>2020-02-22T11:23:47.000Z</time>
      </trkpt>
      <trkpt lat="43.81424" lon="7.25405">
        <ele>666.59997558594</ele>
        <time>2020-02-22T11:23:49.000Z</time>
      </trkpt>
      <trkpt lat="43.81421" lon="7.25402">
        <ele>667.59997558594</ele>
        <time>2020-02-22T11:23:52.000Z</time>
      </trkpt>
      <trkpt lat="43.81417" lon="7.25396">
        <ele>668.59997558594</ele>
        <time>2020-02-22T11:23:58.000Z</time>
      </trkpt>
      <trkpt lat="43.81415" lon="7.25395">
        <ele>668.59997558594</ele>
        <time>2020-02-22T11:23:59.000Z</time>
      </trkpt>
      <trkpt lat="43.81408" lon="7.25394">
        <ele>668.59997558594</ele>
        <time>2020-02-22T11:24:02.000Z</time>
      </trkpt>
      <trkpt lat="43.81388" lon="7.2539">
        <ele>667.20001220703</ele>
        <time>2020-02-22T11:24:07.000Z</time>
      </trkpt>
      <trkpt lat="43.81373" lon="7.25387">
        <ele>665.59997558594</ele>
        <time>2020-02-22T11:24:10.000Z</time>
      </trkpt>
      <trkpt lat="43.81359" lon="7.25385">
        <ele>664.79998779297</ele>
        <time>2020-02-22T11:24:13.000Z</time>
      </trkpt>
      <trkpt lat="43.81355" lon="7.25384">
        <ele>664.40002441406</ele>
        <time>2020-02-22T11:24:14.000Z</time>
      </trkpt>
      <trkpt lat="43.8133" lon="7.25375">
        <ele>663.40002441406</ele>
        <time>2020-02-22T11:24:19.000Z</time>
      </trkpt>
      <trkpt lat="43.8132" lon="7.25374">
        <ele>662.20001220703</ele>
        <time>2020-02-22T11:24:22.000Z</time>
      </trkpt>
      <trkpt lat="43.81317" lon="7.25373">
        <ele>662.20001220703</ele>
        <time>2020-02-22T11:24:23.000Z</time>
      </trkpt>
      <trkpt lat="43.81304" lon="7.25372">
        <ele>663.59997558594</ele>
        <time>2020-02-22T11:24:28.000Z</time>
      </trkpt>
      <trkpt lat="43.81302" lon="7.25371">
        <ele>663.79998779297</ele>
        <time>2020-02-22T11:24:29.000Z</time>
      </trkpt>
      <trkpt lat="43.81295" lon="7.25368">
        <ele>664.79998779297</ele>
        <time>2020-02-22T11:24:32.000Z</time>
      </trkpt>
      <trkpt lat="43.81289" lon="7.25364">
        <ele>665.40002441406</ele>
        <time>2020-02-22T11:24:35.000Z</time>
      </trkpt>
      <trkpt lat="43.81285" lon="7.25361">
        <ele>666</ele>
        <time>2020-02-22T11:24:37.000Z</time>
      </trkpt>
      <trkpt lat="43.81281" lon="7.25359">
        <ele>667</ele>
        <time>2020-02-22T11:24:40.000Z</time>
      </trkpt>
      <trkpt lat="43.81273" lon="7.25356">
        <ele>668.20001220703</ele>
        <time>2020-02-22T11:24:44.000Z</time>
      </trkpt>
      <trkpt lat="43.81269" lon="7.25357">
        <ele>669.40002441406</ele>
        <time>2020-02-22T11:24:46.000Z</time>
      </trkpt>
      <trkpt lat="43.81267" lon="7.25357">
        <ele>670.20001220703</ele>
        <time>2020-02-22T11:24:47.000Z</time>
      </trkpt>
      <trkpt lat="43.81265" lon="7.25357">
        <ele>670.59997558594</ele>
        <time>2020-02-22T11:24:48.000Z</time>
      </trkpt>
      <trkpt lat="43.8126" lon="7.25354">
        <ele>672.20001220703</ele>
        <time>2020-02-22T11:24:51.000Z</time>
      </trkpt>
      <trkpt lat="43.81258" lon="7.25352">
        <ele>672.59997558594</ele>
        <time>2020-02-22T11:24:52.000Z</time>
      </trkpt>
      <trkpt lat="43.81258" lon="7.2535">
        <ele>672.79998779297</ele>
        <time>2020-02-22T11:24:53.000Z</time>
      </trkpt>
      <trkpt lat="43.81257" lon="7.25347">
        <ele>673.40002441406</ele>
        <time>2020-02-22T11:24:54.000Z</time>
      </trkpt>
      <trkpt lat="43.81256" lon="7.25345">
        <ele>674</ele>
        <time>2020-02-22T11:24:56.000Z</time>
      </trkpt>
      <trkpt lat="43.81255" lon="7.25344">
        <ele>674.40002441406</ele>
        <time>2020-02-22T11:24:57.000Z</time>
      </trkpt>
      <trkpt lat="43.81251" lon="7.25344">
        <ele>675.79998779297</ele>
        <time>2020-02-22T11:25:00.000Z</time>
      </trkpt>
      <trkpt lat="43.81249" lon="7.25345">
        <ele>676.20001220703</ele>
        <time>2020-02-22T11:25:01.000Z</time>
      </trkpt>
      <trkpt lat="43.81245" lon="7.25347">
        <ele>677</ele>
        <time>2020-02-22T11:25:03.000Z</time>
      </trkpt>
      <trkpt lat="43.8124" lon="7.25347">
        <ele>678.59997558594</ele>
        <time>2020-02-22T11:25:06.000Z</time>
      </trkpt>
      <trkpt lat="43.81238" lon="7.25347">
        <ele>679</ele>
        <time>2020-02-22T11:25:07.000Z</time>
      </trkpt>
      <trkpt lat="43.81236" lon="7.25346">
        <ele>679.40002441406</ele>
        <time>2020-02-22T11:25:08.000Z</time>
      </trkpt>
      <trkpt lat="43.81234" lon="7.25346">
        <ele>679.79998779297</ele>
        <time>2020-02-22T11:25:09.000Z</time>
      </trkpt>
      <trkpt lat="43.81227" lon="7.25342">
        <ele>681</ele>
        <time>2020-02-22T11:25:13.000Z</time>
      </trkpt>
      <trkpt lat="43.81225" lon="7.25341">
        <ele>681.40002441406</ele>
        <time>2020-02-22T11:25:14.000Z</time>
      </trkpt>
      <trkpt lat="43.81224" lon="7.25337">
        <ele>682.20001220703</ele>
        <time>2020-02-22T11:25:16.000Z</time>
      </trkpt>
      <trkpt lat="43.8122" lon="7.25332">
        <ele>683.40002441406</ele>
        <time>2020-02-22T11:25:19.000Z</time>
      </trkpt>
      <trkpt lat="43.81212" lon="7.25332">
        <ele>684.59997558594</ele>
        <time>2020-02-22T11:25:23.000Z</time>
      </trkpt>
      <trkpt lat="43.8121" lon="7.25332">
        <ele>684.59997558594</ele>
        <time>2020-02-22T11:25:24.000Z</time>
      </trkpt>
      <trkpt lat="43.81198" lon="7.25329">
        <ele>685.59997558594</ele>
        <time>2020-02-22T11:25:30.000Z</time>
      </trkpt>
      <trkpt lat="43.81193" lon="7.25327">
        <ele>685.79998779297</ele>
        <time>2020-02-22T11:25:32.000Z</time>
      </trkpt>
      <trkpt lat="43.81181" lon="7.25321">
        <ele>686.59997558594</ele>
        <time>2020-02-22T11:25:37.000Z</time>
      </trkpt>
      <trkpt lat="43.81176" lon="7.25319">
        <ele>687</ele>
        <time>2020-02-22T11:25:39.000Z</time>
      </trkpt>
      <trkpt lat="43.81167" lon="7.25313">
        <ele>687.59997558594</ele>
        <time>2020-02-22T11:25:43.000Z</time>
      </trkpt>
      <trkpt lat="43.81163" lon="7.25309">
        <ele>688</ele>
        <time>2020-02-22T11:25:45.000Z</time>
      </trkpt>
      <trkpt lat="43.81152" lon="7.25302">
        <ele>688.79998779297</ele>
        <time>2020-02-22T11:25:50.000Z</time>
      </trkpt>
      <trkpt lat="43.8115" lon="7.253">
        <ele>689</ele>
        <time>2020-02-22T11:25:51.000Z</time>
      </trkpt>
      <trkpt lat="43.81145" lon="7.25294">
        <ele>690.20001220703</ele>
        <time>2020-02-22T11:25:54.000Z</time>
      </trkpt>
      <trkpt lat="43.81141" lon="7.25291">
        <ele>691.20001220703</ele>
        <time>2020-02-22T11:25:56.000Z</time>
      </trkpt>
      <trkpt lat="43.81131" lon="7.25288">
        <ele>692.40002441406</ele>
        <time>2020-02-22T11:26:00.000Z</time>
      </trkpt>
      <trkpt lat="43.81125" lon="7.25285">
        <ele>693.59997558594</ele>
        <time>2020-02-22T11:26:03.000Z</time>
      </trkpt>
      <trkpt lat="43.81119" lon="7.2528">
        <ele>694.59997558594</ele>
        <time>2020-02-22T11:26:06.000Z</time>
      </trkpt>
      <trkpt lat="43.81112" lon="7.25274">
        <ele>695.79998779297</ele>
        <time>2020-02-22T11:26:10.000Z</time>
      </trkpt>
      <trkpt lat="43.81106" lon="7.25268">
        <ele>697.20001220703</ele>
        <time>2020-02-22T11:26:13.000Z</time>
      </trkpt>
      <trkpt lat="43.811" lon="7.25261">
        <ele>698.59997558594</ele>
        <time>2020-02-22T11:26:16.000Z</time>
      </trkpt>
      <trkpt lat="43.81097" lon="7.25256">
        <ele>699.40002441406</ele>
        <time>2020-02-22T11:26:18.000Z</time>
      </trkpt>
      <trkpt lat="43.81096" lon="7.25254">
        <ele>700</ele>
        <time>2020-02-22T11:26:19.000Z</time>
      </trkpt>
      <trkpt lat="43.81092" lon="7.25251">
        <ele>701.20001220703</ele>
        <time>2020-02-22T11:26:22.000Z</time>
      </trkpt>
      <trkpt lat="43.8109" lon="7.2525">
        <ele>701.59997558594</ele>
        <time>2020-02-22T11:26:23.000Z</time>
      </trkpt>
      <trkpt lat="43.81086" lon="7.2525">
        <ele>702.40002441406</ele>
        <time>2020-02-22T11:26:25.000Z</time>
      </trkpt>
      <trkpt lat="43.8108" lon="7.2525">
        <ele>703.59997558594</ele>
        <time>2020-02-22T11:26:28.000Z</time>
      </trkpt>
      <trkpt lat="43.81078" lon="7.25249">
        <ele>704.20001220703</ele>
        <time>2020-02-22T11:26:29.000Z</time>
      </trkpt>
      <trkpt lat="43.81077" lon="7.25248">
        <ele>704.79998779297</ele>
        <time>2020-02-22T11:26:30.000Z</time>
      </trkpt>
      <trkpt lat="43.81071" lon="7.25245">
        <ele>706.20001220703</ele>
        <time>2020-02-22T11:26:33.000Z</time>
      </trkpt>
      <trkpt lat="43.81068" lon="7.25242">
        <ele>707</ele>
        <time>2020-02-22T11:26:35.000Z</time>
      </trkpt>
      <trkpt lat="43.81066" lon="7.25241">
        <ele>707.40002441406</ele>
        <time>2020-02-22T11:26:36.000Z</time>
      </trkpt>
      <trkpt lat="43.81061" lon="7.25236">
        <ele>708.59997558594</ele>
        <time>2020-02-22T11:26:40.000Z</time>
      </trkpt>
      <trkpt lat="43.81059" lon="7.25232">
        <ele>709.20001220703</ele>
        <time>2020-02-22T11:26:42.000Z</time>
      </trkpt>
      <trkpt lat="43.81056" lon="7.25229">
        <ele>709.79998779297</ele>
        <time>2020-02-22T11:26:45.000Z</time>
      </trkpt>
      <trkpt lat="43.81056" lon="7.2523">
        <ele>710.20001220703</ele>
        <time>2020-02-22T11:26:47.000Z</time>
      </trkpt>
      <trkpt lat="43.81056" lon="7.2523">
        <ele>710.79998779297</ele>
        <time>2020-02-22T11:26:50.000Z</time>
      </trkpt>
      <trkpt lat="43.81057" lon="7.25231">
        <ele>710.79998779297</ele>
        <time>2020-02-22T11:27:04.000Z</time>
      </trkpt>
      <trkpt lat="43.81056" lon="7.2523">
        <ele>710.59997558594</ele>
        <time>2020-02-22T11:27:18.000Z</time>
      </trkpt>
      <trkpt lat="43.81055" lon="7.2523">
        <ele>710.59997558594</ele>
        <time>2020-02-22T11:27:34.000Z</time>
      </trkpt>
      <trkpt lat="43.81054" lon="7.25231">
        <ele>710.40002441406</ele>
        <time>2020-02-22T11:27:51.000Z</time>
      </trkpt>
      <trkpt lat="43.81054" lon="7.25231">
        <ele>710.40002441406</ele>
        <time>2020-02-22T11:28:18.000Z</time>
      </trkpt>
      <trkpt lat="43.81052" lon="7.25229">
        <ele>710.79998779297</ele>
        <time>2020-02-22T11:28:26.000Z</time>
      </trkpt>
      <trkpt lat="43.81043" lon="7.25216">
        <ele>711</ele>
        <time>2020-02-22T11:28:33.000Z</time>
      </trkpt>
      <trkpt lat="43.81035" lon="7.25203">
        <ele>712</ele>
        <time>2020-02-22T11:28:38.000Z</time>
      </trkpt>
      <trkpt lat="43.8103" lon="7.25195">
        <ele>712.40002441406</ele>
        <time>2020-02-22T11:28:41.000Z</time>
      </trkpt>
      <trkpt lat="43.81016" lon="7.25177">
        <ele>713</ele>
        <time>2020-02-22T11:28:49.000Z</time>
      </trkpt>
      <trkpt lat="43.81014" lon="7.25175">
        <ele>713</ele>
        <time>2020-02-22T11:28:50.000Z</time>
      </trkpt>
      <trkpt lat="43.81005" lon="7.25164">
        <ele>714.20001220703</ele>
        <time>2020-02-22T11:28:55.000Z</time>
      </trkpt>
      <trkpt lat="43.81003" lon="7.25162">
        <ele>714.40002441406</ele>
        <time>2020-02-22T11:28:56.000Z</time>
      </trkpt>
      <trkpt lat="43.80991" lon="7.25143">
        <ele>714.79998779297</ele>
        <time>2020-02-22T11:29:03.000Z</time>
      </trkpt>
      <trkpt lat="43.80986" lon="7.25135">
        <ele>715.20001220703</ele>
        <time>2020-02-22T11:29:07.000Z</time>
      </trkpt>
      <trkpt lat="43.80984" lon="7.25132">
        <ele>715.40002441406</ele>
        <time>2020-02-22T11:29:09.000Z</time>
      </trkpt>
      <trkpt lat="43.80979" lon="7.25125">
        <ele>716.40002441406</ele>
        <time>2020-02-22T11:29:13.000Z</time>
      </trkpt>
      <trkpt lat="43.80975" lon="7.25121">
        <ele>717.59997558594</ele>
        <time>2020-02-22T11:29:16.000Z</time>
      </trkpt>
      <trkpt lat="43.80973" lon="7.2512">
        <ele>717.79998779297</ele>
        <time>2020-02-22T11:29:17.000Z</time>
      </trkpt>
      <trkpt lat="43.80971" lon="7.25117">
        <ele>718.59997558594</ele>
        <time>2020-02-22T11:29:19.000Z</time>
      </trkpt>
      <trkpt lat="43.80966" lon="7.25112">
        <ele>719.79998779297</ele>
        <time>2020-02-22T11:29:23.000Z</time>
      </trkpt>
      <trkpt lat="43.80965" lon="7.25111">
        <ele>720</ele>
        <time>2020-02-22T11:29:24.000Z</time>
      </trkpt>
      <trkpt lat="43.80958" lon="7.25106">
        <ele>720.79998779297</ele>
        <time>2020-02-22T11:29:28.000Z</time>
      </trkpt>
      <trkpt lat="43.80955" lon="7.25103">
        <ele>721.59997558594</ele>
        <time>2020-02-22T11:29:30.000Z</time>
      </trkpt>
      <trkpt lat="43.80954" lon="7.25102">
        <ele>722</ele>
        <time>2020-02-22T11:29:31.000Z</time>
      </trkpt>
      <trkpt lat="43.80947" lon="7.25097">
        <ele>723.20001220703</ele>
        <time>2020-02-22T11:29:35.000Z</time>
      </trkpt>
      <trkpt lat="43.80943" lon="7.25095">
        <ele>723.59997558594</ele>
        <time>2020-02-22T11:29:37.000Z</time>
      </trkpt>
      <trkpt lat="43.80936" lon="7.25089">
        <ele>724.40002441406</ele>
        <time>2020-02-22T11:29:41.000Z</time>
      </trkpt>
      <trkpt lat="43.80933" lon="7.25086">
        <ele>725.20001220703</ele>
        <time>2020-02-22T11:29:43.000Z</time>
      </trkpt>
      <trkpt lat="43.80929" lon="7.25084">
        <ele>725.59997558594</ele>
        <time>2020-02-22T11:29:45.000Z</time>
      </trkpt>
      <trkpt lat="43.80919" lon="7.2508">
        <ele>726.59997558594</ele>
        <time>2020-02-22T11:29:50.000Z</time>
      </trkpt>
      <trkpt lat="43.80917" lon="7.25079">
        <ele>726.59997558594</ele>
        <time>2020-02-22T11:29:51.000Z</time>
      </trkpt>
      <trkpt lat="43.80908" lon="7.25077">
        <ele>727.20001220703</ele>
        <time>2020-02-22T11:29:56.000Z</time>
      </trkpt>
      <trkpt lat="43.80902" lon="7.25073">
        <ele>727.79998779297</ele>
        <time>2020-02-22T11:29:59.000Z</time>
      </trkpt>
      <trkpt lat="43.80896" lon="7.25071">
        <ele>728</ele>
        <time>2020-02-22T11:30:02.000Z</time>
      </trkpt>
      <trkpt lat="43.80884" lon="7.25072">
        <ele>728.79998779297</ele>
        <time>2020-02-22T11:30:07.000Z</time>
      </trkpt>
      <trkpt lat="43.8087" lon="7.25067">
        <ele>729.20001220703</ele>
        <time>2020-02-22T11:30:13.000Z</time>
      </trkpt>
      <trkpt lat="43.80861" lon="7.25063">
        <ele>729.59997558594</ele>
        <time>2020-02-22T11:30:18.000Z</time>
      </trkpt>
      <trkpt lat="43.8086" lon="7.25062">
        <ele>729.79998779297</ele>
        <time>2020-02-22T11:30:19.000Z</time>
      </trkpt>
      <trkpt lat="43.80858" lon="7.25061">
        <ele>730</ele>
        <time>2020-02-22T11:30:22.000Z</time>
      </trkpt>
      <trkpt lat="43.8085" lon="7.25053">
        <ele>730.40002441406</ele>
        <time>2020-02-22T11:30:27.000Z</time>
      </trkpt>
      <trkpt lat="43.80848" lon="7.25048">
        <ele>730.79998779297</ele>
        <time>2020-02-22T11:30:29.000Z</time>
      </trkpt>
      <trkpt lat="43.80842" lon="7.25043">
        <ele>732</ele>
        <time>2020-02-22T11:30:32.000Z</time>
      </trkpt>
      <trkpt lat="43.8084" lon="7.25042">
        <ele>732.40002441406</ele>
        <time>2020-02-22T11:30:33.000Z</time>
      </trkpt>
      <trkpt lat="43.80837" lon="7.25044">
        <ele>733.20001220703</ele>
        <time>2020-02-22T11:30:35.000Z</time>
      </trkpt>
      <trkpt lat="43.80835" lon="7.25049">
        <ele>733.40002441406</ele>
        <time>2020-02-22T11:30:37.000Z</time>
      </trkpt>
      <trkpt lat="43.80831" lon="7.2506">
        <ele>734.20001220703</ele>
        <time>2020-02-22T11:30:41.000Z</time>
      </trkpt>
      <trkpt lat="43.8083" lon="7.25063">
        <ele>734.59997558594</ele>
        <time>2020-02-22T11:30:42.000Z</time>
      </trkpt>
      <trkpt lat="43.80828" lon="7.25065">
        <ele>735</ele>
        <time>2020-02-22T11:30:43.000Z</time>
      </trkpt>
      <trkpt lat="43.80826" lon="7.25068">
        <ele>735.40002441406</ele>
        <time>2020-02-22T11:30:45.000Z</time>
      </trkpt>
      <trkpt lat="43.80822" lon="7.25071">
        <ele>735.79998779297</ele>
        <time>2020-02-22T11:30:47.000Z</time>
      </trkpt>
      <trkpt lat="43.80821" lon="7.25073">
        <ele>736</ele>
        <time>2020-02-22T11:30:48.000Z</time>
      </trkpt>
      <trkpt lat="43.80817" lon="7.25079">
        <ele>736.40002441406</ele>
        <time>2020-02-22T11:30:51.000Z</time>
      </trkpt>
      <trkpt lat="43.80813" lon="7.25083">
        <ele>736.79998779297</ele>
        <time>2020-02-22T11:30:53.000Z</time>
      </trkpt>
      <trkpt lat="43.80812" lon="7.25084">
        <ele>737</ele>
        <time>2020-02-22T11:30:54.000Z</time>
      </trkpt>
      <trkpt lat="43.80803" lon="7.25094">
        <ele>738</ele>
        <time>2020-02-22T11:30:59.000Z</time>
      </trkpt>
      <trkpt lat="43.80801" lon="7.25095">
        <ele>738</ele>
        <time>2020-02-22T11:31:00.000Z</time>
      </trkpt>
      <trkpt lat="43.80797" lon="7.25097">
        <ele>738.59997558594</ele>
        <time>2020-02-22T11:31:05.000Z</time>
      </trkpt>
      <trkpt lat="43.80797" lon="7.25097">
        <ele>739</ele>
        <time>2020-02-22T11:31:08.000Z</time>
      </trkpt>
      <trkpt lat="43.80797" lon="7.25097">
        <ele>739.20001220703</ele>
        <time>2020-02-22T11:31:14.000Z</time>
      </trkpt>
      <trkpt lat="43.80796" lon="7.25099">
        <ele>739.20001220703</ele>
        <time>2020-02-22T11:31:15.000Z</time>
      </trkpt>
      <trkpt lat="43.8079" lon="7.25103">
        <ele>739.20001220703</ele>
        <time>2020-02-22T11:31:18.000Z</time>
      </trkpt>
      <trkpt lat="43.80773" lon="7.25114">
        <ele>739.40002441406</ele>
        <time>2020-02-22T11:31:24.000Z</time>
      </trkpt>
      <trkpt lat="43.80769" lon="7.25115">
        <ele>739.20001220703</ele>
        <time>2020-02-22T11:31:25.000Z</time>
      </trkpt>
      <trkpt lat="43.80753" lon="7.25117">
        <ele>738.40002441406</ele>
        <time>2020-02-22T11:31:28.000Z</time>
      </trkpt>
      <trkpt lat="43.80748" lon="7.25116">
        <ele>738</ele>
        <time>2020-02-22T11:31:29.000Z</time>
      </trkpt>
      <trkpt lat="43.80736" lon="7.25113">
        <ele>736.79998779297</ele>
        <time>2020-02-22T11:31:31.000Z</time>
      </trkpt>
      <trkpt lat="43.80729" lon="7.25111">
        <ele>736</ele>
        <time>2020-02-22T11:31:32.000Z</time>
      </trkpt>
      <trkpt lat="43.80723" lon="7.25108">
        <ele>735.20001220703</ele>
        <time>2020-02-22T11:31:33.000Z</time>
      </trkpt>
      <trkpt lat="43.80715" lon="7.25107">
        <ele>734.40002441406</ele>
        <time>2020-02-22T11:31:34.000Z</time>
      </trkpt>
      <trkpt lat="43.8071" lon="7.25106">
        <ele>733.59997558594</ele>
        <time>2020-02-22T11:31:35.000Z</time>
      </trkpt>
      <trkpt lat="43.80702" lon="7.25104">
        <ele>733.20001220703</ele>
        <time>2020-02-22T11:31:36.000Z</time>
      </trkpt>
      <trkpt lat="43.80696" lon="7.25101">
        <ele>732.59997558594</ele>
        <time>2020-02-22T11:31:37.000Z</time>
      </trkpt>
      <trkpt lat="43.80691" lon="7.251">
        <ele>731.40002441406</ele>
        <time>2020-02-22T11:31:39.000Z</time>
      </trkpt>
      <trkpt lat="43.80677" lon="7.25103">
        <ele>730.40002441406</ele>
        <time>2020-02-22T11:31:42.000Z</time>
      </trkpt>
      <trkpt lat="43.80671" lon="7.25104">
        <ele>730</ele>
        <time>2020-02-22T11:31:43.000Z</time>
      </trkpt>
      <trkpt lat="43.80661" lon="7.25103">
        <ele>729</ele>
        <time>2020-02-22T11:31:45.000Z</time>
      </trkpt>
      <trkpt lat="43.80653" lon="7.25103">
        <ele>728.59997558594</ele>
        <time>2020-02-22T11:31:47.000Z</time>
      </trkpt>
      <trkpt lat="43.8064" lon="7.25108">
        <ele>730.20001220703</ele>
        <time>2020-02-22T11:31:52.000Z</time>
      </trkpt>
      <trkpt lat="43.80632" lon="7.25113">
        <ele>731.20001220703</ele>
        <time>2020-02-22T11:31:55.000Z</time>
      </trkpt>
      <trkpt lat="43.80623" lon="7.25116">
        <ele>731.79998779297</ele>
        <time>2020-02-22T11:31:57.000Z</time>
      </trkpt>
      <trkpt lat="43.80592" lon="7.25122">
        <ele>730.40002441406</ele>
        <time>2020-02-22T11:32:03.000Z</time>
      </trkpt>
      <trkpt lat="43.80576" lon="7.25123">
        <ele>730.20001220703</ele>
        <time>2020-02-22T11:32:06.000Z</time>
      </trkpt>
      <trkpt lat="43.80558" lon="7.25123">
        <ele>729.20001220703</ele>
        <time>2020-02-22T11:32:09.000Z</time>
      </trkpt>
      <trkpt lat="43.80552" lon="7.25125">
        <ele>729</ele>
        <time>2020-02-22T11:32:10.000Z</time>
      </trkpt>
      <trkpt lat="43.80533" lon="7.25126">
        <ele>727.59997558594</ele>
        <time>2020-02-22T11:32:13.000Z</time>
      </trkpt>
      <trkpt lat="43.80522" lon="7.2513">
        <ele>726.59997558594</ele>
        <time>2020-02-22T11:32:15.000Z</time>
      </trkpt>
      <trkpt lat="43.80517" lon="7.25132">
        <ele>726</ele>
        <time>2020-02-22T11:32:16.000Z</time>
      </trkpt>
      <trkpt lat="43.80513" lon="7.25133">
        <ele>725.79998779297</ele>
        <time>2020-02-22T11:32:17.000Z</time>
      </trkpt>
      <trkpt lat="43.80502" lon="7.25134">
        <ele>725.59997558594</ele>
        <time>2020-02-22T11:32:19.000Z</time>
      </trkpt>
      <trkpt lat="43.80493" lon="7.25137">
        <ele>726.20001220703</ele>
        <time>2020-02-22T11:32:21.000Z</time>
      </trkpt>
      <trkpt lat="43.80484" lon="7.2514">
        <ele>727</ele>
        <time>2020-02-22T11:32:23.000Z</time>
      </trkpt>
      <trkpt lat="43.80476" lon="7.25143">
        <ele>727.20001220703</ele>
        <time>2020-02-22T11:32:25.000Z</time>
      </trkpt>
      <trkpt lat="43.80472" lon="7.25145">
        <ele>727.40002441406</ele>
        <time>2020-02-22T11:32:26.000Z</time>
      </trkpt>
      <trkpt lat="43.80448" lon="7.25153">
        <ele>727.59997558594</ele>
        <time>2020-02-22T11:32:31.000Z</time>
      </trkpt>
      <trkpt lat="43.80416" lon="7.25161">
        <ele>727.20001220703</ele>
        <time>2020-02-22T11:32:37.000Z</time>
      </trkpt>
      <trkpt lat="43.8041" lon="7.25164">
        <ele>727</ele>
        <time>2020-02-22T11:32:38.000Z</time>
      </trkpt>
      <trkpt lat="43.8039" lon="7.2517">
        <ele>725.59997558594</ele>
        <time>2020-02-22T11:32:41.000Z</time>
      </trkpt>
      <trkpt lat="43.8038" lon="7.2517">
        <ele>723.59997558594</ele>
        <time>2020-02-22T11:32:43.000Z</time>
      </trkpt>
      <trkpt lat="43.80374" lon="7.25172">
        <ele>722.79998779297</ele>
        <time>2020-02-22T11:32:44.000Z</time>
      </trkpt>
      <trkpt lat="43.80367" lon="7.25172">
        <ele>721.59997558594</ele>
        <time>2020-02-22T11:32:45.000Z</time>
      </trkpt>
      <trkpt lat="43.80361" lon="7.25172">
        <ele>720.79998779297</ele>
        <time>2020-02-22T11:32:46.000Z</time>
      </trkpt>
      <trkpt lat="43.80353" lon="7.25172">
        <ele>720.20001220703</ele>
        <time>2020-02-22T11:32:47.000Z</time>
      </trkpt>
      <trkpt lat="43.80345" lon="7.25171">
        <ele>719</ele>
        <time>2020-02-22T11:32:48.000Z</time>
      </trkpt>
      <trkpt lat="43.80337" lon="7.2517">
        <ele>717.59997558594</ele>
        <time>2020-02-22T11:32:49.000Z</time>
      </trkpt>
      <trkpt lat="43.80329" lon="7.25169">
        <ele>716.59997558594</ele>
        <time>2020-02-22T11:32:50.000Z</time>
      </trkpt>
      <trkpt lat="43.80312" lon="7.25165">
        <ele>714.79998779297</ele>
        <time>2020-02-22T11:32:52.000Z</time>
      </trkpt>
      <trkpt lat="43.80304" lon="7.25161">
        <ele>714</ele>
        <time>2020-02-22T11:32:53.000Z</time>
      </trkpt>
      <trkpt lat="43.80297" lon="7.25156">
        <ele>713.20001220703</ele>
        <time>2020-02-22T11:32:54.000Z</time>
      </trkpt>
      <trkpt lat="43.80283" lon="7.25149">
        <ele>712</ele>
        <time>2020-02-22T11:32:56.000Z</time>
      </trkpt>
      <trkpt lat="43.80276" lon="7.25144">
        <ele>711.59997558594</ele>
        <time>2020-02-22T11:32:57.000Z</time>
      </trkpt>
      <trkpt lat="43.80268" lon="7.25135">
        <ele>711.79998779297</ele>
        <time>2020-02-22T11:32:59.000Z</time>
      </trkpt>
      <trkpt lat="43.80267" lon="7.25131">
        <ele>712</ele>
        <time>2020-02-22T11:33:00.000Z</time>
      </trkpt>
      <trkpt lat="43.80258" lon="7.2512">
        <ele>713.40002441406</ele>
        <time>2020-02-22T11:33:04.000Z</time>
      </trkpt>
      <trkpt lat="43.80249" lon="7.25111">
        <ele>714.59997558594</ele>
        <time>2020-02-22T11:33:06.000Z</time>
      </trkpt>
      <trkpt lat="43.80239" lon="7.25102">
        <ele>715</ele>
        <time>2020-02-22T11:33:08.000Z</time>
      </trkpt>
      <trkpt lat="43.80231" lon="7.25092">
        <ele>714.59997558594</ele>
        <time>2020-02-22T11:33:10.000Z</time>
      </trkpt>
      <trkpt lat="43.80218" lon="7.25075">
        <ele>713.79998779297</ele>
        <time>2020-02-22T11:33:13.000Z</time>
      </trkpt>
      <trkpt lat="43.80215" lon="7.25068">
        <ele>713.79998779297</ele>
        <time>2020-02-22T11:33:14.000Z</time>
      </trkpt>
      <trkpt lat="43.80205" lon="7.25042">
        <ele>714</ele>
        <time>2020-02-22T11:33:18.000Z</time>
      </trkpt>
      <trkpt lat="43.80199" lon="7.25026">
        <ele>714.20001220703</ele>
        <time>2020-02-22T11:33:21.000Z</time>
      </trkpt>
      <trkpt lat="43.80194" lon="7.2502">
        <ele>714</ele>
        <time>2020-02-22T11:33:23.000Z</time>
      </trkpt>
      <trkpt lat="43.8019" lon="7.25016">
        <ele>713.20001220703</ele>
        <time>2020-02-22T11:33:24.000Z</time>
      </trkpt>
      <trkpt lat="43.80181" lon="7.25004">
        <ele>711.59997558594</ele>
        <time>2020-02-22T11:33:26.000Z</time>
      </trkpt>
      <trkpt lat="43.80177" lon="7.24999">
        <ele>710.20001220703</ele>
        <time>2020-02-22T11:33:27.000Z</time>
      </trkpt>
      <trkpt lat="43.80172" lon="7.24994">
        <ele>708.79998779297</ele>
        <time>2020-02-22T11:33:28.000Z</time>
      </trkpt>
      <trkpt lat="43.80168" lon="7.2499">
        <ele>707.79998779297</ele>
        <time>2020-02-22T11:33:29.000Z</time>
      </trkpt>
      <trkpt lat="43.80165" lon="7.24985">
        <ele>706.79998779297</ele>
        <time>2020-02-22T11:33:30.000Z</time>
      </trkpt>
      <trkpt lat="43.80163" lon="7.24982">
        <ele>705.59997558594</ele>
        <time>2020-02-22T11:33:31.000Z</time>
      </trkpt>
      <trkpt lat="43.80159" lon="7.24983">
        <ele>704</ele>
        <time>2020-02-22T11:33:33.000Z</time>
      </trkpt>
      <trkpt lat="43.80156" lon="7.24983">
        <ele>703.40002441406</ele>
        <time>2020-02-22T11:33:34.000Z</time>
      </trkpt>
      <trkpt lat="43.80148" lon="7.24979">
        <ele>703.20001220703</ele>
        <time>2020-02-22T11:33:36.000Z</time>
      </trkpt>
      <trkpt lat="43.80143" lon="7.24981">
        <ele>702.20001220703</ele>
        <time>2020-02-22T11:33:37.000Z</time>
      </trkpt>
      <trkpt lat="43.80138" lon="7.24981">
        <ele>701.79998779297</ele>
        <time>2020-02-22T11:33:38.000Z</time>
      </trkpt>
      <trkpt lat="43.80133" lon="7.2498">
        <ele>701</ele>
        <time>2020-02-22T11:33:39.000Z</time>
      </trkpt>
      <trkpt lat="43.80124" lon="7.24973">
        <ele>699.79998779297</ele>
        <time>2020-02-22T11:33:41.000Z</time>
      </trkpt>
      <trkpt lat="43.80121" lon="7.24968">
        <ele>699.79998779297</ele>
        <time>2020-02-22T11:33:42.000Z</time>
      </trkpt>
      <trkpt lat="43.80113" lon="7.24953">
        <ele>699.79998779297</ele>
        <time>2020-02-22T11:33:45.000Z</time>
      </trkpt>
      <trkpt lat="43.8011" lon="7.24946">
        <ele>700</ele>
        <time>2020-02-22T11:33:46.000Z</time>
      </trkpt>
      <trkpt lat="43.801" lon="7.24927">
        <ele>700</ele>
        <time>2020-02-22T11:33:49.000Z</time>
      </trkpt>
      <trkpt lat="43.80091" lon="7.24917">
        <ele>699.79998779297</ele>
        <time>2020-02-22T11:33:51.000Z</time>
      </trkpt>
      <trkpt lat="43.80089" lon="7.24911">
        <ele>699.40002441406</ele>
        <time>2020-02-22T11:33:52.000Z</time>
      </trkpt>
      <trkpt lat="43.80086" lon="7.249">
        <ele>699.20001220703</ele>
        <time>2020-02-22T11:33:54.000Z</time>
      </trkpt>
      <trkpt lat="43.80079" lon="7.24878">
        <ele>699</ele>
        <time>2020-02-22T11:33:57.000Z</time>
      </trkpt>
      <trkpt lat="43.80076" lon="7.24869">
        <ele>698.40002441406</ele>
        <time>2020-02-22T11:33:58.000Z</time>
      </trkpt>
      <trkpt lat="43.80073" lon="7.2485">
        <ele>696.59997558594</ele>
        <time>2020-02-22T11:34:00.000Z</time>
      </trkpt>
      <trkpt lat="43.80073" lon="7.24842">
        <ele>695.59997558594</ele>
        <time>2020-02-22T11:34:01.000Z</time>
      </trkpt>
      <trkpt lat="43.80074" lon="7.24835">
        <ele>694.79998779297</ele>
        <time>2020-02-22T11:34:02.000Z</time>
      </trkpt>
      <trkpt lat="43.80076" lon="7.24827">
        <ele>694.40002441406</ele>
        <time>2020-02-22T11:34:03.000Z</time>
      </trkpt>
      <trkpt lat="43.80076" lon="7.24805">
        <ele>694.59997558594</ele>
        <time>2020-02-22T11:34:06.000Z</time>
      </trkpt>
      <trkpt lat="43.80071" lon="7.24777">
        <ele>693.20001220703</ele>
        <time>2020-02-22T11:34:10.000Z</time>
      </trkpt>
      <trkpt lat="43.80069" lon="7.24763">
        <ele>691.79998779297</ele>
        <time>2020-02-22T11:34:12.000Z</time>
      </trkpt>
      <trkpt lat="43.80069" lon="7.24759">
        <ele>690.20001220703</ele>
        <time>2020-02-22T11:34:13.000Z</time>
      </trkpt>
      <trkpt lat="43.80067" lon="7.24755">
        <ele>689.20001220703</ele>
        <time>2020-02-22T11:34:14.000Z</time>
      </trkpt>
      <trkpt lat="43.80063" lon="7.24743">
        <ele>687.79998779297</ele>
        <time>2020-02-22T11:34:16.000Z</time>
      </trkpt>
      <trkpt lat="43.80062" lon="7.24735">
        <ele>687.40002441406</ele>
        <time>2020-02-22T11:34:17.000Z</time>
      </trkpt>
      <trkpt lat="43.80058" lon="7.2472">
        <ele>686.79998779297</ele>
        <time>2020-02-22T11:34:19.000Z</time>
      </trkpt>
      <trkpt lat="43.80052" lon="7.24706">
        <ele>685</ele>
        <time>2020-02-22T11:34:21.000Z</time>
      </trkpt>
      <trkpt lat="43.80047" lon="7.247">
        <ele>684.20001220703</ele>
        <time>2020-02-22T11:34:22.000Z</time>
      </trkpt>
      <trkpt lat="43.80044" lon="7.24692">
        <ele>683</ele>
        <time>2020-02-22T11:34:23.000Z</time>
      </trkpt>
      <trkpt lat="43.80042" lon="7.24683">
        <ele>681.59997558594</ele>
        <time>2020-02-22T11:34:24.000Z</time>
      </trkpt>
      <trkpt lat="43.8004" lon="7.24677">
        <ele>680.59997558594</ele>
        <time>2020-02-22T11:34:25.000Z</time>
      </trkpt>
      <trkpt lat="43.80038" lon="7.24672">
        <ele>679.40002441406</ele>
        <time>2020-02-22T11:34:26.000Z</time>
      </trkpt>
      <trkpt lat="43.80034" lon="7.24671">
        <ele>678.40002441406</ele>
        <time>2020-02-22T11:34:27.000Z</time>
      </trkpt>
      <trkpt lat="43.80031" lon="7.24673">
        <ele>678</ele>
        <time>2020-02-22T11:34:28.000Z</time>
      </trkpt>
      <trkpt lat="43.80026" lon="7.2468">
        <ele>678.40002441406</ele>
        <time>2020-02-22T11:34:30.000Z</time>
      </trkpt>
      <trkpt lat="43.8002" lon="7.24681">
        <ele>679.20001220703</ele>
        <time>2020-02-22T11:34:32.000Z</time>
      </trkpt>
      <trkpt lat="43.80018" lon="7.24681">
        <ele>679.40002441406</ele>
        <time>2020-02-22T11:34:33.000Z</time>
      </trkpt>
      <trkpt lat="43.80013" lon="7.24678">
        <ele>680.20001220703</ele>
        <time>2020-02-22T11:34:36.000Z</time>
      </trkpt>
      <trkpt lat="43.80013" lon="7.24678">
        <ele>680.59997558594</ele>
        <time>2020-02-22T11:34:37.000Z</time>
      </trkpt>
      <trkpt lat="43.80011" lon="7.24678">
        <ele>681.59997558594</ele>
        <time>2020-02-22T11:34:40.000Z</time>
      </trkpt>
      <trkpt lat="43.80003" lon="7.24682">
        <ele>682.40002441406</ele>
        <time>2020-02-22T11:34:45.000Z</time>
      </trkpt>
      <trkpt lat="43.8" lon="7.24684">
        <ele>682.79998779297</ele>
        <time>2020-02-22T11:34:47.000Z</time>
      </trkpt>
      <trkpt lat="43.79995" lon="7.24685">
        <ele>683.79998779297</ele>
        <time>2020-02-22T11:34:50.000Z</time>
      </trkpt>
      <trkpt lat="43.79994" lon="7.24685">
        <ele>684.20001220703</ele>
        <time>2020-02-22T11:34:51.000Z</time>
      </trkpt>
      <trkpt lat="43.79989" lon="7.24686">
        <ele>684.79998779297</ele>
        <time>2020-02-22T11:34:53.000Z</time>
      </trkpt>
      <trkpt lat="43.79984" lon="7.24686">
        <ele>685.40002441406</ele>
        <time>2020-02-22T11:34:55.000Z</time>
      </trkpt>
      <trkpt lat="43.79976" lon="7.24685">
        <ele>685.79998779297</ele>
        <time>2020-02-22T11:34:59.000Z</time>
      </trkpt>
      <trkpt lat="43.79972" lon="7.24686">
        <ele>686.20001220703</ele>
        <time>2020-02-22T11:35:01.000Z</time>
      </trkpt>
      <trkpt lat="43.79964" lon="7.24689">
        <ele>687</ele>
        <time>2020-02-22T11:35:05.000Z</time>
      </trkpt>
      <trkpt lat="43.79959" lon="7.2469">
        <ele>687.20001220703</ele>
        <time>2020-02-22T11:35:07.000Z</time>
      </trkpt>
      <trkpt lat="43.79949" lon="7.24693">
        <ele>688.20001220703</ele>
        <time>2020-02-22T11:35:12.000Z</time>
      </trkpt>
      <trkpt lat="43.79946" lon="7.24693">
        <ele>688.40002441406</ele>
        <time>2020-02-22T11:35:13.000Z</time>
      </trkpt>
      <trkpt lat="43.79945" lon="7.24695">
        <ele>688.59997558594</ele>
        <time>2020-02-22T11:35:14.000Z</time>
      </trkpt>
      <trkpt lat="43.79941" lon="7.24696">
        <ele>689.20001220703</ele>
        <time>2020-02-22T11:35:16.000Z</time>
      </trkpt>
      <trkpt lat="43.79939" lon="7.24697">
        <ele>689.40002441406</ele>
        <time>2020-02-22T11:35:17.000Z</time>
      </trkpt>
      <trkpt lat="43.79932" lon="7.24698">
        <ele>690.20001220703</ele>
        <time>2020-02-22T11:35:20.000Z</time>
      </trkpt>
      <trkpt lat="43.79929" lon="7.24699">
        <ele>690.79998779297</ele>
        <time>2020-02-22T11:35:22.000Z</time>
      </trkpt>
      <trkpt lat="43.79925" lon="7.24701">
        <ele>691.40002441406</ele>
        <time>2020-02-22T11:35:24.000Z</time>
      </trkpt>
      <trkpt lat="43.79919" lon="7.24703">
        <ele>692.20001220703</ele>
        <time>2020-02-22T11:35:27.000Z</time>
      </trkpt>
      <trkpt lat="43.79916" lon="7.24704">
        <ele>692.40002441406</ele>
        <time>2020-02-22T11:35:29.000Z</time>
      </trkpt>
      <trkpt lat="43.79909" lon="7.24705">
        <ele>693</ele>
        <time>2020-02-22T11:35:32.000Z</time>
      </trkpt>
      <trkpt lat="43.79901" lon="7.24708">
        <ele>693.40002441406</ele>
        <time>2020-02-22T11:35:36.000Z</time>
      </trkpt>
      <trkpt lat="43.79898" lon="7.24708">
        <ele>693.79998779297</ele>
        <time>2020-02-22T11:35:37.000Z</time>
      </trkpt>
      <trkpt lat="43.79893" lon="7.24709">
        <ele>694.79998779297</ele>
        <time>2020-02-22T11:35:40.000Z</time>
      </trkpt>
      <trkpt lat="43.79891" lon="7.2471">
        <ele>695.40002441406</ele>
        <time>2020-02-22T11:35:42.000Z</time>
      </trkpt>
      <trkpt lat="43.79888" lon="7.24712">
        <ele>696</ele>
        <time>2020-02-22T11:35:44.000Z</time>
      </trkpt>
      <trkpt lat="43.79885" lon="7.24712">
        <ele>696</ele>
        <time>2020-02-22T11:35:45.000Z</time>
      </trkpt>
      <trkpt lat="43.79884" lon="7.24712">
        <ele>696.20001220703</ele>
        <time>2020-02-22T11:35:46.000Z</time>
      </trkpt>
      <trkpt lat="43.79878" lon="7.24714">
        <ele>696.59997558594</ele>
        <time>2020-02-22T11:35:49.000Z</time>
      </trkpt>
      <trkpt lat="43.79874" lon="7.24715">
        <ele>697</ele>
        <time>2020-02-22T11:35:51.000Z</time>
      </trkpt>
      <trkpt lat="43.79867" lon="7.24718">
        <ele>697.59997558594</ele>
        <time>2020-02-22T11:35:55.000Z</time>
      </trkpt>
      <trkpt lat="43.79865" lon="7.24719">
        <ele>698.20001220703</ele>
        <time>2020-02-22T11:35:57.000Z</time>
      </trkpt>
      <trkpt lat="43.79862" lon="7.2472">
        <ele>699</ele>
        <time>2020-02-22T11:36:00.000Z</time>
      </trkpt>
      <trkpt lat="43.7986" lon="7.24722">
        <ele>699.20001220703</ele>
        <time>2020-02-22T11:36:01.000Z</time>
      </trkpt>
      <trkpt lat="43.79851" lon="7.2473">
        <ele>699.59997558594</ele>
        <time>2020-02-22T11:36:05.000Z</time>
      </trkpt>
      <trkpt lat="43.79837" lon="7.2474">
        <ele>700.40002441406</ele>
        <time>2020-02-22T11:36:11.000Z</time>
      </trkpt>
      <trkpt lat="43.79825" lon="7.24749">
        <ele>701.40002441406</ele>
        <time>2020-02-22T11:36:16.000Z</time>
      </trkpt>
      <trkpt lat="43.79823" lon="7.24751">
        <ele>701.79998779297</ele>
        <time>2020-02-22T11:36:17.000Z</time>
      </trkpt>
      <trkpt lat="43.79817" lon="7.24756">
        <ele>702.40002441406</ele>
        <time>2020-02-22T11:36:20.000Z</time>
      </trkpt>
      <trkpt lat="43.79813" lon="7.24757">
        <ele>703.20001220703</ele>
        <time>2020-02-22T11:36:22.000Z</time>
      </trkpt>
      <trkpt lat="43.79811" lon="7.24757">
        <ele>703.59997558594</ele>
        <time>2020-02-22T11:36:23.000Z</time>
      </trkpt>
      <trkpt lat="43.79803" lon="7.24763">
        <ele>705</ele>
        <time>2020-02-22T11:36:26.000Z</time>
      </trkpt>
      <trkpt lat="43.798" lon="7.24765">
        <ele>705.20001220703</ele>
        <time>2020-02-22T11:36:27.000Z</time>
      </trkpt>
      <trkpt lat="43.7979" lon="7.24771">
        <ele>705.40002441406</ele>
        <time>2020-02-22T11:36:33.000Z</time>
      </trkpt>
      <trkpt lat="43.7979" lon="7.24772">
        <ele>705.59997558594</ele>
        <time>2020-02-22T11:36:43.000Z</time>
      </trkpt>
      <trkpt lat="43.7979" lon="7.24774">
        <ele>705.59997558594</ele>
        <time>2020-02-22T11:37:04.000Z</time>
      </trkpt>
      <trkpt lat="43.79791" lon="7.24774">
        <ele>705.59997558594</ele>
        <time>2020-02-22T11:37:23.000Z</time>
      </trkpt>
      <trkpt lat="43.7979" lon="7.24776">
        <ele>706</ele>
        <time>2020-02-22T11:37:47.000Z</time>
      </trkpt>
      <trkpt lat="43.79791" lon="7.24776">
        <ele>706</ele>
        <time>2020-02-22T11:37:48.000Z</time>
      </trkpt>
      <trkpt lat="43.7979" lon="7.24776">
        <ele>706</ele>
        <time>2020-02-22T11:38:10.000Z</time>
      </trkpt>
      <trkpt lat="43.79791" lon="7.24776">
        <ele>706</ele>
        <time>2020-02-22T11:38:29.000Z</time>
      </trkpt>
      <trkpt lat="43.79791" lon="7.24775">
        <ele>706</ele>
        <time>2020-02-22T11:38:54.000Z</time>
      </trkpt>
      <trkpt lat="43.79791" lon="7.24775">
        <ele>706</ele>
        <time>2020-02-22T11:39:24.000Z</time>
      </trkpt>
      <trkpt lat="43.79792" lon="7.24775">
        <ele>706</ele>
        <time>2020-02-22T11:39:55.000Z</time>
      </trkpt>
      <trkpt lat="43.79789" lon="7.24776">
        <ele>706.20001220703</ele>
        <time>2020-02-22T11:40:18.000Z</time>
      </trkpt>
      <trkpt lat="43.79779" lon="7.24783">
        <ele>705.79998779297</ele>
        <time>2020-02-22T11:40:24.000Z</time>
      </trkpt>
      <trkpt lat="43.79756" lon="7.24793">
        <ele>705</ele>
        <time>2020-02-22T11:40:31.000Z</time>
      </trkpt>
      <trkpt lat="43.79752" lon="7.24795">
        <ele>704.79998779297</ele>
        <time>2020-02-22T11:40:32.000Z</time>
      </trkpt>
      <trkpt lat="43.79743" lon="7.24799">
        <ele>704.20001220703</ele>
        <time>2020-02-22T11:40:34.000Z</time>
      </trkpt>
      <trkpt lat="43.79732" lon="7.24806">
        <ele>703.40002441406</ele>
        <time>2020-02-22T11:40:36.000Z</time>
      </trkpt>
      <trkpt lat="43.79727" lon="7.2481">
        <ele>703</ele>
        <time>2020-02-22T11:40:37.000Z</time>
      </trkpt>
      <trkpt lat="43.79716" lon="7.24821">
        <ele>701.79998779297</ele>
        <time>2020-02-22T11:40:39.000Z</time>
      </trkpt>
      <trkpt lat="43.79711" lon="7.24827">
        <ele>701.20001220703</ele>
        <time>2020-02-22T11:40:40.000Z</time>
      </trkpt>
      <trkpt lat="43.79699" lon="7.2484">
        <ele>700.20001220703</ele>
        <time>2020-02-22T11:40:42.000Z</time>
      </trkpt>
      <trkpt lat="43.79689" lon="7.24854">
        <ele>699.20001220703</ele>
        <time>2020-02-22T11:40:44.000Z</time>
      </trkpt>
      <trkpt lat="43.79679" lon="7.24867">
        <ele>697.40002441406</ele>
        <time>2020-02-22T11:40:46.000Z</time>
      </trkpt>
      <trkpt lat="43.79668" lon="7.24877">
        <ele>695.40002441406</ele>
        <time>2020-02-22T11:40:48.000Z</time>
      </trkpt>
      <trkpt lat="43.79657" lon="7.24887">
        <ele>694</ele>
        <time>2020-02-22T11:40:50.000Z</time>
      </trkpt>
      <trkpt lat="43.7965" lon="7.24893">
        <ele>693.20001220703</ele>
        <time>2020-02-22T11:40:51.000Z</time>
      </trkpt>
      <trkpt lat="43.79642" lon="7.24898">
        <ele>691.79998779297</ele>
        <time>2020-02-22T11:40:52.000Z</time>
      </trkpt>
      <trkpt lat="43.79636" lon="7.24901">
        <ele>691.20001220703</ele>
        <time>2020-02-22T11:40:53.000Z</time>
      </trkpt>
      <trkpt lat="43.79628" lon="7.24903">
        <ele>690.20001220703</ele>
        <time>2020-02-22T11:40:54.000Z</time>
      </trkpt>
      <trkpt lat="43.7962" lon="7.24904">
        <ele>689.20001220703</ele>
        <time>2020-02-22T11:40:55.000Z</time>
      </trkpt>
      <trkpt lat="43.79601" lon="7.24905">
        <ele>687.59997558594</ele>
        <time>2020-02-22T11:40:57.000Z</time>
      </trkpt>
      <trkpt lat="43.79592" lon="7.24905">
        <ele>686.59997558594</ele>
        <time>2020-02-22T11:40:58.000Z</time>
      </trkpt>
      <trkpt lat="43.79571" lon="7.24903">
        <ele>684.59997558594</ele>
        <time>2020-02-22T11:41:00.000Z</time>
      </trkpt>
      <trkpt lat="43.79561" lon="7.24902">
        <ele>683.20001220703</ele>
        <time>2020-02-22T11:41:01.000Z</time>
      </trkpt>
      <trkpt lat="43.79542" lon="7.24902">
        <ele>681.20001220703</ele>
        <time>2020-02-22T11:41:03.000Z</time>
      </trkpt>
      <trkpt lat="43.79525" lon="7.24901">
        <ele>680</ele>
        <time>2020-02-22T11:41:05.000Z</time>
      </trkpt>
      <trkpt lat="43.79506" lon="7.24897">
        <ele>679.40002441406</ele>
        <time>2020-02-22T11:41:07.000Z</time>
      </trkpt>
      <trkpt lat="43.79497" lon="7.24894">
        <ele>678.59997558594</ele>
        <time>2020-02-22T11:41:08.000Z</time>
      </trkpt>
      <trkpt lat="43.79481" lon="7.24889">
        <ele>677.40002441406</ele>
        <time>2020-02-22T11:41:10.000Z</time>
      </trkpt>
      <trkpt lat="43.79463" lon="7.24881">
        <ele>675.59997558594</ele>
        <time>2020-02-22T11:41:12.000Z</time>
      </trkpt>
      <trkpt lat="43.79411" lon="7.24853">
        <ele>675.20001220703</ele>
        <time>2020-02-22T11:41:19.000Z</time>
      </trkpt>
      <trkpt lat="43.79405" lon="7.2485">
        <ele>674.79998779297</ele>
        <time>2020-02-22T11:41:20.000Z</time>
      </trkpt>
      <trkpt lat="43.79399" lon="7.24847">
        <ele>674.40002441406</ele>
        <time>2020-02-22T11:41:21.000Z</time>
      </trkpt>
      <trkpt lat="43.79391" lon="7.24845">
        <ele>674.20001220703</ele>
        <time>2020-02-22T11:41:23.000Z</time>
      </trkpt>
      <trkpt lat="43.7938" lon="7.24841">
        <ele>675.59997558594</ele>
        <time>2020-02-22T11:41:26.000Z</time>
      </trkpt>
      <trkpt lat="43.79368" lon="7.24837">
        <ele>676.20001220703</ele>
        <time>2020-02-22T11:41:29.000Z</time>
      </trkpt>
      <trkpt lat="43.79364" lon="7.24835">
        <ele>676.20001220703</ele>
        <time>2020-02-22T11:41:30.000Z</time>
      </trkpt>
      <trkpt lat="43.79347" lon="7.24835">
        <ele>676.59997558594</ele>
        <time>2020-02-22T11:41:34.000Z</time>
      </trkpt>
      <trkpt lat="43.79332" lon="7.24829">
        <ele>675.40002441406</ele>
        <time>2020-02-22T11:41:39.000Z</time>
      </trkpt>
      <trkpt lat="43.79331" lon="7.24828">
        <ele>674</ele>
        <time>2020-02-22T11:41:41.000Z</time>
      </trkpt>
      <trkpt lat="43.79325" lon="7.24827">
        <ele>673.40002441406</ele>
        <time>2020-02-22T11:41:43.000Z</time>
      </trkpt>
      <trkpt lat="43.79313" lon="7.24819">
        <ele>673</ele>
        <time>2020-02-22T11:41:47.000Z</time>
      </trkpt>
      <trkpt lat="43.79309" lon="7.24817">
        <ele>672.79998779297</ele>
        <time>2020-02-22T11:41:48.000Z</time>
      </trkpt>
      <trkpt lat="43.79301" lon="7.2481">
        <ele>672.40002441406</ele>
        <time>2020-02-22T11:41:50.000Z</time>
      </trkpt>
      <trkpt lat="43.79296" lon="7.248">
        <ele>671.79998779297</ele>
        <time>2020-02-22T11:41:52.000Z</time>
      </trkpt>
      <trkpt lat="43.7928" lon="7.24786">
        <ele>671.20001220703</ele>
        <time>2020-02-22T11:41:57.000Z</time>
      </trkpt>
      <trkpt lat="43.79275" lon="7.24784">
        <ele>671</ele>
        <time>2020-02-22T11:41:58.000Z</time>
      </trkpt>
      <trkpt lat="43.7927" lon="7.24783">
        <ele>670.59997558594</ele>
        <time>2020-02-22T11:41:59.000Z</time>
      </trkpt>
      <trkpt lat="43.79256" lon="7.24781">
        <ele>669</ele>
        <time>2020-02-22T11:42:01.000Z</time>
      </trkpt>
      <trkpt lat="43.79249" lon="7.2478">
        <ele>667.40002441406</ele>
        <time>2020-02-22T11:42:02.000Z</time>
      </trkpt>
      <trkpt lat="43.79241" lon="7.24778">
        <ele>666.20001220703</ele>
        <time>2020-02-22T11:42:03.000Z</time>
      </trkpt>
      <trkpt lat="43.79234" lon="7.24777">
        <ele>664.59997558594</ele>
        <time>2020-02-22T11:42:04.000Z</time>
      </trkpt>
      <trkpt lat="43.7922" lon="7.24774">
        <ele>663</ele>
        <time>2020-02-22T11:42:06.000Z</time>
      </trkpt>
      <trkpt lat="43.79213" lon="7.24771">
        <ele>662.59997558594</ele>
        <time>2020-02-22T11:42:07.000Z</time>
      </trkpt>
      <trkpt lat="43.79207" lon="7.24766">
        <ele>662</ele>
        <time>2020-02-22T11:42:08.000Z</time>
      </trkpt>
      <trkpt lat="43.79192" lon="7.24754">
        <ele>662</ele>
        <time>2020-02-22T11:42:11.000Z</time>
      </trkpt>
      <trkpt lat="43.79187" lon="7.2475">
        <ele>660.59997558594</ele>
        <time>2020-02-22T11:42:12.000Z</time>
      </trkpt>
      <trkpt lat="43.79183" lon="7.24749">
        <ele>659.79998779297</ele>
        <time>2020-02-22T11:42:13.000Z</time>
      </trkpt>
      <trkpt lat="43.79178" lon="7.24749">
        <ele>659.20001220703</ele>
        <time>2020-02-22T11:42:14.000Z</time>
      </trkpt>
      <trkpt lat="43.79174" lon="7.24748">
        <ele>658</ele>
        <time>2020-02-22T11:42:15.000Z</time>
      </trkpt>
      <trkpt lat="43.79167" lon="7.24747">
        <ele>656.79998779297</ele>
        <time>2020-02-22T11:42:17.000Z</time>
      </trkpt>
      <trkpt lat="43.79159" lon="7.24747">
        <ele>655.79998779297</ele>
        <time>2020-02-22T11:42:19.000Z</time>
      </trkpt>
      <trkpt lat="43.79149" lon="7.24746">
        <ele>654.20001220703</ele>
        <time>2020-02-22T11:42:22.000Z</time>
      </trkpt>
      <trkpt lat="43.79144" lon="7.24748">
        <ele>653</ele>
        <time>2020-02-22T11:42:24.000Z</time>
      </trkpt>
      <trkpt lat="43.79135" lon="7.2475">
        <ele>651.79998779297</ele>
        <time>2020-02-22T11:42:27.000Z</time>
      </trkpt>
      <trkpt lat="43.7913" lon="7.24751">
        <ele>650.79998779297</ele>
        <time>2020-02-22T11:42:29.000Z</time>
      </trkpt>
      <trkpt lat="43.79128" lon="7.24751">
        <ele>650.40002441406</ele>
        <time>2020-02-22T11:42:30.000Z</time>
      </trkpt>
      <trkpt lat="43.79119" lon="7.24752">
        <ele>649</ele>
        <time>2020-02-22T11:42:33.000Z</time>
      </trkpt>
      <trkpt lat="43.79114" lon="7.24753">
        <ele>648.59997558594</ele>
        <time>2020-02-22T11:42:34.000Z</time>
      </trkpt>
      <trkpt lat="43.7911" lon="7.24754">
        <ele>648.20001220703</ele>
        <time>2020-02-22T11:42:35.000Z</time>
      </trkpt>
      <trkpt lat="43.79105" lon="7.24754">
        <ele>647.59997558594</ele>
        <time>2020-02-22T11:42:36.000Z</time>
      </trkpt>
      <trkpt lat="43.79099" lon="7.24757">
        <ele>646.40002441406</ele>
        <time>2020-02-22T11:42:38.000Z</time>
      </trkpt>
      <trkpt lat="43.79089" lon="7.24762">
        <ele>645</ele>
        <time>2020-02-22T11:42:41.000Z</time>
      </trkpt>
      <trkpt lat="43.79082" lon="7.24763">
        <ele>644</ele>
        <time>2020-02-22T11:42:43.000Z</time>
      </trkpt>
      <trkpt lat="43.79079" lon="7.24765">
        <ele>643.59997558594</ele>
        <time>2020-02-22T11:42:44.000Z</time>
      </trkpt>
      <trkpt lat="43.79074" lon="7.24765">
        <ele>643.40002441406</ele>
        <time>2020-02-22T11:42:45.000Z</time>
      </trkpt>
      <trkpt lat="43.7907" lon="7.24764">
        <ele>642.20001220703</ele>
        <time>2020-02-22T11:42:46.000Z</time>
      </trkpt>
      <trkpt lat="43.79067" lon="7.24764">
        <ele>642</ele>
        <time>2020-02-22T11:42:47.000Z</time>
      </trkpt>
      <trkpt lat="43.79059" lon="7.24764">
        <ele>640.59997558594</ele>
        <time>2020-02-22T11:42:49.000Z</time>
      </trkpt>
      <trkpt lat="43.79051" lon="7.24767">
        <ele>638.40002441406</ele>
        <time>2020-02-22T11:42:51.000Z</time>
      </trkpt>
      <trkpt lat="43.79046" lon="7.24767">
        <ele>637.79998779297</ele>
        <time>2020-02-22T11:42:52.000Z</time>
      </trkpt>
      <trkpt lat="43.79043" lon="7.24766">
        <ele>637.40002441406</ele>
        <time>2020-02-22T11:42:53.000Z</time>
      </trkpt>
      <trkpt lat="43.79033" lon="7.2477">
        <ele>636.20001220703</ele>
        <time>2020-02-22T11:42:55.000Z</time>
      </trkpt>
      <trkpt lat="43.79028" lon="7.24771">
        <ele>635</ele>
        <time>2020-02-22T11:42:56.000Z</time>
      </trkpt>
      <trkpt lat="43.79024" lon="7.24772">
        <ele>634.40002441406</ele>
        <time>2020-02-22T11:42:57.000Z</time>
      </trkpt>
      <trkpt lat="43.7902" lon="7.24773">
        <ele>633.79998779297</ele>
        <time>2020-02-22T11:42:58.000Z</time>
      </trkpt>
      <trkpt lat="43.79016" lon="7.24776">
        <ele>633</ele>
        <time>2020-02-22T11:42:59.000Z</time>
      </trkpt>
      <trkpt lat="43.79006" lon="7.24779">
        <ele>632</ele>
        <time>2020-02-22T11:43:01.000Z</time>
      </trkpt>
      <trkpt lat="43.79002" lon="7.24779">
        <ele>631.59997558594</ele>
        <time>2020-02-22T11:43:02.000Z</time>
      </trkpt>
      <trkpt lat="43.78998" lon="7.24781">
        <ele>630.59997558594</ele>
        <time>2020-02-22T11:43:03.000Z</time>
      </trkpt>
      <trkpt lat="43.78994" lon="7.24782">
        <ele>629.79998779297</ele>
        <time>2020-02-22T11:43:04.000Z</time>
      </trkpt>
      <trkpt lat="43.78993" lon="7.24783">
        <ele>629.59997558594</ele>
        <time>2020-02-22T11:43:05.000Z</time>
      </trkpt>
      <trkpt lat="43.78992" lon="7.24783">
        <ele>628.79998779297</ele>
        <time>2020-02-22T11:43:06.000Z</time>
      </trkpt>
      <trkpt lat="43.7899" lon="7.24783">
        <ele>628</ele>
        <time>2020-02-22T11:43:07.000Z</time>
      </trkpt>
      <trkpt lat="43.7899" lon="7.24782">
        <ele>627.59997558594</ele>
        <time>2020-02-22T11:43:08.000Z</time>
      </trkpt>
      <trkpt lat="43.78986" lon="7.24779">
        <ele>626.79998779297</ele>
        <time>2020-02-22T11:43:10.000Z</time>
      </trkpt>
      <trkpt lat="43.78985" lon="7.24779">
        <ele>626.20001220703</ele>
        <time>2020-02-22T11:43:11.000Z</time>
      </trkpt>
      <trkpt lat="43.78986" lon="7.24779">
        <ele>625.59997558594</ele>
        <time>2020-02-22T11:43:12.000Z</time>
      </trkpt>
      <trkpt lat="43.78985" lon="7.24779">
        <ele>625.20001220703</ele>
        <time>2020-02-22T11:43:14.000Z</time>
      </trkpt>
      <trkpt lat="43.78985" lon="7.2478">
        <ele>624.59997558594</ele>
        <time>2020-02-22T11:43:22.000Z</time>
      </trkpt>
      <trkpt lat="43.78984" lon="7.2478">
        <ele>623.59997558594</ele>
        <time>2020-02-22T11:43:31.000Z</time>
      </trkpt>
      <trkpt lat="43.78984" lon="7.24781">
        <ele>622.59997558594</ele>
        <time>2020-02-22T11:43:42.000Z</time>
      </trkpt>
      <trkpt lat="43.78984" lon="7.24781">
        <ele>622</ele>
        <time>2020-02-22T11:43:46.000Z</time>
      </trkpt>
      <trkpt lat="43.78984" lon="7.24781">
        <ele>621.40002441406</ele>
        <time>2020-02-22T11:43:49.000Z</time>
      </trkpt>
      <trkpt lat="43.78984" lon="7.24781">
        <ele>620.40002441406</ele>
        <time>2020-02-22T11:43:57.000Z</time>
      </trkpt>
      <trkpt lat="43.78984" lon="7.24781">
        <ele>619.40002441406</ele>
        <time>2020-02-22T11:44:04.000Z</time>
      </trkpt>
      <trkpt lat="43.78984" lon="7.24781">
        <ele>618.59997558594</ele>
        <time>2020-02-22T11:44:09.000Z</time>
      </trkpt>
      <trkpt lat="43.78984" lon="7.24781">
        <ele>618.20001220703</ele>
        <time>2020-02-22T11:44:11.000Z</time>
      </trkpt>
      <trkpt lat="43.78983" lon="7.24781">
        <ele>617.20001220703</ele>
        <time>2020-02-22T11:44:20.000Z</time>
      </trkpt>
      <trkpt lat="43.78983" lon="7.24781">
        <ele>617</ele>
        <time>2020-02-22T11:44:32.000Z</time>
      </trkpt>
      <trkpt lat="43.78983" lon="7.24781">
        <ele>617.20001220703</ele>
        <time>2020-02-22T11:44:45.000Z</time>
      </trkpt>
      <trkpt lat="43.78983" lon="7.24781">
        <ele>617.20001220703</ele>
        <time>2020-02-22T11:44:55.000Z</time>
      </trkpt>
      <trkpt lat="43.78983" lon="7.24782">
        <ele>617.20001220703</ele>
        <time>2020-02-22T11:45:02.000Z</time>
      </trkpt>
      <trkpt lat="43.78983" lon="7.24781">
        <ele>617.20001220703</ele>
        <time>2020-02-22T11:45:21.000Z</time>
      </trkpt>
      <trkpt lat="43.78983" lon="7.24781">
        <ele>617.20001220703</ele>
        <time>2020-02-22T11:45:41.000Z</time>
      </trkpt>
      <trkpt lat="43.78983" lon="7.24781">
        <ele>616.79998779297</ele>
        <time>2020-02-22T11:46:13.000Z</time>
      </trkpt>
      <trkpt lat="43.78978" lon="7.24784">
        <ele>616.79998779297</ele>
        <time>2020-02-22T11:46:21.000Z</time>
      </trkpt>
      <trkpt lat="43.78971" lon="7.24789">
        <ele>616.40002441406</ele>
        <time>2020-02-22T11:46:23.000Z</time>
      </trkpt>
      <trkpt lat="43.78962" lon="7.24792">
        <ele>615.59997558594</ele>
        <time>2020-02-22T11:46:25.000Z</time>
      </trkpt>
      <trkpt lat="43.78954" lon="7.24797">
        <ele>614.59997558594</ele>
        <time>2020-02-22T11:46:27.000Z</time>
      </trkpt>
      <trkpt lat="43.78949" lon="7.24803">
        <ele>613.79998779297</ele>
        <time>2020-02-22T11:46:29.000Z</time>
      </trkpt>
      <trkpt lat="43.78947" lon="7.24807">
        <ele>613.59997558594</ele>
        <time>2020-02-22T11:46:30.000Z</time>
      </trkpt>
      <trkpt lat="43.78941" lon="7.24818">
        <ele>613.79998779297</ele>
        <time>2020-02-22T11:46:34.000Z</time>
      </trkpt>
      <trkpt lat="43.78937" lon="7.24828">
        <ele>614.59997558594</ele>
        <time>2020-02-22T11:46:37.000Z</time>
      </trkpt>
      <trkpt lat="43.78931" lon="7.24841">
        <ele>615.79998779297</ele>
        <time>2020-02-22T11:46:41.000Z</time>
      </trkpt>
      <trkpt lat="43.78925" lon="7.24856">
        <ele>616.79998779297</ele>
        <time>2020-02-22T11:46:45.000Z</time>
      </trkpt>
      <trkpt lat="43.7892" lon="7.2487">
        <ele>618</ele>
        <time>2020-02-22T11:46:49.000Z</time>
      </trkpt>
      <trkpt lat="43.78918" lon="7.24873">
        <ele>618.20001220703</ele>
        <time>2020-02-22T11:46:50.000Z</time>
      </trkpt>
      <trkpt lat="43.78915" lon="7.24885">
        <ele>619.20001220703</ele>
        <time>2020-02-22T11:46:53.000Z</time>
      </trkpt>
      <trkpt lat="43.78913" lon="7.24897">
        <ele>619.20001220703</ele>
        <time>2020-02-22T11:46:56.000Z</time>
      </trkpt>
      <trkpt lat="43.78912" lon="7.24909">
        <ele>618.79998779297</ele>
        <time>2020-02-22T11:46:59.000Z</time>
      </trkpt>
      <trkpt lat="43.78917" lon="7.24915">
        <ele>619</ele>
        <time>2020-02-22T11:47:01.000Z</time>
      </trkpt>
      <trkpt lat="43.78925" lon="7.24915">
        <ele>619.59997558594</ele>
        <time>2020-02-22T11:47:04.000Z</time>
      </trkpt>
      <trkpt lat="43.78928" lon="7.24914">
        <ele>619.79998779297</ele>
        <time>2020-02-22T11:47:05.000Z</time>
      </trkpt>
      <trkpt lat="43.78931" lon="7.24914">
        <ele>620.20001220703</ele>
        <time>2020-02-22T11:47:06.000Z</time>
      </trkpt>
      <trkpt lat="43.78938" lon="7.24911">
        <ele>621.40002441406</ele>
        <time>2020-02-22T11:47:09.000Z</time>
      </trkpt>
      <trkpt lat="43.78942" lon="7.24909">
        <ele>622.40002441406</ele>
        <time>2020-02-22T11:47:11.000Z</time>
      </trkpt>
      <trkpt lat="43.78944" lon="7.24908">
        <ele>622.79998779297</ele>
        <time>2020-02-22T11:47:12.000Z</time>
      </trkpt>
      <trkpt lat="43.7895" lon="7.24906">
        <ele>624.20001220703</ele>
        <time>2020-02-22T11:47:16.000Z</time>
      </trkpt>
      <trkpt lat="43.78951" lon="7.24906">
        <ele>624.59997558594</ele>
        <time>2020-02-22T11:47:17.000Z</time>
      </trkpt>
      <trkpt lat="43.78952" lon="7.24904">
        <ele>625</ele>
        <time>2020-02-22T11:47:18.000Z</time>
      </trkpt>
      <trkpt lat="43.78952" lon="7.24903">
        <ele>625.40002441406</ele>
        <time>2020-02-22T11:47:19.000Z</time>
      </trkpt>
      <trkpt lat="43.78953" lon="7.24898">
        <ele>626</ele>
        <time>2020-02-22T11:47:21.000Z</time>
      </trkpt>
      <trkpt lat="43.78955" lon="7.24895">
        <ele>626.40002441406</ele>
        <time>2020-02-22T11:47:23.000Z</time>
      </trkpt>
      <trkpt lat="43.78957" lon="7.24895">
        <ele>626.79998779297</ele>
        <time>2020-02-22T11:47:24.000Z</time>
      </trkpt>
      <trkpt lat="43.7896" lon="7.24897">
        <ele>627.40002441406</ele>
        <time>2020-02-22T11:47:26.000Z</time>
      </trkpt>
      <trkpt lat="43.78962" lon="7.24898">
        <ele>627.59997558594</ele>
        <time>2020-02-22T11:47:27.000Z</time>
      </trkpt>
      <trkpt lat="43.78967" lon="7.249">
        <ele>628.79998779297</ele>
        <time>2020-02-22T11:47:31.000Z</time>
      </trkpt>
      <trkpt lat="43.7897" lon="7.24901">
        <ele>629.40002441406</ele>
        <time>2020-02-22T11:47:34.000Z</time>
      </trkpt>
      <trkpt lat="43.7897" lon="7.24901">
        <ele>629.79998779297</ele>
        <time>2020-02-22T11:47:35.000Z</time>
      </trkpt>
      <trkpt lat="43.78971" lon="7.24901">
        <ele>630.20001220703</ele>
        <time>2020-02-22T11:47:37.000Z</time>
      </trkpt>
      <trkpt lat="43.78972" lon="7.24901">
        <ele>630.79998779297</ele>
        <time>2020-02-22T11:47:44.000Z</time>
      </trkpt>
      <trkpt lat="43.78972" lon="7.24901">
        <ele>630.79998779297</ele>
        <time>2020-02-22T11:47:45.000Z</time>
      </trkpt>
      <trkpt lat="43.78973" lon="7.24901">
        <ele>631.20001220703</ele>
        <time>2020-02-22T11:47:51.000Z</time>
      </trkpt>
      <trkpt lat="43.78973" lon="7.249">
        <ele>631.20001220703</ele>
        <time>2020-02-22T11:47:57.000Z</time>
      </trkpt>
      <trkpt lat="43.78975" lon="7.249">
        <ele>631.59997558594</ele>
        <time>2020-02-22T11:48:03.000Z</time>
      </trkpt>
      <trkpt lat="43.78976" lon="7.249">
        <ele>631.59997558594</ele>
        <time>2020-02-22T11:48:09.000Z</time>
      </trkpt>
      <trkpt lat="43.78976" lon="7.249">
        <ele>631.79998779297</ele>
        <time>2020-02-22T11:48:14.000Z</time>
      </trkpt>
      <trkpt lat="43.78976" lon="7.24901">
        <ele>631.79998779297</ele>
        <time>2020-02-22T11:48:16.000Z</time>
      </trkpt>
      <trkpt lat="43.78976" lon="7.24901">
        <ele>632</ele>
        <time>2020-02-22T11:48:18.000Z</time>
      </trkpt>
      <trkpt lat="43.78976" lon="7.249">
        <ele>631.79998779297</ele>
        <time>2020-02-22T11:48:25.000Z</time>
      </trkpt>
      <trkpt lat="43.78978" lon="7.24899">
        <ele>631.79998779297</ele>
        <time>2020-02-22T11:48:30.000Z</time>
      </trkpt>
      <trkpt lat="43.78987" lon="7.24895">
        <ele>633</ele>
        <time>2020-02-22T11:48:36.000Z</time>
      </trkpt>
      <trkpt lat="43.78993" lon="7.24892">
        <ele>634.20001220703</ele>
        <time>2020-02-22T11:48:39.000Z</time>
      </trkpt>
      <trkpt lat="43.78996" lon="7.2489">
        <ele>635.40002441406</ele>
        <time>2020-02-22T11:48:41.000Z</time>
      </trkpt>
      <trkpt lat="43.79" lon="7.24888">
        <ele>636.59997558594</ele>
        <time>2020-02-22T11:48:43.000Z</time>
      </trkpt>
      <trkpt lat="43.79006" lon="7.24888">
        <ele>637.79998779297</ele>
        <time>2020-02-22T11:48:46.000Z</time>
      </trkpt>
      <trkpt lat="43.7901" lon="7.24889">
        <ele>639.20001220703</ele>
        <time>2020-02-22T11:48:48.000Z</time>
      </trkpt>
      <trkpt lat="43.79014" lon="7.24892">
        <ele>640.40002441406</ele>
        <time>2020-02-22T11:48:50.000Z</time>
      </trkpt>
      <trkpt lat="43.79018" lon="7.24895">
        <ele>641.40002441406</ele>
        <time>2020-02-22T11:48:52.000Z</time>
      </trkpt>
      <trkpt lat="43.79023" lon="7.24899">
        <ele>642.59997558594</ele>
        <time>2020-02-22T11:48:55.000Z</time>
      </trkpt>
      <trkpt lat="43.79027" lon="7.24901">
        <ele>643.59997558594</ele>
        <time>2020-02-22T11:48:57.000Z</time>
      </trkpt>
      <trkpt lat="43.79028" lon="7.24903">
        <ele>644.20001220703</ele>
        <time>2020-02-22T11:48:58.000Z</time>
      </trkpt>
      <trkpt lat="43.79029" lon="7.24904">
        <ele>645</ele>
        <time>2020-02-22T11:48:59.000Z</time>
      </trkpt>
      <trkpt lat="43.79034" lon="7.24907">
        <ele>646.20001220703</ele>
        <time>2020-02-22T11:49:02.000Z</time>
      </trkpt>
      <trkpt lat="43.79037" lon="7.24909">
        <ele>646.59997558594</ele>
        <time>2020-02-22T11:49:04.000Z</time>
      </trkpt>
      <trkpt lat="43.7904" lon="7.24912">
        <ele>647.20001220703</ele>
        <time>2020-02-22T11:49:06.000Z</time>
      </trkpt>
      <trkpt lat="43.79046" lon="7.24919">
        <ele>648.20001220703</ele>
        <time>2020-02-22T11:49:10.000Z</time>
      </trkpt>
      <trkpt lat="43.79048" lon="7.2492">
        <ele>648.59997558594</ele>
        <time>2020-02-22T11:49:11.000Z</time>
      </trkpt>
      <trkpt lat="43.79051" lon="7.24923">
        <ele>649.40002441406</ele>
        <time>2020-02-22T11:49:13.000Z</time>
      </trkpt>
      <trkpt lat="43.79052" lon="7.24925">
        <ele>650.79998779297</ele>
        <time>2020-02-22T11:49:16.000Z</time>
      </trkpt>
      <trkpt lat="43.79052" lon="7.24925">
        <ele>651.20001220703</ele>
        <time>2020-02-22T11:49:22.000Z</time>
      </trkpt>
      <trkpt lat="43.79053" lon="7.24925">
        <ele>651.40002441406</ele>
        <time>2020-02-22T11:49:28.000Z</time>
      </trkpt>
      <trkpt lat="43.79054" lon="7.24926">
        <ele>651.40002441406</ele>
        <time>2020-02-22T11:49:34.000Z</time>
      </trkpt>
      <trkpt lat="43.79055" lon="7.24926">
        <ele>651.79998779297</ele>
        <time>2020-02-22T11:49:38.000Z</time>
      </trkpt>
      <trkpt lat="43.79055" lon="7.24926">
        <ele>651.79998779297</ele>
        <time>2020-02-22T11:49:40.000Z</time>
      </trkpt>
      <trkpt lat="43.79057" lon="7.24927">
        <ele>652.20001220703</ele>
        <time>2020-02-22T11:49:46.000Z</time>
      </trkpt>
      <trkpt lat="43.79058" lon="7.24927">
        <ele>652.20001220703</ele>
        <time>2020-02-22T11:49:47.000Z</time>
      </trkpt>
      <trkpt lat="43.79064" lon="7.24934">
        <ele>652.79998779297</ele>
        <time>2020-02-22T11:49:52.000Z</time>
      </trkpt>
      <trkpt lat="43.79068" lon="7.24938">
        <ele>654</ele>
        <time>2020-02-22T11:49:55.000Z</time>
      </trkpt>
      <trkpt lat="43.79072" lon="7.24944">
        <ele>655</ele>
        <time>2020-02-22T11:49:58.000Z</time>
      </trkpt>
      <trkpt lat="43.79078" lon="7.24957">
        <ele>656.20001220703</ele>
        <time>2020-02-22T11:50:03.000Z</time>
      </trkpt>
      <trkpt lat="43.79079" lon="7.24958">
        <ele>656.79998779297</ele>
        <time>2020-02-22T11:50:04.000Z</time>
      </trkpt>
      <trkpt lat="43.79083" lon="7.24966">
        <ele>657.40002441406</ele>
        <time>2020-02-22T11:50:07.000Z</time>
      </trkpt>
      <trkpt lat="43.79086" lon="7.24974">
        <ele>658.40002441406</ele>
        <time>2020-02-22T11:50:10.000Z</time>
      </trkpt>
      <trkpt lat="43.79086" lon="7.24977">
        <ele>658.79998779297</ele>
        <time>2020-02-22T11:50:11.000Z</time>
      </trkpt>
      <trkpt lat="43.79088" lon="7.24989">
        <ele>659.59997558594</ele>
        <time>2020-02-22T11:50:15.000Z</time>
      </trkpt>
      <trkpt lat="43.79089" lon="7.24991">
        <ele>660</ele>
        <time>2020-02-22T11:50:16.000Z</time>
      </trkpt>
      <trkpt lat="43.79091" lon="7.25002">
        <ele>661</ele>
        <time>2020-02-22T11:50:20.000Z</time>
      </trkpt>
      <trkpt lat="43.79094" lon="7.25005">
        <ele>661.79998779297</ele>
        <time>2020-02-22T11:50:22.000Z</time>
      </trkpt>
      <trkpt lat="43.79097" lon="7.25003">
        <ele>662.40002441406</ele>
        <time>2020-02-22T11:50:24.000Z</time>
      </trkpt>
      <trkpt lat="43.79098" lon="7.24999">
        <ele>662.79998779297</ele>
        <time>2020-02-22T11:50:26.000Z</time>
      </trkpt>
      <trkpt lat="43.79097" lon="7.24987">
        <ele>663.59997558594</ele>
        <time>2020-02-22T11:50:30.000Z</time>
      </trkpt>
      <trkpt lat="43.79097" lon="7.24981">
        <ele>664.20001220703</ele>
        <time>2020-02-22T11:50:32.000Z</time>
      </trkpt>
      <trkpt lat="43.79099" lon="7.24976">
        <ele>664.59997558594</ele>
        <time>2020-02-22T11:50:34.000Z</time>
      </trkpt>
      <trkpt lat="43.79101" lon="7.2497">
        <ele>665.40002441406</ele>
        <time>2020-02-22T11:50:36.000Z</time>
      </trkpt>
      <trkpt lat="43.79103" lon="7.24965">
        <ele>665.79998779297</ele>
        <time>2020-02-22T11:50:38.000Z</time>
      </trkpt>
      <trkpt lat="43.79106" lon="7.24951">
        <ele>666.79998779297</ele>
        <time>2020-02-22T11:50:43.000Z</time>
      </trkpt>
      <trkpt lat="43.79106" lon="7.24945">
        <ele>667.20001220703</ele>
        <time>2020-02-22T11:50:45.000Z</time>
      </trkpt>
      <trkpt lat="43.79107" lon="7.24936">
        <ele>668</ele>
        <time>2020-02-22T11:50:48.000Z</time>
      </trkpt>
      <trkpt lat="43.79109" lon="7.24926">
        <ele>668.40002441406</ele>
        <time>2020-02-22T11:50:51.000Z</time>
      </trkpt>
      <trkpt lat="43.79111" lon="7.24921">
        <ele>669.40002441406</ele>
        <time>2020-02-22T11:50:53.000Z</time>
      </trkpt>
      <trkpt lat="43.79113" lon="7.24917">
        <ele>670.59997558594</ele>
        <time>2020-02-22T11:50:55.000Z</time>
      </trkpt>
      <trkpt lat="43.79117" lon="7.24914">
        <ele>671.79998779297</ele>
        <time>2020-02-22T11:50:57.000Z</time>
      </trkpt>
      <trkpt lat="43.79119" lon="7.24913">
        <ele>672.40002441406</ele>
        <time>2020-02-22T11:50:58.000Z</time>
      </trkpt>
      <trkpt lat="43.79121" lon="7.24912">
        <ele>673</ele>
        <time>2020-02-22T11:50:59.000Z</time>
      </trkpt>
      <trkpt lat="43.79126" lon="7.2491">
        <ele>674.40002441406</ele>
        <time>2020-02-22T11:51:02.000Z</time>
      </trkpt>
      <trkpt lat="43.7913" lon="7.24909">
        <ele>675</ele>
        <time>2020-02-22T11:51:04.000Z</time>
      </trkpt>
      <trkpt lat="43.79132" lon="7.24907">
        <ele>675.40002441406</ele>
        <time>2020-02-22T11:51:05.000Z</time>
      </trkpt>
      <trkpt lat="43.79142" lon="7.24899">
        <ele>676.59997558594</ele>
        <time>2020-02-22T11:51:10.000Z</time>
      </trkpt>
      <trkpt lat="43.79146" lon="7.24891">
        <ele>677.79998779297</ele>
        <time>2020-02-22T11:51:13.000Z</time>
      </trkpt>
      <trkpt lat="43.7915" lon="7.24883">
        <ele>679</ele>
        <time>2020-02-22T11:51:16.000Z</time>
      </trkpt>
      <trkpt lat="43.79152" lon="7.24872">
        <ele>679.40002441406</ele>
        <time>2020-02-22T11:51:20.000Z</time>
      </trkpt>
      <trkpt lat="43.79153" lon="7.24868">
        <ele>679.40002441406</ele>
        <time>2020-02-22T11:51:23.000Z</time>
      </trkpt>
      <trkpt lat="43.79153" lon="7.24868">
        <ele>679.40002441406</ele>
        <time>2020-02-22T11:51:25.000Z</time>
      </trkpt>
      <trkpt lat="43.79149" lon="7.24868">
        <ele>679.40002441406</ele>
        <time>2020-02-22T11:51:31.000Z</time>
      </trkpt>
      <trkpt lat="43.7915" lon="7.24869">
        <ele>679.40002441406</ele>
        <time>2020-02-22T11:51:36.000Z</time>
      </trkpt>
      <trkpt lat="43.7915" lon="7.24868">
        <ele>679.20001220703</ele>
        <time>2020-02-22T11:51:42.000Z</time>
      </trkpt>
      <trkpt lat="43.7915" lon="7.24868">
        <ele>679.40002441406</ele>
        <time>2020-02-22T11:51:51.000Z</time>
      </trkpt>
      <trkpt lat="43.7915" lon="7.24868">
        <ele>679.20001220703</ele>
        <time>2020-02-22T11:51:57.000Z</time>
      </trkpt>
      <trkpt lat="43.79151" lon="7.24868">
        <ele>679.40002441406</ele>
        <time>2020-02-22T11:52:02.000Z</time>
      </trkpt>
      <trkpt lat="43.7915" lon="7.24868">
        <ele>679.40002441406</ele>
        <time>2020-02-22T11:52:18.000Z</time>
      </trkpt>
      <trkpt lat="43.79151" lon="7.24869">
        <ele>679.20001220703</ele>
        <time>2020-02-22T11:52:25.000Z</time>
      </trkpt>
      <trkpt lat="43.7915" lon="7.24869">
        <ele>679.20001220703</ele>
        <time>2020-02-22T11:52:30.000Z</time>
      </trkpt>
      <trkpt lat="43.7915" lon="7.24869">
        <ele>679.59997558594</ele>
        <time>2020-02-22T11:52:34.000Z</time>
      </trkpt>
      <trkpt lat="43.7915" lon="7.24868">
        <ele>679.40002441406</ele>
        <time>2020-02-22T11:52:35.000Z</time>
      </trkpt>
      <trkpt lat="43.79149" lon="7.24867">
        <ele>678.79998779297</ele>
        <time>2020-02-22T11:52:39.000Z</time>
      </trkpt>
      <trkpt lat="43.7915" lon="7.24867">
        <ele>679</ele>
        <time>2020-02-22T11:52:44.000Z</time>
      </trkpt>
      <trkpt lat="43.7915" lon="7.24868">
        <ele>679</ele>
        <time>2020-02-22T11:53:01.000Z</time>
      </trkpt>
      <trkpt lat="43.7915" lon="7.24867">
        <ele>679.40002441406</ele>
        <time>2020-02-22T11:53:09.000Z</time>
      </trkpt>
      <trkpt lat="43.7915" lon="7.24868">
        <ele>679.20001220703</ele>
        <time>2020-02-22T11:53:15.000Z</time>
      </trkpt>
      <trkpt lat="43.7915" lon="7.24868">
        <ele>679.40002441406</ele>
        <time>2020-02-22T11:53:26.000Z</time>
      </trkpt>
      <trkpt lat="43.7915" lon="7.24869">
        <ele>679.20001220703</ele>
        <time>2020-02-22T11:53:35.000Z</time>
      </trkpt>
      <trkpt lat="43.7915" lon="7.24868">
        <ele>679</ele>
        <time>2020-02-22T11:53:41.000Z</time>
      </trkpt>
      <trkpt lat="43.7915" lon="7.24868">
        <ele>679.20001220703</ele>
        <time>2020-02-22T11:53:47.000Z</time>
      </trkpt>
      <trkpt lat="43.7915" lon="7.24868">
        <ele>679.40002441406</ele>
        <time>2020-02-22T11:53:58.000Z</time>
      </trkpt>
      <trkpt lat="43.7915" lon="7.24868">
        <ele>679</ele>
        <time>2020-02-22T11:54:14.000Z</time>
      </trkpt>
      <trkpt lat="43.7915" lon="7.24867">
        <ele>679</ele>
        <time>2020-02-22T11:54:40.000Z</time>
      </trkpt>
      <trkpt lat="43.7915" lon="7.24867">
        <ele>679</ele>
        <time>2020-02-22T11:54:58.000Z</time>
      </trkpt>
      <trkpt lat="43.79151" lon="7.24867">
        <ele>679</ele>
        <time>2020-02-22T11:55:21.000Z</time>
      </trkpt>
      <trkpt lat="43.79151" lon="7.24867">
        <ele>678.79998779297</ele>
        <time>2020-02-22T11:55:33.000Z</time>
      </trkpt>
      <trkpt lat="43.79151" lon="7.24867">
        <ele>678.59997558594</ele>
        <time>2020-02-22T11:56:02.000Z</time>
      </trkpt>
      <trkpt lat="43.79152" lon="7.24866">
        <ele>678.59997558594</ele>
        <time>2020-02-22T11:56:09.000Z</time>
      </trkpt>
      <trkpt lat="43.79153" lon="7.24866">
        <ele>678.59997558594</ele>
        <time>2020-02-22T11:56:10.000Z</time>
      </trkpt>
      <trkpt lat="43.79154" lon="7.24864">
        <ele>678.59997558594</ele>
        <time>2020-02-22T11:56:13.000Z</time>
      </trkpt>
      <trkpt lat="43.79157" lon="7.2486">
        <ele>678.59997558594</ele>
        <time>2020-02-22T11:56:15.000Z</time>
      </trkpt>
      <trkpt lat="43.79164" lon="7.24862">
        <ele>678.59997558594</ele>
        <time>2020-02-22T11:56:19.000Z</time>
      </trkpt>
      <trkpt lat="43.7917" lon="7.24862">
        <ele>677.79998779297</ele>
        <time>2020-02-22T11:56:23.000Z</time>
      </trkpt>
      <trkpt lat="43.79175" lon="7.24861">
        <ele>676.59997558594</ele>
        <time>2020-02-22T11:56:25.000Z</time>
      </trkpt>
      <trkpt lat="43.79182" lon="7.24859">
        <ele>675.40002441406</ele>
        <time>2020-02-22T11:56:28.000Z</time>
      </trkpt>
      <trkpt lat="43.79186" lon="7.24863">
        <ele>673.79998779297</ele>
        <time>2020-02-22T11:56:30.000Z</time>
      </trkpt>
      <trkpt lat="43.7919" lon="7.24866">
        <ele>672.20001220703</ele>
        <time>2020-02-22T11:56:32.000Z</time>
      </trkpt>
      <trkpt lat="43.79192" lon="7.2487">
        <ele>670.20001220703</ele>
        <time>2020-02-22T11:56:34.000Z</time>
      </trkpt>
      <trkpt lat="43.79195" lon="7.24877">
        <ele>669</ele>
        <time>2020-02-22T11:56:36.000Z</time>
      </trkpt>
      <trkpt lat="43.79196" lon="7.24881">
        <ele>668.40002441406</ele>
        <time>2020-02-22T11:56:37.000Z</time>
      </trkpt>
      <trkpt lat="43.79197" lon="7.24885">
        <ele>667.20001220703</ele>
        <time>2020-02-22T11:56:38.000Z</time>
      </trkpt>
      <trkpt lat="43.79199" lon="7.24891">
        <ele>666.20001220703</ele>
        <time>2020-02-22T11:56:40.000Z</time>
      </trkpt>
      <trkpt lat="43.79201" lon="7.249">
        <ele>664.79998779297</ele>
        <time>2020-02-22T11:56:43.000Z</time>
      </trkpt>
      <trkpt lat="43.79201" lon="7.24906">
        <ele>663.59997558594</ele>
        <time>2020-02-22T11:56:45.000Z</time>
      </trkpt>
      <trkpt lat="43.792" lon="7.24909">
        <ele>663.20001220703</ele>
        <time>2020-02-22T11:56:46.000Z</time>
      </trkpt>
      <trkpt lat="43.79199" lon="7.24912">
        <ele>662.40002441406</ele>
        <time>2020-02-22T11:56:47.000Z</time>
      </trkpt>
      <trkpt lat="43.79197" lon="7.24919">
        <ele>661.20001220703</ele>
        <time>2020-02-22T11:56:50.000Z</time>
      </trkpt>
      <trkpt lat="43.79196" lon="7.24925">
        <ele>660</ele>
        <time>2020-02-22T11:56:54.000Z</time>
      </trkpt>
      <trkpt lat="43.79197" lon="7.24927">
        <ele>659</ele>
        <time>2020-02-22T11:56:56.000Z</time>
      </trkpt>
      <trkpt lat="43.79198" lon="7.24928">
        <ele>657.79998779297</ele>
        <time>2020-02-22T11:56:58.000Z</time>
      </trkpt>
      <trkpt lat="43.79199" lon="7.2493">
        <ele>657.40002441406</ele>
        <time>2020-02-22T11:56:59.000Z</time>
      </trkpt>
      <trkpt lat="43.79203" lon="7.2493">
        <ele>656.79998779297</ele>
        <time>2020-02-22T11:57:01.000Z</time>
      </trkpt>
      <trkpt lat="43.79208" lon="7.2493">
        <ele>655.79998779297</ele>
        <time>2020-02-22T11:57:03.000Z</time>
      </trkpt>
      <trkpt lat="43.79214" lon="7.24929">
        <ele>654.59997558594</ele>
        <time>2020-02-22T11:57:05.000Z</time>
      </trkpt>
      <trkpt lat="43.79215" lon="7.24929">
        <ele>653</ele>
        <time>2020-02-22T11:57:07.000Z</time>
      </trkpt>
      <trkpt lat="43.79216" lon="7.24931">
        <ele>651.79998779297</ele>
        <time>2020-02-22T11:57:11.000Z</time>
      </trkpt>
      <trkpt lat="43.79216" lon="7.24932">
        <ele>651.59997558594</ele>
        <time>2020-02-22T11:57:12.000Z</time>
      </trkpt>
      <trkpt lat="43.79215" lon="7.24933">
        <ele>651.40002441406</ele>
        <time>2020-02-22T11:57:13.000Z</time>
      </trkpt>
      <trkpt lat="43.79215" lon="7.24934">
        <ele>651.20001220703</ele>
        <time>2020-02-22T11:57:14.000Z</time>
      </trkpt>
      <trkpt lat="43.79214" lon="7.24936">
        <ele>650.79998779297</ele>
        <time>2020-02-22T11:57:16.000Z</time>
      </trkpt>
      <trkpt lat="43.79214" lon="7.24936">
        <ele>650.20001220703</ele>
        <time>2020-02-22T11:57:18.000Z</time>
      </trkpt>
      <trkpt lat="43.79214" lon="7.24937">
        <ele>649.59997558594</ele>
        <time>2020-02-22T11:57:20.000Z</time>
      </trkpt>
      <trkpt lat="43.79214" lon="7.24939">
        <ele>649.20001220703</ele>
        <time>2020-02-22T11:57:25.000Z</time>
      </trkpt>
      <trkpt lat="43.79214" lon="7.24942">
        <ele>648.79998779297</ele>
        <time>2020-02-22T11:57:30.000Z</time>
      </trkpt>
      <trkpt lat="43.79214" lon="7.24943">
        <ele>648.59997558594</ele>
        <time>2020-02-22T11:57:31.000Z</time>
      </trkpt>
      <trkpt lat="43.79212" lon="7.24947">
        <ele>647.20001220703</ele>
        <time>2020-02-22T11:57:35.000Z</time>
      </trkpt>
      <trkpt lat="43.79214" lon="7.24947">
        <ele>646.40002441406</ele>
        <time>2020-02-22T11:57:39.000Z</time>
      </trkpt>
      <trkpt lat="43.79215" lon="7.24946">
        <ele>646.40002441406</ele>
        <time>2020-02-22T11:57:40.000Z</time>
      </trkpt>
      <trkpt lat="43.79218" lon="7.24948">
        <ele>646.20001220703</ele>
        <time>2020-02-22T11:57:41.000Z</time>
      </trkpt>
      <trkpt lat="43.79222" lon="7.24947">
        <ele>645.79998779297</ele>
        <time>2020-02-22T11:57:43.000Z</time>
      </trkpt>
      <trkpt lat="43.79229" lon="7.24947">
        <ele>645</ele>
        <time>2020-02-22T11:57:47.000Z</time>
      </trkpt>
      <trkpt lat="43.7923" lon="7.24948">
        <ele>644.59997558594</ele>
        <time>2020-02-22T11:57:48.000Z</time>
      </trkpt>
      <trkpt lat="43.79233" lon="7.24947">
        <ele>643.79998779297</ele>
        <time>2020-02-22T11:57:50.000Z</time>
      </trkpt>
      <trkpt lat="43.79235" lon="7.24947">
        <ele>643</ele>
        <time>2020-02-22T11:57:52.000Z</time>
      </trkpt>
      <trkpt lat="43.79237" lon="7.24948">
        <ele>642.79998779297</ele>
        <time>2020-02-22T11:57:53.000Z</time>
      </trkpt>
      <trkpt lat="43.79246" lon="7.24951">
        <ele>641.20001220703</ele>
        <time>2020-02-22T11:57:57.000Z</time>
      </trkpt>
      <trkpt lat="43.7925" lon="7.24954">
        <ele>639.79998779297</ele>
        <time>2020-02-22T11:57:59.000Z</time>
      </trkpt>
      <trkpt lat="43.79253" lon="7.24958">
        <ele>638.40002441406</ele>
        <time>2020-02-22T11:58:01.000Z</time>
      </trkpt>
      <trkpt lat="43.79254" lon="7.24961">
        <ele>637.40002441406</ele>
        <time>2020-02-22T11:58:02.000Z</time>
      </trkpt>
      <trkpt lat="43.79256" lon="7.24965">
        <ele>636.20001220703</ele>
        <time>2020-02-22T11:58:04.000Z</time>
      </trkpt>
      <trkpt lat="43.79259" lon="7.24967">
        <ele>635.40002441406</ele>
        <time>2020-02-22T11:58:05.000Z</time>
      </trkpt>
      <trkpt lat="43.7926" lon="7.2497">
        <ele>634.20001220703</ele>
        <time>2020-02-22T11:58:06.000Z</time>
      </trkpt>
      <trkpt lat="43.7926" lon="7.24978">
        <ele>632.20001220703</ele>
        <time>2020-02-22T11:58:08.000Z</time>
      </trkpt>
      <trkpt lat="43.7926" lon="7.2498">
        <ele>631.20001220703</ele>
        <time>2020-02-22T11:58:09.000Z</time>
      </trkpt>
      <trkpt lat="43.79259" lon="7.24981">
        <ele>630</ele>
        <time>2020-02-22T11:58:10.000Z</time>
      </trkpt>
      <trkpt lat="43.7926" lon="7.24983">
        <ele>628.20001220703</ele>
        <time>2020-02-22T11:58:12.000Z</time>
      </trkpt>
      <trkpt lat="43.79261" lon="7.24984">
        <ele>627.20001220703</ele>
        <time>2020-02-22T11:58:14.000Z</time>
      </trkpt>
      <trkpt lat="43.79266" lon="7.24984">
        <ele>626.20001220703</ele>
        <time>2020-02-22T11:58:17.000Z</time>
      </trkpt>
      <trkpt lat="43.79267" lon="7.24986">
        <ele>625.59997558594</ele>
        <time>2020-02-22T11:58:18.000Z</time>
      </trkpt>
      <trkpt lat="43.79268" lon="7.24989">
        <ele>625.20001220703</ele>
        <time>2020-02-22T11:58:19.000Z</time>
      </trkpt>
      <trkpt lat="43.79266" lon="7.24993">
        <ele>624.20001220703</ele>
        <time>2020-02-22T11:58:21.000Z</time>
      </trkpt>
      <trkpt lat="43.79266" lon="7.24994">
        <ele>622.79998779297</ele>
        <time>2020-02-22T11:58:24.000Z</time>
      </trkpt>
      <trkpt lat="43.79266" lon="7.24995">
        <ele>622.20001220703</ele>
        <time>2020-02-22T11:58:25.000Z</time>
      </trkpt>
      <trkpt lat="43.79267" lon="7.24999">
        <ele>621.40002441406</ele>
        <time>2020-02-22T11:58:27.000Z</time>
      </trkpt>
      <trkpt lat="43.79267" lon="7.25004">
        <ele>621</ele>
        <time>2020-02-22T11:58:29.000Z</time>
      </trkpt>
      <trkpt lat="43.79266" lon="7.2501">
        <ele>620.20001220703</ele>
        <time>2020-02-22T11:58:31.000Z</time>
      </trkpt>
      <trkpt lat="43.79265" lon="7.25013">
        <ele>619.59997558594</ele>
        <time>2020-02-22T11:58:32.000Z</time>
      </trkpt>
      <trkpt lat="43.79263" lon="7.25016">
        <ele>619</ele>
        <time>2020-02-22T11:58:33.000Z</time>
      </trkpt>
      <trkpt lat="43.79258" lon="7.2502">
        <ele>617.59997558594</ele>
        <time>2020-02-22T11:58:35.000Z</time>
      </trkpt>
      <trkpt lat="43.79253" lon="7.25025">
        <ele>616.40002441406</ele>
        <time>2020-02-22T11:58:38.000Z</time>
      </trkpt>
      <trkpt lat="43.79251" lon="7.25026">
        <ele>616.40002441406</ele>
        <time>2020-02-22T11:58:39.000Z</time>
      </trkpt>
      <trkpt lat="43.79242" lon="7.2503">
        <ele>616.20001220703</ele>
        <time>2020-02-22T11:58:43.000Z</time>
      </trkpt>
      <trkpt lat="43.79227" lon="7.25038">
        <ele>615.79998779297</ele>
        <time>2020-02-22T11:58:48.000Z</time>
      </trkpt>
      <trkpt lat="43.79221" lon="7.2504">
        <ele>614.79998779297</ele>
        <time>2020-02-22T11:58:50.000Z</time>
      </trkpt>
      <trkpt lat="43.79215" lon="7.25042">
        <ele>613.79998779297</ele>
        <time>2020-02-22T11:58:52.000Z</time>
      </trkpt>
      <trkpt lat="43.79213" lon="7.25044">
        <ele>613.79998779297</ele>
        <time>2020-02-22T11:58:53.000Z</time>
      </trkpt>
      <trkpt lat="43.79206" lon="7.25049">
        <ele>613.79998779297</ele>
        <time>2020-02-22T11:58:56.000Z</time>
      </trkpt>
      <trkpt lat="43.79199" lon="7.25057">
        <ele>613.20001220703</ele>
        <time>2020-02-22T11:59:00.000Z</time>
      </trkpt>
      <trkpt lat="43.79192" lon="7.25067">
        <ele>612.59997558594</ele>
        <time>2020-02-22T11:59:03.000Z</time>
      </trkpt>
      <trkpt lat="43.79189" lon="7.25068">
        <ele>612</ele>
        <time>2020-02-22T11:59:04.000Z</time>
      </trkpt>
      <trkpt lat="43.79187" lon="7.25071">
        <ele>611.40002441406</ele>
        <time>2020-02-22T11:59:06.000Z</time>
      </trkpt>
      <trkpt lat="43.79184" lon="7.25075">
        <ele>610.79998779297</ele>
        <time>2020-02-22T11:59:08.000Z</time>
      </trkpt>
      <trkpt lat="43.79177" lon="7.25089">
        <ele>610.20001220703</ele>
        <time>2020-02-22T11:59:12.000Z</time>
      </trkpt>
      <trkpt lat="43.79169" lon="7.25103">
        <ele>608.79998779297</ele>
        <time>2020-02-22T11:59:15.000Z</time>
      </trkpt>
      <trkpt lat="43.79167" lon="7.25106">
        <ele>608.40002441406</ele>
        <time>2020-02-22T11:59:16.000Z</time>
      </trkpt>
      <trkpt lat="43.79165" lon="7.2511">
        <ele>607.79998779297</ele>
        <time>2020-02-22T11:59:17.000Z</time>
      </trkpt>
      <trkpt lat="43.79162" lon="7.25113">
        <ele>606.79998779297</ele>
        <time>2020-02-22T11:59:18.000Z</time>
      </trkpt>
      <trkpt lat="43.79159" lon="7.2512">
        <ele>606.20001220703</ele>
        <time>2020-02-22T11:59:20.000Z</time>
      </trkpt>
      <trkpt lat="43.79152" lon="7.25138">
        <ele>605.59997558594</ele>
        <time>2020-02-22T11:59:24.000Z</time>
      </trkpt>
      <trkpt lat="43.79148" lon="7.25146">
        <ele>604.20001220703</ele>
        <time>2020-02-22T11:59:26.000Z</time>
      </trkpt>
      <trkpt lat="43.79147" lon="7.25148">
        <ele>602.79998779297</ele>
        <time>2020-02-22T11:59:28.000Z</time>
      </trkpt>
      <trkpt lat="43.79147" lon="7.25155">
        <ele>602.40002441406</ele>
        <time>2020-02-22T11:59:32.000Z</time>
      </trkpt>
      <trkpt lat="43.79145" lon="7.25157">
        <ele>602.40002441406</ele>
        <time>2020-02-22T11:59:33.000Z</time>
      </trkpt>
      <trkpt lat="43.7914" lon="7.25164">
        <ele>601.59997558594</ele>
        <time>2020-02-22T11:59:36.000Z</time>
      </trkpt>
      <trkpt lat="43.79139" lon="7.25166">
        <ele>601.59997558594</ele>
        <time>2020-02-22T11:59:37.000Z</time>
      </trkpt>
      <trkpt lat="43.7914" lon="7.25167">
        <ele>601</ele>
        <time>2020-02-22T11:59:38.000Z</time>
      </trkpt>
      <trkpt lat="43.79142" lon="7.2517">
        <ele>600.40002441406</ele>
        <time>2020-02-22T11:59:40.000Z</time>
      </trkpt>
      <trkpt lat="43.7914" lon="7.25175">
        <ele>599.79998779297</ele>
        <time>2020-02-22T11:59:42.000Z</time>
      </trkpt>
      <trkpt lat="43.79138" lon="7.25179">
        <ele>599.40002441406</ele>
        <time>2020-02-22T11:59:43.000Z</time>
      </trkpt>
      <trkpt lat="43.79132" lon="7.25189">
        <ele>597.79998779297</ele>
        <time>2020-02-22T11:59:46.000Z</time>
      </trkpt>
      <trkpt lat="43.79128" lon="7.25198">
        <ele>596.79998779297</ele>
        <time>2020-02-22T11:59:49.000Z</time>
      </trkpt>
      <trkpt lat="43.79126" lon="7.25201">
        <ele>596.40002441406</ele>
        <time>2020-02-22T11:59:50.000Z</time>
      </trkpt>
      <trkpt lat="43.79123" lon="7.25208">
        <ele>595.59997558594</ele>
        <time>2020-02-22T11:59:52.000Z</time>
      </trkpt>
      <trkpt lat="43.79118" lon="7.25211">
        <ele>594.40002441406</ele>
        <time>2020-02-22T11:59:54.000Z</time>
      </trkpt>
      <trkpt lat="43.79116" lon="7.25213">
        <ele>593</ele>
        <time>2020-02-22T11:59:56.000Z</time>
      </trkpt>
      <trkpt lat="43.79113" lon="7.25218">
        <ele>592.40002441406</ele>
        <time>2020-02-22T11:59:58.000Z</time>
      </trkpt>
      <trkpt lat="43.79111" lon="7.25221">
        <ele>591.79998779297</ele>
        <time>2020-02-22T11:59:59.000Z</time>
      </trkpt>
      <trkpt lat="43.7911" lon="7.25225">
        <ele>590.40002441406</ele>
        <time>2020-02-22T12:00:02.000Z</time>
      </trkpt>
      <trkpt lat="43.79107" lon="7.25228">
        <ele>589.40002441406</ele>
        <time>2020-02-22T12:00:09.000Z</time>
      </trkpt>
      <trkpt lat="43.79105" lon="7.2523">
        <ele>589.40002441406</ele>
        <time>2020-02-22T12:00:10.000Z</time>
      </trkpt>
      <trkpt lat="43.79103" lon="7.25231">
        <ele>589</ele>
        <time>2020-02-22T12:00:11.000Z</time>
      </trkpt>
      <trkpt lat="43.791" lon="7.25233">
        <ele>588.59997558594</ele>
        <time>2020-02-22T12:00:13.000Z</time>
      </trkpt>
      <trkpt lat="43.79097" lon="7.25236">
        <ele>588.40002441406</ele>
        <time>2020-02-22T12:00:14.000Z</time>
      </trkpt>
      <trkpt lat="43.79088" lon="7.25237">
        <ele>587.20001220703</ele>
        <time>2020-02-22T12:00:18.000Z</time>
      </trkpt>
      <trkpt lat="43.79086" lon="7.25237">
        <ele>587.20001220703</ele>
        <time>2020-02-22T12:00:19.000Z</time>
      </trkpt>
      <trkpt lat="43.79085" lon="7.25237">
        <ele>587</ele>
        <time>2020-02-22T12:00:20.000Z</time>
      </trkpt>
      <trkpt lat="43.79079" lon="7.25235">
        <ele>588</ele>
        <time>2020-02-22T12:00:23.000Z</time>
      </trkpt>
      <trkpt lat="43.79065" lon="7.25231">
        <ele>586.79998779297</ele>
        <time>2020-02-22T12:00:28.000Z</time>
      </trkpt>
      <trkpt lat="43.79062" lon="7.25225">
        <ele>586</ele>
        <time>2020-02-22T12:00:30.000Z</time>
      </trkpt>
      <trkpt lat="43.79058" lon="7.2522">
        <ele>586.40002441406</ele>
        <time>2020-02-22T12:00:33.000Z</time>
      </trkpt>
      <trkpt lat="43.79056" lon="7.25219">
        <ele>586.40002441406</ele>
        <time>2020-02-22T12:00:34.000Z</time>
      </trkpt>
      <trkpt lat="43.79055" lon="7.25218">
        <ele>586.59997558594</ele>
        <time>2020-02-22T12:00:35.000Z</time>
      </trkpt>
      <trkpt lat="43.79053" lon="7.25213">
        <ele>586.79998779297</ele>
        <time>2020-02-22T12:00:37.000Z</time>
      </trkpt>
      <trkpt lat="43.7905" lon="7.25208">
        <ele>587.20001220703</ele>
        <time>2020-02-22T12:00:39.000Z</time>
      </trkpt>
      <trkpt lat="43.79044" lon="7.25201">
        <ele>587.20001220703</ele>
        <time>2020-02-22T12:00:42.000Z</time>
      </trkpt>
      <trkpt lat="43.79042" lon="7.25196">
        <ele>587.20001220703</ele>
        <time>2020-02-22T12:00:46.000Z</time>
      </trkpt>
      <trkpt lat="43.79039" lon="7.25193">
        <ele>586.59997558594</ele>
        <time>2020-02-22T12:00:53.000Z</time>
      </trkpt>
      <trkpt lat="43.79035" lon="7.2519">
        <ele>586.59997558594</ele>
        <time>2020-02-22T12:00:55.000Z</time>
      </trkpt>
      <trkpt lat="43.79034" lon="7.25185">
        <ele>586.20001220703</ele>
        <time>2020-02-22T12:00:57.000Z</time>
      </trkpt>
      <trkpt lat="43.79031" lon="7.25179">
        <ele>586</ele>
        <time>2020-02-22T12:00:59.000Z</time>
      </trkpt>
      <trkpt lat="43.79027" lon="7.25172">
        <ele>585.40002441406</ele>
        <time>2020-02-22T12:01:01.000Z</time>
      </trkpt>
      <trkpt lat="43.79021" lon="7.25163">
        <ele>584.79998779297</ele>
        <time>2020-02-22T12:01:04.000Z</time>
      </trkpt>
      <trkpt lat="43.79017" lon="7.25158">
        <ele>584.59997558594</ele>
        <time>2020-02-22T12:01:05.000Z</time>
      </trkpt>
      <trkpt lat="43.79013" lon="7.25154">
        <ele>584.20001220703</ele>
        <time>2020-02-22T12:01:06.000Z</time>
      </trkpt>
      <trkpt lat="43.7901" lon="7.25149">
        <ele>583.59997558594</ele>
        <time>2020-02-22T12:01:07.000Z</time>
      </trkpt>
      <trkpt lat="43.79004" lon="7.25137">
        <ele>582.20001220703</ele>
        <time>2020-02-22T12:01:10.000Z</time>
      </trkpt>
      <trkpt lat="43.78994" lon="7.25119">
        <ele>583</ele>
        <time>2020-02-22T12:01:16.000Z</time>
      </trkpt>
      <trkpt lat="43.78993" lon="7.25117">
        <ele>583.20001220703</ele>
        <time>2020-02-22T12:01:17.000Z</time>
      </trkpt>
      <trkpt lat="43.78993" lon="7.25116">
        <ele>583.40002441406</ele>
        <time>2020-02-22T12:01:20.000Z</time>
      </trkpt>
      <trkpt lat="43.78992" lon="7.25117">
        <ele>583.79998779297</ele>
        <time>2020-02-22T12:01:43.000Z</time>
      </trkpt>
      <trkpt lat="43.78992" lon="7.25117">
        <ele>583.59997558594</ele>
        <time>2020-02-22T12:02:03.000Z</time>
      </trkpt>
      <trkpt lat="43.78992" lon="7.25117">
        <ele>583.79998779297</ele>
        <time>2020-02-22T12:02:15.000Z</time>
      </trkpt>
      <trkpt lat="43.78991" lon="7.25117">
        <ele>583.79998779297</ele>
        <time>2020-02-22T12:02:33.000Z</time>
      </trkpt>
      <trkpt lat="43.78992" lon="7.25117">
        <ele>583.79998779297</ele>
        <time>2020-02-22T12:02:47.000Z</time>
      </trkpt>
      <trkpt lat="43.78991" lon="7.25117">
        <ele>583.59997558594</ele>
        <time>2020-02-22T12:02:55.000Z</time>
      </trkpt>
      <trkpt lat="43.78991" lon="7.25117">
        <ele>583.59997558594</ele>
        <time>2020-02-22T12:03:24.000Z</time>
      </trkpt>
      <trkpt lat="43.78991" lon="7.25117">
        <ele>583.59997558594</ele>
        <time>2020-02-22T12:03:39.000Z</time>
      </trkpt>
      <trkpt lat="43.78992" lon="7.25117">
        <ele>583.40002441406</ele>
        <time>2020-02-22T12:03:57.000Z</time>
      </trkpt>
      <trkpt lat="43.78992" lon="7.25117">
        <ele>583.59997558594</ele>
        <time>2020-02-22T12:04:06.000Z</time>
      </trkpt>
      <trkpt lat="43.78989" lon="7.25116">
        <ele>583.40002441406</ele>
        <time>2020-02-22T12:04:22.000Z</time>
      </trkpt>
      <trkpt lat="43.78988" lon="7.25114">
        <ele>583.40002441406</ele>
        <time>2020-02-22T12:04:23.000Z</time>
      </trkpt>
      <trkpt lat="43.78978" lon="7.25098">
        <ele>583.59997558594</ele>
        <time>2020-02-22T12:04:30.000Z</time>
      </trkpt>
      <trkpt lat="43.78966" lon="7.25074">
        <ele>584.20001220703</ele>
        <time>2020-02-22T12:04:38.000Z</time>
      </trkpt>
      <trkpt lat="43.78957" lon="7.25052">
        <ele>585</ele>
        <time>2020-02-22T12:04:44.000Z</time>
      </trkpt>
      <trkpt lat="43.78952" lon="7.25045">
        <ele>585.20001220703</ele>
        <time>2020-02-22T12:04:46.000Z</time>
      </trkpt>
      <trkpt lat="43.78949" lon="7.25041">
        <ele>585.20001220703</ele>
        <time>2020-02-22T12:04:47.000Z</time>
      </trkpt>
      <trkpt lat="43.7894" lon="7.25038">
        <ele>585.20001220703</ele>
        <time>2020-02-22T12:04:49.000Z</time>
      </trkpt>
      <trkpt lat="43.7892" lon="7.25041">
        <ele>584</ele>
        <time>2020-02-22T12:04:53.000Z</time>
      </trkpt>
      <trkpt lat="43.78911" lon="7.25042">
        <ele>583.79998779297</ele>
        <time>2020-02-22T12:04:55.000Z</time>
      </trkpt>
      <trkpt lat="43.78901" lon="7.25044">
        <ele>583.59997558594</ele>
        <time>2020-02-22T12:04:58.000Z</time>
      </trkpt>
      <trkpt lat="43.7887" lon="7.25051">
        <ele>583.79998779297</ele>
        <time>2020-02-22T12:05:06.000Z</time>
      </trkpt>
      <trkpt lat="43.78843" lon="7.25055">
        <ele>583.79998779297</ele>
        <time>2020-02-22T12:05:13.000Z</time>
      </trkpt>
      <trkpt lat="43.78811" lon="7.25055">
        <ele>583.59997558594</ele>
        <time>2020-02-22T12:05:21.000Z</time>
      </trkpt>
      <trkpt lat="43.78807" lon="7.25054">
        <ele>583.59997558594</ele>
        <time>2020-02-22T12:05:22.000Z</time>
      </trkpt>
      <trkpt lat="43.78797" lon="7.25047">
        <ele>582.79998779297</ele>
        <time>2020-02-22T12:05:25.000Z</time>
      </trkpt>
      <trkpt lat="43.7879" lon="7.25036">
        <ele>583</ele>
        <time>2020-02-22T12:05:30.000Z</time>
      </trkpt>
      <trkpt lat="43.78789" lon="7.25028">
        <ele>583.40002441406</ele>
        <time>2020-02-22T12:05:32.000Z</time>
      </trkpt>
      <trkpt lat="43.78789" lon="7.25018">
        <ele>583.20001220703</ele>
        <time>2020-02-22T12:05:34.000Z</time>
      </trkpt>
      <trkpt lat="43.78791" lon="7.25008">
        <ele>582.79998779297</ele>
        <time>2020-02-22T12:05:36.000Z</time>
      </trkpt>
      <trkpt lat="43.78795" lon="7.24989">
        <ele>582.20001220703</ele>
        <time>2020-02-22T12:05:40.000Z</time>
      </trkpt>
      <trkpt lat="43.78801" lon="7.24949">
        <ele>583.59997558594</ele>
        <time>2020-02-22T12:05:48.000Z</time>
      </trkpt>
      <trkpt lat="43.78802" lon="7.24945">
        <ele>583.79998779297</ele>
        <time>2020-02-22T12:05:49.000Z</time>
      </trkpt>
      <trkpt lat="43.78806" lon="7.24928">
        <ele>584.79998779297</ele>
        <time>2020-02-22T12:05:53.000Z</time>
      </trkpt>
      <trkpt lat="43.78808" lon="7.24919">
        <ele>585.20001220703</ele>
        <time>2020-02-22T12:05:55.000Z</time>
      </trkpt>
      <trkpt lat="43.78813" lon="7.24897">
        <ele>585.79998779297</ele>
        <time>2020-02-22T12:06:00.000Z</time>
      </trkpt>
      <trkpt lat="43.78815" lon="7.24892">
        <ele>586</ele>
        <time>2020-02-22T12:06:01.000Z</time>
      </trkpt>
      <trkpt lat="43.78817" lon="7.24876">
        <ele>586.40002441406</ele>
        <time>2020-02-22T12:06:06.000Z</time>
      </trkpt>
      <trkpt lat="43.78819" lon="7.24859">
        <ele>586</ele>
        <time>2020-02-22T12:06:12.000Z</time>
      </trkpt>
      <trkpt lat="43.78819" lon="7.24836">
        <ele>584.59997558594</ele>
        <time>2020-02-22T12:06:16.000Z</time>
      </trkpt>
      <trkpt lat="43.78821" lon="7.24821">
        <ele>583.59997558594</ele>
        <time>2020-02-22T12:06:19.000Z</time>
      </trkpt>
      <trkpt lat="43.78822" lon="7.24812">
        <ele>583.40002441406</ele>
        <time>2020-02-22T12:06:20.000Z</time>
      </trkpt>
      <trkpt lat="43.78826" lon="7.24794">
        <ele>582</ele>
        <time>2020-02-22T12:06:23.000Z</time>
      </trkpt>
      <trkpt lat="43.78829" lon="7.24783">
        <ele>581.40002441406</ele>
        <time>2020-02-22T12:06:25.000Z</time>
      </trkpt>
      <trkpt lat="43.7883" lon="7.24778">
        <ele>581</ele>
        <time>2020-02-22T12:06:26.000Z</time>
      </trkpt>
      <trkpt lat="43.78834" lon="7.24754">
        <ele>580</ele>
        <time>2020-02-22T12:06:31.000Z</time>
      </trkpt>
      <trkpt lat="43.78836" lon="7.24746">
        <ele>579.79998779297</ele>
        <time>2020-02-22T12:06:33.000Z</time>
      </trkpt>
      <trkpt lat="43.78845" lon="7.24707">
        <ele>579.40002441406</ele>
        <time>2020-02-22T12:06:42.000Z</time>
      </trkpt>
      <trkpt lat="43.78853" lon="7.24677">
        <ele>579.59997558594</ele>
        <time>2020-02-22T12:06:50.000Z</time>
      </trkpt>
      <trkpt lat="43.7886" lon="7.24658">
        <ele>579.20001220703</ele>
        <time>2020-02-22T12:06:55.000Z</time>
      </trkpt>
      <trkpt lat="43.78857" lon="7.24654">
        <ele>578.79998779297</ele>
        <time>2020-02-22T12:06:56.000Z</time>
      </trkpt>
      <trkpt lat="43.78851" lon="7.24648">
        <ele>577.40002441406</ele>
        <time>2020-02-22T12:06:59.000Z</time>
      </trkpt>
      <trkpt lat="43.78851" lon="7.24646">
        <ele>576.79998779297</ele>
        <time>2020-02-22T12:07:00.000Z</time>
      </trkpt>
      <trkpt lat="43.7885" lon="7.24645">
        <ele>576.40002441406</ele>
        <time>2020-02-22T12:07:01.000Z</time>
      </trkpt>
      <trkpt lat="43.78848" lon="7.24644">
        <ele>576</ele>
        <time>2020-02-22T12:07:02.000Z</time>
      </trkpt>
      <trkpt lat="43.78846" lon="7.24641">
        <ele>575.59997558594</ele>
        <time>2020-02-22T12:07:05.000Z</time>
      </trkpt>
      <trkpt lat="43.78845" lon="7.2464">
        <ele>575.40002441406</ele>
        <time>2020-02-22T12:07:06.000Z</time>
      </trkpt>
      <trkpt lat="43.78838" lon="7.24635">
        <ele>574.40002441406</ele>
        <time>2020-02-22T12:07:10.000Z</time>
      </trkpt>
      <trkpt lat="43.78838" lon="7.24634">
        <ele>574.20001220703</ele>
        <time>2020-02-22T12:07:11.000Z</time>
      </trkpt>
      <trkpt lat="43.78837" lon="7.24633">
        <ele>573.59997558594</ele>
        <time>2020-02-22T12:07:14.000Z</time>
      </trkpt>
      <trkpt lat="43.78829" lon="7.24627">
        <ele>573.20001220703</ele>
        <time>2020-02-22T12:07:17.000Z</time>
      </trkpt>
      <trkpt lat="43.78825" lon="7.24623">
        <ele>573</ele>
        <time>2020-02-22T12:07:18.000Z</time>
      </trkpt>
      <trkpt lat="43.78822" lon="7.24617">
        <ele>573</ele>
        <time>2020-02-22T12:07:19.000Z</time>
      </trkpt>
      <trkpt lat="43.78818" lon="7.24611">
        <ele>572.59997558594</ele>
        <time>2020-02-22T12:07:20.000Z</time>
      </trkpt>
      <trkpt lat="43.78816" lon="7.24604">
        <ele>572.20001220703</ele>
        <time>2020-02-22T12:07:21.000Z</time>
      </trkpt>
      <trkpt lat="43.78817" lon="7.24599">
        <ele>572</ele>
        <time>2020-02-22T12:07:22.000Z</time>
      </trkpt>
      <trkpt lat="43.7882" lon="7.24595">
        <ele>571.59997558594</ele>
        <time>2020-02-22T12:07:23.000Z</time>
      </trkpt>
      <trkpt lat="43.78827" lon="7.24592">
        <ele>570.79998779297</ele>
        <time>2020-02-22T12:07:25.000Z</time>
      </trkpt>
      <trkpt lat="43.78834" lon="7.24588">
        <ele>570.40002441406</ele>
        <time>2020-02-22T12:07:27.000Z</time>
      </trkpt>
      <trkpt lat="43.78843" lon="7.2458">
        <ele>569.79998779297</ele>
        <time>2020-02-22T12:07:31.000Z</time>
      </trkpt>
      <trkpt lat="43.78844" lon="7.24569">
        <ele>568.59997558594</ele>
        <time>2020-02-22T12:07:34.000Z</time>
      </trkpt>
      <trkpt lat="43.78844" lon="7.24564">
        <ele>568.20001220703</ele>
        <time>2020-02-22T12:07:35.000Z</time>
      </trkpt>
      <trkpt lat="43.7884" lon="7.24556">
        <ele>567.40002441406</ele>
        <time>2020-02-22T12:07:37.000Z</time>
      </trkpt>
      <trkpt lat="43.78836" lon="7.24552">
        <ele>567</ele>
        <time>2020-02-22T12:07:38.000Z</time>
      </trkpt>
      <trkpt lat="43.78829" lon="7.24543">
        <ele>566.20001220703</ele>
        <time>2020-02-22T12:07:40.000Z</time>
      </trkpt>
      <trkpt lat="43.78819" lon="7.24534">
        <ele>565.20001220703</ele>
        <time>2020-02-22T12:07:42.000Z</time>
      </trkpt>
      <trkpt lat="43.78814" lon="7.24529">
        <ele>564.20001220703</ele>
        <time>2020-02-22T12:07:43.000Z</time>
      </trkpt>
      <trkpt lat="43.78809" lon="7.24525">
        <ele>562.79998779297</ele>
        <time>2020-02-22T12:07:44.000Z</time>
      </trkpt>
      <trkpt lat="43.78802" lon="7.24521">
        <ele>561.20001220703</ele>
        <time>2020-02-22T12:07:45.000Z</time>
      </trkpt>
      <trkpt lat="43.78796" lon="7.24517">
        <ele>559.79998779297</ele>
        <time>2020-02-22T12:07:46.000Z</time>
      </trkpt>
      <trkpt lat="43.78789" lon="7.24513">
        <ele>558</ele>
        <time>2020-02-22T12:07:47.000Z</time>
      </trkpt>
      <trkpt lat="43.78783" lon="7.24509">
        <ele>556.40002441406</ele>
        <time>2020-02-22T12:07:48.000Z</time>
      </trkpt>
      <trkpt lat="43.78779" lon="7.24505">
        <ele>554.79998779297</ele>
        <time>2020-02-22T12:07:49.000Z</time>
      </trkpt>
      <trkpt lat="43.78776" lon="7.24498">
        <ele>553.59997558594</ele>
        <time>2020-02-22T12:07:50.000Z</time>
      </trkpt>
      <trkpt lat="43.78775" lon="7.24491">
        <ele>552.40002441406</ele>
        <time>2020-02-22T12:07:51.000Z</time>
      </trkpt>
      <trkpt lat="43.78772" lon="7.24477">
        <ele>551</ele>
        <time>2020-02-22T12:07:53.000Z</time>
      </trkpt>
      <trkpt lat="43.78768" lon="7.2446">
        <ele>550</ele>
        <time>2020-02-22T12:07:55.000Z</time>
      </trkpt>
      <trkpt lat="43.78766" lon="7.24453">
        <ele>549.40002441406</ele>
        <time>2020-02-22T12:07:56.000Z</time>
      </trkpt>
      <trkpt lat="43.78757" lon="7.24439">
        <ele>548.40002441406</ele>
        <time>2020-02-22T12:07:58.000Z</time>
      </trkpt>
      <trkpt lat="43.78748" lon="7.24427">
        <ele>547</ele>
        <time>2020-02-22T12:08:00.000Z</time>
      </trkpt>
      <trkpt lat="43.78743" lon="7.24422">
        <ele>546</ele>
        <time>2020-02-22T12:08:01.000Z</time>
      </trkpt>
      <trkpt lat="43.78738" lon="7.24418">
        <ele>544.59997558594</ele>
        <time>2020-02-22T12:08:02.000Z</time>
      </trkpt>
      <trkpt lat="43.78733" lon="7.24414">
        <ele>543.20001220703</ele>
        <time>2020-02-22T12:08:03.000Z</time>
      </trkpt>
      <trkpt lat="43.78728" lon="7.24411">
        <ele>541.79998779297</ele>
        <time>2020-02-22T12:08:04.000Z</time>
      </trkpt>
      <trkpt lat="43.78722" lon="7.24407">
        <ele>540.59997558594</ele>
        <time>2020-02-22T12:08:05.000Z</time>
      </trkpt>
      <trkpt lat="43.78717" lon="7.24404">
        <ele>539.40002441406</ele>
        <time>2020-02-22T12:08:06.000Z</time>
      </trkpt>
      <trkpt lat="43.78713" lon="7.24403">
        <ele>538.20001220703</ele>
        <time>2020-02-22T12:08:07.000Z</time>
      </trkpt>
      <trkpt lat="43.78704" lon="7.24403">
        <ele>536.59997558594</ele>
        <time>2020-02-22T12:08:09.000Z</time>
      </trkpt>
      <trkpt lat="43.78692" lon="7.24403">
        <ele>534.79998779297</ele>
        <time>2020-02-22T12:08:11.000Z</time>
      </trkpt>
      <trkpt lat="43.78682" lon="7.24403">
        <ele>533.20001220703</ele>
        <time>2020-02-22T12:08:13.000Z</time>
      </trkpt>
      <trkpt lat="43.78678" lon="7.24403">
        <ele>532.59997558594</ele>
        <time>2020-02-22T12:08:14.000Z</time>
      </trkpt>
      <trkpt lat="43.78675" lon="7.24405">
        <ele>532</ele>
        <time>2020-02-22T12:08:15.000Z</time>
      </trkpt>
      <trkpt lat="43.78666" lon="7.24408">
        <ele>530.79998779297</ele>
        <time>2020-02-22T12:08:18.000Z</time>
      </trkpt>
      <trkpt lat="43.78663" lon="7.24406">
        <ele>530</ele>
        <time>2020-02-22T12:08:19.000Z</time>
      </trkpt>
      <trkpt lat="43.78662" lon="7.24404">
        <ele>529.40002441406</ele>
        <time>2020-02-22T12:08:20.000Z</time>
      </trkpt>
      <trkpt lat="43.78661" lon="7.24404">
        <ele>528.59997558594</ele>
        <time>2020-02-22T12:08:21.000Z</time>
      </trkpt>
      <trkpt lat="43.7866" lon="7.24403">
        <ele>527.79998779297</ele>
        <time>2020-02-22T12:08:22.000Z</time>
      </trkpt>
      <trkpt lat="43.78657" lon="7.24403">
        <ele>526.79998779297</ele>
        <time>2020-02-22T12:08:24.000Z</time>
      </trkpt>
      <trkpt lat="43.78657" lon="7.24403">
        <ele>526.20001220703</ele>
        <time>2020-02-22T12:08:25.000Z</time>
      </trkpt>
      <trkpt lat="43.78656" lon="7.24404">
        <ele>526</ele>
        <time>2020-02-22T12:08:26.000Z</time>
      </trkpt>
      <trkpt lat="43.78652" lon="7.24409">
        <ele>525.59997558594</ele>
        <time>2020-02-22T12:08:29.000Z</time>
      </trkpt>
      <trkpt lat="43.7865" lon="7.2441">
        <ele>525.40002441406</ele>
        <time>2020-02-22T12:08:30.000Z</time>
      </trkpt>
      <trkpt lat="43.78643" lon="7.24415">
        <ele>524.40002441406</ele>
        <time>2020-02-22T12:08:34.000Z</time>
      </trkpt>
      <trkpt lat="43.78638" lon="7.24417">
        <ele>524</ele>
        <time>2020-02-22T12:08:36.000Z</time>
      </trkpt>
      <trkpt lat="43.78634" lon="7.24421">
        <ele>523.40002441406</ele>
        <time>2020-02-22T12:08:38.000Z</time>
      </trkpt>
      <trkpt lat="43.78624" lon="7.24427">
        <ele>522.20001220703</ele>
        <time>2020-02-22T12:08:41.000Z</time>
      </trkpt>
      <trkpt lat="43.78616" lon="7.24431">
        <ele>521.40002441406</ele>
        <time>2020-02-22T12:08:43.000Z</time>
      </trkpt>
      <trkpt lat="43.78611" lon="7.24432">
        <ele>521</ele>
        <time>2020-02-22T12:08:44.000Z</time>
      </trkpt>
      <trkpt lat="43.78606" lon="7.24433">
        <ele>520.59997558594</ele>
        <time>2020-02-22T12:08:45.000Z</time>
      </trkpt>
      <trkpt lat="43.78601" lon="7.24433">
        <ele>519.79998779297</ele>
        <time>2020-02-22T12:08:46.000Z</time>
      </trkpt>
      <trkpt lat="43.7859" lon="7.2443">
        <ele>518.40002441406</ele>
        <time>2020-02-22T12:08:48.000Z</time>
      </trkpt>
      <trkpt lat="43.78579" lon="7.24427">
        <ele>517.20001220703</ele>
        <time>2020-02-22T12:08:50.000Z</time>
      </trkpt>
      <trkpt lat="43.78568" lon="7.24426">
        <ele>516</ele>
        <time>2020-02-22T12:08:52.000Z</time>
      </trkpt>
      <trkpt lat="43.78555" lon="7.24422">
        <ele>515</ele>
        <time>2020-02-22T12:08:54.000Z</time>
      </trkpt>
      <trkpt lat="43.78541" lon="7.24413">
        <ele>513</ele>
        <time>2020-02-22T12:08:56.000Z</time>
      </trkpt>
      <trkpt lat="43.78534" lon="7.24408">
        <ele>512</ele>
        <time>2020-02-22T12:08:57.000Z</time>
      </trkpt>
      <trkpt lat="43.78528" lon="7.24405">
        <ele>510.79998779297</ele>
        <time>2020-02-22T12:08:58.000Z</time>
      </trkpt>
      <trkpt lat="43.78521" lon="7.24401">
        <ele>509.79998779297</ele>
        <time>2020-02-22T12:08:59.000Z</time>
      </trkpt>
      <trkpt lat="43.78508" lon="7.24392">
        <ele>508</ele>
        <time>2020-02-22T12:09:01.000Z</time>
      </trkpt>
      <trkpt lat="43.78493" lon="7.24384">
        <ele>506.79998779297</ele>
        <time>2020-02-22T12:09:03.000Z</time>
      </trkpt>
      <trkpt lat="43.78481" lon="7.24377">
        <ele>505.39999389648</ele>
        <time>2020-02-22T12:09:05.000Z</time>
      </trkpt>
      <trkpt lat="43.78468" lon="7.24371">
        <ele>504.20001220703</ele>
        <time>2020-02-22T12:09:07.000Z</time>
      </trkpt>
      <trkpt lat="43.78448" lon="7.24363">
        <ele>502.79998779297</ele>
        <time>2020-02-22T12:09:10.000Z</time>
      </trkpt>
      <trkpt lat="43.78439" lon="7.2436">
        <ele>502.20001220703</ele>
        <time>2020-02-22T12:09:12.000Z</time>
      </trkpt>
      <trkpt lat="43.78432" lon="7.24357">
        <ele>501.60000610352</ele>
        <time>2020-02-22T12:09:14.000Z</time>
      </trkpt>
      <trkpt lat="43.78428" lon="7.24352">
        <ele>501.20001220703</ele>
        <time>2020-02-22T12:09:16.000Z</time>
      </trkpt>
      <trkpt lat="43.78428" lon="7.2435">
        <ele>501</ele>
        <time>2020-02-22T12:09:17.000Z</time>
      </trkpt>
      <trkpt lat="43.78432" lon="7.24341">
        <ele>500.79998779297</ele>
        <time>2020-02-22T12:09:22.000Z</time>
      </trkpt>
      <trkpt lat="43.78434" lon="7.24341">
        <ele>500.79998779297</ele>
        <time>2020-02-22T12:09:27.000Z</time>
      </trkpt>
      <trkpt lat="43.78434" lon="7.2434">
        <ele>500.79998779297</ele>
        <time>2020-02-22T12:09:28.000Z</time>
      </trkpt>
      <trkpt lat="43.78435" lon="7.24339">
        <ele>500.79998779297</ele>
        <time>2020-02-22T12:09:31.000Z</time>
      </trkpt>
      <trkpt lat="43.78435" lon="7.24338">
        <ele>500.79998779297</ele>
        <time>2020-02-22T12:09:40.000Z</time>
      </trkpt>
      <trkpt lat="43.78435" lon="7.24338">
        <ele>501</ele>
        <time>2020-02-22T12:09:51.000Z</time>
      </trkpt>
      <trkpt lat="43.78435" lon="7.24336">
        <ele>501</ele>
        <time>2020-02-22T12:10:01.000Z</time>
      </trkpt>
      <trkpt lat="43.78438" lon="7.24335">
        <ele>500.60000610352</ele>
        <time>2020-02-22T12:10:05.000Z</time>
      </trkpt>
      <trkpt lat="43.7844" lon="7.24337">
        <ele>500.60000610352</ele>
        <time>2020-02-22T12:10:07.000Z</time>
      </trkpt>
      <trkpt lat="43.78447" lon="7.24337">
        <ele>500.79998779297</ele>
        <time>2020-02-22T12:10:12.000Z</time>
      </trkpt>
      <trkpt lat="43.78448" lon="7.24337">
        <ele>501</ele>
        <time>2020-02-22T12:10:13.000Z</time>
      </trkpt>
      <trkpt lat="43.7845" lon="7.24338">
        <ele>501.20001220703</ele>
        <time>2020-02-22T12:10:15.000Z</time>
      </trkpt>
      <trkpt lat="43.7845" lon="7.24341">
        <ele>501.39999389648</ele>
        <time>2020-02-22T12:10:17.000Z</time>
      </trkpt>
      <trkpt lat="43.78449" lon="7.24344">
        <ele>501.60000610352</ele>
        <time>2020-02-22T12:10:22.000Z</time>
      </trkpt>
      <trkpt lat="43.78449" lon="7.24344">
        <ele>501.79998779297</ele>
        <time>2020-02-22T12:10:29.000Z</time>
      </trkpt>
      <trkpt lat="43.78449" lon="7.2434">
        <ele>501.60000610352</ele>
        <time>2020-02-22T12:10:40.000Z</time>
      </trkpt>
      <trkpt lat="43.78449" lon="7.24339">
        <ele>501.79998779297</ele>
        <time>2020-02-22T12:10:51.000Z</time>
      </trkpt>
      <trkpt lat="43.78449" lon="7.24337">
        <ele>502</ele>
        <time>2020-02-22T12:11:03.000Z</time>
      </trkpt>
      <trkpt lat="43.78449" lon="7.24337">
        <ele>502</ele>
        <time>2020-02-22T12:11:12.000Z</time>
      </trkpt>
      <trkpt lat="43.78449" lon="7.24336">
        <ele>501.79998779297</ele>
        <time>2020-02-22T12:11:21.000Z</time>
      </trkpt>
      <trkpt lat="43.78449" lon="7.24334">
        <ele>501.60000610352</ele>
        <time>2020-02-22T12:11:31.000Z</time>
      </trkpt>
      <trkpt lat="43.78449" lon="7.2433">
        <ele>501.39999389648</ele>
        <time>2020-02-22T12:11:36.000Z</time>
      </trkpt>
      <trkpt lat="43.78448" lon="7.24328">
        <ele>501.60000610352</ele>
        <time>2020-02-22T12:11:42.000Z</time>
      </trkpt>
      <trkpt lat="43.78448" lon="7.2433">
        <ele>501.39999389648</ele>
        <time>2020-02-22T12:11:48.000Z</time>
      </trkpt>
      <trkpt lat="43.78444" lon="7.24333">
        <ele>501.39999389648</ele>
        <time>2020-02-22T12:11:56.000Z</time>
      </trkpt>
      <trkpt lat="43.78442" lon="7.24335">
        <ele>501</ele>
        <time>2020-02-22T12:12:02.000Z</time>
      </trkpt>
      <trkpt lat="43.7844" lon="7.24335">
        <ele>501</ele>
        <time>2020-02-22T12:12:11.000Z</time>
      </trkpt>
      <trkpt lat="43.7844" lon="7.24338">
        <ele>500.79998779297</ele>
        <time>2020-02-22T12:12:26.000Z</time>
      </trkpt>
      <trkpt lat="43.78439" lon="7.24337">
        <ele>500.79998779297</ele>
        <time>2020-02-22T12:12:35.000Z</time>
      </trkpt>
      <trkpt lat="43.78437" lon="7.24334">
        <ele>500.60000610352</ele>
        <time>2020-02-22T12:12:53.000Z</time>
      </trkpt>
      <trkpt lat="43.78437" lon="7.24333">
        <ele>500.60000610352</ele>
        <time>2020-02-22T12:12:54.000Z</time>
      </trkpt>
      <trkpt lat="43.78437" lon="7.24333">
        <ele>500.60000610352</ele>
        <time>2020-02-22T12:13:06.000Z</time>
      </trkpt>
      <trkpt lat="43.78437" lon="7.24333">
        <ele>500.60000610352</ele>
        <time>2020-02-22T12:13:13.000Z</time>
      </trkpt>
      <trkpt lat="43.78437" lon="7.24334">
        <ele>500.60000610352</ele>
        <time>2020-02-22T12:13:25.000Z</time>
      </trkpt>
      <trkpt lat="43.78437" lon="7.24335">
        <ele>500.39999389648</ele>
        <time>2020-02-22T12:13:41.000Z</time>
      </trkpt>
      <trkpt lat="43.78436" lon="7.24333">
        <ele>500.39999389648</ele>
        <time>2020-02-22T12:13:55.000Z</time>
      </trkpt>
      <trkpt lat="43.78435" lon="7.24333">
        <ele>500.39999389648</ele>
        <time>2020-02-22T12:14:04.000Z</time>
      </trkpt>
      <trkpt lat="43.78436" lon="7.24334">
        <ele>500.60000610352</ele>
        <time>2020-02-22T12:14:22.000Z</time>
      </trkpt>
      <trkpt lat="43.78435" lon="7.24333">
        <ele>500.39999389648</ele>
        <time>2020-02-22T12:14:31.000Z</time>
      </trkpt>
      <trkpt lat="43.78433" lon="7.24333">
        <ele>500.39999389648</ele>
        <time>2020-02-22T12:14:40.000Z</time>
      </trkpt>
      <trkpt lat="43.78422" lon="7.24336">
        <ele>500.20001220703</ele>
        <time>2020-02-22T12:14:46.000Z</time>
      </trkpt>
      <trkpt lat="43.78412" lon="7.2434">
        <ele>500.20001220703</ele>
        <time>2020-02-22T12:14:52.000Z</time>
      </trkpt>
      <trkpt lat="43.78407" lon="7.24339">
        <ele>500.39999389648</ele>
        <time>2020-02-22T12:14:56.000Z</time>
      </trkpt>
      <trkpt lat="43.78407" lon="7.24339">
        <ele>500.60000610352</ele>
        <time>2020-02-22T12:14:58.000Z</time>
      </trkpt>
      <trkpt lat="43.78406" lon="7.2434">
        <ele>500.60000610352</ele>
        <time>2020-02-22T12:15:03.000Z</time>
      </trkpt>
      <trkpt lat="43.78408" lon="7.24341">
        <ele>500.60000610352</ele>
        <time>2020-02-22T12:15:08.000Z</time>
      </trkpt>
      <trkpt lat="43.7841" lon="7.24341">
        <ele>500.39999389648</ele>
        <time>2020-02-22T12:15:10.000Z</time>
      </trkpt>
      <trkpt lat="43.78411" lon="7.24341">
        <ele>500.60000610352</ele>
        <time>2020-02-22T12:15:16.000Z</time>
      </trkpt>
      <trkpt lat="43.78411" lon="7.24342">
        <ele>500.79998779297</ele>
        <time>2020-02-22T12:15:30.000Z</time>
      </trkpt>
      <trkpt lat="43.78411" lon="7.24342">
        <ele>500.39999389648</ele>
        <time>2020-02-22T12:15:40.000Z</time>
      </trkpt>
      <trkpt lat="43.78411" lon="7.24342">
        <ele>501</ele>
        <time>2020-02-22T12:15:54.000Z</time>
      </trkpt>
      <trkpt lat="43.78412" lon="7.24342">
        <ele>500.20001220703</ele>
        <time>2020-02-22T12:16:02.000Z</time>
      </trkpt>
      <trkpt lat="43.78413" lon="7.24343">
        <ele>500.39999389648</ele>
        <time>2020-02-22T12:16:13.000Z</time>
      </trkpt>
      <trkpt lat="43.78413" lon="7.24343">
        <ele>500.60000610352</ele>
        <time>2020-02-22T12:16:23.000Z</time>
      </trkpt>
      <trkpt lat="43.78413" lon="7.24343">
        <ele>500.39999389648</ele>
        <time>2020-02-22T12:16:41.000Z</time>
      </trkpt>
      <trkpt lat="43.78414" lon="7.24343">
        <ele>500.39999389648</ele>
        <time>2020-02-22T12:17:04.000Z</time>
      </trkpt>
      <trkpt lat="43.78417" lon="7.24344">
        <ele>500.20001220703</ele>
        <time>2020-02-22T12:17:24.000Z</time>
      </trkpt>
      <trkpt lat="43.78417" lon="7.24344">
        <ele>500.20001220703</ele>
        <time>2020-02-22T12:17:35.000Z</time>
      </trkpt>
      <trkpt lat="43.78417" lon="7.24344">
        <ele>500.20001220703</ele>
        <time>2020-02-22T12:17:47.000Z</time>
      </trkpt>
      <trkpt lat="43.78417" lon="7.24344">
        <ele>500.39999389648</ele>
        <time>2020-02-22T12:18:06.000Z</time>
      </trkpt>
      <trkpt lat="43.78417" lon="7.24344">
        <ele>500.39999389648</ele>
        <time>2020-02-22T12:18:21.000Z</time>
      </trkpt>
      <trkpt lat="43.78416" lon="7.24344">
        <ele>500.79998779297</ele>
        <time>2020-02-22T12:18:33.000Z</time>
      </trkpt>
      <trkpt lat="43.78416" lon="7.24344">
        <ele>500.39999389648</ele>
        <time>2020-02-22T12:18:49.000Z</time>
      </trkpt>
      <trkpt lat="43.78416" lon="7.24344">
        <ele>500.60000610352</ele>
        <time>2020-02-22T12:19:00.000Z</time>
      </trkpt>
      <trkpt lat="43.78416" lon="7.24344">
        <ele>500.39999389648</ele>
        <time>2020-02-22T12:19:08.000Z</time>
      </trkpt>
      <trkpt lat="43.78415" lon="7.24344">
        <ele>500.39999389648</ele>
        <time>2020-02-22T12:19:30.000Z</time>
      </trkpt>
      <trkpt lat="43.78415" lon="7.24343">
        <ele>500.60000610352</ele>
        <time>2020-02-22T12:19:44.000Z</time>
      </trkpt>
      <trkpt lat="43.78415" lon="7.24343">
        <ele>500.39999389648</ele>
        <time>2020-02-22T12:20:01.000Z</time>
      </trkpt>
      <trkpt lat="43.78415" lon="7.24343">
        <ele>500.60000610352</ele>
        <time>2020-02-22T12:20:17.000Z</time>
      </trkpt>
      <trkpt lat="43.78416" lon="7.24342">
        <ele>500.39999389648</ele>
        <time>2020-02-22T12:20:28.000Z</time>
      </trkpt>
      <trkpt lat="43.78416" lon="7.24343">
        <ele>500.60000610352</ele>
        <time>2020-02-22T12:20:46.000Z</time>
      </trkpt>
      <trkpt lat="43.78416" lon="7.24342">
        <ele>500.39999389648</ele>
        <time>2020-02-22T12:20:59.000Z</time>
      </trkpt>
      <trkpt lat="43.78416" lon="7.24343">
        <ele>500.39999389648</ele>
        <time>2020-02-22T12:21:03.000Z</time>
      </trkpt>
      <trkpt lat="43.78415" lon="7.24343">
        <ele>500.20001220703</ele>
        <time>2020-02-22T12:21:14.000Z</time>
      </trkpt>
      <trkpt lat="43.78415" lon="7.24344">
        <ele>500.20001220703</ele>
        <time>2020-02-22T12:21:33.000Z</time>
      </trkpt>
      <trkpt lat="43.78415" lon="7.24344">
        <ele>500.20001220703</ele>
        <time>2020-02-22T12:21:43.000Z</time>
      </trkpt>
      <trkpt lat="43.78415" lon="7.24344">
        <ele>500.20001220703</ele>
        <time>2020-02-22T12:22:03.000Z</time>
      </trkpt>
      <trkpt lat="43.78415" lon="7.24344">
        <ele>500</ele>
        <time>2020-02-22T12:22:21.000Z</time>
      </trkpt>
      <trkpt lat="43.78415" lon="7.24344">
        <ele>500</ele>
        <time>2020-02-22T12:22:41.000Z</time>
      </trkpt>
      <trkpt lat="43.78415" lon="7.24344">
        <ele>500</ele>
        <time>2020-02-22T12:22:54.000Z</time>
      </trkpt>
      <trkpt lat="43.78414" lon="7.24344">
        <ele>499.79998779297</ele>
        <time>2020-02-22T12:23:11.000Z</time>
      </trkpt>
      <trkpt lat="43.78414" lon="7.24344">
        <ele>499.79998779297</ele>
        <time>2020-02-22T12:23:21.000Z</time>
      </trkpt>
      <trkpt lat="43.78413" lon="7.24344">
        <ele>499.79998779297</ele>
        <time>2020-02-22T12:23:38.000Z</time>
      </trkpt>
      <trkpt lat="43.78413" lon="7.24343">
        <ele>499.79998779297</ele>
        <time>2020-02-22T12:23:53.000Z</time>
      </trkpt>
      <trkpt lat="43.78413" lon="7.24344">
        <ele>499.60000610352</ele>
        <time>2020-02-22T12:24:16.000Z</time>
      </trkpt>
      <trkpt lat="43.78414" lon="7.24344">
        <ele>499.79998779297</ele>
        <time>2020-02-22T12:24:42.000Z</time>
      </trkpt>
      <trkpt lat="43.78414" lon="7.24344">
        <ele>499.60000610352</ele>
        <time>2020-02-22T12:24:56.000Z</time>
      </trkpt>
      <trkpt lat="43.78414" lon="7.24344">
        <ele>499.60000610352</ele>
        <time>2020-02-22T12:25:01.000Z</time>
      </trkpt>
      <trkpt lat="43.78414" lon="7.24344">
        <ele>499.60000610352</ele>
        <time>2020-02-22T12:25:14.000Z</time>
      </trkpt>
      <trkpt lat="43.78414" lon="7.24344">
        <ele>499.79998779297</ele>
        <time>2020-02-22T12:25:31.000Z</time>
      </trkpt>
      <trkpt lat="43.78415" lon="7.24343">
        <ele>499.60000610352</ele>
        <time>2020-02-22T12:25:48.000Z</time>
      </trkpt>
      <trkpt lat="43.78415" lon="7.24343">
        <ele>499.79998779297</ele>
        <time>2020-02-22T12:25:59.000Z</time>
      </trkpt>
      <trkpt lat="43.78414" lon="7.24344">
        <ele>500.20001220703</ele>
        <time>2020-02-22T12:26:23.000Z</time>
      </trkpt>
      <trkpt lat="43.78413" lon="7.24344">
        <ele>500.39999389648</ele>
        <time>2020-02-22T12:26:36.000Z</time>
      </trkpt>
      <trkpt lat="43.78413" lon="7.24344">
        <ele>500.20001220703</ele>
        <time>2020-02-22T12:26:54.000Z</time>
      </trkpt>
      <trkpt lat="43.78413" lon="7.24344">
        <ele>500.60000610352</ele>
        <time>2020-02-22T12:27:10.000Z</time>
      </trkpt>
      <trkpt lat="43.78414" lon="7.24344">
        <ele>500.60000610352</ele>
        <time>2020-02-22T12:27:18.000Z</time>
      </trkpt>
      <trkpt lat="43.78414" lon="7.24345">
        <ele>500.60000610352</ele>
        <time>2020-02-22T12:27:47.000Z</time>
      </trkpt>
      <trkpt lat="43.78414" lon="7.24345">
        <ele>500.60000610352</ele>
        <time>2020-02-22T12:28:13.000Z</time>
      </trkpt>
      <trkpt lat="43.78413" lon="7.24344">
        <ele>500.79998779297</ele>
        <time>2020-02-22T12:28:43.000Z</time>
      </trkpt>
      <trkpt lat="43.78413" lon="7.24344">
        <ele>500.79998779297</ele>
        <time>2020-02-22T12:29:09.000Z</time>
      </trkpt>
      <trkpt lat="43.78413" lon="7.24344">
        <ele>501</ele>
        <time>2020-02-22T12:29:32.000Z</time>
      </trkpt>
      <trkpt lat="43.78414" lon="7.24344">
        <ele>501.20001220703</ele>
        <time>2020-02-22T12:29:58.000Z</time>
      </trkpt>
      <trkpt lat="43.78414" lon="7.24345">
        <ele>501</ele>
        <time>2020-02-22T12:30:29.000Z</time>
      </trkpt>
      <trkpt lat="43.78414" lon="7.24344">
        <ele>501</ele>
        <time>2020-02-22T12:30:58.000Z</time>
      </trkpt>
      <trkpt lat="43.78415" lon="7.24344">
        <ele>501.20001220703</ele>
        <time>2020-02-22T12:31:18.000Z</time>
      </trkpt>
      <trkpt lat="43.78415" lon="7.24344">
        <ele>501.20001220703</ele>
        <time>2020-02-22T12:31:44.000Z</time>
      </trkpt>
      <trkpt lat="43.78415" lon="7.24344">
        <ele>501.39999389648</ele>
        <time>2020-02-22T12:32:07.000Z</time>
      </trkpt>
      <trkpt lat="43.78415" lon="7.24344">
        <ele>501.39999389648</ele>
        <time>2020-02-22T12:32:35.000Z</time>
      </trkpt>
      <trkpt lat="43.78416" lon="7.24343">
        <ele>501.39999389648</ele>
        <time>2020-02-22T12:32:57.000Z</time>
      </trkpt>
      <trkpt lat="43.78415" lon="7.24344">
        <ele>501.39999389648</ele>
        <time>2020-02-22T12:33:25.000Z</time>
      </trkpt>
      <trkpt lat="43.78416" lon="7.24344">
        <ele>501.20001220703</ele>
        <time>2020-02-22T12:33:47.000Z</time>
      </trkpt>
      <trkpt lat="43.78416" lon="7.24344">
        <ele>501.20001220703</ele>
        <time>2020-02-22T12:34:12.000Z</time>
      </trkpt>
      <trkpt lat="43.78416" lon="7.24344">
        <ele>501</ele>
        <time>2020-02-22T12:34:21.000Z</time>
      </trkpt>
      <trkpt lat="43.78416" lon="7.24344">
        <ele>501</ele>
        <time>2020-02-22T12:34:33.000Z</time>
      </trkpt>
      <trkpt lat="43.78416" lon="7.24344">
        <ele>501.20001220703</ele>
        <time>2020-02-22T12:34:46.000Z</time>
      </trkpt>
      <trkpt lat="43.78416" lon="7.24344">
        <ele>501.20001220703</ele>
        <time>2020-02-22T12:35:00.000Z</time>
      </trkpt>
      <trkpt lat="43.78415" lon="7.24344">
        <ele>501</ele>
        <time>2020-02-22T12:35:10.000Z</time>
      </trkpt>
      <trkpt lat="43.78416" lon="7.24344">
        <ele>501</ele>
        <time>2020-02-22T12:35:27.000Z</time>
      </trkpt>
      <trkpt lat="43.78416" lon="7.24344">
        <ele>501</ele>
        <time>2020-02-22T12:35:55.000Z</time>
      </trkpt>
      <trkpt lat="43.78416" lon="7.24344">
        <ele>500.79998779297</ele>
        <time>2020-02-22T12:36:16.000Z</time>
      </trkpt>
      <trkpt lat="43.78417" lon="7.24344">
        <ele>500.39999389648</ele>
        <time>2020-02-22T12:36:36.000Z</time>
      </trkpt>
      <trkpt lat="43.78417" lon="7.24344">
        <ele>500.60000610352</ele>
        <time>2020-02-22T12:36:50.000Z</time>
      </trkpt>
      <trkpt lat="43.78416" lon="7.24344">
        <ele>500.60000610352</ele>
        <time>2020-02-22T12:37:17.000Z</time>
      </trkpt>
      <trkpt lat="43.78415" lon="7.24345">
        <ele>500.79998779297</ele>
        <time>2020-02-22T12:37:36.000Z</time>
      </trkpt>
      <trkpt lat="43.78415" lon="7.24345">
        <ele>500.79998779297</ele>
        <time>2020-02-22T12:37:59.000Z</time>
      </trkpt>
      <trkpt lat="43.78415" lon="7.24345">
        <ele>500.79998779297</ele>
        <time>2020-02-22T12:38:15.000Z</time>
      </trkpt>
      <trkpt lat="43.78415" lon="7.24345">
        <ele>500.79998779297</ele>
        <time>2020-02-22T12:38:35.000Z</time>
      </trkpt>
      <trkpt lat="43.78415" lon="7.24346">
        <ele>500.60000610352</ele>
        <time>2020-02-22T12:38:56.000Z</time>
      </trkpt>
      <trkpt lat="43.78415" lon="7.24346">
        <ele>500.79998779297</ele>
        <time>2020-02-22T12:39:21.000Z</time>
      </trkpt>
      <trkpt lat="43.78415" lon="7.24345">
        <ele>501</ele>
        <time>2020-02-22T12:39:48.000Z</time>
      </trkpt>
      <trkpt lat="43.78416" lon="7.24346">
        <ele>500.79998779297</ele>
        <time>2020-02-22T12:39:57.000Z</time>
      </trkpt>
      <trkpt lat="43.78416" lon="7.24346">
        <ele>500.60000610352</ele>
        <time>2020-02-22T12:40:13.000Z</time>
      </trkpt>
      <trkpt lat="43.78415" lon="7.24346">
        <ele>501</ele>
        <time>2020-02-22T12:40:37.000Z</time>
      </trkpt>
      <trkpt lat="43.78415" lon="7.24346">
        <ele>501</ele>
        <time>2020-02-22T12:41:05.000Z</time>
      </trkpt>
      <trkpt lat="43.78416" lon="7.24345">
        <ele>500.79998779297</ele>
        <time>2020-02-22T12:41:23.000Z</time>
      </trkpt>
      <trkpt lat="43.78415" lon="7.24345">
        <ele>500.60000610352</ele>
        <time>2020-02-22T12:41:51.000Z</time>
      </trkpt>
      <trkpt lat="43.78415" lon="7.24345">
        <ele>500.79998779297</ele>
        <time>2020-02-22T12:42:15.000Z</time>
      </trkpt>
      <trkpt lat="43.78414" lon="7.24344">
        <ele>500.60000610352</ele>
        <time>2020-02-22T12:42:35.000Z</time>
      </trkpt>
      <trkpt lat="43.78414" lon="7.24344">
        <ele>500.39999389648</ele>
        <time>2020-02-22T12:42:55.000Z</time>
      </trkpt>
      <trkpt lat="43.78415" lon="7.24344">
        <ele>500.79998779297</ele>
        <time>2020-02-22T12:43:22.000Z</time>
      </trkpt>
      <trkpt lat="43.78415" lon="7.24344">
        <ele>500.60000610352</ele>
        <time>2020-02-22T12:43:39.000Z</time>
      </trkpt>
      <trkpt lat="43.78414" lon="7.24345">
        <ele>500.39999389648</ele>
        <time>2020-02-22T12:43:48.000Z</time>
      </trkpt>
      <trkpt lat="43.78414" lon="7.24346">
        <ele>500.39999389648</ele>
        <time>2020-02-22T12:43:56.000Z</time>
      </trkpt>
      <trkpt lat="43.78414" lon="7.24347">
        <ele>500.60000610352</ele>
        <time>2020-02-22T12:44:06.000Z</time>
      </trkpt>
      <trkpt lat="43.78414" lon="7.24346">
        <ele>500.79998779297</ele>
        <time>2020-02-22T12:44:17.000Z</time>
      </trkpt>
      <trkpt lat="43.78415" lon="7.24347">
        <ele>501</ele>
        <time>2020-02-22T12:44:25.000Z</time>
      </trkpt>
      <trkpt lat="43.78414" lon="7.24347">
        <ele>500.79998779297</ele>
        <time>2020-02-22T12:44:35.000Z</time>
      </trkpt>
      <trkpt lat="43.78414" lon="7.24346">
        <ele>500.60000610352</ele>
        <time>2020-02-22T12:44:43.000Z</time>
      </trkpt>
      <trkpt lat="43.78413" lon="7.24345">
        <ele>500.79998779297</ele>
        <time>2020-02-22T12:44:53.000Z</time>
      </trkpt>
      <trkpt lat="43.78413" lon="7.24345">
        <ele>500.60000610352</ele>
        <time>2020-02-22T12:45:00.000Z</time>
      </trkpt>
      <trkpt lat="43.78413" lon="7.24345">
        <ele>500.79998779297</ele>
        <time>2020-02-22T12:45:08.000Z</time>
      </trkpt>
      <trkpt lat="43.78414" lon="7.24344">
        <ele>500.79998779297</ele>
        <time>2020-02-22T12:45:21.000Z</time>
      </trkpt>
      <trkpt lat="43.78415" lon="7.24343">
        <ele>499.79998779297</ele>
        <time>2020-02-22T12:45:27.000Z</time>
      </trkpt>
      <trkpt lat="43.78415" lon="7.24343">
        <ele>500.20001220703</ele>
        <time>2020-02-22T12:45:33.000Z</time>
      </trkpt>
      <trkpt lat="43.78415" lon="7.2434">
        <ele>500.20001220703</ele>
        <time>2020-02-22T12:45:36.000Z</time>
      </trkpt>
      <trkpt lat="43.78416" lon="7.24339">
        <ele>500.20001220703</ele>
        <time>2020-02-22T12:45:39.000Z</time>
      </trkpt>
      <trkpt lat="43.78414" lon="7.24338">
        <ele>500.20001220703</ele>
        <time>2020-02-22T12:45:44.000Z</time>
      </trkpt>
      <trkpt lat="43.78412" lon="7.24337">
        <ele>500.39999389648</ele>
        <time>2020-02-22T12:45:50.000Z</time>
      </trkpt>
      <trkpt lat="43.78418" lon="7.2434">
        <ele>500.60000610352</ele>
        <time>2020-02-22T12:45:57.000Z</time>
      </trkpt>
      <trkpt lat="43.78419" lon="7.24342">
        <ele>500.20001220703</ele>
        <time>2020-02-22T12:46:04.000Z</time>
      </trkpt>
      <trkpt lat="43.78419" lon="7.24343">
        <ele>500.60000610352</ele>
        <time>2020-02-22T12:46:15.000Z</time>
      </trkpt>
      <trkpt lat="43.78418" lon="7.24345">
        <ele>500.60000610352</ele>
        <time>2020-02-22T12:46:28.000Z</time>
      </trkpt>
      <trkpt lat="43.78418" lon="7.24344">
        <ele>500.79998779297</ele>
        <time>2020-02-22T12:46:33.000Z</time>
      </trkpt>
      <trkpt lat="43.78419" lon="7.24344">
        <ele>501.20001220703</ele>
        <time>2020-02-22T12:46:39.000Z</time>
      </trkpt>
      <trkpt lat="43.7842" lon="7.24344">
        <ele>501</ele>
        <time>2020-02-22T12:46:47.000Z</time>
      </trkpt>
      <trkpt lat="43.78418" lon="7.24344">
        <ele>501</ele>
        <time>2020-02-22T12:46:52.000Z</time>
      </trkpt>
      <trkpt lat="43.78417" lon="7.24344">
        <ele>501</ele>
        <time>2020-02-22T12:46:53.000Z</time>
      </trkpt>
      <trkpt lat="43.78414" lon="7.24346">
        <ele>501.20001220703</ele>
        <time>2020-02-22T12:46:55.000Z</time>
      </trkpt>
      <trkpt lat="43.78413" lon="7.24348">
        <ele>501</ele>
        <time>2020-02-22T12:46:58.000Z</time>
      </trkpt>
      <trkpt lat="43.78413" lon="7.24348">
        <ele>501</ele>
        <time>2020-02-22T12:47:01.000Z</time>
      </trkpt>
      <trkpt lat="43.78415" lon="7.2435">
        <ele>501</ele>
        <time>2020-02-22T12:47:03.000Z</time>
      </trkpt>
      <trkpt lat="43.78421" lon="7.2436">
        <ele>501</ele>
        <time>2020-02-22T12:47:07.000Z</time>
      </trkpt>
      <trkpt lat="43.78429" lon="7.24365">
        <ele>500.60000610352</ele>
        <time>2020-02-22T12:47:11.000Z</time>
      </trkpt>
      <trkpt lat="43.78435" lon="7.2437">
        <ele>500.39999389648</ele>
        <time>2020-02-22T12:47:13.000Z</time>
      </trkpt>
      <trkpt lat="43.78448" lon="7.2438">
        <ele>500.20001220703</ele>
        <time>2020-02-22T12:47:17.000Z</time>
      </trkpt>
      <trkpt lat="43.7845" lon="7.24382">
        <ele>500</ele>
        <time>2020-02-22T12:47:20.000Z</time>
      </trkpt>
      <trkpt lat="43.78451" lon="7.24383">
        <ele>499.60000610352</ele>
        <time>2020-02-22T12:47:24.000Z</time>
      </trkpt>
      <trkpt lat="43.78452" lon="7.24383">
        <ele>499.60000610352</ele>
        <time>2020-02-22T12:47:26.000Z</time>
      </trkpt>
      <trkpt lat="43.78452" lon="7.24381">
        <ele>499.60000610352</ele>
        <time>2020-02-22T12:47:27.000Z</time>
      </trkpt>
      <trkpt lat="43.7845" lon="7.2438">
        <ele>499.60000610352</ele>
        <time>2020-02-22T12:47:28.000Z</time>
      </trkpt>
      <trkpt lat="43.78446" lon="7.2438">
        <ele>499.39999389648</ele>
        <time>2020-02-22T12:47:30.000Z</time>
      </trkpt>
      <trkpt lat="43.78443" lon="7.2438">
        <ele>499.60000610352</ele>
        <time>2020-02-22T12:47:31.000Z</time>
      </trkpt>
      <trkpt lat="43.78432" lon="7.24383">
        <ele>499.79998779297</ele>
        <time>2020-02-22T12:47:35.000Z</time>
      </trkpt>
      <trkpt lat="43.7843" lon="7.24386">
        <ele>499.79998779297</ele>
        <time>2020-02-22T12:47:37.000Z</time>
      </trkpt>
      <trkpt lat="43.78428" lon="7.2439">
        <ele>499.79998779297</ele>
        <time>2020-02-22T12:47:39.000Z</time>
      </trkpt>
      <trkpt lat="43.78428" lon="7.24394">
        <ele>499.60000610352</ele>
        <time>2020-02-22T12:47:45.000Z</time>
      </trkpt>
      <trkpt lat="43.7843" lon="7.24395">
        <ele>499.60000610352</ele>
        <time>2020-02-22T12:47:47.000Z</time>
      </trkpt>
      <trkpt lat="43.78433" lon="7.2439">
        <ele>499.60000610352</ele>
        <time>2020-02-22T12:47:50.000Z</time>
      </trkpt>
      <trkpt lat="43.78433" lon="7.24379">
        <ele>499.60000610352</ele>
        <time>2020-02-22T12:47:55.000Z</time>
      </trkpt>
      <trkpt lat="43.78433" lon="7.24378">
        <ele>499.60000610352</ele>
        <time>2020-02-22T12:47:56.000Z</time>
      </trkpt>
      <trkpt lat="43.78428" lon="7.24367">
        <ele>500.20001220703</ele>
        <time>2020-02-22T12:48:02.000Z</time>
      </trkpt>
      <trkpt lat="43.78427" lon="7.24361">
        <ele>500.60000610352</ele>
        <time>2020-02-22T12:48:06.000Z</time>
      </trkpt>
      <trkpt lat="43.78426" lon="7.2436">
        <ele>500.60000610352</ele>
        <time>2020-02-22T12:48:07.000Z</time>
      </trkpt>
      <trkpt lat="43.78424" lon="7.24357">
        <ele>500.79998779297</ele>
        <time>2020-02-22T12:48:09.000Z</time>
      </trkpt>
      <trkpt lat="43.78424" lon="7.24354">
        <ele>500.79998779297</ele>
        <time>2020-02-22T12:48:11.000Z</time>
      </trkpt>
      <trkpt lat="43.78425" lon="7.24352">
        <ele>501.20001220703</ele>
        <time>2020-02-22T12:48:16.000Z</time>
      </trkpt>
      <trkpt lat="43.78425" lon="7.24352">
        <ele>501.20001220703</ele>
        <time>2020-02-22T12:48:30.000Z</time>
      </trkpt>
      <trkpt lat="43.78425" lon="7.24352">
        <ele>501.39999389648</ele>
        <time>2020-02-22T12:48:45.000Z</time>
      </trkpt>
      <trkpt lat="43.78424" lon="7.24351">
        <ele>501.60000610352</ele>
        <time>2020-02-22T12:48:54.000Z</time>
      </trkpt>
      <trkpt lat="43.78425" lon="7.24352">
        <ele>501.39999389648</ele>
        <time>2020-02-22T12:49:02.000Z</time>
      </trkpt>
      <trkpt lat="43.78425" lon="7.24353">
        <ele>501.60000610352</ele>
        <time>2020-02-22T12:49:04.000Z</time>
      </trkpt>
      <trkpt lat="43.78425" lon="7.24353">
        <ele>502</ele>
        <time>2020-02-22T12:49:13.000Z</time>
      </trkpt>
      <trkpt lat="43.78424" lon="7.24354">
        <ele>502</ele>
        <time>2020-02-22T12:49:33.000Z</time>
      </trkpt>
      <trkpt lat="43.78423" lon="7.24355">
        <ele>502.20001220703</ele>
        <time>2020-02-22T12:49:53.000Z</time>
      </trkpt>
      <trkpt lat="43.78423" lon="7.24355">
        <ele>502.20001220703</ele>
        <time>2020-02-22T12:50:09.000Z</time>
      </trkpt>
      <trkpt lat="43.78423" lon="7.24355">
        <ele>502.20001220703</ele>
        <time>2020-02-22T12:50:20.000Z</time>
      </trkpt>
      <trkpt lat="43.78423" lon="7.24356">
        <ele>502.39999389648</ele>
        <time>2020-02-22T12:50:34.000Z</time>
      </trkpt>
      <trkpt lat="43.78423" lon="7.24356">
        <ele>502.60000610352</ele>
        <time>2020-02-22T12:50:42.000Z</time>
      </trkpt>
      <trkpt lat="43.78422" lon="7.24356">
        <ele>502.60000610352</ele>
        <time>2020-02-22T12:50:51.000Z</time>
      </trkpt>
      <trkpt lat="43.78423" lon="7.24356">
        <ele>502.60000610352</ele>
        <time>2020-02-22T12:50:57.000Z</time>
      </trkpt>
      <trkpt lat="43.78424" lon="7.24358">
        <ele>502.60000610352</ele>
        <time>2020-02-22T12:51:00.000Z</time>
      </trkpt>
      <trkpt lat="43.78425" lon="7.24362">
        <ele>502.60000610352</ele>
        <time>2020-02-22T12:51:02.000Z</time>
      </trkpt>
      <trkpt lat="43.78432" lon="7.24372">
        <ele>502.39999389648</ele>
        <time>2020-02-22T12:51:06.000Z</time>
      </trkpt>
      <trkpt lat="43.78451" lon="7.24385">
        <ele>501.79998779297</ele>
        <time>2020-02-22T12:51:12.000Z</time>
      </trkpt>
      <trkpt lat="43.78459" lon="7.24391">
        <ele>501.39999389648</ele>
        <time>2020-02-22T12:51:14.000Z</time>
      </trkpt>
      <trkpt lat="43.78465" lon="7.24401">
        <ele>501.20001220703</ele>
        <time>2020-02-22T12:51:16.000Z</time>
      </trkpt>
      <trkpt lat="43.78472" lon="7.24421">
        <ele>500.39999389648</ele>
        <time>2020-02-22T12:51:19.000Z</time>
      </trkpt>
      <trkpt lat="43.78474" lon="7.24429">
        <ele>500.20001220703</ele>
        <time>2020-02-22T12:51:20.000Z</time>
      </trkpt>
      <trkpt lat="43.78481" lon="7.24458">
        <ele>499.20001220703</ele>
        <time>2020-02-22T12:51:24.000Z</time>
      </trkpt>
      <trkpt lat="43.78486" lon="7.24486">
        <ele>498</ele>
        <time>2020-02-22T12:51:28.000Z</time>
      </trkpt>
      <trkpt lat="43.7848" lon="7.24501">
        <ele>497.39999389648</ele>
        <time>2020-02-22T12:51:31.000Z</time>
      </trkpt>
      <trkpt lat="43.78478" lon="7.24504">
        <ele>497.60000610352</ele>
        <time>2020-02-22T12:51:32.000Z</time>
      </trkpt>
      <trkpt lat="43.7847" lon="7.24514">
        <ele>499.20001220703</ele>
        <time>2020-02-22T12:51:36.000Z</time>
      </trkpt>
      <trkpt lat="43.78468" lon="7.24516">
        <ele>499.39999389648</ele>
        <time>2020-02-22T12:51:37.000Z</time>
      </trkpt>
      <trkpt lat="43.7846" lon="7.24537">
        <ele>500.20001220703</ele>
        <time>2020-02-22T12:51:43.000Z</time>
      </trkpt>
      <trkpt lat="43.7845" lon="7.24561">
        <ele>501.39999389648</ele>
        <time>2020-02-22T12:51:49.000Z</time>
      </trkpt>
      <trkpt lat="43.78449" lon="7.24566">
        <ele>501.60000610352</ele>
        <time>2020-02-22T12:51:50.000Z</time>
      </trkpt>
      <trkpt lat="43.78446" lon="7.24588">
        <ele>502.60000610352</ele>
        <time>2020-02-22T12:51:55.000Z</time>
      </trkpt>
      <trkpt lat="43.78446" lon="7.24594">
        <ele>502.79998779297</ele>
        <time>2020-02-22T12:51:56.000Z</time>
      </trkpt>
      <trkpt lat="43.78442" lon="7.24617">
        <ele>503.79998779297</ele>
        <time>2020-02-22T12:52:01.000Z</time>
      </trkpt>
      <trkpt lat="43.78441" lon="7.24621">
        <ele>503.79998779297</ele>
        <time>2020-02-22T12:52:02.000Z</time>
      </trkpt>
      <trkpt lat="43.7843" lon="7.24637">
        <ele>505</ele>
        <time>2020-02-22T12:52:07.000Z</time>
      </trkpt>
      <trkpt lat="43.78426" lon="7.24643">
        <ele>505.79998779297</ele>
        <time>2020-02-22T12:52:09.000Z</time>
      </trkpt>
      <trkpt lat="43.78424" lon="7.24646">
        <ele>506</ele>
        <time>2020-02-22T12:52:10.000Z</time>
      </trkpt>
      <trkpt lat="43.78413" lon="7.24662">
        <ele>507.20001220703</ele>
        <time>2020-02-22T12:52:15.000Z</time>
      </trkpt>
      <trkpt lat="43.78409" lon="7.24668">
        <ele>507.60000610352</ele>
        <time>2020-02-22T12:52:17.000Z</time>
      </trkpt>
      <trkpt lat="43.78406" lon="7.24675">
        <ele>508.20001220703</ele>
        <time>2020-02-22T12:52:19.000Z</time>
      </trkpt>
      <trkpt lat="43.784" lon="7.24692">
        <ele>509.39999389648</ele>
        <time>2020-02-22T12:52:24.000Z</time>
      </trkpt>
      <trkpt lat="43.78397" lon="7.247">
        <ele>510.60000610352</ele>
        <time>2020-02-22T12:52:28.000Z</time>
      </trkpt>
      <trkpt lat="43.78397" lon="7.24702">
        <ele>510.79998779297</ele>
        <time>2020-02-22T12:52:29.000Z</time>
      </trkpt>
      <trkpt lat="43.78396" lon="7.24705">
        <ele>511.20001220703</ele>
        <time>2020-02-22T12:52:37.000Z</time>
      </trkpt>
      <trkpt lat="43.78396" lon="7.24706">
        <ele>511</ele>
        <time>2020-02-22T12:52:52.000Z</time>
      </trkpt>
      <trkpt lat="43.78396" lon="7.24709">
        <ele>511.20001220703</ele>
        <time>2020-02-22T12:53:02.000Z</time>
      </trkpt>
      <trkpt lat="43.78393" lon="7.24721">
        <ele>511.79998779297</ele>
        <time>2020-02-22T12:53:07.000Z</time>
      </trkpt>
      <trkpt lat="43.78392" lon="7.24724">
        <ele>512</ele>
        <time>2020-02-22T12:53:08.000Z</time>
      </trkpt>
      <trkpt lat="43.78387" lon="7.24743">
        <ele>512.59997558594</ele>
        <time>2020-02-22T12:53:14.000Z</time>
      </trkpt>
      <trkpt lat="43.78386" lon="7.2475">
        <ele>513</ele>
        <time>2020-02-22T12:53:16.000Z</time>
      </trkpt>
      <trkpt lat="43.78382" lon="7.24768">
        <ele>514</ele>
        <time>2020-02-22T12:53:21.000Z</time>
      </trkpt>
      <trkpt lat="43.78381" lon="7.24772">
        <ele>514.20001220703</ele>
        <time>2020-02-22T12:53:22.000Z</time>
      </trkpt>
      <trkpt lat="43.78379" lon="7.24784">
        <ele>515.20001220703</ele>
        <time>2020-02-22T12:53:25.000Z</time>
      </trkpt>
      <trkpt lat="43.78376" lon="7.24796">
        <ele>515.40002441406</ele>
        <time>2020-02-22T12:53:28.000Z</time>
      </trkpt>
      <trkpt lat="43.78367" lon="7.24835">
        <ele>516.20001220703</ele>
        <time>2020-02-22T12:53:37.000Z</time>
      </trkpt>
      <trkpt lat="43.78367" lon="7.2484">
        <ele>516.20001220703</ele>
        <time>2020-02-22T12:53:38.000Z</time>
      </trkpt>
      <trkpt lat="43.78363" lon="7.24875">
        <ele>517.40002441406</ele>
        <time>2020-02-22T12:53:46.000Z</time>
      </trkpt>
      <trkpt lat="43.7836" lon="7.24911">
        <ele>518.40002441406</ele>
        <time>2020-02-22T12:53:54.000Z</time>
      </trkpt>
      <trkpt lat="43.78359" lon="7.24916">
        <ele>518.59997558594</ele>
        <time>2020-02-22T12:53:55.000Z</time>
      </trkpt>
      <trkpt lat="43.78356" lon="7.24954">
        <ele>519.40002441406</ele>
        <time>2020-02-22T12:54:03.000Z</time>
      </trkpt>
      <trkpt lat="43.78354" lon="7.24964">
        <ele>519.79998779297</ele>
        <time>2020-02-22T12:54:05.000Z</time>
      </trkpt>
      <trkpt lat="43.78344" lon="7.24995">
        <ele>520.59997558594</ele>
        <time>2020-02-22T12:54:12.000Z</time>
      </trkpt>
      <trkpt lat="43.78343" lon="7.25">
        <ele>520.79998779297</ele>
        <time>2020-02-22T12:54:13.000Z</time>
      </trkpt>
      <trkpt lat="43.78338" lon="7.25022">
        <ele>521.59997558594</ele>
        <time>2020-02-22T12:54:18.000Z</time>
      </trkpt>
      <trkpt lat="43.78333" lon="7.25035">
        <ele>522.20001220703</ele>
        <time>2020-02-22T12:54:21.000Z</time>
      </trkpt>
      <trkpt lat="43.78331" lon="7.25043">
        <ele>522.79998779297</ele>
        <time>2020-02-22T12:54:23.000Z</time>
      </trkpt>
      <trkpt lat="43.7832" lon="7.25066">
        <ele>523.79998779297</ele>
        <time>2020-02-22T12:54:29.000Z</time>
      </trkpt>
      <trkpt lat="43.78316" lon="7.25074">
        <ele>524.40002441406</ele>
        <time>2020-02-22T12:54:31.000Z</time>
      </trkpt>
      <trkpt lat="43.78312" lon="7.25082">
        <ele>524.79998779297</ele>
        <time>2020-02-22T12:54:33.000Z</time>
      </trkpt>
      <trkpt lat="43.783" lon="7.25102">
        <ele>526</ele>
        <time>2020-02-22T12:54:39.000Z</time>
      </trkpt>
      <trkpt lat="43.78289" lon="7.25121">
        <ele>527</ele>
        <time>2020-02-22T12:54:45.000Z</time>
      </trkpt>
      <trkpt lat="43.78283" lon="7.25131">
        <ele>527.79998779297</ele>
        <time>2020-02-22T12:54:48.000Z</time>
      </trkpt>
      <trkpt lat="43.78279" lon="7.25138">
        <ele>528.20001220703</ele>
        <time>2020-02-22T12:54:50.000Z</time>
      </trkpt>
      <trkpt lat="43.78269" lon="7.25154">
        <ele>529.40002441406</ele>
        <time>2020-02-22T12:54:55.000Z</time>
      </trkpt>
      <trkpt lat="43.78249" lon="7.25187">
        <ele>530.59997558594</ele>
        <time>2020-02-22T12:55:05.000Z</time>
      </trkpt>
      <trkpt lat="43.78239" lon="7.25205">
        <ele>531.59997558594</ele>
        <time>2020-02-22T12:55:10.000Z</time>
      </trkpt>
      <trkpt lat="43.78234" lon="7.25215">
        <ele>531.79998779297</ele>
        <time>2020-02-22T12:55:13.000Z</time>
      </trkpt>
      <trkpt lat="43.78223" lon="7.25234">
        <ele>532.59997558594</ele>
        <time>2020-02-22T12:55:19.000Z</time>
      </trkpt>
      <trkpt lat="43.78208" lon="7.25251">
        <ele>533.59997558594</ele>
        <time>2020-02-22T12:55:26.000Z</time>
      </trkpt>
      <trkpt lat="43.78207" lon="7.25254">
        <ele>533.79998779297</ele>
        <time>2020-02-22T12:55:27.000Z</time>
      </trkpt>
      <trkpt lat="43.78202" lon="7.25266">
        <ele>534.20001220703</ele>
        <time>2020-02-22T12:55:32.000Z</time>
      </trkpt>
      <trkpt lat="43.78198" lon="7.25283">
        <ele>534.59997558594</ele>
        <time>2020-02-22T12:55:38.000Z</time>
      </trkpt>
      <trkpt lat="43.78196" lon="7.25285">
        <ele>534.79998779297</ele>
        <time>2020-02-22T12:55:39.000Z</time>
      </trkpt>
      <trkpt lat="43.7819" lon="7.25285">
        <ele>534.59997558594</ele>
        <time>2020-02-22T12:55:42.000Z</time>
      </trkpt>
      <trkpt lat="43.78186" lon="7.25281">
        <ele>534.79998779297</ele>
        <time>2020-02-22T12:55:44.000Z</time>
      </trkpt>
      <trkpt lat="43.78178" lon="7.25273">
        <ele>534.79998779297</ele>
        <time>2020-02-22T12:55:48.000Z</time>
      </trkpt>
      <trkpt lat="43.78176" lon="7.25271">
        <ele>534.79998779297</ele>
        <time>2020-02-22T12:55:49.000Z</time>
      </trkpt>
      <trkpt lat="43.7816" lon="7.25257">
        <ele>535.40002441406</ele>
        <time>2020-02-22T12:55:56.000Z</time>
      </trkpt>
      <trkpt lat="43.78154" lon="7.25253">
        <ele>536.40002441406</ele>
        <time>2020-02-22T12:55:59.000Z</time>
      </trkpt>
      <trkpt lat="43.78152" lon="7.2525">
        <ele>537.40002441406</ele>
        <time>2020-02-22T12:56:01.000Z</time>
      </trkpt>
      <trkpt lat="43.78154" lon="7.25245">
        <ele>538.79998779297</ele>
        <time>2020-02-22T12:56:04.000Z</time>
      </trkpt>
      <trkpt lat="43.78154" lon="7.25243">
        <ele>539</ele>
        <time>2020-02-22T12:56:05.000Z</time>
      </trkpt>
      <trkpt lat="43.78149" lon="7.25241">
        <ele>539.79998779297</ele>
        <time>2020-02-22T12:56:09.000Z</time>
      </trkpt>
      <trkpt lat="43.78141" lon="7.25249">
        <ele>541</ele>
        <time>2020-02-22T12:56:13.000Z</time>
      </trkpt>
      <trkpt lat="43.78139" lon="7.25251">
        <ele>541.20001220703</ele>
        <time>2020-02-22T12:56:14.000Z</time>
      </trkpt>
      <trkpt lat="43.78135" lon="7.25256">
        <ele>542.20001220703</ele>
        <time>2020-02-22T12:56:16.000Z</time>
      </trkpt>
      <trkpt lat="43.78131" lon="7.25259">
        <ele>543.59997558594</ele>
        <time>2020-02-22T12:56:18.000Z</time>
      </trkpt>
      <trkpt lat="43.78127" lon="7.25263">
        <ele>544.79998779297</ele>
        <time>2020-02-22T12:56:20.000Z</time>
      </trkpt>
      <trkpt lat="43.78122" lon="7.25267">
        <ele>546</ele>
        <time>2020-02-22T12:56:23.000Z</time>
      </trkpt>
      <trkpt lat="43.78115" lon="7.25271">
        <ele>547.20001220703</ele>
        <time>2020-02-22T12:56:27.000Z</time>
      </trkpt>
      <trkpt lat="43.78112" lon="7.25274">
        <ele>547.59997558594</ele>
        <time>2020-02-22T12:56:29.000Z</time>
      </trkpt>
      <trkpt lat="43.78106" lon="7.25279">
        <ele>548.40002441406</ele>
        <time>2020-02-22T12:56:33.000Z</time>
      </trkpt>
      <trkpt lat="43.78099" lon="7.25284">
        <ele>549.59997558594</ele>
        <time>2020-02-22T12:56:37.000Z</time>
      </trkpt>
      <trkpt lat="43.78088" lon="7.25292">
        <ele>550.79998779297</ele>
        <time>2020-02-22T12:56:44.000Z</time>
      </trkpt>
      <trkpt lat="43.78083" lon="7.25297">
        <ele>551.20001220703</ele>
        <time>2020-02-22T12:56:47.000Z</time>
      </trkpt>
      <trkpt lat="43.78075" lon="7.25303">
        <ele>552</ele>
        <time>2020-02-22T12:56:52.000Z</time>
      </trkpt>
      <trkpt lat="43.78069" lon="7.25307">
        <ele>552.59997558594</ele>
        <time>2020-02-22T12:56:55.000Z</time>
      </trkpt>
      <trkpt lat="43.78067" lon="7.25308">
        <ele>553</ele>
        <time>2020-02-22T12:56:56.000Z</time>
      </trkpt>
      <trkpt lat="43.78062" lon="7.25312">
        <ele>554</ele>
        <time>2020-02-22T12:56:59.000Z</time>
      </trkpt>
      <trkpt lat="43.78056" lon="7.25316">
        <ele>555.20001220703</ele>
        <time>2020-02-22T12:57:02.000Z</time>
      </trkpt>
      <trkpt lat="43.78055" lon="7.25317">
        <ele>555.59997558594</ele>
        <time>2020-02-22T12:57:03.000Z</time>
      </trkpt>
      <trkpt lat="43.78051" lon="7.2532">
        <ele>556.40002441406</ele>
        <time>2020-02-22T12:57:05.000Z</time>
      </trkpt>
      <trkpt lat="43.78045" lon="7.25324">
        <ele>557.59997558594</ele>
        <time>2020-02-22T12:57:08.000Z</time>
      </trkpt>
      <trkpt lat="43.78038" lon="7.25327">
        <ele>559</ele>
        <time>2020-02-22T12:57:11.000Z</time>
      </trkpt>
      <trkpt lat="43.78033" lon="7.2533">
        <ele>560.20001220703</ele>
        <time>2020-02-22T12:57:14.000Z</time>
      </trkpt>
      <trkpt lat="43.78027" lon="7.25336">
        <ele>561.59997558594</ele>
        <time>2020-02-22T12:57:17.000Z</time>
      </trkpt>
      <trkpt lat="43.78025" lon="7.25338">
        <ele>562.20001220703</ele>
        <time>2020-02-22T12:57:18.000Z</time>
      </trkpt>
      <trkpt lat="43.78023" lon="7.2534">
        <ele>562.59997558594</ele>
        <time>2020-02-22T12:57:19.000Z</time>
      </trkpt>
      <trkpt lat="43.78018" lon="7.25347">
        <ele>564.20001220703</ele>
        <time>2020-02-22T12:57:22.000Z</time>
      </trkpt>
      <trkpt lat="43.78012" lon="7.25354">
        <ele>565.59997558594</ele>
        <time>2020-02-22T12:57:25.000Z</time>
      </trkpt>
      <trkpt lat="43.7801" lon="7.25356">
        <ele>565.79998779297</ele>
        <time>2020-02-22T12:57:26.000Z</time>
      </trkpt>
      <trkpt lat="43.78007" lon="7.25361">
        <ele>566.59997558594</ele>
        <time>2020-02-22T12:57:28.000Z</time>
      </trkpt>
      <trkpt lat="43.77997" lon="7.25374">
        <ele>567.59997558594</ele>
        <time>2020-02-22T12:57:34.000Z</time>
      </trkpt>
      <trkpt lat="43.77985" lon="7.25392">
        <ele>568.40002441406</ele>
        <time>2020-02-22T12:57:41.000Z</time>
      </trkpt>
      <trkpt lat="43.7798" lon="7.25399">
        <ele>568.79998779297</ele>
        <time>2020-02-22T12:57:44.000Z</time>
      </trkpt>
      <trkpt lat="43.77971" lon="7.25406">
        <ele>568.79998779297</ele>
        <time>2020-02-22T12:57:48.000Z</time>
      </trkpt>
      <trkpt lat="43.7796" lon="7.25415">
        <ele>569.40002441406</ele>
        <time>2020-02-22T12:57:53.000Z</time>
      </trkpt>
      <trkpt lat="43.77957" lon="7.25419">
        <ele>570</ele>
        <time>2020-02-22T12:57:55.000Z</time>
      </trkpt>
      <trkpt lat="43.7795" lon="7.25425">
        <ele>570.79998779297</ele>
        <time>2020-02-22T12:57:58.000Z</time>
      </trkpt>
      <trkpt lat="43.77947" lon="7.25427">
        <ele>571.20001220703</ele>
        <time>2020-02-22T12:58:00.000Z</time>
      </trkpt>
      <trkpt lat="43.77941" lon="7.25434">
        <ele>572.40002441406</ele>
        <time>2020-02-22T12:58:03.000Z</time>
      </trkpt>
      <trkpt lat="43.77937" lon="7.25447">
        <ele>573.40002441406</ele>
        <time>2020-02-22T12:58:07.000Z</time>
      </trkpt>
      <trkpt lat="43.77936" lon="7.2545">
        <ele>573.40002441406</ele>
        <time>2020-02-22T12:58:08.000Z</time>
      </trkpt>
      <trkpt lat="43.77929" lon="7.25467">
        <ele>574.40002441406</ele>
        <time>2020-02-22T12:58:13.000Z</time>
      </trkpt>
      <trkpt lat="43.77923" lon="7.2548">
        <ele>575.79998779297</ele>
        <time>2020-02-22T12:58:17.000Z</time>
      </trkpt>
      <trkpt lat="43.77921" lon="7.25484">
        <ele>576.20001220703</ele>
        <time>2020-02-22T12:58:18.000Z</time>
      </trkpt>
      <trkpt lat="43.77919" lon="7.25489">
        <ele>577.20001220703</ele>
        <time>2020-02-22T12:58:20.000Z</time>
      </trkpt>
      <trkpt lat="43.77917" lon="7.25494">
        <ele>578.79998779297</ele>
        <time>2020-02-22T12:58:22.000Z</time>
      </trkpt>
      <trkpt lat="43.77915" lon="7.25497">
        <ele>579.40002441406</ele>
        <time>2020-02-22T12:58:23.000Z</time>
      </trkpt>
      <trkpt lat="43.77914" lon="7.255">
        <ele>579.79998779297</ele>
        <time>2020-02-22T12:58:24.000Z</time>
      </trkpt>
      <trkpt lat="43.77908" lon="7.25508">
        <ele>581</ele>
        <time>2020-02-22T12:58:27.000Z</time>
      </trkpt>
      <trkpt lat="43.77906" lon="7.25511">
        <ele>581.59997558594</ele>
        <time>2020-02-22T12:58:28.000Z</time>
      </trkpt>
      <trkpt lat="43.77904" lon="7.25515">
        <ele>582.20001220703</ele>
        <time>2020-02-22T12:58:29.000Z</time>
      </trkpt>
      <trkpt lat="43.779" lon="7.25522">
        <ele>583.40002441406</ele>
        <time>2020-02-22T12:58:31.000Z</time>
      </trkpt>
      <trkpt lat="43.77897" lon="7.25526">
        <ele>584.59997558594</ele>
        <time>2020-02-22T12:58:33.000Z</time>
      </trkpt>
      <trkpt lat="43.77894" lon="7.25532">
        <ele>585.79998779297</ele>
        <time>2020-02-22T12:58:35.000Z</time>
      </trkpt>
      <trkpt lat="43.77893" lon="7.25537">
        <ele>587.20001220703</ele>
        <time>2020-02-22T12:58:37.000Z</time>
      </trkpt>
      <trkpt lat="43.77893" lon="7.2554">
        <ele>587.79998779297</ele>
        <time>2020-02-22T12:58:38.000Z</time>
      </trkpt>
      <trkpt lat="43.77892" lon="7.25542">
        <ele>588.79998779297</ele>
        <time>2020-02-22T12:58:39.000Z</time>
      </trkpt>
      <trkpt lat="43.77891" lon="7.25547">
        <ele>590.20001220703</ele>
        <time>2020-02-22T12:58:41.000Z</time>
      </trkpt>
      <trkpt lat="43.77889" lon="7.25552">
        <ele>591.59997558594</ele>
        <time>2020-02-22T12:58:43.000Z</time>
      </trkpt>
      <trkpt lat="43.77888" lon="7.25553">
        <ele>592</ele>
        <time>2020-02-22T12:58:44.000Z</time>
      </trkpt>
      <trkpt lat="43.77888" lon="7.25555">
        <ele>592.59997558594</ele>
        <time>2020-02-22T12:58:45.000Z</time>
      </trkpt>
      <trkpt lat="43.77887" lon="7.25559">
        <ele>593.59997558594</ele>
        <time>2020-02-22T12:58:47.000Z</time>
      </trkpt>
      <trkpt lat="43.77884" lon="7.25564">
        <ele>595</ele>
        <time>2020-02-22T12:58:50.000Z</time>
      </trkpt>
      <trkpt lat="43.77883" lon="7.25566">
        <ele>595.59997558594</ele>
        <time>2020-02-22T12:58:51.000Z</time>
      </trkpt>
      <trkpt lat="43.77883" lon="7.25564">
        <ele>596.59997558594</ele>
        <time>2020-02-22T12:58:53.000Z</time>
      </trkpt>
      <trkpt lat="43.77883" lon="7.25565">
        <ele>597.20001220703</ele>
        <time>2020-02-22T12:58:54.000Z</time>
      </trkpt>
      <trkpt lat="43.77883" lon="7.25564">
        <ele>597.79998779297</ele>
        <time>2020-02-22T12:58:56.000Z</time>
      </trkpt>
      <trkpt lat="43.77883" lon="7.25566">
        <ele>597.79998779297</ele>
        <time>2020-02-22T12:58:58.000Z</time>
      </trkpt>
      <trkpt lat="43.77884" lon="7.25566">
        <ele>598</ele>
        <time>2020-02-22T12:59:05.000Z</time>
      </trkpt>
      <trkpt lat="43.77884" lon="7.25567">
        <ele>597.79998779297</ele>
        <time>2020-02-22T12:59:11.000Z</time>
      </trkpt>
      <trkpt lat="43.77884" lon="7.25568">
        <ele>598.40002441406</ele>
        <time>2020-02-22T12:59:18.000Z</time>
      </trkpt>
      <trkpt lat="43.77885" lon="7.25568">
        <ele>598.40002441406</ele>
        <time>2020-02-22T12:59:28.000Z</time>
      </trkpt>
      <trkpt lat="43.77883" lon="7.25569">
        <ele>599</ele>
        <time>2020-02-22T12:59:36.000Z</time>
      </trkpt>
      <trkpt lat="43.77883" lon="7.25569">
        <ele>599</ele>
        <time>2020-02-22T12:59:37.000Z</time>
      </trkpt>
      <trkpt lat="43.77883" lon="7.25569">
        <ele>598.79998779297</ele>
        <time>2020-02-22T12:59:45.000Z</time>
      </trkpt>
      <trkpt lat="43.77883" lon="7.25569">
        <ele>599.40002441406</ele>
        <time>2020-02-22T12:59:53.000Z</time>
      </trkpt>
      <trkpt lat="43.77882" lon="7.25571">
        <ele>600</ele>
        <time>2020-02-22T12:59:58.000Z</time>
      </trkpt>
      <trkpt lat="43.77882" lon="7.25571">
        <ele>600</ele>
        <time>2020-02-22T12:59:59.000Z</time>
      </trkpt>
      <trkpt lat="43.77881" lon="7.25571">
        <ele>600.59997558594</ele>
        <time>2020-02-22T13:00:06.000Z</time>
      </trkpt>
      <trkpt lat="43.77881" lon="7.25571">
        <ele>601</ele>
        <time>2020-02-22T13:00:09.000Z</time>
      </trkpt>
      <trkpt lat="43.7788" lon="7.25572">
        <ele>601.40002441406</ele>
        <time>2020-02-22T13:00:13.000Z</time>
      </trkpt>
      <trkpt lat="43.77881" lon="7.25572">
        <ele>602.20001220703</ele>
        <time>2020-02-22T13:00:17.000Z</time>
      </trkpt>
      <trkpt lat="43.77881" lon="7.25574">
        <ele>602.40002441406</ele>
        <time>2020-02-22T13:00:22.000Z</time>
      </trkpt>
      <trkpt lat="43.77881" lon="7.25578">
        <ele>602.79998779297</ele>
        <time>2020-02-22T13:00:29.000Z</time>
      </trkpt>
      <trkpt lat="43.77882" lon="7.2558">
        <ele>603.20001220703</ele>
        <time>2020-02-22T13:00:32.000Z</time>
      </trkpt>
      <trkpt lat="43.77884" lon="7.25582">
        <ele>603.79998779297</ele>
        <time>2020-02-22T13:00:35.000Z</time>
      </trkpt>
      <trkpt lat="43.77885" lon="7.25584">
        <ele>604.20001220703</ele>
        <time>2020-02-22T13:00:38.000Z</time>
      </trkpt>
      <trkpt lat="43.77886" lon="7.25588">
        <ele>605</ele>
        <time>2020-02-22T13:00:44.000Z</time>
      </trkpt>
      <trkpt lat="43.77886" lon="7.2559">
        <ele>605.20001220703</ele>
        <time>2020-02-22T13:00:46.000Z</time>
      </trkpt>
      <trkpt lat="43.77884" lon="7.25593">
        <ele>606.20001220703</ele>
        <time>2020-02-22T13:00:53.000Z</time>
      </trkpt>
      <trkpt lat="43.77883" lon="7.25593">
        <ele>606.40002441406</ele>
        <time>2020-02-22T13:00:54.000Z</time>
      </trkpt>
      <trkpt lat="43.77884" lon="7.25594">
        <ele>606.40002441406</ele>
        <time>2020-02-22T13:01:01.000Z</time>
      </trkpt>
      <trkpt lat="43.77882" lon="7.25593">
        <ele>606.59997558594</ele>
        <time>2020-02-22T13:01:09.000Z</time>
      </trkpt>
      <trkpt lat="43.7788" lon="7.25592">
        <ele>606.59997558594</ele>
        <time>2020-02-22T13:01:15.000Z</time>
      </trkpt>
      <trkpt lat="43.77878" lon="7.25592">
        <ele>606.59997558594</ele>
        <time>2020-02-22T13:01:17.000Z</time>
      </trkpt>
      <trkpt lat="43.77878" lon="7.25592">
        <ele>607.40002441406</ele>
        <time>2020-02-22T13:01:22.000Z</time>
      </trkpt>
      <trkpt lat="43.77875" lon="7.2559">
        <ele>607.79998779297</ele>
        <time>2020-02-22T13:01:27.000Z</time>
      </trkpt>
      <trkpt lat="43.77868" lon="7.25586">
        <ele>608.59997558594</ele>
        <time>2020-02-22T13:01:32.000Z</time>
      </trkpt>
      <trkpt lat="43.77867" lon="7.25586">
        <ele>609</ele>
        <time>2020-02-22T13:01:33.000Z</time>
      </trkpt>
      <trkpt lat="43.77865" lon="7.2559">
        <ele>610</ele>
        <time>2020-02-22T13:01:36.000Z</time>
      </trkpt>
      <trkpt lat="43.77864" lon="7.2559">
        <ele>611</ele>
        <time>2020-02-22T13:01:38.000Z</time>
      </trkpt>
      <trkpt lat="43.77864" lon="7.25591">
        <ele>611.79998779297</ele>
        <time>2020-02-22T13:01:40.000Z</time>
      </trkpt>
      <trkpt lat="43.77864" lon="7.25591">
        <ele>612.20001220703</ele>
        <time>2020-02-22T13:01:41.000Z</time>
      </trkpt>
      <trkpt lat="43.77864" lon="7.25596">
        <ele>612.59997558594</ele>
        <time>2020-02-22T13:01:47.000Z</time>
      </trkpt>
      <trkpt lat="43.77865" lon="7.25608">
        <ele>613.40002441406</ele>
        <time>2020-02-22T13:01:52.000Z</time>
      </trkpt>
      <trkpt lat="43.77865" lon="7.2561">
        <ele>613.59997558594</ele>
        <time>2020-02-22T13:01:53.000Z</time>
      </trkpt>
      <trkpt lat="43.77865" lon="7.25612">
        <ele>614</ele>
        <time>2020-02-22T13:01:54.000Z</time>
      </trkpt>
      <trkpt lat="43.77865" lon="7.25613">
        <ele>614.59997558594</ele>
        <time>2020-02-22T13:01:55.000Z</time>
      </trkpt>
      <trkpt lat="43.77865" lon="7.25614">
        <ele>615.40002441406</ele>
        <time>2020-02-22T13:01:56.000Z</time>
      </trkpt>
      <trkpt lat="43.77866" lon="7.25616">
        <ele>615.79998779297</ele>
        <time>2020-02-22T13:01:57.000Z</time>
      </trkpt>
      <trkpt lat="43.77867" lon="7.25623">
        <ele>617</ele>
        <time>2020-02-22T13:02:00.000Z</time>
      </trkpt>
      <trkpt lat="43.77865" lon="7.25627">
        <ele>617.59997558594</ele>
        <time>2020-02-22T13:02:02.000Z</time>
      </trkpt>
      <trkpt lat="43.77864" lon="7.25629">
        <ele>618</ele>
        <time>2020-02-22T13:02:03.000Z</time>
      </trkpt>
      <trkpt lat="43.7786" lon="7.25626">
        <ele>619.40002441406</ele>
        <time>2020-02-22T13:02:06.000Z</time>
      </trkpt>
      <trkpt lat="43.77858" lon="7.25625">
        <ele>620.40002441406</ele>
        <time>2020-02-22T13:02:08.000Z</time>
      </trkpt>
      <trkpt lat="43.77853" lon="7.25623">
        <ele>621.40002441406</ele>
        <time>2020-02-22T13:02:11.000Z</time>
      </trkpt>
      <trkpt lat="43.77852" lon="7.25622">
        <ele>622</ele>
        <time>2020-02-22T13:02:12.000Z</time>
      </trkpt>
      <trkpt lat="43.7785" lon="7.25622">
        <ele>623</ele>
        <time>2020-02-22T13:02:14.000Z</time>
      </trkpt>
      <trkpt lat="43.77847" lon="7.25622">
        <ele>624.20001220703</ele>
        <time>2020-02-22T13:02:16.000Z</time>
      </trkpt>
      <trkpt lat="43.77845" lon="7.25623">
        <ele>625</ele>
        <time>2020-02-22T13:02:18.000Z</time>
      </trkpt>
      <trkpt lat="43.77843" lon="7.25623">
        <ele>625.20001220703</ele>
        <time>2020-02-22T13:02:19.000Z</time>
      </trkpt>
      <trkpt lat="43.77837" lon="7.25624">
        <ele>626.59997558594</ele>
        <time>2020-02-22T13:02:23.000Z</time>
      </trkpt>
      <trkpt lat="43.77832" lon="7.25624">
        <ele>628</ele>
        <time>2020-02-22T13:02:26.000Z</time>
      </trkpt>
      <trkpt lat="43.77829" lon="7.25623">
        <ele>628.59997558594</ele>
        <time>2020-02-22T13:02:28.000Z</time>
      </trkpt>
      <trkpt lat="43.77827" lon="7.25623">
        <ele>629.20001220703</ele>
        <time>2020-02-22T13:02:29.000Z</time>
      </trkpt>
      <trkpt lat="43.77827" lon="7.25623">
        <ele>630.20001220703</ele>
        <time>2020-02-22T13:02:31.000Z</time>
      </trkpt>
      <trkpt lat="43.77827" lon="7.25623">
        <ele>631</ele>
        <time>2020-02-22T13:02:33.000Z</time>
      </trkpt>
      <trkpt lat="43.77827" lon="7.25623">
        <ele>631.20001220703</ele>
        <time>2020-02-22T13:02:34.000Z</time>
      </trkpt>
      <trkpt lat="43.77824" lon="7.25623">
        <ele>631.59997558594</ele>
        <time>2020-02-22T13:02:40.000Z</time>
      </trkpt>
      <trkpt lat="43.77822" lon="7.25621">
        <ele>631.59997558594</ele>
        <time>2020-02-22T13:02:41.000Z</time>
      </trkpt>
      <trkpt lat="43.7782" lon="7.25616">
        <ele>632.20001220703</ele>
        <time>2020-02-22T13:02:44.000Z</time>
      </trkpt>
      <trkpt lat="43.77818" lon="7.25614">
        <ele>632.59997558594</ele>
        <time>2020-02-22T13:02:45.000Z</time>
      </trkpt>
      <trkpt lat="43.77816" lon="7.25613">
        <ele>633.20001220703</ele>
        <time>2020-02-22T13:02:47.000Z</time>
      </trkpt>
      <trkpt lat="43.77815" lon="7.25614">
        <ele>633.79998779297</ele>
        <time>2020-02-22T13:02:48.000Z</time>
      </trkpt>
      <trkpt lat="43.77814" lon="7.25615">
        <ele>635.20001220703</ele>
        <time>2020-02-22T13:02:51.000Z</time>
      </trkpt>
      <trkpt lat="43.77814" lon="7.25615">
        <ele>635.79998779297</ele>
        <time>2020-02-22T13:02:55.000Z</time>
      </trkpt>
      <trkpt lat="43.77813" lon="7.25616">
        <ele>635.79998779297</ele>
        <time>2020-02-22T13:03:03.000Z</time>
      </trkpt>
      <trkpt lat="43.7781" lon="7.25621">
        <ele>636.20001220703</ele>
        <time>2020-02-22T13:03:09.000Z</time>
      </trkpt>
      <trkpt lat="43.77809" lon="7.25625">
        <ele>636.79998779297</ele>
        <time>2020-02-22T13:03:11.000Z</time>
      </trkpt>
      <trkpt lat="43.77808" lon="7.25627">
        <ele>637.40002441406</ele>
        <time>2020-02-22T13:03:13.000Z</time>
      </trkpt>
      <trkpt lat="43.77806" lon="7.25629">
        <ele>637.59997558594</ele>
        <time>2020-02-22T13:03:14.000Z</time>
      </trkpt>
      <trkpt lat="43.77805" lon="7.25625">
        <ele>638.20001220703</ele>
        <time>2020-02-22T13:03:16.000Z</time>
      </trkpt>
      <trkpt lat="43.77805" lon="7.25626">
        <ele>638.59997558594</ele>
        <time>2020-02-22T13:03:17.000Z</time>
      </trkpt>
      <trkpt lat="43.77805" lon="7.25625">
        <ele>639.20001220703</ele>
        <time>2020-02-22T13:03:19.000Z</time>
      </trkpt>
      <trkpt lat="43.77804" lon="7.25625">
        <ele>639.59997558594</ele>
        <time>2020-02-22T13:03:21.000Z</time>
      </trkpt>
      <trkpt lat="43.77804" lon="7.25625">
        <ele>639.40002441406</ele>
        <time>2020-02-22T13:03:27.000Z</time>
      </trkpt>
      <trkpt lat="43.77804" lon="7.25623">
        <ele>639.40002441406</ele>
        <time>2020-02-22T13:03:32.000Z</time>
      </trkpt>
      <trkpt lat="43.77804" lon="7.25621">
        <ele>639.59997558594</ele>
        <time>2020-02-22T13:03:34.000Z</time>
      </trkpt>
      <trkpt lat="43.77803" lon="7.25619">
        <ele>639.79998779297</ele>
        <time>2020-02-22T13:03:41.000Z</time>
      </trkpt>
      <trkpt lat="43.77801" lon="7.25616">
        <ele>640.20001220703</ele>
        <time>2020-02-22T13:03:45.000Z</time>
      </trkpt>
      <trkpt lat="43.77801" lon="7.25614">
        <ele>640.40002441406</ele>
        <time>2020-02-22T13:03:46.000Z</time>
      </trkpt>
      <trkpt lat="43.77802" lon="7.25611">
        <ele>640.59997558594</ele>
        <time>2020-02-22T13:03:47.000Z</time>
      </trkpt>
      <trkpt lat="43.77802" lon="7.25606">
        <ele>642</ele>
        <time>2020-02-22T13:03:51.000Z</time>
      </trkpt>
      <trkpt lat="43.77801" lon="7.25607">
        <ele>642.20001220703</ele>
        <time>2020-02-22T13:03:53.000Z</time>
      </trkpt>
      <trkpt lat="43.778" lon="7.25607">
        <ele>642.79998779297</ele>
        <time>2020-02-22T13:03:55.000Z</time>
      </trkpt>
      <trkpt lat="43.778" lon="7.25608">
        <ele>643</ele>
        <time>2020-02-22T13:03:56.000Z</time>
      </trkpt>
      <trkpt lat="43.77799" lon="7.25609">
        <ele>644.20001220703</ele>
        <time>2020-02-22T13:04:00.000Z</time>
      </trkpt>
      <trkpt lat="43.77799" lon="7.2561">
        <ele>644.20001220703</ele>
        <time>2020-02-22T13:04:02.000Z</time>
      </trkpt>
      <trkpt lat="43.77797" lon="7.25614">
        <ele>644.59997558594</ele>
        <time>2020-02-22T13:04:09.000Z</time>
      </trkpt>
      <trkpt lat="43.77796" lon="7.25616">
        <ele>645</ele>
        <time>2020-02-22T13:04:15.000Z</time>
      </trkpt>
      <trkpt lat="43.77794" lon="7.25617">
        <ele>645.40002441406</ele>
        <time>2020-02-22T13:04:18.000Z</time>
      </trkpt>
      <trkpt lat="43.77793" lon="7.25618">
        <ele>646</ele>
        <time>2020-02-22T13:04:22.000Z</time>
      </trkpt>
      <trkpt lat="43.77789" lon="7.25623">
        <ele>646.40002441406</ele>
        <time>2020-02-22T13:04:28.000Z</time>
      </trkpt>
      <trkpt lat="43.77785" lon="7.2563">
        <ele>647.20001220703</ele>
        <time>2020-02-22T13:04:32.000Z</time>
      </trkpt>
      <trkpt lat="43.77784" lon="7.25633">
        <ele>647.79998779297</ele>
        <time>2020-02-22T13:04:34.000Z</time>
      </trkpt>
      <trkpt lat="43.77781" lon="7.25631">
        <ele>649.20001220703</ele>
        <time>2020-02-22T13:04:37.000Z</time>
      </trkpt>
      <trkpt lat="43.77781" lon="7.2563">
        <ele>650.20001220703</ele>
        <time>2020-02-22T13:04:40.000Z</time>
      </trkpt>
      <trkpt lat="43.77781" lon="7.2563">
        <ele>650.40002441406</ele>
        <time>2020-02-22T13:04:42.000Z</time>
      </trkpt>
      <trkpt lat="43.77781" lon="7.2563">
        <ele>650.59997558594</ele>
        <time>2020-02-22T13:04:48.000Z</time>
      </trkpt>
      <trkpt lat="43.77781" lon="7.25625">
        <ele>651.20001220703</ele>
        <time>2020-02-22T13:04:55.000Z</time>
      </trkpt>
      <trkpt lat="43.77781" lon="7.25625">
        <ele>651.40002441406</ele>
        <time>2020-02-22T13:04:56.000Z</time>
      </trkpt>
      <trkpt lat="43.7778" lon="7.25623">
        <ele>652.20001220703</ele>
        <time>2020-02-22T13:05:01.000Z</time>
      </trkpt>
      <trkpt lat="43.7778" lon="7.25623">
        <ele>652.40002441406</ele>
        <time>2020-02-22T13:05:03.000Z</time>
      </trkpt>
      <trkpt lat="43.7778" lon="7.25624">
        <ele>652.40002441406</ele>
        <time>2020-02-22T13:05:10.000Z</time>
      </trkpt>
      <trkpt lat="43.77778" lon="7.25627">
        <ele>652.59997558594</ele>
        <time>2020-02-22T13:05:14.000Z</time>
      </trkpt>
      <trkpt lat="43.77771" lon="7.25638">
        <ele>653.59997558594</ele>
        <time>2020-02-22T13:05:20.000Z</time>
      </trkpt>
      <trkpt lat="43.77767" lon="7.25641">
        <ele>655</ele>
        <time>2020-02-22T13:05:23.000Z</time>
      </trkpt>
      <trkpt lat="43.77764" lon="7.25646">
        <ele>656.20001220703</ele>
        <time>2020-02-22T13:05:26.000Z</time>
      </trkpt>
      <trkpt lat="43.77761" lon="7.25649">
        <ele>657.20001220703</ele>
        <time>2020-02-22T13:05:28.000Z</time>
      </trkpt>
      <trkpt lat="43.77758" lon="7.25653">
        <ele>659</ele>
        <time>2020-02-22T13:05:30.000Z</time>
      </trkpt>
      <trkpt lat="43.77756" lon="7.25657">
        <ele>660.20001220703</ele>
        <time>2020-02-22T13:05:32.000Z</time>
      </trkpt>
      <trkpt lat="43.77754" lon="7.25659">
        <ele>660.79998779297</ele>
        <time>2020-02-22T13:05:33.000Z</time>
      </trkpt>
      <trkpt lat="43.77753" lon="7.25658">
        <ele>661.40002441406</ele>
        <time>2020-02-22T13:05:34.000Z</time>
      </trkpt>
      <trkpt lat="43.77753" lon="7.25658">
        <ele>662.59997558594</ele>
        <time>2020-02-22T13:05:36.000Z</time>
      </trkpt>
      <trkpt lat="43.77753" lon="7.25657">
        <ele>663</ele>
        <time>2020-02-22T13:05:37.000Z</time>
      </trkpt>
      <trkpt lat="43.77753" lon="7.25659">
        <ele>663.59997558594</ele>
        <time>2020-02-22T13:05:40.000Z</time>
      </trkpt>
      <trkpt lat="43.77753" lon="7.2566">
        <ele>663.79998779297</ele>
        <time>2020-02-22T13:05:42.000Z</time>
      </trkpt>
      <trkpt lat="43.7775" lon="7.25663">
        <ele>664</ele>
        <time>2020-02-22T13:05:47.000Z</time>
      </trkpt>
      <trkpt lat="43.77746" lon="7.25669">
        <ele>665</ele>
        <time>2020-02-22T13:05:51.000Z</time>
      </trkpt>
      <trkpt lat="43.77744" lon="7.25672">
        <ele>666</ele>
        <time>2020-02-22T13:05:53.000Z</time>
      </trkpt>
      <trkpt lat="43.77744" lon="7.25674">
        <ele>666.40002441406</ele>
        <time>2020-02-22T13:05:54.000Z</time>
      </trkpt>
      <trkpt lat="43.7774" lon="7.25681">
        <ele>667.40002441406</ele>
        <time>2020-02-22T13:05:58.000Z</time>
      </trkpt>
      <trkpt lat="43.77737" lon="7.25687">
        <ele>668.40002441406</ele>
        <time>2020-02-22T13:06:01.000Z</time>
      </trkpt>
      <trkpt lat="43.77736" lon="7.25689">
        <ele>668.59997558594</ele>
        <time>2020-02-22T13:06:02.000Z</time>
      </trkpt>
      <trkpt lat="43.77734" lon="7.25696">
        <ele>669.79998779297</ele>
        <time>2020-02-22T13:06:05.000Z</time>
      </trkpt>
      <trkpt lat="43.77731" lon="7.25702">
        <ele>671.20001220703</ele>
        <time>2020-02-22T13:06:08.000Z</time>
      </trkpt>
      <trkpt lat="43.77729" lon="7.25708">
        <ele>672.40002441406</ele>
        <time>2020-02-22T13:06:11.000Z</time>
      </trkpt>
      <trkpt lat="43.77727" lon="7.25716">
        <ele>673.79998779297</ele>
        <time>2020-02-22T13:06:15.000Z</time>
      </trkpt>
      <trkpt lat="43.77726" lon="7.25727">
        <ele>674.79998779297</ele>
        <time>2020-02-22T13:06:19.000Z</time>
      </trkpt>
      <trkpt lat="43.77723" lon="7.25734">
        <ele>676</ele>
        <time>2020-02-22T13:06:22.000Z</time>
      </trkpt>
      <trkpt lat="43.77723" lon="7.25736">
        <ele>676.40002441406</ele>
        <time>2020-02-22T13:06:23.000Z</time>
      </trkpt>
      <trkpt lat="43.77722" lon="7.25741">
        <ele>677</ele>
        <time>2020-02-22T13:06:25.000Z</time>
      </trkpt>
      <trkpt lat="43.77721" lon="7.2575">
        <ele>678.20001220703</ele>
        <time>2020-02-22T13:06:29.000Z</time>
      </trkpt>
      <trkpt lat="43.77722" lon="7.25757">
        <ele>679.20001220703</ele>
        <time>2020-02-22T13:06:32.000Z</time>
      </trkpt>
      <trkpt lat="43.77723" lon="7.25762">
        <ele>679.59997558594</ele>
        <time>2020-02-22T13:06:34.000Z</time>
      </trkpt>
      <trkpt lat="43.77723" lon="7.25772">
        <ele>680</ele>
        <time>2020-02-22T13:06:38.000Z</time>
      </trkpt>
      <trkpt lat="43.77722" lon="7.25774">
        <ele>680</ele>
        <time>2020-02-22T13:06:39.000Z</time>
      </trkpt>
      <trkpt lat="43.77721" lon="7.25776">
        <ele>680.40002441406</ele>
        <time>2020-02-22T13:06:40.000Z</time>
      </trkpt>
      <trkpt lat="43.77719" lon="7.25782">
        <ele>681.59997558594</ele>
        <time>2020-02-22T13:06:43.000Z</time>
      </trkpt>
      <trkpt lat="43.77718" lon="7.25786">
        <ele>682.20001220703</ele>
        <time>2020-02-22T13:06:45.000Z</time>
      </trkpt>
      <trkpt lat="43.77717" lon="7.2579">
        <ele>682.59997558594</ele>
        <time>2020-02-22T13:06:47.000Z</time>
      </trkpt>
      <trkpt lat="43.77714" lon="7.25799">
        <ele>683.59997558594</ele>
        <time>2020-02-22T13:06:51.000Z</time>
      </trkpt>
      <trkpt lat="43.77709" lon="7.2581">
        <ele>684.79998779297</ele>
        <time>2020-02-22T13:06:57.000Z</time>
      </trkpt>
      <trkpt lat="43.77707" lon="7.25813">
        <ele>685.40002441406</ele>
        <time>2020-02-22T13:06:59.000Z</time>
      </trkpt>
      <trkpt lat="43.77706" lon="7.25817">
        <ele>685.79998779297</ele>
        <time>2020-02-22T13:07:01.000Z</time>
      </trkpt>
      <trkpt lat="43.77705" lon="7.2582">
        <ele>686.79998779297</ele>
        <time>2020-02-22T13:07:05.000Z</time>
      </trkpt>
      <trkpt lat="43.77705" lon="7.2582">
        <ele>687</ele>
        <time>2020-02-22T13:07:07.000Z</time>
      </trkpt>
      <trkpt lat="43.77705" lon="7.25821">
        <ele>687</ele>
        <time>2020-02-22T13:07:19.000Z</time>
      </trkpt>
      <trkpt lat="43.77705" lon="7.25821">
        <ele>687</ele>
        <time>2020-02-22T13:07:31.000Z</time>
      </trkpt>
      <trkpt lat="43.77706" lon="7.25821">
        <ele>687.20001220703</ele>
        <time>2020-02-22T13:07:55.000Z</time>
      </trkpt>
      <trkpt lat="43.77706" lon="7.25821">
        <ele>687.20001220703</ele>
        <time>2020-02-22T13:08:21.000Z</time>
      </trkpt>
      <trkpt lat="43.77706" lon="7.25821">
        <ele>687</ele>
        <time>2020-02-22T13:08:43.000Z</time>
      </trkpt>
      <trkpt lat="43.77706" lon="7.25822">
        <ele>687.20001220703</ele>
        <time>2020-02-22T13:09:02.000Z</time>
      </trkpt>
      <trkpt lat="43.77705" lon="7.25823">
        <ele>687.20001220703</ele>
        <time>2020-02-22T13:09:03.000Z</time>
      </trkpt>
      <trkpt lat="43.77699" lon="7.2583">
        <ele>687.20001220703</ele>
        <time>2020-02-22T13:09:08.000Z</time>
      </trkpt>
      <trkpt lat="43.77691" lon="7.25839">
        <ele>688.20001220703</ele>
        <time>2020-02-22T13:09:13.000Z</time>
      </trkpt>
      <trkpt lat="43.77685" lon="7.25847">
        <ele>689.20001220703</ele>
        <time>2020-02-22T13:09:17.000Z</time>
      </trkpt>
      <trkpt lat="43.77677" lon="7.25857">
        <ele>690.40002441406</ele>
        <time>2020-02-22T13:09:23.000Z</time>
      </trkpt>
      <trkpt lat="43.77676" lon="7.25858">
        <ele>690.59997558594</ele>
        <time>2020-02-22T13:09:24.000Z</time>
      </trkpt>
      <trkpt lat="43.77674" lon="7.25861">
        <ele>691.40002441406</ele>
        <time>2020-02-22T13:09:26.000Z</time>
      </trkpt>
      <trkpt lat="43.7767" lon="7.25866">
        <ele>692.20001220703</ele>
        <time>2020-02-22T13:09:29.000Z</time>
      </trkpt>
      <trkpt lat="43.77667" lon="7.25869">
        <ele>692.59997558594</ele>
        <time>2020-02-22T13:09:31.000Z</time>
      </trkpt>
      <trkpt lat="43.77661" lon="7.25875">
        <ele>693.79998779297</ele>
        <time>2020-02-22T13:09:35.000Z</time>
      </trkpt>
      <trkpt lat="43.77658" lon="7.25881">
        <ele>695</ele>
        <time>2020-02-22T13:09:38.000Z</time>
      </trkpt>
      <trkpt lat="43.77654" lon="7.25886">
        <ele>696.20001220703</ele>
        <time>2020-02-22T13:09:41.000Z</time>
      </trkpt>
      <trkpt lat="43.77653" lon="7.25888">
        <ele>696.59997558594</ele>
        <time>2020-02-22T13:09:42.000Z</time>
      </trkpt>
      <trkpt lat="43.77649" lon="7.25893">
        <ele>697.40002441406</ele>
        <time>2020-02-22T13:09:45.000Z</time>
      </trkpt>
      <trkpt lat="43.77644" lon="7.25901">
        <ele>698.59997558594</ele>
        <time>2020-02-22T13:09:49.000Z</time>
      </trkpt>
      <trkpt lat="43.77643" lon="7.25903">
        <ele>698.79998779297</ele>
        <time>2020-02-22T13:09:50.000Z</time>
      </trkpt>
      <trkpt lat="43.77641" lon="7.25907">
        <ele>699.59997558594</ele>
        <time>2020-02-22T13:09:52.000Z</time>
      </trkpt>
      <trkpt lat="43.77637" lon="7.25911">
        <ele>700.59997558594</ele>
        <time>2020-02-22T13:09:55.000Z</time>
      </trkpt>
      <trkpt lat="43.77636" lon="7.25913">
        <ele>701.59997558594</ele>
        <time>2020-02-22T13:09:57.000Z</time>
      </trkpt>
      <trkpt lat="43.77635" lon="7.25915">
        <ele>701.79998779297</ele>
        <time>2020-02-22T13:09:58.000Z</time>
      </trkpt>
      <trkpt lat="43.7763" lon="7.25921">
        <ele>702.79998779297</ele>
        <time>2020-02-22T13:10:02.000Z</time>
      </trkpt>
      <trkpt lat="43.77629" lon="7.25923">
        <ele>703</ele>
        <time>2020-02-22T13:10:03.000Z</time>
      </trkpt>
      <trkpt lat="43.77627" lon="7.25926">
        <ele>703.79998779297</ele>
        <time>2020-02-22T13:10:05.000Z</time>
      </trkpt>
      <trkpt lat="43.77623" lon="7.25932">
        <ele>705</ele>
        <time>2020-02-22T13:10:09.000Z</time>
      </trkpt>
      <trkpt lat="43.77619" lon="7.25936">
        <ele>705.79998779297</ele>
        <time>2020-02-22T13:10:12.000Z</time>
      </trkpt>
      <trkpt lat="43.77618" lon="7.25937">
        <ele>706</ele>
        <time>2020-02-22T13:10:13.000Z</time>
      </trkpt>
      <trkpt lat="43.77613" lon="7.25942">
        <ele>707.20001220703</ele>
        <time>2020-02-22T13:10:17.000Z</time>
      </trkpt>
      <trkpt lat="43.7761" lon="7.25944">
        <ele>708</ele>
        <time>2020-02-22T13:10:20.000Z</time>
      </trkpt>
      <trkpt lat="43.7761" lon="7.25945">
        <ele>708.20001220703</ele>
        <time>2020-02-22T13:10:21.000Z</time>
      </trkpt>
      <trkpt lat="43.77606" lon="7.25952">
        <ele>709.40002441406</ele>
        <time>2020-02-22T13:10:26.000Z</time>
      </trkpt>
      <trkpt lat="43.77605" lon="7.25954">
        <ele>709.59997558594</ele>
        <time>2020-02-22T13:10:27.000Z</time>
      </trkpt>
      <trkpt lat="43.77599" lon="7.25962">
        <ele>710.59997558594</ele>
        <time>2020-02-22T13:10:32.000Z</time>
      </trkpt>
      <trkpt lat="43.77597" lon="7.25964">
        <ele>711.40002441406</ele>
        <time>2020-02-22T13:10:34.000Z</time>
      </trkpt>
      <trkpt lat="43.77596" lon="7.25965">
        <ele>711.59997558594</ele>
        <time>2020-02-22T13:10:35.000Z</time>
      </trkpt>
      <trkpt lat="43.77592" lon="7.25968">
        <ele>713</ele>
        <time>2020-02-22T13:10:38.000Z</time>
      </trkpt>
      <trkpt lat="43.77587" lon="7.25973">
        <ele>714</ele>
        <time>2020-02-22T13:10:42.000Z</time>
      </trkpt>
      <trkpt lat="43.77586" lon="7.25974">
        <ele>714.20001220703</ele>
        <time>2020-02-22T13:10:43.000Z</time>
      </trkpt>
      <trkpt lat="43.77581" lon="7.25981">
        <ele>715</ele>
        <time>2020-02-22T13:10:47.000Z</time>
      </trkpt>
      <trkpt lat="43.77577" lon="7.25986">
        <ele>716</ele>
        <time>2020-02-22T13:10:50.000Z</time>
      </trkpt>
      <trkpt lat="43.77576" lon="7.25987">
        <ele>716.20001220703</ele>
        <time>2020-02-22T13:10:51.000Z</time>
      </trkpt>
      <trkpt lat="43.77568" lon="7.25995">
        <ele>717.59997558594</ele>
        <time>2020-02-22T13:10:56.000Z</time>
      </trkpt>
      <trkpt lat="43.77565" lon="7.25997">
        <ele>718</ele>
        <time>2020-02-22T13:10:58.000Z</time>
      </trkpt>
      <trkpt lat="43.77552" lon="7.26007">
        <ele>718.40002441406</ele>
        <time>2020-02-22T13:11:05.000Z</time>
      </trkpt>
      <trkpt lat="43.77549" lon="7.26008">
        <ele>718.59997558594</ele>
        <time>2020-02-22T13:11:06.000Z</time>
      </trkpt>
      <trkpt lat="43.7754" lon="7.26015">
        <ele>719.59997558594</ele>
        <time>2020-02-22T13:11:11.000Z</time>
      </trkpt>
      <trkpt lat="43.77539" lon="7.26016">
        <ele>720</ele>
        <time>2020-02-22T13:11:12.000Z</time>
      </trkpt>
      <trkpt lat="43.77534" lon="7.2602">
        <ele>721</ele>
        <time>2020-02-22T13:11:15.000Z</time>
      </trkpt>
      <trkpt lat="43.77531" lon="7.26022">
        <ele>721.79998779297</ele>
        <time>2020-02-22T13:11:18.000Z</time>
      </trkpt>
      <trkpt lat="43.7753" lon="7.26022">
        <ele>722</ele>
        <time>2020-02-22T13:11:19.000Z</time>
      </trkpt>
      <trkpt lat="43.77527" lon="7.26022">
        <ele>722.79998779297</ele>
        <time>2020-02-22T13:11:22.000Z</time>
      </trkpt>
      <trkpt lat="43.77526" lon="7.26021">
        <ele>723.20001220703</ele>
        <time>2020-02-22T13:11:24.000Z</time>
      </trkpt>
      <trkpt lat="43.77525" lon="7.2602">
        <ele>723.20001220703</ele>
        <time>2020-02-22T13:11:25.000Z</time>
      </trkpt>
      <trkpt lat="43.77524" lon="7.26016">
        <ele>723.59997558594</ele>
        <time>2020-02-22T13:11:27.000Z</time>
      </trkpt>
      <trkpt lat="43.77526" lon="7.26012">
        <ele>724</ele>
        <time>2020-02-22T13:11:29.000Z</time>
      </trkpt>
      <trkpt lat="43.77527" lon="7.26008">
        <ele>724.20001220703</ele>
        <time>2020-02-22T13:11:31.000Z</time>
      </trkpt>
      <trkpt lat="43.77531" lon="7.26001">
        <ele>724.59997558594</ele>
        <time>2020-02-22T13:11:35.000Z</time>
      </trkpt>
      <trkpt lat="43.77538" lon="7.25985">
        <ele>724.59997558594</ele>
        <time>2020-02-22T13:11:43.000Z</time>
      </trkpt>
      <trkpt lat="43.77545" lon="7.25972">
        <ele>724.79998779297</ele>
        <time>2020-02-22T13:11:49.000Z</time>
      </trkpt>
      <trkpt lat="43.77549" lon="7.25964">
        <ele>725.20001220703</ele>
        <time>2020-02-22T13:11:52.000Z</time>
      </trkpt>
      <trkpt lat="43.77553" lon="7.25956">
        <ele>725.20001220703</ele>
        <time>2020-02-22T13:11:55.000Z</time>
      </trkpt>
      <trkpt lat="43.77562" lon="7.2594">
        <ele>726.40002441406</ele>
        <time>2020-02-22T13:12:01.000Z</time>
      </trkpt>
      <trkpt lat="43.7757" lon="7.25916">
        <ele>726.20001220703</ele>
        <time>2020-02-22T13:12:08.000Z</time>
      </trkpt>
      <trkpt lat="43.77573" lon="7.25896">
        <ele>727.20001220703</ele>
        <time>2020-02-22T13:12:14.000Z</time>
      </trkpt>
      <trkpt lat="43.77577" lon="7.25871">
        <ele>727.59997558594</ele>
        <time>2020-02-22T13:12:20.000Z</time>
      </trkpt>
      <trkpt lat="43.77577" lon="7.25867">
        <ele>727.59997558594</ele>
        <time>2020-02-22T13:12:21.000Z</time>
      </trkpt>
      <trkpt lat="43.77577" lon="7.25842">
        <ele>728</ele>
        <time>2020-02-22T13:12:28.000Z</time>
      </trkpt>
      <trkpt lat="43.77574" lon="7.25829">
        <ele>728.79998779297</ele>
        <time>2020-02-22T13:12:32.000Z</time>
      </trkpt>
      <trkpt lat="43.77573" lon="7.25823">
        <ele>729.20001220703</ele>
        <time>2020-02-22T13:12:34.000Z</time>
      </trkpt>
      <trkpt lat="43.77569" lon="7.25814">
        <ele>729.79998779297</ele>
        <time>2020-02-22T13:12:37.000Z</time>
      </trkpt>
      <trkpt lat="43.77567" lon="7.25812">
        <ele>729.79998779297</ele>
        <time>2020-02-22T13:12:38.000Z</time>
      </trkpt>
      <trkpt lat="43.77553" lon="7.25804">
        <ele>731</ele>
        <time>2020-02-22T13:12:44.000Z</time>
      </trkpt>
      <trkpt lat="43.77548" lon="7.25801">
        <ele>731.40002441406</ele>
        <time>2020-02-22T13:12:46.000Z</time>
      </trkpt>
      <trkpt lat="43.77536" lon="7.25801">
        <ele>731.59997558594</ele>
        <time>2020-02-22T13:12:51.000Z</time>
      </trkpt>
      <trkpt lat="43.77527" lon="7.25808">
        <ele>732.20001220703</ele>
        <time>2020-02-22T13:12:55.000Z</time>
      </trkpt>
      <trkpt lat="43.77522" lon="7.25815">
        <ele>733.20001220703</ele>
        <time>2020-02-22T13:12:58.000Z</time>
      </trkpt>
      <trkpt lat="43.7752" lon="7.25816">
        <ele>733.40002441406</ele>
        <time>2020-02-22T13:12:59.000Z</time>
      </trkpt>
      <trkpt lat="43.77508" lon="7.25815">
        <ele>734.40002441406</ele>
        <time>2020-02-22T13:13:03.000Z</time>
      </trkpt>
      <trkpt lat="43.77493" lon="7.25817">
        <ele>733.40002441406</ele>
        <time>2020-02-22T13:13:07.000Z</time>
      </trkpt>
      <trkpt lat="43.7749" lon="7.25819">
        <ele>733.20001220703</ele>
        <time>2020-02-22T13:13:08.000Z</time>
      </trkpt>
      <trkpt lat="43.77474" lon="7.25826">
        <ele>733.40002441406</ele>
        <time>2020-02-22T13:13:14.000Z</time>
      </trkpt>
      <trkpt lat="43.77461" lon="7.25833">
        <ele>734.59997558594</ele>
        <time>2020-02-22T13:13:19.000Z</time>
      </trkpt>
      <trkpt lat="43.77454" lon="7.25837">
        <ele>735</ele>
        <time>2020-02-22T13:13:22.000Z</time>
      </trkpt>
      <trkpt lat="43.77447" lon="7.25842">
        <ele>735.59997558594</ele>
        <time>2020-02-22T13:13:25.000Z</time>
      </trkpt>
      <trkpt lat="43.77433" lon="7.25848">
        <ele>736</ele>
        <time>2020-02-22T13:13:31.000Z</time>
      </trkpt>
      <trkpt lat="43.77416" lon="7.25854">
        <ele>736.20001220703</ele>
        <time>2020-02-22T13:13:37.000Z</time>
      </trkpt>
      <trkpt lat="43.77398" lon="7.25861">
        <ele>735.40002441406</ele>
        <time>2020-02-22T13:13:42.000Z</time>
      </trkpt>
      <trkpt lat="43.77379" lon="7.25866">
        <ele>734.40002441406</ele>
        <time>2020-02-22T13:13:47.000Z</time>
      </trkpt>
      <trkpt lat="43.77373" lon="7.25868">
        <ele>733</ele>
        <time>2020-02-22T13:13:49.000Z</time>
      </trkpt>
      <trkpt lat="43.77369" lon="7.25869">
        <ele>732</ele>
        <time>2020-02-22T13:13:50.000Z</time>
      </trkpt>
      <trkpt lat="43.77362" lon="7.25872">
        <ele>731</ele>
        <time>2020-02-22T13:13:52.000Z</time>
      </trkpt>
      <trkpt lat="43.77359" lon="7.25874">
        <ele>730.59997558594</ele>
        <time>2020-02-22T13:13:53.000Z</time>
      </trkpt>
      <trkpt lat="43.77354" lon="7.25877">
        <ele>729.79998779297</ele>
        <time>2020-02-22T13:13:55.000Z</time>
      </trkpt>
      <trkpt lat="43.77349" lon="7.2588">
        <ele>727.79998779297</ele>
        <time>2020-02-22T13:13:57.000Z</time>
      </trkpt>
      <trkpt lat="43.77342" lon="7.25882">
        <ele>726.59997558594</ele>
        <time>2020-02-22T13:13:59.000Z</time>
      </trkpt>
      <trkpt lat="43.77338" lon="7.25882">
        <ele>725.59997558594</ele>
        <time>2020-02-22T13:14:00.000Z</time>
      </trkpt>
      <trkpt lat="43.77331" lon="7.25887">
        <ele>724</ele>
        <time>2020-02-22T13:14:02.000Z</time>
      </trkpt>
      <trkpt lat="43.77327" lon="7.25892">
        <ele>722.79998779297</ele>
        <time>2020-02-22T13:14:03.000Z</time>
      </trkpt>
      <trkpt lat="43.77314" lon="7.25904">
        <ele>722</ele>
        <time>2020-02-22T13:14:06.000Z</time>
      </trkpt>
      <trkpt lat="43.77309" lon="7.25906">
        <ele>721.59997558594</ele>
        <time>2020-02-22T13:14:07.000Z</time>
      </trkpt>
      <trkpt lat="43.77305" lon="7.25909">
        <ele>721</ele>
        <time>2020-02-22T13:14:08.000Z</time>
      </trkpt>
      <trkpt lat="43.77302" lon="7.25913">
        <ele>720.59997558594</ele>
        <time>2020-02-22T13:14:09.000Z</time>
      </trkpt>
      <trkpt lat="43.77294" lon="7.25921">
        <ele>719.59997558594</ele>
        <time>2020-02-22T13:14:11.000Z</time>
      </trkpt>
      <trkpt lat="43.77289" lon="7.25921">
        <ele>719</ele>
        <time>2020-02-22T13:14:12.000Z</time>
      </trkpt>
      <trkpt lat="43.77285" lon="7.25921">
        <ele>718.59997558594</ele>
        <time>2020-02-22T13:14:13.000Z</time>
      </trkpt>
      <trkpt lat="43.77281" lon="7.25921">
        <ele>718.20001220703</ele>
        <time>2020-02-22T13:14:14.000Z</time>
      </trkpt>
      <trkpt lat="43.77274" lon="7.25927">
        <ele>717.59997558594</ele>
        <time>2020-02-22T13:14:16.000Z</time>
      </trkpt>
      <trkpt lat="43.7727" lon="7.25931">
        <ele>717.40002441406</ele>
        <time>2020-02-22T13:14:17.000Z</time>
      </trkpt>
      <trkpt lat="43.77266" lon="7.25934">
        <ele>717.20001220703</ele>
        <time>2020-02-22T13:14:18.000Z</time>
      </trkpt>
      <trkpt lat="43.77253" lon="7.2594">
        <ele>716.59997558594</ele>
        <time>2020-02-22T13:14:21.000Z</time>
      </trkpt>
      <trkpt lat="43.77249" lon="7.25942">
        <ele>716.40002441406</ele>
        <time>2020-02-22T13:14:22.000Z</time>
      </trkpt>
      <trkpt lat="43.77241" lon="7.25944">
        <ele>716</ele>
        <time>2020-02-22T13:14:24.000Z</time>
      </trkpt>
      <trkpt lat="43.77232" lon="7.25945">
        <ele>715.59997558594</ele>
        <time>2020-02-22T13:14:26.000Z</time>
      </trkpt>
      <trkpt lat="43.77228" lon="7.25946">
        <ele>715.40002441406</ele>
        <time>2020-02-22T13:14:27.000Z</time>
      </trkpt>
      <trkpt lat="43.77224" lon="7.25946">
        <ele>715</ele>
        <time>2020-02-22T13:14:28.000Z</time>
      </trkpt>
      <trkpt lat="43.77219" lon="7.25945">
        <ele>714.79998779297</ele>
        <time>2020-02-22T13:14:29.000Z</time>
      </trkpt>
      <trkpt lat="43.77209" lon="7.25943">
        <ele>714.59997558594</ele>
        <time>2020-02-22T13:14:31.000Z</time>
      </trkpt>
      <trkpt lat="43.77199" lon="7.25941">
        <ele>714</ele>
        <time>2020-02-22T13:14:33.000Z</time>
      </trkpt>
      <trkpt lat="43.77188" lon="7.25935">
        <ele>713.59997558594</ele>
        <time>2020-02-22T13:14:36.000Z</time>
      </trkpt>
      <trkpt lat="43.77177" lon="7.25926">
        <ele>714.59997558594</ele>
        <time>2020-02-22T13:14:41.000Z</time>
      </trkpt>
      <trkpt lat="43.77169" lon="7.25921">
        <ele>715</ele>
        <time>2020-02-22T13:14:45.000Z</time>
      </trkpt>
      <trkpt lat="43.77165" lon="7.25919">
        <ele>715.20001220703</ele>
        <time>2020-02-22T13:14:47.000Z</time>
      </trkpt>
      <trkpt lat="43.77152" lon="7.25915">
        <ele>716</ele>
        <time>2020-02-22T13:14:53.000Z</time>
      </trkpt>
      <trkpt lat="43.7715" lon="7.25914">
        <ele>716.20001220703</ele>
        <time>2020-02-22T13:14:54.000Z</time>
      </trkpt>
      <trkpt lat="43.77137" lon="7.25914">
        <ele>717.20001220703</ele>
        <time>2020-02-22T13:14:59.000Z</time>
      </trkpt>
      <trkpt lat="43.7713" lon="7.25914">
        <ele>717.59997558594</ele>
        <time>2020-02-22T13:15:02.000Z</time>
      </trkpt>
      <trkpt lat="43.77114" lon="7.25918">
        <ele>717.59997558594</ele>
        <time>2020-02-22T13:15:09.000Z</time>
      </trkpt>
      <trkpt lat="43.77095" lon="7.25921">
        <ele>718</ele>
        <time>2020-02-22T13:15:17.000Z</time>
      </trkpt>
      <trkpt lat="43.77075" lon="7.25924">
        <ele>718.20001220703</ele>
        <time>2020-02-22T13:15:26.000Z</time>
      </trkpt>
      <trkpt lat="43.77065" lon="7.25925">
        <ele>718.20001220703</ele>
        <time>2020-02-22T13:15:30.000Z</time>
      </trkpt>
      <trkpt lat="43.77056" lon="7.25926">
        <ele>719</ele>
        <time>2020-02-22T13:15:34.000Z</time>
      </trkpt>
      <trkpt lat="43.77051" lon="7.25928">
        <ele>719.40002441406</ele>
        <time>2020-02-22T13:15:36.000Z</time>
      </trkpt>
      <trkpt lat="43.77044" lon="7.25929">
        <ele>719.79998779297</ele>
        <time>2020-02-22T13:15:39.000Z</time>
      </trkpt>
      <trkpt lat="43.77033" lon="7.2593">
        <ele>720.40002441406</ele>
        <time>2020-02-22T13:15:43.000Z</time>
      </trkpt>
      <trkpt lat="43.77022" lon="7.25931">
        <ele>721</ele>
        <time>2020-02-22T13:15:47.000Z</time>
      </trkpt>
      <trkpt lat="43.77011" lon="7.2593">
        <ele>721.59997558594</ele>
        <time>2020-02-22T13:15:51.000Z</time>
      </trkpt>
      <trkpt lat="43.77001" lon="7.25929">
        <ele>722.40002441406</ele>
        <time>2020-02-22T13:15:55.000Z</time>
      </trkpt>
      <trkpt lat="43.76998" lon="7.25928">
        <ele>722.79998779297</ele>
        <time>2020-02-22T13:15:56.000Z</time>
      </trkpt>
      <trkpt lat="43.76982" lon="7.25921">
        <ele>723.79998779297</ele>
        <time>2020-02-22T13:16:02.000Z</time>
      </trkpt>
      <trkpt lat="43.7698" lon="7.25919">
        <ele>724</ele>
        <time>2020-02-22T13:16:03.000Z</time>
      </trkpt>
      <trkpt lat="43.76973" lon="7.25903">
        <ele>724.59997558594</ele>
        <time>2020-02-22T13:16:08.000Z</time>
      </trkpt>
      <trkpt lat="43.76971" lon="7.25893">
        <ele>725</ele>
        <time>2020-02-22T13:16:11.000Z</time>
      </trkpt>
      <trkpt lat="43.76969" lon="7.25883">
        <ele>725.59997558594</ele>
        <time>2020-02-22T13:16:14.000Z</time>
      </trkpt>
      <trkpt lat="43.76965" lon="7.25872">
        <ele>726.20001220703</ele>
        <time>2020-02-22T13:16:17.000Z</time>
      </trkpt>
      <trkpt lat="43.76958" lon="7.25857">
        <ele>727.20001220703</ele>
        <time>2020-02-22T13:16:22.000Z</time>
      </trkpt>
      <trkpt lat="43.76948" lon="7.25846">
        <ele>728.40002441406</ele>
        <time>2020-02-22T13:16:27.000Z</time>
      </trkpt>
      <trkpt lat="43.76942" lon="7.25839">
        <ele>729</ele>
        <time>2020-02-22T13:16:30.000Z</time>
      </trkpt>
      <trkpt lat="43.76939" lon="7.25834">
        <ele>729.40002441406</ele>
        <time>2020-02-22T13:16:32.000Z</time>
      </trkpt>
      <trkpt lat="43.76932" lon="7.25824">
        <ele>730.40002441406</ele>
        <time>2020-02-22T13:16:36.000Z</time>
      </trkpt>
      <trkpt lat="43.76931" lon="7.25821">
        <ele>730.59997558594</ele>
        <time>2020-02-22T13:16:37.000Z</time>
      </trkpt>
      <trkpt lat="43.76926" lon="7.25811">
        <ele>731.79998779297</ele>
        <time>2020-02-22T13:16:41.000Z</time>
      </trkpt>
      <trkpt lat="43.76922" lon="7.258">
        <ele>732.79998779297</ele>
        <time>2020-02-22T13:16:45.000Z</time>
      </trkpt>
      <trkpt lat="43.76916" lon="7.25786">
        <ele>733.79998779297</ele>
        <time>2020-02-22T13:16:50.000Z</time>
      </trkpt>
      <trkpt lat="43.76912" lon="7.25779">
        <ele>734.40002441406</ele>
        <time>2020-02-22T13:16:53.000Z</time>
      </trkpt>
      <trkpt lat="43.76909" lon="7.25774">
        <ele>734.79998779297</ele>
        <time>2020-02-22T13:16:55.000Z</time>
      </trkpt>
      <trkpt lat="43.76901" lon="7.25762">
        <ele>736</ele>
        <time>2020-02-22T13:17:00.000Z</time>
      </trkpt>
      <trkpt lat="43.76897" lon="7.25758">
        <ele>736.40002441406</ele>
        <time>2020-02-22T13:17:02.000Z</time>
      </trkpt>
      <trkpt lat="43.76891" lon="7.25751">
        <ele>737</ele>
        <time>2020-02-22T13:17:05.000Z</time>
      </trkpt>
      <trkpt lat="43.76884" lon="7.25737">
        <ele>738.20001220703</ele>
        <time>2020-02-22T13:17:10.000Z</time>
      </trkpt>
      <trkpt lat="43.76879" lon="7.25725">
        <ele>739.40002441406</ele>
        <time>2020-02-22T13:17:14.000Z</time>
      </trkpt>
      <trkpt lat="43.76875" lon="7.25713">
        <ele>740.59997558594</ele>
        <time>2020-02-22T13:17:18.000Z</time>
      </trkpt>
      <trkpt lat="43.76869" lon="7.25699">
        <ele>741.59997558594</ele>
        <time>2020-02-22T13:17:23.000Z</time>
      </trkpt>
      <trkpt lat="43.76864" lon="7.25685">
        <ele>743</ele>
        <time>2020-02-22T13:17:28.000Z</time>
      </trkpt>
      <trkpt lat="43.7686" lon="7.25674">
        <ele>744.20001220703</ele>
        <time>2020-02-22T13:17:32.000Z</time>
      </trkpt>
      <trkpt lat="43.76855" lon="7.25662">
        <ele>745.20001220703</ele>
        <time>2020-02-22T13:17:36.000Z</time>
      </trkpt>
      <trkpt lat="43.76854" lon="7.25659">
        <ele>745.59997558594</ele>
        <time>2020-02-22T13:17:37.000Z</time>
      </trkpt>
      <trkpt lat="43.76851" lon="7.25648">
        <ele>746.79998779297</ele>
        <time>2020-02-22T13:17:41.000Z</time>
      </trkpt>
      <trkpt lat="43.7685" lon="7.25639">
        <ele>747.40002441406</ele>
        <time>2020-02-22T13:17:44.000Z</time>
      </trkpt>
      <trkpt lat="43.76849" lon="7.25636">
        <ele>747.79998779297</ele>
        <time>2020-02-22T13:17:45.000Z</time>
      </trkpt>
      <trkpt lat="43.76847" lon="7.25625">
        <ele>748.79998779297</ele>
        <time>2020-02-22T13:17:49.000Z</time>
      </trkpt>
      <trkpt lat="43.76845" lon="7.25617">
        <ele>749.40002441406</ele>
        <time>2020-02-22T13:17:52.000Z</time>
      </trkpt>
      <trkpt lat="43.76844" lon="7.25612">
        <ele>750</ele>
        <time>2020-02-22T13:17:54.000Z</time>
      </trkpt>
      <trkpt lat="43.76843" lon="7.25598">
        <ele>751</ele>
        <time>2020-02-22T13:17:59.000Z</time>
      </trkpt>
      <trkpt lat="43.76843" lon="7.25583">
        <ele>752</ele>
        <time>2020-02-22T13:18:04.000Z</time>
      </trkpt>
      <trkpt lat="43.76847" lon="7.25568">
        <ele>753.20001220703</ele>
        <time>2020-02-22T13:18:09.000Z</time>
      </trkpt>
      <trkpt lat="43.76849" lon="7.25558">
        <ele>754.20001220703</ele>
        <time>2020-02-22T13:18:12.000Z</time>
      </trkpt>
      <trkpt lat="43.7685" lon="7.25555">
        <ele>754.40002441406</ele>
        <time>2020-02-22T13:18:13.000Z</time>
      </trkpt>
      <trkpt lat="43.76853" lon="7.25544">
        <ele>755.40002441406</ele>
        <time>2020-02-22T13:18:17.000Z</time>
      </trkpt>
      <trkpt lat="43.76855" lon="7.25536">
        <ele>756.20001220703</ele>
        <time>2020-02-22T13:18:20.000Z</time>
      </trkpt>
      <trkpt lat="43.76856" lon="7.25533">
        <ele>756.40002441406</ele>
        <time>2020-02-22T13:18:21.000Z</time>
      </trkpt>
      <trkpt lat="43.76858" lon="7.25532">
        <ele>756.59997558594</ele>
        <time>2020-02-22T13:18:22.000Z</time>
      </trkpt>
      <trkpt lat="43.76862" lon="7.25536">
        <ele>757.20001220703</ele>
        <time>2020-02-22T13:18:24.000Z</time>
      </trkpt>
      <trkpt lat="43.76861" lon="7.25541">
        <ele>757.79998779297</ele>
        <time>2020-02-22T13:18:26.000Z</time>
      </trkpt>
      <trkpt lat="43.7686" lon="7.25544">
        <ele>757.79998779297</ele>
        <time>2020-02-22T13:18:27.000Z</time>
      </trkpt>
      <trkpt lat="43.76858" lon="7.25555">
        <ele>758.79998779297</ele>
        <time>2020-02-22T13:18:31.000Z</time>
      </trkpt>
      <trkpt lat="43.76857" lon="7.25563">
        <ele>759.40002441406</ele>
        <time>2020-02-22T13:18:34.000Z</time>
      </trkpt>
      <trkpt lat="43.76856" lon="7.25569">
        <ele>759.79998779297</ele>
        <time>2020-02-22T13:18:36.000Z</time>
      </trkpt>
      <trkpt lat="43.76857" lon="7.25585">
        <ele>761</ele>
        <time>2020-02-22T13:18:41.000Z</time>
      </trkpt>
      <trkpt lat="43.76861" lon="7.25597">
        <ele>762</ele>
        <time>2020-02-22T13:18:45.000Z</time>
      </trkpt>
      <trkpt lat="43.76867" lon="7.25608">
        <ele>763.20001220703</ele>
        <time>2020-02-22T13:18:49.000Z</time>
      </trkpt>
      <trkpt lat="43.76874" lon="7.25618">
        <ele>764.20001220703</ele>
        <time>2020-02-22T13:18:53.000Z</time>
      </trkpt>
      <trkpt lat="43.76882" lon="7.25628">
        <ele>765.40002441406</ele>
        <time>2020-02-22T13:18:57.000Z</time>
      </trkpt>
      <trkpt lat="43.76889" lon="7.25638">
        <ele>766.59997558594</ele>
        <time>2020-02-22T13:19:01.000Z</time>
      </trkpt>
      <trkpt lat="43.76898" lon="7.25649">
        <ele>767.79998779297</ele>
        <time>2020-02-22T13:19:05.000Z</time>
      </trkpt>
      <trkpt lat="43.76906" lon="7.25658">
        <ele>769</ele>
        <time>2020-02-22T13:19:09.000Z</time>
      </trkpt>
      <trkpt lat="43.76911" lon="7.25665">
        <ele>770</ele>
        <time>2020-02-22T13:19:12.000Z</time>
      </trkpt>
      <trkpt lat="43.76913" lon="7.25668">
        <ele>770.40002441406</ele>
        <time>2020-02-22T13:19:13.000Z</time>
      </trkpt>
      <trkpt lat="43.76918" lon="7.25679">
        <ele>771.59997558594</ele>
        <time>2020-02-22T13:19:17.000Z</time>
      </trkpt>
      <trkpt lat="43.76921" lon="7.25684">
        <ele>772</ele>
        <time>2020-02-22T13:19:19.000Z</time>
      </trkpt>
      <trkpt lat="43.76925" lon="7.25691">
        <ele>773</ele>
        <time>2020-02-22T13:19:22.000Z</time>
      </trkpt>
      <trkpt lat="43.76931" lon="7.257">
        <ele>774</ele>
        <time>2020-02-22T13:19:26.000Z</time>
      </trkpt>
      <trkpt lat="43.76932" lon="7.25703">
        <ele>774.20001220703</ele>
        <time>2020-02-22T13:19:27.000Z</time>
      </trkpt>
      <trkpt lat="43.76934" lon="7.25703">
        <ele>774.59997558594</ele>
        <time>2020-02-22T13:19:28.000Z</time>
      </trkpt>
      <trkpt lat="43.76936" lon="7.25699">
        <ele>774.79998779297</ele>
        <time>2020-02-22T13:19:30.000Z</time>
      </trkpt>
      <trkpt lat="43.76934" lon="7.25694">
        <ele>775.20001220703</ele>
        <time>2020-02-22T13:19:32.000Z</time>
      </trkpt>
      <trkpt lat="43.76931" lon="7.25682">
        <ele>776.40002441406</ele>
        <time>2020-02-22T13:19:36.000Z</time>
      </trkpt>
      <trkpt lat="43.7693" lon="7.25679">
        <ele>776.79998779297</ele>
        <time>2020-02-22T13:19:37.000Z</time>
      </trkpt>
      <trkpt lat="43.76927" lon="7.25671">
        <ele>777.59997558594</ele>
        <time>2020-02-22T13:19:40.000Z</time>
      </trkpt>
      <trkpt lat="43.76922" lon="7.25655">
        <ele>778.59997558594</ele>
        <time>2020-02-22T13:19:45.000Z</time>
      </trkpt>
      <trkpt lat="43.76918" lon="7.25646">
        <ele>779.59997558594</ele>
        <time>2020-02-22T13:19:48.000Z</time>
      </trkpt>
      <trkpt lat="43.76917" lon="7.25643">
        <ele>779.59997558594</ele>
        <time>2020-02-22T13:19:49.000Z</time>
      </trkpt>
      <trkpt lat="43.76913" lon="7.2563">
        <ele>780.79998779297</ele>
        <time>2020-02-22T13:19:53.000Z</time>
      </trkpt>
      <trkpt lat="43.76909" lon="7.25618">
        <ele>781.79998779297</ele>
        <time>2020-02-22T13:19:57.000Z</time>
      </trkpt>
      <trkpt lat="43.76905" lon="7.25606">
        <ele>783</ele>
        <time>2020-02-22T13:20:01.000Z</time>
      </trkpt>
      <trkpt lat="43.769" lon="7.25591">
        <ele>784.20001220703</ele>
        <time>2020-02-22T13:20:06.000Z</time>
      </trkpt>
      <trkpt lat="43.76896" lon="7.2558">
        <ele>785.40002441406</ele>
        <time>2020-02-22T13:20:10.000Z</time>
      </trkpt>
      <trkpt lat="43.76895" lon="7.25576">
        <ele>785.59997558594</ele>
        <time>2020-02-22T13:20:11.000Z</time>
      </trkpt>
      <trkpt lat="43.76897" lon="7.25573">
        <ele>785.79998779297</ele>
        <time>2020-02-22T13:20:12.000Z</time>
      </trkpt>
      <trkpt lat="43.76902" lon="7.25574">
        <ele>786.20001220703</ele>
        <time>2020-02-22T13:20:14.000Z</time>
      </trkpt>
      <trkpt lat="43.76904" lon="7.25579">
        <ele>786.40002441406</ele>
        <time>2020-02-22T13:20:16.000Z</time>
      </trkpt>
      <trkpt lat="43.76905" lon="7.25582">
        <ele>786.59997558594</ele>
        <time>2020-02-22T13:20:17.000Z</time>
      </trkpt>
      <trkpt lat="43.76907" lon="7.25584">
        <ele>786.79998779297</ele>
        <time>2020-02-22T13:20:18.000Z</time>
      </trkpt>
      <trkpt lat="43.76912" lon="7.25594">
        <ele>787.59997558594</ele>
        <time>2020-02-22T13:20:22.000Z</time>
      </trkpt>
      <trkpt lat="43.76919" lon="7.25604">
        <ele>788.79998779297</ele>
        <time>2020-02-22T13:20:27.000Z</time>
      </trkpt>
      <trkpt lat="43.76926" lon="7.25613">
        <ele>790</ele>
        <time>2020-02-22T13:20:32.000Z</time>
      </trkpt>
      <trkpt lat="43.76929" lon="7.25616">
        <ele>790.40002441406</ele>
        <time>2020-02-22T13:20:34.000Z</time>
      </trkpt>
      <trkpt lat="43.76934" lon="7.25623">
        <ele>791.20001220703</ele>
        <time>2020-02-22T13:20:37.000Z</time>
      </trkpt>
      <trkpt lat="43.76943" lon="7.25634">
        <ele>792</ele>
        <time>2020-02-22T13:20:41.000Z</time>
      </trkpt>
      <trkpt lat="43.76945" lon="7.25637">
        <ele>792.40002441406</ele>
        <time>2020-02-22T13:20:42.000Z</time>
      </trkpt>
      <trkpt lat="43.76951" lon="7.25645">
        <ele>793.40002441406</ele>
        <time>2020-02-22T13:20:45.000Z</time>
      </trkpt>
      <trkpt lat="43.76955" lon="7.25652">
        <ele>794.40002441406</ele>
        <time>2020-02-22T13:20:47.000Z</time>
      </trkpt>
      <trkpt lat="43.76956" lon="7.25655">
        <ele>794.59997558594</ele>
        <time>2020-02-22T13:20:48.000Z</time>
      </trkpt>
      <trkpt lat="43.76962" lon="7.25667">
        <ele>796</ele>
        <time>2020-02-22T13:20:52.000Z</time>
      </trkpt>
      <trkpt lat="43.76968" lon="7.25671">
        <ele>796.79998779297</ele>
        <time>2020-02-22T13:20:55.000Z</time>
      </trkpt>
      <trkpt lat="43.7697" lon="7.2567">
        <ele>797</ele>
        <time>2020-02-22T13:20:56.000Z</time>
      </trkpt>
      <trkpt lat="43.7697" lon="7.25665">
        <ele>797.20001220703</ele>
        <time>2020-02-22T13:20:58.000Z</time>
      </trkpt>
      <trkpt lat="43.76967" lon="7.2566">
        <ele>797.59997558594</ele>
        <time>2020-02-22T13:21:00.000Z</time>
      </trkpt>
      <trkpt lat="43.76964" lon="7.25652">
        <ele>798.20001220703</ele>
        <time>2020-02-22T13:21:03.000Z</time>
      </trkpt>
      <trkpt lat="43.76956" lon="7.25632">
        <ele>799.20001220703</ele>
        <time>2020-02-22T13:21:09.000Z</time>
      </trkpt>
      <trkpt lat="43.76949" lon="7.25614">
        <ele>800.40002441406</ele>
        <time>2020-02-22T13:21:14.000Z</time>
      </trkpt>
      <trkpt lat="43.76945" lon="7.25604">
        <ele>801.40002441406</ele>
        <time>2020-02-22T13:21:17.000Z</time>
      </trkpt>
      <trkpt lat="43.76941" lon="7.25593">
        <ele>802</ele>
        <time>2020-02-22T13:21:20.000Z</time>
      </trkpt>
      <trkpt lat="43.76938" lon="7.25587">
        <ele>802.59997558594</ele>
        <time>2020-02-22T13:21:22.000Z</time>
      </trkpt>
      <trkpt lat="43.76933" lon="7.25573">
        <ele>803.59997558594</ele>
        <time>2020-02-22T13:21:26.000Z</time>
      </trkpt>
      <trkpt lat="43.7693" lon="7.25563">
        <ele>804.59997558594</ele>
        <time>2020-02-22T13:21:29.000Z</time>
      </trkpt>
      <trkpt lat="43.7693" lon="7.2556">
        <ele>804.79998779297</ele>
        <time>2020-02-22T13:21:30.000Z</time>
      </trkpt>
      <trkpt lat="43.76932" lon="7.25557">
        <ele>805.20001220703</ele>
        <time>2020-02-22T13:21:31.000Z</time>
      </trkpt>
      <trkpt lat="43.76936" lon="7.25558">
        <ele>805.40002441406</ele>
        <time>2020-02-22T13:21:32.000Z</time>
      </trkpt>
      <trkpt lat="43.7694" lon="7.25569">
        <ele>805.79998779297</ele>
        <time>2020-02-22T13:21:35.000Z</time>
      </trkpt>
      <trkpt lat="43.76943" lon="7.25576">
        <ele>806</ele>
        <time>2020-02-22T13:21:37.000Z</time>
      </trkpt>
      <trkpt lat="43.76948" lon="7.25586">
        <ele>807</ele>
        <time>2020-02-22T13:21:41.000Z</time>
      </trkpt>
      <trkpt lat="43.76953" lon="7.25592">
        <ele>808.40002441406</ele>
        <time>2020-02-22T13:21:44.000Z</time>
      </trkpt>
      <trkpt lat="43.7696" lon="7.256">
        <ele>809.20001220703</ele>
        <time>2020-02-22T13:21:48.000Z</time>
      </trkpt>
      <trkpt lat="43.76965" lon="7.25606">
        <ele>809.59997558594</ele>
        <time>2020-02-22T13:21:50.000Z</time>
      </trkpt>
      <trkpt lat="43.76969" lon="7.25612">
        <ele>810.20001220703</ele>
        <time>2020-02-22T13:21:52.000Z</time>
      </trkpt>
      <trkpt lat="43.76971" lon="7.25615">
        <ele>810.59997558594</ele>
        <time>2020-02-22T13:21:53.000Z</time>
      </trkpt>
      <trkpt lat="43.76973" lon="7.25618">
        <ele>810.59997558594</ele>
        <time>2020-02-22T13:21:54.000Z</time>
      </trkpt>
      <trkpt lat="43.76979" lon="7.25628">
        <ele>812</ele>
        <time>2020-02-22T13:21:58.000Z</time>
      </trkpt>
      <trkpt lat="43.76983" lon="7.25633">
        <ele>812.79998779297</ele>
        <time>2020-02-22T13:22:01.000Z</time>
      </trkpt>
      <trkpt lat="43.76985" lon="7.25634">
        <ele>813</ele>
        <time>2020-02-22T13:22:02.000Z</time>
      </trkpt>
      <trkpt lat="43.7699" lon="7.25638">
        <ele>813.79998779297</ele>
        <time>2020-02-22T13:22:08.000Z</time>
      </trkpt>
      <trkpt lat="43.76992" lon="7.2564">
        <ele>814</ele>
        <time>2020-02-22T13:22:11.000Z</time>
      </trkpt>
      <trkpt lat="43.76995" lon="7.25642">
        <ele>814</ele>
        <time>2020-02-22T13:22:14.000Z</time>
      </trkpt>
      <trkpt lat="43.76996" lon="7.25642">
        <ele>813.79998779297</ele>
        <time>2020-02-22T13:22:15.000Z</time>
      </trkpt>
      <trkpt lat="43.76999" lon="7.25649">
        <ele>814</ele>
        <time>2020-02-22T13:22:19.000Z</time>
      </trkpt>
      <trkpt lat="43.76998" lon="7.25649">
        <ele>814</ele>
        <time>2020-02-22T13:22:20.000Z</time>
      </trkpt>
      <trkpt lat="43.76998" lon="7.25648">
        <ele>814</ele>
        <time>2020-02-22T13:22:21.000Z</time>
      </trkpt>
      <trkpt lat="43.76999" lon="7.25649">
        <ele>814</ele>
        <time>2020-02-22T13:22:24.000Z</time>
      </trkpt>
      <trkpt lat="43.77001" lon="7.25648">
        <ele>813.79998779297</ele>
        <time>2020-02-22T13:22:26.000Z</time>
      </trkpt>
      <trkpt lat="43.77002" lon="7.25648">
        <ele>814</ele>
        <time>2020-02-22T13:22:29.000Z</time>
      </trkpt>
      <trkpt lat="43.7701" lon="7.2565">
        <ele>814.20001220703</ele>
        <time>2020-02-22T13:22:34.000Z</time>
      </trkpt>
      <trkpt lat="43.77016" lon="7.25654">
        <ele>813.40002441406</ele>
        <time>2020-02-22T13:22:38.000Z</time>
      </trkpt>
      <trkpt lat="43.77019" lon="7.25654">
        <ele>813</ele>
        <time>2020-02-22T13:22:39.000Z</time>
      </trkpt>
      <trkpt lat="43.77026" lon="7.25655">
        <ele>811.79998779297</ele>
        <time>2020-02-22T13:22:42.000Z</time>
      </trkpt>
      <trkpt lat="43.77028" lon="7.25656">
        <ele>811</ele>
        <time>2020-02-22T13:22:43.000Z</time>
      </trkpt>
      <trkpt lat="43.77029" lon="7.25658">
        <ele>810.59997558594</ele>
        <time>2020-02-22T13:22:44.000Z</time>
      </trkpt>
      <trkpt lat="43.77031" lon="7.2566">
        <ele>809.40002441406</ele>
        <time>2020-02-22T13:22:46.000Z</time>
      </trkpt>
      <trkpt lat="43.77033" lon="7.25663">
        <ele>808.59997558594</ele>
        <time>2020-02-22T13:22:48.000Z</time>
      </trkpt>
      <trkpt lat="43.77032" lon="7.25665">
        <ele>808</ele>
        <time>2020-02-22T13:22:49.000Z</time>
      </trkpt>
      <trkpt lat="43.77029" lon="7.25667">
        <ele>807.40002441406</ele>
        <time>2020-02-22T13:22:51.000Z</time>
      </trkpt>
      <trkpt lat="43.77028" lon="7.25669">
        <ele>806.79998779297</ele>
        <time>2020-02-22T13:22:52.000Z</time>
      </trkpt>
      <trkpt lat="43.77026" lon="7.25675">
        <ele>806</ele>
        <time>2020-02-22T13:22:54.000Z</time>
      </trkpt>
      <trkpt lat="43.77024" lon="7.25678">
        <ele>805.40002441406</ele>
        <time>2020-02-22T13:22:55.000Z</time>
      </trkpt>
      <trkpt lat="43.77025" lon="7.25681">
        <ele>805</ele>
        <time>2020-02-22T13:22:56.000Z</time>
      </trkpt>
      <trkpt lat="43.77025" lon="7.25683">
        <ele>804</ele>
        <time>2020-02-22T13:22:57.000Z</time>
      </trkpt>
      <trkpt lat="43.77026" lon="7.25685">
        <ele>803.40002441406</ele>
        <time>2020-02-22T13:22:58.000Z</time>
      </trkpt>
      <trkpt lat="43.77025" lon="7.2569">
        <ele>802.59997558594</ele>
        <time>2020-02-22T13:22:59.000Z</time>
      </trkpt>
      <trkpt lat="43.7702" lon="7.25694">
        <ele>800.79998779297</ele>
        <time>2020-02-22T13:23:01.000Z</time>
      </trkpt>
      <trkpt lat="43.77016" lon="7.25699">
        <ele>799.20001220703</ele>
        <time>2020-02-22T13:23:03.000Z</time>
      </trkpt>
      <trkpt lat="43.7701" lon="7.25704">
        <ele>797.59997558594</ele>
        <time>2020-02-22T13:23:06.000Z</time>
      </trkpt>
      <trkpt lat="43.7701" lon="7.25706">
        <ele>797</ele>
        <time>2020-02-22T13:23:07.000Z</time>
      </trkpt>
      <trkpt lat="43.77011" lon="7.25708">
        <ele>796.59997558594</ele>
        <time>2020-02-22T13:23:08.000Z</time>
      </trkpt>
      <trkpt lat="43.77014" lon="7.25711">
        <ele>795</ele>
        <time>2020-02-22T13:23:10.000Z</time>
      </trkpt>
      <trkpt lat="43.77015" lon="7.25713">
        <ele>794.40002441406</ele>
        <time>2020-02-22T13:23:11.000Z</time>
      </trkpt>
      <trkpt lat="43.77017" lon="7.25713">
        <ele>793.20001220703</ele>
        <time>2020-02-22T13:23:12.000Z</time>
      </trkpt>
      <trkpt lat="43.7702" lon="7.25717">
        <ele>791.59997558594</ele>
        <time>2020-02-22T13:23:14.000Z</time>
      </trkpt>
      <trkpt lat="43.77022" lon="7.25718">
        <ele>791</ele>
        <time>2020-02-22T13:23:15.000Z</time>
      </trkpt>
      <trkpt lat="43.77025" lon="7.25719">
        <ele>790.40002441406</ele>
        <time>2020-02-22T13:23:16.000Z</time>
      </trkpt>
      <trkpt lat="43.77024" lon="7.25724">
        <ele>789.40002441406</ele>
        <time>2020-02-22T13:23:18.000Z</time>
      </trkpt>
      <trkpt lat="43.77023" lon="7.25728">
        <ele>787.79998779297</ele>
        <time>2020-02-22T13:23:21.000Z</time>
      </trkpt>
      <trkpt lat="43.77025" lon="7.2573">
        <ele>787.40002441406</ele>
        <time>2020-02-22T13:23:22.000Z</time>
      </trkpt>
      <trkpt lat="43.77028" lon="7.25731">
        <ele>786.79998779297</ele>
        <time>2020-02-22T13:23:23.000Z</time>
      </trkpt>
      <trkpt lat="43.77035" lon="7.25732">
        <ele>785.59997558594</ele>
        <time>2020-02-22T13:23:25.000Z</time>
      </trkpt>
      <trkpt lat="43.77038" lon="7.25735">
        <ele>784.40002441406</ele>
        <time>2020-02-22T13:23:27.000Z</time>
      </trkpt>
      <trkpt lat="43.77039" lon="7.25741">
        <ele>783</ele>
        <time>2020-02-22T13:23:29.000Z</time>
      </trkpt>
      <trkpt lat="43.77035" lon="7.25746">
        <ele>782</ele>
        <time>2020-02-22T13:23:31.000Z</time>
      </trkpt>
      <trkpt lat="43.77027" lon="7.2575">
        <ele>780.79998779297</ele>
        <time>2020-02-22T13:23:33.000Z</time>
      </trkpt>
      <trkpt lat="43.7702" lon="7.25751">
        <ele>779.59997558594</ele>
        <time>2020-02-22T13:23:35.000Z</time>
      </trkpt>
      <trkpt lat="43.7702" lon="7.25754">
        <ele>778.79998779297</ele>
        <time>2020-02-22T13:23:36.000Z</time>
      </trkpt>
      <trkpt lat="43.77021" lon="7.25756">
        <ele>777.79998779297</ele>
        <time>2020-02-22T13:23:37.000Z</time>
      </trkpt>
      <trkpt lat="43.77026" lon="7.25761">
        <ele>776.59997558594</ele>
        <time>2020-02-22T13:23:40.000Z</time>
      </trkpt>
      <trkpt lat="43.77031" lon="7.25769">
        <ele>775.59997558594</ele>
        <time>2020-02-22T13:23:44.000Z</time>
      </trkpt>
      <trkpt lat="43.7703" lon="7.2577">
        <ele>775.20001220703</ele>
        <time>2020-02-22T13:23:45.000Z</time>
      </trkpt>
      <trkpt lat="43.77027" lon="7.25772">
        <ele>773.59997558594</ele>
        <time>2020-02-22T13:23:47.000Z</time>
      </trkpt>
      <trkpt lat="43.77026" lon="7.25774">
        <ele>772.79998779297</ele>
        <time>2020-02-22T13:23:48.000Z</time>
      </trkpt>
      <trkpt lat="43.77025" lon="7.25775">
        <ele>772.20001220703</ele>
        <time>2020-02-22T13:23:49.000Z</time>
      </trkpt>
      <trkpt lat="43.77025" lon="7.25776">
        <ele>771.40002441406</ele>
        <time>2020-02-22T13:23:50.000Z</time>
      </trkpt>
      <trkpt lat="43.77026" lon="7.25778">
        <ele>770.79998779297</ele>
        <time>2020-02-22T13:23:51.000Z</time>
      </trkpt>
      <trkpt lat="43.77027" lon="7.2578">
        <ele>770.20001220703</ele>
        <time>2020-02-22T13:23:52.000Z</time>
      </trkpt>
      <trkpt lat="43.77025" lon="7.25782">
        <ele>769.79998779297</ele>
        <time>2020-02-22T13:23:53.000Z</time>
      </trkpt>
      <trkpt lat="43.77021" lon="7.25783">
        <ele>768.79998779297</ele>
        <time>2020-02-22T13:23:55.000Z</time>
      </trkpt>
      <trkpt lat="43.7702" lon="7.25783">
        <ele>768.20001220703</ele>
        <time>2020-02-22T13:23:56.000Z</time>
      </trkpt>
      <trkpt lat="43.77019" lon="7.25785">
        <ele>767.59997558594</ele>
        <time>2020-02-22T13:23:57.000Z</time>
      </trkpt>
      <trkpt lat="43.77016" lon="7.25787">
        <ele>766.59997558594</ele>
        <time>2020-02-22T13:23:59.000Z</time>
      </trkpt>
      <trkpt lat="43.7702" lon="7.25794">
        <ele>765.40002441406</ele>
        <time>2020-02-22T13:24:02.000Z</time>
      </trkpt>
      <trkpt lat="43.77016" lon="7.258">
        <ele>764</ele>
        <time>2020-02-22T13:24:04.000Z</time>
      </trkpt>
      <trkpt lat="43.77016" lon="7.25803">
        <ele>763</ele>
        <time>2020-02-22T13:24:05.000Z</time>
      </trkpt>
      <trkpt lat="43.77018" lon="7.25805">
        <ele>762.40002441406</ele>
        <time>2020-02-22T13:24:06.000Z</time>
      </trkpt>
      <trkpt lat="43.77016" lon="7.25811">
        <ele>760.59997558594</ele>
        <time>2020-02-22T13:24:08.000Z</time>
      </trkpt>
      <trkpt lat="43.77012" lon="7.25811">
        <ele>759.20001220703</ele>
        <time>2020-02-22T13:24:10.000Z</time>
      </trkpt>
      <trkpt lat="43.77011" lon="7.25814">
        <ele>758.40002441406</ele>
        <time>2020-02-22T13:24:11.000Z</time>
      </trkpt>
      <trkpt lat="43.77013" lon="7.25815">
        <ele>758</ele>
        <time>2020-02-22T13:24:12.000Z</time>
      </trkpt>
      <trkpt lat="43.77015" lon="7.25818">
        <ele>757.40002441406</ele>
        <time>2020-02-22T13:24:13.000Z</time>
      </trkpt>
      <trkpt lat="43.77014" lon="7.25821">
        <ele>757</ele>
        <time>2020-02-22T13:24:14.000Z</time>
      </trkpt>
      <trkpt lat="43.77012" lon="7.25822">
        <ele>756.59997558594</ele>
        <time>2020-02-22T13:24:15.000Z</time>
      </trkpt>
      <trkpt lat="43.77012" lon="7.25829">
        <ele>755</ele>
        <time>2020-02-22T13:24:18.000Z</time>
      </trkpt>
      <trkpt lat="43.77014" lon="7.25837">
        <ele>753.40002441406</ele>
        <time>2020-02-22T13:24:21.000Z</time>
      </trkpt>
      <trkpt lat="43.77017" lon="7.25841">
        <ele>752</ele>
        <time>2020-02-22T13:24:23.000Z</time>
      </trkpt>
      <trkpt lat="43.7702" lon="7.25842">
        <ele>751.20001220703</ele>
        <time>2020-02-22T13:24:24.000Z</time>
      </trkpt>
      <trkpt lat="43.77019" lon="7.25846">
        <ele>750.40002441406</ele>
        <time>2020-02-22T13:24:25.000Z</time>
      </trkpt>
      <trkpt lat="43.77015" lon="7.25847">
        <ele>749.20001220703</ele>
        <time>2020-02-22T13:24:27.000Z</time>
      </trkpt>
      <trkpt lat="43.77017" lon="7.25854">
        <ele>748</ele>
        <time>2020-02-22T13:24:30.000Z</time>
      </trkpt>
      <trkpt lat="43.77017" lon="7.25857">
        <ele>747.40002441406</ele>
        <time>2020-02-22T13:24:31.000Z</time>
      </trkpt>
      <trkpt lat="43.77013" lon="7.25859">
        <ele>746.40002441406</ele>
        <time>2020-02-22T13:24:33.000Z</time>
      </trkpt>
      <trkpt lat="43.77009" lon="7.2586">
        <ele>746</ele>
        <time>2020-02-22T13:24:34.000Z</time>
      </trkpt>
      <trkpt lat="43.77007" lon="7.25866">
        <ele>745.20001220703</ele>
        <time>2020-02-22T13:24:36.000Z</time>
      </trkpt>
      <trkpt lat="43.77004" lon="7.25867">
        <ele>744.79998779297</ele>
        <time>2020-02-22T13:24:37.000Z</time>
      </trkpt>
      <trkpt lat="43.77001" lon="7.25864">
        <ele>744</ele>
        <time>2020-02-22T13:24:39.000Z</time>
      </trkpt>
      <trkpt lat="43.76999" lon="7.25863">
        <ele>743.20001220703</ele>
        <time>2020-02-22T13:24:40.000Z</time>
      </trkpt>
      <trkpt lat="43.76998" lon="7.25863">
        <ele>742.59997558594</ele>
        <time>2020-02-22T13:24:41.000Z</time>
      </trkpt>
      <trkpt lat="43.76997" lon="7.25866">
        <ele>741.40002441406</ele>
        <time>2020-02-22T13:24:43.000Z</time>
      </trkpt>
      <trkpt lat="43.76993" lon="7.25864">
        <ele>741</ele>
        <time>2020-02-22T13:24:46.000Z</time>
      </trkpt>
      <trkpt lat="43.76992" lon="7.25862">
        <ele>741</ele>
        <time>2020-02-22T13:24:47.000Z</time>
      </trkpt>
      <trkpt lat="43.76978" lon="7.25843">
        <ele>740.79998779297</ele>
        <time>2020-02-22T13:24:54.000Z</time>
      </trkpt>
      <trkpt lat="43.7697" lon="7.2583">
        <ele>740.40002441406</ele>
        <time>2020-02-22T13:24:59.000Z</time>
      </trkpt>
      <trkpt lat="43.7697" lon="7.2583">
        <ele>740.40002441406</ele>
        <time>2020-02-22T13:25:00.000Z</time>
      </trkpt>
      <trkpt lat="43.76968" lon="7.25831">
        <ele>740.59997558594</ele>
        <time>2020-02-22T13:25:06.000Z</time>
      </trkpt>
      <trkpt lat="43.76969" lon="7.25838">
        <ele>740.40002441406</ele>
        <time>2020-02-22T13:25:10.000Z</time>
      </trkpt>
      <trkpt lat="43.76968" lon="7.25841">
        <ele>739.79998779297</ele>
        <time>2020-02-22T13:25:12.000Z</time>
      </trkpt>
      <trkpt lat="43.76967" lon="7.25842">
        <ele>739.40002441406</ele>
        <time>2020-02-22T13:25:13.000Z</time>
      </trkpt>
      <trkpt lat="43.76965" lon="7.25843">
        <ele>738.20001220703</ele>
        <time>2020-02-22T13:25:15.000Z</time>
      </trkpt>
      <trkpt lat="43.76964" lon="7.25844">
        <ele>737.40002441406</ele>
        <time>2020-02-22T13:25:16.000Z</time>
      </trkpt>
      <trkpt lat="43.76962" lon="7.25844">
        <ele>736.79998779297</ele>
        <time>2020-02-22T13:25:17.000Z</time>
      </trkpt>
      <trkpt lat="43.7696" lon="7.25843">
        <ele>736.40002441406</ele>
        <time>2020-02-22T13:25:18.000Z</time>
      </trkpt>
      <trkpt lat="43.76958" lon="7.25841">
        <ele>735.40002441406</ele>
        <time>2020-02-22T13:25:20.000Z</time>
      </trkpt>
      <trkpt lat="43.76957" lon="7.25843">
        <ele>734.79998779297</ele>
        <time>2020-02-22T13:25:22.000Z</time>
      </trkpt>
      <trkpt lat="43.76957" lon="7.25843">
        <ele>734.40002441406</ele>
        <time>2020-02-22T13:25:23.000Z</time>
      </trkpt>
      <trkpt lat="43.76958" lon="7.25845">
        <ele>734</ele>
        <time>2020-02-22T13:25:25.000Z</time>
      </trkpt>
      <trkpt lat="43.76961" lon="7.25849">
        <ele>733.59997558594</ele>
        <time>2020-02-22T13:25:27.000Z</time>
      </trkpt>
      <trkpt lat="43.76962" lon="7.25851">
        <ele>733.40002441406</ele>
        <time>2020-02-22T13:25:28.000Z</time>
      </trkpt>
      <trkpt lat="43.76969" lon="7.25864">
        <ele>732.20001220703</ele>
        <time>2020-02-22T13:25:32.000Z</time>
      </trkpt>
      <trkpt lat="43.76969" lon="7.2587">
        <ele>730.79998779297</ele>
        <time>2020-02-22T13:25:34.000Z</time>
      </trkpt>
      <trkpt lat="43.76968" lon="7.2587">
        <ele>729.79998779297</ele>
        <time>2020-02-22T13:25:35.000Z</time>
      </trkpt>
      <trkpt lat="43.76968" lon="7.2587">
        <ele>729</ele>
        <time>2020-02-22T13:25:36.000Z</time>
      </trkpt>
      <trkpt lat="43.76967" lon="7.2587">
        <ele>728.59997558594</ele>
        <time>2020-02-22T13:25:37.000Z</time>
      </trkpt>
      <trkpt lat="43.76968" lon="7.25868">
        <ele>727.59997558594</ele>
        <time>2020-02-22T13:25:42.000Z</time>
      </trkpt>
      <trkpt lat="43.76969" lon="7.25868">
        <ele>727.59997558594</ele>
        <time>2020-02-22T13:25:43.000Z</time>
      </trkpt>
      <trkpt lat="43.76971" lon="7.25868">
        <ele>727.40002441406</ele>
        <time>2020-02-22T13:25:49.000Z</time>
      </trkpt>
      <trkpt lat="43.76972" lon="7.25868">
        <ele>727.79998779297</ele>
        <time>2020-02-22T13:25:56.000Z</time>
      </trkpt>
      <trkpt lat="43.76972" lon="7.25869">
        <ele>727.79998779297</ele>
        <time>2020-02-22T13:26:11.000Z</time>
      </trkpt>
      <trkpt lat="43.76969" lon="7.2587">
        <ele>727.79998779297</ele>
        <time>2020-02-22T13:26:26.000Z</time>
      </trkpt>
      <trkpt lat="43.76968" lon="7.25869">
        <ele>727.40002441406</ele>
        <time>2020-02-22T13:26:34.000Z</time>
      </trkpt>
      <trkpt lat="43.76968" lon="7.25869">
        <ele>727.40002441406</ele>
        <time>2020-02-22T13:26:35.000Z</time>
      </trkpt>
      <trkpt lat="43.76967" lon="7.25869">
        <ele>727.79998779297</ele>
        <time>2020-02-22T13:26:37.000Z</time>
      </trkpt>
      <trkpt lat="43.76968" lon="7.25868">
        <ele>727.79998779297</ele>
        <time>2020-02-22T13:26:55.000Z</time>
      </trkpt>
      <trkpt lat="43.76967" lon="7.25869">
        <ele>727.20001220703</ele>
        <time>2020-02-22T13:27:08.000Z</time>
      </trkpt>
      <trkpt lat="43.76966" lon="7.25869">
        <ele>727.59997558594</ele>
        <time>2020-02-22T13:27:16.000Z</time>
      </trkpt>
      <trkpt lat="43.76966" lon="7.25869">
        <ele>727.79998779297</ele>
        <time>2020-02-22T13:27:39.000Z</time>
      </trkpt>
      <trkpt lat="43.76965" lon="7.25871">
        <ele>727.20001220703</ele>
        <time>2020-02-22T13:27:52.000Z</time>
      </trkpt>
      <trkpt lat="43.76964" lon="7.2587">
        <ele>727.20001220703</ele>
        <time>2020-02-22T13:28:14.000Z</time>
      </trkpt>
      <trkpt lat="43.76963" lon="7.25867">
        <ele>727.59997558594</ele>
        <time>2020-02-22T13:28:22.000Z</time>
      </trkpt>
      <trkpt lat="43.76959" lon="7.25858">
        <ele>728</ele>
        <time>2020-02-22T13:28:27.000Z</time>
      </trkpt>
      <trkpt lat="43.76955" lon="7.25853">
        <ele>728.40002441406</ele>
        <time>2020-02-22T13:28:31.000Z</time>
      </trkpt>
      <trkpt lat="43.76951" lon="7.25848">
        <ele>728.59997558594</ele>
        <time>2020-02-22T13:28:34.000Z</time>
      </trkpt>
      <trkpt lat="43.76943" lon="7.2584">
        <ele>729.20001220703</ele>
        <time>2020-02-22T13:28:38.000Z</time>
      </trkpt>
      <trkpt lat="43.76938" lon="7.25833">
        <ele>729.79998779297</ele>
        <time>2020-02-22T13:28:41.000Z</time>
      </trkpt>
      <trkpt lat="43.76935" lon="7.25829">
        <ele>730.59997558594</ele>
        <time>2020-02-22T13:28:44.000Z</time>
      </trkpt>
      <trkpt lat="43.76935" lon="7.2583">
        <ele>731</ele>
        <time>2020-02-22T13:28:45.000Z</time>
      </trkpt>
      <trkpt lat="43.76935" lon="7.25829">
        <ele>731.40002441406</ele>
        <time>2020-02-22T13:28:51.000Z</time>
      </trkpt>
      <trkpt lat="43.76934" lon="7.25827">
        <ele>731.40002441406</ele>
        <time>2020-02-22T13:28:56.000Z</time>
      </trkpt>
      <trkpt lat="43.76934" lon="7.25826">
        <ele>731.59997558594</ele>
        <time>2020-02-22T13:28:59.000Z</time>
      </trkpt>
      <trkpt lat="43.76933" lon="7.25824">
        <ele>731.59997558594</ele>
        <time>2020-02-22T13:29:01.000Z</time>
      </trkpt>
      <trkpt lat="43.76932" lon="7.25822">
        <ele>731.59997558594</ele>
        <time>2020-02-22T13:29:02.000Z</time>
      </trkpt>
      <trkpt lat="43.76927" lon="7.25813">
        <ele>732</ele>
        <time>2020-02-22T13:29:07.000Z</time>
      </trkpt>
      <trkpt lat="43.76925" lon="7.25808">
        <ele>732.20001220703</ele>
        <time>2020-02-22T13:29:09.000Z</time>
      </trkpt>
      <trkpt lat="43.76922" lon="7.25797">
        <ele>733</ele>
        <time>2020-02-22T13:29:13.000Z</time>
      </trkpt>
      <trkpt lat="43.76917" lon="7.25784">
        <ele>734</ele>
        <time>2020-02-22T13:29:18.000Z</time>
      </trkpt>
      <trkpt lat="43.76914" lon="7.2578">
        <ele>734.40002441406</ele>
        <time>2020-02-22T13:29:20.000Z</time>
      </trkpt>
      <trkpt lat="43.76911" lon="7.25774">
        <ele>735</ele>
        <time>2020-02-22T13:29:23.000Z</time>
      </trkpt>
      <trkpt lat="43.76905" lon="7.25766">
        <ele>735.79998779297</ele>
        <time>2020-02-22T13:29:27.000Z</time>
      </trkpt>
      <trkpt lat="43.76901" lon="7.25761">
        <ele>736.20001220703</ele>
        <time>2020-02-22T13:29:29.000Z</time>
      </trkpt>
      <trkpt lat="43.76893" lon="7.25751">
        <ele>737.40002441406</ele>
        <time>2020-02-22T13:29:34.000Z</time>
      </trkpt>
      <trkpt lat="43.76889" lon="7.25743">
        <ele>738</ele>
        <time>2020-02-22T13:29:37.000Z</time>
      </trkpt>
      <trkpt lat="43.76886" lon="7.25738">
        <ele>738.40002441406</ele>
        <time>2020-02-22T13:29:39.000Z</time>
      </trkpt>
      <trkpt lat="43.76881" lon="7.25727">
        <ele>739.59997558594</ele>
        <time>2020-02-22T13:29:43.000Z</time>
      </trkpt>
      <trkpt lat="43.76878" lon="7.25719">
        <ele>740.40002441406</ele>
        <time>2020-02-22T13:29:46.000Z</time>
      </trkpt>
      <trkpt lat="43.76876" lon="7.25713">
        <ele>740.79998779297</ele>
        <time>2020-02-22T13:29:48.000Z</time>
      </trkpt>
      <trkpt lat="43.7687" lon="7.25699">
        <ele>742</ele>
        <time>2020-02-22T13:29:53.000Z</time>
      </trkpt>
      <trkpt lat="43.76868" lon="7.25692">
        <ele>742.79998779297</ele>
        <time>2020-02-22T13:29:56.000Z</time>
      </trkpt>
      <trkpt lat="43.76866" lon="7.25686">
        <ele>743.40002441406</ele>
        <time>2020-02-22T13:29:58.000Z</time>
      </trkpt>
      <trkpt lat="43.76861" lon="7.25675">
        <ele>744.40002441406</ele>
        <time>2020-02-22T13:30:02.000Z</time>
      </trkpt>
      <trkpt lat="43.76858" lon="7.25664">
        <ele>745.40002441406</ele>
        <time>2020-02-22T13:30:06.000Z</time>
      </trkpt>
      <trkpt lat="43.76857" lon="7.25661">
        <ele>745.59997558594</ele>
        <time>2020-02-22T13:30:07.000Z</time>
      </trkpt>
      <trkpt lat="43.76853" lon="7.2565">
        <ele>746.79998779297</ele>
        <time>2020-02-22T13:30:11.000Z</time>
      </trkpt>
      <trkpt lat="43.76851" lon="7.25641">
        <ele>747.40002441406</ele>
        <time>2020-02-22T13:30:14.000Z</time>
      </trkpt>
      <trkpt lat="43.7685" lon="7.25635">
        <ele>748</ele>
        <time>2020-02-22T13:30:16.000Z</time>
      </trkpt>
      <trkpt lat="43.76846" lon="7.25622">
        <ele>749</ele>
        <time>2020-02-22T13:30:20.000Z</time>
      </trkpt>
      <trkpt lat="43.76843" lon="7.25605">
        <ele>750.20001220703</ele>
        <time>2020-02-22T13:30:25.000Z</time>
      </trkpt>
      <trkpt lat="43.76842" lon="7.25591">
        <ele>751.40002441406</ele>
        <time>2020-02-22T13:30:29.000Z</time>
      </trkpt>
      <trkpt lat="43.76843" lon="7.25578">
        <ele>752.40002441406</ele>
        <time>2020-02-22T13:30:33.000Z</time>
      </trkpt>
      <trkpt lat="43.76846" lon="7.25565">
        <ele>753.59997558594</ele>
        <time>2020-02-22T13:30:37.000Z</time>
      </trkpt>
      <trkpt lat="43.76849" lon="7.25551">
        <ele>754.79998779297</ele>
        <time>2020-02-22T13:30:41.000Z</time>
      </trkpt>
      <trkpt lat="43.76851" lon="7.25545">
        <ele>755.20001220703</ele>
        <time>2020-02-22T13:30:43.000Z</time>
      </trkpt>
      <trkpt lat="43.76853" lon="7.25539">
        <ele>756</ele>
        <time>2020-02-22T13:30:45.000Z</time>
      </trkpt>
      <trkpt lat="43.76858" lon="7.2553">
        <ele>757.20001220703</ele>
        <time>2020-02-22T13:30:49.000Z</time>
      </trkpt>
      <trkpt lat="43.7686" lon="7.25531">
        <ele>757.59997558594</ele>
        <time>2020-02-22T13:30:50.000Z</time>
      </trkpt>
      <trkpt lat="43.76861" lon="7.25538">
        <ele>758.20001220703</ele>
        <time>2020-02-22T13:30:53.000Z</time>
      </trkpt>
      <trkpt lat="43.7686" lon="7.25541">
        <ele>758.40002441406</ele>
        <time>2020-02-22T13:30:54.000Z</time>
      </trkpt>
      <trkpt lat="43.76858" lon="7.25554">
        <ele>759.20001220703</ele>
        <time>2020-02-22T13:30:59.000Z</time>
      </trkpt>
      <trkpt lat="43.76858" lon="7.2556">
        <ele>759.59997558594</ele>
        <time>2020-02-22T13:31:01.000Z</time>
      </trkpt>
      <trkpt lat="43.76857" lon="7.25568">
        <ele>760.40002441406</ele>
        <time>2020-02-22T13:31:04.000Z</time>
      </trkpt>
      <trkpt lat="43.76859" lon="7.2558">
        <ele>761.40002441406</ele>
        <time>2020-02-22T13:31:08.000Z</time>
      </trkpt>
      <trkpt lat="43.76863" lon="7.25594">
        <ele>762.40002441406</ele>
        <time>2020-02-22T13:31:13.000Z</time>
      </trkpt>
      <trkpt lat="43.76869" lon="7.25606">
        <ele>763.59997558594</ele>
        <time>2020-02-22T13:31:18.000Z</time>
      </trkpt>
      <trkpt lat="43.76875" lon="7.25615">
        <ele>764.79998779297</ele>
        <time>2020-02-22T13:31:22.000Z</time>
      </trkpt>
      <trkpt lat="43.76882" lon="7.25624">
        <ele>765.79998779297</ele>
        <time>2020-02-22T13:31:26.000Z</time>
      </trkpt>
      <trkpt lat="43.76883" lon="7.25627">
        <ele>766.20001220703</ele>
        <time>2020-02-22T13:31:27.000Z</time>
      </trkpt>
      <trkpt lat="43.76888" lon="7.25633">
        <ele>767</ele>
        <time>2020-02-22T13:31:30.000Z</time>
      </trkpt>
      <trkpt lat="43.76895" lon="7.25642">
        <ele>767.79998779297</ele>
        <time>2020-02-22T13:31:34.000Z</time>
      </trkpt>
      <trkpt lat="43.76896" lon="7.25644">
        <ele>768</ele>
        <time>2020-02-22T13:31:35.000Z</time>
      </trkpt>
      <trkpt lat="43.76904" lon="7.25654">
        <ele>769.20001220703</ele>
        <time>2020-02-22T13:31:40.000Z</time>
      </trkpt>
      <trkpt lat="43.76911" lon="7.25663">
        <ele>770.40002441406</ele>
        <time>2020-02-22T13:31:44.000Z</time>
      </trkpt>
      <trkpt lat="43.76917" lon="7.25673">
        <ele>771.40002441406</ele>
        <time>2020-02-22T13:31:48.000Z</time>
      </trkpt>
      <trkpt lat="43.76923" lon="7.25683">
        <ele>772.40002441406</ele>
        <time>2020-02-22T13:31:52.000Z</time>
      </trkpt>
      <trkpt lat="43.76929" lon="7.25694">
        <ele>773.59997558594</ele>
        <time>2020-02-22T13:31:56.000Z</time>
      </trkpt>
      <trkpt lat="43.76935" lon="7.257">
        <ele>774.59997558594</ele>
        <time>2020-02-22T13:31:59.000Z</time>
      </trkpt>
      <trkpt lat="43.76937" lon="7.257">
        <ele>774.79998779297</ele>
        <time>2020-02-22T13:32:00.000Z</time>
      </trkpt>
      <trkpt lat="43.76937" lon="7.25691">
        <ele>775.40002441406</ele>
        <time>2020-02-22T13:32:03.000Z</time>
      </trkpt>
      <trkpt lat="43.76935" lon="7.25685">
        <ele>776</ele>
        <time>2020-02-22T13:32:05.000Z</time>
      </trkpt>
      <trkpt lat="43.76933" lon="7.25679">
        <ele>776.40002441406</ele>
        <time>2020-02-22T13:32:07.000Z</time>
      </trkpt>
      <trkpt lat="43.76931" lon="7.25673">
        <ele>777</ele>
        <time>2020-02-22T13:32:09.000Z</time>
      </trkpt>
      <trkpt lat="43.76926" lon="7.25661">
        <ele>778</ele>
        <time>2020-02-22T13:32:13.000Z</time>
      </trkpt>
      <trkpt lat="43.76922" lon="7.2565">
        <ele>779.20001220703</ele>
        <time>2020-02-22T13:32:17.000Z</time>
      </trkpt>
      <trkpt lat="43.7692" lon="7.25642">
        <ele>780</ele>
        <time>2020-02-22T13:32:20.000Z</time>
      </trkpt>
      <trkpt lat="43.76919" lon="7.25639">
        <ele>780.40002441406</ele>
        <time>2020-02-22T13:32:21.000Z</time>
      </trkpt>
      <trkpt lat="43.76914" lon="7.25625">
        <ele>781.59997558594</ele>
        <time>2020-02-22T13:32:26.000Z</time>
      </trkpt>
      <trkpt lat="43.76911" lon="7.25617">
        <ele>782.20001220703</ele>
        <time>2020-02-22T13:32:29.000Z</time>
      </trkpt>
      <trkpt lat="43.7691" lon="7.25611">
        <ele>782.79998779297</ele>
        <time>2020-02-22T13:32:31.000Z</time>
      </trkpt>
      <trkpt lat="43.76906" lon="7.25599">
        <ele>783.79998779297</ele>
        <time>2020-02-22T13:32:35.000Z</time>
      </trkpt>
      <trkpt lat="43.76902" lon="7.25591">
        <ele>784.40002441406</ele>
        <time>2020-02-22T13:32:38.000Z</time>
      </trkpt>
      <trkpt lat="43.769" lon="7.25586">
        <ele>784.79998779297</ele>
        <time>2020-02-22T13:32:40.000Z</time>
      </trkpt>
      <trkpt lat="43.76898" lon="7.25573">
        <ele>785.79998779297</ele>
        <time>2020-02-22T13:32:44.000Z</time>
      </trkpt>
      <trkpt lat="43.76899" lon="7.25572">
        <ele>785.79998779297</ele>
        <time>2020-02-22T13:32:45.000Z</time>
      </trkpt>
      <trkpt lat="43.76901" lon="7.25572">
        <ele>786</ele>
        <time>2020-02-22T13:32:46.000Z</time>
      </trkpt>
      <trkpt lat="43.76904" lon="7.25576">
        <ele>786.59997558594</ele>
        <time>2020-02-22T13:32:48.000Z</time>
      </trkpt>
      <trkpt lat="43.76907" lon="7.25581">
        <ele>787</ele>
        <time>2020-02-22T13:32:50.000Z</time>
      </trkpt>
      <trkpt lat="43.76908" lon="7.25584">
        <ele>787.20001220703</ele>
        <time>2020-02-22T13:32:51.000Z</time>
      </trkpt>
      <trkpt lat="43.76915" lon="7.25596">
        <ele>788.20001220703</ele>
        <time>2020-02-22T13:32:56.000Z</time>
      </trkpt>
      <trkpt lat="43.76924" lon="7.25609">
        <ele>789.40002441406</ele>
        <time>2020-02-22T13:33:01.000Z</time>
      </trkpt>
      <trkpt lat="43.76931" lon="7.25618">
        <ele>790.40002441406</ele>
        <time>2020-02-22T13:33:05.000Z</time>
      </trkpt>
      <trkpt lat="43.76937" lon="7.25627">
        <ele>791.59997558594</ele>
        <time>2020-02-22T13:33:09.000Z</time>
      </trkpt>
      <trkpt lat="43.76942" lon="7.25633">
        <ele>792.40002441406</ele>
        <time>2020-02-22T13:33:12.000Z</time>
      </trkpt>
      <trkpt lat="43.76944" lon="7.25635">
        <ele>792.59997558594</ele>
        <time>2020-02-22T13:33:13.000Z</time>
      </trkpt>
      <trkpt lat="43.7695" lon="7.25643">
        <ele>793.79998779297</ele>
        <time>2020-02-22T13:33:17.000Z</time>
      </trkpt>
      <trkpt lat="43.76956" lon="7.25651">
        <ele>795</ele>
        <time>2020-02-22T13:33:21.000Z</time>
      </trkpt>
      <trkpt lat="43.76962" lon="7.25662">
        <ele>796</ele>
        <time>2020-02-22T13:33:26.000Z</time>
      </trkpt>
      <trkpt lat="43.76965" lon="7.25667">
        <ele>796.59997558594</ele>
        <time>2020-02-22T13:33:28.000Z</time>
      </trkpt>
      <trkpt lat="43.76968" lon="7.25669">
        <ele>797</ele>
        <time>2020-02-22T13:33:30.000Z</time>
      </trkpt>
      <trkpt lat="43.7697" lon="7.25669">
        <ele>797.20001220703</ele>
        <time>2020-02-22T13:33:31.000Z</time>
      </trkpt>
      <trkpt lat="43.76971" lon="7.25667">
        <ele>797.40002441406</ele>
        <time>2020-02-22T13:33:32.000Z</time>
      </trkpt>
      <trkpt lat="43.76969" lon="7.25659">
        <ele>797.79998779297</ele>
        <time>2020-02-22T13:33:35.000Z</time>
      </trkpt>
      <trkpt lat="43.76967" lon="7.25654">
        <ele>798</ele>
        <time>2020-02-22T13:33:37.000Z</time>
      </trkpt>
      <trkpt lat="43.76966" lon="7.25652">
        <ele>798.20001220703</ele>
        <time>2020-02-22T13:33:38.000Z</time>
      </trkpt>
      <trkpt lat="43.76961" lon="7.25639">
        <ele>799.40002441406</ele>
        <time>2020-02-22T13:33:43.000Z</time>
      </trkpt>
      <trkpt lat="43.7696" lon="7.25636">
        <ele>799.40002441406</ele>
        <time>2020-02-22T13:33:44.000Z</time>
      </trkpt>
      <trkpt lat="43.76954" lon="7.25621">
        <ele>800.40002441406</ele>
        <time>2020-02-22T13:33:49.000Z</time>
      </trkpt>
      <trkpt lat="43.76948" lon="7.25606">
        <ele>801.40002441406</ele>
        <time>2020-02-22T13:33:54.000Z</time>
      </trkpt>
      <trkpt lat="43.76943" lon="7.25594">
        <ele>802.40002441406</ele>
        <time>2020-02-22T13:33:58.000Z</time>
      </trkpt>
      <trkpt lat="43.76936" lon="7.25578">
        <ele>803.40002441406</ele>
        <time>2020-02-22T13:34:03.000Z</time>
      </trkpt>
      <trkpt lat="43.76936" lon="7.25576">
        <ele>803.59997558594</ele>
        <time>2020-02-22T13:34:04.000Z</time>
      </trkpt>
      <trkpt lat="43.76932" lon="7.25563">
        <ele>804.59997558594</ele>
        <time>2020-02-22T13:34:08.000Z</time>
      </trkpt>
      <trkpt lat="43.76932" lon="7.25559">
        <ele>804.79998779297</ele>
        <time>2020-02-22T13:34:09.000Z</time>
      </trkpt>
      <trkpt lat="43.76934" lon="7.25557">
        <ele>805</ele>
        <time>2020-02-22T13:34:10.000Z</time>
      </trkpt>
      <trkpt lat="43.7694" lon="7.25563">
        <ele>805.20001220703</ele>
        <time>2020-02-22T13:34:13.000Z</time>
      </trkpt>
      <trkpt lat="43.76942" lon="7.25569">
        <ele>805.59997558594</ele>
        <time>2020-02-22T13:34:15.000Z</time>
      </trkpt>
      <trkpt lat="43.76948" lon="7.2558">
        <ele>806.59997558594</ele>
        <time>2020-02-22T13:34:19.000Z</time>
      </trkpt>
      <trkpt lat="43.7695" lon="7.25583">
        <ele>807</ele>
        <time>2020-02-22T13:34:20.000Z</time>
      </trkpt>
      <trkpt lat="43.76956" lon="7.2559">
        <ele>808</ele>
        <time>2020-02-22T13:34:23.000Z</time>
      </trkpt>
      <trkpt lat="43.76963" lon="7.25598">
        <ele>809.20001220703</ele>
        <time>2020-02-22T13:34:27.000Z</time>
      </trkpt>
      <trkpt lat="43.7697" lon="7.25608">
        <ele>810.20001220703</ele>
        <time>2020-02-22T13:34:31.000Z</time>
      </trkpt>
      <trkpt lat="43.76978" lon="7.2562">
        <ele>811.40002441406</ele>
        <time>2020-02-22T13:34:36.000Z</time>
      </trkpt>
      <trkpt lat="43.76984" lon="7.25629">
        <ele>812.59997558594</ele>
        <time>2020-02-22T13:34:40.000Z</time>
      </trkpt>
      <trkpt lat="43.76988" lon="7.2563">
        <ele>813</ele>
        <time>2020-02-22T13:34:42.000Z</time>
      </trkpt>
      <trkpt lat="43.76987" lon="7.25622">
        <ele>813.40002441406</ele>
        <time>2020-02-22T13:34:45.000Z</time>
      </trkpt>
      <trkpt lat="43.76986" lon="7.2562">
        <ele>813.59997558594</ele>
        <time>2020-02-22T13:34:46.000Z</time>
      </trkpt>
      <trkpt lat="43.76984" lon="7.25618">
        <ele>813.79998779297</ele>
        <time>2020-02-22T13:34:47.000Z</time>
      </trkpt>
      <trkpt lat="43.76978" lon="7.25605">
        <ele>814.79998779297</ele>
        <time>2020-02-22T13:34:52.000Z</time>
      </trkpt>
      <trkpt lat="43.76975" lon="7.256">
        <ele>815.20001220703</ele>
        <time>2020-02-22T13:34:54.000Z</time>
      </trkpt>
      <trkpt lat="43.76972" lon="7.25591">
        <ele>816</ele>
        <time>2020-02-22T13:34:57.000Z</time>
      </trkpt>
      <trkpt lat="43.76967" lon="7.25576">
        <ele>817</ele>
        <time>2020-02-22T13:35:02.000Z</time>
      </trkpt>
      <trkpt lat="43.76966" lon="7.25574">
        <ele>817.20001220703</ele>
        <time>2020-02-22T13:35:03.000Z</time>
      </trkpt>
      <trkpt lat="43.76962" lon="7.25557">
        <ele>818.20001220703</ele>
        <time>2020-02-22T13:35:09.000Z</time>
      </trkpt>
      <trkpt lat="43.76962" lon="7.25554">
        <ele>818.40002441406</ele>
        <time>2020-02-22T13:35:10.000Z</time>
      </trkpt>
      <trkpt lat="43.76961" lon="7.25547">
        <ele>819.20001220703</ele>
        <time>2020-02-22T13:35:12.000Z</time>
      </trkpt>
      <trkpt lat="43.76961" lon="7.25538">
        <ele>820.20001220703</ele>
        <time>2020-02-22T13:35:15.000Z</time>
      </trkpt>
      <trkpt lat="43.7696" lon="7.25524">
        <ele>821</ele>
        <time>2020-02-22T13:35:19.000Z</time>
      </trkpt>
      <trkpt lat="43.76961" lon="7.25516">
        <ele>821.20001220703</ele>
        <time>2020-02-22T13:35:21.000Z</time>
      </trkpt>
      <trkpt lat="43.76964" lon="7.25497">
        <ele>821.40002441406</ele>
        <time>2020-02-22T13:35:26.000Z</time>
      </trkpt>
      <trkpt lat="43.76968" lon="7.25478">
        <ele>822</ele>
        <time>2020-02-22T13:35:31.000Z</time>
      </trkpt>
      <trkpt lat="43.76971" lon="7.25467">
        <ele>822.40002441406</ele>
        <time>2020-02-22T13:35:34.000Z</time>
      </trkpt>
      <trkpt lat="43.76978" lon="7.25447">
        <ele>823.40002441406</ele>
        <time>2020-02-22T13:35:40.000Z</time>
      </trkpt>
      <trkpt lat="43.7698" lon="7.25444">
        <ele>823.59997558594</ele>
        <time>2020-02-22T13:35:41.000Z</time>
      </trkpt>
      <trkpt lat="43.76987" lon="7.25434">
        <ele>824.59997558594</ele>
        <time>2020-02-22T13:35:45.000Z</time>
      </trkpt>
      <trkpt lat="43.76991" lon="7.25425">
        <ele>825.40002441406</ele>
        <time>2020-02-22T13:35:48.000Z</time>
      </trkpt>
      <trkpt lat="43.76993" lon="7.25422">
        <ele>825.79998779297</ele>
        <time>2020-02-22T13:35:49.000Z</time>
      </trkpt>
      <trkpt lat="43.76998" lon="7.25411">
        <ele>827</ele>
        <time>2020-02-22T13:35:53.000Z</time>
      </trkpt>
      <trkpt lat="43.77" lon="7.25406">
        <ele>827.59997558594</ele>
        <time>2020-02-22T13:35:55.000Z</time>
      </trkpt>
      <trkpt lat="43.77002" lon="7.25402">
        <ele>828</ele>
        <time>2020-02-22T13:35:57.000Z</time>
      </trkpt>
      <trkpt lat="43.77008" lon="7.25392">
        <ele>829.20001220703</ele>
        <time>2020-02-22T13:36:02.000Z</time>
      </trkpt>
      <trkpt lat="43.77009" lon="7.25391">
        <ele>829.59997558594</ele>
        <time>2020-02-22T13:36:03.000Z</time>
      </trkpt>
      <trkpt lat="43.7701" lon="7.2539">
        <ele>829.79998779297</ele>
        <time>2020-02-22T13:36:04.000Z</time>
      </trkpt>
      <trkpt lat="43.77013" lon="7.25389">
        <ele>830.40002441406</ele>
        <time>2020-02-22T13:36:07.000Z</time>
      </trkpt>
      <trkpt lat="43.77014" lon="7.25387">
        <ele>830.40002441406</ele>
        <time>2020-02-22T13:36:08.000Z</time>
      </trkpt>
      <trkpt lat="43.77022" lon="7.25378">
        <ele>831</ele>
        <time>2020-02-22T13:36:14.000Z</time>
      </trkpt>
      <trkpt lat="43.77023" lon="7.25379">
        <ele>831.40002441406</ele>
        <time>2020-02-22T13:36:15.000Z</time>
      </trkpt>
      <trkpt lat="43.77023" lon="7.25382">
        <ele>831.40002441406</ele>
        <time>2020-02-22T13:36:16.000Z</time>
      </trkpt>
      <trkpt lat="43.7702" lon="7.25385">
        <ele>831.79998779297</ele>
        <time>2020-02-22T13:36:18.000Z</time>
      </trkpt>
      <trkpt lat="43.77017" lon="7.2539">
        <ele>832.20001220703</ele>
        <time>2020-02-22T13:36:20.000Z</time>
      </trkpt>
      <trkpt lat="43.77014" lon="7.25395">
        <ele>832.59997558594</ele>
        <time>2020-02-22T13:36:22.000Z</time>
      </trkpt>
      <trkpt lat="43.77011" lon="7.25403">
        <ele>833</ele>
        <time>2020-02-22T13:36:25.000Z</time>
      </trkpt>
      <trkpt lat="43.77006" lon="7.25416">
        <ele>833.79998779297</ele>
        <time>2020-02-22T13:36:29.000Z</time>
      </trkpt>
      <trkpt lat="43.77003" lon="7.25428">
        <ele>834.59997558594</ele>
        <time>2020-02-22T13:36:33.000Z</time>
      </trkpt>
      <trkpt lat="43.77002" lon="7.25431">
        <ele>834.79998779297</ele>
        <time>2020-02-22T13:36:34.000Z</time>
      </trkpt>
      <trkpt lat="43.76994" lon="7.25446">
        <ele>836</ele>
        <time>2020-02-22T13:36:39.000Z</time>
      </trkpt>
      <trkpt lat="43.76991" lon="7.25452">
        <ele>836.40002441406</ele>
        <time>2020-02-22T13:36:41.000Z</time>
      </trkpt>
      <trkpt lat="43.76989" lon="7.25462">
        <ele>837.20001220703</ele>
        <time>2020-02-22T13:36:44.000Z</time>
      </trkpt>
      <trkpt lat="43.76988" lon="7.25472">
        <ele>838.20001220703</ele>
        <time>2020-02-22T13:36:47.000Z</time>
      </trkpt>
      <trkpt lat="43.76988" lon="7.25476">
        <ele>838.59997558594</ele>
        <time>2020-02-22T13:36:48.000Z</time>
      </trkpt>
      <trkpt lat="43.76988" lon="7.25485">
        <ele>839.40002441406</ele>
        <time>2020-02-22T13:36:52.000Z</time>
      </trkpt>
      <trkpt lat="43.76989" lon="7.25487">
        <ele>839.59997558594</ele>
        <time>2020-02-22T13:36:54.000Z</time>
      </trkpt>
      <trkpt lat="43.7699" lon="7.25488">
        <ele>840</ele>
        <time>2020-02-22T13:36:56.000Z</time>
      </trkpt>
      <trkpt lat="43.76992" lon="7.25488">
        <ele>840</ele>
        <time>2020-02-22T13:36:58.000Z</time>
      </trkpt>
      <trkpt lat="43.76992" lon="7.25485">
        <ele>840.20001220703</ele>
        <time>2020-02-22T13:37:03.000Z</time>
      </trkpt>
      <trkpt lat="43.76988" lon="7.2549">
        <ele>840</ele>
        <time>2020-02-22T13:37:09.000Z</time>
      </trkpt>
      <trkpt lat="43.7699" lon="7.25492">
        <ele>840.20001220703</ele>
        <time>2020-02-22T13:37:12.000Z</time>
      </trkpt>
      <trkpt lat="43.7699" lon="7.25493">
        <ele>840.20001220703</ele>
        <time>2020-02-22T13:37:14.000Z</time>
      </trkpt>
      <trkpt lat="43.76992" lon="7.25492">
        <ele>840.40002441406</ele>
        <time>2020-02-22T13:37:18.000Z</time>
      </trkpt>
      <trkpt lat="43.76993" lon="7.25491">
        <ele>840.40002441406</ele>
        <time>2020-02-22T13:37:19.000Z</time>
      </trkpt>
      <trkpt lat="43.76994" lon="7.25481">
        <ele>840.20001220703</ele>
        <time>2020-02-22T13:37:24.000Z</time>
      </trkpt>
      <trkpt lat="43.76993" lon="7.25479">
        <ele>840.40002441406</ele>
        <time>2020-02-22T13:37:26.000Z</time>
      </trkpt>
      <trkpt lat="43.76993" lon="7.25479">
        <ele>840.79998779297</ele>
        <time>2020-02-22T13:37:28.000Z</time>
      </trkpt>
      <trkpt lat="43.76992" lon="7.25483">
        <ele>840.79998779297</ele>
        <time>2020-02-22T13:37:35.000Z</time>
      </trkpt>
      <trkpt lat="43.76992" lon="7.25483">
        <ele>840.79998779297</ele>
        <time>2020-02-22T13:37:58.000Z</time>
      </trkpt>
      <trkpt lat="43.76991" lon="7.25489">
        <ele>840.59997558594</ele>
        <time>2020-02-22T13:38:08.000Z</time>
      </trkpt>
      <trkpt lat="43.76991" lon="7.25502">
        <ele>840.59997558594</ele>
        <time>2020-02-22T13:38:12.000Z</time>
      </trkpt>
      <trkpt lat="43.76993" lon="7.25503">
        <ele>841</ele>
        <time>2020-02-22T13:38:14.000Z</time>
      </trkpt>
      <trkpt lat="43.76993" lon="7.25503">
        <ele>841.79998779297</ele>
        <time>2020-02-22T13:38:16.000Z</time>
      </trkpt>
      <trkpt lat="43.76993" lon="7.25506">
        <ele>842.79998779297</ele>
        <time>2020-02-22T13:38:19.000Z</time>
      </trkpt>
      <trkpt lat="43.76993" lon="7.25507">
        <ele>843.40002441406</ele>
        <time>2020-02-22T13:38:24.000Z</time>
      </trkpt>
      <trkpt lat="43.76993" lon="7.25507">
        <ele>843.79998779297</ele>
        <time>2020-02-22T13:38:27.000Z</time>
      </trkpt>
      <trkpt lat="43.76993" lon="7.25509">
        <ele>844.40002441406</ele>
        <time>2020-02-22T13:38:31.000Z</time>
      </trkpt>
      <trkpt lat="43.76994" lon="7.25511">
        <ele>844.79998779297</ele>
        <time>2020-02-22T13:38:35.000Z</time>
      </trkpt>
      <trkpt lat="43.76994" lon="7.25511">
        <ele>845.20001220703</ele>
        <time>2020-02-22T13:38:39.000Z</time>
      </trkpt>
      <trkpt lat="43.76994" lon="7.25512">
        <ele>845.40002441406</ele>
        <time>2020-02-22T13:38:51.000Z</time>
      </trkpt>
      <trkpt lat="43.76994" lon="7.25511">
        <ele>845.40002441406</ele>
        <time>2020-02-22T13:39:10.000Z</time>
      </trkpt>
      <trkpt lat="43.76994" lon="7.25511">
        <ele>845.79998779297</ele>
        <time>2020-02-22T13:39:28.000Z</time>
      </trkpt>
      <trkpt lat="43.76994" lon="7.25511">
        <ele>845.40002441406</ele>
        <time>2020-02-22T13:39:41.000Z</time>
      </trkpt>
      <trkpt lat="43.76995" lon="7.25512">
        <ele>845.20001220703</ele>
        <time>2020-02-22T13:40:02.000Z</time>
      </trkpt>
      <trkpt lat="43.76995" lon="7.25512">
        <ele>845</ele>
        <time>2020-02-22T13:40:24.000Z</time>
      </trkpt>
      <trkpt lat="43.76995" lon="7.25512">
        <ele>845.20001220703</ele>
        <time>2020-02-22T13:40:44.000Z</time>
      </trkpt>
      <trkpt lat="43.76995" lon="7.25513">
        <ele>845</ele>
        <time>2020-02-22T13:41:20.000Z</time>
      </trkpt>
      <trkpt lat="43.76995" lon="7.25513">
        <ele>844.79998779297</ele>
        <time>2020-02-22T13:41:54.000Z</time>
      </trkpt>
      <trkpt lat="43.76997" lon="7.25514">
        <ele>845</ele>
        <time>2020-02-22T13:42:01.000Z</time>
      </trkpt>
      <trkpt lat="43.76998" lon="7.25514">
        <ele>845.20001220703</ele>
        <time>2020-02-22T13:42:12.000Z</time>
      </trkpt>
      <trkpt lat="43.76998" lon="7.25515">
        <ele>845.20001220703</ele>
        <time>2020-02-22T13:42:27.000Z</time>
      </trkpt>
      <trkpt lat="43.76998" lon="7.25516">
        <ele>845.40002441406</ele>
        <time>2020-02-22T13:42:48.000Z</time>
      </trkpt>
      <trkpt lat="43.76998" lon="7.25515">
        <ele>845.40002441406</ele>
        <time>2020-02-22T13:43:10.000Z</time>
      </trkpt>
      <trkpt lat="43.76998" lon="7.25516">
        <ele>845.40002441406</ele>
        <time>2020-02-22T13:43:31.000Z</time>
      </trkpt>
      <trkpt lat="43.76997" lon="7.25517">
        <ele>845.20001220703</ele>
        <time>2020-02-22T13:44:00.000Z</time>
      </trkpt>
      <trkpt lat="43.76998" lon="7.25517">
        <ele>845.40002441406</ele>
        <time>2020-02-22T13:44:10.000Z</time>
      </trkpt>
      <trkpt lat="43.77001" lon="7.25519">
        <ele>845.40002441406</ele>
        <time>2020-02-22T13:44:16.000Z</time>
      </trkpt>
      <trkpt lat="43.77002" lon="7.25521">
        <ele>845.59997558594</ele>
        <time>2020-02-22T13:44:18.000Z</time>
      </trkpt>
      <trkpt lat="43.77004" lon="7.25527">
        <ele>845.59997558594</ele>
        <time>2020-02-22T13:44:21.000Z</time>
      </trkpt>
      <trkpt lat="43.77005" lon="7.25533">
        <ele>845.40002441406</ele>
        <time>2020-02-22T13:44:23.000Z</time>
      </trkpt>
      <trkpt lat="43.77006" lon="7.25537">
        <ele>844.79998779297</ele>
        <time>2020-02-22T13:44:25.000Z</time>
      </trkpt>
      <trkpt lat="43.77008" lon="7.25545">
        <ele>843.79998779297</ele>
        <time>2020-02-22T13:44:27.000Z</time>
      </trkpt>
      <trkpt lat="43.77007" lon="7.25549">
        <ele>843</ele>
        <time>2020-02-22T13:44:28.000Z</time>
      </trkpt>
      <trkpt lat="43.77005" lon="7.25551">
        <ele>842.40002441406</ele>
        <time>2020-02-22T13:44:29.000Z</time>
      </trkpt>
      <trkpt lat="43.77003" lon="7.25556">
        <ele>841.20001220703</ele>
        <time>2020-02-22T13:44:31.000Z</time>
      </trkpt>
      <trkpt lat="43.77001" lon="7.25561">
        <ele>839.59997558594</ele>
        <time>2020-02-22T13:44:33.000Z</time>
      </trkpt>
      <trkpt lat="43.77002" lon="7.25564">
        <ele>839</ele>
        <time>2020-02-22T13:44:34.000Z</time>
      </trkpt>
      <trkpt lat="43.77005" lon="7.25572">
        <ele>838</ele>
        <time>2020-02-22T13:44:36.000Z</time>
      </trkpt>
      <trkpt lat="43.77007" lon="7.25575">
        <ele>837.20001220703</ele>
        <time>2020-02-22T13:44:37.000Z</time>
      </trkpt>
      <trkpt lat="43.77011" lon="7.25577">
        <ele>836.40002441406</ele>
        <time>2020-02-22T13:44:38.000Z</time>
      </trkpt>
      <trkpt lat="43.77019" lon="7.25578">
        <ele>834.79998779297</ele>
        <time>2020-02-22T13:44:40.000Z</time>
      </trkpt>
      <trkpt lat="43.77024" lon="7.25576">
        <ele>833.59997558594</ele>
        <time>2020-02-22T13:44:41.000Z</time>
      </trkpt>
      <trkpt lat="43.77033" lon="7.25573">
        <ele>831.79998779297</ele>
        <time>2020-02-22T13:44:43.000Z</time>
      </trkpt>
      <trkpt lat="43.77036" lon="7.25571">
        <ele>831.20001220703</ele>
        <time>2020-02-22T13:44:44.000Z</time>
      </trkpt>
      <trkpt lat="43.7704" lon="7.2557">
        <ele>830.59997558594</ele>
        <time>2020-02-22T13:44:45.000Z</time>
      </trkpt>
      <trkpt lat="43.77044" lon="7.25568">
        <ele>830.20001220703</ele>
        <time>2020-02-22T13:44:46.000Z</time>
      </trkpt>
      <trkpt lat="43.77056" lon="7.25564">
        <ele>829.79998779297</ele>
        <time>2020-02-22T13:44:49.000Z</time>
      </trkpt>
      <trkpt lat="43.77065" lon="7.25561">
        <ele>829.59997558594</ele>
        <time>2020-02-22T13:44:51.000Z</time>
      </trkpt>
      <trkpt lat="43.77072" lon="7.25563">
        <ele>829.20001220703</ele>
        <time>2020-02-22T13:44:53.000Z</time>
      </trkpt>
      <trkpt lat="43.77077" lon="7.25564">
        <ele>829</ele>
        <time>2020-02-22T13:44:54.000Z</time>
      </trkpt>
      <trkpt lat="43.77082" lon="7.25564">
        <ele>828.20001220703</ele>
        <time>2020-02-22T13:44:55.000Z</time>
      </trkpt>
      <trkpt lat="43.77095" lon="7.25565">
        <ele>826.40002441406</ele>
        <time>2020-02-22T13:44:57.000Z</time>
      </trkpt>
      <trkpt lat="43.77101" lon="7.25565">
        <ele>825.40002441406</ele>
        <time>2020-02-22T13:44:58.000Z</time>
      </trkpt>
      <trkpt lat="43.77114" lon="7.25562">
        <ele>823.40002441406</ele>
        <time>2020-02-22T13:45:00.000Z</time>
      </trkpt>
      <trkpt lat="43.7712" lon="7.2556">
        <ele>822.59997558594</ele>
        <time>2020-02-22T13:45:01.000Z</time>
      </trkpt>
      <trkpt lat="43.77125" lon="7.25557">
        <ele>821.59997558594</ele>
        <time>2020-02-22T13:45:02.000Z</time>
      </trkpt>
      <trkpt lat="43.77134" lon="7.25552">
        <ele>820</ele>
        <time>2020-02-22T13:45:04.000Z</time>
      </trkpt>
      <trkpt lat="43.77139" lon="7.25551">
        <ele>820</ele>
        <time>2020-02-22T13:45:05.000Z</time>
      </trkpt>
      <trkpt lat="43.77151" lon="7.25549">
        <ele>819.59997558594</ele>
        <time>2020-02-22T13:45:07.000Z</time>
      </trkpt>
      <trkpt lat="43.77161" lon="7.25545">
        <ele>819</ele>
        <time>2020-02-22T13:45:09.000Z</time>
      </trkpt>
      <trkpt lat="43.77165" lon="7.25543">
        <ele>818.59997558594</ele>
        <time>2020-02-22T13:45:10.000Z</time>
      </trkpt>
      <trkpt lat="43.77169" lon="7.25539">
        <ele>818.20001220703</ele>
        <time>2020-02-22T13:45:11.000Z</time>
      </trkpt>
      <trkpt lat="43.77174" lon="7.2554">
        <ele>818</ele>
        <time>2020-02-22T13:45:12.000Z</time>
      </trkpt>
      <trkpt lat="43.77177" lon="7.25543">
        <ele>817.79998779297</ele>
        <time>2020-02-22T13:45:13.000Z</time>
      </trkpt>
      <trkpt lat="43.77188" lon="7.25542">
        <ele>817.20001220703</ele>
        <time>2020-02-22T13:45:16.000Z</time>
      </trkpt>
      <trkpt lat="43.77192" lon="7.25541">
        <ele>816.79998779297</ele>
        <time>2020-02-22T13:45:17.000Z</time>
      </trkpt>
      <trkpt lat="43.772" lon="7.2554">
        <ele>816.20001220703</ele>
        <time>2020-02-22T13:45:19.000Z</time>
      </trkpt>
      <trkpt lat="43.77206" lon="7.25536">
        <ele>816</ele>
        <time>2020-02-22T13:45:21.000Z</time>
      </trkpt>
      <trkpt lat="43.7721" lon="7.25536">
        <ele>815.79998779297</ele>
        <time>2020-02-22T13:45:22.000Z</time>
      </trkpt>
      <trkpt lat="43.77221" lon="7.25533">
        <ele>814.59997558594</ele>
        <time>2020-02-22T13:45:25.000Z</time>
      </trkpt>
      <trkpt lat="43.77226" lon="7.25533">
        <ele>813.20001220703</ele>
        <time>2020-02-22T13:45:27.000Z</time>
      </trkpt>
      <trkpt lat="43.77227" lon="7.25534">
        <ele>812.40002441406</ele>
        <time>2020-02-22T13:45:28.000Z</time>
      </trkpt>
      <trkpt lat="43.77228" lon="7.25537">
        <ele>812</ele>
        <time>2020-02-22T13:45:29.000Z</time>
      </trkpt>
      <trkpt lat="43.7723" lon="7.25541">
        <ele>810.59997558594</ele>
        <time>2020-02-22T13:45:31.000Z</time>
      </trkpt>
      <trkpt lat="43.77232" lon="7.25542">
        <ele>809.59997558594</ele>
        <time>2020-02-22T13:45:32.000Z</time>
      </trkpt>
      <trkpt lat="43.77234" lon="7.25542">
        <ele>809.20001220703</ele>
        <time>2020-02-22T13:45:33.000Z</time>
      </trkpt>
      <trkpt lat="43.77239" lon="7.25543">
        <ele>807.20001220703</ele>
        <time>2020-02-22T13:45:35.000Z</time>
      </trkpt>
      <trkpt lat="43.77242" lon="7.25541">
        <ele>806.79998779297</ele>
        <time>2020-02-22T13:45:36.000Z</time>
      </trkpt>
      <trkpt lat="43.77245" lon="7.25542">
        <ele>805.79998779297</ele>
        <time>2020-02-22T13:45:37.000Z</time>
      </trkpt>
      <trkpt lat="43.77248" lon="7.25542">
        <ele>805</ele>
        <time>2020-02-22T13:45:38.000Z</time>
      </trkpt>
      <trkpt lat="43.77251" lon="7.25543">
        <ele>804.20001220703</ele>
        <time>2020-02-22T13:45:39.000Z</time>
      </trkpt>
      <trkpt lat="43.77251" lon="7.25546">
        <ele>803.40002441406</ele>
        <time>2020-02-22T13:45:40.000Z</time>
      </trkpt>
      <trkpt lat="43.77252" lon="7.2555">
        <ele>802.40002441406</ele>
        <time>2020-02-22T13:45:41.000Z</time>
      </trkpt>
      <trkpt lat="43.77253" lon="7.25558">
        <ele>801</ele>
        <time>2020-02-22T13:45:43.000Z</time>
      </trkpt>
      <trkpt lat="43.77253" lon="7.25561">
        <ele>800</ele>
        <time>2020-02-22T13:45:44.000Z</time>
      </trkpt>
      <trkpt lat="43.77249" lon="7.25567">
        <ele>798.59997558594</ele>
        <time>2020-02-22T13:45:46.000Z</time>
      </trkpt>
      <trkpt lat="43.77251" lon="7.25573">
        <ele>797.59997558594</ele>
        <time>2020-02-22T13:45:48.000Z</time>
      </trkpt>
      <trkpt lat="43.77253" lon="7.25575">
        <ele>796.59997558594</ele>
        <time>2020-02-22T13:45:49.000Z</time>
      </trkpt>
      <trkpt lat="43.77255" lon="7.25576">
        <ele>796</ele>
        <time>2020-02-22T13:45:50.000Z</time>
      </trkpt>
      <trkpt lat="43.77258" lon="7.25576">
        <ele>795.20001220703</ele>
        <time>2020-02-22T13:45:51.000Z</time>
      </trkpt>
      <trkpt lat="43.77259" lon="7.25577">
        <ele>794.40002441406</ele>
        <time>2020-02-22T13:45:52.000Z</time>
      </trkpt>
      <trkpt lat="43.7726" lon="7.25579">
        <ele>793.40002441406</ele>
        <time>2020-02-22T13:45:53.000Z</time>
      </trkpt>
      <trkpt lat="43.77258" lon="7.25586">
        <ele>792</ele>
        <time>2020-02-22T13:45:55.000Z</time>
      </trkpt>
      <trkpt lat="43.77261" lon="7.25589">
        <ele>790.59997558594</ele>
        <time>2020-02-22T13:45:57.000Z</time>
      </trkpt>
      <trkpt lat="43.77264" lon="7.25588">
        <ele>790.40002441406</ele>
        <time>2020-02-22T13:45:58.000Z</time>
      </trkpt>
      <trkpt lat="43.77271" lon="7.25593">
        <ele>789.40002441406</ele>
        <time>2020-02-22T13:46:01.000Z</time>
      </trkpt>
      <trkpt lat="43.77271" lon="7.25597">
        <ele>789.59997558594</ele>
        <time>2020-02-22T13:46:02.000Z</time>
      </trkpt>
      <trkpt lat="43.77271" lon="7.25604">
        <ele>788.20001220703</ele>
        <time>2020-02-22T13:46:04.000Z</time>
      </trkpt>
      <trkpt lat="43.7727" lon="7.25614">
        <ele>787</ele>
        <time>2020-02-22T13:46:06.000Z</time>
      </trkpt>
      <trkpt lat="43.7727" lon="7.25618">
        <ele>786.20001220703</ele>
        <time>2020-02-22T13:46:07.000Z</time>
      </trkpt>
      <trkpt lat="43.77268" lon="7.25622">
        <ele>785.20001220703</ele>
        <time>2020-02-22T13:46:08.000Z</time>
      </trkpt>
      <trkpt lat="43.77267" lon="7.25626">
        <ele>784</ele>
        <time>2020-02-22T13:46:09.000Z</time>
      </trkpt>
      <trkpt lat="43.77265" lon="7.25634">
        <ele>782.40002441406</ele>
        <time>2020-02-22T13:46:11.000Z</time>
      </trkpt>
      <trkpt lat="43.77263" lon="7.25641">
        <ele>781</ele>
        <time>2020-02-22T13:46:13.000Z</time>
      </trkpt>
      <trkpt lat="43.77259" lon="7.25647">
        <ele>778.79998779297</ele>
        <time>2020-02-22T13:46:15.000Z</time>
      </trkpt>
      <trkpt lat="43.77257" lon="7.25651">
        <ele>777.59997558594</ele>
        <time>2020-02-22T13:46:17.000Z</time>
      </trkpt>
      <trkpt lat="43.77257" lon="7.25653">
        <ele>777</ele>
        <time>2020-02-22T13:46:18.000Z</time>
      </trkpt>
      <trkpt lat="43.77259" lon="7.25654">
        <ele>776.40002441406</ele>
        <time>2020-02-22T13:46:19.000Z</time>
      </trkpt>
      <trkpt lat="43.77261" lon="7.25656">
        <ele>776.20001220703</ele>
        <time>2020-02-22T13:46:20.000Z</time>
      </trkpt>
      <trkpt lat="43.7726" lon="7.25658">
        <ele>775.79998779297</ele>
        <time>2020-02-22T13:46:21.000Z</time>
      </trkpt>
      <trkpt lat="43.77259" lon="7.2566">
        <ele>775.20001220703</ele>
        <time>2020-02-22T13:46:22.000Z</time>
      </trkpt>
      <trkpt lat="43.77258" lon="7.25666">
        <ele>773.59997558594</ele>
        <time>2020-02-22T13:46:25.000Z</time>
      </trkpt>
      <trkpt lat="43.77259" lon="7.25667">
        <ele>772.59997558594</ele>
        <time>2020-02-22T13:46:26.000Z</time>
      </trkpt>
      <trkpt lat="43.77259" lon="7.25675">
        <ele>771.20001220703</ele>
        <time>2020-02-22T13:46:29.000Z</time>
      </trkpt>
      <trkpt lat="43.77254" lon="7.2568">
        <ele>769.59997558594</ele>
        <time>2020-02-22T13:46:32.000Z</time>
      </trkpt>
      <trkpt lat="43.77253" lon="7.25682">
        <ele>768.79998779297</ele>
        <time>2020-02-22T13:46:33.000Z</time>
      </trkpt>
      <trkpt lat="43.77254" lon="7.25683">
        <ele>768.20001220703</ele>
        <time>2020-02-22T13:46:34.000Z</time>
      </trkpt>
      <trkpt lat="43.77255" lon="7.25691">
        <ele>766.79998779297</ele>
        <time>2020-02-22T13:46:37.000Z</time>
      </trkpt>
      <trkpt lat="43.77248" lon="7.25693">
        <ele>765.59997558594</ele>
        <time>2020-02-22T13:46:40.000Z</time>
      </trkpt>
      <trkpt lat="43.77236" lon="7.25701">
        <ele>764.40002441406</ele>
        <time>2020-02-22T13:46:44.000Z</time>
      </trkpt>
      <trkpt lat="43.77233" lon="7.25702">
        <ele>763.59997558594</ele>
        <time>2020-02-22T13:46:45.000Z</time>
      </trkpt>
      <trkpt lat="43.7723" lon="7.25703">
        <ele>762.79998779297</ele>
        <time>2020-02-22T13:46:46.000Z</time>
      </trkpt>
      <trkpt lat="43.77229" lon="7.25705">
        <ele>761.79998779297</ele>
        <time>2020-02-22T13:46:47.000Z</time>
      </trkpt>
      <trkpt lat="43.77226" lon="7.25707">
        <ele>760.59997558594</ele>
        <time>2020-02-22T13:46:48.000Z</time>
      </trkpt>
      <trkpt lat="43.77224" lon="7.25709">
        <ele>759.79998779297</ele>
        <time>2020-02-22T13:46:49.000Z</time>
      </trkpt>
      <trkpt lat="43.77222" lon="7.25711">
        <ele>759</ele>
        <time>2020-02-22T13:46:50.000Z</time>
      </trkpt>
      <trkpt lat="43.77221" lon="7.25717">
        <ele>757.40002441406</ele>
        <time>2020-02-22T13:46:52.000Z</time>
      </trkpt>
      <trkpt lat="43.77226" lon="7.25721">
        <ele>756.20001220703</ele>
        <time>2020-02-22T13:46:54.000Z</time>
      </trkpt>
      <trkpt lat="43.77228" lon="7.25724">
        <ele>755.79998779297</ele>
        <time>2020-02-22T13:46:55.000Z</time>
      </trkpt>
      <trkpt lat="43.77229" lon="7.25727">
        <ele>755.20001220703</ele>
        <time>2020-02-22T13:46:56.000Z</time>
      </trkpt>
      <trkpt lat="43.7723" lon="7.25731">
        <ele>755</ele>
        <time>2020-02-22T13:46:57.000Z</time>
      </trkpt>
      <trkpt lat="43.77231" lon="7.25734">
        <ele>754.20001220703</ele>
        <time>2020-02-22T13:46:58.000Z</time>
      </trkpt>
      <trkpt lat="43.77233" lon="7.25735">
        <ele>753.20001220703</ele>
        <time>2020-02-22T13:46:59.000Z</time>
      </trkpt>
      <trkpt lat="43.77235" lon="7.25735">
        <ele>752.20001220703</ele>
        <time>2020-02-22T13:47:00.000Z</time>
      </trkpt>
      <trkpt lat="43.77236" lon="7.25738">
        <ele>751.40002441406</ele>
        <time>2020-02-22T13:47:01.000Z</time>
      </trkpt>
      <trkpt lat="43.77236" lon="7.25741">
        <ele>750.20001220703</ele>
        <time>2020-02-22T13:47:02.000Z</time>
      </trkpt>
      <trkpt lat="43.7724" lon="7.25745">
        <ele>749</ele>
        <time>2020-02-22T13:47:04.000Z</time>
      </trkpt>
      <trkpt lat="43.77241" lon="7.25749">
        <ele>748.40002441406</ele>
        <time>2020-02-22T13:47:05.000Z</time>
      </trkpt>
      <trkpt lat="43.77241" lon="7.25754">
        <ele>747.59997558594</ele>
        <time>2020-02-22T13:47:06.000Z</time>
      </trkpt>
      <trkpt lat="43.77244" lon="7.25759">
        <ele>745.79998779297</ele>
        <time>2020-02-22T13:47:08.000Z</time>
      </trkpt>
      <trkpt lat="43.7725" lon="7.25761">
        <ele>744.40002441406</ele>
        <time>2020-02-22T13:47:10.000Z</time>
      </trkpt>
      <trkpt lat="43.77257" lon="7.25767">
        <ele>743.20001220703</ele>
        <time>2020-02-22T13:47:12.000Z</time>
      </trkpt>
      <trkpt lat="43.77261" lon="7.25779">
        <ele>742.40002441406</ele>
        <time>2020-02-22T13:47:16.000Z</time>
      </trkpt>
      <trkpt lat="43.77263" lon="7.25781">
        <ele>742.20001220703</ele>
        <time>2020-02-22T13:47:17.000Z</time>
      </trkpt>
      <trkpt lat="43.77266" lon="7.25787">
        <ele>741</ele>
        <time>2020-02-22T13:47:19.000Z</time>
      </trkpt>
      <trkpt lat="43.77265" lon="7.25795">
        <ele>739.79998779297</ele>
        <time>2020-02-22T13:47:21.000Z</time>
      </trkpt>
      <trkpt lat="43.77267" lon="7.25802">
        <ele>738.40002441406</ele>
        <time>2020-02-22T13:47:23.000Z</time>
      </trkpt>
      <trkpt lat="43.7727" lon="7.25803">
        <ele>737.20001220703</ele>
        <time>2020-02-22T13:47:25.000Z</time>
      </trkpt>
      <trkpt lat="43.77271" lon="7.25803">
        <ele>736.40002441406</ele>
        <time>2020-02-22T13:47:26.000Z</time>
      </trkpt>
      <trkpt lat="43.77273" lon="7.25802">
        <ele>735.79998779297</ele>
        <time>2020-02-22T13:47:27.000Z</time>
      </trkpt>
      <trkpt lat="43.77277" lon="7.25805">
        <ele>734.79998779297</ele>
        <time>2020-02-22T13:47:29.000Z</time>
      </trkpt>
      <trkpt lat="43.77279" lon="7.25806">
        <ele>734.40002441406</ele>
        <time>2020-02-22T13:47:30.000Z</time>
      </trkpt>
      <trkpt lat="43.77283" lon="7.25811">
        <ele>733.20001220703</ele>
        <time>2020-02-22T13:47:32.000Z</time>
      </trkpt>
      <trkpt lat="43.77283" lon="7.25814">
        <ele>732.40002441406</ele>
        <time>2020-02-22T13:47:33.000Z</time>
      </trkpt>
      <trkpt lat="43.77281" lon="7.25817">
        <ele>731.59997558594</ele>
        <time>2020-02-22T13:47:34.000Z</time>
      </trkpt>
      <trkpt lat="43.7728" lon="7.25825">
        <ele>730.40002441406</ele>
        <time>2020-02-22T13:47:36.000Z</time>
      </trkpt>
      <trkpt lat="43.77279" lon="7.25834">
        <ele>729.59997558594</ele>
        <time>2020-02-22T13:47:38.000Z</time>
      </trkpt>
      <trkpt lat="43.77277" lon="7.25839">
        <ele>729.40002441406</ele>
        <time>2020-02-22T13:47:39.000Z</time>
      </trkpt>
      <trkpt lat="43.77277" lon="7.25844">
        <ele>728.79998779297</ele>
        <time>2020-02-22T13:47:40.000Z</time>
      </trkpt>
      <trkpt lat="43.77278" lon="7.25851">
        <ele>728.20001220703</ele>
        <time>2020-02-22T13:47:41.000Z</time>
      </trkpt>
      <trkpt lat="43.77282" lon="7.25865">
        <ele>726.59997558594</ele>
        <time>2020-02-22T13:47:43.000Z</time>
      </trkpt>
      <trkpt lat="43.77283" lon="7.25869">
        <ele>725.59997558594</ele>
        <time>2020-02-22T13:47:44.000Z</time>
      </trkpt>
      <trkpt lat="43.77284" lon="7.25872">
        <ele>724.40002441406</ele>
        <time>2020-02-22T13:47:46.000Z</time>
      </trkpt>
      <trkpt lat="43.77285" lon="7.25872">
        <ele>723.40002441406</ele>
        <time>2020-02-22T13:47:51.000Z</time>
      </trkpt>
      <trkpt lat="43.77286" lon="7.25871">
        <ele>723.20001220703</ele>
        <time>2020-02-22T13:48:11.000Z</time>
      </trkpt>
      <trkpt lat="43.77291" lon="7.25871">
        <ele>723.40002441406</ele>
        <time>2020-02-22T13:48:18.000Z</time>
      </trkpt>
      <trkpt lat="43.77302" lon="7.25873">
        <ele>722.79998779297</ele>
        <time>2020-02-22T13:48:23.000Z</time>
      </trkpt>
      <trkpt lat="43.77321" lon="7.25866">
        <ele>722.59997558594</ele>
        <time>2020-02-22T13:48:30.000Z</time>
      </trkpt>
      <trkpt lat="43.77334" lon="7.25865">
        <ele>723</ele>
        <time>2020-02-22T13:48:35.000Z</time>
      </trkpt>
      <trkpt lat="43.77342" lon="7.25858">
        <ele>723.40002441406</ele>
        <time>2020-02-22T13:48:39.000Z</time>
      </trkpt>
      <trkpt lat="43.77349" lon="7.25853">
        <ele>724.40002441406</ele>
        <time>2020-02-22T13:48:43.000Z</time>
      </trkpt>
      <trkpt lat="43.77353" lon="7.25853">
        <ele>724.79998779297</ele>
        <time>2020-02-22T13:48:45.000Z</time>
      </trkpt>
      <trkpt lat="43.7736" lon="7.2585">
        <ele>725.79998779297</ele>
        <time>2020-02-22T13:48:49.000Z</time>
      </trkpt>
      <trkpt lat="43.77364" lon="7.25847">
        <ele>726</ele>
        <time>2020-02-22T13:48:51.000Z</time>
      </trkpt>
      <trkpt lat="43.7737" lon="7.25842">
        <ele>727</ele>
        <time>2020-02-22T13:48:54.000Z</time>
      </trkpt>
      <trkpt lat="43.77374" lon="7.25838">
        <ele>727.79998779297</ele>
        <time>2020-02-22T13:48:57.000Z</time>
      </trkpt>
      <trkpt lat="43.77375" lon="7.25836">
        <ele>728</ele>
        <time>2020-02-22T13:48:58.000Z</time>
      </trkpt>
      <trkpt lat="43.77378" lon="7.25826">
        <ele>728.59997558594</ele>
        <time>2020-02-22T13:49:02.000Z</time>
      </trkpt>
      <trkpt lat="43.77382" lon="7.25824">
        <ele>729</ele>
        <time>2020-02-22T13:49:04.000Z</time>
      </trkpt>
      <trkpt lat="43.77386" lon="7.25821">
        <ele>729.40002441406</ele>
        <time>2020-02-22T13:49:06.000Z</time>
      </trkpt>
      <trkpt lat="43.77389" lon="7.25819">
        <ele>730.20001220703</ele>
        <time>2020-02-22T13:49:08.000Z</time>
      </trkpt>
      <trkpt lat="43.77397" lon="7.25817">
        <ele>731</ele>
        <time>2020-02-22T13:49:12.000Z</time>
      </trkpt>
      <trkpt lat="43.77399" lon="7.25817">
        <ele>731.20001220703</ele>
        <time>2020-02-22T13:49:13.000Z</time>
      </trkpt>
      <trkpt lat="43.7741" lon="7.25814">
        <ele>732</ele>
        <time>2020-02-22T13:49:18.000Z</time>
      </trkpt>
      <trkpt lat="43.77421" lon="7.25809">
        <ele>732.20001220703</ele>
        <time>2020-02-22T13:49:23.000Z</time>
      </trkpt>
      <trkpt lat="43.77424" lon="7.2581">
        <ele>732.20001220703</ele>
        <time>2020-02-22T13:49:24.000Z</time>
      </trkpt>
      <trkpt lat="43.77427" lon="7.25811">
        <ele>732.20001220703</ele>
        <time>2020-02-22T13:49:25.000Z</time>
      </trkpt>
      <trkpt lat="43.77429" lon="7.25814">
        <ele>732.40002441406</ele>
        <time>2020-02-22T13:49:26.000Z</time>
      </trkpt>
      <trkpt lat="43.77434" lon="7.25821">
        <ele>733.40002441406</ele>
        <time>2020-02-22T13:49:30.000Z</time>
      </trkpt>
      <trkpt lat="43.77435" lon="7.25823">
        <ele>733.79998779297</ele>
        <time>2020-02-22T13:49:31.000Z</time>
      </trkpt>
      <trkpt lat="43.77438" lon="7.25827">
        <ele>734.40002441406</ele>
        <time>2020-02-22T13:49:33.000Z</time>
      </trkpt>
      <trkpt lat="43.77443" lon="7.25833">
        <ele>735.59997558594</ele>
        <time>2020-02-22T13:49:37.000Z</time>
      </trkpt>
      <trkpt lat="43.77445" lon="7.25835">
        <ele>736.20001220703</ele>
        <time>2020-02-22T13:49:39.000Z</time>
      </trkpt>
      <trkpt lat="43.77453" lon="7.25836">
        <ele>736.59997558594</ele>
        <time>2020-02-22T13:49:43.000Z</time>
      </trkpt>
      <trkpt lat="43.77456" lon="7.25835">
        <ele>736.59997558594</ele>
        <time>2020-02-22T13:49:44.000Z</time>
      </trkpt>
      <trkpt lat="43.77475" lon="7.25824">
        <ele>735.79998779297</ele>
        <time>2020-02-22T13:49:50.000Z</time>
      </trkpt>
      <trkpt lat="43.77484" lon="7.25819">
        <ele>735.40002441406</ele>
        <time>2020-02-22T13:49:52.000Z</time>
      </trkpt>
      <trkpt lat="43.775" lon="7.25813">
        <ele>734.59997558594</ele>
        <time>2020-02-22T13:49:55.000Z</time>
      </trkpt>
      <trkpt lat="43.77511" lon="7.25811">
        <ele>734.20001220703</ele>
        <time>2020-02-22T13:49:57.000Z</time>
      </trkpt>
      <trkpt lat="43.77515" lon="7.25811">
        <ele>733.79998779297</ele>
        <time>2020-02-22T13:49:58.000Z</time>
      </trkpt>
      <trkpt lat="43.77518" lon="7.25811">
        <ele>733.59997558594</ele>
        <time>2020-02-22T13:49:59.000Z</time>
      </trkpt>
      <trkpt lat="43.77527" lon="7.25806">
        <ele>734</ele>
        <time>2020-02-22T13:50:03.000Z</time>
      </trkpt>
      <trkpt lat="43.77542" lon="7.25793">
        <ele>734.20001220703</ele>
        <time>2020-02-22T13:50:07.000Z</time>
      </trkpt>
      <trkpt lat="43.77556" lon="7.25797">
        <ele>733</ele>
        <time>2020-02-22T13:50:10.000Z</time>
      </trkpt>
      <trkpt lat="43.77561" lon="7.258">
        <ele>732.59997558594</ele>
        <time>2020-02-22T13:50:11.000Z</time>
      </trkpt>
      <trkpt lat="43.77565" lon="7.25803">
        <ele>732</ele>
        <time>2020-02-22T13:50:12.000Z</time>
      </trkpt>
      <trkpt lat="43.77573" lon="7.25809">
        <ele>731.79998779297</ele>
        <time>2020-02-22T13:50:14.000Z</time>
      </trkpt>
      <trkpt lat="43.77576" lon="7.25819">
        <ele>731.79998779297</ele>
        <time>2020-02-22T13:50:16.000Z</time>
      </trkpt>
      <trkpt lat="43.77579" lon="7.25834">
        <ele>731.20001220703</ele>
        <time>2020-02-22T13:50:18.000Z</time>
      </trkpt>
      <trkpt lat="43.77581" lon="7.25841">
        <ele>730.20001220703</ele>
        <time>2020-02-22T13:50:19.000Z</time>
      </trkpt>
      <trkpt lat="43.77581" lon="7.25849">
        <ele>729.40002441406</ele>
        <time>2020-02-22T13:50:20.000Z</time>
      </trkpt>
      <trkpt lat="43.7758" lon="7.25858">
        <ele>728.40002441406</ele>
        <time>2020-02-22T13:50:21.000Z</time>
      </trkpt>
      <trkpt lat="43.77577" lon="7.25881">
        <ele>727.20001220703</ele>
        <time>2020-02-22T13:50:24.000Z</time>
      </trkpt>
      <trkpt lat="43.77575" lon="7.25896">
        <ele>726.59997558594</ele>
        <time>2020-02-22T13:50:26.000Z</time>
      </trkpt>
      <trkpt lat="43.77574" lon="7.25903">
        <ele>726.59997558594</ele>
        <time>2020-02-22T13:50:27.000Z</time>
      </trkpt>
      <trkpt lat="43.7757" lon="7.25926">
        <ele>726.40002441406</ele>
        <time>2020-02-22T13:50:31.000Z</time>
      </trkpt>
      <trkpt lat="43.77567" lon="7.2593">
        <ele>726.40002441406</ele>
        <time>2020-02-22T13:50:32.000Z</time>
      </trkpt>
      <trkpt lat="43.77557" lon="7.2595">
        <ele>725.79998779297</ele>
        <time>2020-02-22T13:50:36.000Z</time>
      </trkpt>
      <trkpt lat="43.77554" lon="7.25956">
        <ele>725.20001220703</ele>
        <time>2020-02-22T13:50:37.000Z</time>
      </trkpt>
      <trkpt lat="43.77548" lon="7.25969">
        <ele>724.59997558594</ele>
        <time>2020-02-22T13:50:39.000Z</time>
      </trkpt>
      <trkpt lat="43.77534" lon="7.26001">
        <ele>724.79998779297</ele>
        <time>2020-02-22T13:50:44.000Z</time>
      </trkpt>
      <trkpt lat="43.77517" lon="7.26038">
        <ele>724</ele>
        <time>2020-02-22T13:50:50.000Z</time>
      </trkpt>
      <trkpt lat="43.77511" lon="7.26045">
        <ele>723.59997558594</ele>
        <time>2020-02-22T13:50:52.000Z</time>
      </trkpt>
      <trkpt lat="43.77509" lon="7.26045">
        <ele>723.59997558594</ele>
        <time>2020-02-22T13:50:53.000Z</time>
      </trkpt>
      <trkpt lat="43.77502" lon="7.26041">
        <ele>724.20001220703</ele>
        <time>2020-02-22T13:50:57.000Z</time>
      </trkpt>
      <trkpt lat="43.77498" lon="7.26038">
        <ele>724.40002441406</ele>
        <time>2020-02-22T13:50:59.000Z</time>
      </trkpt>
      <trkpt lat="43.77497" lon="7.2604">
        <ele>724.20001220703</ele>
        <time>2020-02-22T13:51:01.000Z</time>
      </trkpt>
      <trkpt lat="43.7749" lon="7.2605">
        <ele>723.20001220703</ele>
        <time>2020-02-22T13:51:04.000Z</time>
      </trkpt>
      <trkpt lat="43.77487" lon="7.26056">
        <ele>722.20001220703</ele>
        <time>2020-02-22T13:51:06.000Z</time>
      </trkpt>
      <trkpt lat="43.77482" lon="7.26063">
        <ele>721.20001220703</ele>
        <time>2020-02-22T13:51:08.000Z</time>
      </trkpt>
      <trkpt lat="43.77476" lon="7.26065">
        <ele>719.20001220703</ele>
        <time>2020-02-22T13:51:10.000Z</time>
      </trkpt>
      <trkpt lat="43.77468" lon="7.26071">
        <ele>718.20001220703</ele>
        <time>2020-02-22T13:51:12.000Z</time>
      </trkpt>
      <trkpt lat="43.77458" lon="7.26079">
        <ele>717.40002441406</ele>
        <time>2020-02-22T13:51:14.000Z</time>
      </trkpt>
      <trkpt lat="43.77453" lon="7.26081">
        <ele>717</ele>
        <time>2020-02-22T13:51:15.000Z</time>
      </trkpt>
      <trkpt lat="43.77443" lon="7.26084">
        <ele>716.59997558594</ele>
        <time>2020-02-22T13:51:17.000Z</time>
      </trkpt>
      <trkpt lat="43.77438" lon="7.26084">
        <ele>715.79998779297</ele>
        <time>2020-02-22T13:51:18.000Z</time>
      </trkpt>
      <trkpt lat="43.77429" lon="7.26085">
        <ele>716</ele>
        <time>2020-02-22T13:51:20.000Z</time>
      </trkpt>
      <trkpt lat="43.77421" lon="7.26086">
        <ele>716</ele>
        <time>2020-02-22T13:51:22.000Z</time>
      </trkpt>
      <trkpt lat="43.77412" lon="7.26094">
        <ele>716.79998779297</ele>
        <time>2020-02-22T13:51:25.000Z</time>
      </trkpt>
      <trkpt lat="43.7741" lon="7.26099">
        <ele>717.20001220703</ele>
        <time>2020-02-22T13:51:26.000Z</time>
      </trkpt>
      <trkpt lat="43.77407" lon="7.26118">
        <ele>718</ele>
        <time>2020-02-22T13:51:29.000Z</time>
      </trkpt>
      <trkpt lat="43.77406" lon="7.26124">
        <ele>718.20001220703</ele>
        <time>2020-02-22T13:51:30.000Z</time>
      </trkpt>
      <trkpt lat="43.77395" lon="7.26182">
        <ele>718.40002441406</ele>
        <time>2020-02-22T13:51:39.000Z</time>
      </trkpt>
      <trkpt lat="43.77393" lon="7.26186">
        <ele>718.40002441406</ele>
        <time>2020-02-22T13:51:40.000Z</time>
      </trkpt>
      <trkpt lat="43.77384" lon="7.26198">
        <ele>718.79998779297</ele>
        <time>2020-02-22T13:51:43.000Z</time>
      </trkpt>
      <trkpt lat="43.77368" lon="7.26219">
        <ele>719</ele>
        <time>2020-02-22T13:51:49.000Z</time>
      </trkpt>
      <trkpt lat="43.77365" lon="7.26219">
        <ele>719.20001220703</ele>
        <time>2020-02-22T13:51:50.000Z</time>
      </trkpt>
      <trkpt lat="43.77359" lon="7.26218">
        <ele>719.59997558594</ele>
        <time>2020-02-22T13:51:53.000Z</time>
      </trkpt>
      <trkpt lat="43.77357" lon="7.26219">
        <ele>720</ele>
        <time>2020-02-22T13:51:54.000Z</time>
      </trkpt>
      <trkpt lat="43.77356" lon="7.26223">
        <ele>720.40002441406</ele>
        <time>2020-02-22T13:51:56.000Z</time>
      </trkpt>
      <trkpt lat="43.77357" lon="7.26226">
        <ele>720.40002441406</ele>
        <time>2020-02-22T13:51:57.000Z</time>
      </trkpt>
      <trkpt lat="43.77358" lon="7.26229">
        <ele>720.40002441406</ele>
        <time>2020-02-22T13:51:58.000Z</time>
      </trkpt>
      <trkpt lat="43.77355" lon="7.26244">
        <ele>720</ele>
        <time>2020-02-22T13:52:02.000Z</time>
      </trkpt>
      <trkpt lat="43.77346" lon="7.26251">
        <ele>719.20001220703</ele>
        <time>2020-02-22T13:52:05.000Z</time>
      </trkpt>
      <trkpt lat="43.77343" lon="7.26253">
        <ele>719</ele>
        <time>2020-02-22T13:52:06.000Z</time>
      </trkpt>
      <trkpt lat="43.77326" lon="7.26262">
        <ele>718.20001220703</ele>
        <time>2020-02-22T13:52:11.000Z</time>
      </trkpt>
      <trkpt lat="43.77316" lon="7.26268">
        <ele>717.79998779297</ele>
        <time>2020-02-22T13:52:14.000Z</time>
      </trkpt>
      <trkpt lat="43.77294" lon="7.26287">
        <ele>717.20001220703</ele>
        <time>2020-02-22T13:52:22.000Z</time>
      </trkpt>
      <trkpt lat="43.77283" lon="7.26291">
        <ele>717</ele>
        <time>2020-02-22T13:52:27.000Z</time>
      </trkpt>
      <trkpt lat="43.77279" lon="7.26296">
        <ele>717.20001220703</ele>
        <time>2020-02-22T13:52:31.000Z</time>
      </trkpt>
      <trkpt lat="43.7727" lon="7.26305">
        <ele>716.79998779297</ele>
        <time>2020-02-22T13:52:34.000Z</time>
      </trkpt>
      <trkpt lat="43.77267" lon="7.26308">
        <ele>716.79998779297</ele>
        <time>2020-02-22T13:52:35.000Z</time>
      </trkpt>
      <trkpt lat="43.77256" lon="7.26314">
        <ele>715.59997558594</ele>
        <time>2020-02-22T13:52:38.000Z</time>
      </trkpt>
      <trkpt lat="43.77253" lon="7.26314">
        <ele>715</ele>
        <time>2020-02-22T13:52:39.000Z</time>
      </trkpt>
      <trkpt lat="43.77251" lon="7.26313">
        <ele>714.40002441406</ele>
        <time>2020-02-22T13:52:40.000Z</time>
      </trkpt>
      <trkpt lat="43.7724" lon="7.26316">
        <ele>713.40002441406</ele>
        <time>2020-02-22T13:52:43.000Z</time>
      </trkpt>
      <trkpt lat="43.77237" lon="7.26318">
        <ele>713.20001220703</ele>
        <time>2020-02-22T13:52:44.000Z</time>
      </trkpt>
      <trkpt lat="43.77229" lon="7.26325">
        <ele>712.79998779297</ele>
        <time>2020-02-22T13:52:47.000Z</time>
      </trkpt>
      <trkpt lat="43.77227" lon="7.2633">
        <ele>712.79998779297</ele>
        <time>2020-02-22T13:52:48.000Z</time>
      </trkpt>
      <trkpt lat="43.77223" lon="7.26339">
        <ele>712</ele>
        <time>2020-02-22T13:52:50.000Z</time>
      </trkpt>
      <trkpt lat="43.77222" lon="7.26344">
        <ele>711.59997558594</ele>
        <time>2020-02-22T13:52:51.000Z</time>
      </trkpt>
      <trkpt lat="43.7722" lon="7.26349">
        <ele>711.20001220703</ele>
        <time>2020-02-22T13:52:53.000Z</time>
      </trkpt>
      <trkpt lat="43.7722" lon="7.26348">
        <ele>710.79998779297</ele>
        <time>2020-02-22T13:52:54.000Z</time>
      </trkpt>
      <trkpt lat="43.77219" lon="7.26349">
        <ele>710.59997558594</ele>
        <time>2020-02-22T13:53:04.000Z</time>
      </trkpt>
      <trkpt lat="43.77218" lon="7.26351">
        <ele>710.59997558594</ele>
        <time>2020-02-22T13:53:11.000Z</time>
      </trkpt>
      <trkpt lat="43.77219" lon="7.26352">
        <ele>710.40002441406</ele>
        <time>2020-02-22T13:53:16.000Z</time>
      </trkpt>
      <trkpt lat="43.7722" lon="7.26355">
        <ele>710.59997558594</ele>
        <time>2020-02-22T13:53:18.000Z</time>
      </trkpt>
      <trkpt lat="43.77229" lon="7.26358">
        <ele>710</ele>
        <time>2020-02-22T13:53:22.000Z</time>
      </trkpt>
      <trkpt lat="43.77231" lon="7.26357">
        <ele>709.40002441406</ele>
        <time>2020-02-22T13:53:23.000Z</time>
      </trkpt>
      <trkpt lat="43.77241" lon="7.26357">
        <ele>708.40002441406</ele>
        <time>2020-02-22T13:53:26.000Z</time>
      </trkpt>
      <trkpt lat="43.77244" lon="7.26359">
        <ele>708.40002441406</ele>
        <time>2020-02-22T13:53:27.000Z</time>
      </trkpt>
      <trkpt lat="43.77247" lon="7.26362">
        <ele>708.20001220703</ele>
        <time>2020-02-22T13:53:28.000Z</time>
      </trkpt>
      <trkpt lat="43.77254" lon="7.26364">
        <ele>707.59997558594</ele>
        <time>2020-02-22T13:53:30.000Z</time>
      </trkpt>
      <trkpt lat="43.77257" lon="7.26363">
        <ele>707</ele>
        <time>2020-02-22T13:53:31.000Z</time>
      </trkpt>
      <trkpt lat="43.77263" lon="7.26359">
        <ele>706</ele>
        <time>2020-02-22T13:53:33.000Z</time>
      </trkpt>
      <trkpt lat="43.77266" lon="7.26362">
        <ele>705</ele>
        <time>2020-02-22T13:53:35.000Z</time>
      </trkpt>
      <trkpt lat="43.77266" lon="7.26365">
        <ele>704.79998779297</ele>
        <time>2020-02-22T13:53:36.000Z</time>
      </trkpt>
      <trkpt lat="43.77266" lon="7.26376">
        <ele>703.79998779297</ele>
        <time>2020-02-22T13:53:39.000Z</time>
      </trkpt>
      <trkpt lat="43.7727" lon="7.26379">
        <ele>702.59997558594</ele>
        <time>2020-02-22T13:53:41.000Z</time>
      </trkpt>
      <trkpt lat="43.77272" lon="7.2638">
        <ele>701.79998779297</ele>
        <time>2020-02-22T13:53:42.000Z</time>
      </trkpt>
      <trkpt lat="43.77275" lon="7.26381">
        <ele>701</ele>
        <time>2020-02-22T13:53:43.000Z</time>
      </trkpt>
      <trkpt lat="43.77277" lon="7.26381">
        <ele>700.59997558594</ele>
        <time>2020-02-22T13:53:44.000Z</time>
      </trkpt>
      <trkpt lat="43.77279" lon="7.26381">
        <ele>700</ele>
        <time>2020-02-22T13:53:45.000Z</time>
      </trkpt>
      <trkpt lat="43.77282" lon="7.26382">
        <ele>699.20001220703</ele>
        <time>2020-02-22T13:53:46.000Z</time>
      </trkpt>
      <trkpt lat="43.77291" lon="7.26388">
        <ele>697.59997558594</ele>
        <time>2020-02-22T13:53:49.000Z</time>
      </trkpt>
      <trkpt lat="43.77293" lon="7.26391">
        <ele>696.59997558594</ele>
        <time>2020-02-22T13:53:50.000Z</time>
      </trkpt>
      <trkpt lat="43.77296" lon="7.26399">
        <ele>695.59997558594</ele>
        <time>2020-02-22T13:53:52.000Z</time>
      </trkpt>
      <trkpt lat="43.77302" lon="7.26411">
        <ele>695</ele>
        <time>2020-02-22T13:53:56.000Z</time>
      </trkpt>
      <trkpt lat="43.77306" lon="7.26418">
        <ele>695.20001220703</ele>
        <time>2020-02-22T13:53:59.000Z</time>
      </trkpt>
      <trkpt lat="43.77307" lon="7.2642">
        <ele>695.20001220703</ele>
        <time>2020-02-22T13:54:00.000Z</time>
      </trkpt>
      <trkpt lat="43.77308" lon="7.26424">
        <ele>695.40002441406</ele>
        <time>2020-02-22T13:54:01.000Z</time>
      </trkpt>
      <trkpt lat="43.77316" lon="7.2644">
        <ele>695.40002441406</ele>
        <time>2020-02-22T13:54:06.000Z</time>
      </trkpt>
      <trkpt lat="43.77316" lon="7.26443">
        <ele>695.20001220703</ele>
        <time>2020-02-22T13:54:07.000Z</time>
      </trkpt>
      <trkpt lat="43.77314" lon="7.26449">
        <ele>694.20001220703</ele>
        <time>2020-02-22T13:54:09.000Z</time>
      </trkpt>
      <trkpt lat="43.77311" lon="7.26455">
        <ele>692.79998779297</ele>
        <time>2020-02-22T13:54:11.000Z</time>
      </trkpt>
      <trkpt lat="43.7731" lon="7.26457">
        <ele>692</ele>
        <time>2020-02-22T13:54:12.000Z</time>
      </trkpt>
      <trkpt lat="43.77308" lon="7.26461">
        <ele>691.59997558594</ele>
        <time>2020-02-22T13:54:13.000Z</time>
      </trkpt>
      <trkpt lat="43.77307" lon="7.26464">
        <ele>691.40002441406</ele>
        <time>2020-02-22T13:54:14.000Z</time>
      </trkpt>
      <trkpt lat="43.77308" lon="7.26468">
        <ele>691</ele>
        <time>2020-02-22T13:54:16.000Z</time>
      </trkpt>
      <trkpt lat="43.77308" lon="7.26474">
        <ele>690.59997558594</ele>
        <time>2020-02-22T13:54:18.000Z</time>
      </trkpt>
      <trkpt lat="43.77307" lon="7.26481">
        <ele>690.79998779297</ele>
        <time>2020-02-22T13:54:20.000Z</time>
      </trkpt>
      <trkpt lat="43.77308" lon="7.26484">
        <ele>690.79998779297</ele>
        <time>2020-02-22T13:54:21.000Z</time>
      </trkpt>
      <trkpt lat="43.77308" lon="7.26494">
        <ele>691.20001220703</ele>
        <time>2020-02-22T13:54:24.000Z</time>
      </trkpt>
      <trkpt lat="43.77313" lon="7.265">
        <ele>690.79998779297</ele>
        <time>2020-02-22T13:54:28.000Z</time>
      </trkpt>
      <trkpt lat="43.77314" lon="7.26501">
        <ele>691</ele>
        <time>2020-02-22T13:54:29.000Z</time>
      </trkpt>
      <trkpt lat="43.77317" lon="7.26503">
        <ele>692</ele>
        <time>2020-02-22T13:54:31.000Z</time>
      </trkpt>
      <trkpt lat="43.77323" lon="7.26505">
        <ele>693</ele>
        <time>2020-02-22T13:54:34.000Z</time>
      </trkpt>
      <trkpt lat="43.77324" lon="7.26505">
        <ele>693.40002441406</ele>
        <time>2020-02-22T13:54:35.000Z</time>
      </trkpt>
      <trkpt lat="43.77328" lon="7.26506">
        <ele>694.20001220703</ele>
        <time>2020-02-22T13:54:37.000Z</time>
      </trkpt>
      <trkpt lat="43.77331" lon="7.2651">
        <ele>695.20001220703</ele>
        <time>2020-02-22T13:54:39.000Z</time>
      </trkpt>
      <trkpt lat="43.77333" lon="7.26511">
        <ele>695.59997558594</ele>
        <time>2020-02-22T13:54:40.000Z</time>
      </trkpt>
      <trkpt lat="43.77338" lon="7.26519">
        <ele>696.40002441406</ele>
        <time>2020-02-22T13:54:43.000Z</time>
      </trkpt>
      <trkpt lat="43.77343" lon="7.26526">
        <ele>697.40002441406</ele>
        <time>2020-02-22T13:54:46.000Z</time>
      </trkpt>
      <trkpt lat="43.7735" lon="7.26539">
        <ele>698.79998779297</ele>
        <time>2020-02-22T13:54:51.000Z</time>
      </trkpt>
      <trkpt lat="43.77354" lon="7.26548">
        <ele>699.20001220703</ele>
        <time>2020-02-22T13:54:55.000Z</time>
      </trkpt>
      <trkpt lat="43.77356" lon="7.26552">
        <ele>699.40002441406</ele>
        <time>2020-02-22T13:54:57.000Z</time>
      </trkpt>
      <trkpt lat="43.77363" lon="7.26558">
        <ele>700</ele>
        <time>2020-02-22T13:55:01.000Z</time>
      </trkpt>
      <trkpt lat="43.77365" lon="7.26559">
        <ele>700.20001220703</ele>
        <time>2020-02-22T13:55:02.000Z</time>
      </trkpt>
      <trkpt lat="43.77369" lon="7.26564">
        <ele>701</ele>
        <time>2020-02-22T13:55:04.000Z</time>
      </trkpt>
      <trkpt lat="43.7737" lon="7.26566">
        <ele>701.40002441406</ele>
        <time>2020-02-22T13:55:05.000Z</time>
      </trkpt>
      <trkpt lat="43.77375" lon="7.2657">
        <ele>702.40002441406</ele>
        <time>2020-02-22T13:55:08.000Z</time>
      </trkpt>
      <trkpt lat="43.77377" lon="7.26564">
        <ele>703.20001220703</ele>
        <time>2020-02-22T13:55:11.000Z</time>
      </trkpt>
      <trkpt lat="43.77379" lon="7.26564">
        <ele>703.59997558594</ele>
        <time>2020-02-22T13:55:12.000Z</time>
      </trkpt>
      <trkpt lat="43.77381" lon="7.26564">
        <ele>704.40002441406</ele>
        <time>2020-02-22T13:55:14.000Z</time>
      </trkpt>
      <trkpt lat="43.77383" lon="7.26564">
        <ele>704.59997558594</ele>
        <time>2020-02-22T13:55:15.000Z</time>
      </trkpt>
      <trkpt lat="43.77387" lon="7.26565">
        <ele>705</ele>
        <time>2020-02-22T13:55:17.000Z</time>
      </trkpt>
      <trkpt lat="43.77389" lon="7.26566">
        <ele>705.40002441406</ele>
        <time>2020-02-22T13:55:18.000Z</time>
      </trkpt>
      <trkpt lat="43.77391" lon="7.26567">
        <ele>705.79998779297</ele>
        <time>2020-02-22T13:55:19.000Z</time>
      </trkpt>
      <trkpt lat="43.77398" lon="7.2657">
        <ele>707.40002441406</ele>
        <time>2020-02-22T13:55:22.000Z</time>
      </trkpt>
      <trkpt lat="43.77402" lon="7.26573">
        <ele>708.20001220703</ele>
        <time>2020-02-22T13:55:24.000Z</time>
      </trkpt>
      <trkpt lat="43.77404" lon="7.26575">
        <ele>708.79998779297</ele>
        <time>2020-02-22T13:55:25.000Z</time>
      </trkpt>
      <trkpt lat="43.7741" lon="7.2658">
        <ele>709.79998779297</ele>
        <time>2020-02-22T13:55:28.000Z</time>
      </trkpt>
      <trkpt lat="43.77417" lon="7.26585">
        <ele>710.79998779297</ele>
        <time>2020-02-22T13:55:31.000Z</time>
      </trkpt>
      <trkpt lat="43.77419" lon="7.26587">
        <ele>711.20001220703</ele>
        <time>2020-02-22T13:55:32.000Z</time>
      </trkpt>
      <trkpt lat="43.77432" lon="7.26596">
        <ele>712</ele>
        <time>2020-02-22T13:55:38.000Z</time>
      </trkpt>
      <trkpt lat="43.77436" lon="7.26598">
        <ele>712.59997558594</ele>
        <time>2020-02-22T13:55:40.000Z</time>
      </trkpt>
      <trkpt lat="43.7744" lon="7.26598">
        <ele>713.20001220703</ele>
        <time>2020-02-22T13:55:42.000Z</time>
      </trkpt>
      <trkpt lat="43.77448" lon="7.26599">
        <ele>714.40002441406</ele>
        <time>2020-02-22T13:55:46.000Z</time>
      </trkpt>
      <trkpt lat="43.77458" lon="7.26601">
        <ele>715.59997558594</ele>
        <time>2020-02-22T13:55:51.000Z</time>
      </trkpt>
      <trkpt lat="43.77462" lon="7.26602">
        <ele>716</ele>
        <time>2020-02-22T13:55:53.000Z</time>
      </trkpt>
      <trkpt lat="43.77465" lon="7.26603">
        <ele>716.59997558594</ele>
        <time>2020-02-22T13:55:55.000Z</time>
      </trkpt>
      <trkpt lat="43.77471" lon="7.26605">
        <ele>717.59997558594</ele>
        <time>2020-02-22T13:55:58.000Z</time>
      </trkpt>
      <trkpt lat="43.77472" lon="7.26606">
        <ele>717.79998779297</ele>
        <time>2020-02-22T13:55:59.000Z</time>
      </trkpt>
      <trkpt lat="43.77474" lon="7.26606">
        <ele>718</ele>
        <time>2020-02-22T13:56:00.000Z</time>
      </trkpt>
      <trkpt lat="43.77482" lon="7.2661">
        <ele>718.79998779297</ele>
        <time>2020-02-22T13:56:04.000Z</time>
      </trkpt>
      <trkpt lat="43.77488" lon="7.26613">
        <ele>719.20001220703</ele>
        <time>2020-02-22T13:56:07.000Z</time>
      </trkpt>
      <trkpt lat="43.77499" lon="7.26617">
        <ele>719.79998779297</ele>
        <time>2020-02-22T13:56:13.000Z</time>
      </trkpt>
      <trkpt lat="43.77501" lon="7.26619">
        <ele>720</ele>
        <time>2020-02-22T13:56:14.000Z</time>
      </trkpt>
      <trkpt lat="43.77509" lon="7.26622">
        <ele>720</ele>
        <time>2020-02-22T13:56:19.000Z</time>
      </trkpt>
      <trkpt lat="43.77511" lon="7.26622">
        <ele>720.20001220703</ele>
        <time>2020-02-22T13:56:25.000Z</time>
      </trkpt>
      <trkpt lat="43.77511" lon="7.26623">
        <ele>720</ele>
        <time>2020-02-22T13:56:34.000Z</time>
      </trkpt>
      <trkpt lat="43.77511" lon="7.26623">
        <ele>719.79998779297</ele>
        <time>2020-02-22T13:56:45.000Z</time>
      </trkpt>
      <trkpt lat="43.77512" lon="7.26623">
        <ele>719.79998779297</ele>
        <time>2020-02-22T13:56:59.000Z</time>
      </trkpt>
      <trkpt lat="43.77511" lon="7.26623">
        <ele>719.79998779297</ele>
        <time>2020-02-22T13:57:11.000Z</time>
      </trkpt>
      <trkpt lat="43.77516" lon="7.26626">
        <ele>720</ele>
        <time>2020-02-22T13:57:17.000Z</time>
      </trkpt>
      <trkpt lat="43.77526" lon="7.26633">
        <ele>719</ele>
        <time>2020-02-22T13:57:21.000Z</time>
      </trkpt>
      <trkpt lat="43.77529" lon="7.26633">
        <ele>718.59997558594</ele>
        <time>2020-02-22T13:57:22.000Z</time>
      </trkpt>
      <trkpt lat="43.77537" lon="7.26635">
        <ele>717.59997558594</ele>
        <time>2020-02-22T13:57:25.000Z</time>
      </trkpt>
      <trkpt lat="43.77542" lon="7.26633">
        <ele>716</ele>
        <time>2020-02-22T13:57:27.000Z</time>
      </trkpt>
      <trkpt lat="43.77546" lon="7.26631">
        <ele>714.40002441406</ele>
        <time>2020-02-22T13:57:29.000Z</time>
      </trkpt>
      <trkpt lat="43.77547" lon="7.26635">
        <ele>714.20001220703</ele>
        <time>2020-02-22T13:57:31.000Z</time>
      </trkpt>
      <trkpt lat="43.77544" lon="7.2664">
        <ele>713.40002441406</ele>
        <time>2020-02-22T13:57:35.000Z</time>
      </trkpt>
      <trkpt lat="43.77542" lon="7.26642">
        <ele>712</ele>
        <time>2020-02-22T13:57:37.000Z</time>
      </trkpt>
      <trkpt lat="43.7754" lon="7.26649">
        <ele>710.79998779297</ele>
        <time>2020-02-22T13:57:41.000Z</time>
      </trkpt>
      <trkpt lat="43.77538" lon="7.26655">
        <ele>709.59997558594</ele>
        <time>2020-02-22T13:57:43.000Z</time>
      </trkpt>
      <trkpt lat="43.77537" lon="7.26657">
        <ele>708.40002441406</ele>
        <time>2020-02-22T13:57:44.000Z</time>
      </trkpt>
      <trkpt lat="43.77536" lon="7.26658">
        <ele>707.59997558594</ele>
        <time>2020-02-22T13:57:45.000Z</time>
      </trkpt>
      <trkpt lat="43.77536" lon="7.26659">
        <ele>706.79998779297</ele>
        <time>2020-02-22T13:57:46.000Z</time>
      </trkpt>
      <trkpt lat="43.77537" lon="7.2666">
        <ele>706</ele>
        <time>2020-02-22T13:57:47.000Z</time>
      </trkpt>
      <trkpt lat="43.77538" lon="7.2666">
        <ele>705.20001220703</ele>
        <time>2020-02-22T13:57:48.000Z</time>
      </trkpt>
      <trkpt lat="43.77538" lon="7.2666">
        <ele>704.79998779297</ele>
        <time>2020-02-22T13:57:49.000Z</time>
      </trkpt>
      <trkpt lat="43.7754" lon="7.26659">
        <ele>703.59997558594</ele>
        <time>2020-02-22T13:57:51.000Z</time>
      </trkpt>
      <trkpt lat="43.77543" lon="7.26657">
        <ele>703.20001220703</ele>
        <time>2020-02-22T13:57:53.000Z</time>
      </trkpt>
      <trkpt lat="43.77548" lon="7.26656">
        <ele>702.59997558594</ele>
        <time>2020-02-22T13:57:56.000Z</time>
      </trkpt>
      <trkpt lat="43.77549" lon="7.2666">
        <ele>702.40002441406</ele>
        <time>2020-02-22T13:57:58.000Z</time>
      </trkpt>
      <trkpt lat="43.77547" lon="7.26664">
        <ele>701.59997558594</ele>
        <time>2020-02-22T13:58:00.000Z</time>
      </trkpt>
      <trkpt lat="43.77545" lon="7.26668">
        <ele>700.20001220703</ele>
        <time>2020-02-22T13:58:02.000Z</time>
      </trkpt>
      <trkpt lat="43.77544" lon="7.2667">
        <ele>699.59997558594</ele>
        <time>2020-02-22T13:58:03.000Z</time>
      </trkpt>
      <trkpt lat="43.77542" lon="7.26671">
        <ele>699.20001220703</ele>
        <time>2020-02-22T13:58:04.000Z</time>
      </trkpt>
      <trkpt lat="43.77539" lon="7.26675">
        <ele>697.79998779297</ele>
        <time>2020-02-22T13:58:06.000Z</time>
      </trkpt>
      <trkpt lat="43.77537" lon="7.26676">
        <ele>697.20001220703</ele>
        <time>2020-02-22T13:58:07.000Z</time>
      </trkpt>
      <trkpt lat="43.77536" lon="7.26678">
        <ele>696.59997558594</ele>
        <time>2020-02-22T13:58:08.000Z</time>
      </trkpt>
      <trkpt lat="43.77536" lon="7.2668">
        <ele>695.79998779297</ele>
        <time>2020-02-22T13:58:10.000Z</time>
      </trkpt>
      <trkpt lat="43.77537" lon="7.26681">
        <ele>695.40002441406</ele>
        <time>2020-02-22T13:58:11.000Z</time>
      </trkpt>
      <trkpt lat="43.77542" lon="7.26684">
        <ele>694.20001220703</ele>
        <time>2020-02-22T13:58:14.000Z</time>
      </trkpt>
      <trkpt lat="43.77544" lon="7.26684">
        <ele>693.59997558594</ele>
        <time>2020-02-22T13:58:15.000Z</time>
      </trkpt>
      <trkpt lat="43.77546" lon="7.26685">
        <ele>692.59997558594</ele>
        <time>2020-02-22T13:58:16.000Z</time>
      </trkpt>
      <trkpt lat="43.77548" lon="7.26686">
        <ele>691.79998779297</ele>
        <time>2020-02-22T13:58:17.000Z</time>
      </trkpt>
      <trkpt lat="43.77548" lon="7.26688">
        <ele>691</ele>
        <time>2020-02-22T13:58:18.000Z</time>
      </trkpt>
      <trkpt lat="43.77547" lon="7.26689">
        <ele>690.20001220703</ele>
        <time>2020-02-22T13:58:19.000Z</time>
      </trkpt>
      <trkpt lat="43.77546" lon="7.2669">
        <ele>689.40002441406</ele>
        <time>2020-02-22T13:58:20.000Z</time>
      </trkpt>
      <trkpt lat="43.77543" lon="7.26694">
        <ele>688</ele>
        <time>2020-02-22T13:58:23.000Z</time>
      </trkpt>
      <trkpt lat="43.77543" lon="7.26695">
        <ele>687</ele>
        <time>2020-02-22T13:58:25.000Z</time>
      </trkpt>
      <trkpt lat="43.77546" lon="7.26695">
        <ele>685.79998779297</ele>
        <time>2020-02-22T13:58:29.000Z</time>
      </trkpt>
      <trkpt lat="43.77547" lon="7.26695">
        <ele>685.59997558594</ele>
        <time>2020-02-22T13:58:30.000Z</time>
      </trkpt>
      <trkpt lat="43.77553" lon="7.26697">
        <ele>684.59997558594</ele>
        <time>2020-02-22T13:58:34.000Z</time>
      </trkpt>
      <trkpt lat="43.77552" lon="7.26699">
        <ele>684.20001220703</ele>
        <time>2020-02-22T13:58:35.000Z</time>
      </trkpt>
      <trkpt lat="43.7755" lon="7.26703">
        <ele>683.20001220703</ele>
        <time>2020-02-22T13:58:37.000Z</time>
      </trkpt>
      <trkpt lat="43.77546" lon="7.26706">
        <ele>682</ele>
        <time>2020-02-22T13:58:39.000Z</time>
      </trkpt>
      <trkpt lat="43.77543" lon="7.26709">
        <ele>681.40002441406</ele>
        <time>2020-02-22T13:58:41.000Z</time>
      </trkpt>
      <trkpt lat="43.77542" lon="7.26711">
        <ele>681</ele>
        <time>2020-02-22T13:58:42.000Z</time>
      </trkpt>
      <trkpt lat="43.77539" lon="7.26714">
        <ele>679.79998779297</ele>
        <time>2020-02-22T13:58:44.000Z</time>
      </trkpt>
      <trkpt lat="43.77534" lon="7.26719">
        <ele>678.59997558594</ele>
        <time>2020-02-22T13:58:47.000Z</time>
      </trkpt>
      <trkpt lat="43.77531" lon="7.26721">
        <ele>677.40002441406</ele>
        <time>2020-02-22T13:58:50.000Z</time>
      </trkpt>
      <trkpt lat="43.77532" lon="7.26723">
        <ele>676.59997558594</ele>
        <time>2020-02-22T13:58:51.000Z</time>
      </trkpt>
      <trkpt lat="43.77532" lon="7.26724">
        <ele>676</ele>
        <time>2020-02-22T13:58:52.000Z</time>
      </trkpt>
      <trkpt lat="43.77534" lon="7.26726">
        <ele>674.79998779297</ele>
        <time>2020-02-22T13:58:54.000Z</time>
      </trkpt>
      <trkpt lat="43.77535" lon="7.26726">
        <ele>674.40002441406</ele>
        <time>2020-02-22T13:58:55.000Z</time>
      </trkpt>
      <trkpt lat="43.77536" lon="7.26729">
        <ele>673.20001220703</ele>
        <time>2020-02-22T13:58:57.000Z</time>
      </trkpt>
      <trkpt lat="43.77537" lon="7.26729">
        <ele>673</ele>
        <time>2020-02-22T13:58:58.000Z</time>
      </trkpt>
      <trkpt lat="43.77538" lon="7.26729">
        <ele>672.59997558594</ele>
        <time>2020-02-22T13:58:59.000Z</time>
      </trkpt>
      <trkpt lat="43.77539" lon="7.26729">
        <ele>672</ele>
        <time>2020-02-22T13:59:00.000Z</time>
      </trkpt>
      <trkpt lat="43.77544" lon="7.26732">
        <ele>671</ele>
        <time>2020-02-22T13:59:04.000Z</time>
      </trkpt>
      <trkpt lat="43.77544" lon="7.26733">
        <ele>670.79998779297</ele>
        <time>2020-02-22T13:59:05.000Z</time>
      </trkpt>
      <trkpt lat="43.77542" lon="7.26735">
        <ele>670.40002441406</ele>
        <time>2020-02-22T13:59:07.000Z</time>
      </trkpt>
      <trkpt lat="43.77542" lon="7.26737">
        <ele>670</ele>
        <time>2020-02-22T13:59:08.000Z</time>
      </trkpt>
      <trkpt lat="43.77543" lon="7.26739">
        <ele>669.59997558594</ele>
        <time>2020-02-22T13:59:09.000Z</time>
      </trkpt>
      <trkpt lat="43.77542" lon="7.26742">
        <ele>668.59997558594</ele>
        <time>2020-02-22T13:59:11.000Z</time>
      </trkpt>
      <trkpt lat="43.7754" lon="7.26743">
        <ele>667.79998779297</ele>
        <time>2020-02-22T13:59:12.000Z</time>
      </trkpt>
      <trkpt lat="43.77539" lon="7.26744">
        <ele>667.20001220703</ele>
        <time>2020-02-22T13:59:13.000Z</time>
      </trkpt>
      <trkpt lat="43.77538" lon="7.26745">
        <ele>666.59997558594</ele>
        <time>2020-02-22T13:59:14.000Z</time>
      </trkpt>
      <trkpt lat="43.77537" lon="7.26747">
        <ele>666</ele>
        <time>2020-02-22T13:59:15.000Z</time>
      </trkpt>
      <trkpt lat="43.77537" lon="7.26749">
        <ele>665.79998779297</ele>
        <time>2020-02-22T13:59:16.000Z</time>
      </trkpt>
      <trkpt lat="43.77541" lon="7.26751">
        <ele>664.59997558594</ele>
        <time>2020-02-22T13:59:19.000Z</time>
      </trkpt>
      <trkpt lat="43.77542" lon="7.26752">
        <ele>664.20001220703</ele>
        <time>2020-02-22T13:59:20.000Z</time>
      </trkpt>
      <trkpt lat="43.77543" lon="7.26754">
        <ele>663.59997558594</ele>
        <time>2020-02-22T13:59:21.000Z</time>
      </trkpt>
      <trkpt lat="43.77544" lon="7.26763">
        <ele>662.20001220703</ele>
        <time>2020-02-22T13:59:25.000Z</time>
      </trkpt>
      <trkpt lat="43.77548" lon="7.26765">
        <ele>660.79998779297</ele>
        <time>2020-02-22T13:59:27.000Z</time>
      </trkpt>
      <trkpt lat="43.77551" lon="7.26766">
        <ele>659.79998779297</ele>
        <time>2020-02-22T13:59:28.000Z</time>
      </trkpt>
      <trkpt lat="43.77553" lon="7.26766">
        <ele>658.59997558594</ele>
        <time>2020-02-22T13:59:29.000Z</time>
      </trkpt>
      <trkpt lat="43.77555" lon="7.26765">
        <ele>657.40002441406</ele>
        <time>2020-02-22T13:59:30.000Z</time>
      </trkpt>
      <trkpt lat="43.7756" lon="7.26762">
        <ele>655.79998779297</ele>
        <time>2020-02-22T13:59:32.000Z</time>
      </trkpt>
      <trkpt lat="43.77561" lon="7.26767">
        <ele>654.40002441406</ele>
        <time>2020-02-22T13:59:35.000Z</time>
      </trkpt>
      <trkpt lat="43.77559" lon="7.26771">
        <ele>653.79998779297</ele>
        <time>2020-02-22T13:59:37.000Z</time>
      </trkpt>
      <trkpt lat="43.7756" lon="7.26772">
        <ele>653.40002441406</ele>
        <time>2020-02-22T13:59:38.000Z</time>
      </trkpt>
      <trkpt lat="43.77562" lon="7.26773">
        <ele>653</ele>
        <time>2020-02-22T13:59:39.000Z</time>
      </trkpt>
      <trkpt lat="43.77563" lon="7.26777">
        <ele>652.20001220703</ele>
        <time>2020-02-22T13:59:41.000Z</time>
      </trkpt>
      <trkpt lat="43.77563" lon="7.26779">
        <ele>651.79998779297</ele>
        <time>2020-02-22T13:59:42.000Z</time>
      </trkpt>
      <trkpt lat="43.77566" lon="7.2678">
        <ele>650.40002441406</ele>
        <time>2020-02-22T13:59:44.000Z</time>
      </trkpt>
      <trkpt lat="43.77568" lon="7.26781">
        <ele>649.59997558594</ele>
        <time>2020-02-22T13:59:45.000Z</time>
      </trkpt>
      <trkpt lat="43.77568" lon="7.26784">
        <ele>648.59997558594</ele>
        <time>2020-02-22T13:59:46.000Z</time>
      </trkpt>
      <trkpt lat="43.77567" lon="7.26787">
        <ele>646.79998779297</ele>
        <time>2020-02-22T13:59:48.000Z</time>
      </trkpt>
      <trkpt lat="43.77568" lon="7.2679">
        <ele>645.40002441406</ele>
        <time>2020-02-22T13:59:50.000Z</time>
      </trkpt>
      <trkpt lat="43.77571" lon="7.26791">
        <ele>644.40002441406</ele>
        <time>2020-02-22T13:59:52.000Z</time>
      </trkpt>
      <trkpt lat="43.77572" lon="7.26795">
        <ele>643.20001220703</ele>
        <time>2020-02-22T13:59:54.000Z</time>
      </trkpt>
      <trkpt lat="43.77571" lon="7.26801">
        <ele>642</ele>
        <time>2020-02-22T13:59:56.000Z</time>
      </trkpt>
      <trkpt lat="43.77569" lon="7.26805">
        <ele>640.59997558594</ele>
        <time>2020-02-22T13:59:58.000Z</time>
      </trkpt>
      <trkpt lat="43.77563" lon="7.2681">
        <ele>639.79998779297</ele>
        <time>2020-02-22T14:00:00.000Z</time>
      </trkpt>
      <trkpt lat="43.77562" lon="7.26811">
        <ele>639.40002441406</ele>
        <time>2020-02-22T14:00:01.000Z</time>
      </trkpt>
      <trkpt lat="43.77559" lon="7.26815">
        <ele>638.59997558594</ele>
        <time>2020-02-22T14:00:03.000Z</time>
      </trkpt>
      <trkpt lat="43.77557" lon="7.26816">
        <ele>638.59997558594</ele>
        <time>2020-02-22T14:00:04.000Z</time>
      </trkpt>
      <trkpt lat="43.77556" lon="7.26816">
        <ele>638.40002441406</ele>
        <time>2020-02-22T14:00:05.000Z</time>
      </trkpt>
      <trkpt lat="43.77554" lon="7.26816">
        <ele>638.40002441406</ele>
        <time>2020-02-22T14:00:06.000Z</time>
      </trkpt>
      <trkpt lat="43.77547" lon="7.26818">
        <ele>638.59997558594</ele>
        <time>2020-02-22T14:00:10.000Z</time>
      </trkpt>
      <trkpt lat="43.77545" lon="7.26812">
        <ele>639.20001220703</ele>
        <time>2020-02-22T14:00:14.000Z</time>
      </trkpt>
      <trkpt lat="43.77543" lon="7.26812">
        <ele>639.59997558594</ele>
        <time>2020-02-22T14:00:15.000Z</time>
      </trkpt>
      <trkpt lat="43.77537" lon="7.26813">
        <ele>640</ele>
        <time>2020-02-22T14:00:20.000Z</time>
      </trkpt>
      <trkpt lat="43.77532" lon="7.26813">
        <ele>640.20001220703</ele>
        <time>2020-02-22T14:00:24.000Z</time>
      </trkpt>
      <trkpt lat="43.77526" lon="7.26808">
        <ele>640.40002441406</ele>
        <time>2020-02-22T14:00:29.000Z</time>
      </trkpt>
      <trkpt lat="43.77524" lon="7.26812">
        <ele>640.20001220703</ele>
        <time>2020-02-22T14:00:33.000Z</time>
      </trkpt>
      <trkpt lat="43.77523" lon="7.26817">
        <ele>639.79998779297</ele>
        <time>2020-02-22T14:00:36.000Z</time>
      </trkpt>
      <trkpt lat="43.77521" lon="7.26818">
        <ele>639.59997558594</ele>
        <time>2020-02-22T14:00:37.000Z</time>
      </trkpt>
      <trkpt lat="43.77512" lon="7.2681">
        <ele>639.20001220703</ele>
        <time>2020-02-22T14:00:41.000Z</time>
      </trkpt>
      <trkpt lat="43.7751" lon="7.26807">
        <ele>639.40002441406</ele>
        <time>2020-02-22T14:00:42.000Z</time>
      </trkpt>
      <trkpt lat="43.77504" lon="7.26803">
        <ele>638.79998779297</ele>
        <time>2020-02-22T14:00:45.000Z</time>
      </trkpt>
      <trkpt lat="43.77499" lon="7.26802">
        <ele>638.40002441406</ele>
        <time>2020-02-22T14:00:47.000Z</time>
      </trkpt>
      <trkpt lat="43.77495" lon="7.268">
        <ele>638.20001220703</ele>
        <time>2020-02-22T14:00:49.000Z</time>
      </trkpt>
      <trkpt lat="43.77493" lon="7.26801">
        <ele>638.20001220703</ele>
        <time>2020-02-22T14:00:50.000Z</time>
      </trkpt>
      <trkpt lat="43.7749" lon="7.26809">
        <ele>637.59997558594</ele>
        <time>2020-02-22T14:00:53.000Z</time>
      </trkpt>
      <trkpt lat="43.77489" lon="7.26813">
        <ele>637.20001220703</ele>
        <time>2020-02-22T14:00:54.000Z</time>
      </trkpt>
      <trkpt lat="43.77488" lon="7.26815">
        <ele>637</ele>
        <time>2020-02-22T14:00:55.000Z</time>
      </trkpt>
      <trkpt lat="43.77486" lon="7.26815">
        <ele>636.40002441406</ele>
        <time>2020-02-22T14:00:56.000Z</time>
      </trkpt>
      <trkpt lat="43.77484" lon="7.26816">
        <ele>636</ele>
        <time>2020-02-22T14:00:57.000Z</time>
      </trkpt>
      <trkpt lat="43.77482" lon="7.26817">
        <ele>635</ele>
        <time>2020-02-22T14:01:00.000Z</time>
      </trkpt>
      <trkpt lat="43.77481" lon="7.26819">
        <ele>634.40002441406</ele>
        <time>2020-02-22T14:01:01.000Z</time>
      </trkpt>
      <trkpt lat="43.77481" lon="7.2682">
        <ele>633</ele>
        <time>2020-02-22T14:01:03.000Z</time>
      </trkpt>
      <trkpt lat="43.77482" lon="7.26821">
        <ele>632.59997558594</ele>
        <time>2020-02-22T14:01:05.000Z</time>
      </trkpt>
      <trkpt lat="43.77481" lon="7.26821">
        <ele>632</ele>
        <time>2020-02-22T14:01:07.000Z</time>
      </trkpt>
      <trkpt lat="43.77481" lon="7.26823">
        <ele>631.79998779297</ele>
        <time>2020-02-22T14:01:17.000Z</time>
      </trkpt>
      <trkpt lat="43.7748" lon="7.26823">
        <ele>631.40002441406</ele>
        <time>2020-02-22T14:01:25.000Z</time>
      </trkpt>
      <trkpt lat="43.77476" lon="7.26818">
        <ele>631.40002441406</ele>
        <time>2020-02-22T14:01:30.000Z</time>
      </trkpt>
      <trkpt lat="43.77471" lon="7.26815">
        <ele>631.59997558594</ele>
        <time>2020-02-22T14:01:35.000Z</time>
      </trkpt>
      <trkpt lat="43.7747" lon="7.26815">
        <ele>631.59997558594</ele>
        <time>2020-02-22T14:01:37.000Z</time>
      </trkpt>
      <trkpt lat="43.77471" lon="7.26815">
        <ele>631.59997558594</ele>
        <time>2020-02-22T14:01:39.000Z</time>
      </trkpt>
      <trkpt lat="43.77473" lon="7.26816">
        <ele>631.79998779297</ele>
        <time>2020-02-22T14:01:41.000Z</time>
      </trkpt>
      <trkpt lat="43.77478" lon="7.2682">
        <ele>631.59997558594</ele>
        <time>2020-02-22T14:01:47.000Z</time>
      </trkpt>
      <trkpt lat="43.7748" lon="7.26822">
        <ele>631.40002441406</ele>
        <time>2020-02-22T14:01:54.000Z</time>
      </trkpt>
      <trkpt lat="43.7748" lon="7.26822">
        <ele>631.59997558594</ele>
        <time>2020-02-22T14:02:05.000Z</time>
      </trkpt>
      <trkpt lat="43.77479" lon="7.26822">
        <ele>632</ele>
        <time>2020-02-22T14:02:14.000Z</time>
      </trkpt>
      <trkpt lat="43.77479" lon="7.26823">
        <ele>631.79998779297</ele>
        <time>2020-02-22T14:02:23.000Z</time>
      </trkpt>
      <trkpt lat="43.7748" lon="7.26823">
        <ele>631.40002441406</ele>
        <time>2020-02-22T14:02:28.000Z</time>
      </trkpt>
      <trkpt lat="43.7748" lon="7.26824">
        <ele>631.40002441406</ele>
        <time>2020-02-22T14:02:40.000Z</time>
      </trkpt>
      <trkpt lat="43.77485" lon="7.2683">
        <ele>631.20001220703</ele>
        <time>2020-02-22T14:02:44.000Z</time>
      </trkpt>
      <trkpt lat="43.77491" lon="7.26835">
        <ele>630.79998779297</ele>
        <time>2020-02-22T14:02:46.000Z</time>
      </trkpt>
      <trkpt lat="43.77499" lon="7.26839">
        <ele>629.79998779297</ele>
        <time>2020-02-22T14:02:48.000Z</time>
      </trkpt>
      <trkpt lat="43.77503" lon="7.26841">
        <ele>629</ele>
        <time>2020-02-22T14:02:49.000Z</time>
      </trkpt>
      <trkpt lat="43.77511" lon="7.26843">
        <ele>628</ele>
        <time>2020-02-22T14:02:51.000Z</time>
      </trkpt>
      <trkpt lat="43.77518" lon="7.26846">
        <ele>627</ele>
        <time>2020-02-22T14:02:53.000Z</time>
      </trkpt>
      <trkpt lat="43.77529" lon="7.26856">
        <ele>626.79998779297</ele>
        <time>2020-02-22T14:02:56.000Z</time>
      </trkpt>
      <trkpt lat="43.77541" lon="7.26865">
        <ele>625.40002441406</ele>
        <time>2020-02-22T14:02:59.000Z</time>
      </trkpt>
      <trkpt lat="43.77551" lon="7.2687">
        <ele>623.79998779297</ele>
        <time>2020-02-22T14:03:01.000Z</time>
      </trkpt>
      <trkpt lat="43.77561" lon="7.26873">
        <ele>621.40002441406</ele>
        <time>2020-02-22T14:03:03.000Z</time>
      </trkpt>
      <trkpt lat="43.77566" lon="7.26875">
        <ele>621</ele>
        <time>2020-02-22T14:03:04.000Z</time>
      </trkpt>
      <trkpt lat="43.77571" lon="7.26874">
        <ele>620.20001220703</ele>
        <time>2020-02-22T14:03:05.000Z</time>
      </trkpt>
      <trkpt lat="43.77578" lon="7.26873">
        <ele>619.20001220703</ele>
        <time>2020-02-22T14:03:06.000Z</time>
      </trkpt>
      <trkpt lat="43.77584" lon="7.26871">
        <ele>617.79998779297</ele>
        <time>2020-02-22T14:03:07.000Z</time>
      </trkpt>
      <trkpt lat="43.77591" lon="7.26868">
        <ele>616.20001220703</ele>
        <time>2020-02-22T14:03:08.000Z</time>
      </trkpt>
      <trkpt lat="43.77597" lon="7.26865">
        <ele>615.20001220703</ele>
        <time>2020-02-22T14:03:09.000Z</time>
      </trkpt>
      <trkpt lat="43.77601" lon="7.26863">
        <ele>613.79998779297</ele>
        <time>2020-02-22T14:03:10.000Z</time>
      </trkpt>
      <trkpt lat="43.77607" lon="7.2686">
        <ele>612.40002441406</ele>
        <time>2020-02-22T14:03:11.000Z</time>
      </trkpt>
      <trkpt lat="43.77612" lon="7.26858">
        <ele>610.79998779297</ele>
        <time>2020-02-22T14:03:12.000Z</time>
      </trkpt>
      <trkpt lat="43.77619" lon="7.26863">
        <ele>609.20001220703</ele>
        <time>2020-02-22T14:03:14.000Z</time>
      </trkpt>
      <trkpt lat="43.7762" lon="7.26867">
        <ele>608.40002441406</ele>
        <time>2020-02-22T14:03:15.000Z</time>
      </trkpt>
      <trkpt lat="43.7762" lon="7.26872">
        <ele>607.40002441406</ele>
        <time>2020-02-22T14:03:16.000Z</time>
      </trkpt>
      <trkpt lat="43.77618" lon="7.26885">
        <ele>605.59997558594</ele>
        <time>2020-02-22T14:03:18.000Z</time>
      </trkpt>
      <trkpt lat="43.77614" lon="7.26896">
        <ele>603.79998779297</ele>
        <time>2020-02-22T14:03:20.000Z</time>
      </trkpt>
      <trkpt lat="43.77609" lon="7.26902">
        <ele>602</ele>
        <time>2020-02-22T14:03:22.000Z</time>
      </trkpt>
      <trkpt lat="43.77606" lon="7.26908">
        <ele>601</ele>
        <time>2020-02-22T14:03:24.000Z</time>
      </trkpt>
      <trkpt lat="43.77604" lon="7.26911">
        <ele>600.40002441406</ele>
        <time>2020-02-22T14:03:25.000Z</time>
      </trkpt>
      <trkpt lat="43.77601" lon="7.26914">
        <ele>599.59997558594</ele>
        <time>2020-02-22T14:03:26.000Z</time>
      </trkpt>
      <trkpt lat="43.77598" lon="7.26916">
        <ele>599.20001220703</ele>
        <time>2020-02-22T14:03:27.000Z</time>
      </trkpt>
      <trkpt lat="43.77596" lon="7.26918">
        <ele>598</ele>
        <time>2020-02-22T14:03:28.000Z</time>
      </trkpt>
      <trkpt lat="43.77596" lon="7.26919">
        <ele>597.20001220703</ele>
        <time>2020-02-22T14:03:29.000Z</time>
      </trkpt>
      <trkpt lat="43.77594" lon="7.26922">
        <ele>596.79998779297</ele>
        <time>2020-02-22T14:03:30.000Z</time>
      </trkpt>
      <trkpt lat="43.77592" lon="7.26924">
        <ele>596.59997558594</ele>
        <time>2020-02-22T14:03:31.000Z</time>
      </trkpt>
      <trkpt lat="43.77584" lon="7.26932">
        <ele>595.59997558594</ele>
        <time>2020-02-22T14:03:34.000Z</time>
      </trkpt>
      <trkpt lat="43.77581" lon="7.26934">
        <ele>595.59997558594</ele>
        <time>2020-02-22T14:03:35.000Z</time>
      </trkpt>
      <trkpt lat="43.77574" lon="7.26939">
        <ele>594.20001220703</ele>
        <time>2020-02-22T14:03:37.000Z</time>
      </trkpt>
      <trkpt lat="43.77567" lon="7.26942">
        <ele>592.40002441406</ele>
        <time>2020-02-22T14:03:39.000Z</time>
      </trkpt>
      <trkpt lat="43.77565" lon="7.26944">
        <ele>591.59997558594</ele>
        <time>2020-02-22T14:03:40.000Z</time>
      </trkpt>
      <trkpt lat="43.77563" lon="7.26948">
        <ele>591</ele>
        <time>2020-02-22T14:03:41.000Z</time>
      </trkpt>
      <trkpt lat="43.77559" lon="7.26955">
        <ele>590.20001220703</ele>
        <time>2020-02-22T14:03:43.000Z</time>
      </trkpt>
      <trkpt lat="43.77556" lon="7.26958">
        <ele>589.79998779297</ele>
        <time>2020-02-22T14:03:44.000Z</time>
      </trkpt>
      <trkpt lat="43.77551" lon="7.2696">
        <ele>588.79998779297</ele>
        <time>2020-02-22T14:03:46.000Z</time>
      </trkpt>
      <trkpt lat="43.77548" lon="7.2696">
        <ele>588.20001220703</ele>
        <time>2020-02-22T14:03:47.000Z</time>
      </trkpt>
      <trkpt lat="43.77542" lon="7.26966">
        <ele>587.40002441406</ele>
        <time>2020-02-22T14:03:50.000Z</time>
      </trkpt>
      <trkpt lat="43.77539" lon="7.26968">
        <ele>586.79998779297</ele>
        <time>2020-02-22T14:03:52.000Z</time>
      </trkpt>
      <trkpt lat="43.77537" lon="7.2697">
        <ele>586</ele>
        <time>2020-02-22T14:03:53.000Z</time>
      </trkpt>
      <trkpt lat="43.77535" lon="7.26972">
        <ele>585.40002441406</ele>
        <time>2020-02-22T14:03:54.000Z</time>
      </trkpt>
      <trkpt lat="43.77532" lon="7.26975">
        <ele>583.59997558594</ele>
        <time>2020-02-22T14:03:56.000Z</time>
      </trkpt>
      <trkpt lat="43.77528" lon="7.26974">
        <ele>582.40002441406</ele>
        <time>2020-02-22T14:03:58.000Z</time>
      </trkpt>
      <trkpt lat="43.77521" lon="7.26974">
        <ele>581.40002441406</ele>
        <time>2020-02-22T14:04:00.000Z</time>
      </trkpt>
      <trkpt lat="43.77517" lon="7.26973">
        <ele>580.59997558594</ele>
        <time>2020-02-22T14:04:01.000Z</time>
      </trkpt>
      <trkpt lat="43.77515" lon="7.26974">
        <ele>579.40002441406</ele>
        <time>2020-02-22T14:04:02.000Z</time>
      </trkpt>
      <trkpt lat="43.77513" lon="7.26976">
        <ele>578.40002441406</ele>
        <time>2020-02-22T14:04:03.000Z</time>
      </trkpt>
      <trkpt lat="43.7751" lon="7.26977">
        <ele>577.20001220703</ele>
        <time>2020-02-22T14:04:04.000Z</time>
      </trkpt>
      <trkpt lat="43.77505" lon="7.26978">
        <ele>575.59997558594</ele>
        <time>2020-02-22T14:04:06.000Z</time>
      </trkpt>
      <trkpt lat="43.77501" lon="7.26977">
        <ele>574</ele>
        <time>2020-02-22T14:04:08.000Z</time>
      </trkpt>
      <trkpt lat="43.77495" lon="7.26975">
        <ele>572.40002441406</ele>
        <time>2020-02-22T14:04:10.000Z</time>
      </trkpt>
      <trkpt lat="43.77494" lon="7.26978">
        <ele>571.20001220703</ele>
        <time>2020-02-22T14:04:12.000Z</time>
      </trkpt>
      <trkpt lat="43.77494" lon="7.2698">
        <ele>570.40002441406</ele>
        <time>2020-02-22T14:04:13.000Z</time>
      </trkpt>
      <trkpt lat="43.77496" lon="7.26984">
        <ele>569.79998779297</ele>
        <time>2020-02-22T14:04:14.000Z</time>
      </trkpt>
      <trkpt lat="43.77498" lon="7.26986">
        <ele>569.59997558594</ele>
        <time>2020-02-22T14:04:15.000Z</time>
      </trkpt>
      <trkpt lat="43.775" lon="7.26988">
        <ele>569.40002441406</ele>
        <time>2020-02-22T14:04:16.000Z</time>
      </trkpt>
      <trkpt lat="43.77504" lon="7.2699">
        <ele>568.79998779297</ele>
        <time>2020-02-22T14:04:17.000Z</time>
      </trkpt>
      <trkpt lat="43.77519" lon="7.27003">
        <ele>567.40002441406</ele>
        <time>2020-02-22T14:04:22.000Z</time>
      </trkpt>
      <trkpt lat="43.77528" lon="7.27008">
        <ele>567</ele>
        <time>2020-02-22T14:04:24.000Z</time>
      </trkpt>
      <trkpt lat="43.77535" lon="7.27009">
        <ele>566.40002441406</ele>
        <time>2020-02-22T14:04:26.000Z</time>
      </trkpt>
      <trkpt lat="43.77543" lon="7.27012">
        <ele>566.59997558594</ele>
        <time>2020-02-22T14:04:29.000Z</time>
      </trkpt>
      <trkpt lat="43.77546" lon="7.27013">
        <ele>566.59997558594</ele>
        <time>2020-02-22T14:04:30.000Z</time>
      </trkpt>
      <trkpt lat="43.77556" lon="7.2701">
        <ele>565.79998779297</ele>
        <time>2020-02-22T14:04:33.000Z</time>
      </trkpt>
      <trkpt lat="43.77558" lon="7.27015">
        <ele>564.79998779297</ele>
        <time>2020-02-22T14:04:35.000Z</time>
      </trkpt>
      <trkpt lat="43.77557" lon="7.27017">
        <ele>564.20001220703</ele>
        <time>2020-02-22T14:04:36.000Z</time>
      </trkpt>
      <trkpt lat="43.77556" lon="7.27018">
        <ele>563.79998779297</ele>
        <time>2020-02-22T14:04:37.000Z</time>
      </trkpt>
      <trkpt lat="43.77555" lon="7.27022">
        <ele>562.59997558594</ele>
        <time>2020-02-22T14:04:39.000Z</time>
      </trkpt>
      <trkpt lat="43.77554" lon="7.27025">
        <ele>561.20001220703</ele>
        <time>2020-02-22T14:04:41.000Z</time>
      </trkpt>
      <trkpt lat="43.77549" lon="7.27029">
        <ele>559.79998779297</ele>
        <time>2020-02-22T14:04:44.000Z</time>
      </trkpt>
      <trkpt lat="43.77546" lon="7.27031">
        <ele>559.20001220703</ele>
        <time>2020-02-22T14:04:46.000Z</time>
      </trkpt>
      <trkpt lat="43.77545" lon="7.27034">
        <ele>558.20001220703</ele>
        <time>2020-02-22T14:04:48.000Z</time>
      </trkpt>
      <trkpt lat="43.77541" lon="7.27036">
        <ele>557.20001220703</ele>
        <time>2020-02-22T14:04:50.000Z</time>
      </trkpt>
      <trkpt lat="43.77533" lon="7.27038">
        <ele>556</ele>
        <time>2020-02-22T14:04:53.000Z</time>
      </trkpt>
      <trkpt lat="43.7753" lon="7.27038">
        <ele>555.79998779297</ele>
        <time>2020-02-22T14:04:54.000Z</time>
      </trkpt>
      <trkpt lat="43.77527" lon="7.27038">
        <ele>554.40002441406</ele>
        <time>2020-02-22T14:04:56.000Z</time>
      </trkpt>
      <trkpt lat="43.77525" lon="7.27039">
        <ele>553</ele>
        <time>2020-02-22T14:04:58.000Z</time>
      </trkpt>
      <trkpt lat="43.77523" lon="7.27041">
        <ele>551.79998779297</ele>
        <time>2020-02-22T14:05:00.000Z</time>
      </trkpt>
      <trkpt lat="43.77516" lon="7.27041">
        <ele>551</ele>
        <time>2020-02-22T14:05:02.000Z</time>
      </trkpt>
      <trkpt lat="43.77513" lon="7.27041">
        <ele>550.20001220703</ele>
        <time>2020-02-22T14:05:03.000Z</time>
      </trkpt>
      <trkpt lat="43.77506" lon="7.2704">
        <ele>548.79998779297</ele>
        <time>2020-02-22T14:05:05.000Z</time>
      </trkpt>
      <trkpt lat="43.77502" lon="7.2704">
        <ele>548</ele>
        <time>2020-02-22T14:05:06.000Z</time>
      </trkpt>
      <trkpt lat="43.775" lon="7.2704">
        <ele>547.20001220703</ele>
        <time>2020-02-22T14:05:07.000Z</time>
      </trkpt>
      <trkpt lat="43.77494" lon="7.27042">
        <ele>546</ele>
        <time>2020-02-22T14:05:09.000Z</time>
      </trkpt>
      <trkpt lat="43.77492" lon="7.27042">
        <ele>545.40002441406</ele>
        <time>2020-02-22T14:05:10.000Z</time>
      </trkpt>
      <trkpt lat="43.77489" lon="7.27043">
        <ele>544.79998779297</ele>
        <time>2020-02-22T14:05:11.000Z</time>
      </trkpt>
      <trkpt lat="43.77484" lon="7.27041">
        <ele>543.20001220703</ele>
        <time>2020-02-22T14:05:13.000Z</time>
      </trkpt>
      <trkpt lat="43.77481" lon="7.2704">
        <ele>542.40002441406</ele>
        <time>2020-02-22T14:05:14.000Z</time>
      </trkpt>
      <trkpt lat="43.77478" lon="7.27039">
        <ele>541.20001220703</ele>
        <time>2020-02-22T14:05:15.000Z</time>
      </trkpt>
      <trkpt lat="43.77471" lon="7.27038">
        <ele>540.20001220703</ele>
        <time>2020-02-22T14:05:17.000Z</time>
      </trkpt>
      <trkpt lat="43.77467" lon="7.27038">
        <ele>539.79998779297</ele>
        <time>2020-02-22T14:05:18.000Z</time>
      </trkpt>
      <trkpt lat="43.7746" lon="7.27035">
        <ele>539</ele>
        <time>2020-02-22T14:05:20.000Z</time>
      </trkpt>
      <trkpt lat="43.77454" lon="7.27033">
        <ele>538</ele>
        <time>2020-02-22T14:05:22.000Z</time>
      </trkpt>
      <trkpt lat="43.77448" lon="7.27032">
        <ele>536.59997558594</ele>
        <time>2020-02-22T14:05:24.000Z</time>
      </trkpt>
      <trkpt lat="43.77445" lon="7.27032">
        <ele>536.20001220703</ele>
        <time>2020-02-22T14:05:25.000Z</time>
      </trkpt>
      <trkpt lat="43.77442" lon="7.27031">
        <ele>535.59997558594</ele>
        <time>2020-02-22T14:05:26.000Z</time>
      </trkpt>
      <trkpt lat="43.77438" lon="7.27031">
        <ele>535.20001220703</ele>
        <time>2020-02-22T14:05:27.000Z</time>
      </trkpt>
      <trkpt lat="43.77435" lon="7.27032">
        <ele>534.40002441406</ele>
        <time>2020-02-22T14:05:28.000Z</time>
      </trkpt>
      <trkpt lat="43.7743" lon="7.27033">
        <ele>532.59997558594</ele>
        <time>2020-02-22T14:05:30.000Z</time>
      </trkpt>
      <trkpt lat="43.77428" lon="7.27033">
        <ele>531.59997558594</ele>
        <time>2020-02-22T14:05:31.000Z</time>
      </trkpt>
      <trkpt lat="43.77424" lon="7.27035">
        <ele>529.59997558594</ele>
        <time>2020-02-22T14:05:33.000Z</time>
      </trkpt>
      <trkpt lat="43.77421" lon="7.27035">
        <ele>529</ele>
        <time>2020-02-22T14:05:34.000Z</time>
      </trkpt>
      <trkpt lat="43.77418" lon="7.27035">
        <ele>528.40002441406</ele>
        <time>2020-02-22T14:05:35.000Z</time>
      </trkpt>
      <trkpt lat="43.7741" lon="7.27035">
        <ele>527.40002441406</ele>
        <time>2020-02-22T14:05:38.000Z</time>
      </trkpt>
      <trkpt lat="43.77405" lon="7.27034">
        <ele>526.40002441406</ele>
        <time>2020-02-22T14:05:40.000Z</time>
      </trkpt>
      <trkpt lat="43.77401" lon="7.27034">
        <ele>525.79998779297</ele>
        <time>2020-02-22T14:05:42.000Z</time>
      </trkpt>
      <trkpt lat="43.77399" lon="7.27035">
        <ele>525.20001220703</ele>
        <time>2020-02-22T14:05:44.000Z</time>
      </trkpt>
      <trkpt lat="43.77389" lon="7.27035">
        <ele>524.59997558594</ele>
        <time>2020-02-22T14:05:48.000Z</time>
      </trkpt>
      <trkpt lat="43.77386" lon="7.27035">
        <ele>524.40002441406</ele>
        <time>2020-02-22T14:05:49.000Z</time>
      </trkpt>
      <trkpt lat="43.77383" lon="7.27035">
        <ele>524</ele>
        <time>2020-02-22T14:05:50.000Z</time>
      </trkpt>
      <trkpt lat="43.77374" lon="7.27037">
        <ele>523.40002441406</ele>
        <time>2020-02-22T14:05:53.000Z</time>
      </trkpt>
      <trkpt lat="43.77369" lon="7.27038">
        <ele>522.79998779297</ele>
        <time>2020-02-22T14:05:55.000Z</time>
      </trkpt>
      <trkpt lat="43.77364" lon="7.27038">
        <ele>521.79998779297</ele>
        <time>2020-02-22T14:05:57.000Z</time>
      </trkpt>
      <trkpt lat="43.77358" lon="7.2704">
        <ele>521</ele>
        <time>2020-02-22T14:05:59.000Z</time>
      </trkpt>
      <trkpt lat="43.77355" lon="7.2704">
        <ele>520.59997558594</ele>
        <time>2020-02-22T14:06:00.000Z</time>
      </trkpt>
      <trkpt lat="43.77349" lon="7.27039">
        <ele>519.79998779297</ele>
        <time>2020-02-22T14:06:02.000Z</time>
      </trkpt>
      <trkpt lat="43.77346" lon="7.27039">
        <ele>519.20001220703</ele>
        <time>2020-02-22T14:06:03.000Z</time>
      </trkpt>
      <trkpt lat="43.77336" lon="7.27037">
        <ele>517.79998779297</ele>
        <time>2020-02-22T14:06:06.000Z</time>
      </trkpt>
      <trkpt lat="43.77334" lon="7.27037">
        <ele>517.40002441406</ele>
        <time>2020-02-22T14:06:07.000Z</time>
      </trkpt>
      <trkpt lat="43.77333" lon="7.27038">
        <ele>516.59997558594</ele>
        <time>2020-02-22T14:06:10.000Z</time>
      </trkpt>
      <trkpt lat="43.77333" lon="7.27043">
        <ele>515.59997558594</ele>
        <time>2020-02-22T14:06:14.000Z</time>
      </trkpt>
      <trkpt lat="43.77333" lon="7.27043">
        <ele>514.40002441406</ele>
        <time>2020-02-22T14:06:18.000Z</time>
      </trkpt>
      <trkpt lat="43.77332" lon="7.27044">
        <ele>514</ele>
        <time>2020-02-22T14:06:21.000Z</time>
      </trkpt>
      <trkpt lat="43.7733" lon="7.27044">
        <ele>514</ele>
        <time>2020-02-22T14:06:22.000Z</time>
      </trkpt>
      <trkpt lat="43.77325" lon="7.27046">
        <ele>513.20001220703</ele>
        <time>2020-02-22T14:06:26.000Z</time>
      </trkpt>
      <trkpt lat="43.77323" lon="7.27046">
        <ele>512.79998779297</ele>
        <time>2020-02-22T14:06:27.000Z</time>
      </trkpt>
      <trkpt lat="43.77319" lon="7.27045">
        <ele>512</ele>
        <time>2020-02-22T14:06:29.000Z</time>
      </trkpt>
      <trkpt lat="43.77315" lon="7.27043">
        <ele>510.79998779297</ele>
        <time>2020-02-22T14:06:31.000Z</time>
      </trkpt>
      <trkpt lat="43.77311" lon="7.27039">
        <ele>509.39999389648</ele>
        <time>2020-02-22T14:06:33.000Z</time>
      </trkpt>
      <trkpt lat="43.77307" lon="7.27036">
        <ele>508.20001220703</ele>
        <time>2020-02-22T14:06:35.000Z</time>
      </trkpt>
      <trkpt lat="43.77304" lon="7.27035">
        <ele>507.79998779297</ele>
        <time>2020-02-22T14:06:36.000Z</time>
      </trkpt>
      <trkpt lat="43.77299" lon="7.27036">
        <ele>506.60000610352</ele>
        <time>2020-02-22T14:06:38.000Z</time>
      </trkpt>
      <trkpt lat="43.77298" lon="7.27041">
        <ele>505.39999389648</ele>
        <time>2020-02-22T14:06:40.000Z</time>
      </trkpt>
      <trkpt lat="43.77297" lon="7.27045">
        <ele>505.20001220703</ele>
        <time>2020-02-22T14:06:41.000Z</time>
      </trkpt>
      <trkpt lat="43.77294" lon="7.2706">
        <ele>504.60000610352</ele>
        <time>2020-02-22T14:06:44.000Z</time>
      </trkpt>
      <trkpt lat="43.77294" lon="7.27066">
        <ele>504</ele>
        <time>2020-02-22T14:06:45.000Z</time>
      </trkpt>
      <trkpt lat="43.77296" lon="7.2708">
        <ele>502.20001220703</ele>
        <time>2020-02-22T14:06:47.000Z</time>
      </trkpt>
      <trkpt lat="43.773" lon="7.27091">
        <ele>501</ele>
        <time>2020-02-22T14:06:49.000Z</time>
      </trkpt>
      <trkpt lat="43.77303" lon="7.27102">
        <ele>500.20001220703</ele>
        <time>2020-02-22T14:06:51.000Z</time>
      </trkpt>
      <trkpt lat="43.77303" lon="7.27107">
        <ele>499.39999389648</ele>
        <time>2020-02-22T14:06:52.000Z</time>
      </trkpt>
      <trkpt lat="43.77303" lon="7.27113">
        <ele>498.60000610352</ele>
        <time>2020-02-22T14:06:53.000Z</time>
      </trkpt>
      <trkpt lat="43.77302" lon="7.27117">
        <ele>498</ele>
        <time>2020-02-22T14:06:54.000Z</time>
      </trkpt>
      <trkpt lat="43.77302" lon="7.27121">
        <ele>496.79998779297</ele>
        <time>2020-02-22T14:06:55.000Z</time>
      </trkpt>
      <trkpt lat="43.773" lon="7.27125">
        <ele>495.60000610352</ele>
        <time>2020-02-22T14:06:56.000Z</time>
      </trkpt>
      <trkpt lat="43.77298" lon="7.27132">
        <ele>494.20001220703</ele>
        <time>2020-02-22T14:06:58.000Z</time>
      </trkpt>
      <trkpt lat="43.77293" lon="7.27138">
        <ele>492.60000610352</ele>
        <time>2020-02-22T14:07:00.000Z</time>
      </trkpt>
      <trkpt lat="43.7729" lon="7.27141">
        <ele>491.39999389648</ele>
        <time>2020-02-22T14:07:01.000Z</time>
      </trkpt>
      <trkpt lat="43.77288" lon="7.27143">
        <ele>490</ele>
        <time>2020-02-22T14:07:02.000Z</time>
      </trkpt>
      <trkpt lat="43.77284" lon="7.27147">
        <ele>488</ele>
        <time>2020-02-22T14:07:04.000Z</time>
      </trkpt>
      <trkpt lat="43.77281" lon="7.2715">
        <ele>486.60000610352</ele>
        <time>2020-02-22T14:07:06.000Z</time>
      </trkpt>
      <trkpt lat="43.77282" lon="7.2715">
        <ele>486</ele>
        <time>2020-02-22T14:07:07.000Z</time>
      </trkpt>
      <trkpt lat="43.77283" lon="7.2715">
        <ele>485.60000610352</ele>
        <time>2020-02-22T14:07:08.000Z</time>
      </trkpt>
      <trkpt lat="43.77291" lon="7.27152">
        <ele>485</ele>
        <time>2020-02-22T14:07:12.000Z</time>
      </trkpt>
      <trkpt lat="43.77295" lon="7.27154">
        <ele>484.20001220703</ele>
        <time>2020-02-22T14:07:14.000Z</time>
      </trkpt>
      <trkpt lat="43.77299" lon="7.27157">
        <ele>483.20001220703</ele>
        <time>2020-02-22T14:07:16.000Z</time>
      </trkpt>
      <trkpt lat="43.77301" lon="7.27157">
        <ele>482.60000610352</ele>
        <time>2020-02-22T14:07:17.000Z</time>
      </trkpt>
      <trkpt lat="43.77304" lon="7.27156">
        <ele>481.39999389648</ele>
        <time>2020-02-22T14:07:18.000Z</time>
      </trkpt>
      <trkpt lat="43.77307" lon="7.27155">
        <ele>480.39999389648</ele>
        <time>2020-02-22T14:07:19.000Z</time>
      </trkpt>
      <trkpt lat="43.77311" lon="7.27155">
        <ele>479</ele>
        <time>2020-02-22T14:07:21.000Z</time>
      </trkpt>
      <trkpt lat="43.77313" lon="7.27156">
        <ele>478.60000610352</ele>
        <time>2020-02-22T14:07:22.000Z</time>
      </trkpt>
      <trkpt lat="43.77317" lon="7.27157">
        <ele>477.79998779297</ele>
        <time>2020-02-22T14:07:24.000Z</time>
      </trkpt>
      <trkpt lat="43.77321" lon="7.27155">
        <ele>476.79998779297</ele>
        <time>2020-02-22T14:07:26.000Z</time>
      </trkpt>
      <trkpt lat="43.77322" lon="7.27156">
        <ele>476</ele>
        <time>2020-02-22T14:07:27.000Z</time>
      </trkpt>
      <trkpt lat="43.77322" lon="7.27157">
        <ele>475.20001220703</ele>
        <time>2020-02-22T14:07:28.000Z</time>
      </trkpt>
      <trkpt lat="43.77321" lon="7.27161">
        <ele>473.79998779297</ele>
        <time>2020-02-22T14:07:30.000Z</time>
      </trkpt>
      <trkpt lat="43.7732" lon="7.27163">
        <ele>473.20001220703</ele>
        <time>2020-02-22T14:07:31.000Z</time>
      </trkpt>
      <trkpt lat="43.77319" lon="7.27167">
        <ele>472.60000610352</ele>
        <time>2020-02-22T14:07:33.000Z</time>
      </trkpt>
      <trkpt lat="43.77317" lon="7.27172">
        <ele>471.79998779297</ele>
        <time>2020-02-22T14:07:35.000Z</time>
      </trkpt>
      <trkpt lat="43.77314" lon="7.27175">
        <ele>471.39999389648</ele>
        <time>2020-02-22T14:07:36.000Z</time>
      </trkpt>
      <trkpt lat="43.77311" lon="7.27179">
        <ele>470</ele>
        <time>2020-02-22T14:07:38.000Z</time>
      </trkpt>
      <trkpt lat="43.7731" lon="7.27182">
        <ele>469.20001220703</ele>
        <time>2020-02-22T14:07:39.000Z</time>
      </trkpt>
      <trkpt lat="43.77309" lon="7.27184">
        <ele>468.60000610352</ele>
        <time>2020-02-22T14:07:40.000Z</time>
      </trkpt>
      <trkpt lat="43.77307" lon="7.27188">
        <ele>468</ele>
        <time>2020-02-22T14:07:41.000Z</time>
      </trkpt>
      <trkpt lat="43.77304" lon="7.2719">
        <ele>467.20001220703</ele>
        <time>2020-02-22T14:07:42.000Z</time>
      </trkpt>
      <trkpt lat="43.77301" lon="7.27191">
        <ele>466.79998779297</ele>
        <time>2020-02-22T14:07:43.000Z</time>
      </trkpt>
      <trkpt lat="43.77295" lon="7.27191">
        <ele>465.60000610352</ele>
        <time>2020-02-22T14:07:45.000Z</time>
      </trkpt>
      <trkpt lat="43.77288" lon="7.27192">
        <ele>464</ele>
        <time>2020-02-22T14:07:47.000Z</time>
      </trkpt>
      <trkpt lat="43.77281" lon="7.27197">
        <ele>462</ele>
        <time>2020-02-22T14:07:49.000Z</time>
      </trkpt>
      <trkpt lat="43.7728" lon="7.27201">
        <ele>461.60000610352</ele>
        <time>2020-02-22T14:07:50.000Z</time>
      </trkpt>
      <trkpt lat="43.77279" lon="7.27207">
        <ele>461</ele>
        <time>2020-02-22T14:07:51.000Z</time>
      </trkpt>
      <trkpt lat="43.77279" lon="7.27216">
        <ele>459.79998779297</ele>
        <time>2020-02-22T14:07:53.000Z</time>
      </trkpt>
      <trkpt lat="43.77279" lon="7.2722">
        <ele>459.20001220703</ele>
        <time>2020-02-22T14:07:54.000Z</time>
      </trkpt>
      <trkpt lat="43.77279" lon="7.27222">
        <ele>458.20001220703</ele>
        <time>2020-02-22T14:07:55.000Z</time>
      </trkpt>
      <trkpt lat="43.77278" lon="7.27228">
        <ele>456.60000610352</ele>
        <time>2020-02-22T14:07:57.000Z</time>
      </trkpt>
      <trkpt lat="43.77276" lon="7.27235">
        <ele>455.20001220703</ele>
        <time>2020-02-22T14:07:59.000Z</time>
      </trkpt>
      <trkpt lat="43.77275" lon="7.27238">
        <ele>454.20001220703</ele>
        <time>2020-02-22T14:08:00.000Z</time>
      </trkpt>
      <trkpt lat="43.77272" lon="7.27242">
        <ele>452.60000610352</ele>
        <time>2020-02-22T14:08:02.000Z</time>
      </trkpt>
      <trkpt lat="43.77269" lon="7.27244">
        <ele>452.20001220703</ele>
        <time>2020-02-22T14:08:03.000Z</time>
      </trkpt>
      <trkpt lat="43.77266" lon="7.27245">
        <ele>451</ele>
        <time>2020-02-22T14:08:04.000Z</time>
      </trkpt>
      <trkpt lat="43.77262" lon="7.27246">
        <ele>449.79998779297</ele>
        <time>2020-02-22T14:08:06.000Z</time>
      </trkpt>
      <trkpt lat="43.77259" lon="7.27246">
        <ele>449.20001220703</ele>
        <time>2020-02-22T14:08:07.000Z</time>
      </trkpt>
      <trkpt lat="43.77256" lon="7.27248">
        <ele>448.79998779297</ele>
        <time>2020-02-22T14:08:08.000Z</time>
      </trkpt>
      <trkpt lat="43.77253" lon="7.27248">
        <ele>448.79998779297</ele>
        <time>2020-02-22T14:08:09.000Z</time>
      </trkpt>
      <trkpt lat="43.77245" lon="7.27249">
        <ele>449.79998779297</ele>
        <time>2020-02-22T14:08:12.000Z</time>
      </trkpt>
      <trkpt lat="43.77244" lon="7.27251">
        <ele>450.79998779297</ele>
        <time>2020-02-22T14:08:13.000Z</time>
      </trkpt>
      <trkpt lat="43.77243" lon="7.27253">
        <ele>451.39999389648</ele>
        <time>2020-02-22T14:08:14.000Z</time>
      </trkpt>
      <trkpt lat="43.7724" lon="7.27257">
        <ele>452.79998779297</ele>
        <time>2020-02-22T14:08:16.000Z</time>
      </trkpt>
      <trkpt lat="43.77235" lon="7.27261">
        <ele>453</ele>
        <time>2020-02-22T14:08:18.000Z</time>
      </trkpt>
      <trkpt lat="43.77224" lon="7.27268">
        <ele>453</ele>
        <time>2020-02-22T14:08:23.000Z</time>
      </trkpt>
      <trkpt lat="43.77217" lon="7.27277">
        <ele>454</ele>
        <time>2020-02-22T14:08:27.000Z</time>
      </trkpt>
      <trkpt lat="43.77215" lon="7.27281">
        <ele>454</ele>
        <time>2020-02-22T14:08:29.000Z</time>
      </trkpt>
      <trkpt lat="43.77212" lon="7.27285">
        <ele>453.79998779297</ele>
        <time>2020-02-22T14:08:31.000Z</time>
      </trkpt>
      <trkpt lat="43.77212" lon="7.27291">
        <ele>453.39999389648</ele>
        <time>2020-02-22T14:08:33.000Z</time>
      </trkpt>
      <trkpt lat="43.77211" lon="7.27292">
        <ele>452.79998779297</ele>
        <time>2020-02-22T14:08:34.000Z</time>
      </trkpt>
      <trkpt lat="43.77212" lon="7.27294">
        <ele>451.39999389648</ele>
        <time>2020-02-22T14:08:37.000Z</time>
      </trkpt>
      <trkpt lat="43.77214" lon="7.27295">
        <ele>450.20001220703</ele>
        <time>2020-02-22T14:08:41.000Z</time>
      </trkpt>
      <trkpt lat="43.77214" lon="7.27295">
        <ele>450.20001220703</ele>
        <time>2020-02-22T14:08:42.000Z</time>
      </trkpt>
      <trkpt lat="43.77212" lon="7.27297">
        <ele>450</ele>
        <time>2020-02-22T14:08:56.000Z</time>
      </trkpt>
      <trkpt lat="43.77212" lon="7.27296">
        <ele>450</ele>
        <time>2020-02-22T14:09:07.000Z</time>
      </trkpt>
      <trkpt lat="43.77211" lon="7.27296">
        <ele>450</ele>
        <time>2020-02-22T14:09:18.000Z</time>
      </trkpt>
      <trkpt lat="43.77212" lon="7.27296">
        <ele>450</ele>
        <time>2020-02-22T14:09:29.000Z</time>
      </trkpt>
      <trkpt lat="43.77214" lon="7.27296">
        <ele>450</ele>
        <time>2020-02-22T14:09:30.000Z</time>
      </trkpt>
      <trkpt lat="43.77222" lon="7.27299">
        <ele>449.39999389648</ele>
        <time>2020-02-22T14:09:34.000Z</time>
      </trkpt>
      <trkpt lat="43.77223" lon="7.27302">
        <ele>449.20001220703</ele>
        <time>2020-02-22T14:09:35.000Z</time>
      </trkpt>
      <trkpt lat="43.77226" lon="7.27306">
        <ele>448</ele>
        <time>2020-02-22T14:09:37.000Z</time>
      </trkpt>
      <trkpt lat="43.77231" lon="7.27307">
        <ele>446.20001220703</ele>
        <time>2020-02-22T14:09:39.000Z</time>
      </trkpt>
      <trkpt lat="43.77233" lon="7.27307">
        <ele>445.60000610352</ele>
        <time>2020-02-22T14:09:40.000Z</time>
      </trkpt>
      <trkpt lat="43.77236" lon="7.27307">
        <ele>445</ele>
        <time>2020-02-22T14:09:41.000Z</time>
      </trkpt>
      <trkpt lat="43.7724" lon="7.27311">
        <ele>444</ele>
        <time>2020-02-22T14:09:43.000Z</time>
      </trkpt>
      <trkpt lat="43.7724" lon="7.27314">
        <ele>442.79998779297</ele>
        <time>2020-02-22T14:09:44.000Z</time>
      </trkpt>
      <trkpt lat="43.7724" lon="7.27318">
        <ele>441.79998779297</ele>
        <time>2020-02-22T14:09:45.000Z</time>
      </trkpt>
      <trkpt lat="43.77242" lon="7.27327">
        <ele>440.39999389648</ele>
        <time>2020-02-22T14:09:47.000Z</time>
      </trkpt>
      <trkpt lat="43.77244" lon="7.2733">
        <ele>439.79998779297</ele>
        <time>2020-02-22T14:09:48.000Z</time>
      </trkpt>
      <trkpt lat="43.77246" lon="7.27334">
        <ele>439.20001220703</ele>
        <time>2020-02-22T14:09:49.000Z</time>
      </trkpt>
      <trkpt lat="43.77249" lon="7.27344">
        <ele>438</ele>
        <time>2020-02-22T14:09:51.000Z</time>
      </trkpt>
      <trkpt lat="43.77251" lon="7.27349">
        <ele>437.39999389648</ele>
        <time>2020-02-22T14:09:52.000Z</time>
      </trkpt>
      <trkpt lat="43.77252" lon="7.27353">
        <ele>436.79998779297</ele>
        <time>2020-02-22T14:09:53.000Z</time>
      </trkpt>
      <trkpt lat="43.77255" lon="7.2736">
        <ele>435.39999389648</ele>
        <time>2020-02-22T14:09:55.000Z</time>
      </trkpt>
      <trkpt lat="43.77257" lon="7.27364">
        <ele>434.60000610352</ele>
        <time>2020-02-22T14:09:56.000Z</time>
      </trkpt>
      <trkpt lat="43.77259" lon="7.27366">
        <ele>433.79998779297</ele>
        <time>2020-02-22T14:09:57.000Z</time>
      </trkpt>
      <trkpt lat="43.77261" lon="7.27367">
        <ele>432.60000610352</ele>
        <time>2020-02-22T14:09:58.000Z</time>
      </trkpt>
      <trkpt lat="43.77263" lon="7.27368">
        <ele>430.79998779297</ele>
        <time>2020-02-22T14:10:00.000Z</time>
      </trkpt>
      <trkpt lat="43.77266" lon="7.27372">
        <ele>429</ele>
        <time>2020-02-22T14:10:02.000Z</time>
      </trkpt>
      <trkpt lat="43.77267" lon="7.27373">
        <ele>428.39999389648</ele>
        <time>2020-02-22T14:10:03.000Z</time>
      </trkpt>
      <trkpt lat="43.77268" lon="7.27371">
        <ele>427.39999389648</ele>
        <time>2020-02-22T14:10:04.000Z</time>
      </trkpt>
      <trkpt lat="43.77268" lon="7.27367">
        <ele>426.20001220703</ele>
        <time>2020-02-22T14:10:06.000Z</time>
      </trkpt>
      <trkpt lat="43.77268" lon="7.27367">
        <ele>425.39999389648</ele>
        <time>2020-02-22T14:10:08.000Z</time>
      </trkpt>
      <trkpt lat="43.77267" lon="7.27366">
        <ele>425.60000610352</ele>
        <time>2020-02-22T14:10:16.000Z</time>
      </trkpt>
      <trkpt lat="43.77267" lon="7.27366">
        <ele>425.20001220703</ele>
        <time>2020-02-22T14:10:29.000Z</time>
      </trkpt>
      <trkpt lat="43.77265" lon="7.27364">
        <ele>425.79998779297</ele>
        <time>2020-02-22T14:10:36.000Z</time>
      </trkpt>
      <trkpt lat="43.77263" lon="7.27358">
        <ele>425.60000610352</ele>
        <time>2020-02-22T14:10:43.000Z</time>
      </trkpt>
      <trkpt lat="43.77263" lon="7.27344">
        <ele>425.60000610352</ele>
        <time>2020-02-22T14:10:47.000Z</time>
      </trkpt>
      <trkpt lat="43.77265" lon="7.27333">
        <ele>425</ele>
        <time>2020-02-22T14:10:49.000Z</time>
      </trkpt>
      <trkpt lat="43.77269" lon="7.27321">
        <ele>424.20001220703</ele>
        <time>2020-02-22T14:10:51.000Z</time>
      </trkpt>
      <trkpt lat="43.77277" lon="7.27304">
        <ele>422.79998779297</ele>
        <time>2020-02-22T14:10:54.000Z</time>
      </trkpt>
      <trkpt lat="43.77279" lon="7.27299">
        <ele>422.39999389648</ele>
        <time>2020-02-22T14:10:55.000Z</time>
      </trkpt>
      <trkpt lat="43.77284" lon="7.27288">
        <ele>422.20001220703</ele>
        <time>2020-02-22T14:10:57.000Z</time>
      </trkpt>
      <trkpt lat="43.77293" lon="7.27266">
        <ele>421.79998779297</ele>
        <time>2020-02-22T14:11:02.000Z</time>
      </trkpt>
      <trkpt lat="43.77302" lon="7.27257">
        <ele>421.79998779297</ele>
        <time>2020-02-22T14:11:05.000Z</time>
      </trkpt>
      <trkpt lat="43.7731" lon="7.27254">
        <ele>421.60000610352</ele>
        <time>2020-02-22T14:11:07.000Z</time>
      </trkpt>
      <trkpt lat="43.77327" lon="7.2725">
        <ele>420.79998779297</ele>
        <time>2020-02-22T14:11:10.000Z</time>
      </trkpt>
      <trkpt lat="43.77335" lon="7.27249">
        <ele>420.39999389648</ele>
        <time>2020-02-22T14:11:11.000Z</time>
      </trkpt>
      <trkpt lat="43.77351" lon="7.27248">
        <ele>418.60000610352</ele>
        <time>2020-02-22T14:11:13.000Z</time>
      </trkpt>
      <trkpt lat="43.77359" lon="7.27246">
        <ele>417.60000610352</ele>
        <time>2020-02-22T14:11:14.000Z</time>
      </trkpt>
      <trkpt lat="43.77366" lon="7.27245">
        <ele>416.39999389648</ele>
        <time>2020-02-22T14:11:15.000Z</time>
      </trkpt>
      <trkpt lat="43.77372" lon="7.27244">
        <ele>415.20001220703</ele>
        <time>2020-02-22T14:11:16.000Z</time>
      </trkpt>
      <trkpt lat="43.77377" lon="7.27244">
        <ele>414.20001220703</ele>
        <time>2020-02-22T14:11:17.000Z</time>
      </trkpt>
      <trkpt lat="43.77379" lon="7.27245">
        <ele>413</ele>
        <time>2020-02-22T14:11:18.000Z</time>
      </trkpt>
      <trkpt lat="43.77381" lon="7.27246">
        <ele>412</ele>
        <time>2020-02-22T14:11:21.000Z</time>
      </trkpt>
      <trkpt lat="43.77382" lon="7.27246">
        <ele>412</ele>
        <time>2020-02-22T14:11:22.000Z</time>
      </trkpt>
      <trkpt lat="43.77382" lon="7.27245">
        <ele>412</ele>
        <time>2020-02-22T14:11:34.000Z</time>
      </trkpt>
      <trkpt lat="43.77382" lon="7.27247">
        <ele>412.20001220703</ele>
        <time>2020-02-22T14:11:47.000Z</time>
      </trkpt>
      <trkpt lat="43.77382" lon="7.27247">
        <ele>412.20001220703</ele>
        <time>2020-02-22T14:11:56.000Z</time>
      </trkpt>
      <trkpt lat="43.77381" lon="7.27242">
        <ele>412</ele>
        <time>2020-02-22T14:12:13.000Z</time>
      </trkpt>
      <trkpt lat="43.77382" lon="7.27243">
        <ele>412.20001220703</ele>
        <time>2020-02-22T14:12:27.000Z</time>
      </trkpt>
      <trkpt lat="43.77383" lon="7.27242">
        <ele>412.20001220703</ele>
        <time>2020-02-22T14:12:43.000Z</time>
      </trkpt>
      <trkpt lat="43.77391" lon="7.27248">
        <ele>412.20001220703</ele>
        <time>2020-02-22T14:12:49.000Z</time>
      </trkpt>
      <trkpt lat="43.77403" lon="7.27255">
        <ele>411.79998779297</ele>
        <time>2020-02-22T14:12:54.000Z</time>
      </trkpt>
      <trkpt lat="43.77417" lon="7.27258">
        <ele>411</ele>
        <time>2020-02-22T14:12:58.000Z</time>
      </trkpt>
      <trkpt lat="43.77421" lon="7.27259">
        <ele>410.60000610352</ele>
        <time>2020-02-22T14:12:59.000Z</time>
      </trkpt>
      <trkpt lat="43.7743" lon="7.27263">
        <ele>409.79998779297</ele>
        <time>2020-02-22T14:13:01.000Z</time>
      </trkpt>
      <trkpt lat="43.7744" lon="7.27268">
        <ele>408.60000610352</ele>
        <time>2020-02-22T14:13:03.000Z</time>
      </trkpt>
      <trkpt lat="43.77445" lon="7.2727">
        <ele>408.20001220703</ele>
        <time>2020-02-22T14:13:04.000Z</time>
      </trkpt>
      <trkpt lat="43.77451" lon="7.27273">
        <ele>407.60000610352</ele>
        <time>2020-02-22T14:13:05.000Z</time>
      </trkpt>
      <trkpt lat="43.77465" lon="7.27278">
        <ele>406</ele>
        <time>2020-02-22T14:13:07.000Z</time>
      </trkpt>
      <trkpt lat="43.7748" lon="7.27283">
        <ele>403.79998779297</ele>
        <time>2020-02-22T14:13:09.000Z</time>
      </trkpt>
      <trkpt lat="43.77498" lon="7.27289">
        <ele>401.79998779297</ele>
        <time>2020-02-22T14:13:11.000Z</time>
      </trkpt>
      <trkpt lat="43.77506" lon="7.27291">
        <ele>400.60000610352</ele>
        <time>2020-02-22T14:13:12.000Z</time>
      </trkpt>
      <trkpt lat="43.77514" lon="7.27293">
        <ele>399.39999389648</ele>
        <time>2020-02-22T14:13:13.000Z</time>
      </trkpt>
      <trkpt lat="43.77522" lon="7.27293">
        <ele>398</ele>
        <time>2020-02-22T14:13:14.000Z</time>
      </trkpt>
      <trkpt lat="43.77529" lon="7.27292">
        <ele>396.79998779297</ele>
        <time>2020-02-22T14:13:15.000Z</time>
      </trkpt>
      <trkpt lat="43.77537" lon="7.27292">
        <ele>395.60000610352</ele>
        <time>2020-02-22T14:13:16.000Z</time>
      </trkpt>
      <trkpt lat="43.77554" lon="7.27292">
        <ele>394</ele>
        <time>2020-02-22T14:13:18.000Z</time>
      </trkpt>
      <trkpt lat="43.77563" lon="7.27292">
        <ele>393.20001220703</ele>
        <time>2020-02-22T14:13:19.000Z</time>
      </trkpt>
      <trkpt lat="43.77571" lon="7.27294">
        <ele>392.39999389648</ele>
        <time>2020-02-22T14:13:20.000Z</time>
      </trkpt>
      <trkpt lat="43.77581" lon="7.27295">
        <ele>391</ele>
        <time>2020-02-22T14:13:21.000Z</time>
      </trkpt>
      <trkpt lat="43.77589" lon="7.27295">
        <ele>390</ele>
        <time>2020-02-22T14:13:22.000Z</time>
      </trkpt>
      <trkpt lat="43.77598" lon="7.27295">
        <ele>388.60000610352</ele>
        <time>2020-02-22T14:13:23.000Z</time>
      </trkpt>
      <trkpt lat="43.77607" lon="7.27295">
        <ele>387.20001220703</ele>
        <time>2020-02-22T14:13:24.000Z</time>
      </trkpt>
      <trkpt lat="43.77615" lon="7.27295">
        <ele>385.79998779297</ele>
        <time>2020-02-22T14:13:25.000Z</time>
      </trkpt>
      <trkpt lat="43.77624" lon="7.27293">
        <ele>384.79998779297</ele>
        <time>2020-02-22T14:13:26.000Z</time>
      </trkpt>
      <trkpt lat="43.77632" lon="7.27292">
        <ele>383.79998779297</ele>
        <time>2020-02-22T14:13:27.000Z</time>
      </trkpt>
      <trkpt lat="43.7764" lon="7.27291">
        <ele>382.60000610352</ele>
        <time>2020-02-22T14:13:28.000Z</time>
      </trkpt>
      <trkpt lat="43.77658" lon="7.2729">
        <ele>381.60000610352</ele>
        <time>2020-02-22T14:13:30.000Z</time>
      </trkpt>
      <trkpt lat="43.77667" lon="7.27291">
        <ele>381</ele>
        <time>2020-02-22T14:13:31.000Z</time>
      </trkpt>
      <trkpt lat="43.77692" lon="7.27291">
        <ele>380.39999389648</ele>
        <time>2020-02-22T14:13:34.000Z</time>
      </trkpt>
      <trkpt lat="43.777" lon="7.27289">
        <ele>379.60000610352</ele>
        <time>2020-02-22T14:13:35.000Z</time>
      </trkpt>
      <trkpt lat="43.77721" lon="7.27282">
        <ele>378.20001220703</ele>
        <time>2020-02-22T14:13:38.000Z</time>
      </trkpt>
      <trkpt lat="43.77726" lon="7.27279">
        <ele>377.79998779297</ele>
        <time>2020-02-22T14:13:39.000Z</time>
      </trkpt>
      <trkpt lat="43.77736" lon="7.27271">
        <ele>379.60000610352</ele>
        <time>2020-02-22T14:13:42.000Z</time>
      </trkpt>
      <trkpt lat="43.77739" lon="7.27268">
        <ele>380.20001220703</ele>
        <time>2020-02-22T14:13:43.000Z</time>
      </trkpt>
      <trkpt lat="43.77741" lon="7.27266">
        <ele>380.79998779297</ele>
        <time>2020-02-22T14:13:44.000Z</time>
      </trkpt>
      <trkpt lat="43.77748" lon="7.2726">
        <ele>381.60000610352</ele>
        <time>2020-02-22T14:13:48.000Z</time>
      </trkpt>
      <trkpt lat="43.77749" lon="7.27259">
        <ele>381.79998779297</ele>
        <time>2020-02-22T14:13:49.000Z</time>
      </trkpt>
      <trkpt lat="43.77756" lon="7.2725">
        <ele>381.79998779297</ele>
        <time>2020-02-22T14:13:54.000Z</time>
      </trkpt>
      <trkpt lat="43.77772" lon="7.2724">
        <ele>381.79998779297</ele>
        <time>2020-02-22T14:14:01.000Z</time>
      </trkpt>
      <trkpt lat="43.77795" lon="7.27234">
        <ele>381.20001220703</ele>
        <time>2020-02-22T14:14:08.000Z</time>
      </trkpt>
      <trkpt lat="43.77799" lon="7.27233">
        <ele>381.20001220703</ele>
        <time>2020-02-22T14:14:09.000Z</time>
      </trkpt>
      <trkpt lat="43.77815" lon="7.27226">
        <ele>380.60000610352</ele>
        <time>2020-02-22T14:14:13.000Z</time>
      </trkpt>
      <trkpt lat="43.7782" lon="7.27224">
        <ele>380.60000610352</ele>
        <time>2020-02-22T14:14:14.000Z</time>
      </trkpt>
      <trkpt lat="43.77836" lon="7.27216">
        <ele>379.60000610352</ele>
        <time>2020-02-22T14:14:18.000Z</time>
      </trkpt>
      <trkpt lat="43.77847" lon="7.27213">
        <ele>379.39999389648</ele>
        <time>2020-02-22T14:14:21.000Z</time>
      </trkpt>
      <trkpt lat="43.77866" lon="7.27208">
        <ele>380.39999389648</ele>
        <time>2020-02-22T14:14:27.000Z</time>
      </trkpt>
      <trkpt lat="43.77872" lon="7.27206">
        <ele>381</ele>
        <time>2020-02-22T14:14:29.000Z</time>
      </trkpt>
      <trkpt lat="43.77885" lon="7.27206">
        <ele>382.20001220703</ele>
        <time>2020-02-22T14:14:34.000Z</time>
      </trkpt>
      <trkpt lat="43.77891" lon="7.27208">
        <ele>383.39999389648</ele>
        <time>2020-02-22T14:14:37.000Z</time>
      </trkpt>
      <trkpt lat="43.77898" lon="7.2721">
        <ele>384.39999389648</ele>
        <time>2020-02-22T14:14:40.000Z</time>
      </trkpt>
      <trkpt lat="43.77904" lon="7.27215">
        <ele>385.60000610352</ele>
        <time>2020-02-22T14:14:43.000Z</time>
      </trkpt>
      <trkpt lat="43.77911" lon="7.2722">
        <ele>387</ele>
        <time>2020-02-22T14:14:46.000Z</time>
      </trkpt>
      <trkpt lat="43.77918" lon="7.27226">
        <ele>388.20001220703</ele>
        <time>2020-02-22T14:14:49.000Z</time>
      </trkpt>
      <trkpt lat="43.77927" lon="7.27234">
        <ele>389.39999389648</ele>
        <time>2020-02-22T14:14:53.000Z</time>
      </trkpt>
      <trkpt lat="43.77929" lon="7.27236">
        <ele>389.79998779297</ele>
        <time>2020-02-22T14:14:54.000Z</time>
      </trkpt>
      <trkpt lat="43.77933" lon="7.27239">
        <ele>390.79998779297</ele>
        <time>2020-02-22T14:14:56.000Z</time>
      </trkpt>
      <trkpt lat="43.7794" lon="7.27245">
        <ele>392.20001220703</ele>
        <time>2020-02-22T14:14:59.000Z</time>
      </trkpt>
      <trkpt lat="43.77944" lon="7.27249">
        <ele>392.79998779297</ele>
        <time>2020-02-22T14:15:01.000Z</time>
      </trkpt>
      <trkpt lat="43.77946" lon="7.27251">
        <ele>393.20001220703</ele>
        <time>2020-02-22T14:15:02.000Z</time>
      </trkpt>
      <trkpt lat="43.77955" lon="7.27255">
        <ele>394.60000610352</ele>
        <time>2020-02-22T14:15:06.000Z</time>
      </trkpt>
      <trkpt lat="43.77961" lon="7.27259">
        <ele>395.60000610352</ele>
        <time>2020-02-22T14:15:09.000Z</time>
      </trkpt>
      <trkpt lat="43.77968" lon="7.27263">
        <ele>396.79998779297</ele>
        <time>2020-02-22T14:15:13.000Z</time>
      </trkpt>
      <trkpt lat="43.77972" lon="7.27264">
        <ele>397.39999389648</ele>
        <time>2020-02-22T14:15:15.000Z</time>
      </trkpt>
      <trkpt lat="43.77976" lon="7.27265">
        <ele>398</ele>
        <time>2020-02-22T14:15:17.000Z</time>
      </trkpt>
      <trkpt lat="43.77987" lon="7.27265">
        <ele>399.20001220703</ele>
        <time>2020-02-22T14:15:22.000Z</time>
      </trkpt>
      <trkpt lat="43.77989" lon="7.27265">
        <ele>399.39999389648</ele>
        <time>2020-02-22T14:15:23.000Z</time>
      </trkpt>
      <trkpt lat="43.77994" lon="7.27264">
        <ele>400.20001220703</ele>
        <time>2020-02-22T14:15:25.000Z</time>
      </trkpt>
      <trkpt lat="43.78" lon="7.27262">
        <ele>401.39999389648</ele>
        <time>2020-02-22T14:15:28.000Z</time>
      </trkpt>
      <trkpt lat="43.78005" lon="7.2726">
        <ele>402.20001220703</ele>
        <time>2020-02-22T14:15:30.000Z</time>
      </trkpt>
      <trkpt lat="43.78007" lon="7.27258">
        <ele>402.60000610352</ele>
        <time>2020-02-22T14:15:31.000Z</time>
      </trkpt>
      <trkpt lat="43.78014" lon="7.27253">
        <ele>403.60000610352</ele>
        <time>2020-02-22T14:15:34.000Z</time>
      </trkpt>
      <trkpt lat="43.78022" lon="7.27247">
        <ele>404.60000610352</ele>
        <time>2020-02-22T14:15:37.000Z</time>
      </trkpt>
      <trkpt lat="43.78025" lon="7.27245">
        <ele>404.79998779297</ele>
        <time>2020-02-22T14:15:38.000Z</time>
      </trkpt>
      <trkpt lat="43.7804" lon="7.27228">
        <ele>405.79998779297</ele>
        <time>2020-02-22T14:15:44.000Z</time>
      </trkpt>
      <trkpt lat="43.78042" lon="7.27225">
        <ele>406</ele>
        <time>2020-02-22T14:15:45.000Z</time>
      </trkpt>
      <trkpt lat="43.7805" lon="7.27217">
        <ele>407</ele>
        <time>2020-02-22T14:15:48.000Z</time>
      </trkpt>
      <trkpt lat="43.78061" lon="7.27207">
        <ele>408</ele>
        <time>2020-02-22T14:15:52.000Z</time>
      </trkpt>
      <trkpt lat="43.78074" lon="7.27192">
        <ele>409.20001220703</ele>
        <time>2020-02-22T14:15:57.000Z</time>
      </trkpt>
      <trkpt lat="43.78075" lon="7.27188">
        <ele>409.39999389648</ele>
        <time>2020-02-22T14:15:58.000Z</time>
      </trkpt>
      <trkpt lat="43.78078" lon="7.27171">
        <ele>410.39999389648</ele>
        <time>2020-02-22T14:16:02.000Z</time>
      </trkpt>
      <trkpt lat="43.78078" lon="7.27166">
        <ele>410.79998779297</ele>
        <time>2020-02-22T14:16:03.000Z</time>
      </trkpt>
      <trkpt lat="43.78076" lon="7.27158">
        <ele>411.60000610352</ele>
        <time>2020-02-22T14:16:05.000Z</time>
      </trkpt>
      <trkpt lat="43.78071" lon="7.27147">
        <ele>413</ele>
        <time>2020-02-22T14:16:08.000Z</time>
      </trkpt>
      <trkpt lat="43.78063" lon="7.27139">
        <ele>414</ele>
        <time>2020-02-22T14:16:11.000Z</time>
      </trkpt>
      <trkpt lat="43.78054" lon="7.27134">
        <ele>415.20001220703</ele>
        <time>2020-02-22T14:16:14.000Z</time>
      </trkpt>
      <trkpt lat="43.78045" lon="7.27131">
        <ele>416.39999389648</ele>
        <time>2020-02-22T14:16:17.000Z</time>
      </trkpt>
      <trkpt lat="43.78035" lon="7.27129">
        <ele>417.60000610352</ele>
        <time>2020-02-22T14:16:20.000Z</time>
      </trkpt>
      <trkpt lat="43.78029" lon="7.27126">
        <ele>418.60000610352</ele>
        <time>2020-02-22T14:16:22.000Z</time>
      </trkpt>
      <trkpt lat="43.78025" lon="7.27125">
        <ele>419</ele>
        <time>2020-02-22T14:16:23.000Z</time>
      </trkpt>
      <trkpt lat="43.78016" lon="7.2712">
        <ele>420.20001220703</ele>
        <time>2020-02-22T14:16:26.000Z</time>
      </trkpt>
      <trkpt lat="43.78003" lon="7.27112">
        <ele>421.39999389648</ele>
        <time>2020-02-22T14:16:30.000Z</time>
      </trkpt>
      <trkpt lat="43.77993" lon="7.27098">
        <ele>422.39999389648</ele>
        <time>2020-02-22T14:16:34.000Z</time>
      </trkpt>
      <trkpt lat="43.77989" lon="7.27089">
        <ele>423</ele>
        <time>2020-02-22T14:16:36.000Z</time>
      </trkpt>
      <trkpt lat="43.77986" lon="7.2708">
        <ele>423.60000610352</ele>
        <time>2020-02-22T14:16:38.000Z</time>
      </trkpt>
      <trkpt lat="43.7798" lon="7.27056">
        <ele>424.60000610352</ele>
        <time>2020-02-22T14:16:43.000Z</time>
      </trkpt>
      <trkpt lat="43.77976" lon="7.27024">
        <ele>425.39999389648</ele>
        <time>2020-02-22T14:16:49.000Z</time>
      </trkpt>
      <trkpt lat="43.77977" lon="7.27008">
        <ele>425.60000610352</ele>
        <time>2020-02-22T14:16:52.000Z</time>
      </trkpt>
      <trkpt lat="43.77979" lon="7.26988">
        <ele>425.60000610352</ele>
        <time>2020-02-22T14:16:55.000Z</time>
      </trkpt>
      <trkpt lat="43.77981" lon="7.26981">
        <ele>425.39999389648</ele>
        <time>2020-02-22T14:16:56.000Z</time>
      </trkpt>
      <trkpt lat="43.77986" lon="7.26958">
        <ele>424.60000610352</ele>
        <time>2020-02-22T14:16:59.000Z</time>
      </trkpt>
      <trkpt lat="43.77988" lon="7.26952">
        <ele>424.39999389648</ele>
        <time>2020-02-22T14:17:00.000Z</time>
      </trkpt>
      <trkpt lat="43.78003" lon="7.26927">
        <ele>423.39999389648</ele>
        <time>2020-02-22T14:17:04.000Z</time>
      </trkpt>
      <trkpt lat="43.78019" lon="7.26912">
        <ele>422.60000610352</ele>
        <time>2020-02-22T14:17:07.000Z</time>
      </trkpt>
      <trkpt lat="43.78031" lon="7.26906">
        <ele>422.60000610352</ele>
        <time>2020-02-22T14:17:09.000Z</time>
      </trkpt>
      <trkpt lat="43.78044" lon="7.26902">
        <ele>422.20001220703</ele>
        <time>2020-02-22T14:17:11.000Z</time>
      </trkpt>
      <trkpt lat="43.78069" lon="7.26896">
        <ele>421.39999389648</ele>
        <time>2020-02-22T14:17:15.000Z</time>
      </trkpt>
      <trkpt lat="43.78082" lon="7.26894">
        <ele>421</ele>
        <time>2020-02-22T14:17:17.000Z</time>
      </trkpt>
      <trkpt lat="43.78109" lon="7.26885">
        <ele>420.79998779297</ele>
        <time>2020-02-22T14:17:22.000Z</time>
      </trkpt>
      <trkpt lat="43.78133" lon="7.2687">
        <ele>422.20001220703</ele>
        <time>2020-02-22T14:17:28.000Z</time>
      </trkpt>
      <trkpt lat="43.78144" lon="7.26861">
        <ele>423.39999389648</ele>
        <time>2020-02-22T14:17:31.000Z</time>
      </trkpt>
      <trkpt lat="43.78152" lon="7.26855">
        <ele>424.79998779297</ele>
        <time>2020-02-22T14:17:33.000Z</time>
      </trkpt>
      <trkpt lat="43.7816" lon="7.2685">
        <ele>425.60000610352</ele>
        <time>2020-02-22T14:17:35.000Z</time>
      </trkpt>
      <trkpt lat="43.78164" lon="7.26848">
        <ele>425.79998779297</ele>
        <time>2020-02-22T14:17:36.000Z</time>
      </trkpt>
      <trkpt lat="43.78175" lon="7.26843">
        <ele>426.79998779297</ele>
        <time>2020-02-22T14:17:39.000Z</time>
      </trkpt>
      <trkpt lat="43.78179" lon="7.26841">
        <ele>427.60000610352</ele>
        <time>2020-02-22T14:17:40.000Z</time>
      </trkpt>
      <trkpt lat="43.78183" lon="7.26837">
        <ele>428.60000610352</ele>
        <time>2020-02-22T14:17:41.000Z</time>
      </trkpt>
      <trkpt lat="43.7819" lon="7.2683">
        <ele>430.20001220703</ele>
        <time>2020-02-22T14:17:43.000Z</time>
      </trkpt>
      <trkpt lat="43.78193" lon="7.26826">
        <ele>430.79998779297</ele>
        <time>2020-02-22T14:17:44.000Z</time>
      </trkpt>
      <trkpt lat="43.78196" lon="7.26822">
        <ele>431.20001220703</ele>
        <time>2020-02-22T14:17:45.000Z</time>
      </trkpt>
      <trkpt lat="43.78198" lon="7.26818">
        <ele>431.79998779297</ele>
        <time>2020-02-22T14:17:46.000Z</time>
      </trkpt>
      <trkpt lat="43.78202" lon="7.2681">
        <ele>432.39999389648</ele>
        <time>2020-02-22T14:17:48.000Z</time>
      </trkpt>
      <trkpt lat="43.78208" lon="7.26798">
        <ele>433.60000610352</ele>
        <time>2020-02-22T14:17:51.000Z</time>
      </trkpt>
      <trkpt lat="43.78211" lon="7.26789">
        <ele>434.20001220703</ele>
        <time>2020-02-22T14:17:53.000Z</time>
      </trkpt>
      <trkpt lat="43.78213" lon="7.2678">
        <ele>434.79998779297</ele>
        <time>2020-02-22T14:17:55.000Z</time>
      </trkpt>
      <trkpt lat="43.78215" lon="7.26763">
        <ele>436</ele>
        <time>2020-02-22T14:17:59.000Z</time>
      </trkpt>
      <trkpt lat="43.78215" lon="7.26751">
        <ele>437.20001220703</ele>
        <time>2020-02-22T14:18:02.000Z</time>
      </trkpt>
      <trkpt lat="43.78214" lon="7.26737">
        <ele>438.20001220703</ele>
        <time>2020-02-22T14:18:05.000Z</time>
      </trkpt>
      <trkpt lat="43.78213" lon="7.26728">
        <ele>439</ele>
        <time>2020-02-22T14:18:07.000Z</time>
      </trkpt>
      <trkpt lat="43.78212" lon="7.26718">
        <ele>439.60000610352</ele>
        <time>2020-02-22T14:18:09.000Z</time>
      </trkpt>
      <trkpt lat="43.7821" lon="7.26701">
        <ele>440.60000610352</ele>
        <time>2020-02-22T14:18:12.000Z</time>
      </trkpt>
      <trkpt lat="43.7821" lon="7.26696">
        <ele>440.79998779297</ele>
        <time>2020-02-22T14:18:13.000Z</time>
      </trkpt>
      <trkpt lat="43.78208" lon="7.2668">
        <ele>441.79998779297</ele>
        <time>2020-02-22T14:18:16.000Z</time>
      </trkpt>
      <trkpt lat="43.78208" lon="7.26663">
        <ele>443.39999389648</ele>
        <time>2020-02-22T14:18:19.000Z</time>
      </trkpt>
      <trkpt lat="43.78208" lon="7.26653">
        <ele>444.60000610352</ele>
        <time>2020-02-22T14:18:21.000Z</time>
      </trkpt>
      <trkpt lat="43.78209" lon="7.26643">
        <ele>446</ele>
        <time>2020-02-22T14:18:23.000Z</time>
      </trkpt>
      <trkpt lat="43.7821" lon="7.26632">
        <ele>447</ele>
        <time>2020-02-22T14:18:25.000Z</time>
      </trkpt>
      <trkpt lat="43.7821" lon="7.26626">
        <ele>447.20001220703</ele>
        <time>2020-02-22T14:18:26.000Z</time>
      </trkpt>
      <trkpt lat="43.7821" lon="7.26605">
        <ele>448.79998779297</ele>
        <time>2020-02-22T14:18:30.000Z</time>
      </trkpt>
      <trkpt lat="43.7821" lon="7.26594">
        <ele>449.20001220703</ele>
        <time>2020-02-22T14:18:32.000Z</time>
      </trkpt>
      <trkpt lat="43.78209" lon="7.26577">
        <ele>449.60000610352</ele>
        <time>2020-02-22T14:18:35.000Z</time>
      </trkpt>
      <trkpt lat="43.7821" lon="7.26551">
        <ele>449.39999389648</ele>
        <time>2020-02-22T14:18:39.000Z</time>
      </trkpt>
      <trkpt lat="43.78215" lon="7.26506">
        <ele>449.20001220703</ele>
        <time>2020-02-22T14:18:46.000Z</time>
      </trkpt>
      <trkpt lat="43.78222" lon="7.26473">
        <ele>449.20001220703</ele>
        <time>2020-02-22T14:18:51.000Z</time>
      </trkpt>
      <trkpt lat="43.78224" lon="7.26467">
        <ele>449.20001220703</ele>
        <time>2020-02-22T14:18:52.000Z</time>
      </trkpt>
      <trkpt lat="43.78234" lon="7.2642">
        <ele>450</ele>
        <time>2020-02-22T14:18:59.000Z</time>
      </trkpt>
      <trkpt lat="43.78236" lon="7.26413">
        <ele>450</ele>
        <time>2020-02-22T14:19:00.000Z</time>
      </trkpt>
      <trkpt lat="43.78247" lon="7.26357">
        <ele>450</ele>
        <time>2020-02-22T14:19:08.000Z</time>
      </trkpt>
      <trkpt lat="43.78261" lon="7.26293">
        <ele>449.60000610352</ele>
        <time>2020-02-22T14:19:17.000Z</time>
      </trkpt>
      <trkpt lat="43.78268" lon="7.26242">
        <ele>451</ele>
        <time>2020-02-22T14:19:25.000Z</time>
      </trkpt>
      <trkpt lat="43.7827" lon="7.26226">
        <ele>452.20001220703</ele>
        <time>2020-02-22T14:19:28.000Z</time>
      </trkpt>
      <trkpt lat="43.78271" lon="7.26213">
        <ele>453.60000610352</ele>
        <time>2020-02-22T14:19:31.000Z</time>
      </trkpt>
      <trkpt lat="43.78273" lon="7.26204">
        <ele>454.79998779297</ele>
        <time>2020-02-22T14:19:33.000Z</time>
      </trkpt>
      <trkpt lat="43.78275" lon="7.26195">
        <ele>455.79998779297</ele>
        <time>2020-02-22T14:19:35.000Z</time>
      </trkpt>
      <trkpt lat="43.78277" lon="7.26184">
        <ele>457.20001220703</ele>
        <time>2020-02-22T14:19:37.000Z</time>
      </trkpt>
      <trkpt lat="43.7828" lon="7.26173">
        <ele>458.20001220703</ele>
        <time>2020-02-22T14:19:39.000Z</time>
      </trkpt>
      <trkpt lat="43.78283" lon="7.26162">
        <ele>459.39999389648</ele>
        <time>2020-02-22T14:19:41.000Z</time>
      </trkpt>
      <trkpt lat="43.78285" lon="7.2615">
        <ele>460.39999389648</ele>
        <time>2020-02-22T14:19:43.000Z</time>
      </trkpt>
      <trkpt lat="43.78285" lon="7.26144">
        <ele>461</ele>
        <time>2020-02-22T14:19:44.000Z</time>
      </trkpt>
      <trkpt lat="43.78286" lon="7.26133">
        <ele>462</ele>
        <time>2020-02-22T14:19:46.000Z</time>
      </trkpt>
      <trkpt lat="43.78286" lon="7.26121">
        <ele>463.20001220703</ele>
        <time>2020-02-22T14:19:48.000Z</time>
      </trkpt>
      <trkpt lat="43.78285" lon="7.2611">
        <ele>464.20001220703</ele>
        <time>2020-02-22T14:19:50.000Z</time>
      </trkpt>
      <trkpt lat="43.78284" lon="7.26104">
        <ele>464.60000610352</ele>
        <time>2020-02-22T14:19:51.000Z</time>
      </trkpt>
      <trkpt lat="43.78281" lon="7.26094">
        <ele>465.20001220703</ele>
        <time>2020-02-22T14:19:53.000Z</time>
      </trkpt>
      <trkpt lat="43.78278" lon="7.26084">
        <ele>465.79998779297</ele>
        <time>2020-02-22T14:19:55.000Z</time>
      </trkpt>
      <trkpt lat="43.78271" lon="7.26069">
        <ele>467</ele>
        <time>2020-02-22T14:19:58.000Z</time>
      </trkpt>
      <trkpt lat="43.78268" lon="7.2606">
        <ele>468.20001220703</ele>
        <time>2020-02-22T14:20:00.000Z</time>
      </trkpt>
      <trkpt lat="43.78261" lon="7.26047">
        <ele>469.39999389648</ele>
        <time>2020-02-22T14:20:03.000Z</time>
      </trkpt>
      <trkpt lat="43.78257" lon="7.26039">
        <ele>470.60000610352</ele>
        <time>2020-02-22T14:20:05.000Z</time>
      </trkpt>
      <trkpt lat="43.78252" lon="7.26031">
        <ele>471.79998779297</ele>
        <time>2020-02-22T14:20:07.000Z</time>
      </trkpt>
      <trkpt lat="43.78248" lon="7.26024">
        <ele>472.79998779297</ele>
        <time>2020-02-22T14:20:09.000Z</time>
      </trkpt>
      <trkpt lat="43.78243" lon="7.26017">
        <ele>473.60000610352</ele>
        <time>2020-02-22T14:20:11.000Z</time>
      </trkpt>
      <trkpt lat="43.78241" lon="7.26013">
        <ele>474</ele>
        <time>2020-02-22T14:20:12.000Z</time>
      </trkpt>
      <trkpt lat="43.78236" lon="7.26005">
        <ele>475</ele>
        <time>2020-02-22T14:20:14.000Z</time>
      </trkpt>
      <trkpt lat="43.78232" lon="7.25998">
        <ele>476.39999389648</ele>
        <time>2020-02-22T14:20:16.000Z</time>
      </trkpt>
      <trkpt lat="43.78229" lon="7.25989">
        <ele>478</ele>
        <time>2020-02-22T14:20:18.000Z</time>
      </trkpt>
      <trkpt lat="43.78227" lon="7.25985">
        <ele>478.60000610352</ele>
        <time>2020-02-22T14:20:19.000Z</time>
      </trkpt>
      <trkpt lat="43.78226" lon="7.2598">
        <ele>479.39999389648</ele>
        <time>2020-02-22T14:20:20.000Z</time>
      </trkpt>
      <trkpt lat="43.78224" lon="7.25971">
        <ele>480.60000610352</ele>
        <time>2020-02-22T14:20:22.000Z</time>
      </trkpt>
      <trkpt lat="43.78224" lon="7.25961">
        <ele>481.79998779297</ele>
        <time>2020-02-22T14:20:24.000Z</time>
      </trkpt>
      <trkpt lat="43.78224" lon="7.25957">
        <ele>482.60000610352</ele>
        <time>2020-02-22T14:20:25.000Z</time>
      </trkpt>
      <trkpt lat="43.78225" lon="7.25952">
        <ele>483.20001220703</ele>
        <time>2020-02-22T14:20:26.000Z</time>
      </trkpt>
      <trkpt lat="43.7823" lon="7.25939">
        <ele>484.60000610352</ele>
        <time>2020-02-22T14:20:29.000Z</time>
      </trkpt>
      <trkpt lat="43.78231" lon="7.25935">
        <ele>484.79998779297</ele>
        <time>2020-02-22T14:20:30.000Z</time>
      </trkpt>
      <trkpt lat="43.78237" lon="7.25921">
        <ele>485.60000610352</ele>
        <time>2020-02-22T14:20:33.000Z</time>
      </trkpt>
      <trkpt lat="43.78246" lon="7.25896">
        <ele>486.60000610352</ele>
        <time>2020-02-22T14:20:38.000Z</time>
      </trkpt>
      <trkpt lat="43.78247" lon="7.25891">
        <ele>486.60000610352</ele>
        <time>2020-02-22T14:20:39.000Z</time>
      </trkpt>
      <trkpt lat="43.78249" lon="7.25878">
        <ele>486.60000610352</ele>
        <time>2020-02-22T14:20:41.000Z</time>
      </trkpt>
      <trkpt lat="43.78248" lon="7.25865">
        <ele>486.60000610352</ele>
        <time>2020-02-22T14:20:43.000Z</time>
      </trkpt>
      <trkpt lat="43.78246" lon="7.25853">
        <ele>486.39999389648</ele>
        <time>2020-02-22T14:20:45.000Z</time>
      </trkpt>
      <trkpt lat="43.78238" lon="7.25835">
        <ele>486.79998779297</ele>
        <time>2020-02-22T14:20:48.000Z</time>
      </trkpt>
      <trkpt lat="43.78236" lon="7.25831">
        <ele>487</ele>
        <time>2020-02-22T14:20:49.000Z</time>
      </trkpt>
      <trkpt lat="43.78224" lon="7.25807">
        <ele>488</ele>
        <time>2020-02-22T14:20:54.000Z</time>
      </trkpt>
      <trkpt lat="43.78215" lon="7.25786">
        <ele>489</ele>
        <time>2020-02-22T14:20:58.000Z</time>
      </trkpt>
      <trkpt lat="43.78211" lon="7.25776">
        <ele>489</ele>
        <time>2020-02-22T14:21:00.000Z</time>
      </trkpt>
      <trkpt lat="43.78192" lon="7.25731">
        <ele>490.20001220703</ele>
        <time>2020-02-22T14:21:09.000Z</time>
      </trkpt>
      <trkpt lat="43.78179" lon="7.25708">
        <ele>490</ele>
        <time>2020-02-22T14:21:14.000Z</time>
      </trkpt>
      <trkpt lat="43.78176" lon="7.25697">
        <ele>490.20001220703</ele>
        <time>2020-02-22T14:21:16.000Z</time>
      </trkpt>
      <trkpt lat="43.78175" lon="7.25686">
        <ele>490.20001220703</ele>
        <time>2020-02-22T14:21:18.000Z</time>
      </trkpt>
      <trkpt lat="43.78175" lon="7.25664">
        <ele>491</ele>
        <time>2020-02-22T14:21:22.000Z</time>
      </trkpt>
      <trkpt lat="43.78175" lon="7.25659">
        <ele>491.20001220703</ele>
        <time>2020-02-22T14:21:23.000Z</time>
      </trkpt>
      <trkpt lat="43.78171" lon="7.25637">
        <ele>492</ele>
        <time>2020-02-22T14:21:27.000Z</time>
      </trkpt>
      <trkpt lat="43.7817" lon="7.25632">
        <ele>492.20001220703</ele>
        <time>2020-02-22T14:21:28.000Z</time>
      </trkpt>
      <trkpt lat="43.78163" lon="7.25608">
        <ele>493.39999389648</ele>
        <time>2020-02-22T14:21:32.000Z</time>
      </trkpt>
      <trkpt lat="43.78158" lon="7.25591">
        <ele>493.79998779297</ele>
        <time>2020-02-22T14:21:35.000Z</time>
      </trkpt>
      <trkpt lat="43.78155" lon="7.25578">
        <ele>494</ele>
        <time>2020-02-22T14:21:37.000Z</time>
      </trkpt>
      <trkpt lat="43.78156" lon="7.25565">
        <ele>494.39999389648</ele>
        <time>2020-02-22T14:21:39.000Z</time>
      </trkpt>
      <trkpt lat="43.78157" lon="7.2556">
        <ele>494.60000610352</ele>
        <time>2020-02-22T14:21:40.000Z</time>
      </trkpt>
      <trkpt lat="43.7816" lon="7.25548">
        <ele>495</ele>
        <time>2020-02-22T14:21:42.000Z</time>
      </trkpt>
      <trkpt lat="43.78165" lon="7.25533">
        <ele>495.60000610352</ele>
        <time>2020-02-22T14:21:45.000Z</time>
      </trkpt>
      <trkpt lat="43.78171" lon="7.25518">
        <ele>496.60000610352</ele>
        <time>2020-02-22T14:21:48.000Z</time>
      </trkpt>
      <trkpt lat="43.78177" lon="7.25506">
        <ele>498</ele>
        <time>2020-02-22T14:21:51.000Z</time>
      </trkpt>
      <trkpt lat="43.78179" lon="7.25502">
        <ele>498.39999389648</ele>
        <time>2020-02-22T14:21:52.000Z</time>
      </trkpt>
      <trkpt lat="43.78181" lon="7.25497">
        <ele>499</ele>
        <time>2020-02-22T14:21:53.000Z</time>
      </trkpt>
      <trkpt lat="43.78188" lon="7.25484">
        <ele>500.20001220703</ele>
        <time>2020-02-22T14:21:56.000Z</time>
      </trkpt>
      <trkpt lat="43.78195" lon="7.25476">
        <ele>501</ele>
        <time>2020-02-22T14:21:59.000Z</time>
      </trkpt>
      <trkpt lat="43.78198" lon="7.25473">
        <ele>501.39999389648</ele>
        <time>2020-02-22T14:22:00.000Z</time>
      </trkpt>
      <trkpt lat="43.78206" lon="7.25468">
        <ele>502.60000610352</ele>
        <time>2020-02-22T14:22:03.000Z</time>
      </trkpt>
      <trkpt lat="43.78212" lon="7.25466">
        <ele>503</ele>
        <time>2020-02-22T14:22:05.000Z</time>
      </trkpt>
      <trkpt lat="43.78216" lon="7.25465">
        <ele>503.79998779297</ele>
        <time>2020-02-22T14:22:07.000Z</time>
      </trkpt>
      <trkpt lat="43.78218" lon="7.25464">
        <ele>504.20001220703</ele>
        <time>2020-02-22T14:22:08.000Z</time>
      </trkpt>
      <trkpt lat="43.78218" lon="7.25462">
        <ele>504.79998779297</ele>
        <time>2020-02-22T14:22:09.000Z</time>
      </trkpt>
      <trkpt lat="43.78217" lon="7.2546">
        <ele>505</ele>
        <time>2020-02-22T14:22:10.000Z</time>
      </trkpt>
      <trkpt lat="43.78213" lon="7.25458">
        <ele>505.39999389648</ele>
        <time>2020-02-22T14:22:12.000Z</time>
      </trkpt>
      <trkpt lat="43.78213" lon="7.25458">
        <ele>506</ele>
        <time>2020-02-22T14:22:16.000Z</time>
      </trkpt>
      <trkpt lat="43.78213" lon="7.25458">
        <ele>506.20001220703</ele>
        <time>2020-02-22T14:22:17.000Z</time>
      </trkpt>
      <trkpt lat="43.78214" lon="7.25459">
        <ele>506.60000610352</ele>
        <time>2020-02-22T14:22:22.000Z</time>
      </trkpt>
      <trkpt lat="43.78217" lon="7.2546">
        <ele>505.79998779297</ele>
        <time>2020-02-22T14:22:26.000Z</time>
      </trkpt>
      <trkpt lat="43.7822" lon="7.25461">
        <ele>505.79998779297</ele>
        <time>2020-02-22T14:22:28.000Z</time>
      </trkpt>
      <trkpt lat="43.78222" lon="7.2546">
        <ele>505.79998779297</ele>
        <time>2020-02-22T14:22:32.000Z</time>
      </trkpt>
      <trkpt lat="43.78226" lon="7.25458">
        <ele>505.79998779297</ele>
        <time>2020-02-22T14:22:37.000Z</time>
      </trkpt>
      <trkpt lat="43.7824" lon="7.25452">
        <ele>506.79998779297</ele>
        <time>2020-02-22T14:22:43.000Z</time>
      </trkpt>
      <trkpt lat="43.78247" lon="7.2545">
        <ele>507.20001220703</ele>
        <time>2020-02-22T14:22:46.000Z</time>
      </trkpt>
      <trkpt lat="43.7826" lon="7.25444">
        <ele>508.39999389648</ele>
        <time>2020-02-22T14:22:51.000Z</time>
      </trkpt>
      <trkpt lat="43.78273" lon="7.25435">
        <ele>509.60000610352</ele>
        <time>2020-02-22T14:22:57.000Z</time>
      </trkpt>
      <trkpt lat="43.78275" lon="7.25433">
        <ele>509.79998779297</ele>
        <time>2020-02-22T14:22:58.000Z</time>
      </trkpt>
      <trkpt lat="43.78286" lon="7.25424">
        <ele>510.60000610352</ele>
        <time>2020-02-22T14:23:03.000Z</time>
      </trkpt>
      <trkpt lat="43.78299" lon="7.25414">
        <ele>511</ele>
        <time>2020-02-22T14:23:08.000Z</time>
      </trkpt>
      <trkpt lat="43.7831" lon="7.25405">
        <ele>511.60000610352</ele>
        <time>2020-02-22T14:23:12.000Z</time>
      </trkpt>
      <trkpt lat="43.78323" lon="7.25395">
        <ele>511.60000610352</ele>
        <time>2020-02-22T14:23:16.000Z</time>
      </trkpt>
      <trkpt lat="43.78327" lon="7.25392">
        <ele>511.60000610352</ele>
        <time>2020-02-22T14:23:17.000Z</time>
      </trkpt>
      <trkpt lat="43.78348" lon="7.25378">
        <ele>510.60000610352</ele>
        <time>2020-02-22T14:23:21.000Z</time>
      </trkpt>
      <trkpt lat="43.78366" lon="7.25367">
        <ele>509.60000610352</ele>
        <time>2020-02-22T14:23:24.000Z</time>
      </trkpt>
      <trkpt lat="43.78382" lon="7.25355">
        <ele>508.60000610352</ele>
        <time>2020-02-22T14:23:27.000Z</time>
      </trkpt>
      <trkpt lat="43.78387" lon="7.25353">
        <ele>508.39999389648</ele>
        <time>2020-02-22T14:23:28.000Z</time>
      </trkpt>
      <trkpt lat="43.78417" lon="7.25337">
        <ele>508.39999389648</ele>
        <time>2020-02-22T14:23:34.000Z</time>
      </trkpt>
      <trkpt lat="43.78445" lon="7.25322">
        <ele>509.20001220703</ele>
        <time>2020-02-22T14:23:40.000Z</time>
      </trkpt>
      <trkpt lat="43.78449" lon="7.25319">
        <ele>509.39999389648</ele>
        <time>2020-02-22T14:23:41.000Z</time>
      </trkpt>
      <trkpt lat="43.78453" lon="7.25315">
        <ele>509.60000610352</ele>
        <time>2020-02-22T14:23:42.000Z</time>
      </trkpt>
      <trkpt lat="43.78464" lon="7.25307">
        <ele>510.39999389648</ele>
        <time>2020-02-22T14:23:45.000Z</time>
      </trkpt>
      <trkpt lat="43.78468" lon="7.25304">
        <ele>510.79998779297</ele>
        <time>2020-02-22T14:23:46.000Z</time>
      </trkpt>
      <trkpt lat="43.78478" lon="7.25299">
        <ele>512</ele>
        <time>2020-02-22T14:23:49.000Z</time>
      </trkpt>
      <trkpt lat="43.78485" lon="7.25296">
        <ele>512.59997558594</ele>
        <time>2020-02-22T14:23:51.000Z</time>
      </trkpt>
      <trkpt lat="43.78488" lon="7.25295">
        <ele>513</ele>
        <time>2020-02-22T14:23:52.000Z</time>
      </trkpt>
      <trkpt lat="43.78499" lon="7.25291">
        <ele>514.40002441406</ele>
        <time>2020-02-22T14:23:56.000Z</time>
      </trkpt>
      <trkpt lat="43.78504" lon="7.25289">
        <ele>515.59997558594</ele>
        <time>2020-02-22T14:23:58.000Z</time>
      </trkpt>
      <trkpt lat="43.78507" lon="7.25282">
        <ele>516.79998779297</ele>
        <time>2020-02-22T14:24:01.000Z</time>
      </trkpt>
      <trkpt lat="43.78506" lon="7.2528">
        <ele>517.40002441406</ele>
        <time>2020-02-22T14:24:02.000Z</time>
      </trkpt>
      <trkpt lat="43.78503" lon="7.25279">
        <ele>518.20001220703</ele>
        <time>2020-02-22T14:24:04.000Z</time>
      </trkpt>
      <trkpt lat="43.78501" lon="7.25279">
        <ele>518.40002441406</ele>
        <time>2020-02-22T14:24:05.000Z</time>
      </trkpt>
      <trkpt lat="43.78493" lon="7.25281">
        <ele>519.40002441406</ele>
        <time>2020-02-22T14:24:08.000Z</time>
      </trkpt>
      <trkpt lat="43.7849" lon="7.25281">
        <ele>519.79998779297</ele>
        <time>2020-02-22T14:24:09.000Z</time>
      </trkpt>
      <trkpt lat="43.78485" lon="7.2528">
        <ele>520.59997558594</ele>
        <time>2020-02-22T14:24:11.000Z</time>
      </trkpt>
      <trkpt lat="43.78479" lon="7.25278">
        <ele>521.59997558594</ele>
        <time>2020-02-22T14:24:13.000Z</time>
      </trkpt>
      <trkpt lat="43.78474" lon="7.25275">
        <ele>522.79998779297</ele>
        <time>2020-02-22T14:24:15.000Z</time>
      </trkpt>
      <trkpt lat="43.78468" lon="7.25276">
        <ele>523.79998779297</ele>
        <time>2020-02-22T14:24:17.000Z</time>
      </trkpt>
      <trkpt lat="43.78449" lon="7.25282">
        <ele>524.40002441406</ele>
        <time>2020-02-22T14:24:23.000Z</time>
      </trkpt>
      <trkpt lat="43.78437" lon="7.25288">
        <ele>525</ele>
        <time>2020-02-22T14:24:27.000Z</time>
      </trkpt>
      <trkpt lat="43.78424" lon="7.25294">
        <ele>525.40002441406</ele>
        <time>2020-02-22T14:24:31.000Z</time>
      </trkpt>
      <trkpt lat="43.78407" lon="7.25302">
        <ele>526</ele>
        <time>2020-02-22T14:24:36.000Z</time>
      </trkpt>
      <trkpt lat="43.78393" lon="7.25308">
        <ele>526.40002441406</ele>
        <time>2020-02-22T14:24:40.000Z</time>
      </trkpt>
      <trkpt lat="43.78379" lon="7.25315">
        <ele>527.20001220703</ele>
        <time>2020-02-22T14:24:44.000Z</time>
      </trkpt>
      <trkpt lat="43.78372" lon="7.25318">
        <ele>527.40002441406</ele>
        <time>2020-02-22T14:24:46.000Z</time>
      </trkpt>
      <trkpt lat="43.78348" lon="7.25334">
        <ele>528.20001220703</ele>
        <time>2020-02-22T14:24:53.000Z</time>
      </trkpt>
      <trkpt lat="43.78317" lon="7.25358">
        <ele>529</ele>
        <time>2020-02-22T14:25:03.000Z</time>
      </trkpt>
      <trkpt lat="43.78308" lon="7.25365">
        <ele>529.40002441406</ele>
        <time>2020-02-22T14:25:06.000Z</time>
      </trkpt>
      <trkpt lat="43.783" lon="7.25373">
        <ele>529.79998779297</ele>
        <time>2020-02-22T14:25:09.000Z</time>
      </trkpt>
      <trkpt lat="43.78281" lon="7.25388">
        <ele>530.40002441406</ele>
        <time>2020-02-22T14:25:15.000Z</time>
      </trkpt>
      <trkpt lat="43.78275" lon="7.25394">
        <ele>530.59997558594</ele>
        <time>2020-02-22T14:25:17.000Z</time>
      </trkpt>
      <trkpt lat="43.78251" lon="7.25405">
        <ele>531.40002441406</ele>
        <time>2020-02-22T14:25:24.000Z</time>
      </trkpt>
      <trkpt lat="43.78233" lon="7.25399">
        <ele>532.20001220703</ele>
        <time>2020-02-22T14:25:29.000Z</time>
      </trkpt>
      <trkpt lat="43.78226" lon="7.25393">
        <ele>532.40002441406</ele>
        <time>2020-02-22T14:25:31.000Z</time>
      </trkpt>
      <trkpt lat="43.7822" lon="7.25381">
        <ele>532.79998779297</ele>
        <time>2020-02-22T14:25:34.000Z</time>
      </trkpt>
      <trkpt lat="43.78211" lon="7.25355">
        <ele>533.20001220703</ele>
        <time>2020-02-22T14:25:40.000Z</time>
      </trkpt>
      <trkpt lat="43.78206" lon="7.25345">
        <ele>533.40002441406</ele>
        <time>2020-02-22T14:25:43.000Z</time>
      </trkpt>
      <trkpt lat="43.78205" lon="7.25342">
        <ele>533.79998779297</ele>
        <time>2020-02-22T14:25:45.000Z</time>
      </trkpt>
      <trkpt lat="43.78205" lon="7.25342">
        <ele>534.59997558594</ele>
        <time>2020-02-22T14:25:49.000Z</time>
      </trkpt>
      <trkpt lat="43.78205" lon="7.25342">
        <ele>534.79998779297</ele>
        <time>2020-02-22T14:25:51.000Z</time>
      </trkpt>
      <trkpt lat="43.78204" lon="7.25343">
        <ele>534.79998779297</ele>
        <time>2020-02-22T14:26:06.000Z</time>
      </trkpt>
      <trkpt lat="43.78205" lon="7.25334">
        <ele>535</ele>
        <time>2020-02-22T14:26:10.000Z</time>
      </trkpt>
      <trkpt lat="43.78201" lon="7.25314">
        <ele>534.79998779297</ele>
        <time>2020-02-22T14:26:16.000Z</time>
      </trkpt>
      <trkpt lat="43.78201" lon="7.25287">
        <ele>535.59997558594</ele>
        <time>2020-02-22T14:26:23.000Z</time>
      </trkpt>
      <trkpt lat="43.78207" lon="7.25269">
        <ele>535.59997558594</ele>
        <time>2020-02-22T14:26:28.000Z</time>
      </trkpt>
      <trkpt lat="43.7821" lon="7.25262">
        <ele>535.59997558594</ele>
        <time>2020-02-22T14:26:30.000Z</time>
      </trkpt>
      <trkpt lat="43.78223" lon="7.25237">
        <ele>535.59997558594</ele>
        <time>2020-02-22T14:26:36.000Z</time>
      </trkpt>
      <trkpt lat="43.78225" lon="7.25233">
        <ele>535.59997558594</ele>
        <time>2020-02-22T14:26:37.000Z</time>
      </trkpt>
      <trkpt lat="43.78234" lon="7.25218">
        <ele>535</ele>
        <time>2020-02-22T14:26:40.000Z</time>
      </trkpt>
      <trkpt lat="43.78241" lon="7.25208">
        <ele>534.59997558594</ele>
        <time>2020-02-22T14:26:42.000Z</time>
      </trkpt>
      <trkpt lat="43.78247" lon="7.25202">
        <ele>533.59997558594</ele>
        <time>2020-02-22T14:26:46.000Z</time>
      </trkpt>
      <trkpt lat="43.78247" lon="7.25202">
        <ele>533.59997558594</ele>
        <time>2020-02-22T14:26:47.000Z</time>
      </trkpt>
      <trkpt lat="43.78247" lon="7.25202">
        <ele>533.59997558594</ele>
        <time>2020-02-22T14:26:50.000Z</time>
      </trkpt>
      <trkpt lat="43.78246" lon="7.25202">
        <ele>533.79998779297</ele>
        <time>2020-02-22T14:26:59.000Z</time>
      </trkpt>
      <trkpt lat="43.78246" lon="7.25202">
        <ele>533.59997558594</ele>
        <time>2020-02-22T14:27:04.000Z</time>
      </trkpt>
      <trkpt lat="43.78246" lon="7.25202">
        <ele>533.79998779297</ele>
        <time>2020-02-22T14:27:15.000Z</time>
      </trkpt>
      <trkpt lat="43.78246" lon="7.25201">
        <ele>533.79998779297</ele>
        <time>2020-02-22T14:27:26.000Z</time>
      </trkpt>
      <trkpt lat="43.78246" lon="7.25201">
        <ele>534</ele>
        <time>2020-02-22T14:27:37.000Z</time>
      </trkpt>
      <trkpt lat="43.78245" lon="7.252">
        <ele>534</ele>
        <time>2020-02-22T14:27:49.000Z</time>
      </trkpt>
      <trkpt lat="43.78245" lon="7.25199">
        <ele>534</ele>
        <time>2020-02-22T14:27:59.000Z</time>
      </trkpt>
      <trkpt lat="43.78245" lon="7.25199">
        <ele>534.59997558594</ele>
        <time>2020-02-22T14:28:06.000Z</time>
      </trkpt>
      <trkpt lat="43.78245" lon="7.25199">
        <ele>534.59997558594</ele>
        <time>2020-02-22T14:28:09.000Z</time>
      </trkpt>
      <trkpt lat="43.78245" lon="7.252">
        <ele>534.40002441406</ele>
        <time>2020-02-22T14:28:14.000Z</time>
      </trkpt>
      <trkpt lat="43.78245" lon="7.252">
        <ele>534.20001220703</ele>
        <time>2020-02-22T14:28:20.000Z</time>
      </trkpt>
      <trkpt lat="43.78245" lon="7.252">
        <ele>534.40002441406</ele>
        <time>2020-02-22T14:28:32.000Z</time>
      </trkpt>
      <trkpt lat="43.78245" lon="7.252">
        <ele>534.40002441406</ele>
        <time>2020-02-22T14:28:38.000Z</time>
      </trkpt>
      <trkpt lat="43.78245" lon="7.25199">
        <ele>534.20001220703</ele>
        <time>2020-02-22T14:28:43.000Z</time>
      </trkpt>
      <trkpt lat="43.78245" lon="7.25198">
        <ele>534.79998779297</ele>
        <time>2020-02-22T14:28:50.000Z</time>
      </trkpt>
      <trkpt lat="43.78245" lon="7.25191">
        <ele>534.40002441406</ele>
        <time>2020-02-22T14:28:54.000Z</time>
      </trkpt>
      <trkpt lat="43.78246" lon="7.25189">
        <ele>534.20001220703</ele>
        <time>2020-02-22T14:28:55.000Z</time>
      </trkpt>
      <trkpt lat="43.78252" lon="7.25179">
        <ele>533.40002441406</ele>
        <time>2020-02-22T14:28:59.000Z</time>
      </trkpt>
      <trkpt lat="43.78255" lon="7.25172">
        <ele>533.20001220703</ele>
        <time>2020-02-22T14:29:01.000Z</time>
      </trkpt>
      <trkpt lat="43.78272" lon="7.25145">
        <ele>532.20001220703</ele>
        <time>2020-02-22T14:29:08.000Z</time>
      </trkpt>
      <trkpt lat="43.78282" lon="7.2513">
        <ele>531.40002441406</ele>
        <time>2020-02-22T14:29:13.000Z</time>
      </trkpt>
      <trkpt lat="43.78286" lon="7.25123">
        <ele>531.20001220703</ele>
        <time>2020-02-22T14:29:15.000Z</time>
      </trkpt>
      <trkpt lat="43.78292" lon="7.25114">
        <ele>530.20001220703</ele>
        <time>2020-02-22T14:29:18.000Z</time>
      </trkpt>
      <trkpt lat="43.78294" lon="7.25111">
        <ele>530.20001220703</ele>
        <time>2020-02-22T14:29:19.000Z</time>
      </trkpt>
      <trkpt lat="43.78303" lon="7.25096">
        <ele>529.20001220703</ele>
        <time>2020-02-22T14:29:24.000Z</time>
      </trkpt>
      <trkpt lat="43.78305" lon="7.25092">
        <ele>529</ele>
        <time>2020-02-22T14:29:25.000Z</time>
      </trkpt>
      <trkpt lat="43.78316" lon="7.25076">
        <ele>528.20001220703</ele>
        <time>2020-02-22T14:29:29.000Z</time>
      </trkpt>
      <trkpt lat="43.78321" lon="7.25067">
        <ele>528</ele>
        <time>2020-02-22T14:29:31.000Z</time>
      </trkpt>
      <trkpt lat="43.78332" lon="7.25044">
        <ele>526.79998779297</ele>
        <time>2020-02-22T14:29:36.000Z</time>
      </trkpt>
      <trkpt lat="43.78337" lon="7.25027">
        <ele>525.59997558594</ele>
        <time>2020-02-22T14:29:39.000Z</time>
      </trkpt>
      <trkpt lat="43.78345" lon="7.24998">
        <ele>524.59997558594</ele>
        <time>2020-02-22T14:29:44.000Z</time>
      </trkpt>
      <trkpt lat="43.78354" lon="7.24967">
        <ele>523.40002441406</ele>
        <time>2020-02-22T14:29:49.000Z</time>
      </trkpt>
      <trkpt lat="43.78356" lon="7.24961">
        <ele>523.20001220703</ele>
        <time>2020-02-22T14:29:50.000Z</time>
      </trkpt>
      <trkpt lat="43.7836" lon="7.24929">
        <ele>522.40002441406</ele>
        <time>2020-02-22T14:29:55.000Z</time>
      </trkpt>
      <trkpt lat="43.78361" lon="7.24921">
        <ele>522.20001220703</ele>
        <time>2020-02-22T14:29:56.000Z</time>
      </trkpt>
      <trkpt lat="43.78362" lon="7.24915">
        <ele>521.79998779297</ele>
        <time>2020-02-22T14:29:57.000Z</time>
      </trkpt>
      <trkpt lat="43.78363" lon="7.24894">
        <ele>521.20001220703</ele>
        <time>2020-02-22T14:30:00.000Z</time>
      </trkpt>
      <trkpt lat="43.78365" lon="7.24873">
        <ele>520.59997558594</ele>
        <time>2020-02-22T14:30:03.000Z</time>
      </trkpt>
      <trkpt lat="43.78368" lon="7.2485">
        <ele>520.20001220703</ele>
        <time>2020-02-22T14:30:06.000Z</time>
      </trkpt>
      <trkpt lat="43.78373" lon="7.24821">
        <ele>519</ele>
        <time>2020-02-22T14:30:10.000Z</time>
      </trkpt>
      <trkpt lat="43.78374" lon="7.24813">
        <ele>518.59997558594</ele>
        <time>2020-02-22T14:30:11.000Z</time>
      </trkpt>
      <trkpt lat="43.78381" lon="7.24783">
        <ele>518</ele>
        <time>2020-02-22T14:30:15.000Z</time>
      </trkpt>
      <trkpt lat="43.78387" lon="7.2475">
        <ele>517.20001220703</ele>
        <time>2020-02-22T14:30:19.000Z</time>
      </trkpt>
      <trkpt lat="43.78389" lon="7.24741">
        <ele>517</ele>
        <time>2020-02-22T14:30:20.000Z</time>
      </trkpt>
      <trkpt lat="43.78398" lon="7.24702">
        <ele>515.79998779297</ele>
        <time>2020-02-22T14:30:24.000Z</time>
      </trkpt>
      <trkpt lat="43.78401" lon="7.24693">
        <ele>515.20001220703</ele>
        <time>2020-02-22T14:30:25.000Z</time>
      </trkpt>
      <trkpt lat="43.78405" lon="7.24682">
        <ele>514.59997558594</ele>
        <time>2020-02-22T14:30:26.000Z</time>
      </trkpt>
      <trkpt lat="43.78414" lon="7.24661">
        <ele>513.40002441406</ele>
        <time>2020-02-22T14:30:28.000Z</time>
      </trkpt>
      <trkpt lat="43.78421" lon="7.24652">
        <ele>512.40002441406</ele>
        <time>2020-02-22T14:30:29.000Z</time>
      </trkpt>
      <trkpt lat="43.78434" lon="7.24633">
        <ele>510.79998779297</ele>
        <time>2020-02-22T14:30:31.000Z</time>
      </trkpt>
      <trkpt lat="43.78445" lon="7.24611">
        <ele>509.20001220703</ele>
        <time>2020-02-22T14:30:33.000Z</time>
      </trkpt>
      <trkpt lat="43.78447" lon="7.24599">
        <ele>508.60000610352</ele>
        <time>2020-02-22T14:30:34.000Z</time>
      </trkpt>
      <trkpt lat="43.78448" lon="7.24585">
        <ele>508.20001220703</ele>
        <time>2020-02-22T14:30:35.000Z</time>
      </trkpt>
      <trkpt lat="43.78454" lon="7.24557">
        <ele>506.39999389648</ele>
        <time>2020-02-22T14:30:37.000Z</time>
      </trkpt>
      <trkpt lat="43.78463" lon="7.24531">
        <ele>505.20001220703</ele>
        <time>2020-02-22T14:30:39.000Z</time>
      </trkpt>
      <trkpt lat="43.78472" lon="7.24509">
        <ele>503.79998779297</ele>
        <time>2020-02-22T14:30:41.000Z</time>
      </trkpt>
      <trkpt lat="43.78477" lon="7.245">
        <ele>503.20001220703</ele>
        <time>2020-02-22T14:30:42.000Z</time>
      </trkpt>
      <trkpt lat="43.78483" lon="7.24493">
        <ele>502.79998779297</ele>
        <time>2020-02-22T14:30:43.000Z</time>
      </trkpt>
      <trkpt lat="43.78488" lon="7.24485">
        <ele>502.20001220703</ele>
        <time>2020-02-22T14:30:44.000Z</time>
      </trkpt>
      <trkpt lat="43.7849" lon="7.24478">
        <ele>501.79998779297</ele>
        <time>2020-02-22T14:30:45.000Z</time>
      </trkpt>
      <trkpt lat="43.78488" lon="7.24461">
        <ele>500.79998779297</ele>
        <time>2020-02-22T14:30:47.000Z</time>
      </trkpt>
      <trkpt lat="43.78485" lon="7.24454">
        <ele>500.39999389648</ele>
        <time>2020-02-22T14:30:48.000Z</time>
      </trkpt>
      <trkpt lat="43.78484" lon="7.24446">
        <ele>500.20001220703</ele>
        <time>2020-02-22T14:30:49.000Z</time>
      </trkpt>
      <trkpt lat="43.78482" lon="7.24431">
        <ele>500.20001220703</ele>
        <time>2020-02-22T14:30:51.000Z</time>
      </trkpt>
      <trkpt lat="43.7848" lon="7.24425">
        <ele>500.39999389648</ele>
        <time>2020-02-22T14:30:52.000Z</time>
      </trkpt>
      <trkpt lat="43.78475" lon="7.24403">
        <ele>501.60000610352</ele>
        <time>2020-02-22T14:30:56.000Z</time>
      </trkpt>
      <trkpt lat="43.78473" lon="7.24399">
        <ele>501.79998779297</ele>
        <time>2020-02-22T14:30:57.000Z</time>
      </trkpt>
      <trkpt lat="43.78468" lon="7.24387">
        <ele>502.60000610352</ele>
        <time>2020-02-22T14:31:00.000Z</time>
      </trkpt>
      <trkpt lat="43.78462" lon="7.24379">
        <ele>503.20001220703</ele>
        <time>2020-02-22T14:31:03.000Z</time>
      </trkpt>
      <trkpt lat="43.78455" lon="7.24373">
        <ele>503.60000610352</ele>
        <time>2020-02-22T14:31:06.000Z</time>
      </trkpt>
      <trkpt lat="43.78448" lon="7.24369">
        <ele>504</ele>
        <time>2020-02-22T14:31:09.000Z</time>
      </trkpt>
      <trkpt lat="43.78434" lon="7.24363">
        <ele>504.60000610352</ele>
        <time>2020-02-22T14:31:15.000Z</time>
      </trkpt>
      <trkpt lat="43.78431" lon="7.24361">
        <ele>504.79998779297</ele>
        <time>2020-02-22T14:31:17.000Z</time>
      </trkpt>
      <trkpt lat="43.78428" lon="7.24354">
        <ele>505</ele>
        <time>2020-02-22T14:31:20.000Z</time>
      </trkpt>
      <trkpt lat="43.78428" lon="7.24349">
        <ele>505.20001220703</ele>
        <time>2020-02-22T14:31:22.000Z</time>
      </trkpt>
      <trkpt lat="43.78422" lon="7.24339">
        <ele>505.20001220703</ele>
        <time>2020-02-22T14:31:26.000Z</time>
      </trkpt>
      <trkpt lat="43.78403" lon="7.24327">
        <ele>505.60000610352</ele>
        <time>2020-02-22T14:31:34.000Z</time>
      </trkpt>
      <trkpt lat="43.78399" lon="7.24321">
        <ele>506.20001220703</ele>
        <time>2020-02-22T14:31:39.000Z</time>
      </trkpt>
      <trkpt lat="43.784" lon="7.24321">
        <ele>506.20001220703</ele>
        <time>2020-02-22T14:31:56.000Z</time>
      </trkpt>
      <trkpt lat="43.78401" lon="7.24321">
        <ele>506.20001220703</ele>
        <time>2020-02-22T14:32:19.000Z</time>
      </trkpt>
      <trkpt lat="43.78401" lon="7.24322">
        <ele>506</ele>
        <time>2020-02-22T14:32:36.000Z</time>
      </trkpt>
      <trkpt lat="43.784" lon="7.24324">
        <ele>506.20001220703</ele>
        <time>2020-02-22T14:32:58.000Z</time>
      </trkpt>
      <trkpt lat="43.784" lon="7.24325">
        <ele>506.20001220703</ele>
        <time>2020-02-22T14:33:16.000Z</time>
      </trkpt>
      <trkpt lat="43.78399" lon="7.24324">
        <ele>506.39999389648</ele>
        <time>2020-02-22T14:33:30.000Z</time>
      </trkpt>
      <trkpt lat="43.78389" lon="7.24308">
        <ele>506.20001220703</ele>
        <time>2020-02-22T14:33:34.000Z</time>
      </trkpt>
      <trkpt lat="43.78379" lon="7.24289">
        <ele>504.60000610352</ele>
        <time>2020-02-22T14:33:36.000Z</time>
      </trkpt>
      <trkpt lat="43.78374" lon="7.24279">
        <ele>503.60000610352</ele>
        <time>2020-02-22T14:33:37.000Z</time>
      </trkpt>
      <trkpt lat="43.78368" lon="7.24267">
        <ele>502</ele>
        <time>2020-02-22T14:33:38.000Z</time>
      </trkpt>
      <trkpt lat="43.78362" lon="7.24256">
        <ele>500.79998779297</ele>
        <time>2020-02-22T14:33:39.000Z</time>
      </trkpt>
      <trkpt lat="43.78356" lon="7.24243">
        <ele>498</ele>
        <time>2020-02-22T14:33:40.000Z</time>
      </trkpt>
      <trkpt lat="43.7835" lon="7.24231">
        <ele>496</ele>
        <time>2020-02-22T14:33:41.000Z</time>
      </trkpt>
      <trkpt lat="43.78345" lon="7.24219">
        <ele>494.60000610352</ele>
        <time>2020-02-22T14:33:42.000Z</time>
      </trkpt>
      <trkpt lat="43.78341" lon="7.24207">
        <ele>492.60000610352</ele>
        <time>2020-02-22T14:33:43.000Z</time>
      </trkpt>
      <trkpt lat="43.78336" lon="7.24195">
        <ele>491</ele>
        <time>2020-02-22T14:33:44.000Z</time>
      </trkpt>
      <trkpt lat="43.78332" lon="7.24187">
        <ele>489.60000610352</ele>
        <time>2020-02-22T14:33:45.000Z</time>
      </trkpt>
      <trkpt lat="43.78327" lon="7.2418">
        <ele>487.79998779297</ele>
        <time>2020-02-22T14:33:46.000Z</time>
      </trkpt>
      <trkpt lat="43.7832" lon="7.24165">
        <ele>486.39999389648</ele>
        <time>2020-02-22T14:33:48.000Z</time>
      </trkpt>
      <trkpt lat="43.78314" lon="7.24148">
        <ele>486</ele>
        <time>2020-02-22T14:33:50.000Z</time>
      </trkpt>
      <trkpt lat="43.78313" lon="7.24138">
        <ele>485.60000610352</ele>
        <time>2020-02-22T14:33:51.000Z</time>
      </trkpt>
      <trkpt lat="43.78312" lon="7.24131">
        <ele>485.20001220703</ele>
        <time>2020-02-22T14:33:52.000Z</time>
      </trkpt>
      <trkpt lat="43.78309" lon="7.24117">
        <ele>483.39999389648</ele>
        <time>2020-02-22T14:33:54.000Z</time>
      </trkpt>
      <trkpt lat="43.78297" lon="7.24116">
        <ele>481.20001220703</ele>
        <time>2020-02-22T14:33:56.000Z</time>
      </trkpt>
      <trkpt lat="43.78289" lon="7.24107">
        <ele>479.39999389648</ele>
        <time>2020-02-22T14:33:58.000Z</time>
      </trkpt>
      <trkpt lat="43.78286" lon="7.241">
        <ele>478.60000610352</ele>
        <time>2020-02-22T14:33:59.000Z</time>
      </trkpt>
      <trkpt lat="43.7828" lon="7.24091">
        <ele>477.60000610352</ele>
        <time>2020-02-22T14:34:00.000Z</time>
      </trkpt>
      <trkpt lat="43.78276" lon="7.24082">
        <ele>476.20001220703</ele>
        <time>2020-02-22T14:34:01.000Z</time>
      </trkpt>
      <trkpt lat="43.78271" lon="7.24073">
        <ele>475.39999389648</ele>
        <time>2020-02-22T14:34:02.000Z</time>
      </trkpt>
      <trkpt lat="43.78265" lon="7.24065">
        <ele>474.39999389648</ele>
        <time>2020-02-22T14:34:03.000Z</time>
      </trkpt>
      <trkpt lat="43.78258" lon="7.24059">
        <ele>473</ele>
        <time>2020-02-22T14:34:04.000Z</time>
      </trkpt>
      <trkpt lat="43.7825" lon="7.24053">
        <ele>471.79998779297</ele>
        <time>2020-02-22T14:34:05.000Z</time>
      </trkpt>
      <trkpt lat="43.78242" lon="7.24046">
        <ele>470.79998779297</ele>
        <time>2020-02-22T14:34:06.000Z</time>
      </trkpt>
      <trkpt lat="43.78236" lon="7.24038">
        <ele>469.60000610352</ele>
        <time>2020-02-22T14:34:07.000Z</time>
      </trkpt>
      <trkpt lat="43.78232" lon="7.24027">
        <ele>468.60000610352</ele>
        <time>2020-02-22T14:34:08.000Z</time>
      </trkpt>
      <trkpt lat="43.78227" lon="7.24017">
        <ele>467.60000610352</ele>
        <time>2020-02-22T14:34:09.000Z</time>
      </trkpt>
      <trkpt lat="43.78219" lon="7.23997">
        <ele>466</ele>
        <time>2020-02-22T14:34:11.000Z</time>
      </trkpt>
      <trkpt lat="43.78209" lon="7.23975">
        <ele>464.60000610352</ele>
        <time>2020-02-22T14:34:13.000Z</time>
      </trkpt>
      <trkpt lat="43.78198" lon="7.23956">
        <ele>463.20001220703</ele>
        <time>2020-02-22T14:34:15.000Z</time>
      </trkpt>
      <trkpt lat="43.78193" lon="7.23946">
        <ele>462.20001220703</ele>
        <time>2020-02-22T14:34:16.000Z</time>
      </trkpt>
      <trkpt lat="43.7819" lon="7.23938">
        <ele>461.60000610352</ele>
        <time>2020-02-22T14:34:17.000Z</time>
      </trkpt>
      <trkpt lat="43.78188" lon="7.23918">
        <ele>460.79998779297</ele>
        <time>2020-02-22T14:34:19.000Z</time>
      </trkpt>
      <trkpt lat="43.78189" lon="7.23909">
        <ele>460.39999389648</ele>
        <time>2020-02-22T14:34:20.000Z</time>
      </trkpt>
      <trkpt lat="43.78186" lon="7.23896">
        <ele>460.20001220703</ele>
        <time>2020-02-22T14:34:22.000Z</time>
      </trkpt>
      <trkpt lat="43.78183" lon="7.23892">
        <ele>460</ele>
        <time>2020-02-22T14:34:23.000Z</time>
      </trkpt>
      <trkpt lat="43.78173" lon="7.23893">
        <ele>460</ele>
        <time>2020-02-22T14:34:25.000Z</time>
      </trkpt>
      <trkpt lat="43.78164" lon="7.23899">
        <ele>459.79998779297</ele>
        <time>2020-02-22T14:34:27.000Z</time>
      </trkpt>
      <trkpt lat="43.78155" lon="7.23905">
        <ele>459.20001220703</ele>
        <time>2020-02-22T14:34:29.000Z</time>
      </trkpt>
      <trkpt lat="43.78151" lon="7.23906">
        <ele>458.60000610352</ele>
        <time>2020-02-22T14:34:30.000Z</time>
      </trkpt>
      <trkpt lat="43.78146" lon="7.23906">
        <ele>458</ele>
        <time>2020-02-22T14:34:32.000Z</time>
      </trkpt>
      <trkpt lat="43.78144" lon="7.23906">
        <ele>457.79998779297</ele>
        <time>2020-02-22T14:34:33.000Z</time>
      </trkpt>
      <trkpt lat="43.78144" lon="7.23906">
        <ele>457.79998779297</ele>
        <time>2020-02-22T14:34:38.000Z</time>
      </trkpt>
      <trkpt lat="43.78139" lon="7.23906">
        <ele>458</ele>
        <time>2020-02-22T14:34:49.000Z</time>
      </trkpt>
      <trkpt lat="43.78128" lon="7.23903">
        <ele>457.60000610352</ele>
        <time>2020-02-22T14:34:54.000Z</time>
      </trkpt>
      <trkpt lat="43.78115" lon="7.23895">
        <ele>456.79998779297</ele>
        <time>2020-02-22T14:34:58.000Z</time>
      </trkpt>
      <trkpt lat="43.78105" lon="7.23892">
        <ele>456.20001220703</ele>
        <time>2020-02-22T14:35:01.000Z</time>
      </trkpt>
      <trkpt lat="43.78099" lon="7.23891">
        <ele>455.60000610352</ele>
        <time>2020-02-22T14:35:03.000Z</time>
      </trkpt>
      <trkpt lat="43.78094" lon="7.23894">
        <ele>455.20001220703</ele>
        <time>2020-02-22T14:35:05.000Z</time>
      </trkpt>
      <trkpt lat="43.78094" lon="7.23896">
        <ele>455</ele>
        <time>2020-02-22T14:35:06.000Z</time>
      </trkpt>
      <trkpt lat="43.78096" lon="7.23897">
        <ele>454.79998779297</ele>
        <time>2020-02-22T14:35:09.000Z</time>
      </trkpt>
      <trkpt lat="43.78098" lon="7.23896">
        <ele>454.60000610352</ele>
        <time>2020-02-22T14:35:10.000Z</time>
      </trkpt>
      <trkpt lat="43.78099" lon="7.23894">
        <ele>454.60000610352</ele>
        <time>2020-02-22T14:35:11.000Z</time>
      </trkpt>
      <trkpt lat="43.78105" lon="7.23891">
        <ele>454.60000610352</ele>
        <time>2020-02-22T14:35:14.000Z</time>
      </trkpt>
      <trkpt lat="43.78108" lon="7.23891">
        <ele>455</ele>
        <time>2020-02-22T14:35:16.000Z</time>
      </trkpt>
      <trkpt lat="43.78113" lon="7.23893">
        <ele>455.60000610352</ele>
        <time>2020-02-22T14:35:22.000Z</time>
      </trkpt>
      <trkpt lat="43.78114" lon="7.23894">
        <ele>455.60000610352</ele>
        <time>2020-02-22T14:35:23.000Z</time>
      </trkpt>
      <trkpt lat="43.78112" lon="7.23898">
        <ele>456</ele>
        <time>2020-02-22T14:35:27.000Z</time>
      </trkpt>
      <trkpt lat="43.7811" lon="7.23898">
        <ele>456</ele>
        <time>2020-02-22T14:35:28.000Z</time>
      </trkpt>
      <trkpt lat="43.78099" lon="7.23896">
        <ele>455.79998779297</ele>
        <time>2020-02-22T14:35:32.000Z</time>
      </trkpt>
      <trkpt lat="43.78095" lon="7.23897">
        <ele>455.60000610352</ele>
        <time>2020-02-22T14:35:33.000Z</time>
      </trkpt>
      <trkpt lat="43.78087" lon="7.23903">
        <ele>455.20001220703</ele>
        <time>2020-02-22T14:35:35.000Z</time>
      </trkpt>
      <trkpt lat="43.78079" lon="7.2391">
        <ele>454.60000610352</ele>
        <time>2020-02-22T14:35:37.000Z</time>
      </trkpt>
      <trkpt lat="43.78066" lon="7.23924">
        <ele>453.60000610352</ele>
        <time>2020-02-22T14:35:40.000Z</time>
      </trkpt>
      <trkpt lat="43.78051" lon="7.23939">
        <ele>452.39999389648</ele>
        <time>2020-02-22T14:35:43.000Z</time>
      </trkpt>
      <trkpt lat="43.78034" lon="7.23954">
        <ele>451.39999389648</ele>
        <time>2020-02-22T14:35:46.000Z</time>
      </trkpt>
      <trkpt lat="43.78028" lon="7.23958">
        <ele>451</ele>
        <time>2020-02-22T14:35:47.000Z</time>
      </trkpt>
      <trkpt lat="43.78015" lon="7.23966">
        <ele>450.20001220703</ele>
        <time>2020-02-22T14:35:49.000Z</time>
      </trkpt>
      <trkpt lat="43.78009" lon="7.2397">
        <ele>449.60000610352</ele>
        <time>2020-02-22T14:35:50.000Z</time>
      </trkpt>
      <trkpt lat="43.77992" lon="7.23978">
        <ele>448.39999389648</ele>
        <time>2020-02-22T14:35:53.000Z</time>
      </trkpt>
      <trkpt lat="43.77988" lon="7.2398">
        <ele>448</ele>
        <time>2020-02-22T14:35:54.000Z</time>
      </trkpt>
      <trkpt lat="43.77982" lon="7.23982">
        <ele>447.20001220703</ele>
        <time>2020-02-22T14:35:56.000Z</time>
      </trkpt>
      <trkpt lat="43.77976" lon="7.23984">
        <ele>446.79998779297</ele>
        <time>2020-02-22T14:35:58.000Z</time>
      </trkpt>
      <trkpt lat="43.77962" lon="7.23985">
        <ele>446.20001220703</ele>
        <time>2020-02-22T14:36:02.000Z</time>
      </trkpt>
      <trkpt lat="43.77954" lon="7.23984">
        <ele>445.79998779297</ele>
        <time>2020-02-22T14:36:04.000Z</time>
      </trkpt>
      <trkpt lat="43.77941" lon="7.2398">
        <ele>445.39999389648</ele>
        <time>2020-02-22T14:36:07.000Z</time>
      </trkpt>
      <trkpt lat="43.77937" lon="7.23978">
        <ele>445</ele>
        <time>2020-02-22T14:36:08.000Z</time>
      </trkpt>
      <trkpt lat="43.77931" lon="7.23974">
        <ele>444.39999389648</ele>
        <time>2020-02-22T14:36:10.000Z</time>
      </trkpt>
      <trkpt lat="43.77924" lon="7.23968">
        <ele>443.79998779297</ele>
        <time>2020-02-22T14:36:12.000Z</time>
      </trkpt>
      <trkpt lat="43.77916" lon="7.23962">
        <ele>443.20001220703</ele>
        <time>2020-02-22T14:36:14.000Z</time>
      </trkpt>
      <trkpt lat="43.77908" lon="7.23958">
        <ele>442.60000610352</ele>
        <time>2020-02-22T14:36:16.000Z</time>
      </trkpt>
      <trkpt lat="43.77895" lon="7.23949">
        <ele>441.20001220703</ele>
        <time>2020-02-22T14:36:20.000Z</time>
      </trkpt>
      <trkpt lat="43.77888" lon="7.23946">
        <ele>440.79998779297</ele>
        <time>2020-02-22T14:36:22.000Z</time>
      </trkpt>
      <trkpt lat="43.77881" lon="7.23946">
        <ele>440.20001220703</ele>
        <time>2020-02-22T14:36:24.000Z</time>
      </trkpt>
      <trkpt lat="43.77874" lon="7.23943">
        <ele>440</ele>
        <time>2020-02-22T14:36:26.000Z</time>
      </trkpt>
      <trkpt lat="43.77846" lon="7.23936">
        <ele>439.20001220703</ele>
        <time>2020-02-22T14:36:31.000Z</time>
      </trkpt>
      <trkpt lat="43.77828" lon="7.23928">
        <ele>437.79998779297</ele>
        <time>2020-02-22T14:36:34.000Z</time>
      </trkpt>
      <trkpt lat="43.77813" lon="7.23923">
        <ele>436.79998779297</ele>
        <time>2020-02-22T14:36:36.000Z</time>
      </trkpt>
      <trkpt lat="43.77805" lon="7.23921">
        <ele>436.20001220703</ele>
        <time>2020-02-22T14:36:37.000Z</time>
      </trkpt>
      <trkpt lat="43.77799" lon="7.2392">
        <ele>435.60000610352</ele>
        <time>2020-02-22T14:36:38.000Z</time>
      </trkpt>
      <trkpt lat="43.77791" lon="7.23912">
        <ele>434.60000610352</ele>
        <time>2020-02-22T14:36:41.000Z</time>
      </trkpt>
      <trkpt lat="43.77792" lon="7.23913">
        <ele>434.20001220703</ele>
        <time>2020-02-22T14:36:44.000Z</time>
      </trkpt>
      <trkpt lat="43.77792" lon="7.23913">
        <ele>434.60000610352</ele>
        <time>2020-02-22T14:36:59.000Z</time>
      </trkpt>
      <trkpt lat="43.77791" lon="7.23911">
        <ele>434.39999389648</ele>
        <time>2020-02-22T14:37:11.000Z</time>
      </trkpt>
      <trkpt lat="43.7779" lon="7.2391">
        <ele>434.39999389648</ele>
        <time>2020-02-22T14:37:12.000Z</time>
      </trkpt>
      <trkpt lat="43.77781" lon="7.23899">
        <ele>434.20001220703</ele>
        <time>2020-02-22T14:37:18.000Z</time>
      </trkpt>
      <trkpt lat="43.77769" lon="7.23881">
        <ele>434</ele>
        <time>2020-02-22T14:37:23.000Z</time>
      </trkpt>
      <trkpt lat="43.77745" lon="7.23844">
        <ele>435.60000610352</ele>
        <time>2020-02-22T14:37:32.000Z</time>
      </trkpt>
      <trkpt lat="43.77741" lon="7.23839">
        <ele>436</ele>
        <time>2020-02-22T14:37:33.000Z</time>
      </trkpt>
      <trkpt lat="43.77737" lon="7.23831">
        <ele>437</ele>
        <time>2020-02-22T14:37:35.000Z</time>
      </trkpt>
      <trkpt lat="43.77728" lon="7.23821">
        <ele>438.39999389648</ele>
        <time>2020-02-22T14:37:38.000Z</time>
      </trkpt>
      <trkpt lat="43.77724" lon="7.23818">
        <ele>438.79998779297</ele>
        <time>2020-02-22T14:37:39.000Z</time>
      </trkpt>
      <trkpt lat="43.77717" lon="7.23813">
        <ele>439.39999389648</ele>
        <time>2020-02-22T14:37:41.000Z</time>
      </trkpt>
      <trkpt lat="43.77707" lon="7.23809">
        <ele>440.60000610352</ele>
        <time>2020-02-22T14:37:45.000Z</time>
      </trkpt>
      <trkpt lat="43.77698" lon="7.23806">
        <ele>441.79998779297</ele>
        <time>2020-02-22T14:37:48.000Z</time>
      </trkpt>
      <trkpt lat="43.77687" lon="7.23808">
        <ele>442.20001220703</ele>
        <time>2020-02-22T14:37:51.000Z</time>
      </trkpt>
      <trkpt lat="43.77672" lon="7.23802">
        <ele>441</ele>
        <time>2020-02-22T14:37:56.000Z</time>
      </trkpt>
      <trkpt lat="43.7767" lon="7.238">
        <ele>440.60000610352</ele>
        <time>2020-02-22T14:37:57.000Z</time>
      </trkpt>
      <trkpt lat="43.77666" lon="7.23793">
        <ele>439.60000610352</ele>
        <time>2020-02-22T14:38:02.000Z</time>
      </trkpt>
      <trkpt lat="43.77666" lon="7.23793">
        <ele>438.79998779297</ele>
        <time>2020-02-22T14:38:11.000Z</time>
      </trkpt>
      <trkpt lat="43.7766" lon="7.23787">
        <ele>439</ele>
        <time>2020-02-22T14:38:16.000Z</time>
      </trkpt>
      <trkpt lat="43.77657" lon="7.23779">
        <ele>438.79998779297</ele>
        <time>2020-02-22T14:38:18.000Z</time>
      </trkpt>
      <trkpt lat="43.77655" lon="7.23776">
        <ele>438</ele>
        <time>2020-02-22T14:38:19.000Z</time>
      </trkpt>
      <trkpt lat="43.77652" lon="7.23776">
        <ele>437.20001220703</ele>
        <time>2020-02-22T14:38:20.000Z</time>
      </trkpt>
      <trkpt lat="43.77649" lon="7.23778">
        <ele>436.20001220703</ele>
        <time>2020-02-22T14:38:21.000Z</time>
      </trkpt>
      <trkpt lat="43.77645" lon="7.23779">
        <ele>435</ele>
        <time>2020-02-22T14:38:22.000Z</time>
      </trkpt>
      <trkpt lat="43.77641" lon="7.23778">
        <ele>433.79998779297</ele>
        <time>2020-02-22T14:38:23.000Z</time>
      </trkpt>
      <trkpt lat="43.7764" lon="7.23774">
        <ele>432.79998779297</ele>
        <time>2020-02-22T14:38:24.000Z</time>
      </trkpt>
      <trkpt lat="43.77641" lon="7.23771">
        <ele>431.79998779297</ele>
        <time>2020-02-22T14:38:25.000Z</time>
      </trkpt>
      <trkpt lat="43.77642" lon="7.23763">
        <ele>430.79998779297</ele>
        <time>2020-02-22T14:38:27.000Z</time>
      </trkpt>
      <trkpt lat="43.77645" lon="7.23756">
        <ele>429.60000610352</ele>
        <time>2020-02-22T14:38:29.000Z</time>
      </trkpt>
      <trkpt lat="43.77647" lon="7.23753">
        <ele>429.20001220703</ele>
        <time>2020-02-22T14:38:30.000Z</time>
      </trkpt>
      <trkpt lat="43.77651" lon="7.23751">
        <ele>428.39999389648</ele>
        <time>2020-02-22T14:38:31.000Z</time>
      </trkpt>
      <trkpt lat="43.77653" lon="7.23751">
        <ele>427</ele>
        <time>2020-02-22T14:38:32.000Z</time>
      </trkpt>
      <trkpt lat="43.77653" lon="7.23748">
        <ele>426.20001220703</ele>
        <time>2020-02-22T14:38:33.000Z</time>
      </trkpt>
      <trkpt lat="43.7765" lon="7.23746">
        <ele>426</ele>
        <time>2020-02-22T14:38:34.000Z</time>
      </trkpt>
      <trkpt lat="43.77641" lon="7.23748">
        <ele>424.79998779297</ele>
        <time>2020-02-22T14:38:36.000Z</time>
      </trkpt>
      <trkpt lat="43.77633" lon="7.23746">
        <ele>423.60000610352</ele>
        <time>2020-02-22T14:38:38.000Z</time>
      </trkpt>
      <trkpt lat="43.77628" lon="7.23736">
        <ele>421.20001220703</ele>
        <time>2020-02-22T14:38:40.000Z</time>
      </trkpt>
      <trkpt lat="43.77624" lon="7.23724">
        <ele>419.20001220703</ele>
        <time>2020-02-22T14:38:42.000Z</time>
      </trkpt>
      <trkpt lat="43.77622" lon="7.23719">
        <ele>418.39999389648</ele>
        <time>2020-02-22T14:38:43.000Z</time>
      </trkpt>
      <trkpt lat="43.7762" lon="7.23715">
        <ele>417.39999389648</ele>
        <time>2020-02-22T14:38:44.000Z</time>
      </trkpt>
      <trkpt lat="43.77617" lon="7.2371">
        <ele>417</ele>
        <time>2020-02-22T14:38:45.000Z</time>
      </trkpt>
      <trkpt lat="43.77616" lon="7.23705">
        <ele>415.79998779297</ele>
        <time>2020-02-22T14:38:46.000Z</time>
      </trkpt>
      <trkpt lat="43.77615" lon="7.237">
        <ele>414.39999389648</ele>
        <time>2020-02-22T14:38:47.000Z</time>
      </trkpt>
      <trkpt lat="43.77609" lon="7.23691">
        <ele>412.79998779297</ele>
        <time>2020-02-22T14:38:49.000Z</time>
      </trkpt>
      <trkpt lat="43.77608" lon="7.23685">
        <ele>411.60000610352</ele>
        <time>2020-02-22T14:38:50.000Z</time>
      </trkpt>
      <trkpt lat="43.77606" lon="7.23675">
        <ele>411</ele>
        <time>2020-02-22T14:38:52.000Z</time>
      </trkpt>
      <trkpt lat="43.77605" lon="7.23671">
        <ele>409.79998779297</ele>
        <time>2020-02-22T14:38:53.000Z</time>
      </trkpt>
      <trkpt lat="43.77604" lon="7.23669">
        <ele>408.79998779297</ele>
        <time>2020-02-22T14:38:54.000Z</time>
      </trkpt>
      <trkpt lat="43.77602" lon="7.23665">
        <ele>408.60000610352</ele>
        <time>2020-02-22T14:38:55.000Z</time>
      </trkpt>
      <trkpt lat="43.776" lon="7.23661">
        <ele>407.20001220703</ele>
        <time>2020-02-22T14:38:56.000Z</time>
      </trkpt>
      <trkpt lat="43.77598" lon="7.23656">
        <ele>406.20001220703</ele>
        <time>2020-02-22T14:38:57.000Z</time>
      </trkpt>
      <trkpt lat="43.77598" lon="7.23656">
        <ele>405</ele>
        <time>2020-02-22T14:38:58.000Z</time>
      </trkpt>
      <trkpt lat="43.77599" lon="7.23657">
        <ele>404</ele>
        <time>2020-02-22T14:38:59.000Z</time>
      </trkpt>
      <trkpt lat="43.77598" lon="7.23656">
        <ele>402.79998779297</ele>
        <time>2020-02-22T14:39:00.000Z</time>
      </trkpt>
      <trkpt lat="43.77596" lon="7.23653">
        <ele>402.20001220703</ele>
        <time>2020-02-22T14:39:02.000Z</time>
      </trkpt>
      <trkpt lat="43.7759" lon="7.23636">
        <ele>401.60000610352</ele>
        <time>2020-02-22T14:39:06.000Z</time>
      </trkpt>
      <trkpt lat="43.77587" lon="7.23627">
        <ele>400.39999389648</ele>
        <time>2020-02-22T14:39:08.000Z</time>
      </trkpt>
      <trkpt lat="43.77586" lon="7.23625">
        <ele>399.39999389648</ele>
        <time>2020-02-22T14:39:09.000Z</time>
      </trkpt>
      <trkpt lat="43.77584" lon="7.23625">
        <ele>398.79998779297</ele>
        <time>2020-02-22T14:39:10.000Z</time>
      </trkpt>
      <trkpt lat="43.7758" lon="7.2362">
        <ele>397.79998779297</ele>
        <time>2020-02-22T14:39:11.000Z</time>
      </trkpt>
      <trkpt lat="43.77582" lon="7.23613">
        <ele>396</ele>
        <time>2020-02-22T14:39:13.000Z</time>
      </trkpt>
      <trkpt lat="43.77583" lon="7.23609">
        <ele>395.79998779297</ele>
        <time>2020-02-22T14:39:14.000Z</time>
      </trkpt>
      <trkpt lat="43.77584" lon="7.236">
        <ele>394.39999389648</ele>
        <time>2020-02-22T14:39:16.000Z</time>
      </trkpt>
      <trkpt lat="43.77586" lon="7.23589">
        <ele>392.60000610352</ele>
        <time>2020-02-22T14:39:18.000Z</time>
      </trkpt>
      <trkpt lat="43.77586" lon="7.23583">
        <ele>391.79998779297</ele>
        <time>2020-02-22T14:39:19.000Z</time>
      </trkpt>
      <trkpt lat="43.77584" lon="7.23579">
        <ele>391.20001220703</ele>
        <time>2020-02-22T14:39:20.000Z</time>
      </trkpt>
      <trkpt lat="43.77584" lon="7.23569">
        <ele>390</ele>
        <time>2020-02-22T14:39:22.000Z</time>
      </trkpt>
      <trkpt lat="43.77583" lon="7.23565">
        <ele>389</ele>
        <time>2020-02-22T14:39:23.000Z</time>
      </trkpt>
      <trkpt lat="43.77582" lon="7.23562">
        <ele>388.39999389648</ele>
        <time>2020-02-22T14:39:24.000Z</time>
      </trkpt>
      <trkpt lat="43.77581" lon="7.23561">
        <ele>387</ele>
        <time>2020-02-22T14:39:25.000Z</time>
      </trkpt>
      <trkpt lat="43.77579" lon="7.23558">
        <ele>385.39999389648</ele>
        <time>2020-02-22T14:39:27.000Z</time>
      </trkpt>
      <trkpt lat="43.7758" lon="7.23558">
        <ele>385.20001220703</ele>
        <time>2020-02-22T14:39:28.000Z</time>
      </trkpt>
      <trkpt lat="43.77581" lon="7.23555">
        <ele>385</ele>
        <time>2020-02-22T14:39:30.000Z</time>
      </trkpt>
      <trkpt lat="43.77582" lon="7.23552">
        <ele>384.20001220703</ele>
        <time>2020-02-22T14:39:32.000Z</time>
      </trkpt>
      <trkpt lat="43.77581" lon="7.23549">
        <ele>383.60000610352</ele>
        <time>2020-02-22T14:39:33.000Z</time>
      </trkpt>
      <trkpt lat="43.77579" lon="7.23547">
        <ele>383.20001220703</ele>
        <time>2020-02-22T14:39:34.000Z</time>
      </trkpt>
      <trkpt lat="43.77576" lon="7.23537">
        <ele>381.79998779297</ele>
        <time>2020-02-22T14:39:36.000Z</time>
      </trkpt>
      <trkpt lat="43.77576" lon="7.2353">
        <ele>381.39999389648</ele>
        <time>2020-02-22T14:39:37.000Z</time>
      </trkpt>
      <trkpt lat="43.77576" lon="7.23519">
        <ele>380.39999389648</ele>
        <time>2020-02-22T14:39:39.000Z</time>
      </trkpt>
      <trkpt lat="43.77574" lon="7.23498">
        <ele>378.39999389648</ele>
        <time>2020-02-22T14:39:42.000Z</time>
      </trkpt>
      <trkpt lat="43.77574" lon="7.2349">
        <ele>377.20001220703</ele>
        <time>2020-02-22T14:39:43.000Z</time>
      </trkpt>
      <trkpt lat="43.77573" lon="7.23483">
        <ele>376.20001220703</ele>
        <time>2020-02-22T14:39:44.000Z</time>
      </trkpt>
      <trkpt lat="43.77572" lon="7.23476">
        <ele>375.20001220703</ele>
        <time>2020-02-22T14:39:45.000Z</time>
      </trkpt>
      <trkpt lat="43.77568" lon="7.23463">
        <ele>373.79998779297</ele>
        <time>2020-02-22T14:39:47.000Z</time>
      </trkpt>
      <trkpt lat="43.77567" lon="7.23456">
        <ele>373.39999389648</ele>
        <time>2020-02-22T14:39:48.000Z</time>
      </trkpt>
      <trkpt lat="43.77566" lon="7.23444">
        <ele>372.39999389648</ele>
        <time>2020-02-22T14:39:50.000Z</time>
      </trkpt>
      <trkpt lat="43.77565" lon="7.2344">
        <ele>371.79998779297</ele>
        <time>2020-02-22T14:39:52.000Z</time>
      </trkpt>
      <trkpt lat="43.77565" lon="7.23441">
        <ele>371.79998779297</ele>
        <time>2020-02-22T14:39:56.000Z</time>
      </trkpt>
      <trkpt lat="43.77565" lon="7.23441">
        <ele>371.39999389648</ele>
        <time>2020-02-22T14:40:01.000Z</time>
      </trkpt>
      <trkpt lat="43.77565" lon="7.23441">
        <ele>371.39999389648</ele>
        <time>2020-02-22T14:40:03.000Z</time>
      </trkpt>
      <trkpt lat="43.77566" lon="7.23441">
        <ele>371.60000610352</ele>
        <time>2020-02-22T14:40:21.000Z</time>
      </trkpt>
      <trkpt lat="43.77565" lon="7.2344">
        <ele>372.20001220703</ele>
        <time>2020-02-22T14:40:40.000Z</time>
      </trkpt>
      <trkpt lat="43.77565" lon="7.2344">
        <ele>372</ele>
        <time>2020-02-22T14:40:56.000Z</time>
      </trkpt>
      <trkpt lat="43.77564" lon="7.2344">
        <ele>372</ele>
        <time>2020-02-22T14:41:00.000Z</time>
      </trkpt>
      <trkpt lat="43.77564" lon="7.23439">
        <ele>372.39999389648</ele>
        <time>2020-02-22T14:41:06.000Z</time>
      </trkpt>
      <trkpt lat="43.77565" lon="7.23438">
        <ele>372</ele>
        <time>2020-02-22T14:41:11.000Z</time>
      </trkpt>
      <trkpt lat="43.77566" lon="7.2342">
        <ele>371.79998779297</ele>
        <time>2020-02-22T14:41:16.000Z</time>
      </trkpt>
      <trkpt lat="43.77566" lon="7.23394">
        <ele>371</ele>
        <time>2020-02-22T14:41:20.000Z</time>
      </trkpt>
      <trkpt lat="43.77567" lon="7.23389">
        <ele>370.79998779297</ele>
        <time>2020-02-22T14:41:21.000Z</time>
      </trkpt>
      <trkpt lat="43.77573" lon="7.23369">
        <ele>370.39999389648</ele>
        <time>2020-02-22T14:41:24.000Z</time>
      </trkpt>
      <trkpt lat="43.77574" lon="7.23363">
        <ele>370.20001220703</ele>
        <time>2020-02-22T14:41:25.000Z</time>
      </trkpt>
      <trkpt lat="43.77579" lon="7.23353">
        <ele>369</ele>
        <time>2020-02-22T14:41:27.000Z</time>
      </trkpt>
      <trkpt lat="43.77584" lon="7.23344">
        <ele>367.79998779297</ele>
        <time>2020-02-22T14:41:29.000Z</time>
      </trkpt>
      <trkpt lat="43.77589" lon="7.23338">
        <ele>366.60000610352</ele>
        <time>2020-02-22T14:41:31.000Z</time>
      </trkpt>
      <trkpt lat="43.77592" lon="7.23334">
        <ele>365.60000610352</ele>
        <time>2020-02-22T14:41:33.000Z</time>
      </trkpt>
      <trkpt lat="43.77593" lon="7.23332">
        <ele>364.39999389648</ele>
        <time>2020-02-22T14:41:34.000Z</time>
      </trkpt>
      <trkpt lat="43.77595" lon="7.23325">
        <ele>363.39999389648</ele>
        <time>2020-02-22T14:41:36.000Z</time>
      </trkpt>
      <trkpt lat="43.77595" lon="7.2332">
        <ele>362.79998779297</ele>
        <time>2020-02-22T14:41:37.000Z</time>
      </trkpt>
      <trkpt lat="43.77595" lon="7.23315">
        <ele>361.79998779297</ele>
        <time>2020-02-22T14:41:38.000Z</time>
      </trkpt>
      <trkpt lat="43.77596" lon="7.23306">
        <ele>360.60000610352</ele>
        <time>2020-02-22T14:41:40.000Z</time>
      </trkpt>
      <trkpt lat="43.77596" lon="7.23302">
        <ele>359.79998779297</ele>
        <time>2020-02-22T14:41:41.000Z</time>
      </trkpt>
      <trkpt lat="43.77596" lon="7.23298">
        <ele>359</ele>
        <time>2020-02-22T14:41:42.000Z</time>
      </trkpt>
      <trkpt lat="43.77595" lon="7.23283">
        <ele>357.39999389648</ele>
        <time>2020-02-22T14:41:45.000Z</time>
      </trkpt>
      <trkpt lat="43.77594" lon="7.23272">
        <ele>355.39999389648</ele>
        <time>2020-02-22T14:41:47.000Z</time>
      </trkpt>
      <trkpt lat="43.77594" lon="7.23266">
        <ele>354.20001220703</ele>
        <time>2020-02-22T14:41:48.000Z</time>
      </trkpt>
      <trkpt lat="43.77595" lon="7.23261">
        <ele>353.20001220703</ele>
        <time>2020-02-22T14:41:49.000Z</time>
      </trkpt>
      <trkpt lat="43.77595" lon="7.23256">
        <ele>352.20001220703</ele>
        <time>2020-02-22T14:41:50.000Z</time>
      </trkpt>
      <trkpt lat="43.77595" lon="7.2325">
        <ele>350.79998779297</ele>
        <time>2020-02-22T14:41:51.000Z</time>
      </trkpt>
      <trkpt lat="43.77594" lon="7.23239">
        <ele>349</ele>
        <time>2020-02-22T14:41:53.000Z</time>
      </trkpt>
      <trkpt lat="43.77594" lon="7.23234">
        <ele>347.79998779297</ele>
        <time>2020-02-22T14:41:54.000Z</time>
      </trkpt>
      <trkpt lat="43.77593" lon="7.23221">
        <ele>346.20001220703</ele>
        <time>2020-02-22T14:41:56.000Z</time>
      </trkpt>
      <trkpt lat="43.77593" lon="7.23216">
        <ele>345.60000610352</ele>
        <time>2020-02-22T14:41:57.000Z</time>
      </trkpt>
      <trkpt lat="43.77594" lon="7.2321">
        <ele>344.39999389648</ele>
        <time>2020-02-22T14:41:58.000Z</time>
      </trkpt>
      <trkpt lat="43.77597" lon="7.23198">
        <ele>342.60000610352</ele>
        <time>2020-02-22T14:42:00.000Z</time>
      </trkpt>
      <trkpt lat="43.77599" lon="7.23191">
        <ele>342</ele>
        <time>2020-02-22T14:42:01.000Z</time>
      </trkpt>
      <trkpt lat="43.776" lon="7.23186">
        <ele>341</ele>
        <time>2020-02-22T14:42:02.000Z</time>
      </trkpt>
      <trkpt lat="43.77603" lon="7.23179">
        <ele>338.79998779297</ele>
        <time>2020-02-22T14:42:04.000Z</time>
      </trkpt>
      <trkpt lat="43.77603" lon="7.23173">
        <ele>336.79998779297</ele>
        <time>2020-02-22T14:42:06.000Z</time>
      </trkpt>
      <trkpt lat="43.77604" lon="7.23164">
        <ele>335.39999389648</ele>
        <time>2020-02-22T14:42:08.000Z</time>
      </trkpt>
      <trkpt lat="43.77607" lon="7.23156">
        <ele>334</ele>
        <time>2020-02-22T14:42:10.000Z</time>
      </trkpt>
      <trkpt lat="43.77608" lon="7.23152">
        <ele>333.20001220703</ele>
        <time>2020-02-22T14:42:11.000Z</time>
      </trkpt>
      <trkpt lat="43.77607" lon="7.23149">
        <ele>332.60000610352</ele>
        <time>2020-02-22T14:42:12.000Z</time>
      </trkpt>
      <trkpt lat="43.77605" lon="7.23143">
        <ele>330.39999389648</ele>
        <time>2020-02-22T14:42:14.000Z</time>
      </trkpt>
      <trkpt lat="43.77603" lon="7.23136">
        <ele>328.60000610352</ele>
        <time>2020-02-22T14:42:16.000Z</time>
      </trkpt>
      <trkpt lat="43.77602" lon="7.23133">
        <ele>328</ele>
        <time>2020-02-22T14:42:17.000Z</time>
      </trkpt>
      <trkpt lat="43.776" lon="7.23129">
        <ele>327.20001220703</ele>
        <time>2020-02-22T14:42:18.000Z</time>
      </trkpt>
      <trkpt lat="43.77594" lon="7.23115">
        <ele>325.60000610352</ele>
        <time>2020-02-22T14:42:21.000Z</time>
      </trkpt>
      <trkpt lat="43.7759" lon="7.2311">
        <ele>323.60000610352</ele>
        <time>2020-02-22T14:42:23.000Z</time>
      </trkpt>
      <trkpt lat="43.77589" lon="7.23106">
        <ele>322.79998779297</ele>
        <time>2020-02-22T14:42:24.000Z</time>
      </trkpt>
      <trkpt lat="43.77588" lon="7.23102">
        <ele>321.60000610352</ele>
        <time>2020-02-22T14:42:25.000Z</time>
      </trkpt>
      <trkpt lat="43.77585" lon="7.23098">
        <ele>320</ele>
        <time>2020-02-22T14:42:27.000Z</time>
      </trkpt>
      <trkpt lat="43.77583" lon="7.23098">
        <ele>319.39999389648</ele>
        <time>2020-02-22T14:42:28.000Z</time>
      </trkpt>
      <trkpt lat="43.7758" lon="7.23096">
        <ele>319</ele>
        <time>2020-02-22T14:42:29.000Z</time>
      </trkpt>
      <trkpt lat="43.7758" lon="7.23093">
        <ele>317.79998779297</ele>
        <time>2020-02-22T14:42:31.000Z</time>
      </trkpt>
      <trkpt lat="43.77583" lon="7.23091">
        <ele>317.20001220703</ele>
        <time>2020-02-22T14:42:34.000Z</time>
      </trkpt>
      <trkpt lat="43.77585" lon="7.23087">
        <ele>317</ele>
        <time>2020-02-22T14:42:35.000Z</time>
      </trkpt>
      <trkpt lat="43.77589" lon="7.2308">
        <ele>316.79998779297</ele>
        <time>2020-02-22T14:42:37.000Z</time>
      </trkpt>
      <trkpt lat="43.77593" lon="7.23071">
        <ele>315.79998779297</ele>
        <time>2020-02-22T14:42:39.000Z</time>
      </trkpt>
      <trkpt lat="43.77594" lon="7.23061">
        <ele>314</ele>
        <time>2020-02-22T14:42:41.000Z</time>
      </trkpt>
      <trkpt lat="43.77595" lon="7.23056">
        <ele>312.60000610352</ele>
        <time>2020-02-22T14:42:42.000Z</time>
      </trkpt>
      <trkpt lat="43.77596" lon="7.23051">
        <ele>311.39999389648</ele>
        <time>2020-02-22T14:42:43.000Z</time>
      </trkpt>
      <trkpt lat="43.77597" lon="7.23047">
        <ele>310.20001220703</ele>
        <time>2020-02-22T14:42:44.000Z</time>
      </trkpt>
      <trkpt lat="43.77598" lon="7.23045">
        <ele>309</ele>
        <time>2020-02-22T14:42:45.000Z</time>
      </trkpt>
      <trkpt lat="43.77598" lon="7.23041">
        <ele>308.60000610352</ele>
        <time>2020-02-22T14:42:46.000Z</time>
      </trkpt>
      <trkpt lat="43.77598" lon="7.23027">
        <ele>308</ele>
        <time>2020-02-22T14:42:49.000Z</time>
      </trkpt>
      <trkpt lat="43.77599" lon="7.23022">
        <ele>308</ele>
        <time>2020-02-22T14:42:50.000Z</time>
      </trkpt>
      <trkpt lat="43.77601" lon="7.23015">
        <ele>306.79998779297</ele>
        <time>2020-02-22T14:42:52.000Z</time>
      </trkpt>
      <trkpt lat="43.77606" lon="7.23008">
        <ele>305.20001220703</ele>
        <time>2020-02-22T14:42:54.000Z</time>
      </trkpt>
      <trkpt lat="43.7761" lon="7.23004">
        <ele>304.20001220703</ele>
        <time>2020-02-22T14:42:55.000Z</time>
      </trkpt>
      <trkpt lat="43.77616" lon="7.23001">
        <ele>302.20001220703</ele>
        <time>2020-02-22T14:42:57.000Z</time>
      </trkpt>
      <trkpt lat="43.77619" lon="7.23">
        <ele>301.60000610352</ele>
        <time>2020-02-22T14:42:58.000Z</time>
      </trkpt>
      <trkpt lat="43.77619" lon="7.22999">
        <ele>301</ele>
        <time>2020-02-22T14:42:59.000Z</time>
      </trkpt>
      <trkpt lat="43.77618" lon="7.22998">
        <ele>299.60000610352</ele>
        <time>2020-02-22T14:43:01.000Z</time>
      </trkpt>
      <trkpt lat="43.77616" lon="7.22998">
        <ele>298.39999389648</ele>
        <time>2020-02-22T14:43:03.000Z</time>
      </trkpt>
      <trkpt lat="43.7761" lon="7.22997">
        <ele>298</ele>
        <time>2020-02-22T14:43:07.000Z</time>
      </trkpt>
      <trkpt lat="43.77599" lon="7.22999">
        <ele>298.20001220703</ele>
        <time>2020-02-22T14:43:12.000Z</time>
      </trkpt>
      <trkpt lat="43.77596" lon="7.22998">
        <ele>298</ele>
        <time>2020-02-22T14:43:13.000Z</time>
      </trkpt>
      <trkpt lat="43.77595" lon="7.22994">
        <ele>297.79998779297</ele>
        <time>2020-02-22T14:43:15.000Z</time>
      </trkpt>
      <trkpt lat="43.77598" lon="7.22989">
        <ele>297</ele>
        <time>2020-02-22T14:43:17.000Z</time>
      </trkpt>
      <trkpt lat="43.77601" lon="7.22988">
        <ele>296.79998779297</ele>
        <time>2020-02-22T14:43:18.000Z</time>
      </trkpt>
      <trkpt lat="43.77609" lon="7.22983">
        <ele>296</ele>
        <time>2020-02-22T14:43:20.000Z</time>
      </trkpt>
      <trkpt lat="43.77613" lon="7.22983">
        <ele>295.39999389648</ele>
        <time>2020-02-22T14:43:21.000Z</time>
      </trkpt>
      <trkpt lat="43.77615" lon="7.22981">
        <ele>294.79998779297</ele>
        <time>2020-02-22T14:43:22.000Z</time>
      </trkpt>
      <trkpt lat="43.77615" lon="7.2298">
        <ele>294.20001220703</ele>
        <time>2020-02-22T14:43:23.000Z</time>
      </trkpt>
      <trkpt lat="43.77613" lon="7.22979">
        <ele>293.39999389648</ele>
        <time>2020-02-22T14:43:24.000Z</time>
      </trkpt>
      <trkpt lat="43.77609" lon="7.22978">
        <ele>292.60000610352</ele>
        <time>2020-02-22T14:43:26.000Z</time>
      </trkpt>
      <trkpt lat="43.77604" lon="7.22976">
        <ele>292.20001220703</ele>
        <time>2020-02-22T14:43:27.000Z</time>
      </trkpt>
      <trkpt lat="43.77597" lon="7.22975">
        <ele>290.60000610352</ele>
        <time>2020-02-22T14:43:29.000Z</time>
      </trkpt>
      <trkpt lat="43.77591" lon="7.22974">
        <ele>289.39999389648</ele>
        <time>2020-02-22T14:43:31.000Z</time>
      </trkpt>
      <trkpt lat="43.77582" lon="7.22974">
        <ele>288</ele>
        <time>2020-02-22T14:43:33.000Z</time>
      </trkpt>
      <trkpt lat="43.77576" lon="7.22977">
        <ele>286</ele>
        <time>2020-02-22T14:43:35.000Z</time>
      </trkpt>
      <trkpt lat="43.77573" lon="7.22977">
        <ele>285.39999389648</ele>
        <time>2020-02-22T14:43:36.000Z</time>
      </trkpt>
      <trkpt lat="43.77572" lon="7.22976">
        <ele>284.39999389648</ele>
        <time>2020-02-22T14:43:37.000Z</time>
      </trkpt>
      <trkpt lat="43.77573" lon="7.22974">
        <ele>283.20001220703</ele>
        <time>2020-02-22T14:43:38.000Z</time>
      </trkpt>
      <trkpt lat="43.77576" lon="7.22964">
        <ele>281.79998779297</ele>
        <time>2020-02-22T14:43:41.000Z</time>
      </trkpt>
      <trkpt lat="43.77579" lon="7.2296">
        <ele>281.60000610352</ele>
        <time>2020-02-22T14:43:42.000Z</time>
      </trkpt>
      <trkpt lat="43.77587" lon="7.22948">
        <ele>280.60000610352</ele>
        <time>2020-02-22T14:43:45.000Z</time>
      </trkpt>
      <trkpt lat="43.77591" lon="7.22944">
        <ele>280</ele>
        <time>2020-02-22T14:43:46.000Z</time>
      </trkpt>
      <trkpt lat="43.77594" lon="7.22939">
        <ele>279.39999389648</ele>
        <time>2020-02-22T14:43:47.000Z</time>
      </trkpt>
      <trkpt lat="43.77598" lon="7.22932">
        <ele>278</ele>
        <time>2020-02-22T14:43:49.000Z</time>
      </trkpt>
      <trkpt lat="43.77599" lon="7.22928">
        <ele>277</ele>
        <time>2020-02-22T14:43:50.000Z</time>
      </trkpt>
      <trkpt lat="43.77601" lon="7.22926">
        <ele>276.39999389648</ele>
        <time>2020-02-22T14:43:51.000Z</time>
      </trkpt>
      <trkpt lat="43.77603" lon="7.22923">
        <ele>275.79998779297</ele>
        <time>2020-02-22T14:43:52.000Z</time>
      </trkpt>
      <trkpt lat="43.77608" lon="7.22921">
        <ele>274.60000610352</ele>
        <time>2020-02-22T14:43:54.000Z</time>
      </trkpt>
      <trkpt lat="43.77608" lon="7.22918">
        <ele>273.39999389648</ele>
        <time>2020-02-22T14:43:56.000Z</time>
      </trkpt>
      <trkpt lat="43.77606" lon="7.22916">
        <ele>272.79998779297</ele>
        <time>2020-02-22T14:43:57.000Z</time>
      </trkpt>
      <trkpt lat="43.77603" lon="7.22913">
        <ele>272.20001220703</ele>
        <time>2020-02-22T14:43:58.000Z</time>
      </trkpt>
      <trkpt lat="43.77595" lon="7.22909">
        <ele>271</ele>
        <time>2020-02-22T14:44:00.000Z</time>
      </trkpt>
      <trkpt lat="43.77591" lon="7.22908">
        <ele>270.39999389648</ele>
        <time>2020-02-22T14:44:01.000Z</time>
      </trkpt>
      <trkpt lat="43.77588" lon="7.22908">
        <ele>269.60000610352</ele>
        <time>2020-02-22T14:44:02.000Z</time>
      </trkpt>
      <trkpt lat="43.77585" lon="7.22906">
        <ele>268</ele>
        <time>2020-02-22T14:44:04.000Z</time>
      </trkpt>
      <trkpt lat="43.77587" lon="7.22901">
        <ele>266.20001220703</ele>
        <time>2020-02-22T14:44:06.000Z</time>
      </trkpt>
      <trkpt lat="43.77592" lon="7.22899">
        <ele>265.60000610352</ele>
        <time>2020-02-22T14:44:08.000Z</time>
      </trkpt>
      <trkpt lat="43.77594" lon="7.22899">
        <ele>265.20001220703</ele>
        <time>2020-02-22T14:44:09.000Z</time>
      </trkpt>
      <trkpt lat="43.77594" lon="7.22896">
        <ele>264.39999389648</ele>
        <time>2020-02-22T14:44:11.000Z</time>
      </trkpt>
      <trkpt lat="43.77592" lon="7.22895">
        <ele>263.79998779297</ele>
        <time>2020-02-22T14:44:12.000Z</time>
      </trkpt>
      <trkpt lat="43.77588" lon="7.22893">
        <ele>262.20001220703</ele>
        <time>2020-02-22T14:44:14.000Z</time>
      </trkpt>
      <trkpt lat="43.77586" lon="7.22891">
        <ele>261.60000610352</ele>
        <time>2020-02-22T14:44:15.000Z</time>
      </trkpt>
      <trkpt lat="43.77585" lon="7.22888">
        <ele>261</ele>
        <time>2020-02-22T14:44:17.000Z</time>
      </trkpt>
      <trkpt lat="43.77585" lon="7.22888">
        <ele>260.60000610352</ele>
        <time>2020-02-22T14:44:19.000Z</time>
      </trkpt>
      <trkpt lat="43.77584" lon="7.22889">
        <ele>260</ele>
        <time>2020-02-22T14:44:25.000Z</time>
      </trkpt>
      <trkpt lat="43.77584" lon="7.22889">
        <ele>260</ele>
        <time>2020-02-22T14:44:26.000Z</time>
      </trkpt>
      <trkpt lat="43.77584" lon="7.22887">
        <ele>260</ele>
        <time>2020-02-22T14:44:44.000Z</time>
      </trkpt>
      <trkpt lat="43.77584" lon="7.22887">
        <ele>260</ele>
        <time>2020-02-22T14:45:04.000Z</time>
      </trkpt>
      <trkpt lat="43.77585" lon="7.2289">
        <ele>259.79998779297</ele>
        <time>2020-02-22T14:45:31.000Z</time>
      </trkpt>
      <trkpt lat="43.77585" lon="7.2289">
        <ele>260.20001220703</ele>
        <time>2020-02-22T14:45:40.000Z</time>
      </trkpt>
      <trkpt lat="43.77585" lon="7.2289">
        <ele>260.60000610352</ele>
        <time>2020-02-22T14:45:52.000Z</time>
      </trkpt>
      <trkpt lat="43.77585" lon="7.22891">
        <ele>260.20001220703</ele>
        <time>2020-02-22T14:46:02.000Z</time>
      </trkpt>
      <trkpt lat="43.77584" lon="7.22891">
        <ele>259.79998779297</ele>
        <time>2020-02-22T14:46:16.000Z</time>
      </trkpt>
      <trkpt lat="43.77584" lon="7.22892">
        <ele>260</ele>
        <time>2020-02-22T14:46:26.000Z</time>
      </trkpt>
      <trkpt lat="43.77581" lon="7.22892">
        <ele>259.60000610352</ele>
        <time>2020-02-22T14:46:37.000Z</time>
      </trkpt>
      <trkpt lat="43.77571" lon="7.22901">
        <ele>259.39999389648</ele>
        <time>2020-02-22T14:46:41.000Z</time>
      </trkpt>
      <trkpt lat="43.77561" lon="7.22909">
        <ele>258.79998779297</ele>
        <time>2020-02-22T14:46:44.000Z</time>
      </trkpt>
      <trkpt lat="43.77549" lon="7.22925">
        <ele>258.60000610352</ele>
        <time>2020-02-22T14:46:48.000Z</time>
      </trkpt>
      <trkpt lat="43.77539" lon="7.22943">
        <ele>257.79998779297</ele>
        <time>2020-02-22T14:46:52.000Z</time>
      </trkpt>
      <trkpt lat="43.77534" lon="7.22953">
        <ele>257.79998779297</ele>
        <time>2020-02-22T14:46:54.000Z</time>
      </trkpt>
      <trkpt lat="43.77527" lon="7.22961">
        <ele>258</ele>
        <time>2020-02-22T14:46:56.000Z</time>
      </trkpt>
      <trkpt lat="43.7752" lon="7.22966">
        <ele>258.39999389648</ele>
        <time>2020-02-22T14:46:58.000Z</time>
      </trkpt>
      <trkpt lat="43.77514" lon="7.22973">
        <ele>258.60000610352</ele>
        <time>2020-02-22T14:47:00.000Z</time>
      </trkpt>
      <trkpt lat="43.77507" lon="7.22993">
        <ele>258.20001220703</ele>
        <time>2020-02-22T14:47:04.000Z</time>
      </trkpt>
      <trkpt lat="43.77505" lon="7.22998">
        <ele>258.39999389648</ele>
        <time>2020-02-22T14:47:05.000Z</time>
      </trkpt>
      <trkpt lat="43.77495" lon="7.23009">
        <ele>258.60000610352</ele>
        <time>2020-02-22T14:47:08.000Z</time>
      </trkpt>
      <trkpt lat="43.77483" lon="7.23027">
        <ele>258.79998779297</ele>
        <time>2020-02-22T14:47:13.000Z</time>
      </trkpt>
      <trkpt lat="43.7748" lon="7.2303">
        <ele>258.79998779297</ele>
        <time>2020-02-22T14:47:14.000Z</time>
      </trkpt>
      <trkpt lat="43.7747" lon="7.2304">
        <ele>259.20001220703</ele>
        <time>2020-02-22T14:47:18.000Z</time>
      </trkpt>
      <trkpt lat="43.7746" lon="7.23043">
        <ele>258.79998779297</ele>
        <time>2020-02-22T14:47:22.000Z</time>
      </trkpt>
      <trkpt lat="43.77455" lon="7.23045">
        <ele>258.79998779297</ele>
        <time>2020-02-22T14:47:27.000Z</time>
      </trkpt>
      <trkpt lat="43.77447" lon="7.23042">
        <ele>258.60000610352</ele>
        <time>2020-02-22T14:47:32.000Z</time>
      </trkpt>
      <trkpt lat="43.77442" lon="7.23045">
        <ele>258</ele>
        <time>2020-02-22T14:47:34.000Z</time>
      </trkpt>
      <trkpt lat="43.77441" lon="7.23045">
        <ele>257.39999389648</ele>
        <time>2020-02-22T14:47:35.000Z</time>
      </trkpt>
      <trkpt lat="43.7744" lon="7.23045">
        <ele>256.60000610352</ele>
        <time>2020-02-22T14:47:36.000Z</time>
      </trkpt>
      <trkpt lat="43.77439" lon="7.23043">
        <ele>256</ele>
        <time>2020-02-22T14:47:37.000Z</time>
      </trkpt>
      <trkpt lat="43.77439" lon="7.2304">
        <ele>254.60000610352</ele>
        <time>2020-02-22T14:47:39.000Z</time>
      </trkpt>
      <trkpt lat="43.77438" lon="7.23039">
        <ele>254.19999694824</ele>
        <time>2020-02-22T14:47:40.000Z</time>
      </trkpt>
      <trkpt lat="43.77437" lon="7.23039">
        <ele>253.19999694824</ele>
        <time>2020-02-22T14:47:42.000Z</time>
      </trkpt>
      <trkpt lat="43.77434" lon="7.23042">
        <ele>252.19999694824</ele>
        <time>2020-02-22T14:47:44.000Z</time>
      </trkpt>
      <trkpt lat="43.77433" lon="7.23043">
        <ele>252</ele>
        <time>2020-02-22T14:47:45.000Z</time>
      </trkpt>
      <trkpt lat="43.77432" lon="7.23039">
        <ele>251.19999694824</ele>
        <time>2020-02-22T14:47:47.000Z</time>
      </trkpt>
      <trkpt lat="43.77433" lon="7.23037">
        <ele>250.80000305176</ele>
        <time>2020-02-22T14:47:48.000Z</time>
      </trkpt>
      <trkpt lat="43.77434" lon="7.23032">
        <ele>249.19999694824</ele>
        <time>2020-02-22T14:47:51.000Z</time>
      </trkpt>
      <trkpt lat="43.77435" lon="7.23023">
        <ele>247.60000610352</ele>
        <time>2020-02-22T14:47:54.000Z</time>
      </trkpt>
      <trkpt lat="43.77435" lon="7.23022">
        <ele>247</ele>
        <time>2020-02-22T14:47:55.000Z</time>
      </trkpt>
      <trkpt lat="43.77435" lon="7.23022">
        <ele>247.39999389648</ele>
        <time>2020-02-22T14:47:59.000Z</time>
      </trkpt>
      <trkpt lat="43.77436" lon="7.23022">
        <ele>247.60000610352</ele>
        <time>2020-02-22T14:48:07.000Z</time>
      </trkpt>
      <trkpt lat="43.77437" lon="7.2302">
        <ele>248</ele>
        <time>2020-02-22T14:48:16.000Z</time>
      </trkpt>
      <trkpt lat="43.77441" lon="7.23015">
        <ele>248.60000610352</ele>
        <time>2020-02-22T14:48:20.000Z</time>
      </trkpt>
      <trkpt lat="43.77442" lon="7.23014">
        <ele>249</ele>
        <time>2020-02-22T14:48:21.000Z</time>
      </trkpt>
      <trkpt lat="43.77443" lon="7.23014">
        <ele>250</ele>
        <time>2020-02-22T14:48:23.000Z</time>
      </trkpt>
      <trkpt lat="43.77444" lon="7.23013">
        <ele>251.19999694824</ele>
        <time>2020-02-22T14:48:25.000Z</time>
      </trkpt>
      <trkpt lat="43.77443" lon="7.23013">
        <ele>251.60000610352</ele>
        <time>2020-02-22T14:48:26.000Z</time>
      </trkpt>
      <trkpt lat="43.77444" lon="7.23012">
        <ele>252.19999694824</ele>
        <time>2020-02-22T14:48:29.000Z</time>
      </trkpt>
      <trkpt lat="43.77443" lon="7.23012">
        <ele>252.60000610352</ele>
        <time>2020-02-22T14:48:33.000Z</time>
      </trkpt>
      <trkpt lat="43.77444" lon="7.23012">
        <ele>253.39999389648</ele>
        <time>2020-02-22T14:48:39.000Z</time>
      </trkpt>
      <trkpt lat="43.77444" lon="7.23012">
        <ele>253.39999389648</ele>
        <time>2020-02-22T14:48:40.000Z</time>
      </trkpt>
      <trkpt lat="43.77442" lon="7.23012">
        <ele>253.80000305176</ele>
        <time>2020-02-22T14:48:48.000Z</time>
      </trkpt>
      <trkpt lat="43.77443" lon="7.2301">
        <ele>254.39999389648</ele>
        <time>2020-02-22T14:48:51.000Z</time>
      </trkpt>
      <trkpt lat="43.77442" lon="7.2301">
        <ele>254.80000305176</ele>
        <time>2020-02-22T14:48:53.000Z</time>
      </trkpt>
      <trkpt lat="43.77442" lon="7.23008">
        <ele>255.60000610352</ele>
        <time>2020-02-22T14:49:02.000Z</time>
      </trkpt>
      <trkpt lat="43.77442" lon="7.23008">
        <ele>255.80000305176</ele>
        <time>2020-02-22T14:49:03.000Z</time>
      </trkpt>
      <trkpt lat="43.77441" lon="7.23005">
        <ele>256.60000610352</ele>
        <time>2020-02-22T14:49:09.000Z</time>
      </trkpt>
      <trkpt lat="43.77441" lon="7.23005">
        <ele>256.79998779297</ele>
        <time>2020-02-22T14:49:10.000Z</time>
      </trkpt>
      <trkpt lat="43.7744" lon="7.23002">
        <ele>257.60000610352</ele>
        <time>2020-02-22T14:49:16.000Z</time>
      </trkpt>
      <trkpt lat="43.7744" lon="7.23002">
        <ele>257.79998779297</ele>
        <time>2020-02-22T14:49:18.000Z</time>
      </trkpt>
      <trkpt lat="43.77438" lon="7.22999">
        <ele>258.60000610352</ele>
        <time>2020-02-22T14:49:26.000Z</time>
      </trkpt>
      <trkpt lat="43.77438" lon="7.22998">
        <ele>258.79998779297</ele>
        <time>2020-02-22T14:49:27.000Z</time>
      </trkpt>
      <trkpt lat="43.77435" lon="7.22994">
        <ele>259.79998779297</ele>
        <time>2020-02-22T14:49:33.000Z</time>
      </trkpt>
      <trkpt lat="43.77436" lon="7.22994">
        <ele>260</ele>
        <time>2020-02-22T14:49:34.000Z</time>
      </trkpt>
      <trkpt lat="43.77435" lon="7.22992">
        <ele>260.20001220703</ele>
        <time>2020-02-22T14:49:46.000Z</time>
      </trkpt>
      <trkpt lat="43.77435" lon="7.22992">
        <ele>260.39999389648</ele>
        <time>2020-02-22T14:49:59.000Z</time>
      </trkpt>
      <trkpt lat="43.77435" lon="7.22991">
        <ele>260.39999389648</ele>
        <time>2020-02-22T14:50:11.000Z</time>
      </trkpt>
      <trkpt lat="43.77433" lon="7.22984">
        <ele>260.20001220703</ele>
        <time>2020-02-22T14:50:16.000Z</time>
      </trkpt>
      <trkpt lat="43.77432" lon="7.22965">
        <ele>258.79998779297</ele>
        <time>2020-02-22T14:50:21.000Z</time>
      </trkpt>
      <trkpt lat="43.77432" lon="7.22957">
        <ele>257.79998779297</ele>
        <time>2020-02-22T14:50:23.000Z</time>
      </trkpt>
      <trkpt lat="43.77434" lon="7.2295">
        <ele>256.79998779297</ele>
        <time>2020-02-22T14:50:25.000Z</time>
      </trkpt>
      <trkpt lat="43.77437" lon="7.22941">
        <ele>255.80000305176</ele>
        <time>2020-02-22T14:50:27.000Z</time>
      </trkpt>
      <trkpt lat="43.77439" lon="7.22932">
        <ele>255</ele>
        <time>2020-02-22T14:50:29.000Z</time>
      </trkpt>
      <trkpt lat="43.7744" lon="7.22928">
        <ele>254.80000305176</ele>
        <time>2020-02-22T14:50:30.000Z</time>
      </trkpt>
      <trkpt lat="43.77442" lon="7.22902">
        <ele>255.80000305176</ele>
        <time>2020-02-22T14:50:35.000Z</time>
      </trkpt>
      <trkpt lat="43.77444" lon="7.22896">
        <ele>255.19999694824</ele>
        <time>2020-02-22T14:50:36.000Z</time>
      </trkpt>
      <trkpt lat="43.77445" lon="7.22891">
        <ele>254.80000305176</ele>
        <time>2020-02-22T14:50:37.000Z</time>
      </trkpt>
      <trkpt lat="43.77449" lon="7.22883">
        <ele>253.39999389648</ele>
        <time>2020-02-22T14:50:39.000Z</time>
      </trkpt>
      <trkpt lat="43.77449" lon="7.22879">
        <ele>252.80000305176</ele>
        <time>2020-02-22T14:50:40.000Z</time>
      </trkpt>
      <trkpt lat="43.77451" lon="7.22875">
        <ele>252</ele>
        <time>2020-02-22T14:50:41.000Z</time>
      </trkpt>
      <trkpt lat="43.77454" lon="7.22869">
        <ele>250.39999389648</ele>
        <time>2020-02-22T14:50:43.000Z</time>
      </trkpt>
      <trkpt lat="43.77455" lon="7.22865">
        <ele>249.60000610352</ele>
        <time>2020-02-22T14:50:44.000Z</time>
      </trkpt>
      <trkpt lat="43.77457" lon="7.22861">
        <ele>248.19999694824</ele>
        <time>2020-02-22T14:50:45.000Z</time>
      </trkpt>
      <trkpt lat="43.7746" lon="7.22854">
        <ele>246.60000610352</ele>
        <time>2020-02-22T14:50:47.000Z</time>
      </trkpt>
      <trkpt lat="43.7746" lon="7.2285">
        <ele>245.39999389648</ele>
        <time>2020-02-22T14:50:48.000Z</time>
      </trkpt>
      <trkpt lat="43.77459" lon="7.22846">
        <ele>244.60000610352</ele>
        <time>2020-02-22T14:50:49.000Z</time>
      </trkpt>
      <trkpt lat="43.77459" lon="7.22841">
        <ele>243.80000305176</ele>
        <time>2020-02-22T14:50:50.000Z</time>
      </trkpt>
      <trkpt lat="43.77459" lon="7.22834">
        <ele>243</ele>
        <time>2020-02-22T14:50:51.000Z</time>
      </trkpt>
      <trkpt lat="43.77459" lon="7.22829">
        <ele>242</ele>
        <time>2020-02-22T14:50:52.000Z</time>
      </trkpt>
      <trkpt lat="43.7746" lon="7.22824">
        <ele>241</ele>
        <time>2020-02-22T14:50:53.000Z</time>
      </trkpt>
      <trkpt lat="43.77463" lon="7.22818">
        <ele>240.19999694824</ele>
        <time>2020-02-22T14:50:54.000Z</time>
      </trkpt>
      <trkpt lat="43.77466" lon="7.22804">
        <ele>238.80000305176</ele>
        <time>2020-02-22T14:50:56.000Z</time>
      </trkpt>
      <trkpt lat="43.77469" lon="7.22796">
        <ele>237.39999389648</ele>
        <time>2020-02-22T14:50:57.000Z</time>
      </trkpt>
      <trkpt lat="43.77471" lon="7.2279">
        <ele>236.19999694824</ele>
        <time>2020-02-22T14:50:58.000Z</time>
      </trkpt>
      <trkpt lat="43.77471" lon="7.22783">
        <ele>235</ele>
        <time>2020-02-22T14:50:59.000Z</time>
      </trkpt>
      <trkpt lat="43.77471" lon="7.22779">
        <ele>233.80000305176</ele>
        <time>2020-02-22T14:51:00.000Z</time>
      </trkpt>
      <trkpt lat="43.77467" lon="7.22772">
        <ele>231.60000610352</ele>
        <time>2020-02-22T14:51:02.000Z</time>
      </trkpt>
      <trkpt lat="43.77467" lon="7.22768">
        <ele>231</ele>
        <time>2020-02-22T14:51:03.000Z</time>
      </trkpt>
      <trkpt lat="43.77467" lon="7.22762">
        <ele>230.39999389648</ele>
        <time>2020-02-22T14:51:04.000Z</time>
      </trkpt>
      <trkpt lat="43.77468" lon="7.22752">
        <ele>229.19999694824</ele>
        <time>2020-02-22T14:51:06.000Z</time>
      </trkpt>
      <trkpt lat="43.77468" lon="7.22747">
        <ele>228.39999389648</ele>
        <time>2020-02-22T14:51:07.000Z</time>
      </trkpt>
      <trkpt lat="43.77467" lon="7.22744">
        <ele>226.80000305176</ele>
        <time>2020-02-22T14:51:08.000Z</time>
      </trkpt>
      <trkpt lat="43.77466" lon="7.2274">
        <ele>225.80000305176</ele>
        <time>2020-02-22T14:51:09.000Z</time>
      </trkpt>
      <trkpt lat="43.77465" lon="7.22737">
        <ele>225.19999694824</ele>
        <time>2020-02-22T14:51:10.000Z</time>
      </trkpt>
      <trkpt lat="43.77463" lon="7.22732">
        <ele>224.19999694824</ele>
        <time>2020-02-22T14:51:11.000Z</time>
      </trkpt>
      <trkpt lat="43.77462" lon="7.2273">
        <ele>223</ele>
        <time>2020-02-22T14:51:12.000Z</time>
      </trkpt>
      <trkpt lat="43.77461" lon="7.2273">
        <ele>221.80000305176</ele>
        <time>2020-02-22T14:51:13.000Z</time>
      </trkpt>
      <trkpt lat="43.77462" lon="7.2273">
        <ele>220.60000610352</ele>
        <time>2020-02-22T14:51:14.000Z</time>
      </trkpt>
      <trkpt lat="43.77461" lon="7.2273">
        <ele>218.80000305176</ele>
        <time>2020-02-22T14:51:16.000Z</time>
      </trkpt>
      <trkpt lat="43.77461" lon="7.2273">
        <ele>218.19999694824</ele>
        <time>2020-02-22T14:51:24.000Z</time>
      </trkpt>
      <trkpt lat="43.77461" lon="7.22726">
        <ele>218.39999389648</ele>
        <time>2020-02-22T14:51:31.000Z</time>
      </trkpt>
      <trkpt lat="43.77462" lon="7.22725">
        <ele>217.80000305176</ele>
        <time>2020-02-22T14:51:34.000Z</time>
      </trkpt>
      <trkpt lat="43.77462" lon="7.22725">
        <ele>217.19999694824</ele>
        <time>2020-02-22T14:51:36.000Z</time>
      </trkpt>
      <trkpt lat="43.77462" lon="7.22724">
        <ele>216.80000305176</ele>
        <time>2020-02-22T14:51:39.000Z</time>
      </trkpt>
      <trkpt lat="43.77462" lon="7.22725">
        <ele>216.80000305176</ele>
        <time>2020-02-22T14:51:46.000Z</time>
      </trkpt>
      <trkpt lat="43.77465" lon="7.22722">
        <ele>217</ele>
        <time>2020-02-22T14:51:54.000Z</time>
      </trkpt>
      <trkpt lat="43.77465" lon="7.2272">
        <ele>216.80000305176</ele>
        <time>2020-02-22T14:51:55.000Z</time>
      </trkpt>
      <trkpt lat="43.77466" lon="7.22716">
        <ele>216.19999694824</ele>
        <time>2020-02-22T14:51:57.000Z</time>
      </trkpt>
      <trkpt lat="43.77464" lon="7.22711">
        <ele>215.39999389648</ele>
        <time>2020-02-22T14:51:59.000Z</time>
      </trkpt>
      <trkpt lat="43.77463" lon="7.22703">
        <ele>214.19999694824</ele>
        <time>2020-02-22T14:52:01.000Z</time>
      </trkpt>
      <trkpt lat="43.77465" lon="7.22697">
        <ele>212.80000305176</ele>
        <time>2020-02-22T14:52:03.000Z</time>
      </trkpt>
      <trkpt lat="43.77464" lon="7.22693">
        <ele>212</ele>
        <time>2020-02-22T14:52:04.000Z</time>
      </trkpt>
      <trkpt lat="43.77464" lon="7.22687">
        <ele>211.60000610352</ele>
        <time>2020-02-22T14:52:05.000Z</time>
      </trkpt>
      <trkpt lat="43.77463" lon="7.22678">
        <ele>209.80000305176</ele>
        <time>2020-02-22T14:52:07.000Z</time>
      </trkpt>
      <trkpt lat="43.77461" lon="7.22675">
        <ele>209</ele>
        <time>2020-02-22T14:52:08.000Z</time>
      </trkpt>
      <trkpt lat="43.7746" lon="7.22671">
        <ele>207.60000610352</ele>
        <time>2020-02-22T14:52:09.000Z</time>
      </trkpt>
      <trkpt lat="43.7746" lon="7.22668">
        <ele>206</ele>
        <time>2020-02-22T14:52:10.000Z</time>
      </trkpt>
      <trkpt lat="43.7746" lon="7.22664">
        <ele>204.80000305176</ele>
        <time>2020-02-22T14:52:11.000Z</time>
      </trkpt>
      <trkpt lat="43.77459" lon="7.22661">
        <ele>203.60000610352</ele>
        <time>2020-02-22T14:52:12.000Z</time>
      </trkpt>
      <trkpt lat="43.77457" lon="7.22657">
        <ele>202.39999389648</ele>
        <time>2020-02-22T14:52:13.000Z</time>
      </trkpt>
      <trkpt lat="43.77458" lon="7.22653">
        <ele>201.60000610352</ele>
        <time>2020-02-22T14:52:14.000Z</time>
      </trkpt>
      <trkpt lat="43.77459" lon="7.2265">
        <ele>200.80000305176</ele>
        <time>2020-02-22T14:52:15.000Z</time>
      </trkpt>
      <trkpt lat="43.77461" lon="7.22646">
        <ele>199</ele>
        <time>2020-02-22T14:52:17.000Z</time>
      </trkpt>
      <trkpt lat="43.77462" lon="7.22645">
        <ele>198.19999694824</ele>
        <time>2020-02-22T14:52:18.000Z</time>
      </trkpt>
      <trkpt lat="43.77463" lon="7.22645">
        <ele>197.19999694824</ele>
        <time>2020-02-22T14:52:19.000Z</time>
      </trkpt>
      <trkpt lat="43.77463" lon="7.22644">
        <ele>195.60000610352</ele>
        <time>2020-02-22T14:52:21.000Z</time>
      </trkpt>
      <trkpt lat="43.77463" lon="7.22643">
        <ele>195</ele>
        <time>2020-02-22T14:52:22.000Z</time>
      </trkpt>
      <trkpt lat="43.77463" lon="7.22643">
        <ele>194.39999389648</ele>
        <time>2020-02-22T14:52:23.000Z</time>
      </trkpt>
      <trkpt lat="43.77462" lon="7.22642">
        <ele>193.19999694824</ele>
        <time>2020-02-22T14:52:27.000Z</time>
      </trkpt>
      <trkpt lat="43.77462" lon="7.22641">
        <ele>193.19999694824</ele>
        <time>2020-02-22T14:52:29.000Z</time>
      </trkpt>
      <trkpt lat="43.7746" lon="7.22638">
        <ele>193</ele>
        <time>2020-02-22T14:52:32.000Z</time>
      </trkpt>
      <trkpt lat="43.77457" lon="7.22633">
        <ele>192.19999694824</ele>
        <time>2020-02-22T14:52:34.000Z</time>
      </trkpt>
      <trkpt lat="43.77452" lon="7.22628">
        <ele>190.80000305176</ele>
        <time>2020-02-22T14:52:36.000Z</time>
      </trkpt>
      <trkpt lat="43.77449" lon="7.22626">
        <ele>190.19999694824</ele>
        <time>2020-02-22T14:52:37.000Z</time>
      </trkpt>
      <trkpt lat="43.77447" lon="7.22624">
        <ele>189.39999389648</ele>
        <time>2020-02-22T14:52:38.000Z</time>
      </trkpt>
      <trkpt lat="43.77446" lon="7.22624">
        <ele>188.60000610352</ele>
        <time>2020-02-22T14:52:39.000Z</time>
      </trkpt>
      <trkpt lat="43.77444" lon="7.22625">
        <ele>188.19999694824</ele>
        <time>2020-02-22T14:52:40.000Z</time>
      </trkpt>
      <trkpt lat="43.7744" lon="7.22627">
        <ele>186.39999389648</ele>
        <time>2020-02-22T14:52:42.000Z</time>
      </trkpt>
      <trkpt lat="43.77438" lon="7.22627">
        <ele>185.39999389648</ele>
        <time>2020-02-22T14:52:43.000Z</time>
      </trkpt>
      <trkpt lat="43.77437" lon="7.22627">
        <ele>184.39999389648</ele>
        <time>2020-02-22T14:52:44.000Z</time>
      </trkpt>
      <trkpt lat="43.77433" lon="7.22626">
        <ele>182.80000305176</ele>
        <time>2020-02-22T14:52:46.000Z</time>
      </trkpt>
      <trkpt lat="43.77427" lon="7.22627">
        <ele>181.19999694824</ele>
        <time>2020-02-22T14:52:48.000Z</time>
      </trkpt>
      <trkpt lat="43.77424" lon="7.22628">
        <ele>180.39999389648</ele>
        <time>2020-02-22T14:52:49.000Z</time>
      </trkpt>
      <trkpt lat="43.77421" lon="7.2263">
        <ele>179.60000610352</ele>
        <time>2020-02-22T14:52:50.000Z</time>
      </trkpt>
      <trkpt lat="43.77419" lon="7.22634">
        <ele>179.19999694824</ele>
        <time>2020-02-22T14:52:51.000Z</time>
      </trkpt>
      <trkpt lat="43.77417" lon="7.22637">
        <ele>178.39999389648</ele>
        <time>2020-02-22T14:52:52.000Z</time>
      </trkpt>
      <trkpt lat="43.77414" lon="7.22641">
        <ele>177.60000610352</ele>
        <time>2020-02-22T14:52:53.000Z</time>
      </trkpt>
      <trkpt lat="43.77413" lon="7.22642">
        <ele>176.80000305176</ele>
        <time>2020-02-22T14:52:54.000Z</time>
      </trkpt>
      <trkpt lat="43.77409" lon="7.22642">
        <ele>175.39999389648</ele>
        <time>2020-02-22T14:52:56.000Z</time>
      </trkpt>
      <trkpt lat="43.77409" lon="7.22641">
        <ele>174.39999389648</ele>
        <time>2020-02-22T14:53:00.000Z</time>
      </trkpt>
      <trkpt lat="43.77408" lon="7.2264">
        <ele>174.39999389648</ele>
        <time>2020-02-22T14:53:01.000Z</time>
      </trkpt>
      <trkpt lat="43.77406" lon="7.22634">
        <ele>175</ele>
        <time>2020-02-22T14:53:07.000Z</time>
      </trkpt>
      <trkpt lat="43.77406" lon="7.22633">
        <ele>175.39999389648</ele>
        <time>2020-02-22T14:53:10.000Z</time>
      </trkpt>
      <trkpt lat="43.77407" lon="7.22633">
        <ele>175.60000610352</ele>
        <time>2020-02-22T14:53:13.000Z</time>
      </trkpt>
      <trkpt lat="43.77407" lon="7.2263">
        <ele>175.60000610352</ele>
        <time>2020-02-22T14:53:16.000Z</time>
      </trkpt>
      <trkpt lat="43.77404" lon="7.22626">
        <ele>175.60000610352</ele>
        <time>2020-02-22T14:53:18.000Z</time>
      </trkpt>
      <trkpt lat="43.77398" lon="7.22612">
        <ele>176.39999389648</ele>
        <time>2020-02-22T14:53:22.000Z</time>
      </trkpt>
      <trkpt lat="43.77397" lon="7.22609">
        <ele>176.80000305176</ele>
        <time>2020-02-22T14:53:23.000Z</time>
      </trkpt>
      <trkpt lat="43.77392" lon="7.22603">
        <ele>178.39999389648</ele>
        <time>2020-02-22T14:53:26.000Z</time>
      </trkpt>
      <trkpt lat="43.7739" lon="7.22602">
        <ele>179.19999694824</ele>
        <time>2020-02-22T14:53:27.000Z</time>
      </trkpt>
      <trkpt lat="43.77388" lon="7.22601">
        <ele>180</ele>
        <time>2020-02-22T14:53:28.000Z</time>
      </trkpt>
      <trkpt lat="43.77385" lon="7.22598">
        <ele>181.19999694824</ele>
        <time>2020-02-22T14:53:30.000Z</time>
      </trkpt>
      <trkpt lat="43.77383" lon="7.22594">
        <ele>182.39999389648</ele>
        <time>2020-02-22T14:53:32.000Z</time>
      </trkpt>
      <trkpt lat="43.77383" lon="7.22594">
        <ele>182.80000305176</ele>
        <time>2020-02-22T14:53:33.000Z</time>
      </trkpt>
      <trkpt lat="43.77382" lon="7.22591">
        <ele>183.39999389648</ele>
        <time>2020-02-22T14:53:35.000Z</time>
      </trkpt>
      <trkpt lat="43.77381" lon="7.22588">
        <ele>183.80000305176</ele>
        <time>2020-02-22T14:53:38.000Z</time>
      </trkpt>
      <trkpt lat="43.77381" lon="7.22578">
        <ele>183</ele>
        <time>2020-02-22T14:53:44.000Z</time>
      </trkpt>
      <trkpt lat="43.77381" lon="7.22571">
        <ele>182.19999694824</ele>
        <time>2020-02-22T14:53:48.000Z</time>
      </trkpt>
      <trkpt lat="43.7738" lon="7.22566">
        <ele>181.80000305176</ele>
        <time>2020-02-22T14:53:51.000Z</time>
      </trkpt>
      <trkpt lat="43.77379" lon="7.22561">
        <ele>181.19999694824</ele>
        <time>2020-02-22T14:53:55.000Z</time>
      </trkpt>
      <trkpt lat="43.77376" lon="7.22557">
        <ele>180.60000610352</ele>
        <time>2020-02-22T14:53:58.000Z</time>
      </trkpt>
      <trkpt lat="43.77364" lon="7.22553">
        <ele>180.19999694824</ele>
        <time>2020-02-22T14:54:04.000Z</time>
      </trkpt>
      <trkpt lat="43.7735" lon="7.22558">
        <ele>180.19999694824</ele>
        <time>2020-02-22T14:54:08.000Z</time>
      </trkpt>
      <trkpt lat="43.77345" lon="7.2256">
        <ele>180.19999694824</ele>
        <time>2020-02-22T14:54:09.000Z</time>
      </trkpt>
      <trkpt lat="43.77334" lon="7.22562">
        <ele>179.19999694824</ele>
        <time>2020-02-22T14:54:12.000Z</time>
      </trkpt>
      <trkpt lat="43.77331" lon="7.2256">
        <ele>178.39999389648</ele>
        <time>2020-02-22T14:54:13.000Z</time>
      </trkpt>
      <trkpt lat="43.77327" lon="7.22556">
        <ele>177.19999694824</ele>
        <time>2020-02-22T14:54:15.000Z</time>
      </trkpt>
      <trkpt lat="43.77316" lon="7.22551">
        <ele>176</ele>
        <time>2020-02-22T14:54:18.000Z</time>
      </trkpt>
      <trkpt lat="43.77304" lon="7.22547">
        <ele>174.39999389648</ele>
        <time>2020-02-22T14:54:21.000Z</time>
      </trkpt>
      <trkpt lat="43.77304" lon="7.22542">
        <ele>173.80000305176</ele>
        <time>2020-02-22T14:54:22.000Z</time>
      </trkpt>
      <trkpt lat="43.77305" lon="7.22536">
        <ele>173.19999694824</ele>
        <time>2020-02-22T14:54:23.000Z</time>
      </trkpt>
      <trkpt lat="43.77314" lon="7.22528">
        <ele>172.19999694824</ele>
        <time>2020-02-22T14:54:25.000Z</time>
      </trkpt>
      <trkpt lat="43.77319" lon="7.22525">
        <ele>171.60000610352</ele>
        <time>2020-02-22T14:54:26.000Z</time>
      </trkpt>
      <trkpt lat="43.77321" lon="7.22519">
        <ele>170</ele>
        <time>2020-02-22T14:54:28.000Z</time>
      </trkpt>
      <trkpt lat="43.77321" lon="7.22513">
        <ele>168.60000610352</ele>
        <time>2020-02-22T14:54:30.000Z</time>
      </trkpt>
      <trkpt lat="43.77318" lon="7.22507">
        <ele>167.39999389648</ele>
        <time>2020-02-22T14:54:32.000Z</time>
      </trkpt>
      <trkpt lat="43.77312" lon="7.22503">
        <ele>166.19999694824</ele>
        <time>2020-02-22T14:54:34.000Z</time>
      </trkpt>
      <trkpt lat="43.77309" lon="7.22499">
        <ele>164.60000610352</ele>
        <time>2020-02-22T14:54:36.000Z</time>
      </trkpt>
      <trkpt lat="43.7731" lon="7.22491">
        <ele>163.39999389648</ele>
        <time>2020-02-22T14:54:38.000Z</time>
      </trkpt>
      <trkpt lat="43.77312" lon="7.22484">
        <ele>162</ele>
        <time>2020-02-22T14:54:40.000Z</time>
      </trkpt>
      <trkpt lat="43.77317" lon="7.22474">
        <ele>160.39999389648</ele>
        <time>2020-02-22T14:54:42.000Z</time>
      </trkpt>
      <trkpt lat="43.77317" lon="7.22466">
        <ele>158.80000305176</ele>
        <time>2020-02-22T14:54:44.000Z</time>
      </trkpt>
      <trkpt lat="43.77312" lon="7.22461">
        <ele>157</ele>
        <time>2020-02-22T14:54:46.000Z</time>
      </trkpt>
      <trkpt lat="43.77307" lon="7.22463">
        <ele>156.19999694824</ele>
        <time>2020-02-22T14:54:47.000Z</time>
      </trkpt>
      <trkpt lat="43.77302" lon="7.22467">
        <ele>155.19999694824</ele>
        <time>2020-02-22T14:54:48.000Z</time>
      </trkpt>
      <trkpt lat="43.77296" lon="7.22471">
        <ele>154.60000610352</ele>
        <time>2020-02-22T14:54:49.000Z</time>
      </trkpt>
      <trkpt lat="43.7729" lon="7.22473">
        <ele>153.60000610352</ele>
        <time>2020-02-22T14:54:50.000Z</time>
      </trkpt>
      <trkpt lat="43.77286" lon="7.22472">
        <ele>152.39999389648</ele>
        <time>2020-02-22T14:54:51.000Z</time>
      </trkpt>
      <trkpt lat="43.77283" lon="7.22468">
        <ele>151.80000305176</ele>
        <time>2020-02-22T14:54:52.000Z</time>
      </trkpt>
      <trkpt lat="43.77283" lon="7.22461">
        <ele>150.80000305176</ele>
        <time>2020-02-22T14:54:53.000Z</time>
      </trkpt>
      <trkpt lat="43.77284" lon="7.22454">
        <ele>150.19999694824</ele>
        <time>2020-02-22T14:54:54.000Z</time>
      </trkpt>
      <trkpt lat="43.77288" lon="7.22447">
        <ele>149.60000610352</ele>
        <time>2020-02-22T14:54:55.000Z</time>
      </trkpt>
      <trkpt lat="43.77302" lon="7.22437">
        <ele>148</ele>
        <time>2020-02-22T14:54:57.000Z</time>
      </trkpt>
      <trkpt lat="43.77309" lon="7.22435">
        <ele>147</ele>
        <time>2020-02-22T14:54:58.000Z</time>
      </trkpt>
      <trkpt lat="43.77317" lon="7.22434">
        <ele>145.80000305176</ele>
        <time>2020-02-22T14:54:59.000Z</time>
      </trkpt>
      <trkpt lat="43.77325" lon="7.22433">
        <ele>144.39999389648</ele>
        <time>2020-02-22T14:55:00.000Z</time>
      </trkpt>
      <trkpt lat="43.77334" lon="7.22434">
        <ele>143.19999694824</ele>
        <time>2020-02-22T14:55:01.000Z</time>
      </trkpt>
      <trkpt lat="43.7734" lon="7.22436">
        <ele>141.80000305176</ele>
        <time>2020-02-22T14:55:02.000Z</time>
      </trkpt>
      <trkpt lat="43.77346" lon="7.22438">
        <ele>140.39999389648</ele>
        <time>2020-02-22T14:55:03.000Z</time>
      </trkpt>
      <trkpt lat="43.7735" lon="7.22439">
        <ele>139.19999694824</ele>
        <time>2020-02-22T14:55:04.000Z</time>
      </trkpt>
      <trkpt lat="43.77357" lon="7.22436">
        <ele>137.60000610352</ele>
        <time>2020-02-22T14:55:06.000Z</time>
      </trkpt>
      <trkpt lat="43.77357" lon="7.22424">
        <ele>136.60000610352</ele>
        <time>2020-02-22T14:55:09.000Z</time>
      </trkpt>
      <trkpt lat="43.77342" lon="7.2242">
        <ele>135.19999694824</ele>
        <time>2020-02-22T14:55:12.000Z</time>
      </trkpt>
      <trkpt lat="43.77322" lon="7.22411">
        <ele>133.60000610352</ele>
        <time>2020-02-22T14:55:15.000Z</time>
      </trkpt>
      <trkpt lat="43.77313" lon="7.22407">
        <ele>132.80000305176</ele>
        <time>2020-02-22T14:55:16.000Z</time>
      </trkpt>
      <trkpt lat="43.77304" lon="7.22401">
        <ele>131.60000610352</ele>
        <time>2020-02-22T14:55:17.000Z</time>
      </trkpt>
      <trkpt lat="43.77294" lon="7.22395">
        <ele>130.19999694824</ele>
        <time>2020-02-22T14:55:18.000Z</time>
      </trkpt>
      <trkpt lat="43.77285" lon="7.22388">
        <ele>128.39999389648</ele>
        <time>2020-02-22T14:55:19.000Z</time>
      </trkpt>
      <trkpt lat="43.77276" lon="7.22381">
        <ele>126.40000152588</ele>
        <time>2020-02-22T14:55:20.000Z</time>
      </trkpt>
      <trkpt lat="43.77265" lon="7.22374">
        <ele>124.59999847412</ele>
        <time>2020-02-22T14:55:21.000Z</time>
      </trkpt>
      <trkpt lat="43.77255" lon="7.2237">
        <ele>122.80000305176</ele>
        <time>2020-02-22T14:55:22.000Z</time>
      </trkpt>
      <trkpt lat="43.77245" lon="7.22366">
        <ele>120.80000305176</ele>
        <time>2020-02-22T14:55:23.000Z</time>
      </trkpt>
      <trkpt lat="43.77239" lon="7.22364">
        <ele>118</ele>
        <time>2020-02-22T14:55:24.000Z</time>
      </trkpt>
      <trkpt lat="43.77235" lon="7.22363">
        <ele>116.80000305176</ele>
        <time>2020-02-22T14:55:25.000Z</time>
      </trkpt>
      <trkpt lat="43.77232" lon="7.22363">
        <ele>115.40000152588</ele>
        <time>2020-02-22T14:55:26.000Z</time>
      </trkpt>
      <trkpt lat="43.77225" lon="7.22362">
        <ele>114.59999847412</ele>
        <time>2020-02-22T14:55:30.000Z</time>
      </trkpt>
      <trkpt lat="43.77224" lon="7.2236">
        <ele>114.59999847412</ele>
        <time>2020-02-22T14:55:31.000Z</time>
      </trkpt>
      <trkpt lat="43.77223" lon="7.22359">
        <ele>114.40000152588</ele>
        <time>2020-02-22T14:55:32.000Z</time>
      </trkpt>
      <trkpt lat="43.77223" lon="7.22359">
        <ele>113.80000305176</ele>
        <time>2020-02-22T14:55:34.000Z</time>
      </trkpt>
      <trkpt lat="43.77218" lon="7.22354">
        <ele>113.40000152588</ele>
        <time>2020-02-22T14:55:38.000Z</time>
      </trkpt>
      <trkpt lat="43.77216" lon="7.22347">
        <ele>113.19999694824</ele>
        <time>2020-02-22T14:55:40.000Z</time>
      </trkpt>
      <trkpt lat="43.77215" lon="7.22341">
        <ele>112.59999847412</ele>
        <time>2020-02-22T14:55:42.000Z</time>
      </trkpt>
      <trkpt lat="43.77214" lon="7.22338">
        <ele>112.19999694824</ele>
        <time>2020-02-22T14:55:43.000Z</time>
      </trkpt>
      <trkpt lat="43.77211" lon="7.22328">
        <ele>111.19999694824</ele>
        <time>2020-02-22T14:55:46.000Z</time>
      </trkpt>
      <trkpt lat="43.7721" lon="7.22325">
        <ele>110.80000305176</ele>
        <time>2020-02-22T14:55:47.000Z</time>
      </trkpt>
      <trkpt lat="43.77209" lon="7.22321">
        <ele>110.40000152588</ele>
        <time>2020-02-22T14:55:48.000Z</time>
      </trkpt>
      <trkpt lat="43.77206" lon="7.22311">
        <ele>109.80000305176</ele>
        <time>2020-02-22T14:55:50.000Z</time>
      </trkpt>
      <trkpt lat="43.77205" lon="7.22304">
        <ele>109.40000152588</ele>
        <time>2020-02-22T14:55:51.000Z</time>
      </trkpt>
      <trkpt lat="43.77204" lon="7.22298">
        <ele>109</ele>
        <time>2020-02-22T14:55:52.000Z</time>
      </trkpt>
      <trkpt lat="43.77202" lon="7.2229">
        <ele>108.59999847412</ele>
        <time>2020-02-22T14:55:53.000Z</time>
      </trkpt>
      <trkpt lat="43.772" lon="7.22275">
        <ele>107.80000305176</ele>
        <time>2020-02-22T14:55:55.000Z</time>
      </trkpt>
      <trkpt lat="43.77199" lon="7.22266">
        <ele>107.40000152588</ele>
        <time>2020-02-22T14:55:56.000Z</time>
      </trkpt>
      <trkpt lat="43.772" lon="7.22257">
        <ele>107</ele>
        <time>2020-02-22T14:55:57.000Z</time>
      </trkpt>
      <trkpt lat="43.77206" lon="7.2224">
        <ele>106.19999694824</ele>
        <time>2020-02-22T14:55:59.000Z</time>
      </trkpt>
      <trkpt lat="43.7721" lon="7.22232">
        <ele>106</ele>
        <time>2020-02-22T14:56:00.000Z</time>
      </trkpt>
      <trkpt lat="43.77219" lon="7.22202">
        <ele>105</ele>
        <time>2020-02-22T14:56:03.000Z</time>
      </trkpt>
      <trkpt lat="43.77221" lon="7.22192">
        <ele>104.40000152588</ele>
        <time>2020-02-22T14:56:04.000Z</time>
      </trkpt>
      <trkpt lat="43.77222" lon="7.22181">
        <ele>104</ele>
        <time>2020-02-22T14:56:05.000Z</time>
      </trkpt>
      <trkpt lat="43.7722" lon="7.22159">
        <ele>103</ele>
        <time>2020-02-22T14:56:07.000Z</time>
      </trkpt>
      <trkpt lat="43.77218" lon="7.22148">
        <ele>102.40000152588</ele>
        <time>2020-02-22T14:56:08.000Z</time>
      </trkpt>
      <trkpt lat="43.77216" lon="7.22137">
        <ele>102</ele>
        <time>2020-02-22T14:56:09.000Z</time>
      </trkpt>
      <trkpt lat="43.77214" lon="7.22125">
        <ele>101.80000305176</ele>
        <time>2020-02-22T14:56:10.000Z</time>
      </trkpt>
      <trkpt lat="43.77207" lon="7.22091">
        <ele>100.59999847412</ele>
        <time>2020-02-22T14:56:13.000Z</time>
      </trkpt>
      <trkpt lat="43.772" lon="7.22057">
        <ele>99.199996948242</ele>
        <time>2020-02-22T14:56:16.000Z</time>
      </trkpt>
      <trkpt lat="43.77195" lon="7.22033">
        <ele>98</ele>
        <time>2020-02-22T14:56:18.000Z</time>
      </trkpt>
      <trkpt lat="43.77187" lon="7.21987">
        <ele>96.800003051758</ele>
        <time>2020-02-22T14:56:22.000Z</time>
      </trkpt>
      <trkpt lat="43.77183" lon="7.21949">
        <ele>95.599998474121</ele>
        <time>2020-02-22T14:56:25.000Z</time>
      </trkpt>
      <trkpt lat="43.77182" lon="7.21896">
        <ele>94.599998474121</ele>
        <time>2020-02-22T14:56:29.000Z</time>
      </trkpt>
      <trkpt lat="43.77182" lon="7.21869">
        <ele>93.800003051758</ele>
        <time>2020-02-22T14:56:31.000Z</time>
      </trkpt>
      <trkpt lat="43.77181" lon="7.21856">
        <ele>93.400001525879</ele>
        <time>2020-02-22T14:56:32.000Z</time>
      </trkpt>
      <trkpt lat="43.77181" lon="7.2183">
        <ele>92.199996948242</ele>
        <time>2020-02-22T14:56:34.000Z</time>
      </trkpt>
      <trkpt lat="43.77181" lon="7.21802">
        <ele>91.199996948242</ele>
        <time>2020-02-22T14:56:36.000Z</time>
      </trkpt>
      <trkpt lat="43.77181" lon="7.21774">
        <ele>89.800003051758</ele>
        <time>2020-02-22T14:56:38.000Z</time>
      </trkpt>
      <trkpt lat="43.77181" lon="7.2176">
        <ele>89.199996948242</ele>
        <time>2020-02-22T14:56:39.000Z</time>
      </trkpt>
      <trkpt lat="43.77181" lon="7.21747">
        <ele>88.400001525879</ele>
        <time>2020-02-22T14:56:40.000Z</time>
      </trkpt>
      <trkpt lat="43.77179" lon="7.21717">
        <ele>87.199996948242</ele>
        <time>2020-02-22T14:56:42.000Z</time>
      </trkpt>
      <trkpt lat="43.77175" lon="7.21689">
        <ele>85.800003051758</ele>
        <time>2020-02-22T14:56:44.000Z</time>
      </trkpt>
      <trkpt lat="43.77169" lon="7.21662">
        <ele>84.599998474121</ele>
        <time>2020-02-22T14:56:46.000Z</time>
      </trkpt>
      <trkpt lat="43.77164" lon="7.21634">
        <ele>83.599998474121</ele>
        <time>2020-02-22T14:56:48.000Z</time>
      </trkpt>
    </trkseg>
  </trk>
</gpx>